<?xml version="1.0" encoding="UTF-8" standalone="no" ?>
<gpx xmlns="http://www.topografix.com/GPX/1/1" xmlns:xsi="http://www.w3.org/2001/XMLSchema-instance" xsi:schemaLocation="http://www.topografix.com/GPX/1/1 http://www.topografix.com/GPX/1/1/gpx.xsd" version="1.1" creator="VisuGPX - https://www.visugpx.com">
  <metadata>
    <name>16 mai 2026</name>
    <desc><![CDATA[2ème jour du rassemblement. Promenade en montagne avec plusieurs cols.]]></desc>
  </metadata>
  <trk>
    <name><![CDATA[16 mai 2026]]></name>
    <extensions>
      <line xmlns="http://www.topografix.com/GPX/gpx_style/0/2">
        <color>0000FF</color>
        <width>4</width>
      </line>
    </extensions>
    <trkseg>
      <trkpt lat="43.68076" lon="7.0991">
        <ele>129.3</ele>
        <time>2026-05-16T06:46:56Z</time>
      </trkpt>
      <trkpt lat="43.68076" lon="7.0991">
        <ele>129.3</ele>
        <time>2026-05-16T06:46:57Z</time>
      </trkpt>
      <trkpt lat="43.68076" lon="7.0991">
        <ele>129.3</ele>
        <time>2026-05-16T06:46:58Z</time>
      </trkpt>
      <trkpt lat="43.68076" lon="7.0991">
        <ele>129.3</ele>
        <time>2026-05-16T06:46:59Z</time>
      </trkpt>
      <trkpt lat="43.68076" lon="7.0991">
        <ele>129.3</ele>
        <time>2026-05-16T06:47:00Z</time>
      </trkpt>
      <trkpt lat="43.68076" lon="7.0991">
        <ele>129.3</ele>
        <time>2026-05-16T06:47:01Z</time>
      </trkpt>
      <trkpt lat="43.68076" lon="7.0991">
        <ele>129.3</ele>
        <time>2026-05-16T06:47:02Z</time>
      </trkpt>
      <trkpt lat="43.68076" lon="7.0991">
        <ele>129.3</ele>
        <time>2026-05-16T06:47:03Z</time>
      </trkpt>
      <trkpt lat="43.68076" lon="7.0991">
        <ele>129.3</ele>
        <time>2026-05-16T06:47:04Z</time>
      </trkpt>
      <trkpt lat="43.68076" lon="7.09911">
        <ele>129.2</ele>
        <time>2026-05-16T06:47:05Z</time>
      </trkpt>
      <trkpt lat="43.68076" lon="7.09911">
        <ele>129.2</ele>
        <time>2026-05-16T06:47:06Z</time>
      </trkpt>
      <trkpt lat="43.68076" lon="7.09911">
        <ele>129.2</ele>
        <time>2026-05-16T06:47:07Z</time>
      </trkpt>
      <trkpt lat="43.68076" lon="7.09911">
        <ele>129.2</ele>
        <time>2026-05-16T06:47:08Z</time>
      </trkpt>
      <trkpt lat="43.68076" lon="7.09911">
        <ele>129.2</ele>
        <time>2026-05-16T06:47:09Z</time>
      </trkpt>
      <trkpt lat="43.68076" lon="7.09911">
        <ele>129.2</ele>
        <time>2026-05-16T06:47:10Z</time>
      </trkpt>
      <trkpt lat="43.68076" lon="7.09911">
        <ele>129.2</ele>
        <time>2026-05-16T06:47:11Z</time>
      </trkpt>
      <trkpt lat="43.68076" lon="7.09911">
        <ele>129.2</ele>
        <time>2026-05-16T06:47:12Z</time>
      </trkpt>
      <trkpt lat="43.68076" lon="7.09911">
        <ele>129.2</ele>
        <time>2026-05-16T06:47:13Z</time>
      </trkpt>
      <trkpt lat="43.68076" lon="7.09911">
        <ele>129.2</ele>
        <time>2026-05-16T06:47:14Z</time>
      </trkpt>
      <trkpt lat="43.68076" lon="7.09911">
        <ele>129.2</ele>
        <time>2026-05-16T06:47:15Z</time>
      </trkpt>
      <trkpt lat="43.68076" lon="7.09911">
        <ele>129.2</ele>
        <time>2026-05-16T06:47:16Z</time>
      </trkpt>
      <trkpt lat="43.68076" lon="7.09911">
        <ele>129.2</ele>
        <time>2026-05-16T06:47:17Z</time>
      </trkpt>
      <trkpt lat="43.68076" lon="7.09911">
        <ele>129.2</ele>
        <time>2026-05-16T06:47:18Z</time>
      </trkpt>
      <trkpt lat="43.68076" lon="7.09911">
        <ele>129.2</ele>
        <time>2026-05-16T06:47:19Z</time>
      </trkpt>
      <trkpt lat="43.68076" lon="7.09911">
        <ele>129.2</ele>
        <time>2026-05-16T06:47:20Z</time>
      </trkpt>
      <trkpt lat="43.68076" lon="7.09911">
        <ele>129.2</ele>
        <time>2026-05-16T06:47:21Z</time>
      </trkpt>
      <trkpt lat="43.68076" lon="7.09911">
        <ele>129.2</ele>
        <time>2026-05-16T06:47:22Z</time>
      </trkpt>
      <trkpt lat="43.68076" lon="7.09911">
        <ele>129.2</ele>
        <time>2026-05-16T06:47:23Z</time>
      </trkpt>
      <trkpt lat="43.68076" lon="7.09911">
        <ele>129.2</ele>
        <time>2026-05-16T06:47:24Z</time>
      </trkpt>
      <trkpt lat="43.68076" lon="7.09911">
        <ele>129.2</ele>
        <time>2026-05-16T06:47:25Z</time>
      </trkpt>
      <trkpt lat="43.68076" lon="7.09911">
        <ele>129.2</ele>
        <time>2026-05-16T06:47:26Z</time>
      </trkpt>
      <trkpt lat="43.68076" lon="7.09911">
        <ele>129.2</ele>
        <time>2026-05-16T06:47:27Z</time>
      </trkpt>
      <trkpt lat="43.68076" lon="7.09911">
        <ele>129.2</ele>
        <time>2026-05-16T06:47:28Z</time>
      </trkpt>
      <trkpt lat="43.68076" lon="7.09911">
        <ele>129.2</ele>
        <time>2026-05-16T06:47:29Z</time>
      </trkpt>
      <trkpt lat="43.68076" lon="7.09911">
        <ele>129.2</ele>
        <time>2026-05-16T06:47:30Z</time>
      </trkpt>
      <trkpt lat="43.68076" lon="7.09911">
        <ele>129.2</ele>
        <time>2026-05-16T06:47:31Z</time>
      </trkpt>
      <trkpt lat="43.68076" lon="7.09911">
        <ele>129.2</ele>
        <time>2026-05-16T06:47:32Z</time>
      </trkpt>
      <trkpt lat="43.68076" lon="7.09911">
        <ele>129.2</ele>
        <time>2026-05-16T06:47:33Z</time>
      </trkpt>
      <trkpt lat="43.68076" lon="7.09911">
        <ele>129.2</ele>
        <time>2026-05-16T06:47:34Z</time>
      </trkpt>
      <trkpt lat="43.68076" lon="7.09911">
        <ele>129.2</ele>
        <time>2026-05-16T06:47:35Z</time>
      </trkpt>
      <trkpt lat="43.68076" lon="7.09911">
        <ele>129.2</ele>
        <time>2026-05-16T06:47:36Z</time>
      </trkpt>
      <trkpt lat="43.68076" lon="7.09911">
        <ele>129.2</ele>
        <time>2026-05-16T06:47:37Z</time>
      </trkpt>
      <trkpt lat="43.68076" lon="7.09911">
        <ele>129.2</ele>
        <time>2026-05-16T06:47:38Z</time>
      </trkpt>
      <trkpt lat="43.68076" lon="7.09911">
        <ele>129.2</ele>
        <time>2026-05-16T06:47:39Z</time>
      </trkpt>
      <trkpt lat="43.68076" lon="7.09911">
        <ele>129.2</ele>
        <time>2026-05-16T06:47:40Z</time>
      </trkpt>
      <trkpt lat="43.68076" lon="7.09911">
        <ele>129.2</ele>
        <time>2026-05-16T06:47:41Z</time>
      </trkpt>
      <trkpt lat="43.68076" lon="7.09911">
        <ele>129.2</ele>
        <time>2026-05-16T06:47:42Z</time>
      </trkpt>
      <trkpt lat="43.68076" lon="7.09911">
        <ele>129.2</ele>
        <time>2026-05-16T06:47:43Z</time>
      </trkpt>
      <trkpt lat="43.68076" lon="7.09911">
        <ele>129.2</ele>
        <time>2026-05-16T06:47:44Z</time>
      </trkpt>
      <trkpt lat="43.68076" lon="7.09911">
        <ele>129.2</ele>
        <time>2026-05-16T06:47:45Z</time>
      </trkpt>
      <trkpt lat="43.68076" lon="7.09911">
        <ele>129.2</ele>
        <time>2026-05-16T06:47:46Z</time>
      </trkpt>
      <trkpt lat="43.68076" lon="7.09911">
        <ele>129.2</ele>
        <time>2026-05-16T06:47:47Z</time>
      </trkpt>
      <trkpt lat="43.68076" lon="7.09911">
        <ele>129.2</ele>
        <time>2026-05-16T06:47:48Z</time>
      </trkpt>
      <trkpt lat="43.68076" lon="7.09911">
        <ele>129.2</ele>
        <time>2026-05-16T06:47:49Z</time>
      </trkpt>
      <trkpt lat="43.68076" lon="7.09911">
        <ele>129.2</ele>
        <time>2026-05-16T06:47:50Z</time>
      </trkpt>
      <trkpt lat="43.68076" lon="7.09911">
        <ele>129.2</ele>
        <time>2026-05-16T06:47:51Z</time>
      </trkpt>
      <trkpt lat="43.68076" lon="7.09911">
        <ele>129.2</ele>
        <time>2026-05-16T06:47:52Z</time>
      </trkpt>
      <trkpt lat="43.68076" lon="7.09911">
        <ele>129.2</ele>
        <time>2026-05-16T06:47:53Z</time>
      </trkpt>
      <trkpt lat="43.68076" lon="7.09911">
        <ele>129.2</ele>
        <time>2026-05-16T06:47:54Z</time>
      </trkpt>
      <trkpt lat="43.68076" lon="7.09911">
        <ele>129.2</ele>
        <time>2026-05-16T06:47:55Z</time>
      </trkpt>
      <trkpt lat="43.68076" lon="7.09911">
        <ele>129.2</ele>
        <time>2026-05-16T06:47:56Z</time>
      </trkpt>
      <trkpt lat="43.68076" lon="7.09911">
        <ele>129.2</ele>
        <time>2026-05-16T06:47:57Z</time>
      </trkpt>
      <trkpt lat="43.68076" lon="7.09911">
        <ele>129.2</ele>
        <time>2026-05-16T06:47:58Z</time>
      </trkpt>
      <trkpt lat="43.68076" lon="7.09911">
        <ele>129.2</ele>
        <time>2026-05-16T06:47:59Z</time>
      </trkpt>
      <trkpt lat="43.68076" lon="7.09911">
        <ele>129.2</ele>
        <time>2026-05-16T06:48:00Z</time>
      </trkpt>
      <trkpt lat="43.68076" lon="7.09911">
        <ele>129.2</ele>
        <time>2026-05-16T06:48:01Z</time>
      </trkpt>
      <trkpt lat="43.68076" lon="7.09911">
        <ele>129.2</ele>
        <time>2026-05-16T06:48:02Z</time>
      </trkpt>
      <trkpt lat="43.68076" lon="7.09911">
        <ele>129.2</ele>
        <time>2026-05-16T06:48:03Z</time>
      </trkpt>
      <trkpt lat="43.68076" lon="7.09911">
        <ele>129.2</ele>
        <time>2026-05-16T06:48:04Z</time>
      </trkpt>
      <trkpt lat="43.68076" lon="7.09911">
        <ele>129.2</ele>
        <time>2026-05-16T06:48:05Z</time>
      </trkpt>
      <trkpt lat="43.68076" lon="7.09911">
        <ele>129.2</ele>
        <time>2026-05-16T06:48:06Z</time>
      </trkpt>
      <trkpt lat="43.68076" lon="7.09911">
        <ele>129.2</ele>
        <time>2026-05-16T06:48:07Z</time>
      </trkpt>
      <trkpt lat="43.68076" lon="7.09911">
        <ele>129.2</ele>
        <time>2026-05-16T06:48:08Z</time>
      </trkpt>
      <trkpt lat="43.68076" lon="7.09911">
        <ele>129.2</ele>
        <time>2026-05-16T06:48:09Z</time>
      </trkpt>
      <trkpt lat="43.68076" lon="7.09911">
        <ele>129.2</ele>
        <time>2026-05-16T06:48:10Z</time>
      </trkpt>
      <trkpt lat="43.68076" lon="7.09911">
        <ele>129.2</ele>
        <time>2026-05-16T06:48:11Z</time>
      </trkpt>
      <trkpt lat="43.68076" lon="7.09911">
        <ele>129.2</ele>
        <time>2026-05-16T06:48:12Z</time>
      </trkpt>
      <trkpt lat="43.68076" lon="7.09911">
        <ele>129.2</ele>
        <time>2026-05-16T06:48:13Z</time>
      </trkpt>
      <trkpt lat="43.68076" lon="7.09911">
        <ele>129.2</ele>
        <time>2026-05-16T06:48:14Z</time>
      </trkpt>
      <trkpt lat="43.68076" lon="7.09911">
        <ele>129.2</ele>
        <time>2026-05-16T06:48:15Z</time>
      </trkpt>
      <trkpt lat="43.68076" lon="7.09911">
        <ele>129.2</ele>
        <time>2026-05-16T06:48:16Z</time>
      </trkpt>
      <trkpt lat="43.68076" lon="7.09911">
        <ele>129.2</ele>
        <time>2026-05-16T06:48:17Z</time>
      </trkpt>
      <trkpt lat="43.68076" lon="7.09911">
        <ele>129.2</ele>
        <time>2026-05-16T06:48:18Z</time>
      </trkpt>
      <trkpt lat="43.68076" lon="7.09911">
        <ele>129.2</ele>
        <time>2026-05-16T06:48:19Z</time>
      </trkpt>
      <trkpt lat="43.68076" lon="7.09911">
        <ele>129.2</ele>
        <time>2026-05-16T06:48:20Z</time>
      </trkpt>
      <trkpt lat="43.68076" lon="7.09911">
        <ele>129.2</ele>
        <time>2026-05-16T06:48:21Z</time>
      </trkpt>
      <trkpt lat="43.68076" lon="7.09911">
        <ele>129.2</ele>
        <time>2026-05-16T06:48:22Z</time>
      </trkpt>
      <trkpt lat="43.68076" lon="7.09911">
        <ele>129.2</ele>
        <time>2026-05-16T06:48:23Z</time>
      </trkpt>
      <trkpt lat="43.68076" lon="7.09911">
        <ele>129.2</ele>
        <time>2026-05-16T06:48:24Z</time>
      </trkpt>
      <trkpt lat="43.68076" lon="7.09911">
        <ele>129.2</ele>
        <time>2026-05-16T06:48:25Z</time>
      </trkpt>
      <trkpt lat="43.68076" lon="7.09911">
        <ele>129.2</ele>
        <time>2026-05-16T06:48:26Z</time>
      </trkpt>
      <trkpt lat="43.68076" lon="7.09911">
        <ele>129.2</ele>
        <time>2026-05-16T06:48:27Z</time>
      </trkpt>
      <trkpt lat="43.68076" lon="7.09911">
        <ele>129.2</ele>
        <time>2026-05-16T06:48:28Z</time>
      </trkpt>
      <trkpt lat="43.68076" lon="7.09911">
        <ele>129.2</ele>
        <time>2026-05-16T06:48:29Z</time>
      </trkpt>
      <trkpt lat="43.68076" lon="7.09911">
        <ele>129.2</ele>
        <time>2026-05-16T06:48:30Z</time>
      </trkpt>
      <trkpt lat="43.68076" lon="7.09911">
        <ele>129.2</ele>
        <time>2026-05-16T06:48:31Z</time>
      </trkpt>
      <trkpt lat="43.68076" lon="7.09911">
        <ele>129.2</ele>
        <time>2026-05-16T06:48:32Z</time>
      </trkpt>
      <trkpt lat="43.68076" lon="7.09911">
        <ele>129.2</ele>
        <time>2026-05-16T06:48:33Z</time>
      </trkpt>
      <trkpt lat="43.68076" lon="7.09911">
        <ele>129.2</ele>
        <time>2026-05-16T06:48:34Z</time>
      </trkpt>
      <trkpt lat="43.68076" lon="7.09911">
        <ele>129.2</ele>
        <time>2026-05-16T06:48:35Z</time>
      </trkpt>
      <trkpt lat="43.68076" lon="7.09911">
        <ele>129.2</ele>
        <time>2026-05-16T06:48:36Z</time>
      </trkpt>
      <trkpt lat="43.68076" lon="7.09911">
        <ele>129.2</ele>
        <time>2026-05-16T06:48:37Z</time>
      </trkpt>
      <trkpt lat="43.68076" lon="7.09911">
        <ele>129.2</ele>
        <time>2026-05-16T06:48:38Z</time>
      </trkpt>
      <trkpt lat="43.68076" lon="7.09911">
        <ele>129.2</ele>
        <time>2026-05-16T06:48:39Z</time>
      </trkpt>
      <trkpt lat="43.68076" lon="7.09911">
        <ele>129.2</ele>
        <time>2026-05-16T06:48:40Z</time>
      </trkpt>
      <trkpt lat="43.68076" lon="7.09911">
        <ele>129.2</ele>
        <time>2026-05-16T06:48:41Z</time>
      </trkpt>
      <trkpt lat="43.68076" lon="7.09911">
        <ele>129.2</ele>
        <time>2026-05-16T06:48:42Z</time>
      </trkpt>
      <trkpt lat="43.68076" lon="7.09911">
        <ele>129.2</ele>
        <time>2026-05-16T06:48:43Z</time>
      </trkpt>
      <trkpt lat="43.68076" lon="7.09911">
        <ele>129.2</ele>
        <time>2026-05-16T06:48:44Z</time>
      </trkpt>
      <trkpt lat="43.68076" lon="7.09911">
        <ele>129.2</ele>
        <time>2026-05-16T06:48:45Z</time>
      </trkpt>
      <trkpt lat="43.68076" lon="7.09911">
        <ele>129.2</ele>
        <time>2026-05-16T06:48:46Z</time>
      </trkpt>
      <trkpt lat="43.68076" lon="7.09911">
        <ele>129.2</ele>
        <time>2026-05-16T06:48:47Z</time>
      </trkpt>
      <trkpt lat="43.68076" lon="7.09911">
        <ele>129.2</ele>
        <time>2026-05-16T06:48:48Z</time>
      </trkpt>
      <trkpt lat="43.68076" lon="7.09912">
        <ele>129.2</ele>
        <time>2026-05-16T06:48:49Z</time>
      </trkpt>
      <trkpt lat="43.68076" lon="7.09912">
        <ele>129.2</ele>
        <time>2026-05-16T06:48:50Z</time>
      </trkpt>
      <trkpt lat="43.68076" lon="7.09912">
        <ele>129.2</ele>
        <time>2026-05-16T06:48:51Z</time>
      </trkpt>
      <trkpt lat="43.68076" lon="7.09912">
        <ele>129.2</ele>
        <time>2026-05-16T06:48:52Z</time>
      </trkpt>
      <trkpt lat="43.68076" lon="7.09912">
        <ele>129.2</ele>
        <time>2026-05-16T06:48:53Z</time>
      </trkpt>
      <trkpt lat="43.68076" lon="7.09912">
        <ele>129.2</ele>
        <time>2026-05-16T06:48:54Z</time>
      </trkpt>
      <trkpt lat="43.68076" lon="7.09912">
        <ele>129.2</ele>
        <time>2026-05-16T06:48:55Z</time>
      </trkpt>
      <trkpt lat="43.68076" lon="7.09912">
        <ele>129.2</ele>
        <time>2026-05-16T06:48:56Z</time>
      </trkpt>
      <trkpt lat="43.68076" lon="7.09912">
        <ele>129.2</ele>
        <time>2026-05-16T06:48:57Z</time>
      </trkpt>
      <trkpt lat="43.68076" lon="7.09912">
        <ele>129.2</ele>
        <time>2026-05-16T06:48:58Z</time>
      </trkpt>
      <trkpt lat="43.68076" lon="7.09912">
        <ele>129.2</ele>
        <time>2026-05-16T06:48:59Z</time>
      </trkpt>
      <trkpt lat="43.68076" lon="7.09912">
        <ele>129.2</ele>
        <time>2026-05-16T06:49:00Z</time>
      </trkpt>
      <trkpt lat="43.68076" lon="7.09912">
        <ele>129.2</ele>
        <time>2026-05-16T06:49:01Z</time>
      </trkpt>
      <trkpt lat="43.68076" lon="7.09912">
        <ele>129.2</ele>
        <time>2026-05-16T06:49:02Z</time>
      </trkpt>
      <trkpt lat="43.68076" lon="7.09912">
        <ele>129.2</ele>
        <time>2026-05-16T06:49:03Z</time>
      </trkpt>
      <trkpt lat="43.68076" lon="7.09912">
        <ele>129.2</ele>
        <time>2026-05-16T06:49:04Z</time>
      </trkpt>
      <trkpt lat="43.68076" lon="7.09912">
        <ele>129.2</ele>
        <time>2026-05-16T06:49:05Z</time>
      </trkpt>
      <trkpt lat="43.68076" lon="7.09912">
        <ele>129.2</ele>
        <time>2026-05-16T06:49:06Z</time>
      </trkpt>
      <trkpt lat="43.68076" lon="7.09912">
        <ele>129.2</ele>
        <time>2026-05-16T06:49:07Z</time>
      </trkpt>
      <trkpt lat="43.68076" lon="7.09912">
        <ele>129.2</ele>
        <time>2026-05-16T06:49:08Z</time>
      </trkpt>
      <trkpt lat="43.68076" lon="7.09912">
        <ele>129.2</ele>
        <time>2026-05-16T06:49:09Z</time>
      </trkpt>
      <trkpt lat="43.68076" lon="7.09912">
        <ele>129.2</ele>
        <time>2026-05-16T06:49:10Z</time>
      </trkpt>
      <trkpt lat="43.68076" lon="7.09912">
        <ele>129.2</ele>
        <time>2026-05-16T06:49:11Z</time>
      </trkpt>
      <trkpt lat="43.68076" lon="7.09912">
        <ele>129.2</ele>
        <time>2026-05-16T06:49:12Z</time>
      </trkpt>
      <trkpt lat="43.68076" lon="7.09912">
        <ele>129.2</ele>
        <time>2026-05-16T06:49:13Z</time>
      </trkpt>
      <trkpt lat="43.68076" lon="7.09912">
        <ele>129.2</ele>
        <time>2026-05-16T06:49:14Z</time>
      </trkpt>
      <trkpt lat="43.68076" lon="7.09912">
        <ele>129.2</ele>
        <time>2026-05-16T06:49:15Z</time>
      </trkpt>
      <trkpt lat="43.68076" lon="7.09912">
        <ele>129.2</ele>
        <time>2026-05-16T06:49:16Z</time>
      </trkpt>
      <trkpt lat="43.68076" lon="7.09912">
        <ele>129.2</ele>
        <time>2026-05-16T06:49:17Z</time>
      </trkpt>
      <trkpt lat="43.68076" lon="7.09912">
        <ele>129.2</ele>
        <time>2026-05-16T06:49:18Z</time>
      </trkpt>
      <trkpt lat="43.68076" lon="7.09912">
        <ele>129.2</ele>
        <time>2026-05-16T06:49:19Z</time>
      </trkpt>
      <trkpt lat="43.68076" lon="7.09912">
        <ele>129.2</ele>
        <time>2026-05-16T06:49:20Z</time>
      </trkpt>
      <trkpt lat="43.68076" lon="7.09912">
        <ele>129.2</ele>
        <time>2026-05-16T06:49:21Z</time>
      </trkpt>
      <trkpt lat="43.68076" lon="7.09912">
        <ele>129.2</ele>
        <time>2026-05-16T06:49:22Z</time>
      </trkpt>
      <trkpt lat="43.68076" lon="7.09912">
        <ele>129.2</ele>
        <time>2026-05-16T06:49:23Z</time>
      </trkpt>
      <trkpt lat="43.68076" lon="7.09912">
        <ele>129.2</ele>
        <time>2026-05-16T06:49:24Z</time>
      </trkpt>
      <trkpt lat="43.68076" lon="7.09912">
        <ele>129.2</ele>
        <time>2026-05-16T06:49:25Z</time>
      </trkpt>
      <trkpt lat="43.68076" lon="7.09912">
        <ele>129.2</ele>
        <time>2026-05-16T06:49:26Z</time>
      </trkpt>
      <trkpt lat="43.68076" lon="7.09912">
        <ele>129.2</ele>
        <time>2026-05-16T06:49:27Z</time>
      </trkpt>
      <trkpt lat="43.68076" lon="7.09912">
        <ele>129.2</ele>
        <time>2026-05-16T06:49:28Z</time>
      </trkpt>
      <trkpt lat="43.68076" lon="7.09912">
        <ele>129.2</ele>
        <time>2026-05-16T06:49:29Z</time>
      </trkpt>
      <trkpt lat="43.68076" lon="7.09912">
        <ele>129.2</ele>
        <time>2026-05-16T06:49:30Z</time>
      </trkpt>
      <trkpt lat="43.68076" lon="7.09912">
        <ele>129.2</ele>
        <time>2026-05-16T06:49:31Z</time>
      </trkpt>
      <trkpt lat="43.68076" lon="7.09912">
        <ele>129.2</ele>
        <time>2026-05-16T06:49:32Z</time>
      </trkpt>
      <trkpt lat="43.68076" lon="7.09912">
        <ele>129.2</ele>
        <time>2026-05-16T06:49:33Z</time>
      </trkpt>
      <trkpt lat="43.68076" lon="7.09912">
        <ele>129.2</ele>
        <time>2026-05-16T06:49:34Z</time>
      </trkpt>
      <trkpt lat="43.68076" lon="7.09912">
        <ele>129.2</ele>
        <time>2026-05-16T06:49:35Z</time>
      </trkpt>
      <trkpt lat="43.68076" lon="7.09912">
        <ele>129.2</ele>
        <time>2026-05-16T06:49:36Z</time>
      </trkpt>
      <trkpt lat="43.68076" lon="7.09912">
        <ele>129.2</ele>
        <time>2026-05-16T06:49:37Z</time>
      </trkpt>
      <trkpt lat="43.68076" lon="7.09912">
        <ele>129.2</ele>
        <time>2026-05-16T06:49:38Z</time>
      </trkpt>
      <trkpt lat="43.68076" lon="7.09912">
        <ele>129.2</ele>
        <time>2026-05-16T06:49:39Z</time>
      </trkpt>
      <trkpt lat="43.68076" lon="7.09912">
        <ele>129.2</ele>
        <time>2026-05-16T06:49:40Z</time>
      </trkpt>
      <trkpt lat="43.68076" lon="7.09912">
        <ele>129.2</ele>
        <time>2026-05-16T06:49:41Z</time>
      </trkpt>
      <trkpt lat="43.68076" lon="7.09912">
        <ele>129.2</ele>
        <time>2026-05-16T06:49:42Z</time>
      </trkpt>
      <trkpt lat="43.68076" lon="7.09912">
        <ele>129.2</ele>
        <time>2026-05-16T06:49:43Z</time>
      </trkpt>
      <trkpt lat="43.68076" lon="7.09912">
        <ele>129.2</ele>
        <time>2026-05-16T06:49:44Z</time>
      </trkpt>
      <trkpt lat="43.68076" lon="7.09912">
        <ele>129.2</ele>
        <time>2026-05-16T06:49:45Z</time>
      </trkpt>
      <trkpt lat="43.68076" lon="7.09912">
        <ele>129.2</ele>
        <time>2026-05-16T06:49:46Z</time>
      </trkpt>
      <trkpt lat="43.68076" lon="7.09912">
        <ele>129.2</ele>
        <time>2026-05-16T06:49:47Z</time>
      </trkpt>
      <trkpt lat="43.68076" lon="7.09912">
        <ele>129.2</ele>
        <time>2026-05-16T06:49:48Z</time>
      </trkpt>
      <trkpt lat="43.68076" lon="7.09912">
        <ele>129.2</ele>
        <time>2026-05-16T06:49:49Z</time>
      </trkpt>
      <trkpt lat="43.68076" lon="7.09912">
        <ele>129.2</ele>
        <time>2026-05-16T06:49:50Z</time>
      </trkpt>
      <trkpt lat="43.68076" lon="7.09912">
        <ele>129.2</ele>
        <time>2026-05-16T06:49:51Z</time>
      </trkpt>
      <trkpt lat="43.68076" lon="7.09912">
        <ele>129.2</ele>
        <time>2026-05-16T06:49:52Z</time>
      </trkpt>
      <trkpt lat="43.68076" lon="7.09912">
        <ele>129.2</ele>
        <time>2026-05-16T06:49:53Z</time>
      </trkpt>
      <trkpt lat="43.68076" lon="7.09912">
        <ele>129.2</ele>
        <time>2026-05-16T06:49:54Z</time>
      </trkpt>
      <trkpt lat="43.68076" lon="7.09912">
        <ele>129.2</ele>
        <time>2026-05-16T06:49:55Z</time>
      </trkpt>
      <trkpt lat="43.68076" lon="7.09912">
        <ele>129.2</ele>
        <time>2026-05-16T06:49:56Z</time>
      </trkpt>
      <trkpt lat="43.68076" lon="7.09912">
        <ele>129.2</ele>
        <time>2026-05-16T06:49:57Z</time>
      </trkpt>
      <trkpt lat="43.68076" lon="7.09912">
        <ele>129.2</ele>
        <time>2026-05-16T06:49:58Z</time>
      </trkpt>
      <trkpt lat="43.68076" lon="7.09912">
        <ele>129.2</ele>
        <time>2026-05-16T06:49:59Z</time>
      </trkpt>
      <trkpt lat="43.68076" lon="7.09912">
        <ele>129.2</ele>
        <time>2026-05-16T06:50:00Z</time>
      </trkpt>
      <trkpt lat="43.68076" lon="7.09912">
        <ele>129.2</ele>
        <time>2026-05-16T06:50:01Z</time>
      </trkpt>
      <trkpt lat="43.68076" lon="7.09912">
        <ele>129.2</ele>
        <time>2026-05-16T06:50:02Z</time>
      </trkpt>
      <trkpt lat="43.68076" lon="7.09912">
        <ele>129.2</ele>
        <time>2026-05-16T06:50:03Z</time>
      </trkpt>
      <trkpt lat="43.68076" lon="7.09912">
        <ele>129.2</ele>
        <time>2026-05-16T06:50:04Z</time>
      </trkpt>
      <trkpt lat="43.68076" lon="7.09912">
        <ele>129.2</ele>
        <time>2026-05-16T06:50:05Z</time>
      </trkpt>
      <trkpt lat="43.68076" lon="7.09912">
        <ele>129.2</ele>
        <time>2026-05-16T06:50:06Z</time>
      </trkpt>
      <trkpt lat="43.68076" lon="7.09912">
        <ele>129.2</ele>
        <time>2026-05-16T06:50:07Z</time>
      </trkpt>
      <trkpt lat="43.68076" lon="7.09912">
        <ele>129.2</ele>
        <time>2026-05-16T06:50:08Z</time>
      </trkpt>
      <trkpt lat="43.68076" lon="7.09912">
        <ele>129.2</ele>
        <time>2026-05-16T06:50:09Z</time>
      </trkpt>
      <trkpt lat="43.68076" lon="7.09912">
        <ele>129.2</ele>
        <time>2026-05-16T06:50:10Z</time>
      </trkpt>
      <trkpt lat="43.68076" lon="7.09912">
        <ele>129.2</ele>
        <time>2026-05-16T06:50:11Z</time>
      </trkpt>
      <trkpt lat="43.68076" lon="7.09912">
        <ele>129.2</ele>
        <time>2026-05-16T06:50:12Z</time>
      </trkpt>
      <trkpt lat="43.68076" lon="7.09912">
        <ele>129.2</ele>
        <time>2026-05-16T06:50:13Z</time>
      </trkpt>
      <trkpt lat="43.68076" lon="7.09912">
        <ele>129.2</ele>
        <time>2026-05-16T06:50:14Z</time>
      </trkpt>
      <trkpt lat="43.68076" lon="7.09912">
        <ele>129.2</ele>
        <time>2026-05-16T06:50:15Z</time>
      </trkpt>
      <trkpt lat="43.68076" lon="7.09912">
        <ele>129.2</ele>
        <time>2026-05-16T06:50:16Z</time>
      </trkpt>
      <trkpt lat="43.68076" lon="7.09912">
        <ele>129.2</ele>
        <time>2026-05-16T06:50:17Z</time>
      </trkpt>
      <trkpt lat="43.68076" lon="7.09912">
        <ele>129.2</ele>
        <time>2026-05-16T06:50:18Z</time>
      </trkpt>
      <trkpt lat="43.68076" lon="7.09912">
        <ele>129.2</ele>
        <time>2026-05-16T06:50:19Z</time>
      </trkpt>
      <trkpt lat="43.68076" lon="7.09912">
        <ele>129.2</ele>
        <time>2026-05-16T06:50:20Z</time>
      </trkpt>
      <trkpt lat="43.68076" lon="7.09912">
        <ele>129.2</ele>
        <time>2026-05-16T06:50:21Z</time>
      </trkpt>
      <trkpt lat="43.68076" lon="7.09913">
        <ele>129.2</ele>
        <time>2026-05-16T06:50:22Z</time>
      </trkpt>
      <trkpt lat="43.68076" lon="7.09913">
        <ele>129.2</ele>
        <time>2026-05-16T06:50:23Z</time>
      </trkpt>
      <trkpt lat="43.68076" lon="7.09913">
        <ele>129.2</ele>
        <time>2026-05-16T06:50:24Z</time>
      </trkpt>
      <trkpt lat="43.68076" lon="7.09913">
        <ele>129.2</ele>
        <time>2026-05-16T06:50:25Z</time>
      </trkpt>
      <trkpt lat="43.68076" lon="7.09913">
        <ele>129.2</ele>
        <time>2026-05-16T06:50:26Z</time>
      </trkpt>
      <trkpt lat="43.68076" lon="7.09913">
        <ele>129.2</ele>
        <time>2026-05-16T06:50:27Z</time>
      </trkpt>
      <trkpt lat="43.68076" lon="7.09913">
        <ele>129.2</ele>
        <time>2026-05-16T06:50:28Z</time>
      </trkpt>
      <trkpt lat="43.68076" lon="7.09913">
        <ele>129.2</ele>
        <time>2026-05-16T06:50:29Z</time>
      </trkpt>
      <trkpt lat="43.68076" lon="7.09913">
        <ele>129.2</ele>
        <time>2026-05-16T06:50:30Z</time>
      </trkpt>
      <trkpt lat="43.68076" lon="7.09913">
        <ele>129.2</ele>
        <time>2026-05-16T06:50:31Z</time>
      </trkpt>
      <trkpt lat="43.68076" lon="7.09913">
        <ele>129.2</ele>
        <time>2026-05-16T06:50:32Z</time>
      </trkpt>
      <trkpt lat="43.68076" lon="7.09913">
        <ele>129.2</ele>
        <time>2026-05-16T06:50:33Z</time>
      </trkpt>
      <trkpt lat="43.68075" lon="7.09913">
        <ele>129.1</ele>
        <time>2026-05-16T06:50:34Z</time>
      </trkpt>
      <trkpt lat="43.68075" lon="7.09913">
        <ele>129.1</ele>
        <time>2026-05-16T06:50:35Z</time>
      </trkpt>
      <trkpt lat="43.68075" lon="7.09913">
        <ele>129.1</ele>
        <time>2026-05-16T06:50:36Z</time>
      </trkpt>
      <trkpt lat="43.68075" lon="7.09913">
        <ele>129.1</ele>
        <time>2026-05-16T06:50:37Z</time>
      </trkpt>
      <trkpt lat="43.68075" lon="7.09913">
        <ele>129.1</ele>
        <time>2026-05-16T06:50:38Z</time>
      </trkpt>
      <trkpt lat="43.68075" lon="7.09913">
        <ele>129.1</ele>
        <time>2026-05-16T06:50:39Z</time>
      </trkpt>
      <trkpt lat="43.68075" lon="7.09913">
        <ele>129.1</ele>
        <time>2026-05-16T06:50:40Z</time>
      </trkpt>
      <trkpt lat="43.68076" lon="7.09913">
        <ele>129.2</ele>
        <time>2026-05-16T06:50:41Z</time>
      </trkpt>
      <trkpt lat="43.68076" lon="7.09913">
        <ele>129.2</ele>
        <time>2026-05-16T06:50:42Z</time>
      </trkpt>
      <trkpt lat="43.68076" lon="7.09913">
        <ele>129.2</ele>
        <time>2026-05-16T06:50:43Z</time>
      </trkpt>
      <trkpt lat="43.68076" lon="7.09913">
        <ele>129.2</ele>
        <time>2026-05-16T06:50:44Z</time>
      </trkpt>
      <trkpt lat="43.68076" lon="7.09913">
        <ele>129.2</ele>
        <time>2026-05-16T06:50:45Z</time>
      </trkpt>
      <trkpt lat="43.68076" lon="7.09913">
        <ele>129.2</ele>
        <time>2026-05-16T06:50:46Z</time>
      </trkpt>
      <trkpt lat="43.68076" lon="7.09913">
        <ele>129.2</ele>
        <time>2026-05-16T06:50:47Z</time>
      </trkpt>
      <trkpt lat="43.68076" lon="7.09913">
        <ele>129.2</ele>
        <time>2026-05-16T06:50:48Z</time>
      </trkpt>
      <trkpt lat="43.68076" lon="7.09913">
        <ele>129.2</ele>
        <time>2026-05-16T06:50:49Z</time>
      </trkpt>
      <trkpt lat="43.68076" lon="7.09913">
        <ele>129.2</ele>
        <time>2026-05-16T06:50:50Z</time>
      </trkpt>
      <trkpt lat="43.68076" lon="7.09913">
        <ele>129.2</ele>
        <time>2026-05-16T06:50:51Z</time>
      </trkpt>
      <trkpt lat="43.68076" lon="7.09913">
        <ele>129.2</ele>
        <time>2026-05-16T06:50:52Z</time>
      </trkpt>
      <trkpt lat="43.68076" lon="7.09913">
        <ele>129.2</ele>
        <time>2026-05-16T06:50:53Z</time>
      </trkpt>
      <trkpt lat="43.68076" lon="7.09913">
        <ele>129.2</ele>
        <time>2026-05-16T06:50:54Z</time>
      </trkpt>
      <trkpt lat="43.68076" lon="7.09913">
        <ele>129.2</ele>
        <time>2026-05-16T06:50:55Z</time>
      </trkpt>
      <trkpt lat="43.68076" lon="7.09913">
        <ele>129.2</ele>
        <time>2026-05-16T06:50:56Z</time>
      </trkpt>
      <trkpt lat="43.68076" lon="7.09913">
        <ele>129.2</ele>
        <time>2026-05-16T06:50:57Z</time>
      </trkpt>
      <trkpt lat="43.68076" lon="7.09913">
        <ele>129.2</ele>
        <time>2026-05-16T06:50:58Z</time>
      </trkpt>
      <trkpt lat="43.68076" lon="7.09913">
        <ele>129.2</ele>
        <time>2026-05-16T06:50:59Z</time>
      </trkpt>
      <trkpt lat="43.68076" lon="7.09913">
        <ele>129.2</ele>
        <time>2026-05-16T06:51:00Z</time>
      </trkpt>
      <trkpt lat="43.68076" lon="7.09913">
        <ele>129.2</ele>
        <time>2026-05-16T06:51:01Z</time>
      </trkpt>
      <trkpt lat="43.68076" lon="7.09913">
        <ele>129.2</ele>
        <time>2026-05-16T06:51:02Z</time>
      </trkpt>
      <trkpt lat="43.68076" lon="7.09913">
        <ele>129.2</ele>
        <time>2026-05-16T06:51:03Z</time>
      </trkpt>
      <trkpt lat="43.68076" lon="7.09913">
        <ele>129.2</ele>
        <time>2026-05-16T06:51:04Z</time>
      </trkpt>
      <trkpt lat="43.68076" lon="7.09913">
        <ele>129.2</ele>
        <time>2026-05-16T06:51:05Z</time>
      </trkpt>
      <trkpt lat="43.68076" lon="7.09913">
        <ele>129.2</ele>
        <time>2026-05-16T06:51:06Z</time>
      </trkpt>
      <trkpt lat="43.68076" lon="7.09913">
        <ele>129.2</ele>
        <time>2026-05-16T06:51:07Z</time>
      </trkpt>
      <trkpt lat="43.68076" lon="7.09913">
        <ele>129.2</ele>
        <time>2026-05-16T06:51:08Z</time>
      </trkpt>
      <trkpt lat="43.68076" lon="7.09913">
        <ele>129.2</ele>
        <time>2026-05-16T06:51:09Z</time>
      </trkpt>
      <trkpt lat="43.68076" lon="7.09913">
        <ele>129.2</ele>
        <time>2026-05-16T06:51:10Z</time>
      </trkpt>
      <trkpt lat="43.68076" lon="7.09913">
        <ele>129.2</ele>
        <time>2026-05-16T06:51:11Z</time>
      </trkpt>
      <trkpt lat="43.68075" lon="7.09913">
        <ele>129.1</ele>
        <time>2026-05-16T06:51:12Z</time>
      </trkpt>
      <trkpt lat="43.68075" lon="7.09913">
        <ele>129.1</ele>
        <time>2026-05-16T06:51:13Z</time>
      </trkpt>
      <trkpt lat="43.68075" lon="7.09913">
        <ele>129.1</ele>
        <time>2026-05-16T06:51:14Z</time>
      </trkpt>
      <trkpt lat="43.68075" lon="7.09913">
        <ele>129.1</ele>
        <time>2026-05-16T06:51:15Z</time>
      </trkpt>
      <trkpt lat="43.68075" lon="7.09913">
        <ele>129.1</ele>
        <time>2026-05-16T06:51:16Z</time>
      </trkpt>
      <trkpt lat="43.68075" lon="7.09913">
        <ele>129.1</ele>
        <time>2026-05-16T06:51:17Z</time>
      </trkpt>
      <trkpt lat="43.68075" lon="7.09913">
        <ele>129.1</ele>
        <time>2026-05-16T06:51:18Z</time>
      </trkpt>
      <trkpt lat="43.68075" lon="7.09913">
        <ele>129.1</ele>
        <time>2026-05-16T06:51:19Z</time>
      </trkpt>
      <trkpt lat="43.68075" lon="7.09913">
        <ele>129.1</ele>
        <time>2026-05-16T06:51:20Z</time>
      </trkpt>
      <trkpt lat="43.68075" lon="7.09913">
        <ele>129.1</ele>
        <time>2026-05-16T06:51:21Z</time>
      </trkpt>
      <trkpt lat="43.68075" lon="7.09913">
        <ele>129.1</ele>
        <time>2026-05-16T06:51:22Z</time>
      </trkpt>
      <trkpt lat="43.68075" lon="7.09913">
        <ele>129.1</ele>
        <time>2026-05-16T06:51:23Z</time>
      </trkpt>
      <trkpt lat="43.68075" lon="7.09913">
        <ele>129.1</ele>
        <time>2026-05-16T06:51:24Z</time>
      </trkpt>
      <trkpt lat="43.68075" lon="7.09913">
        <ele>129.1</ele>
        <time>2026-05-16T06:51:25Z</time>
      </trkpt>
      <trkpt lat="43.68075" lon="7.09913">
        <ele>129.1</ele>
        <time>2026-05-16T06:51:26Z</time>
      </trkpt>
      <trkpt lat="43.68075" lon="7.09913">
        <ele>129.1</ele>
        <time>2026-05-16T06:51:27Z</time>
      </trkpt>
      <trkpt lat="43.68075" lon="7.09913">
        <ele>129.1</ele>
        <time>2026-05-16T06:51:28Z</time>
      </trkpt>
      <trkpt lat="43.68075" lon="7.09913">
        <ele>129.1</ele>
        <time>2026-05-16T06:51:29Z</time>
      </trkpt>
      <trkpt lat="43.68075" lon="7.09913">
        <ele>129.1</ele>
        <time>2026-05-16T06:51:30Z</time>
      </trkpt>
      <trkpt lat="43.68075" lon="7.09913">
        <ele>129.1</ele>
        <time>2026-05-16T06:51:31Z</time>
      </trkpt>
      <trkpt lat="43.68075" lon="7.09913">
        <ele>129.1</ele>
        <time>2026-05-16T06:51:32Z</time>
      </trkpt>
      <trkpt lat="43.68075" lon="7.09913">
        <ele>129.1</ele>
        <time>2026-05-16T06:51:33Z</time>
      </trkpt>
      <trkpt lat="43.68075" lon="7.09913">
        <ele>129.1</ele>
        <time>2026-05-16T06:51:34Z</time>
      </trkpt>
      <trkpt lat="43.68075" lon="7.09913">
        <ele>129.1</ele>
        <time>2026-05-16T06:51:35Z</time>
      </trkpt>
      <trkpt lat="43.68075" lon="7.09913">
        <ele>129.1</ele>
        <time>2026-05-16T06:51:36Z</time>
      </trkpt>
      <trkpt lat="43.68075" lon="7.09913">
        <ele>129.1</ele>
        <time>2026-05-16T06:51:37Z</time>
      </trkpt>
      <trkpt lat="43.68075" lon="7.09913">
        <ele>129.1</ele>
        <time>2026-05-16T06:51:38Z</time>
      </trkpt>
      <trkpt lat="43.68075" lon="7.09913">
        <ele>129.1</ele>
        <time>2026-05-16T06:51:39Z</time>
      </trkpt>
      <trkpt lat="43.68075" lon="7.09913">
        <ele>129.1</ele>
        <time>2026-05-16T06:51:40Z</time>
      </trkpt>
      <trkpt lat="43.68075" lon="7.09913">
        <ele>129.1</ele>
        <time>2026-05-16T06:51:41Z</time>
      </trkpt>
      <trkpt lat="43.68075" lon="7.09913">
        <ele>129.1</ele>
        <time>2026-05-16T06:51:42Z</time>
      </trkpt>
      <trkpt lat="43.68075" lon="7.09913">
        <ele>129.1</ele>
        <time>2026-05-16T06:51:43Z</time>
      </trkpt>
      <trkpt lat="43.68075" lon="7.09913">
        <ele>129.1</ele>
        <time>2026-05-16T06:51:44Z</time>
      </trkpt>
      <trkpt lat="43.68075" lon="7.09913">
        <ele>129.1</ele>
        <time>2026-05-16T06:51:45Z</time>
      </trkpt>
      <trkpt lat="43.68075" lon="7.09913">
        <ele>129.1</ele>
        <time>2026-05-16T06:51:46Z</time>
      </trkpt>
      <trkpt lat="43.68075" lon="7.09913">
        <ele>129.1</ele>
        <time>2026-05-16T06:51:47Z</time>
      </trkpt>
      <trkpt lat="43.68075" lon="7.09913">
        <ele>129.1</ele>
        <time>2026-05-16T06:51:48Z</time>
      </trkpt>
      <trkpt lat="43.68075" lon="7.09913">
        <ele>129.1</ele>
        <time>2026-05-16T06:51:49Z</time>
      </trkpt>
      <trkpt lat="43.68075" lon="7.09913">
        <ele>129.1</ele>
        <time>2026-05-16T06:51:50Z</time>
      </trkpt>
      <trkpt lat="43.68075" lon="7.09913">
        <ele>129.1</ele>
        <time>2026-05-16T06:51:51Z</time>
      </trkpt>
      <trkpt lat="43.68075" lon="7.09913">
        <ele>129.1</ele>
        <time>2026-05-16T06:51:52Z</time>
      </trkpt>
      <trkpt lat="43.68075" lon="7.09913">
        <ele>129.1</ele>
        <time>2026-05-16T06:51:53Z</time>
      </trkpt>
      <trkpt lat="43.68075" lon="7.09913">
        <ele>129.1</ele>
        <time>2026-05-16T06:51:54Z</time>
      </trkpt>
      <trkpt lat="43.68075" lon="7.09913">
        <ele>129.1</ele>
        <time>2026-05-16T06:51:55Z</time>
      </trkpt>
      <trkpt lat="43.68075" lon="7.09914">
        <ele>129.1</ele>
        <time>2026-05-16T06:51:56Z</time>
      </trkpt>
      <trkpt lat="43.68075" lon="7.09914">
        <ele>129.1</ele>
        <time>2026-05-16T06:51:57Z</time>
      </trkpt>
      <trkpt lat="43.68075" lon="7.09914">
        <ele>129.1</ele>
        <time>2026-05-16T06:51:58Z</time>
      </trkpt>
      <trkpt lat="43.68075" lon="7.09914">
        <ele>129.1</ele>
        <time>2026-05-16T06:51:59Z</time>
      </trkpt>
      <trkpt lat="43.68075" lon="7.09914">
        <ele>129.1</ele>
        <time>2026-05-16T06:52:00Z</time>
      </trkpt>
      <trkpt lat="43.68075" lon="7.09914">
        <ele>129.1</ele>
        <time>2026-05-16T06:52:01Z</time>
      </trkpt>
      <trkpt lat="43.68075" lon="7.09914">
        <ele>129.1</ele>
        <time>2026-05-16T06:52:02Z</time>
      </trkpt>
      <trkpt lat="43.68075" lon="7.09914">
        <ele>129.1</ele>
        <time>2026-05-16T06:52:03Z</time>
      </trkpt>
      <trkpt lat="43.68075" lon="7.09914">
        <ele>129.1</ele>
        <time>2026-05-16T06:52:04Z</time>
      </trkpt>
      <trkpt lat="43.68075" lon="7.09914">
        <ele>129.1</ele>
        <time>2026-05-16T06:52:05Z</time>
      </trkpt>
      <trkpt lat="43.68075" lon="7.09914">
        <ele>129.1</ele>
        <time>2026-05-16T06:52:06Z</time>
      </trkpt>
      <trkpt lat="43.68075" lon="7.09914">
        <ele>129.1</ele>
        <time>2026-05-16T06:52:07Z</time>
      </trkpt>
      <trkpt lat="43.68075" lon="7.09914">
        <ele>129.1</ele>
        <time>2026-05-16T06:52:08Z</time>
      </trkpt>
      <trkpt lat="43.68075" lon="7.09914">
        <ele>129.1</ele>
        <time>2026-05-16T06:52:09Z</time>
      </trkpt>
      <trkpt lat="43.68075" lon="7.09914">
        <ele>129.1</ele>
        <time>2026-05-16T06:52:10Z</time>
      </trkpt>
      <trkpt lat="43.68075" lon="7.09914">
        <ele>129.1</ele>
        <time>2026-05-16T06:52:11Z</time>
      </trkpt>
      <trkpt lat="43.68075" lon="7.09914">
        <ele>129.1</ele>
        <time>2026-05-16T06:52:12Z</time>
      </trkpt>
      <trkpt lat="43.68075" lon="7.09914">
        <ele>129.1</ele>
        <time>2026-05-16T06:52:13Z</time>
      </trkpt>
      <trkpt lat="43.68075" lon="7.09914">
        <ele>129.1</ele>
        <time>2026-05-16T06:52:14Z</time>
      </trkpt>
      <trkpt lat="43.68075" lon="7.09914">
        <ele>129.1</ele>
        <time>2026-05-16T06:52:15Z</time>
      </trkpt>
      <trkpt lat="43.68075" lon="7.09914">
        <ele>129.1</ele>
        <time>2026-05-16T06:52:16Z</time>
      </trkpt>
      <trkpt lat="43.68075" lon="7.09914">
        <ele>129.1</ele>
        <time>2026-05-16T06:52:17Z</time>
      </trkpt>
      <trkpt lat="43.68075" lon="7.09914">
        <ele>129.1</ele>
        <time>2026-05-16T06:52:18Z</time>
      </trkpt>
      <trkpt lat="43.68075" lon="7.09914">
        <ele>129.1</ele>
        <time>2026-05-16T06:52:19Z</time>
      </trkpt>
      <trkpt lat="43.68075" lon="7.09914">
        <ele>129.1</ele>
        <time>2026-05-16T06:52:20Z</time>
      </trkpt>
      <trkpt lat="43.68075" lon="7.09914">
        <ele>129.1</ele>
        <time>2026-05-16T06:52:21Z</time>
      </trkpt>
      <trkpt lat="43.68075" lon="7.09914">
        <ele>129.1</ele>
        <time>2026-05-16T06:52:22Z</time>
      </trkpt>
      <trkpt lat="43.68075" lon="7.09914">
        <ele>129.1</ele>
        <time>2026-05-16T06:52:23Z</time>
      </trkpt>
      <trkpt lat="43.68075" lon="7.09914">
        <ele>129.1</ele>
        <time>2026-05-16T06:52:24Z</time>
      </trkpt>
      <trkpt lat="43.68075" lon="7.09914">
        <ele>129.1</ele>
        <time>2026-05-16T06:52:25Z</time>
      </trkpt>
      <trkpt lat="43.68075" lon="7.09914">
        <ele>129.1</ele>
        <time>2026-05-16T06:52:26Z</time>
      </trkpt>
      <trkpt lat="43.68075" lon="7.09914">
        <ele>129.1</ele>
        <time>2026-05-16T06:52:27Z</time>
      </trkpt>
      <trkpt lat="43.68075" lon="7.09914">
        <ele>129.1</ele>
        <time>2026-05-16T06:52:28Z</time>
      </trkpt>
      <trkpt lat="43.68075" lon="7.09914">
        <ele>129.1</ele>
        <time>2026-05-16T06:52:29Z</time>
      </trkpt>
      <trkpt lat="43.68075" lon="7.09914">
        <ele>129.1</ele>
        <time>2026-05-16T06:52:30Z</time>
      </trkpt>
      <trkpt lat="43.68075" lon="7.09914">
        <ele>129.1</ele>
        <time>2026-05-16T06:52:31Z</time>
      </trkpt>
      <trkpt lat="43.68075" lon="7.09914">
        <ele>129.1</ele>
        <time>2026-05-16T06:52:32Z</time>
      </trkpt>
      <trkpt lat="43.68075" lon="7.09914">
        <ele>129.1</ele>
        <time>2026-05-16T06:52:33Z</time>
      </trkpt>
      <trkpt lat="43.68075" lon="7.09914">
        <ele>129.1</ele>
        <time>2026-05-16T06:52:34Z</time>
      </trkpt>
      <trkpt lat="43.68075" lon="7.09914">
        <ele>129.1</ele>
        <time>2026-05-16T06:52:35Z</time>
      </trkpt>
      <trkpt lat="43.68075" lon="7.09914">
        <ele>129.1</ele>
        <time>2026-05-16T06:52:36Z</time>
      </trkpt>
      <trkpt lat="43.68075" lon="7.09914">
        <ele>129.1</ele>
        <time>2026-05-16T06:52:37Z</time>
      </trkpt>
      <trkpt lat="43.68075" lon="7.09914">
        <ele>129.1</ele>
        <time>2026-05-16T06:52:38Z</time>
      </trkpt>
      <trkpt lat="43.68076" lon="7.09914">
        <ele>129.1</ele>
        <time>2026-05-16T06:52:39Z</time>
      </trkpt>
      <trkpt lat="43.68076" lon="7.09914">
        <ele>129.1</ele>
        <time>2026-05-16T06:52:40Z</time>
      </trkpt>
      <trkpt lat="43.68076" lon="7.09914">
        <ele>129.1</ele>
        <time>2026-05-16T06:52:41Z</time>
      </trkpt>
      <trkpt lat="43.68075" lon="7.09914">
        <ele>129.1</ele>
        <time>2026-05-16T06:52:42Z</time>
      </trkpt>
      <trkpt lat="43.68075" lon="7.09914">
        <ele>129.1</ele>
        <time>2026-05-16T06:52:43Z</time>
      </trkpt>
      <trkpt lat="43.68075" lon="7.09914">
        <ele>129.1</ele>
        <time>2026-05-16T06:52:44Z</time>
      </trkpt>
      <trkpt lat="43.68075" lon="7.09914">
        <ele>129.1</ele>
        <time>2026-05-16T06:52:45Z</time>
      </trkpt>
      <trkpt lat="43.68075" lon="7.09914">
        <ele>129.1</ele>
        <time>2026-05-16T06:52:46Z</time>
      </trkpt>
      <trkpt lat="43.68075" lon="7.09914">
        <ele>129.1</ele>
        <time>2026-05-16T06:52:47Z</time>
      </trkpt>
      <trkpt lat="43.68075" lon="7.09914">
        <ele>129.1</ele>
        <time>2026-05-16T06:52:48Z</time>
      </trkpt>
      <trkpt lat="43.68075" lon="7.09914">
        <ele>129.1</ele>
        <time>2026-05-16T06:52:49Z</time>
      </trkpt>
      <trkpt lat="43.68075" lon="7.09914">
        <ele>129.1</ele>
        <time>2026-05-16T06:52:50Z</time>
      </trkpt>
      <trkpt lat="43.68075" lon="7.09914">
        <ele>129.1</ele>
        <time>2026-05-16T06:52:51Z</time>
      </trkpt>
      <trkpt lat="43.68075" lon="7.09914">
        <ele>129.1</ele>
        <time>2026-05-16T06:52:52Z</time>
      </trkpt>
      <trkpt lat="43.68075" lon="7.09914">
        <ele>129.1</ele>
        <time>2026-05-16T06:52:53Z</time>
      </trkpt>
      <trkpt lat="43.68075" lon="7.09914">
        <ele>129.1</ele>
        <time>2026-05-16T06:52:54Z</time>
      </trkpt>
      <trkpt lat="43.68075" lon="7.09914">
        <ele>129.1</ele>
        <time>2026-05-16T06:52:55Z</time>
      </trkpt>
      <trkpt lat="43.68075" lon="7.09914">
        <ele>129.1</ele>
        <time>2026-05-16T06:52:56Z</time>
      </trkpt>
      <trkpt lat="43.68075" lon="7.09914">
        <ele>129.1</ele>
        <time>2026-05-16T06:52:57Z</time>
      </trkpt>
      <trkpt lat="43.68075" lon="7.09914">
        <ele>129.1</ele>
        <time>2026-05-16T06:52:58Z</time>
      </trkpt>
      <trkpt lat="43.68075" lon="7.09914">
        <ele>129.1</ele>
        <time>2026-05-16T06:52:59Z</time>
      </trkpt>
      <trkpt lat="43.68075" lon="7.09914">
        <ele>129.1</ele>
        <time>2026-05-16T06:53:00Z</time>
      </trkpt>
      <trkpt lat="43.68075" lon="7.09914">
        <ele>129.1</ele>
        <time>2026-05-16T06:53:01Z</time>
      </trkpt>
      <trkpt lat="43.68075" lon="7.09914">
        <ele>129.1</ele>
        <time>2026-05-16T06:53:02Z</time>
      </trkpt>
      <trkpt lat="43.68075" lon="7.09914">
        <ele>129.1</ele>
        <time>2026-05-16T06:53:03Z</time>
      </trkpt>
      <trkpt lat="43.68075" lon="7.09914">
        <ele>129.1</ele>
        <time>2026-05-16T06:53:04Z</time>
      </trkpt>
      <trkpt lat="43.68075" lon="7.09914">
        <ele>129.1</ele>
        <time>2026-05-16T06:53:05Z</time>
      </trkpt>
      <trkpt lat="43.68075" lon="7.09914">
        <ele>129.1</ele>
        <time>2026-05-16T06:53:06Z</time>
      </trkpt>
      <trkpt lat="43.68075" lon="7.09914">
        <ele>129.1</ele>
        <time>2026-05-16T06:53:07Z</time>
      </trkpt>
      <trkpt lat="43.68075" lon="7.09914">
        <ele>129.1</ele>
        <time>2026-05-16T06:53:08Z</time>
      </trkpt>
      <trkpt lat="43.68075" lon="7.09914">
        <ele>129.1</ele>
        <time>2026-05-16T06:53:09Z</time>
      </trkpt>
      <trkpt lat="43.68075" lon="7.09914">
        <ele>129.1</ele>
        <time>2026-05-16T06:53:10Z</time>
      </trkpt>
      <trkpt lat="43.68076" lon="7.09914">
        <ele>129.1</ele>
        <time>2026-05-16T06:53:11Z</time>
      </trkpt>
      <trkpt lat="43.68076" lon="7.09914">
        <ele>129.1</ele>
        <time>2026-05-16T06:53:12Z</time>
      </trkpt>
      <trkpt lat="43.68076" lon="7.09914">
        <ele>129.1</ele>
        <time>2026-05-16T06:53:13Z</time>
      </trkpt>
      <trkpt lat="43.68076" lon="7.09914">
        <ele>129.1</ele>
        <time>2026-05-16T06:53:14Z</time>
      </trkpt>
      <trkpt lat="43.68076" lon="7.09914">
        <ele>129.1</ele>
        <time>2026-05-16T06:53:15Z</time>
      </trkpt>
      <trkpt lat="43.68076" lon="7.09914">
        <ele>129.1</ele>
        <time>2026-05-16T06:53:16Z</time>
      </trkpt>
      <trkpt lat="43.68076" lon="7.09914">
        <ele>129.1</ele>
        <time>2026-05-16T06:53:17Z</time>
      </trkpt>
      <trkpt lat="43.68076" lon="7.09914">
        <ele>129.1</ele>
        <time>2026-05-16T06:53:18Z</time>
      </trkpt>
      <trkpt lat="43.68076" lon="7.09914">
        <ele>129.1</ele>
        <time>2026-05-16T06:53:19Z</time>
      </trkpt>
      <trkpt lat="43.68076" lon="7.09914">
        <ele>129.1</ele>
        <time>2026-05-16T06:53:20Z</time>
      </trkpt>
      <trkpt lat="43.68076" lon="7.09914">
        <ele>129.1</ele>
        <time>2026-05-16T06:53:21Z</time>
      </trkpt>
      <trkpt lat="43.68076" lon="7.09914">
        <ele>129.1</ele>
        <time>2026-05-16T06:53:22Z</time>
      </trkpt>
      <trkpt lat="43.68076" lon="7.09914">
        <ele>129.1</ele>
        <time>2026-05-16T06:53:23Z</time>
      </trkpt>
      <trkpt lat="43.68076" lon="7.09914">
        <ele>129.1</ele>
        <time>2026-05-16T06:53:24Z</time>
      </trkpt>
      <trkpt lat="43.68076" lon="7.09914">
        <ele>129.1</ele>
        <time>2026-05-16T06:53:25Z</time>
      </trkpt>
      <trkpt lat="43.68075" lon="7.09914">
        <ele>129.1</ele>
        <time>2026-05-16T06:53:26Z</time>
      </trkpt>
      <trkpt lat="43.68075" lon="7.09914">
        <ele>129.1</ele>
        <time>2026-05-16T06:53:27Z</time>
      </trkpt>
      <trkpt lat="43.68075" lon="7.09914">
        <ele>129.1</ele>
        <time>2026-05-16T06:53:28Z</time>
      </trkpt>
      <trkpt lat="43.68075" lon="7.09914">
        <ele>129.1</ele>
        <time>2026-05-16T06:53:29Z</time>
      </trkpt>
      <trkpt lat="43.68075" lon="7.09914">
        <ele>129.1</ele>
        <time>2026-05-16T06:53:30Z</time>
      </trkpt>
      <trkpt lat="43.68075" lon="7.09914">
        <ele>129.1</ele>
        <time>2026-05-16T06:53:31Z</time>
      </trkpt>
      <trkpt lat="43.68075" lon="7.09914">
        <ele>129.1</ele>
        <time>2026-05-16T06:53:32Z</time>
      </trkpt>
      <trkpt lat="43.68075" lon="7.09914">
        <ele>129.1</ele>
        <time>2026-05-16T06:53:33Z</time>
      </trkpt>
      <trkpt lat="43.68075" lon="7.09914">
        <ele>129.1</ele>
        <time>2026-05-16T06:53:34Z</time>
      </trkpt>
      <trkpt lat="43.68076" lon="7.09914">
        <ele>129.1</ele>
        <time>2026-05-16T06:53:35Z</time>
      </trkpt>
      <trkpt lat="43.68076" lon="7.09914">
        <ele>129.1</ele>
        <time>2026-05-16T06:53:36Z</time>
      </trkpt>
      <trkpt lat="43.68076" lon="7.09914">
        <ele>129.1</ele>
        <time>2026-05-16T06:53:37Z</time>
      </trkpt>
      <trkpt lat="43.68076" lon="7.09914">
        <ele>129.1</ele>
        <time>2026-05-16T06:53:38Z</time>
      </trkpt>
      <trkpt lat="43.68076" lon="7.09914">
        <ele>129.1</ele>
        <time>2026-05-16T06:53:39Z</time>
      </trkpt>
      <trkpt lat="43.68076" lon="7.09914">
        <ele>129.1</ele>
        <time>2026-05-16T06:53:40Z</time>
      </trkpt>
      <trkpt lat="43.68076" lon="7.09914">
        <ele>129.1</ele>
        <time>2026-05-16T06:53:41Z</time>
      </trkpt>
      <trkpt lat="43.68076" lon="7.09914">
        <ele>129.1</ele>
        <time>2026-05-16T06:53:42Z</time>
      </trkpt>
      <trkpt lat="43.68076" lon="7.09914">
        <ele>129.1</ele>
        <time>2026-05-16T06:53:43Z</time>
      </trkpt>
      <trkpt lat="43.68076" lon="7.09914">
        <ele>129.1</ele>
        <time>2026-05-16T06:53:44Z</time>
      </trkpt>
      <trkpt lat="43.68076" lon="7.09914">
        <ele>129.1</ele>
        <time>2026-05-16T06:53:45Z</time>
      </trkpt>
      <trkpt lat="43.68076" lon="7.09914">
        <ele>129.1</ele>
        <time>2026-05-16T06:53:46Z</time>
      </trkpt>
      <trkpt lat="43.68076" lon="7.09914">
        <ele>129.1</ele>
        <time>2026-05-16T06:53:47Z</time>
      </trkpt>
      <trkpt lat="43.68076" lon="7.09914">
        <ele>129.1</ele>
        <time>2026-05-16T06:53:48Z</time>
      </trkpt>
      <trkpt lat="43.68076" lon="7.09914">
        <ele>129.1</ele>
        <time>2026-05-16T06:53:49Z</time>
      </trkpt>
      <trkpt lat="43.68076" lon="7.09914">
        <ele>129.1</ele>
        <time>2026-05-16T06:53:50Z</time>
      </trkpt>
      <trkpt lat="43.68076" lon="7.09914">
        <ele>129.1</ele>
        <time>2026-05-16T06:53:51Z</time>
      </trkpt>
      <trkpt lat="43.68076" lon="7.09914">
        <ele>129.1</ele>
        <time>2026-05-16T06:53:52Z</time>
      </trkpt>
      <trkpt lat="43.68076" lon="7.09914">
        <ele>129.1</ele>
        <time>2026-05-16T06:53:53Z</time>
      </trkpt>
      <trkpt lat="43.68076" lon="7.09914">
        <ele>129.1</ele>
        <time>2026-05-16T06:53:54Z</time>
      </trkpt>
      <trkpt lat="43.68076" lon="7.09914">
        <ele>129.1</ele>
        <time>2026-05-16T06:53:55Z</time>
      </trkpt>
      <trkpt lat="43.68076" lon="7.09914">
        <ele>129.1</ele>
        <time>2026-05-16T06:53:56Z</time>
      </trkpt>
      <trkpt lat="43.68076" lon="7.09914">
        <ele>129.1</ele>
        <time>2026-05-16T06:53:57Z</time>
      </trkpt>
      <trkpt lat="43.68076" lon="7.09914">
        <ele>129.1</ele>
        <time>2026-05-16T06:53:58Z</time>
      </trkpt>
      <trkpt lat="43.68076" lon="7.09914">
        <ele>129.1</ele>
        <time>2026-05-16T06:53:59Z</time>
      </trkpt>
      <trkpt lat="43.68076" lon="7.09914">
        <ele>129.1</ele>
        <time>2026-05-16T06:54:00Z</time>
      </trkpt>
      <trkpt lat="43.68076" lon="7.09914">
        <ele>129.1</ele>
        <time>2026-05-16T06:54:01Z</time>
      </trkpt>
      <trkpt lat="43.68076" lon="7.09914">
        <ele>129.1</ele>
        <time>2026-05-16T06:54:02Z</time>
      </trkpt>
      <trkpt lat="43.68076" lon="7.09914">
        <ele>129.1</ele>
        <time>2026-05-16T06:54:03Z</time>
      </trkpt>
      <trkpt lat="43.68076" lon="7.09914">
        <ele>129.1</ele>
        <time>2026-05-16T06:54:04Z</time>
      </trkpt>
      <trkpt lat="43.68076" lon="7.09914">
        <ele>129.1</ele>
        <time>2026-05-16T06:54:05Z</time>
      </trkpt>
      <trkpt lat="43.68076" lon="7.09914">
        <ele>129.1</ele>
        <time>2026-05-16T06:54:06Z</time>
      </trkpt>
      <trkpt lat="43.68076" lon="7.09914">
        <ele>129.1</ele>
        <time>2026-05-16T06:54:07Z</time>
      </trkpt>
      <trkpt lat="43.68076" lon="7.09914">
        <ele>129.1</ele>
        <time>2026-05-16T06:54:08Z</time>
      </trkpt>
      <trkpt lat="43.68076" lon="7.09914">
        <ele>129.1</ele>
        <time>2026-05-16T06:54:09Z</time>
      </trkpt>
      <trkpt lat="43.68076" lon="7.09914">
        <ele>129.1</ele>
        <time>2026-05-16T06:54:10Z</time>
      </trkpt>
      <trkpt lat="43.68076" lon="7.09914">
        <ele>129.1</ele>
        <time>2026-05-16T06:54:11Z</time>
      </trkpt>
      <trkpt lat="43.68076" lon="7.09914">
        <ele>129.1</ele>
        <time>2026-05-16T06:54:12Z</time>
      </trkpt>
      <trkpt lat="43.68076" lon="7.09914">
        <ele>129.1</ele>
        <time>2026-05-16T06:54:13Z</time>
      </trkpt>
      <trkpt lat="43.68076" lon="7.09914">
        <ele>129.1</ele>
        <time>2026-05-16T06:54:14Z</time>
      </trkpt>
      <trkpt lat="43.68076" lon="7.09914">
        <ele>129.1</ele>
        <time>2026-05-16T06:54:15Z</time>
      </trkpt>
      <trkpt lat="43.68076" lon="7.09914">
        <ele>129.1</ele>
        <time>2026-05-16T06:54:16Z</time>
      </trkpt>
      <trkpt lat="43.68076" lon="7.09914">
        <ele>129.1</ele>
        <time>2026-05-16T06:54:17Z</time>
      </trkpt>
      <trkpt lat="43.68076" lon="7.09914">
        <ele>129.1</ele>
        <time>2026-05-16T06:54:18Z</time>
      </trkpt>
      <trkpt lat="43.68076" lon="7.09914">
        <ele>129.1</ele>
        <time>2026-05-16T06:54:19Z</time>
      </trkpt>
      <trkpt lat="43.68076" lon="7.09914">
        <ele>129.1</ele>
        <time>2026-05-16T06:54:20Z</time>
      </trkpt>
      <trkpt lat="43.68076" lon="7.09914">
        <ele>129.1</ele>
        <time>2026-05-16T06:54:21Z</time>
      </trkpt>
      <trkpt lat="43.68076" lon="7.09914">
        <ele>129.1</ele>
        <time>2026-05-16T06:54:22Z</time>
      </trkpt>
      <trkpt lat="43.68076" lon="7.09914">
        <ele>129.1</ele>
        <time>2026-05-16T06:54:23Z</time>
      </trkpt>
      <trkpt lat="43.68076" lon="7.09914">
        <ele>129.1</ele>
        <time>2026-05-16T06:54:24Z</time>
      </trkpt>
      <trkpt lat="43.68076" lon="7.09914">
        <ele>129.1</ele>
        <time>2026-05-16T06:54:25Z</time>
      </trkpt>
      <trkpt lat="43.68076" lon="7.09914">
        <ele>129.1</ele>
        <time>2026-05-16T06:54:26Z</time>
      </trkpt>
      <trkpt lat="43.68076" lon="7.09914">
        <ele>129.1</ele>
        <time>2026-05-16T06:54:27Z</time>
      </trkpt>
      <trkpt lat="43.68076" lon="7.09914">
        <ele>129.1</ele>
        <time>2026-05-16T06:54:28Z</time>
      </trkpt>
      <trkpt lat="43.68076" lon="7.09914">
        <ele>129.1</ele>
        <time>2026-05-16T06:54:29Z</time>
      </trkpt>
      <trkpt lat="43.68076" lon="7.09914">
        <ele>129.1</ele>
        <time>2026-05-16T06:54:30Z</time>
      </trkpt>
      <trkpt lat="43.68076" lon="7.09914">
        <ele>129.1</ele>
        <time>2026-05-16T06:54:31Z</time>
      </trkpt>
      <trkpt lat="43.68076" lon="7.09914">
        <ele>129.1</ele>
        <time>2026-05-16T06:54:32Z</time>
      </trkpt>
      <trkpt lat="43.68076" lon="7.09914">
        <ele>129.1</ele>
        <time>2026-05-16T06:54:33Z</time>
      </trkpt>
      <trkpt lat="43.68076" lon="7.09914">
        <ele>129.1</ele>
        <time>2026-05-16T06:54:34Z</time>
      </trkpt>
      <trkpt lat="43.68076" lon="7.09914">
        <ele>129.1</ele>
        <time>2026-05-16T06:54:35Z</time>
      </trkpt>
      <trkpt lat="43.68076" lon="7.09914">
        <ele>129.1</ele>
        <time>2026-05-16T06:54:36Z</time>
      </trkpt>
      <trkpt lat="43.68076" lon="7.09914">
        <ele>129.1</ele>
        <time>2026-05-16T06:54:37Z</time>
      </trkpt>
      <trkpt lat="43.68076" lon="7.09914">
        <ele>129.1</ele>
        <time>2026-05-16T06:54:38Z</time>
      </trkpt>
      <trkpt lat="43.68076" lon="7.09914">
        <ele>129.1</ele>
        <time>2026-05-16T06:54:39Z</time>
      </trkpt>
      <trkpt lat="43.68076" lon="7.09914">
        <ele>129.1</ele>
        <time>2026-05-16T06:54:40Z</time>
      </trkpt>
      <trkpt lat="43.68076" lon="7.09914">
        <ele>129.1</ele>
        <time>2026-05-16T06:54:41Z</time>
      </trkpt>
      <trkpt lat="43.68076" lon="7.09914">
        <ele>129.1</ele>
        <time>2026-05-16T06:54:42Z</time>
      </trkpt>
      <trkpt lat="43.68076" lon="7.09914">
        <ele>129.1</ele>
        <time>2026-05-16T06:54:43Z</time>
      </trkpt>
      <trkpt lat="43.68076" lon="7.09914">
        <ele>129.1</ele>
        <time>2026-05-16T06:54:44Z</time>
      </trkpt>
      <trkpt lat="43.68076" lon="7.09914">
        <ele>129.1</ele>
        <time>2026-05-16T06:54:45Z</time>
      </trkpt>
      <trkpt lat="43.68076" lon="7.09914">
        <ele>129.1</ele>
        <time>2026-05-16T06:54:46Z</time>
      </trkpt>
      <trkpt lat="43.68076" lon="7.09914">
        <ele>129.1</ele>
        <time>2026-05-16T06:54:47Z</time>
      </trkpt>
      <trkpt lat="43.68076" lon="7.09914">
        <ele>129.1</ele>
        <time>2026-05-16T06:54:48Z</time>
      </trkpt>
      <trkpt lat="43.68076" lon="7.09914">
        <ele>129.1</ele>
        <time>2026-05-16T06:54:49Z</time>
      </trkpt>
      <trkpt lat="43.68076" lon="7.09915">
        <ele>129.1</ele>
        <time>2026-05-16T06:54:50Z</time>
      </trkpt>
      <trkpt lat="43.68078" lon="7.09916">
        <ele>129</ele>
        <time>2026-05-16T06:54:51Z</time>
      </trkpt>
      <trkpt lat="43.6808" lon="7.09916">
        <ele>129</ele>
        <time>2026-05-16T06:54:52Z</time>
      </trkpt>
      <trkpt lat="43.68081" lon="7.09915">
        <ele>129.1</ele>
        <time>2026-05-16T06:54:53Z</time>
      </trkpt>
      <trkpt lat="43.68083" lon="7.09913">
        <ele>129.3</ele>
        <time>2026-05-16T06:54:54Z</time>
      </trkpt>
      <trkpt lat="43.68085" lon="7.09911">
        <ele>129.7</ele>
        <time>2026-05-16T06:54:55Z</time>
      </trkpt>
      <trkpt lat="43.68088" lon="7.09908">
        <ele>130.3</ele>
        <time>2026-05-16T06:54:56Z</time>
      </trkpt>
      <trkpt lat="43.6809" lon="7.09907">
        <ele>130.6</ele>
        <time>2026-05-16T06:54:57Z</time>
      </trkpt>
      <trkpt lat="43.68091" lon="7.09905">
        <ele>130.8</ele>
        <time>2026-05-16T06:54:58Z</time>
      </trkpt>
      <trkpt lat="43.68092" lon="7.09904">
        <ele>130.9</ele>
        <time>2026-05-16T06:54:59Z</time>
      </trkpt>
      <trkpt lat="43.68093" lon="7.09903">
        <ele>131</ele>
        <time>2026-05-16T06:55:00Z</time>
      </trkpt>
      <trkpt lat="43.68093" lon="7.09903">
        <ele>131</ele>
        <time>2026-05-16T06:55:01Z</time>
      </trkpt>
      <trkpt lat="43.68093" lon="7.09903">
        <ele>131</ele>
        <time>2026-05-16T06:55:02Z</time>
      </trkpt>
      <trkpt lat="43.68092" lon="7.09903">
        <ele>130.9</ele>
        <time>2026-05-16T06:55:03Z</time>
      </trkpt>
      <trkpt lat="43.68092" lon="7.09903">
        <ele>130.9</ele>
        <time>2026-05-16T06:55:04Z</time>
      </trkpt>
      <trkpt lat="43.68092" lon="7.09903">
        <ele>130.9</ele>
        <time>2026-05-16T06:55:05Z</time>
      </trkpt>
      <trkpt lat="43.68092" lon="7.09903">
        <ele>130.9</ele>
        <time>2026-05-16T06:55:06Z</time>
      </trkpt>
      <trkpt lat="43.68092" lon="7.09903">
        <ele>130.9</ele>
        <time>2026-05-16T06:55:07Z</time>
      </trkpt>
      <trkpt lat="43.68093" lon="7.09903">
        <ele>131</ele>
        <time>2026-05-16T06:55:08Z</time>
      </trkpt>
      <trkpt lat="43.68093" lon="7.09903">
        <ele>131</ele>
        <time>2026-05-16T06:55:09Z</time>
      </trkpt>
      <trkpt lat="43.68093" lon="7.09903">
        <ele>131</ele>
        <time>2026-05-16T06:55:10Z</time>
      </trkpt>
      <trkpt lat="43.68093" lon="7.09903">
        <ele>131</ele>
        <time>2026-05-16T06:55:11Z</time>
      </trkpt>
      <trkpt lat="43.68093" lon="7.09903">
        <ele>131</ele>
        <time>2026-05-16T06:55:12Z</time>
      </trkpt>
      <trkpt lat="43.68093" lon="7.09903">
        <ele>131</ele>
        <time>2026-05-16T06:55:13Z</time>
      </trkpt>
      <trkpt lat="43.68094" lon="7.09903">
        <ele>131.1</ele>
        <time>2026-05-16T06:55:14Z</time>
      </trkpt>
      <trkpt lat="43.68094" lon="7.09902">
        <ele>131.2</ele>
        <time>2026-05-16T06:55:15Z</time>
      </trkpt>
      <trkpt lat="43.68095" lon="7.099">
        <ele>131.3</ele>
        <time>2026-05-16T06:55:16Z</time>
      </trkpt>
      <trkpt lat="43.68097" lon="7.09897">
        <ele>131.5</ele>
        <time>2026-05-16T06:55:17Z</time>
      </trkpt>
      <trkpt lat="43.68099" lon="7.09895">
        <ele>131.6</ele>
        <time>2026-05-16T06:55:18Z</time>
      </trkpt>
      <trkpt lat="43.68101" lon="7.09893">
        <ele>131.7</ele>
        <time>2026-05-16T06:55:19Z</time>
      </trkpt>
      <trkpt lat="43.68103" lon="7.0989">
        <ele>131.7</ele>
        <time>2026-05-16T06:55:20Z</time>
      </trkpt>
      <trkpt lat="43.68105" lon="7.09887">
        <ele>131.8</ele>
        <time>2026-05-16T06:55:21Z</time>
      </trkpt>
      <trkpt lat="43.68107" lon="7.09884">
        <ele>131.8</ele>
        <time>2026-05-16T06:55:22Z</time>
      </trkpt>
      <trkpt lat="43.68108" lon="7.09882">
        <ele>131.9</ele>
        <time>2026-05-16T06:55:23Z</time>
      </trkpt>
      <trkpt lat="43.68109" lon="7.0988">
        <ele>131.9</ele>
        <time>2026-05-16T06:55:24Z</time>
      </trkpt>
      <trkpt lat="43.68109" lon="7.09879">
        <ele>131.9</ele>
        <time>2026-05-16T06:55:25Z</time>
      </trkpt>
      <trkpt lat="43.68109" lon="7.09879">
        <ele>131.9</ele>
        <time>2026-05-16T06:55:26Z</time>
      </trkpt>
      <trkpt lat="43.68109" lon="7.0988">
        <ele>131.9</ele>
        <time>2026-05-16T06:55:27Z</time>
      </trkpt>
      <trkpt lat="43.68109" lon="7.0988">
        <ele>131.9</ele>
        <time>2026-05-16T06:55:28Z</time>
      </trkpt>
      <trkpt lat="43.68109" lon="7.0988">
        <ele>131.9</ele>
        <time>2026-05-16T06:55:29Z</time>
      </trkpt>
      <trkpt lat="43.68109" lon="7.0988">
        <ele>131.9</ele>
        <time>2026-05-16T06:55:30Z</time>
      </trkpt>
      <trkpt lat="43.68109" lon="7.0988">
        <ele>131.9</ele>
        <time>2026-05-16T06:55:31Z</time>
      </trkpt>
      <trkpt lat="43.68109" lon="7.0988">
        <ele>131.9</ele>
        <time>2026-05-16T06:55:32Z</time>
      </trkpt>
      <trkpt lat="43.6811" lon="7.0988">
        <ele>131.9</ele>
        <time>2026-05-16T06:55:33Z</time>
      </trkpt>
      <trkpt lat="43.6811" lon="7.0988">
        <ele>131.9</ele>
        <time>2026-05-16T06:55:34Z</time>
      </trkpt>
      <trkpt lat="43.6811" lon="7.0988">
        <ele>131.9</ele>
        <time>2026-05-16T06:55:35Z</time>
      </trkpt>
      <trkpt lat="43.6811" lon="7.0988">
        <ele>131.9</ele>
        <time>2026-05-16T06:55:36Z</time>
      </trkpt>
      <trkpt lat="43.6811" lon="7.0988">
        <ele>131.9</ele>
        <time>2026-05-16T06:55:37Z</time>
      </trkpt>
      <trkpt lat="43.6811" lon="7.0988">
        <ele>131.9</ele>
        <time>2026-05-16T06:55:38Z</time>
      </trkpt>
      <trkpt lat="43.6811" lon="7.0988">
        <ele>131.9</ele>
        <time>2026-05-16T06:55:39Z</time>
      </trkpt>
      <trkpt lat="43.6811" lon="7.0988">
        <ele>131.9</ele>
        <time>2026-05-16T06:55:40Z</time>
      </trkpt>
      <trkpt lat="43.6811" lon="7.0988">
        <ele>131.9</ele>
        <time>2026-05-16T06:55:41Z</time>
      </trkpt>
      <trkpt lat="43.6811" lon="7.0988">
        <ele>131.9</ele>
        <time>2026-05-16T06:55:42Z</time>
      </trkpt>
      <trkpt lat="43.6811" lon="7.0988">
        <ele>131.9</ele>
        <time>2026-05-16T06:55:43Z</time>
      </trkpt>
      <trkpt lat="43.6811" lon="7.0988">
        <ele>131.9</ele>
        <time>2026-05-16T06:55:44Z</time>
      </trkpt>
      <trkpt lat="43.6811" lon="7.0988">
        <ele>131.9</ele>
        <time>2026-05-16T06:55:45Z</time>
      </trkpt>
      <trkpt lat="43.6811" lon="7.0988">
        <ele>131.9</ele>
        <time>2026-05-16T06:55:46Z</time>
      </trkpt>
      <trkpt lat="43.6811" lon="7.0988">
        <ele>131.9</ele>
        <time>2026-05-16T06:55:47Z</time>
      </trkpt>
      <trkpt lat="43.6811" lon="7.0988">
        <ele>131.9</ele>
        <time>2026-05-16T06:55:48Z</time>
      </trkpt>
      <trkpt lat="43.6811" lon="7.0988">
        <ele>131.9</ele>
        <time>2026-05-16T06:55:49Z</time>
      </trkpt>
      <trkpt lat="43.6811" lon="7.0988">
        <ele>131.9</ele>
        <time>2026-05-16T06:55:50Z</time>
      </trkpt>
      <trkpt lat="43.6811" lon="7.0988">
        <ele>131.9</ele>
        <time>2026-05-16T06:55:51Z</time>
      </trkpt>
      <trkpt lat="43.6811" lon="7.0988">
        <ele>131.9</ele>
        <time>2026-05-16T06:55:52Z</time>
      </trkpt>
      <trkpt lat="43.6811" lon="7.0988">
        <ele>131.9</ele>
        <time>2026-05-16T06:55:53Z</time>
      </trkpt>
      <trkpt lat="43.6811" lon="7.0988">
        <ele>131.9</ele>
        <time>2026-05-16T06:55:54Z</time>
      </trkpt>
      <trkpt lat="43.6811" lon="7.0988">
        <ele>131.9</ele>
        <time>2026-05-16T06:55:55Z</time>
      </trkpt>
      <trkpt lat="43.6811" lon="7.0988">
        <ele>131.9</ele>
        <time>2026-05-16T06:55:56Z</time>
      </trkpt>
      <trkpt lat="43.6811" lon="7.0988">
        <ele>131.9</ele>
        <time>2026-05-16T06:55:57Z</time>
      </trkpt>
      <trkpt lat="43.6811" lon="7.0988">
        <ele>131.9</ele>
        <time>2026-05-16T06:55:58Z</time>
      </trkpt>
      <trkpt lat="43.6811" lon="7.0988">
        <ele>131.9</ele>
        <time>2026-05-16T06:55:59Z</time>
      </trkpt>
      <trkpt lat="43.6811" lon="7.0988">
        <ele>131.9</ele>
        <time>2026-05-16T06:56:00Z</time>
      </trkpt>
      <trkpt lat="43.6811" lon="7.0988">
        <ele>131.9</ele>
        <time>2026-05-16T06:56:01Z</time>
      </trkpt>
      <trkpt lat="43.6811" lon="7.0988">
        <ele>131.9</ele>
        <time>2026-05-16T06:56:02Z</time>
      </trkpt>
      <trkpt lat="43.6811" lon="7.0988">
        <ele>131.9</ele>
        <time>2026-05-16T06:56:03Z</time>
      </trkpt>
      <trkpt lat="43.6811" lon="7.0988">
        <ele>131.9</ele>
        <time>2026-05-16T06:56:04Z</time>
      </trkpt>
      <trkpt lat="43.6811" lon="7.0988">
        <ele>131.9</ele>
        <time>2026-05-16T06:56:05Z</time>
      </trkpt>
      <trkpt lat="43.6811" lon="7.0988">
        <ele>131.9</ele>
        <time>2026-05-16T06:56:06Z</time>
      </trkpt>
      <trkpt lat="43.6811" lon="7.0988">
        <ele>131.9</ele>
        <time>2026-05-16T06:56:07Z</time>
      </trkpt>
      <trkpt lat="43.6811" lon="7.0988">
        <ele>131.9</ele>
        <time>2026-05-16T06:56:08Z</time>
      </trkpt>
      <trkpt lat="43.6811" lon="7.0988">
        <ele>131.9</ele>
        <time>2026-05-16T06:56:09Z</time>
      </trkpt>
      <trkpt lat="43.6811" lon="7.0988">
        <ele>131.9</ele>
        <time>2026-05-16T06:56:10Z</time>
      </trkpt>
      <trkpt lat="43.6811" lon="7.0988">
        <ele>131.9</ele>
        <time>2026-05-16T06:56:11Z</time>
      </trkpt>
      <trkpt lat="43.6811" lon="7.0988">
        <ele>131.9</ele>
        <time>2026-05-16T06:56:12Z</time>
      </trkpt>
      <trkpt lat="43.6811" lon="7.0988">
        <ele>131.9</ele>
        <time>2026-05-16T06:56:13Z</time>
      </trkpt>
      <trkpt lat="43.6811" lon="7.0988">
        <ele>131.9</ele>
        <time>2026-05-16T06:56:14Z</time>
      </trkpt>
      <trkpt lat="43.6811" lon="7.0988">
        <ele>131.9</ele>
        <time>2026-05-16T06:56:15Z</time>
      </trkpt>
      <trkpt lat="43.6811" lon="7.0988">
        <ele>131.9</ele>
        <time>2026-05-16T06:56:16Z</time>
      </trkpt>
      <trkpt lat="43.6811" lon="7.0988">
        <ele>131.9</ele>
        <time>2026-05-16T06:56:17Z</time>
      </trkpt>
      <trkpt lat="43.6811" lon="7.0988">
        <ele>131.9</ele>
        <time>2026-05-16T06:56:18Z</time>
      </trkpt>
      <trkpt lat="43.6811" lon="7.0988">
        <ele>131.9</ele>
        <time>2026-05-16T06:56:19Z</time>
      </trkpt>
      <trkpt lat="43.6811" lon="7.0988">
        <ele>131.9</ele>
        <time>2026-05-16T06:56:20Z</time>
      </trkpt>
      <trkpt lat="43.6811" lon="7.0988">
        <ele>131.9</ele>
        <time>2026-05-16T06:56:21Z</time>
      </trkpt>
      <trkpt lat="43.6811" lon="7.0988">
        <ele>131.9</ele>
        <time>2026-05-16T06:56:22Z</time>
      </trkpt>
      <trkpt lat="43.6811" lon="7.0988">
        <ele>131.9</ele>
        <time>2026-05-16T06:56:23Z</time>
      </trkpt>
      <trkpt lat="43.6811" lon="7.0988">
        <ele>131.9</ele>
        <time>2026-05-16T06:56:24Z</time>
      </trkpt>
      <trkpt lat="43.6811" lon="7.0988">
        <ele>131.9</ele>
        <time>2026-05-16T06:56:25Z</time>
      </trkpt>
      <trkpt lat="43.6811" lon="7.0988">
        <ele>131.9</ele>
        <time>2026-05-16T06:56:26Z</time>
      </trkpt>
      <trkpt lat="43.6811" lon="7.0988">
        <ele>131.9</ele>
        <time>2026-05-16T06:56:27Z</time>
      </trkpt>
      <trkpt lat="43.6811" lon="7.0988">
        <ele>131.9</ele>
        <time>2026-05-16T06:56:28Z</time>
      </trkpt>
      <trkpt lat="43.6811" lon="7.0988">
        <ele>131.9</ele>
        <time>2026-05-16T06:56:29Z</time>
      </trkpt>
      <trkpt lat="43.6811" lon="7.0988">
        <ele>131.9</ele>
        <time>2026-05-16T06:56:30Z</time>
      </trkpt>
      <trkpt lat="43.6811" lon="7.0988">
        <ele>131.9</ele>
        <time>2026-05-16T06:56:31Z</time>
      </trkpt>
      <trkpt lat="43.6811" lon="7.0988">
        <ele>131.9</ele>
        <time>2026-05-16T06:56:32Z</time>
      </trkpt>
      <trkpt lat="43.6811" lon="7.0988">
        <ele>131.9</ele>
        <time>2026-05-16T06:56:33Z</time>
      </trkpt>
      <trkpt lat="43.6811" lon="7.0988">
        <ele>131.9</ele>
        <time>2026-05-16T06:56:34Z</time>
      </trkpt>
      <trkpt lat="43.68111" lon="7.09879">
        <ele>132</ele>
        <time>2026-05-16T06:56:35Z</time>
      </trkpt>
      <trkpt lat="43.68114" lon="7.09877">
        <ele>132.2</ele>
        <time>2026-05-16T06:56:36Z</time>
      </trkpt>
      <trkpt lat="43.68116" lon="7.0987">
        <ele>132.3</ele>
        <time>2026-05-16T06:56:37Z</time>
      </trkpt>
      <trkpt lat="43.68118" lon="7.09862">
        <ele>132.3</ele>
        <time>2026-05-16T06:56:38Z</time>
      </trkpt>
      <trkpt lat="43.68119" lon="7.09853">
        <ele>131.7</ele>
        <time>2026-05-16T06:56:39Z</time>
      </trkpt>
      <trkpt lat="43.6812" lon="7.09844">
        <ele>131.1</ele>
        <time>2026-05-16T06:56:40Z</time>
      </trkpt>
      <trkpt lat="43.68122" lon="7.09837">
        <ele>130.7</ele>
        <time>2026-05-16T06:56:41Z</time>
      </trkpt>
      <trkpt lat="43.68124" lon="7.0983">
        <ele>130.3</ele>
        <time>2026-05-16T06:56:42Z</time>
      </trkpt>
      <trkpt lat="43.68126" lon="7.09822">
        <ele>129.9</ele>
        <time>2026-05-16T06:56:43Z</time>
      </trkpt>
      <trkpt lat="43.68128" lon="7.09813">
        <ele>129.4</ele>
        <time>2026-05-16T06:56:44Z</time>
      </trkpt>
      <trkpt lat="43.6813" lon="7.09804">
        <ele>128.9</ele>
        <time>2026-05-16T06:56:45Z</time>
      </trkpt>
      <trkpt lat="43.6813" lon="7.09797">
        <ele>128.4</ele>
        <time>2026-05-16T06:56:46Z</time>
      </trkpt>
      <trkpt lat="43.6813" lon="7.0979">
        <ele>127.9</ele>
        <time>2026-05-16T06:56:47Z</time>
      </trkpt>
      <trkpt lat="43.6813" lon="7.09784">
        <ele>127.4</ele>
        <time>2026-05-16T06:56:48Z</time>
      </trkpt>
      <trkpt lat="43.68131" lon="7.09777">
        <ele>127</ele>
        <time>2026-05-16T06:56:49Z</time>
      </trkpt>
      <trkpt lat="43.68133" lon="7.09771">
        <ele>126.8</ele>
        <time>2026-05-16T06:56:50Z</time>
      </trkpt>
      <trkpt lat="43.68135" lon="7.09766">
        <ele>126.6</ele>
        <time>2026-05-16T06:56:51Z</time>
      </trkpt>
      <trkpt lat="43.68136" lon="7.0976">
        <ele>126.4</ele>
        <time>2026-05-16T06:56:52Z</time>
      </trkpt>
      <trkpt lat="43.68139" lon="7.09754">
        <ele>126.1</ele>
        <time>2026-05-16T06:56:53Z</time>
      </trkpt>
      <trkpt lat="43.68143" lon="7.09749">
        <ele>125.7</ele>
        <time>2026-05-16T06:56:54Z</time>
      </trkpt>
      <trkpt lat="43.68148" lon="7.09744">
        <ele>125.3</ele>
        <time>2026-05-16T06:56:55Z</time>
      </trkpt>
      <trkpt lat="43.68153" lon="7.09738">
        <ele>124.8</ele>
        <time>2026-05-16T06:56:56Z</time>
      </trkpt>
      <trkpt lat="43.68159" lon="7.09731">
        <ele>124.1</ele>
        <time>2026-05-16T06:56:57Z</time>
      </trkpt>
      <trkpt lat="43.68166" lon="7.09724">
        <ele>123.1</ele>
        <time>2026-05-16T06:56:58Z</time>
      </trkpt>
      <trkpt lat="43.68173" lon="7.09715">
        <ele>122.1</ele>
        <time>2026-05-16T06:56:59Z</time>
      </trkpt>
      <trkpt lat="43.6818" lon="7.09708">
        <ele>121.1</ele>
        <time>2026-05-16T06:57:00Z</time>
      </trkpt>
      <trkpt lat="43.68187" lon="7.09701">
        <ele>120.1</ele>
        <time>2026-05-16T06:57:01Z</time>
      </trkpt>
      <trkpt lat="43.68194" lon="7.09695">
        <ele>119.1</ele>
        <time>2026-05-16T06:57:02Z</time>
      </trkpt>
      <trkpt lat="43.68203" lon="7.09697">
        <ele>116.9</ele>
        <time>2026-05-16T06:57:03Z</time>
      </trkpt>
      <trkpt lat="43.6821" lon="7.09699">
        <ele>115.3</ele>
        <time>2026-05-16T06:57:04Z</time>
      </trkpt>
      <trkpt lat="43.68217" lon="7.09704">
        <ele>113.9</ele>
        <time>2026-05-16T06:57:05Z</time>
      </trkpt>
      <trkpt lat="43.68224" lon="7.09711">
        <ele>112.7</ele>
        <time>2026-05-16T06:57:06Z</time>
      </trkpt>
      <trkpt lat="43.68232" lon="7.09718">
        <ele>111.3</ele>
        <time>2026-05-16T06:57:07Z</time>
      </trkpt>
      <trkpt lat="43.68239" lon="7.09726">
        <ele>110.9</ele>
        <time>2026-05-16T06:57:08Z</time>
      </trkpt>
      <trkpt lat="43.68246" lon="7.09734">
        <ele>110.6</ele>
        <time>2026-05-16T06:57:09Z</time>
      </trkpt>
      <trkpt lat="43.68253" lon="7.0974">
        <ele>109.8</ele>
        <time>2026-05-16T06:57:10Z</time>
      </trkpt>
      <trkpt lat="43.6826" lon="7.09747">
        <ele>109</ele>
        <time>2026-05-16T06:57:11Z</time>
      </trkpt>
      <trkpt lat="43.68267" lon="7.09753">
        <ele>108.4</ele>
        <time>2026-05-16T06:57:12Z</time>
      </trkpt>
      <trkpt lat="43.68275" lon="7.0976">
        <ele>107.6</ele>
        <time>2026-05-16T06:57:13Z</time>
      </trkpt>
      <trkpt lat="43.68283" lon="7.09766">
        <ele>107.3</ele>
        <time>2026-05-16T06:57:14Z</time>
      </trkpt>
      <trkpt lat="43.68291" lon="7.09771">
        <ele>107.4</ele>
        <time>2026-05-16T06:57:15Z</time>
      </trkpt>
      <trkpt lat="43.68299" lon="7.09775">
        <ele>107.2</ele>
        <time>2026-05-16T06:57:16Z</time>
      </trkpt>
      <trkpt lat="43.68307" lon="7.09775">
        <ele>106.4</ele>
        <time>2026-05-16T06:57:17Z</time>
      </trkpt>
      <trkpt lat="43.68316" lon="7.09771">
        <ele>105.2</ele>
        <time>2026-05-16T06:57:18Z</time>
      </trkpt>
      <trkpt lat="43.68324" lon="7.09767">
        <ele>104.2</ele>
        <time>2026-05-16T06:57:19Z</time>
      </trkpt>
      <trkpt lat="43.68333" lon="7.09765">
        <ele>103.6</ele>
        <time>2026-05-16T06:57:20Z</time>
      </trkpt>
      <trkpt lat="43.68341" lon="7.09765">
        <ele>102.6</ele>
        <time>2026-05-16T06:57:21Z</time>
      </trkpt>
      <trkpt lat="43.68349" lon="7.09767">
        <ele>101.7</ele>
        <time>2026-05-16T06:57:22Z</time>
      </trkpt>
      <trkpt lat="43.68357" lon="7.0977">
        <ele>100.6</ele>
        <time>2026-05-16T06:57:23Z</time>
      </trkpt>
      <trkpt lat="43.68364" lon="7.09774">
        <ele>99.5</ele>
        <time>2026-05-16T06:57:24Z</time>
      </trkpt>
      <trkpt lat="43.68371" lon="7.09781">
        <ele>98.3</ele>
        <time>2026-05-16T06:57:25Z</time>
      </trkpt>
      <trkpt lat="43.68378" lon="7.0979">
        <ele>97.1</ele>
        <time>2026-05-16T06:57:26Z</time>
      </trkpt>
      <trkpt lat="43.68385" lon="7.098">
        <ele>95.8</ele>
        <time>2026-05-16T06:57:27Z</time>
      </trkpt>
      <trkpt lat="43.68391" lon="7.09813">
        <ele>94.4</ele>
        <time>2026-05-16T06:57:28Z</time>
      </trkpt>
      <trkpt lat="43.68396" lon="7.09825">
        <ele>93.1</ele>
        <time>2026-05-16T06:57:29Z</time>
      </trkpt>
      <trkpt lat="43.68401" lon="7.09836">
        <ele>92.2</ele>
        <time>2026-05-16T06:57:30Z</time>
      </trkpt>
      <trkpt lat="43.68407" lon="7.09846">
        <ele>91.9</ele>
        <time>2026-05-16T06:57:31Z</time>
      </trkpt>
      <trkpt lat="43.68414" lon="7.09853">
        <ele>91.4</ele>
        <time>2026-05-16T06:57:32Z</time>
      </trkpt>
      <trkpt lat="43.68421" lon="7.09859">
        <ele>90.6</ele>
        <time>2026-05-16T06:57:33Z</time>
      </trkpt>
      <trkpt lat="43.68428" lon="7.09865">
        <ele>89.8</ele>
        <time>2026-05-16T06:57:34Z</time>
      </trkpt>
      <trkpt lat="43.68437" lon="7.0987">
        <ele>88.6</ele>
        <time>2026-05-16T06:57:35Z</time>
      </trkpt>
      <trkpt lat="43.68446" lon="7.09873">
        <ele>87.2</ele>
        <time>2026-05-16T06:57:36Z</time>
      </trkpt>
      <trkpt lat="43.68456" lon="7.09875">
        <ele>84.9</ele>
        <time>2026-05-16T06:57:37Z</time>
      </trkpt>
      <trkpt lat="43.68465" lon="7.09881">
        <ele>83.6</ele>
        <time>2026-05-16T06:57:38Z</time>
      </trkpt>
      <trkpt lat="43.68473" lon="7.09886">
        <ele>82.3</ele>
        <time>2026-05-16T06:57:39Z</time>
      </trkpt>
      <trkpt lat="43.6848" lon="7.09892">
        <ele>81.8</ele>
        <time>2026-05-16T06:57:40Z</time>
      </trkpt>
      <trkpt lat="43.68485" lon="7.09897">
        <ele>81.2</ele>
        <time>2026-05-16T06:57:41Z</time>
      </trkpt>
      <trkpt lat="43.6849" lon="7.099">
        <ele>80.1</ele>
        <time>2026-05-16T06:57:42Z</time>
      </trkpt>
      <trkpt lat="43.68493" lon="7.09904">
        <ele>79.6</ele>
        <time>2026-05-16T06:57:43Z</time>
      </trkpt>
      <trkpt lat="43.68496" lon="7.09907">
        <ele>78.9</ele>
        <time>2026-05-16T06:57:44Z</time>
      </trkpt>
      <trkpt lat="43.68497" lon="7.09908">
        <ele>78.6</ele>
        <time>2026-05-16T06:57:45Z</time>
      </trkpt>
      <trkpt lat="43.68498" lon="7.09909">
        <ele>78.4</ele>
        <time>2026-05-16T06:57:46Z</time>
      </trkpt>
      <trkpt lat="43.685" lon="7.0991">
        <ele>77.8</ele>
        <time>2026-05-16T06:57:47Z</time>
      </trkpt>
      <trkpt lat="43.68502" lon="7.09912">
        <ele>77.7</ele>
        <time>2026-05-16T06:57:48Z</time>
      </trkpt>
      <trkpt lat="43.68505" lon="7.09912">
        <ele>77.5</ele>
        <time>2026-05-16T06:57:49Z</time>
      </trkpt>
      <trkpt lat="43.68511" lon="7.09911">
        <ele>77</ele>
        <time>2026-05-16T06:57:50Z</time>
      </trkpt>
      <trkpt lat="43.68517" lon="7.0991">
        <ele>76.5</ele>
        <time>2026-05-16T06:57:51Z</time>
      </trkpt>
      <trkpt lat="43.68523" lon="7.09909">
        <ele>76.1</ele>
        <time>2026-05-16T06:57:52Z</time>
      </trkpt>
      <trkpt lat="43.68528" lon="7.09909">
        <ele>75.7</ele>
        <time>2026-05-16T06:57:53Z</time>
      </trkpt>
      <trkpt lat="43.68532" lon="7.09908">
        <ele>75.6</ele>
        <time>2026-05-16T06:57:54Z</time>
      </trkpt>
      <trkpt lat="43.68536" lon="7.09908">
        <ele>75.5</ele>
        <time>2026-05-16T06:57:55Z</time>
      </trkpt>
      <trkpt lat="43.68539" lon="7.09908">
        <ele>75.4</ele>
        <time>2026-05-16T06:57:56Z</time>
      </trkpt>
      <trkpt lat="43.68543" lon="7.09908">
        <ele>75.3</ele>
        <time>2026-05-16T06:57:57Z</time>
      </trkpt>
      <trkpt lat="43.68547" lon="7.09908">
        <ele>75.2</ele>
        <time>2026-05-16T06:57:58Z</time>
      </trkpt>
      <trkpt lat="43.68552" lon="7.09908">
        <ele>75.1</ele>
        <time>2026-05-16T06:57:59Z</time>
      </trkpt>
      <trkpt lat="43.68557" lon="7.09907">
        <ele>75.1</ele>
        <time>2026-05-16T06:58:00Z</time>
      </trkpt>
      <trkpt lat="43.6856" lon="7.09903">
        <ele>75.3</ele>
        <time>2026-05-16T06:58:01Z</time>
      </trkpt>
      <trkpt lat="43.68561" lon="7.09897">
        <ele>75.4</ele>
        <time>2026-05-16T06:58:02Z</time>
      </trkpt>
      <trkpt lat="43.68561" lon="7.09888">
        <ele>75.4</ele>
        <time>2026-05-16T06:58:03Z</time>
      </trkpt>
      <trkpt lat="43.6856" lon="7.09878">
        <ele>75.3</ele>
        <time>2026-05-16T06:58:04Z</time>
      </trkpt>
      <trkpt lat="43.68559" lon="7.09865">
        <ele>75.2</ele>
        <time>2026-05-16T06:58:05Z</time>
      </trkpt>
      <trkpt lat="43.68556" lon="7.0985">
        <ele>75</ele>
        <time>2026-05-16T06:58:06Z</time>
      </trkpt>
      <trkpt lat="43.68554" lon="7.09835">
        <ele>74.9</ele>
        <time>2026-05-16T06:58:07Z</time>
      </trkpt>
      <trkpt lat="43.68552" lon="7.0982">
        <ele>74.7</ele>
        <time>2026-05-16T06:58:08Z</time>
      </trkpt>
      <trkpt lat="43.68549" lon="7.09804">
        <ele>74.6</ele>
        <time>2026-05-16T06:58:09Z</time>
      </trkpt>
      <trkpt lat="43.68547" lon="7.09788">
        <ele>75.1</ele>
        <time>2026-05-16T06:58:10Z</time>
      </trkpt>
      <trkpt lat="43.68545" lon="7.09771">
        <ele>75.1</ele>
        <time>2026-05-16T06:58:11Z</time>
      </trkpt>
      <trkpt lat="43.68542" lon="7.09754">
        <ele>74.6</ele>
        <time>2026-05-16T06:58:12Z</time>
      </trkpt>
      <trkpt lat="43.6854" lon="7.09737">
        <ele>74</ele>
        <time>2026-05-16T06:58:13Z</time>
      </trkpt>
      <trkpt lat="43.68537" lon="7.0972">
        <ele>73.2</ele>
        <time>2026-05-16T06:58:14Z</time>
      </trkpt>
      <trkpt lat="43.68534" lon="7.09703">
        <ele>72</ele>
        <time>2026-05-16T06:58:15Z</time>
      </trkpt>
      <trkpt lat="43.68529" lon="7.09685">
        <ele>70.3</ele>
        <time>2026-05-16T06:58:16Z</time>
      </trkpt>
      <trkpt lat="43.68524" lon="7.09668">
        <ele>69.3</ele>
        <time>2026-05-16T06:58:17Z</time>
      </trkpt>
      <trkpt lat="43.68517" lon="7.09651">
        <ele>68.8</ele>
        <time>2026-05-16T06:58:18Z</time>
      </trkpt>
      <trkpt lat="43.6851" lon="7.09635">
        <ele>67.7</ele>
        <time>2026-05-16T06:58:19Z</time>
      </trkpt>
      <trkpt lat="43.68502" lon="7.09621">
        <ele>66.2</ele>
        <time>2026-05-16T06:58:20Z</time>
      </trkpt>
      <trkpt lat="43.68494" lon="7.09607">
        <ele>64.9</ele>
        <time>2026-05-16T06:58:21Z</time>
      </trkpt>
      <trkpt lat="43.68486" lon="7.09595">
        <ele>63.8</ele>
        <time>2026-05-16T06:58:22Z</time>
      </trkpt>
      <trkpt lat="43.68478" lon="7.09583">
        <ele>63.4</ele>
        <time>2026-05-16T06:58:23Z</time>
      </trkpt>
      <trkpt lat="43.6847" lon="7.09571">
        <ele>62.8</ele>
        <time>2026-05-16T06:58:24Z</time>
      </trkpt>
      <trkpt lat="43.68463" lon="7.0956">
        <ele>62.2</ele>
        <time>2026-05-16T06:58:25Z</time>
      </trkpt>
      <trkpt lat="43.68457" lon="7.0955">
        <ele>61.8</ele>
        <time>2026-05-16T06:58:26Z</time>
      </trkpt>
      <trkpt lat="43.68451" lon="7.0954">
        <ele>60.7</ele>
        <time>2026-05-16T06:58:27Z</time>
      </trkpt>
      <trkpt lat="43.68445" lon="7.0953">
        <ele>59.3</ele>
        <time>2026-05-16T06:58:28Z</time>
      </trkpt>
      <trkpt lat="43.68439" lon="7.09519">
        <ele>58.9</ele>
        <time>2026-05-16T06:58:29Z</time>
      </trkpt>
      <trkpt lat="43.68435" lon="7.09507">
        <ele>58</ele>
        <time>2026-05-16T06:58:30Z</time>
      </trkpt>
      <trkpt lat="43.68432" lon="7.09493">
        <ele>56.5</ele>
        <time>2026-05-16T06:58:31Z</time>
      </trkpt>
      <trkpt lat="43.68432" lon="7.09479">
        <ele>55.7</ele>
        <time>2026-05-16T06:58:32Z</time>
      </trkpt>
      <trkpt lat="43.68434" lon="7.09464">
        <ele>55.4</ele>
        <time>2026-05-16T06:58:33Z</time>
      </trkpt>
      <trkpt lat="43.68434" lon="7.09451">
        <ele>54.8</ele>
        <time>2026-05-16T06:58:34Z</time>
      </trkpt>
      <trkpt lat="43.68435" lon="7.09438">
        <ele>54.3</ele>
        <time>2026-05-16T06:58:35Z</time>
      </trkpt>
      <trkpt lat="43.68434" lon="7.09425">
        <ele>53.6</ele>
        <time>2026-05-16T06:58:36Z</time>
      </trkpt>
      <trkpt lat="43.68432" lon="7.09412">
        <ele>52.8</ele>
        <time>2026-05-16T06:58:37Z</time>
      </trkpt>
      <trkpt lat="43.68428" lon="7.094">
        <ele>51.6</ele>
        <time>2026-05-16T06:58:38Z</time>
      </trkpt>
      <trkpt lat="43.68422" lon="7.09389">
        <ele>50.4</ele>
        <time>2026-05-16T06:58:39Z</time>
      </trkpt>
      <trkpt lat="43.68415" lon="7.09377">
        <ele>49.5</ele>
        <time>2026-05-16T06:58:40Z</time>
      </trkpt>
      <trkpt lat="43.68408" lon="7.09365">
        <ele>48.6</ele>
        <time>2026-05-16T06:58:41Z</time>
      </trkpt>
      <trkpt lat="43.68401" lon="7.09354">
        <ele>48.1</ele>
        <time>2026-05-16T06:58:42Z</time>
      </trkpt>
      <trkpt lat="43.68394" lon="7.09342">
        <ele>47.2</ele>
        <time>2026-05-16T06:58:43Z</time>
      </trkpt>
      <trkpt lat="43.68388" lon="7.0933">
        <ele>46.3</ele>
        <time>2026-05-16T06:58:44Z</time>
      </trkpt>
      <trkpt lat="43.68381" lon="7.09318">
        <ele>47</ele>
        <time>2026-05-16T06:58:45Z</time>
      </trkpt>
      <trkpt lat="43.68376" lon="7.09304">
        <ele>47.2</ele>
        <time>2026-05-16T06:58:46Z</time>
      </trkpt>
      <trkpt lat="43.6837" lon="7.09291">
        <ele>46</ele>
        <time>2026-05-16T06:58:47Z</time>
      </trkpt>
      <trkpt lat="43.68366" lon="7.09279">
        <ele>44.2</ele>
        <time>2026-05-16T06:58:48Z</time>
      </trkpt>
      <trkpt lat="43.68362" lon="7.09271">
        <ele>42.4</ele>
        <time>2026-05-16T06:58:49Z</time>
      </trkpt>
      <trkpt lat="43.68359" lon="7.09263">
        <ele>42.1</ele>
        <time>2026-05-16T06:58:50Z</time>
      </trkpt>
      <trkpt lat="43.68357" lon="7.09255">
        <ele>42.1</ele>
        <time>2026-05-16T06:58:51Z</time>
      </trkpt>
      <trkpt lat="43.68355" lon="7.09248">
        <ele>42.2</ele>
        <time>2026-05-16T06:58:52Z</time>
      </trkpt>
      <trkpt lat="43.68352" lon="7.0924">
        <ele>42.9</ele>
        <time>2026-05-16T06:58:53Z</time>
      </trkpt>
      <trkpt lat="43.68347" lon="7.09232">
        <ele>42.6</ele>
        <time>2026-05-16T06:58:54Z</time>
      </trkpt>
      <trkpt lat="43.68343" lon="7.09221">
        <ele>41.8</ele>
        <time>2026-05-16T06:58:55Z</time>
      </trkpt>
      <trkpt lat="43.68339" lon="7.09209">
        <ele>40.5</ele>
        <time>2026-05-16T06:58:56Z</time>
      </trkpt>
      <trkpt lat="43.68335" lon="7.09198">
        <ele>38.8</ele>
        <time>2026-05-16T06:58:57Z</time>
      </trkpt>
      <trkpt lat="43.68331" lon="7.09188">
        <ele>38.5</ele>
        <time>2026-05-16T06:58:58Z</time>
      </trkpt>
      <trkpt lat="43.68328" lon="7.0918">
        <ele>39</ele>
        <time>2026-05-16T06:58:59Z</time>
      </trkpt>
      <trkpt lat="43.68325" lon="7.09174">
        <ele>39.2</ele>
        <time>2026-05-16T06:59:00Z</time>
      </trkpt>
      <trkpt lat="43.68323" lon="7.09169">
        <ele>39.3</ele>
        <time>2026-05-16T06:59:01Z</time>
      </trkpt>
      <trkpt lat="43.68322" lon="7.09164">
        <ele>39.1</ele>
        <time>2026-05-16T06:59:02Z</time>
      </trkpt>
      <trkpt lat="43.68321" lon="7.09161">
        <ele>38.6</ele>
        <time>2026-05-16T06:59:03Z</time>
      </trkpt>
      <trkpt lat="43.6832" lon="7.09158">
        <ele>38.1</ele>
        <time>2026-05-16T06:59:04Z</time>
      </trkpt>
      <trkpt lat="43.68319" lon="7.09156">
        <ele>37.8</ele>
        <time>2026-05-16T06:59:05Z</time>
      </trkpt>
      <trkpt lat="43.68319" lon="7.09156">
        <ele>37.8</ele>
        <time>2026-05-16T06:59:06Z</time>
      </trkpt>
      <trkpt lat="43.68319" lon="7.09155">
        <ele>37.7</ele>
        <time>2026-05-16T06:59:07Z</time>
      </trkpt>
      <trkpt lat="43.68319" lon="7.09155">
        <ele>37.7</ele>
        <time>2026-05-16T06:59:08Z</time>
      </trkpt>
      <trkpt lat="43.68319" lon="7.09155">
        <ele>37.7</ele>
        <time>2026-05-16T06:59:09Z</time>
      </trkpt>
      <trkpt lat="43.68318" lon="7.09153">
        <ele>37.4</ele>
        <time>2026-05-16T06:59:10Z</time>
      </trkpt>
      <trkpt lat="43.68318" lon="7.09152">
        <ele>37.3</ele>
        <time>2026-05-16T06:59:11Z</time>
      </trkpt>
      <trkpt lat="43.68317" lon="7.09149">
        <ele>36.9</ele>
        <time>2026-05-16T06:59:12Z</time>
      </trkpt>
      <trkpt lat="43.68315" lon="7.09145">
        <ele>36.3</ele>
        <time>2026-05-16T06:59:13Z</time>
      </trkpt>
      <trkpt lat="43.68311" lon="7.09136">
        <ele>35.6</ele>
        <time>2026-05-16T06:59:14Z</time>
      </trkpt>
      <trkpt lat="43.68306" lon="7.09125">
        <ele>35.6</ele>
        <time>2026-05-16T06:59:15Z</time>
      </trkpt>
      <trkpt lat="43.68301" lon="7.09113">
        <ele>35.6</ele>
        <time>2026-05-16T06:59:16Z</time>
      </trkpt>
      <trkpt lat="43.68296" lon="7.09102">
        <ele>36.2</ele>
        <time>2026-05-16T06:59:17Z</time>
      </trkpt>
      <trkpt lat="43.6829" lon="7.09088">
        <ele>36.3</ele>
        <time>2026-05-16T06:59:18Z</time>
      </trkpt>
      <trkpt lat="43.68283" lon="7.09074">
        <ele>35.6</ele>
        <time>2026-05-16T06:59:19Z</time>
      </trkpt>
      <trkpt lat="43.68278" lon="7.0906">
        <ele>34.9</ele>
        <time>2026-05-16T06:59:20Z</time>
      </trkpt>
      <trkpt lat="43.68274" lon="7.09044">
        <ele>35.3</ele>
        <time>2026-05-16T06:59:21Z</time>
      </trkpt>
      <trkpt lat="43.6827" lon="7.09028">
        <ele>35.3</ele>
        <time>2026-05-16T06:59:22Z</time>
      </trkpt>
      <trkpt lat="43.68268" lon="7.0901">
        <ele>35.7</ele>
        <time>2026-05-16T06:59:23Z</time>
      </trkpt>
      <trkpt lat="43.68268" lon="7.08992">
        <ele>36</ele>
        <time>2026-05-16T06:59:24Z</time>
      </trkpt>
      <trkpt lat="43.68269" lon="7.08974">
        <ele>35.8</ele>
        <time>2026-05-16T06:59:25Z</time>
      </trkpt>
      <trkpt lat="43.68274" lon="7.08958">
        <ele>34.9</ele>
        <time>2026-05-16T06:59:26Z</time>
      </trkpt>
      <trkpt lat="43.68281" lon="7.08943">
        <ele>35</ele>
        <time>2026-05-16T06:59:27Z</time>
      </trkpt>
      <trkpt lat="43.68287" lon="7.08927">
        <ele>35.9</ele>
        <time>2026-05-16T06:59:28Z</time>
      </trkpt>
      <trkpt lat="43.68294" lon="7.08912">
        <ele>36.2</ele>
        <time>2026-05-16T06:59:29Z</time>
      </trkpt>
      <trkpt lat="43.68301" lon="7.08896">
        <ele>33.6</ele>
        <time>2026-05-16T06:59:30Z</time>
      </trkpt>
      <trkpt lat="43.68307" lon="7.08881">
        <ele>32.4</ele>
        <time>2026-05-16T06:59:31Z</time>
      </trkpt>
      <trkpt lat="43.68313" lon="7.08865">
        <ele>35.1</ele>
        <time>2026-05-16T06:59:32Z</time>
      </trkpt>
      <trkpt lat="43.68318" lon="7.08849">
        <ele>37.3</ele>
        <time>2026-05-16T06:59:33Z</time>
      </trkpt>
      <trkpt lat="43.68321" lon="7.08832">
        <ele>37.6</ele>
        <time>2026-05-16T06:59:34Z</time>
      </trkpt>
      <trkpt lat="43.68325" lon="7.08814">
        <ele>36.9</ele>
        <time>2026-05-16T06:59:35Z</time>
      </trkpt>
      <trkpt lat="43.68324" lon="7.08795">
        <ele>35.1</ele>
        <time>2026-05-16T06:59:36Z</time>
      </trkpt>
      <trkpt lat="43.68324" lon="7.08779">
        <ele>34.7</ele>
        <time>2026-05-16T06:59:37Z</time>
      </trkpt>
      <trkpt lat="43.68322" lon="7.08762">
        <ele>34.7</ele>
        <time>2026-05-16T06:59:38Z</time>
      </trkpt>
      <trkpt lat="43.68318" lon="7.08745">
        <ele>34.1</ele>
        <time>2026-05-16T06:59:39Z</time>
      </trkpt>
      <trkpt lat="43.68313" lon="7.08729">
        <ele>32.9</ele>
        <time>2026-05-16T06:59:40Z</time>
      </trkpt>
      <trkpt lat="43.68308" lon="7.08715">
        <ele>31.9</ele>
        <time>2026-05-16T06:59:41Z</time>
      </trkpt>
      <trkpt lat="43.68303" lon="7.08704">
        <ele>31.5</ele>
        <time>2026-05-16T06:59:42Z</time>
      </trkpt>
      <trkpt lat="43.68297" lon="7.08692">
        <ele>31.6</ele>
        <time>2026-05-16T06:59:43Z</time>
      </trkpt>
      <trkpt lat="43.68292" lon="7.08683">
        <ele>31.8</ele>
        <time>2026-05-16T06:59:44Z</time>
      </trkpt>
      <trkpt lat="43.68286" lon="7.08675">
        <ele>32</ele>
        <time>2026-05-16T06:59:45Z</time>
      </trkpt>
      <trkpt lat="43.68282" lon="7.08668">
        <ele>32.2</ele>
        <time>2026-05-16T06:59:46Z</time>
      </trkpt>
      <trkpt lat="43.68278" lon="7.08661">
        <ele>32.2</ele>
        <time>2026-05-16T06:59:47Z</time>
      </trkpt>
      <trkpt lat="43.68272" lon="7.08653">
        <ele>32.2</ele>
        <time>2026-05-16T06:59:48Z</time>
      </trkpt>
      <trkpt lat="43.68267" lon="7.08645">
        <ele>32.3</ele>
        <time>2026-05-16T06:59:49Z</time>
      </trkpt>
      <trkpt lat="43.68261" lon="7.08636">
        <ele>32.6</ele>
        <time>2026-05-16T06:59:50Z</time>
      </trkpt>
      <trkpt lat="43.68255" lon="7.08628">
        <ele>33</ele>
        <time>2026-05-16T06:59:51Z</time>
      </trkpt>
      <trkpt lat="43.68249" lon="7.0862">
        <ele>33.3</ele>
        <time>2026-05-16T06:59:52Z</time>
      </trkpt>
      <trkpt lat="43.68245" lon="7.08612">
        <ele>33.8</ele>
        <time>2026-05-16T06:59:53Z</time>
      </trkpt>
      <trkpt lat="43.6824" lon="7.08604">
        <ele>34.2</ele>
        <time>2026-05-16T06:59:54Z</time>
      </trkpt>
      <trkpt lat="43.68236" lon="7.08595">
        <ele>34.7</ele>
        <time>2026-05-16T06:59:55Z</time>
      </trkpt>
      <trkpt lat="43.68232" lon="7.08585">
        <ele>35</ele>
        <time>2026-05-16T06:59:56Z</time>
      </trkpt>
      <trkpt lat="43.68231" lon="7.08573">
        <ele>34.7</ele>
        <time>2026-05-16T06:59:57Z</time>
      </trkpt>
      <trkpt lat="43.6823" lon="7.08561">
        <ele>34.1</ele>
        <time>2026-05-16T06:59:58Z</time>
      </trkpt>
      <trkpt lat="43.68231" lon="7.08549">
        <ele>33.9</ele>
        <time>2026-05-16T06:59:59Z</time>
      </trkpt>
      <trkpt lat="43.68232" lon="7.08537">
        <ele>33.6</ele>
        <time>2026-05-16T07:00:00Z</time>
      </trkpt>
      <trkpt lat="43.68233" lon="7.08525">
        <ele>33.6</ele>
        <time>2026-05-16T07:00:01Z</time>
      </trkpt>
      <trkpt lat="43.68234" lon="7.08513">
        <ele>33.6</ele>
        <time>2026-05-16T07:00:02Z</time>
      </trkpt>
      <trkpt lat="43.68234" lon="7.08502">
        <ele>33.2</ele>
        <time>2026-05-16T07:00:03Z</time>
      </trkpt>
      <trkpt lat="43.68235" lon="7.08491">
        <ele>33.9</ele>
        <time>2026-05-16T07:00:04Z</time>
      </trkpt>
      <trkpt lat="43.68234" lon="7.0848">
        <ele>34.1</ele>
        <time>2026-05-16T07:00:05Z</time>
      </trkpt>
      <trkpt lat="43.68231" lon="7.08468">
        <ele>34.1</ele>
        <time>2026-05-16T07:00:06Z</time>
      </trkpt>
      <trkpt lat="43.68228" lon="7.08456">
        <ele>34.1</ele>
        <time>2026-05-16T07:00:07Z</time>
      </trkpt>
      <trkpt lat="43.68224" lon="7.08445">
        <ele>33.5</ele>
        <time>2026-05-16T07:00:08Z</time>
      </trkpt>
      <trkpt lat="43.6822" lon="7.08435">
        <ele>34.4</ele>
        <time>2026-05-16T07:00:09Z</time>
      </trkpt>
      <trkpt lat="43.68216" lon="7.08426">
        <ele>35.1</ele>
        <time>2026-05-16T07:00:10Z</time>
      </trkpt>
      <trkpt lat="43.68212" lon="7.08416">
        <ele>35.4</ele>
        <time>2026-05-16T07:00:11Z</time>
      </trkpt>
      <trkpt lat="43.68208" lon="7.08407">
        <ele>34.8</ele>
        <time>2026-05-16T07:00:12Z</time>
      </trkpt>
      <trkpt lat="43.68205" lon="7.08397">
        <ele>34.4</ele>
        <time>2026-05-16T07:00:13Z</time>
      </trkpt>
      <trkpt lat="43.68201" lon="7.08388">
        <ele>33.7</ele>
        <time>2026-05-16T07:00:14Z</time>
      </trkpt>
      <trkpt lat="43.68196" lon="7.08379">
        <ele>33</ele>
        <time>2026-05-16T07:00:15Z</time>
      </trkpt>
      <trkpt lat="43.68192" lon="7.08371">
        <ele>33.1</ele>
        <time>2026-05-16T07:00:16Z</time>
      </trkpt>
      <trkpt lat="43.68187" lon="7.08361">
        <ele>33.2</ele>
        <time>2026-05-16T07:00:17Z</time>
      </trkpt>
      <trkpt lat="43.68181" lon="7.08353">
        <ele>33</ele>
        <time>2026-05-16T07:00:18Z</time>
      </trkpt>
      <trkpt lat="43.68175" lon="7.08345">
        <ele>33.1</ele>
        <time>2026-05-16T07:00:19Z</time>
      </trkpt>
      <trkpt lat="43.68169" lon="7.08339">
        <ele>33.4</ele>
        <time>2026-05-16T07:00:20Z</time>
      </trkpt>
      <trkpt lat="43.68161" lon="7.08333">
        <ele>33.7</ele>
        <time>2026-05-16T07:00:21Z</time>
      </trkpt>
      <trkpt lat="43.68153" lon="7.08329">
        <ele>33.9</ele>
        <time>2026-05-16T07:00:22Z</time>
      </trkpt>
      <trkpt lat="43.68144" lon="7.08325">
        <ele>34.4</ele>
        <time>2026-05-16T07:00:23Z</time>
      </trkpt>
      <trkpt lat="43.68136" lon="7.08321">
        <ele>34.9</ele>
        <time>2026-05-16T07:00:24Z</time>
      </trkpt>
      <trkpt lat="43.68128" lon="7.08318">
        <ele>34.8</ele>
        <time>2026-05-16T07:00:25Z</time>
      </trkpt>
      <trkpt lat="43.6812" lon="7.08315">
        <ele>34.6</ele>
        <time>2026-05-16T07:00:26Z</time>
      </trkpt>
      <trkpt lat="43.68114" lon="7.08312">
        <ele>34.4</ele>
        <time>2026-05-16T07:00:27Z</time>
      </trkpt>
      <trkpt lat="43.68107" lon="7.08309">
        <ele>34.4</ele>
        <time>2026-05-16T07:00:28Z</time>
      </trkpt>
      <trkpt lat="43.68101" lon="7.08307">
        <ele>34.4</ele>
        <time>2026-05-16T07:00:29Z</time>
      </trkpt>
      <trkpt lat="43.68094" lon="7.08305">
        <ele>34.5</ele>
        <time>2026-05-16T07:00:30Z</time>
      </trkpt>
      <trkpt lat="43.68087" lon="7.08303">
        <ele>34.8</ele>
        <time>2026-05-16T07:00:31Z</time>
      </trkpt>
      <trkpt lat="43.6808" lon="7.08301">
        <ele>35</ele>
        <time>2026-05-16T07:00:32Z</time>
      </trkpt>
      <trkpt lat="43.68072" lon="7.08297">
        <ele>35.4</ele>
        <time>2026-05-16T07:00:33Z</time>
      </trkpt>
      <trkpt lat="43.68065" lon="7.08292">
        <ele>35.8</ele>
        <time>2026-05-16T07:00:34Z</time>
      </trkpt>
      <trkpt lat="43.68058" lon="7.08285">
        <ele>36.2</ele>
        <time>2026-05-16T07:00:35Z</time>
      </trkpt>
      <trkpt lat="43.68051" lon="7.08276">
        <ele>36.5</ele>
        <time>2026-05-16T07:00:36Z</time>
      </trkpt>
      <trkpt lat="43.68045" lon="7.08267">
        <ele>36.7</ele>
        <time>2026-05-16T07:00:37Z</time>
      </trkpt>
      <trkpt lat="43.68039" lon="7.08258">
        <ele>36.7</ele>
        <time>2026-05-16T07:00:38Z</time>
      </trkpt>
      <trkpt lat="43.68034" lon="7.08249">
        <ele>36.7</ele>
        <time>2026-05-16T07:00:39Z</time>
      </trkpt>
      <trkpt lat="43.68029" lon="7.08241">
        <ele>36.9</ele>
        <time>2026-05-16T07:00:40Z</time>
      </trkpt>
      <trkpt lat="43.68024" lon="7.08233">
        <ele>37.2</ele>
        <time>2026-05-16T07:00:41Z</time>
      </trkpt>
      <trkpt lat="43.68021" lon="7.08224">
        <ele>37.8</ele>
        <time>2026-05-16T07:00:42Z</time>
      </trkpt>
      <trkpt lat="43.68019" lon="7.08214">
        <ele>38.2</ele>
        <time>2026-05-16T07:00:43Z</time>
      </trkpt>
      <trkpt lat="43.68017" lon="7.08204">
        <ele>38.4</ele>
        <time>2026-05-16T07:00:44Z</time>
      </trkpt>
      <trkpt lat="43.68017" lon="7.08194">
        <ele>39.1</ele>
        <time>2026-05-16T07:00:45Z</time>
      </trkpt>
      <trkpt lat="43.68018" lon="7.08184">
        <ele>39.2</ele>
        <time>2026-05-16T07:00:46Z</time>
      </trkpt>
      <trkpt lat="43.68018" lon="7.08173">
        <ele>39</ele>
        <time>2026-05-16T07:00:47Z</time>
      </trkpt>
      <trkpt lat="43.68019" lon="7.08161">
        <ele>37.8</ele>
        <time>2026-05-16T07:00:48Z</time>
      </trkpt>
      <trkpt lat="43.68019" lon="7.0815">
        <ele>35.3</ele>
        <time>2026-05-16T07:00:49Z</time>
      </trkpt>
      <trkpt lat="43.6802" lon="7.08137">
        <ele>32.8</ele>
        <time>2026-05-16T07:00:50Z</time>
      </trkpt>
      <trkpt lat="43.6802" lon="7.08124">
        <ele>32.2</ele>
        <time>2026-05-16T07:00:51Z</time>
      </trkpt>
      <trkpt lat="43.68021" lon="7.08111">
        <ele>31.5</ele>
        <time>2026-05-16T07:00:52Z</time>
      </trkpt>
      <trkpt lat="43.68021" lon="7.08097">
        <ele>33.9</ele>
        <time>2026-05-16T07:00:53Z</time>
      </trkpt>
      <trkpt lat="43.68022" lon="7.08083">
        <ele>36.1</ele>
        <time>2026-05-16T07:00:54Z</time>
      </trkpt>
      <trkpt lat="43.68022" lon="7.08069">
        <ele>36.7</ele>
        <time>2026-05-16T07:00:55Z</time>
      </trkpt>
      <trkpt lat="43.68022" lon="7.08057">
        <ele>37.2</ele>
        <time>2026-05-16T07:00:56Z</time>
      </trkpt>
      <trkpt lat="43.68022" lon="7.08044">
        <ele>37</ele>
        <time>2026-05-16T07:00:57Z</time>
      </trkpt>
      <trkpt lat="43.6802" lon="7.08032">
        <ele>37.4</ele>
        <time>2026-05-16T07:00:58Z</time>
      </trkpt>
      <trkpt lat="43.68019" lon="7.08019">
        <ele>37.7</ele>
        <time>2026-05-16T07:00:59Z</time>
      </trkpt>
      <trkpt lat="43.68017" lon="7.08008">
        <ele>38.7</ele>
        <time>2026-05-16T07:01:00Z</time>
      </trkpt>
      <trkpt lat="43.68016" lon="7.07998">
        <ele>39.2</ele>
        <time>2026-05-16T07:01:01Z</time>
      </trkpt>
      <trkpt lat="43.68014" lon="7.07987">
        <ele>39.5</ele>
        <time>2026-05-16T07:01:02Z</time>
      </trkpt>
      <trkpt lat="43.68013" lon="7.07976">
        <ele>39.5</ele>
        <time>2026-05-16T07:01:03Z</time>
      </trkpt>
      <trkpt lat="43.68013" lon="7.07965">
        <ele>38.5</ele>
        <time>2026-05-16T07:01:04Z</time>
      </trkpt>
      <trkpt lat="43.68013" lon="7.07954">
        <ele>37.3</ele>
        <time>2026-05-16T07:01:05Z</time>
      </trkpt>
      <trkpt lat="43.68015" lon="7.07942">
        <ele>36.1</ele>
        <time>2026-05-16T07:01:06Z</time>
      </trkpt>
      <trkpt lat="43.68019" lon="7.0793">
        <ele>37.2</ele>
        <time>2026-05-16T07:01:07Z</time>
      </trkpt>
      <trkpt lat="43.68024" lon="7.07918">
        <ele>38.3</ele>
        <time>2026-05-16T07:01:08Z</time>
      </trkpt>
      <trkpt lat="43.68029" lon="7.07906">
        <ele>38.8</ele>
        <time>2026-05-16T07:01:09Z</time>
      </trkpt>
      <trkpt lat="43.68034" lon="7.07896">
        <ele>38.4</ele>
        <time>2026-05-16T07:01:10Z</time>
      </trkpt>
      <trkpt lat="43.68039" lon="7.07885">
        <ele>38.3</ele>
        <time>2026-05-16T07:01:11Z</time>
      </trkpt>
      <trkpt lat="43.68043" lon="7.07874">
        <ele>39.1</ele>
        <time>2026-05-16T07:01:12Z</time>
      </trkpt>
      <trkpt lat="43.68047" lon="7.07863">
        <ele>38.9</ele>
        <time>2026-05-16T07:01:13Z</time>
      </trkpt>
      <trkpt lat="43.68052" lon="7.07853">
        <ele>39</ele>
        <time>2026-05-16T07:01:14Z</time>
      </trkpt>
      <trkpt lat="43.68056" lon="7.07843">
        <ele>39.8</ele>
        <time>2026-05-16T07:01:15Z</time>
      </trkpt>
      <trkpt lat="43.68059" lon="7.07833">
        <ele>41.8</ele>
        <time>2026-05-16T07:01:16Z</time>
      </trkpt>
      <trkpt lat="43.68063" lon="7.07825">
        <ele>42.5</ele>
        <time>2026-05-16T07:01:17Z</time>
      </trkpt>
      <trkpt lat="43.68065" lon="7.07816">
        <ele>44</ele>
        <time>2026-05-16T07:01:18Z</time>
      </trkpt>
      <trkpt lat="43.68069" lon="7.07807">
        <ele>43.5</ele>
        <time>2026-05-16T07:01:19Z</time>
      </trkpt>
      <trkpt lat="43.68072" lon="7.07797">
        <ele>44.2</ele>
        <time>2026-05-16T07:01:20Z</time>
      </trkpt>
      <trkpt lat="43.68076" lon="7.07787">
        <ele>44.4</ele>
        <time>2026-05-16T07:01:21Z</time>
      </trkpt>
      <trkpt lat="43.6808" lon="7.07777">
        <ele>44.8</ele>
        <time>2026-05-16T07:01:22Z</time>
      </trkpt>
      <trkpt lat="43.68085" lon="7.07766">
        <ele>47.6</ele>
        <time>2026-05-16T07:01:23Z</time>
      </trkpt>
      <trkpt lat="43.6809" lon="7.07755">
        <ele>50.9</ele>
        <time>2026-05-16T07:01:24Z</time>
      </trkpt>
      <trkpt lat="43.68096" lon="7.07744">
        <ele>52.6</ele>
        <time>2026-05-16T07:01:25Z</time>
      </trkpt>
      <trkpt lat="43.68103" lon="7.07735">
        <ele>52.1</ele>
        <time>2026-05-16T07:01:26Z</time>
      </trkpt>
      <trkpt lat="43.68112" lon="7.07727">
        <ele>50</ele>
        <time>2026-05-16T07:01:27Z</time>
      </trkpt>
      <trkpt lat="43.68121" lon="7.07719">
        <ele>49.4</ele>
        <time>2026-05-16T07:01:28Z</time>
      </trkpt>
      <trkpt lat="43.68129" lon="7.0771">
        <ele>49.3</ele>
        <time>2026-05-16T07:01:29Z</time>
      </trkpt>
      <trkpt lat="43.68138" lon="7.07701">
        <ele>48.3</ele>
        <time>2026-05-16T07:01:30Z</time>
      </trkpt>
      <trkpt lat="43.68149" lon="7.07692">
        <ele>47.7</ele>
        <time>2026-05-16T07:01:31Z</time>
      </trkpt>
      <trkpt lat="43.68159" lon="7.07682">
        <ele>48</ele>
        <time>2026-05-16T07:01:32Z</time>
      </trkpt>
      <trkpt lat="43.6817" lon="7.07672">
        <ele>47</ele>
        <time>2026-05-16T07:01:33Z</time>
      </trkpt>
      <trkpt lat="43.6818" lon="7.07662">
        <ele>46.7</ele>
        <time>2026-05-16T07:01:34Z</time>
      </trkpt>
      <trkpt lat="43.68191" lon="7.07652">
        <ele>45.8</ele>
        <time>2026-05-16T07:01:35Z</time>
      </trkpt>
      <trkpt lat="43.68202" lon="7.07641">
        <ele>44.4</ele>
        <time>2026-05-16T07:01:36Z</time>
      </trkpt>
      <trkpt lat="43.68212" lon="7.07628">
        <ele>42.3</ele>
        <time>2026-05-16T07:01:37Z</time>
      </trkpt>
      <trkpt lat="43.6822" lon="7.07614">
        <ele>40.1</ele>
        <time>2026-05-16T07:01:38Z</time>
      </trkpt>
      <trkpt lat="43.68228" lon="7.07599">
        <ele>43.6</ele>
        <time>2026-05-16T07:01:39Z</time>
      </trkpt>
      <trkpt lat="43.68235" lon="7.07584">
        <ele>45.1</ele>
        <time>2026-05-16T07:01:40Z</time>
      </trkpt>
      <trkpt lat="43.68242" lon="7.07568">
        <ele>46.8</ele>
        <time>2026-05-16T07:01:41Z</time>
      </trkpt>
      <trkpt lat="43.68249" lon="7.07554">
        <ele>47.6</ele>
        <time>2026-05-16T07:01:42Z</time>
      </trkpt>
      <trkpt lat="43.68256" lon="7.07542">
        <ele>49</ele>
        <time>2026-05-16T07:01:43Z</time>
      </trkpt>
      <trkpt lat="43.68263" lon="7.07531">
        <ele>47.4</ele>
        <time>2026-05-16T07:01:44Z</time>
      </trkpt>
      <trkpt lat="43.68268" lon="7.07519">
        <ele>47.6</ele>
        <time>2026-05-16T07:01:45Z</time>
      </trkpt>
      <trkpt lat="43.68274" lon="7.07507">
        <ele>47.8</ele>
        <time>2026-05-16T07:01:46Z</time>
      </trkpt>
      <trkpt lat="43.6828" lon="7.07496">
        <ele>48.3</ele>
        <time>2026-05-16T07:01:47Z</time>
      </trkpt>
      <trkpt lat="43.68287" lon="7.07485">
        <ele>48</ele>
        <time>2026-05-16T07:01:48Z</time>
      </trkpt>
      <trkpt lat="43.68295" lon="7.07475">
        <ele>46.1</ele>
        <time>2026-05-16T07:01:49Z</time>
      </trkpt>
      <trkpt lat="43.68302" lon="7.07465">
        <ele>45.8</ele>
        <time>2026-05-16T07:01:50Z</time>
      </trkpt>
      <trkpt lat="43.68309" lon="7.07454">
        <ele>47.8</ele>
        <time>2026-05-16T07:01:51Z</time>
      </trkpt>
      <trkpt lat="43.68313" lon="7.07443">
        <ele>50.4</ele>
        <time>2026-05-16T07:01:52Z</time>
      </trkpt>
      <trkpt lat="43.68317" lon="7.07432">
        <ele>51.5</ele>
        <time>2026-05-16T07:01:53Z</time>
      </trkpt>
      <trkpt lat="43.68322" lon="7.07422">
        <ele>51.4</ele>
        <time>2026-05-16T07:01:54Z</time>
      </trkpt>
      <trkpt lat="43.68326" lon="7.07412">
        <ele>51.5</ele>
        <time>2026-05-16T07:01:55Z</time>
      </trkpt>
      <trkpt lat="43.68331" lon="7.07402">
        <ele>50.6</ele>
        <time>2026-05-16T07:01:56Z</time>
      </trkpt>
      <trkpt lat="43.68337" lon="7.07392">
        <ele>49.9</ele>
        <time>2026-05-16T07:01:57Z</time>
      </trkpt>
      <trkpt lat="43.68342" lon="7.07383">
        <ele>49.4</ele>
        <time>2026-05-16T07:01:58Z</time>
      </trkpt>
      <trkpt lat="43.68347" lon="7.07375">
        <ele>48.6</ele>
        <time>2026-05-16T07:01:59Z</time>
      </trkpt>
      <trkpt lat="43.68353" lon="7.07367">
        <ele>47.4</ele>
        <time>2026-05-16T07:02:00Z</time>
      </trkpt>
      <trkpt lat="43.68361" lon="7.0736">
        <ele>45.2</ele>
        <time>2026-05-16T07:02:01Z</time>
      </trkpt>
      <trkpt lat="43.68368" lon="7.07352">
        <ele>44.6</ele>
        <time>2026-05-16T07:02:02Z</time>
      </trkpt>
      <trkpt lat="43.68377" lon="7.07345">
        <ele>43.6</ele>
        <time>2026-05-16T07:02:03Z</time>
      </trkpt>
      <trkpt lat="43.68386" lon="7.07337">
        <ele>43</ele>
        <time>2026-05-16T07:02:04Z</time>
      </trkpt>
      <trkpt lat="43.68396" lon="7.0733">
        <ele>42.8</ele>
        <time>2026-05-16T07:02:05Z</time>
      </trkpt>
      <trkpt lat="43.68406" lon="7.07321">
        <ele>43.1</ele>
        <time>2026-05-16T07:02:06Z</time>
      </trkpt>
      <trkpt lat="43.68415" lon="7.07311">
        <ele>43.4</ele>
        <time>2026-05-16T07:02:07Z</time>
      </trkpt>
      <trkpt lat="43.68423" lon="7.073">
        <ele>44.2</ele>
        <time>2026-05-16T07:02:08Z</time>
      </trkpt>
      <trkpt lat="43.68433" lon="7.0729">
        <ele>44.7</ele>
        <time>2026-05-16T07:02:09Z</time>
      </trkpt>
      <trkpt lat="43.68442" lon="7.0728">
        <ele>45</ele>
        <time>2026-05-16T07:02:10Z</time>
      </trkpt>
      <trkpt lat="43.68452" lon="7.0727">
        <ele>45.4</ele>
        <time>2026-05-16T07:02:11Z</time>
      </trkpt>
      <trkpt lat="43.68462" lon="7.07262">
        <ele>45.2</ele>
        <time>2026-05-16T07:02:12Z</time>
      </trkpt>
      <trkpt lat="43.68472" lon="7.07253">
        <ele>44.6</ele>
        <time>2026-05-16T07:02:13Z</time>
      </trkpt>
      <trkpt lat="43.68484" lon="7.07244">
        <ele>44.5</ele>
        <time>2026-05-16T07:02:14Z</time>
      </trkpt>
      <trkpt lat="43.68496" lon="7.07235">
        <ele>44.4</ele>
        <time>2026-05-16T07:02:15Z</time>
      </trkpt>
      <trkpt lat="43.68507" lon="7.07226">
        <ele>44.3</ele>
        <time>2026-05-16T07:02:16Z</time>
      </trkpt>
      <trkpt lat="43.68518" lon="7.07217">
        <ele>45</ele>
        <time>2026-05-16T07:02:17Z</time>
      </trkpt>
      <trkpt lat="43.6853" lon="7.07209">
        <ele>45.6</ele>
        <time>2026-05-16T07:02:18Z</time>
      </trkpt>
      <trkpt lat="43.68541" lon="7.07202">
        <ele>46.5</ele>
        <time>2026-05-16T07:02:19Z</time>
      </trkpt>
      <trkpt lat="43.68553" lon="7.07197">
        <ele>46.6</ele>
        <time>2026-05-16T07:02:20Z</time>
      </trkpt>
      <trkpt lat="43.68565" lon="7.07194">
        <ele>43.8</ele>
        <time>2026-05-16T07:02:21Z</time>
      </trkpt>
      <trkpt lat="43.68578" lon="7.07194">
        <ele>39.1</ele>
        <time>2026-05-16T07:02:22Z</time>
      </trkpt>
      <trkpt lat="43.68592" lon="7.07199">
        <ele>36.8</ele>
        <time>2026-05-16T07:02:23Z</time>
      </trkpt>
      <trkpt lat="43.68605" lon="7.07203">
        <ele>37.3</ele>
        <time>2026-05-16T07:02:24Z</time>
      </trkpt>
      <trkpt lat="43.68619" lon="7.07207">
        <ele>38.5</ele>
        <time>2026-05-16T07:02:25Z</time>
      </trkpt>
      <trkpt lat="43.68634" lon="7.07212">
        <ele>39.7</ele>
        <time>2026-05-16T07:02:26Z</time>
      </trkpt>
      <trkpt lat="43.68648" lon="7.07216">
        <ele>40</ele>
        <time>2026-05-16T07:02:27Z</time>
      </trkpt>
      <trkpt lat="43.68663" lon="7.0722">
        <ele>40</ele>
        <time>2026-05-16T07:02:28Z</time>
      </trkpt>
      <trkpt lat="43.68677" lon="7.07225">
        <ele>40.3</ele>
        <time>2026-05-16T07:02:29Z</time>
      </trkpt>
      <trkpt lat="43.68693" lon="7.07229">
        <ele>40.7</ele>
        <time>2026-05-16T07:02:30Z</time>
      </trkpt>
      <trkpt lat="43.68708" lon="7.07234">
        <ele>41.1</ele>
        <time>2026-05-16T07:02:31Z</time>
      </trkpt>
      <trkpt lat="43.68722" lon="7.07238">
        <ele>41.4</ele>
        <time>2026-05-16T07:02:32Z</time>
      </trkpt>
      <trkpt lat="43.68737" lon="7.07243">
        <ele>41.6</ele>
        <time>2026-05-16T07:02:33Z</time>
      </trkpt>
      <trkpt lat="43.68751" lon="7.07247">
        <ele>42.1</ele>
        <time>2026-05-16T07:02:34Z</time>
      </trkpt>
      <trkpt lat="43.68764" lon="7.0725">
        <ele>43</ele>
        <time>2026-05-16T07:02:35Z</time>
      </trkpt>
      <trkpt lat="43.68778" lon="7.07254">
        <ele>44.7</ele>
        <time>2026-05-16T07:02:36Z</time>
      </trkpt>
      <trkpt lat="43.6879" lon="7.07257">
        <ele>46.5</ele>
        <time>2026-05-16T07:02:37Z</time>
      </trkpt>
      <trkpt lat="43.68803" lon="7.07261">
        <ele>48.9</ele>
        <time>2026-05-16T07:02:38Z</time>
      </trkpt>
      <trkpt lat="43.68816" lon="7.07264">
        <ele>49.8</ele>
        <time>2026-05-16T07:02:39Z</time>
      </trkpt>
      <trkpt lat="43.68829" lon="7.07267">
        <ele>50.8</ele>
        <time>2026-05-16T07:02:40Z</time>
      </trkpt>
      <trkpt lat="43.68843" lon="7.07273">
        <ele>50.5</ele>
        <time>2026-05-16T07:02:41Z</time>
      </trkpt>
      <trkpt lat="43.68856" lon="7.07282">
        <ele>50.6</ele>
        <time>2026-05-16T07:02:42Z</time>
      </trkpt>
      <trkpt lat="43.68868" lon="7.07293">
        <ele>53.1</ele>
        <time>2026-05-16T07:02:43Z</time>
      </trkpt>
      <trkpt lat="43.6888" lon="7.07304">
        <ele>53.9</ele>
        <time>2026-05-16T07:02:44Z</time>
      </trkpt>
      <trkpt lat="43.68891" lon="7.07312">
        <ele>52.4</ele>
        <time>2026-05-16T07:02:45Z</time>
      </trkpt>
      <trkpt lat="43.68903" lon="7.07317">
        <ele>49.4</ele>
        <time>2026-05-16T07:02:46Z</time>
      </trkpt>
      <trkpt lat="43.68914" lon="7.07319">
        <ele>45.5</ele>
        <time>2026-05-16T07:02:47Z</time>
      </trkpt>
      <trkpt lat="43.68927" lon="7.07311">
        <ele>46.1</ele>
        <time>2026-05-16T07:02:48Z</time>
      </trkpt>
      <trkpt lat="43.68937" lon="7.07303">
        <ele>48.8</ele>
        <time>2026-05-16T07:02:49Z</time>
      </trkpt>
      <trkpt lat="43.68946" lon="7.0729">
        <ele>52</ele>
        <time>2026-05-16T07:02:50Z</time>
      </trkpt>
      <trkpt lat="43.68952" lon="7.07274">
        <ele>55.9</ele>
        <time>2026-05-16T07:02:51Z</time>
      </trkpt>
      <trkpt lat="43.68956" lon="7.07258">
        <ele>57.5</ele>
        <time>2026-05-16T07:02:52Z</time>
      </trkpt>
      <trkpt lat="43.6896" lon="7.07239">
        <ele>58.8</ele>
        <time>2026-05-16T07:02:53Z</time>
      </trkpt>
      <trkpt lat="43.68962" lon="7.0722">
        <ele>58.6</ele>
        <time>2026-05-16T07:02:54Z</time>
      </trkpt>
      <trkpt lat="43.68963" lon="7.07199">
        <ele>58.2</ele>
        <time>2026-05-16T07:02:55Z</time>
      </trkpt>
      <trkpt lat="43.68963" lon="7.07179">
        <ele>58.8</ele>
        <time>2026-05-16T07:02:56Z</time>
      </trkpt>
      <trkpt lat="43.6896" lon="7.07157">
        <ele>58.5</ele>
        <time>2026-05-16T07:02:57Z</time>
      </trkpt>
      <trkpt lat="43.68958" lon="7.07135">
        <ele>59.1</ele>
        <time>2026-05-16T07:02:58Z</time>
      </trkpt>
      <trkpt lat="43.68956" lon="7.07114">
        <ele>59.8</ele>
        <time>2026-05-16T07:02:59Z</time>
      </trkpt>
      <trkpt lat="43.68955" lon="7.07093">
        <ele>60</ele>
        <time>2026-05-16T07:03:00Z</time>
      </trkpt>
      <trkpt lat="43.68954" lon="7.07073">
        <ele>59.7</ele>
        <time>2026-05-16T07:03:01Z</time>
      </trkpt>
      <trkpt lat="43.68953" lon="7.07053">
        <ele>59.1</ele>
        <time>2026-05-16T07:03:02Z</time>
      </trkpt>
      <trkpt lat="43.68953" lon="7.07034">
        <ele>59.1</ele>
        <time>2026-05-16T07:03:03Z</time>
      </trkpt>
      <trkpt lat="43.68952" lon="7.07014">
        <ele>58.9</ele>
        <time>2026-05-16T07:03:04Z</time>
      </trkpt>
      <trkpt lat="43.68951" lon="7.06993">
        <ele>58.7</ele>
        <time>2026-05-16T07:03:05Z</time>
      </trkpt>
      <trkpt lat="43.68951" lon="7.06973">
        <ele>58.8</ele>
        <time>2026-05-16T07:03:06Z</time>
      </trkpt>
      <trkpt lat="43.68951" lon="7.06953">
        <ele>59</ele>
        <time>2026-05-16T07:03:07Z</time>
      </trkpt>
      <trkpt lat="43.68953" lon="7.06935">
        <ele>59.4</ele>
        <time>2026-05-16T07:03:08Z</time>
      </trkpt>
      <trkpt lat="43.68956" lon="7.06918">
        <ele>59.9</ele>
        <time>2026-05-16T07:03:09Z</time>
      </trkpt>
      <trkpt lat="43.68961" lon="7.06902">
        <ele>61.3</ele>
        <time>2026-05-16T07:03:10Z</time>
      </trkpt>
      <trkpt lat="43.68966" lon="7.06886">
        <ele>62.5</ele>
        <time>2026-05-16T07:03:11Z</time>
      </trkpt>
      <trkpt lat="43.68972" lon="7.0687">
        <ele>63.2</ele>
        <time>2026-05-16T07:03:12Z</time>
      </trkpt>
      <trkpt lat="43.68978" lon="7.06854">
        <ele>64.8</ele>
        <time>2026-05-16T07:03:13Z</time>
      </trkpt>
      <trkpt lat="43.68983" lon="7.06839">
        <ele>65.5</ele>
        <time>2026-05-16T07:03:14Z</time>
      </trkpt>
      <trkpt lat="43.68988" lon="7.06825">
        <ele>66.1</ele>
        <time>2026-05-16T07:03:15Z</time>
      </trkpt>
      <trkpt lat="43.68992" lon="7.06812">
        <ele>66.1</ele>
        <time>2026-05-16T07:03:16Z</time>
      </trkpt>
      <trkpt lat="43.68995" lon="7.06798">
        <ele>66.5</ele>
        <time>2026-05-16T07:03:17Z</time>
      </trkpt>
      <trkpt lat="43.68996" lon="7.06783">
        <ele>66.7</ele>
        <time>2026-05-16T07:03:18Z</time>
      </trkpt>
      <trkpt lat="43.68994" lon="7.06768">
        <ele>66.9</ele>
        <time>2026-05-16T07:03:19Z</time>
      </trkpt>
      <trkpt lat="43.68989" lon="7.06753">
        <ele>65.7</ele>
        <time>2026-05-16T07:03:20Z</time>
      </trkpt>
      <trkpt lat="43.68983" lon="7.06741">
        <ele>63.3</ele>
        <time>2026-05-16T07:03:21Z</time>
      </trkpt>
      <trkpt lat="43.68978" lon="7.0673">
        <ele>62</ele>
        <time>2026-05-16T07:03:22Z</time>
      </trkpt>
      <trkpt lat="43.68973" lon="7.06719">
        <ele>60.6</ele>
        <time>2026-05-16T07:03:23Z</time>
      </trkpt>
      <trkpt lat="43.68971" lon="7.06708">
        <ele>60</ele>
        <time>2026-05-16T07:03:24Z</time>
      </trkpt>
      <trkpt lat="43.68971" lon="7.06697">
        <ele>60.5</ele>
        <time>2026-05-16T07:03:25Z</time>
      </trkpt>
      <trkpt lat="43.68975" lon="7.06685">
        <ele>60.8</ele>
        <time>2026-05-16T07:03:26Z</time>
      </trkpt>
      <trkpt lat="43.68979" lon="7.06674">
        <ele>60.2</ele>
        <time>2026-05-16T07:03:27Z</time>
      </trkpt>
      <trkpt lat="43.68986" lon="7.06666">
        <ele>59.8</ele>
        <time>2026-05-16T07:03:28Z</time>
      </trkpt>
      <trkpt lat="43.68995" lon="7.06665">
        <ele>60.8</ele>
        <time>2026-05-16T07:03:29Z</time>
      </trkpt>
      <trkpt lat="43.6901" lon="7.06673">
        <ele>65</ele>
        <time>2026-05-16T07:03:30Z</time>
      </trkpt>
      <trkpt lat="43.69022" lon="7.06676">
        <ele>67.2</ele>
        <time>2026-05-16T07:03:31Z</time>
      </trkpt>
      <trkpt lat="43.69035" lon="7.06677">
        <ele>68.8</ele>
        <time>2026-05-16T07:03:32Z</time>
      </trkpt>
      <trkpt lat="43.69049" lon="7.06676">
        <ele>69.2</ele>
        <time>2026-05-16T07:03:33Z</time>
      </trkpt>
      <trkpt lat="43.69062" lon="7.06675">
        <ele>69.9</ele>
        <time>2026-05-16T07:03:34Z</time>
      </trkpt>
      <trkpt lat="43.69076" lon="7.06673">
        <ele>70.3</ele>
        <time>2026-05-16T07:03:35Z</time>
      </trkpt>
      <trkpt lat="43.6909" lon="7.06671">
        <ele>70.3</ele>
        <time>2026-05-16T07:03:36Z</time>
      </trkpt>
      <trkpt lat="43.69105" lon="7.06668">
        <ele>69.5</ele>
        <time>2026-05-16T07:03:37Z</time>
      </trkpt>
      <trkpt lat="43.6912" lon="7.06666">
        <ele>69.7</ele>
        <time>2026-05-16T07:03:38Z</time>
      </trkpt>
      <trkpt lat="43.69135" lon="7.06663">
        <ele>69.9</ele>
        <time>2026-05-16T07:03:39Z</time>
      </trkpt>
      <trkpt lat="43.69149" lon="7.0666">
        <ele>70.2</ele>
        <time>2026-05-16T07:03:40Z</time>
      </trkpt>
      <trkpt lat="43.69163" lon="7.06658">
        <ele>71.1</ele>
        <time>2026-05-16T07:03:41Z</time>
      </trkpt>
      <trkpt lat="43.69177" lon="7.06655">
        <ele>71.3</ele>
        <time>2026-05-16T07:03:42Z</time>
      </trkpt>
      <trkpt lat="43.69191" lon="7.06652">
        <ele>71.2</ele>
        <time>2026-05-16T07:03:43Z</time>
      </trkpt>
      <trkpt lat="43.69205" lon="7.0665">
        <ele>71.5</ele>
        <time>2026-05-16T07:03:44Z</time>
      </trkpt>
      <trkpt lat="43.69219" lon="7.06649">
        <ele>72.2</ele>
        <time>2026-05-16T07:03:45Z</time>
      </trkpt>
      <trkpt lat="43.69232" lon="7.06647">
        <ele>71.8</ele>
        <time>2026-05-16T07:03:46Z</time>
      </trkpt>
      <trkpt lat="43.69244" lon="7.06645">
        <ele>71.1</ele>
        <time>2026-05-16T07:03:47Z</time>
      </trkpt>
      <trkpt lat="43.69255" lon="7.06642">
        <ele>69.2</ele>
        <time>2026-05-16T07:03:48Z</time>
      </trkpt>
      <trkpt lat="43.69266" lon="7.0664">
        <ele>67.8</ele>
        <time>2026-05-16T07:03:49Z</time>
      </trkpt>
      <trkpt lat="43.69277" lon="7.06642">
        <ele>69.2</ele>
        <time>2026-05-16T07:03:50Z</time>
      </trkpt>
      <trkpt lat="43.69288" lon="7.06648">
        <ele>74.3</ele>
        <time>2026-05-16T07:03:51Z</time>
      </trkpt>
      <trkpt lat="43.69299" lon="7.06652">
        <ele>78</ele>
        <time>2026-05-16T07:03:52Z</time>
      </trkpt>
      <trkpt lat="43.6931" lon="7.06651">
        <ele>78.8</ele>
        <time>2026-05-16T07:03:53Z</time>
      </trkpt>
      <trkpt lat="43.69321" lon="7.06647">
        <ele>78.3</ele>
        <time>2026-05-16T07:03:54Z</time>
      </trkpt>
      <trkpt lat="43.69333" lon="7.06642">
        <ele>76.6</ele>
        <time>2026-05-16T07:03:55Z</time>
      </trkpt>
      <trkpt lat="43.69345" lon="7.06638">
        <ele>76.4</ele>
        <time>2026-05-16T07:03:56Z</time>
      </trkpt>
      <trkpt lat="43.69357" lon="7.06634">
        <ele>77</ele>
        <time>2026-05-16T07:03:57Z</time>
      </trkpt>
      <trkpt lat="43.69369" lon="7.06627">
        <ele>77.9</ele>
        <time>2026-05-16T07:03:58Z</time>
      </trkpt>
      <trkpt lat="43.69379" lon="7.06617">
        <ele>77.6</ele>
        <time>2026-05-16T07:03:59Z</time>
      </trkpt>
      <trkpt lat="43.69387" lon="7.06603">
        <ele>75.8</ele>
        <time>2026-05-16T07:04:00Z</time>
      </trkpt>
      <trkpt lat="43.69392" lon="7.06587">
        <ele>72.9</ele>
        <time>2026-05-16T07:04:01Z</time>
      </trkpt>
      <trkpt lat="43.69396" lon="7.0657">
        <ele>71.9</ele>
        <time>2026-05-16T07:04:02Z</time>
      </trkpt>
      <trkpt lat="43.69399" lon="7.06553">
        <ele>70.7</ele>
        <time>2026-05-16T07:04:03Z</time>
      </trkpt>
      <trkpt lat="43.69402" lon="7.06536">
        <ele>71.2</ele>
        <time>2026-05-16T07:04:04Z</time>
      </trkpt>
      <trkpt lat="43.69406" lon="7.06519">
        <ele>72.8</ele>
        <time>2026-05-16T07:04:05Z</time>
      </trkpt>
      <trkpt lat="43.69407" lon="7.06501">
        <ele>72.8</ele>
        <time>2026-05-16T07:04:06Z</time>
      </trkpt>
      <trkpt lat="43.69408" lon="7.06482">
        <ele>74.3</ele>
        <time>2026-05-16T07:04:07Z</time>
      </trkpt>
      <trkpt lat="43.69408" lon="7.06463">
        <ele>75.1</ele>
        <time>2026-05-16T07:04:08Z</time>
      </trkpt>
      <trkpt lat="43.69409" lon="7.06442">
        <ele>76.6</ele>
        <time>2026-05-16T07:04:09Z</time>
      </trkpt>
      <trkpt lat="43.69409" lon="7.06422">
        <ele>77.3</ele>
        <time>2026-05-16T07:04:10Z</time>
      </trkpt>
      <trkpt lat="43.69407" lon="7.06401">
        <ele>76.6</ele>
        <time>2026-05-16T07:04:11Z</time>
      </trkpt>
      <trkpt lat="43.69406" lon="7.06381">
        <ele>76.8</ele>
        <time>2026-05-16T07:04:12Z</time>
      </trkpt>
      <trkpt lat="43.69405" lon="7.06362">
        <ele>77.1</ele>
        <time>2026-05-16T07:04:13Z</time>
      </trkpt>
      <trkpt lat="43.69404" lon="7.06344">
        <ele>76.4</ele>
        <time>2026-05-16T07:04:14Z</time>
      </trkpt>
      <trkpt lat="43.69404" lon="7.06326">
        <ele>76.4</ele>
        <time>2026-05-16T07:04:15Z</time>
      </trkpt>
      <trkpt lat="43.69403" lon="7.06309">
        <ele>75.7</ele>
        <time>2026-05-16T07:04:16Z</time>
      </trkpt>
      <trkpt lat="43.69402" lon="7.06293">
        <ele>74.7</ele>
        <time>2026-05-16T07:04:17Z</time>
      </trkpt>
      <trkpt lat="43.69403" lon="7.06278">
        <ele>75.2</ele>
        <time>2026-05-16T07:04:18Z</time>
      </trkpt>
      <trkpt lat="43.69405" lon="7.06263">
        <ele>76.5</ele>
        <time>2026-05-16T07:04:19Z</time>
      </trkpt>
      <trkpt lat="43.69406" lon="7.06248">
        <ele>77</ele>
        <time>2026-05-16T07:04:20Z</time>
      </trkpt>
      <trkpt lat="43.69409" lon="7.06235">
        <ele>78</ele>
        <time>2026-05-16T07:04:21Z</time>
      </trkpt>
      <trkpt lat="43.69411" lon="7.06222">
        <ele>78.1</ele>
        <time>2026-05-16T07:04:22Z</time>
      </trkpt>
      <trkpt lat="43.69413" lon="7.06211">
        <ele>78.2</ele>
        <time>2026-05-16T07:04:23Z</time>
      </trkpt>
      <trkpt lat="43.69417" lon="7.06201">
        <ele>78.8</ele>
        <time>2026-05-16T07:04:24Z</time>
      </trkpt>
      <trkpt lat="43.69423" lon="7.06191">
        <ele>78.3</ele>
        <time>2026-05-16T07:04:25Z</time>
      </trkpt>
      <trkpt lat="43.69429" lon="7.06183">
        <ele>77.7</ele>
        <time>2026-05-16T07:04:26Z</time>
      </trkpt>
      <trkpt lat="43.69441" lon="7.06184">
        <ele>78.8</ele>
        <time>2026-05-16T07:04:27Z</time>
      </trkpt>
      <trkpt lat="43.69451" lon="7.06187">
        <ele>77.5</ele>
        <time>2026-05-16T07:04:28Z</time>
      </trkpt>
      <trkpt lat="43.69459" lon="7.06195">
        <ele>76.4</ele>
        <time>2026-05-16T07:04:29Z</time>
      </trkpt>
      <trkpt lat="43.69463" lon="7.06206">
        <ele>76.4</ele>
        <time>2026-05-16T07:04:30Z</time>
      </trkpt>
      <trkpt lat="43.69464" lon="7.0622">
        <ele>77.6</ele>
        <time>2026-05-16T07:04:31Z</time>
      </trkpt>
      <trkpt lat="43.69464" lon="7.06233">
        <ele>79.6</ele>
        <time>2026-05-16T07:04:32Z</time>
      </trkpt>
      <trkpt lat="43.69465" lon="7.06247">
        <ele>81.4</ele>
        <time>2026-05-16T07:04:33Z</time>
      </trkpt>
      <trkpt lat="43.69467" lon="7.06261">
        <ele>83.8</ele>
        <time>2026-05-16T07:04:34Z</time>
      </trkpt>
      <trkpt lat="43.69471" lon="7.06275">
        <ele>85.7</ele>
        <time>2026-05-16T07:04:35Z</time>
      </trkpt>
      <trkpt lat="43.69475" lon="7.0629">
        <ele>87.5</ele>
        <time>2026-05-16T07:04:36Z</time>
      </trkpt>
      <trkpt lat="43.69478" lon="7.06304">
        <ele>89.8</ele>
        <time>2026-05-16T07:04:37Z</time>
      </trkpt>
      <trkpt lat="43.69483" lon="7.06317">
        <ele>91.1</ele>
        <time>2026-05-16T07:04:38Z</time>
      </trkpt>
      <trkpt lat="43.69492" lon="7.06326">
        <ele>89.7</ele>
        <time>2026-05-16T07:04:39Z</time>
      </trkpt>
      <trkpt lat="43.695" lon="7.06335">
        <ele>90</ele>
        <time>2026-05-16T07:04:40Z</time>
      </trkpt>
      <trkpt lat="43.69515" lon="7.06339">
        <ele>86.9</ele>
        <time>2026-05-16T07:04:41Z</time>
      </trkpt>
      <trkpt lat="43.69528" lon="7.06344">
        <ele>85.1</ele>
        <time>2026-05-16T07:04:42Z</time>
      </trkpt>
      <trkpt lat="43.69542" lon="7.06347">
        <ele>83.5</ele>
        <time>2026-05-16T07:04:43Z</time>
      </trkpt>
      <trkpt lat="43.69557" lon="7.06349">
        <ele>81.4</ele>
        <time>2026-05-16T07:04:44Z</time>
      </trkpt>
      <trkpt lat="43.69573" lon="7.06349">
        <ele>80.2</ele>
        <time>2026-05-16T07:04:45Z</time>
      </trkpt>
      <trkpt lat="43.69589" lon="7.06348">
        <ele>79</ele>
        <time>2026-05-16T07:04:46Z</time>
      </trkpt>
      <trkpt lat="43.69605" lon="7.06347">
        <ele>78.8</ele>
        <time>2026-05-16T07:04:47Z</time>
      </trkpt>
      <trkpt lat="43.6962" lon="7.06346">
        <ele>78.6</ele>
        <time>2026-05-16T07:04:48Z</time>
      </trkpt>
      <trkpt lat="43.69636" lon="7.06345">
        <ele>78.4</ele>
        <time>2026-05-16T07:04:49Z</time>
      </trkpt>
      <trkpt lat="43.69651" lon="7.06344">
        <ele>77.9</ele>
        <time>2026-05-16T07:04:50Z</time>
      </trkpt>
      <trkpt lat="43.69665" lon="7.06344">
        <ele>77.8</ele>
        <time>2026-05-16T07:04:51Z</time>
      </trkpt>
      <trkpt lat="43.6968" lon="7.06341">
        <ele>77.8</ele>
        <time>2026-05-16T07:04:52Z</time>
      </trkpt>
      <trkpt lat="43.69693" lon="7.06333">
        <ele>76.8</ele>
        <time>2026-05-16T07:04:53Z</time>
      </trkpt>
      <trkpt lat="43.69706" lon="7.06321">
        <ele>77.7</ele>
        <time>2026-05-16T07:04:54Z</time>
      </trkpt>
      <trkpt lat="43.69718" lon="7.06308">
        <ele>77.5</ele>
        <time>2026-05-16T07:04:55Z</time>
      </trkpt>
      <trkpt lat="43.6973" lon="7.06293">
        <ele>79.8</ele>
        <time>2026-05-16T07:04:56Z</time>
      </trkpt>
      <trkpt lat="43.69741" lon="7.06275">
        <ele>81.2</ele>
        <time>2026-05-16T07:04:57Z</time>
      </trkpt>
      <trkpt lat="43.69752" lon="7.06256">
        <ele>82.6</ele>
        <time>2026-05-16T07:04:58Z</time>
      </trkpt>
      <trkpt lat="43.69761" lon="7.06235">
        <ele>83.6</ele>
        <time>2026-05-16T07:04:59Z</time>
      </trkpt>
      <trkpt lat="43.69768" lon="7.06212">
        <ele>81.9</ele>
        <time>2026-05-16T07:05:00Z</time>
      </trkpt>
      <trkpt lat="43.69773" lon="7.06189">
        <ele>80.4</ele>
        <time>2026-05-16T07:05:01Z</time>
      </trkpt>
      <trkpt lat="43.69776" lon="7.06166">
        <ele>81.1</ele>
        <time>2026-05-16T07:05:02Z</time>
      </trkpt>
      <trkpt lat="43.69776" lon="7.06143">
        <ele>81.9</ele>
        <time>2026-05-16T07:05:03Z</time>
      </trkpt>
      <trkpt lat="43.69774" lon="7.06121">
        <ele>83.9</ele>
        <time>2026-05-16T07:05:04Z</time>
      </trkpt>
      <trkpt lat="43.69769" lon="7.06099">
        <ele>84.8</ele>
        <time>2026-05-16T07:05:05Z</time>
      </trkpt>
      <trkpt lat="43.69763" lon="7.06079">
        <ele>84.2</ele>
        <time>2026-05-16T07:05:06Z</time>
      </trkpt>
      <trkpt lat="43.69755" lon="7.06061">
        <ele>81.8</ele>
        <time>2026-05-16T07:05:07Z</time>
      </trkpt>
      <trkpt lat="43.69745" lon="7.06044">
        <ele>81.1</ele>
        <time>2026-05-16T07:05:08Z</time>
      </trkpt>
      <trkpt lat="43.69735" lon="7.06027">
        <ele>82.9</ele>
        <time>2026-05-16T07:05:09Z</time>
      </trkpt>
      <trkpt lat="43.69726" lon="7.06015">
        <ele>85.1</ele>
        <time>2026-05-16T07:05:10Z</time>
      </trkpt>
      <trkpt lat="43.69717" lon="7.06008">
        <ele>84.9</ele>
        <time>2026-05-16T07:05:11Z</time>
      </trkpt>
      <trkpt lat="43.69707" lon="7.06002">
        <ele>83.5</ele>
        <time>2026-05-16T07:05:12Z</time>
      </trkpt>
      <trkpt lat="43.69698" lon="7.05997">
        <ele>81.6</ele>
        <time>2026-05-16T07:05:13Z</time>
      </trkpt>
      <trkpt lat="43.69691" lon="7.0599">
        <ele>80.8</ele>
        <time>2026-05-16T07:05:14Z</time>
      </trkpt>
      <trkpt lat="43.69684" lon="7.05983">
        <ele>79.9</ele>
        <time>2026-05-16T07:05:15Z</time>
      </trkpt>
      <trkpt lat="43.69678" lon="7.05977">
        <ele>79</ele>
        <time>2026-05-16T07:05:16Z</time>
      </trkpt>
      <trkpt lat="43.69678" lon="7.05965">
        <ele>80.8</ele>
        <time>2026-05-16T07:05:17Z</time>
      </trkpt>
      <trkpt lat="43.69678" lon="7.05955">
        <ele>81.4</ele>
        <time>2026-05-16T07:05:18Z</time>
      </trkpt>
      <trkpt lat="43.69683" lon="7.05939">
        <ele>84.2</ele>
        <time>2026-05-16T07:05:19Z</time>
      </trkpt>
      <trkpt lat="43.69687" lon="7.05924">
        <ele>84.8</ele>
        <time>2026-05-16T07:05:20Z</time>
      </trkpt>
      <trkpt lat="43.69692" lon="7.05908">
        <ele>85.2</ele>
        <time>2026-05-16T07:05:21Z</time>
      </trkpt>
      <trkpt lat="43.69696" lon="7.05892">
        <ele>84.7</ele>
        <time>2026-05-16T07:05:22Z</time>
      </trkpt>
      <trkpt lat="43.697" lon="7.05875">
        <ele>84.6</ele>
        <time>2026-05-16T07:05:23Z</time>
      </trkpt>
      <trkpt lat="43.69706" lon="7.05859">
        <ele>85.1</ele>
        <time>2026-05-16T07:05:24Z</time>
      </trkpt>
      <trkpt lat="43.69715" lon="7.05844">
        <ele>86.2</ele>
        <time>2026-05-16T07:05:25Z</time>
      </trkpt>
      <trkpt lat="43.69723" lon="7.05828">
        <ele>86.1</ele>
        <time>2026-05-16T07:05:26Z</time>
      </trkpt>
      <trkpt lat="43.69732" lon="7.05812">
        <ele>86.8</ele>
        <time>2026-05-16T07:05:27Z</time>
      </trkpt>
      <trkpt lat="43.6974" lon="7.05795">
        <ele>85.7</ele>
        <time>2026-05-16T07:05:28Z</time>
      </trkpt>
      <trkpt lat="43.69749" lon="7.05778">
        <ele>84.6</ele>
        <time>2026-05-16T07:05:29Z</time>
      </trkpt>
      <trkpt lat="43.69757" lon="7.05762">
        <ele>84.7</ele>
        <time>2026-05-16T07:05:30Z</time>
      </trkpt>
      <trkpt lat="43.69764" lon="7.05745">
        <ele>84.6</ele>
        <time>2026-05-16T07:05:31Z</time>
      </trkpt>
      <trkpt lat="43.69769" lon="7.05727">
        <ele>84.8</ele>
        <time>2026-05-16T07:05:32Z</time>
      </trkpt>
      <trkpt lat="43.69772" lon="7.05708">
        <ele>85.5</ele>
        <time>2026-05-16T07:05:33Z</time>
      </trkpt>
      <trkpt lat="43.69773" lon="7.05688">
        <ele>85.4</ele>
        <time>2026-05-16T07:05:34Z</time>
      </trkpt>
      <trkpt lat="43.69772" lon="7.05667">
        <ele>84.6</ele>
        <time>2026-05-16T07:05:35Z</time>
      </trkpt>
      <trkpt lat="43.69771" lon="7.05647">
        <ele>85.8</ele>
        <time>2026-05-16T07:05:36Z</time>
      </trkpt>
      <trkpt lat="43.69767" lon="7.05628">
        <ele>85.1</ele>
        <time>2026-05-16T07:05:37Z</time>
      </trkpt>
      <trkpt lat="43.69762" lon="7.0561">
        <ele>83.7</ele>
        <time>2026-05-16T07:05:38Z</time>
      </trkpt>
      <trkpt lat="43.69756" lon="7.05594">
        <ele>83</ele>
        <time>2026-05-16T07:05:39Z</time>
      </trkpt>
      <trkpt lat="43.69748" lon="7.05577">
        <ele>82.4</ele>
        <time>2026-05-16T07:05:40Z</time>
      </trkpt>
      <trkpt lat="43.69741" lon="7.05561">
        <ele>82.8</ele>
        <time>2026-05-16T07:05:41Z</time>
      </trkpt>
      <trkpt lat="43.69734" lon="7.05544">
        <ele>81.7</ele>
        <time>2026-05-16T07:05:42Z</time>
      </trkpt>
      <trkpt lat="43.69727" lon="7.05527">
        <ele>80.6</ele>
        <time>2026-05-16T07:05:43Z</time>
      </trkpt>
      <trkpt lat="43.6972" lon="7.0551">
        <ele>80.9</ele>
        <time>2026-05-16T07:05:44Z</time>
      </trkpt>
      <trkpt lat="43.69715" lon="7.05492">
        <ele>82.8</ele>
        <time>2026-05-16T07:05:45Z</time>
      </trkpt>
      <trkpt lat="43.69709" lon="7.05476">
        <ele>82</ele>
        <time>2026-05-16T07:05:46Z</time>
      </trkpt>
      <trkpt lat="43.69703" lon="7.0546">
        <ele>81.7</ele>
        <time>2026-05-16T07:05:47Z</time>
      </trkpt>
      <trkpt lat="43.69697" lon="7.05446">
        <ele>81.4</ele>
        <time>2026-05-16T07:05:48Z</time>
      </trkpt>
      <trkpt lat="43.6969" lon="7.05432">
        <ele>82.8</ele>
        <time>2026-05-16T07:05:49Z</time>
      </trkpt>
      <trkpt lat="43.69683" lon="7.05418">
        <ele>82.8</ele>
        <time>2026-05-16T07:05:50Z</time>
      </trkpt>
      <trkpt lat="43.69675" lon="7.05403">
        <ele>82</ele>
        <time>2026-05-16T07:05:51Z</time>
      </trkpt>
      <trkpt lat="43.69668" lon="7.05389">
        <ele>81.8</ele>
        <time>2026-05-16T07:05:52Z</time>
      </trkpt>
      <trkpt lat="43.69661" lon="7.05375">
        <ele>82</ele>
        <time>2026-05-16T07:05:53Z</time>
      </trkpt>
      <trkpt lat="43.69655" lon="7.05364">
        <ele>81.2</ele>
        <time>2026-05-16T07:05:54Z</time>
      </trkpt>
      <trkpt lat="43.69651" lon="7.05354">
        <ele>79.7</ele>
        <time>2026-05-16T07:05:55Z</time>
      </trkpt>
      <trkpt lat="43.69649" lon="7.05344">
        <ele>78.9</ele>
        <time>2026-05-16T07:05:56Z</time>
      </trkpt>
      <trkpt lat="43.69649" lon="7.05334">
        <ele>79</ele>
        <time>2026-05-16T07:05:57Z</time>
      </trkpt>
      <trkpt lat="43.6965" lon="7.05325">
        <ele>78.1</ele>
        <time>2026-05-16T07:05:58Z</time>
      </trkpt>
      <trkpt lat="43.69654" lon="7.05318">
        <ele>78</ele>
        <time>2026-05-16T07:05:59Z</time>
      </trkpt>
      <trkpt lat="43.69659" lon="7.05315">
        <ele>78.5</ele>
        <time>2026-05-16T07:06:00Z</time>
      </trkpt>
      <trkpt lat="43.69675" lon="7.05325">
        <ele>84.1</ele>
        <time>2026-05-16T07:06:01Z</time>
      </trkpt>
      <trkpt lat="43.69688" lon="7.0533">
        <ele>87.6</ele>
        <time>2026-05-16T07:06:02Z</time>
      </trkpt>
      <trkpt lat="43.69701" lon="7.05332">
        <ele>89.8</ele>
        <time>2026-05-16T07:06:03Z</time>
      </trkpt>
      <trkpt lat="43.69714" lon="7.05334">
        <ele>91.7</ele>
        <time>2026-05-16T07:06:04Z</time>
      </trkpt>
      <trkpt lat="43.69728" lon="7.05332">
        <ele>92.6</ele>
        <time>2026-05-16T07:06:05Z</time>
      </trkpt>
      <trkpt lat="43.69741" lon="7.05327">
        <ele>93</ele>
        <time>2026-05-16T07:06:06Z</time>
      </trkpt>
      <trkpt lat="43.69755" lon="7.05321">
        <ele>93.9</ele>
        <time>2026-05-16T07:06:07Z</time>
      </trkpt>
      <trkpt lat="43.69768" lon="7.05314">
        <ele>95.2</ele>
        <time>2026-05-16T07:06:08Z</time>
      </trkpt>
      <trkpt lat="43.6978" lon="7.05307">
        <ele>96.7</ele>
        <time>2026-05-16T07:06:09Z</time>
      </trkpt>
      <trkpt lat="43.69791" lon="7.05297">
        <ele>97.5</ele>
        <time>2026-05-16T07:06:10Z</time>
      </trkpt>
      <trkpt lat="43.698" lon="7.05285">
        <ele>97.4</ele>
        <time>2026-05-16T07:06:11Z</time>
      </trkpt>
      <trkpt lat="43.69807" lon="7.0527">
        <ele>96.2</ele>
        <time>2026-05-16T07:06:12Z</time>
      </trkpt>
      <trkpt lat="43.69814" lon="7.05253">
        <ele>95.4</ele>
        <time>2026-05-16T07:06:13Z</time>
      </trkpt>
      <trkpt lat="43.69819" lon="7.05235">
        <ele>94.1</ele>
        <time>2026-05-16T07:06:14Z</time>
      </trkpt>
      <trkpt lat="43.69822" lon="7.05217">
        <ele>92.5</ele>
        <time>2026-05-16T07:06:15Z</time>
      </trkpt>
      <trkpt lat="43.69822" lon="7.05199">
        <ele>91.5</ele>
        <time>2026-05-16T07:06:16Z</time>
      </trkpt>
      <trkpt lat="43.69818" lon="7.05182">
        <ele>91</ele>
        <time>2026-05-16T07:06:17Z</time>
      </trkpt>
      <trkpt lat="43.69813" lon="7.05166">
        <ele>90.6</ele>
        <time>2026-05-16T07:06:18Z</time>
      </trkpt>
      <trkpt lat="43.69805" lon="7.05151">
        <ele>89.8</ele>
        <time>2026-05-16T07:06:19Z</time>
      </trkpt>
      <trkpt lat="43.69795" lon="7.05138">
        <ele>89.1</ele>
        <time>2026-05-16T07:06:20Z</time>
      </trkpt>
      <trkpt lat="43.69784" lon="7.05126">
        <ele>89</ele>
        <time>2026-05-16T07:06:21Z</time>
      </trkpt>
      <trkpt lat="43.6977" lon="7.05118">
        <ele>87.7</ele>
        <time>2026-05-16T07:06:22Z</time>
      </trkpt>
      <trkpt lat="43.69757" lon="7.05111">
        <ele>86.3</ele>
        <time>2026-05-16T07:06:23Z</time>
      </trkpt>
      <trkpt lat="43.69746" lon="7.05105">
        <ele>84.7</ele>
        <time>2026-05-16T07:06:24Z</time>
      </trkpt>
      <trkpt lat="43.69737" lon="7.05097">
        <ele>84.1</ele>
        <time>2026-05-16T07:06:25Z</time>
      </trkpt>
      <trkpt lat="43.69731" lon="7.05088">
        <ele>84.2</ele>
        <time>2026-05-16T07:06:26Z</time>
      </trkpt>
      <trkpt lat="43.69728" lon="7.05078">
        <ele>84.6</ele>
        <time>2026-05-16T07:06:27Z</time>
      </trkpt>
      <trkpt lat="43.69727" lon="7.05068">
        <ele>85.1</ele>
        <time>2026-05-16T07:06:28Z</time>
      </trkpt>
      <trkpt lat="43.69728" lon="7.05056">
        <ele>86.7</ele>
        <time>2026-05-16T07:06:29Z</time>
      </trkpt>
      <trkpt lat="43.69733" lon="7.05044">
        <ele>87.9</ele>
        <time>2026-05-16T07:06:30Z</time>
      </trkpt>
      <trkpt lat="43.69741" lon="7.05033">
        <ele>91.2</ele>
        <time>2026-05-16T07:06:31Z</time>
      </trkpt>
      <trkpt lat="43.6975" lon="7.05021">
        <ele>94.3</ele>
        <time>2026-05-16T07:06:32Z</time>
      </trkpt>
      <trkpt lat="43.69758" lon="7.05008">
        <ele>96.4</ele>
        <time>2026-05-16T07:06:33Z</time>
      </trkpt>
      <trkpt lat="43.69767" lon="7.04993">
        <ele>98.3</ele>
        <time>2026-05-16T07:06:34Z</time>
      </trkpt>
      <trkpt lat="43.69776" lon="7.04978">
        <ele>99.6</ele>
        <time>2026-05-16T07:06:35Z</time>
      </trkpt>
      <trkpt lat="43.69784" lon="7.04962">
        <ele>99.5</ele>
        <time>2026-05-16T07:06:36Z</time>
      </trkpt>
      <trkpt lat="43.69791" lon="7.04944">
        <ele>97.3</ele>
        <time>2026-05-16T07:06:37Z</time>
      </trkpt>
      <trkpt lat="43.69796" lon="7.04924">
        <ele>95.6</ele>
        <time>2026-05-16T07:06:38Z</time>
      </trkpt>
      <trkpt lat="43.69799" lon="7.04903">
        <ele>94</ele>
        <time>2026-05-16T07:06:39Z</time>
      </trkpt>
      <trkpt lat="43.69801" lon="7.04881">
        <ele>92.7</ele>
        <time>2026-05-16T07:06:40Z</time>
      </trkpt>
      <trkpt lat="43.69803" lon="7.04858">
        <ele>91.6</ele>
        <time>2026-05-16T07:06:41Z</time>
      </trkpt>
      <trkpt lat="43.69804" lon="7.04836">
        <ele>90.6</ele>
        <time>2026-05-16T07:06:42Z</time>
      </trkpt>
      <trkpt lat="43.69805" lon="7.04814">
        <ele>90.8</ele>
        <time>2026-05-16T07:06:43Z</time>
      </trkpt>
      <trkpt lat="43.69807" lon="7.04792">
        <ele>91.9</ele>
        <time>2026-05-16T07:06:44Z</time>
      </trkpt>
      <trkpt lat="43.6981" lon="7.04771">
        <ele>93.7</ele>
        <time>2026-05-16T07:06:45Z</time>
      </trkpt>
      <trkpt lat="43.69815" lon="7.0475">
        <ele>96.4</ele>
        <time>2026-05-16T07:06:46Z</time>
      </trkpt>
      <trkpt lat="43.6982" lon="7.04731">
        <ele>94.9</ele>
        <time>2026-05-16T07:06:47Z</time>
      </trkpt>
      <trkpt lat="43.69826" lon="7.04711">
        <ele>95.5</ele>
        <time>2026-05-16T07:06:48Z</time>
      </trkpt>
      <trkpt lat="43.69834" lon="7.04694">
        <ele>97.3</ele>
        <time>2026-05-16T07:06:49Z</time>
      </trkpt>
      <trkpt lat="43.69844" lon="7.04678">
        <ele>99.8</ele>
        <time>2026-05-16T07:06:50Z</time>
      </trkpt>
      <trkpt lat="43.69853" lon="7.04661">
        <ele>101.2</ele>
        <time>2026-05-16T07:06:51Z</time>
      </trkpt>
      <trkpt lat="43.69862" lon="7.04643">
        <ele>102.7</ele>
        <time>2026-05-16T07:06:52Z</time>
      </trkpt>
      <trkpt lat="43.69869" lon="7.04624">
        <ele>102.7</ele>
        <time>2026-05-16T07:06:53Z</time>
      </trkpt>
      <trkpt lat="43.69874" lon="7.04604">
        <ele>100.3</ele>
        <time>2026-05-16T07:06:54Z</time>
      </trkpt>
      <trkpt lat="43.69878" lon="7.04584">
        <ele>97.3</ele>
        <time>2026-05-16T07:06:55Z</time>
      </trkpt>
      <trkpt lat="43.69883" lon="7.04566">
        <ele>97.3</ele>
        <time>2026-05-16T07:06:56Z</time>
      </trkpt>
      <trkpt lat="43.69889" lon="7.04551">
        <ele>96.9</ele>
        <time>2026-05-16T07:06:57Z</time>
      </trkpt>
      <trkpt lat="43.69898" lon="7.04537">
        <ele>95.8</ele>
        <time>2026-05-16T07:06:58Z</time>
      </trkpt>
      <trkpt lat="43.69908" lon="7.04523">
        <ele>97.1</ele>
        <time>2026-05-16T07:06:59Z</time>
      </trkpt>
      <trkpt lat="43.69918" lon="7.04508">
        <ele>98.2</ele>
        <time>2026-05-16T07:07:00Z</time>
      </trkpt>
      <trkpt lat="43.69927" lon="7.04491">
        <ele>96.6</ele>
        <time>2026-05-16T07:07:01Z</time>
      </trkpt>
      <trkpt lat="43.69937" lon="7.04474">
        <ele>96.3</ele>
        <time>2026-05-16T07:07:02Z</time>
      </trkpt>
      <trkpt lat="43.69946" lon="7.04458">
        <ele>96.4</ele>
        <time>2026-05-16T07:07:03Z</time>
      </trkpt>
      <trkpt lat="43.69954" lon="7.04442">
        <ele>94.9</ele>
        <time>2026-05-16T07:07:04Z</time>
      </trkpt>
      <trkpt lat="43.69961" lon="7.04424">
        <ele>94.8</ele>
        <time>2026-05-16T07:07:05Z</time>
      </trkpt>
      <trkpt lat="43.69965" lon="7.04405">
        <ele>96.9</ele>
        <time>2026-05-16T07:07:06Z</time>
      </trkpt>
      <trkpt lat="43.69969" lon="7.04384">
        <ele>100.9</ele>
        <time>2026-05-16T07:07:07Z</time>
      </trkpt>
      <trkpt lat="43.69973" lon="7.04362">
        <ele>102.8</ele>
        <time>2026-05-16T07:07:08Z</time>
      </trkpt>
      <trkpt lat="43.69976" lon="7.04339">
        <ele>102.1</ele>
        <time>2026-05-16T07:07:09Z</time>
      </trkpt>
      <trkpt lat="43.6998" lon="7.04317">
        <ele>104.2</ele>
        <time>2026-05-16T07:07:10Z</time>
      </trkpt>
      <trkpt lat="43.69983" lon="7.04296">
        <ele>105.6</ele>
        <time>2026-05-16T07:07:11Z</time>
      </trkpt>
      <trkpt lat="43.69986" lon="7.04276">
        <ele>106.6</ele>
        <time>2026-05-16T07:07:12Z</time>
      </trkpt>
      <trkpt lat="43.69987" lon="7.04258">
        <ele>104.8</ele>
        <time>2026-05-16T07:07:13Z</time>
      </trkpt>
      <trkpt lat="43.69986" lon="7.04239">
        <ele>101.4</ele>
        <time>2026-05-16T07:07:14Z</time>
      </trkpt>
      <trkpt lat="43.69982" lon="7.0422">
        <ele>97.1</ele>
        <time>2026-05-16T07:07:15Z</time>
      </trkpt>
      <trkpt lat="43.69977" lon="7.04202">
        <ele>96</ele>
        <time>2026-05-16T07:07:16Z</time>
      </trkpt>
      <trkpt lat="43.69972" lon="7.04184">
        <ele>96.6</ele>
        <time>2026-05-16T07:07:17Z</time>
      </trkpt>
      <trkpt lat="43.69967" lon="7.04165">
        <ele>99.9</ele>
        <time>2026-05-16T07:07:18Z</time>
      </trkpt>
      <trkpt lat="43.69963" lon="7.04147">
        <ele>102.4</ele>
        <time>2026-05-16T07:07:19Z</time>
      </trkpt>
      <trkpt lat="43.6996" lon="7.0413">
        <ele>102.3</ele>
        <time>2026-05-16T07:07:20Z</time>
      </trkpt>
      <trkpt lat="43.69961" lon="7.04114">
        <ele>103.3</ele>
        <time>2026-05-16T07:07:21Z</time>
      </trkpt>
      <trkpt lat="43.69963" lon="7.04098">
        <ele>103.4</ele>
        <time>2026-05-16T07:07:22Z</time>
      </trkpt>
      <trkpt lat="43.69971" lon="7.04085">
        <ele>105.8</ele>
        <time>2026-05-16T07:07:23Z</time>
      </trkpt>
      <trkpt lat="43.69979" lon="7.04072">
        <ele>106.3</ele>
        <time>2026-05-16T07:07:24Z</time>
      </trkpt>
      <trkpt lat="43.69988" lon="7.04057">
        <ele>106.7</ele>
        <time>2026-05-16T07:07:25Z</time>
      </trkpt>
      <trkpt lat="43.69997" lon="7.04042">
        <ele>107.2</ele>
        <time>2026-05-16T07:07:26Z</time>
      </trkpt>
      <trkpt lat="43.70006" lon="7.04026">
        <ele>107.7</ele>
        <time>2026-05-16T07:07:27Z</time>
      </trkpt>
      <trkpt lat="43.70015" lon="7.04009">
        <ele>107.7</ele>
        <time>2026-05-16T07:07:28Z</time>
      </trkpt>
      <trkpt lat="43.70024" lon="7.03991">
        <ele>107.9</ele>
        <time>2026-05-16T07:07:29Z</time>
      </trkpt>
      <trkpt lat="43.70033" lon="7.03973">
        <ele>108.2</ele>
        <time>2026-05-16T07:07:30Z</time>
      </trkpt>
      <trkpt lat="43.70041" lon="7.03954">
        <ele>108</ele>
        <time>2026-05-16T07:07:31Z</time>
      </trkpt>
      <trkpt lat="43.70049" lon="7.03935">
        <ele>108.3</ele>
        <time>2026-05-16T07:07:32Z</time>
      </trkpt>
      <trkpt lat="43.70055" lon="7.03914">
        <ele>107.2</ele>
        <time>2026-05-16T07:07:33Z</time>
      </trkpt>
      <trkpt lat="43.7006" lon="7.03892">
        <ele>106</ele>
        <time>2026-05-16T07:07:34Z</time>
      </trkpt>
      <trkpt lat="43.70065" lon="7.0387">
        <ele>105.6</ele>
        <time>2026-05-16T07:07:35Z</time>
      </trkpt>
      <trkpt lat="43.70068" lon="7.03847">
        <ele>105.7</ele>
        <time>2026-05-16T07:07:36Z</time>
      </trkpt>
      <trkpt lat="43.70069" lon="7.03825">
        <ele>105.8</ele>
        <time>2026-05-16T07:07:37Z</time>
      </trkpt>
      <trkpt lat="43.70071" lon="7.03804">
        <ele>107.9</ele>
        <time>2026-05-16T07:07:38Z</time>
      </trkpt>
      <trkpt lat="43.70072" lon="7.03783">
        <ele>108.5</ele>
        <time>2026-05-16T07:07:39Z</time>
      </trkpt>
      <trkpt lat="43.70076" lon="7.03762">
        <ele>109.8</ele>
        <time>2026-05-16T07:07:40Z</time>
      </trkpt>
      <trkpt lat="43.7008" lon="7.03742">
        <ele>110.8</ele>
        <time>2026-05-16T07:07:41Z</time>
      </trkpt>
      <trkpt lat="43.70082" lon="7.03721">
        <ele>112.1</ele>
        <time>2026-05-16T07:07:42Z</time>
      </trkpt>
      <trkpt lat="43.70084" lon="7.037">
        <ele>113</ele>
        <time>2026-05-16T07:07:43Z</time>
      </trkpt>
      <trkpt lat="43.70083" lon="7.03681">
        <ele>112.3</ele>
        <time>2026-05-16T07:07:44Z</time>
      </trkpt>
      <trkpt lat="43.7008" lon="7.03659">
        <ele>112.1</ele>
        <time>2026-05-16T07:07:45Z</time>
      </trkpt>
      <trkpt lat="43.70076" lon="7.0364">
        <ele>112.4</ele>
        <time>2026-05-16T07:07:46Z</time>
      </trkpt>
      <trkpt lat="43.70068" lon="7.03627">
        <ele>108.3</ele>
        <time>2026-05-16T07:07:47Z</time>
      </trkpt>
      <trkpt lat="43.70067" lon="7.03612">
        <ele>108.5</ele>
        <time>2026-05-16T07:07:48Z</time>
      </trkpt>
      <trkpt lat="43.7007" lon="7.03598">
        <ele>108.6</ele>
        <time>2026-05-16T07:07:49Z</time>
      </trkpt>
      <trkpt lat="43.70075" lon="7.03584">
        <ele>109.2</ele>
        <time>2026-05-16T07:07:50Z</time>
      </trkpt>
      <trkpt lat="43.70082" lon="7.0357">
        <ele>110.1</ele>
        <time>2026-05-16T07:07:51Z</time>
      </trkpt>
      <trkpt lat="43.7009" lon="7.03555">
        <ele>112</ele>
        <time>2026-05-16T07:07:52Z</time>
      </trkpt>
      <trkpt lat="43.70097" lon="7.03537">
        <ele>114</ele>
        <time>2026-05-16T07:07:53Z</time>
      </trkpt>
      <trkpt lat="43.70103" lon="7.03519">
        <ele>117</ele>
        <time>2026-05-16T07:07:54Z</time>
      </trkpt>
      <trkpt lat="43.70109" lon="7.035">
        <ele>119.6</ele>
        <time>2026-05-16T07:07:55Z</time>
      </trkpt>
      <trkpt lat="43.70114" lon="7.0348">
        <ele>122.1</ele>
        <time>2026-05-16T07:07:56Z</time>
      </trkpt>
      <trkpt lat="43.70116" lon="7.0346">
        <ele>121.6</ele>
        <time>2026-05-16T07:07:57Z</time>
      </trkpt>
      <trkpt lat="43.70116" lon="7.03439">
        <ele>119.1</ele>
        <time>2026-05-16T07:07:58Z</time>
      </trkpt>
      <trkpt lat="43.70111" lon="7.03416">
        <ele>114</ele>
        <time>2026-05-16T07:07:59Z</time>
      </trkpt>
      <trkpt lat="43.7011" lon="7.03394">
        <ele>114.6</ele>
        <time>2026-05-16T07:08:00Z</time>
      </trkpt>
      <trkpt lat="43.70108" lon="7.03373">
        <ele>115</ele>
        <time>2026-05-16T07:08:01Z</time>
      </trkpt>
      <trkpt lat="43.70106" lon="7.03352">
        <ele>115.2</ele>
        <time>2026-05-16T07:08:02Z</time>
      </trkpt>
      <trkpt lat="43.70103" lon="7.0333">
        <ele>114.5</ele>
        <time>2026-05-16T07:08:03Z</time>
      </trkpt>
      <trkpt lat="43.70096" lon="7.0331">
        <ele>111.6</ele>
        <time>2026-05-16T07:08:04Z</time>
      </trkpt>
      <trkpt lat="43.70093" lon="7.03288">
        <ele>111.7</ele>
        <time>2026-05-16T07:08:05Z</time>
      </trkpt>
      <trkpt lat="43.70089" lon="7.03268">
        <ele>111.8</ele>
        <time>2026-05-16T07:08:06Z</time>
      </trkpt>
      <trkpt lat="43.70085" lon="7.03247">
        <ele>112.3</ele>
        <time>2026-05-16T07:08:07Z</time>
      </trkpt>
      <trkpt lat="43.7008" lon="7.03225">
        <ele>113.4</ele>
        <time>2026-05-16T07:08:08Z</time>
      </trkpt>
      <trkpt lat="43.70077" lon="7.03203">
        <ele>114.1</ele>
        <time>2026-05-16T07:08:09Z</time>
      </trkpt>
      <trkpt lat="43.70074" lon="7.03181">
        <ele>114.9</ele>
        <time>2026-05-16T07:08:10Z</time>
      </trkpt>
      <trkpt lat="43.70071" lon="7.03159">
        <ele>115.8</ele>
        <time>2026-05-16T07:08:11Z</time>
      </trkpt>
      <trkpt lat="43.70068" lon="7.03137">
        <ele>116.2</ele>
        <time>2026-05-16T07:08:12Z</time>
      </trkpt>
      <trkpt lat="43.70064" lon="7.03115">
        <ele>115.2</ele>
        <time>2026-05-16T07:08:13Z</time>
      </trkpt>
      <trkpt lat="43.7006" lon="7.03094">
        <ele>114.6</ele>
        <time>2026-05-16T07:08:14Z</time>
      </trkpt>
      <trkpt lat="43.70055" lon="7.03072">
        <ele>113.6</ele>
        <time>2026-05-16T07:08:15Z</time>
      </trkpt>
      <trkpt lat="43.70049" lon="7.03053">
        <ele>112.7</ele>
        <time>2026-05-16T07:08:16Z</time>
      </trkpt>
      <trkpt lat="43.70043" lon="7.03034">
        <ele>112.1</ele>
        <time>2026-05-16T07:08:17Z</time>
      </trkpt>
      <trkpt lat="43.70038" lon="7.03014">
        <ele>111.8</ele>
        <time>2026-05-16T07:08:18Z</time>
      </trkpt>
      <trkpt lat="43.70034" lon="7.02994">
        <ele>112.1</ele>
        <time>2026-05-16T07:08:19Z</time>
      </trkpt>
      <trkpt lat="43.70031" lon="7.02974">
        <ele>112.3</ele>
        <time>2026-05-16T07:08:20Z</time>
      </trkpt>
      <trkpt lat="43.70029" lon="7.02955">
        <ele>112.1</ele>
        <time>2026-05-16T07:08:21Z</time>
      </trkpt>
      <trkpt lat="43.7003" lon="7.02936">
        <ele>112.7</ele>
        <time>2026-05-16T07:08:22Z</time>
      </trkpt>
      <trkpt lat="43.70031" lon="7.02915">
        <ele>112.4</ele>
        <time>2026-05-16T07:08:23Z</time>
      </trkpt>
      <trkpt lat="43.70035" lon="7.02895">
        <ele>113.6</ele>
        <time>2026-05-16T07:08:24Z</time>
      </trkpt>
      <trkpt lat="43.70038" lon="7.02875">
        <ele>115</ele>
        <time>2026-05-16T07:08:25Z</time>
      </trkpt>
      <trkpt lat="43.7004" lon="7.02856">
        <ele>116.5</ele>
        <time>2026-05-16T07:08:26Z</time>
      </trkpt>
      <trkpt lat="43.70039" lon="7.02838">
        <ele>117.3</ele>
        <time>2026-05-16T07:08:27Z</time>
      </trkpt>
      <trkpt lat="43.70037" lon="7.02819">
        <ele>117.9</ele>
        <time>2026-05-16T07:08:28Z</time>
      </trkpt>
      <trkpt lat="43.70033" lon="7.028">
        <ele>117.8</ele>
        <time>2026-05-16T07:08:29Z</time>
      </trkpt>
      <trkpt lat="43.70017" lon="7.0279">
        <ele>114.1</ele>
        <time>2026-05-16T07:08:30Z</time>
      </trkpt>
      <trkpt lat="43.70006" lon="7.02774">
        <ele>113.3</ele>
        <time>2026-05-16T07:08:31Z</time>
      </trkpt>
      <trkpt lat="43.69995" lon="7.02759">
        <ele>114.4</ele>
        <time>2026-05-16T07:08:32Z</time>
      </trkpt>
      <trkpt lat="43.69983" lon="7.02744">
        <ele>115</ele>
        <time>2026-05-16T07:08:33Z</time>
      </trkpt>
      <trkpt lat="43.6997" lon="7.0273">
        <ele>115.7</ele>
        <time>2026-05-16T07:08:34Z</time>
      </trkpt>
      <trkpt lat="43.69957" lon="7.02716">
        <ele>116</ele>
        <time>2026-05-16T07:08:35Z</time>
      </trkpt>
      <trkpt lat="43.69945" lon="7.02701">
        <ele>116.5</ele>
        <time>2026-05-16T07:08:36Z</time>
      </trkpt>
      <trkpt lat="43.69932" lon="7.02685">
        <ele>116.9</ele>
        <time>2026-05-16T07:08:37Z</time>
      </trkpt>
      <trkpt lat="43.69921" lon="7.02669">
        <ele>117</ele>
        <time>2026-05-16T07:08:38Z</time>
      </trkpt>
      <trkpt lat="43.69911" lon="7.02653">
        <ele>118.1</ele>
        <time>2026-05-16T07:08:39Z</time>
      </trkpt>
      <trkpt lat="43.69902" lon="7.02634">
        <ele>118.7</ele>
        <time>2026-05-16T07:08:40Z</time>
      </trkpt>
      <trkpt lat="43.69893" lon="7.02617">
        <ele>118</ele>
        <time>2026-05-16T07:08:41Z</time>
      </trkpt>
      <trkpt lat="43.69885" lon="7.02599">
        <ele>118.3</ele>
        <time>2026-05-16T07:08:42Z</time>
      </trkpt>
      <trkpt lat="43.69878" lon="7.0258">
        <ele>118.6</ele>
        <time>2026-05-16T07:08:43Z</time>
      </trkpt>
      <trkpt lat="43.69871" lon="7.02561">
        <ele>118.5</ele>
        <time>2026-05-16T07:08:44Z</time>
      </trkpt>
      <trkpt lat="43.69865" lon="7.02542">
        <ele>118.7</ele>
        <time>2026-05-16T07:08:45Z</time>
      </trkpt>
      <trkpt lat="43.69858" lon="7.02522">
        <ele>119.1</ele>
        <time>2026-05-16T07:08:46Z</time>
      </trkpt>
      <trkpt lat="43.69852" lon="7.02503">
        <ele>120.3</ele>
        <time>2026-05-16T07:08:47Z</time>
      </trkpt>
      <trkpt lat="43.69846" lon="7.02484">
        <ele>121.1</ele>
        <time>2026-05-16T07:08:48Z</time>
      </trkpt>
      <trkpt lat="43.69841" lon="7.02466">
        <ele>121.1</ele>
        <time>2026-05-16T07:08:49Z</time>
      </trkpt>
      <trkpt lat="43.69836" lon="7.02449">
        <ele>120</ele>
        <time>2026-05-16T07:08:50Z</time>
      </trkpt>
      <trkpt lat="43.69831" lon="7.02432">
        <ele>119.3</ele>
        <time>2026-05-16T07:08:51Z</time>
      </trkpt>
      <trkpt lat="43.69826" lon="7.02416">
        <ele>118.6</ele>
        <time>2026-05-16T07:08:52Z</time>
      </trkpt>
      <trkpt lat="43.69822" lon="7.024">
        <ele>117.9</ele>
        <time>2026-05-16T07:08:53Z</time>
      </trkpt>
      <trkpt lat="43.69818" lon="7.02383">
        <ele>117.4</ele>
        <time>2026-05-16T07:08:54Z</time>
      </trkpt>
      <trkpt lat="43.69814" lon="7.02364">
        <ele>117.3</ele>
        <time>2026-05-16T07:08:55Z</time>
      </trkpt>
      <trkpt lat="43.69812" lon="7.02345">
        <ele>118.9</ele>
        <time>2026-05-16T07:08:56Z</time>
      </trkpt>
      <trkpt lat="43.69812" lon="7.02324">
        <ele>121.2</ele>
        <time>2026-05-16T07:08:57Z</time>
      </trkpt>
      <trkpt lat="43.69814" lon="7.02302">
        <ele>123.1</ele>
        <time>2026-05-16T07:08:58Z</time>
      </trkpt>
      <trkpt lat="43.69818" lon="7.02281">
        <ele>124.3</ele>
        <time>2026-05-16T07:08:59Z</time>
      </trkpt>
      <trkpt lat="43.69822" lon="7.02262">
        <ele>124.8</ele>
        <time>2026-05-16T07:09:00Z</time>
      </trkpt>
      <trkpt lat="43.69827" lon="7.02243">
        <ele>126.2</ele>
        <time>2026-05-16T07:09:01Z</time>
      </trkpt>
      <trkpt lat="43.6983" lon="7.02223">
        <ele>128.1</ele>
        <time>2026-05-16T07:09:02Z</time>
      </trkpt>
      <trkpt lat="43.69831" lon="7.02202">
        <ele>129</ele>
        <time>2026-05-16T07:09:03Z</time>
      </trkpt>
      <trkpt lat="43.6983" lon="7.02181">
        <ele>128.1</ele>
        <time>2026-05-16T07:09:04Z</time>
      </trkpt>
      <trkpt lat="43.69828" lon="7.02159">
        <ele>126.7</ele>
        <time>2026-05-16T07:09:05Z</time>
      </trkpt>
      <trkpt lat="43.69823" lon="7.02137">
        <ele>124.8</ele>
        <time>2026-05-16T07:09:06Z</time>
      </trkpt>
      <trkpt lat="43.69819" lon="7.02116">
        <ele>125</ele>
        <time>2026-05-16T07:09:07Z</time>
      </trkpt>
      <trkpt lat="43.69815" lon="7.02096">
        <ele>125.6</ele>
        <time>2026-05-16T07:09:08Z</time>
      </trkpt>
      <trkpt lat="43.69811" lon="7.02077">
        <ele>126.3</ele>
        <time>2026-05-16T07:09:09Z</time>
      </trkpt>
      <trkpt lat="43.69807" lon="7.02058">
        <ele>126.5</ele>
        <time>2026-05-16T07:09:10Z</time>
      </trkpt>
      <trkpt lat="43.69804" lon="7.02038">
        <ele>127.4</ele>
        <time>2026-05-16T07:09:11Z</time>
      </trkpt>
      <trkpt lat="43.69801" lon="7.02019">
        <ele>127.7</ele>
        <time>2026-05-16T07:09:12Z</time>
      </trkpt>
      <trkpt lat="43.69798" lon="7.01999">
        <ele>127.6</ele>
        <time>2026-05-16T07:09:13Z</time>
      </trkpt>
      <trkpt lat="43.69796" lon="7.01978">
        <ele>127.2</ele>
        <time>2026-05-16T07:09:14Z</time>
      </trkpt>
      <trkpt lat="43.69793" lon="7.01957">
        <ele>126.4</ele>
        <time>2026-05-16T07:09:15Z</time>
      </trkpt>
      <trkpt lat="43.6979" lon="7.01936">
        <ele>125.9</ele>
        <time>2026-05-16T07:09:16Z</time>
      </trkpt>
      <trkpt lat="43.69788" lon="7.01915">
        <ele>126.4</ele>
        <time>2026-05-16T07:09:17Z</time>
      </trkpt>
      <trkpt lat="43.69784" lon="7.01894">
        <ele>126</ele>
        <time>2026-05-16T07:09:18Z</time>
      </trkpt>
      <trkpt lat="43.69782" lon="7.01873">
        <ele>126.7</ele>
        <time>2026-05-16T07:09:19Z</time>
      </trkpt>
      <trkpt lat="43.6978" lon="7.01851">
        <ele>127.8</ele>
        <time>2026-05-16T07:09:20Z</time>
      </trkpt>
      <trkpt lat="43.69779" lon="7.01829">
        <ele>129.5</ele>
        <time>2026-05-16T07:09:21Z</time>
      </trkpt>
      <trkpt lat="43.69779" lon="7.01807">
        <ele>130.3</ele>
        <time>2026-05-16T07:09:22Z</time>
      </trkpt>
      <trkpt lat="43.69781" lon="7.01787">
        <ele>130.9</ele>
        <time>2026-05-16T07:09:23Z</time>
      </trkpt>
      <trkpt lat="43.69784" lon="7.01768">
        <ele>131.4</ele>
        <time>2026-05-16T07:09:24Z</time>
      </trkpt>
      <trkpt lat="43.6979" lon="7.01749">
        <ele>132.4</ele>
        <time>2026-05-16T07:09:25Z</time>
      </trkpt>
      <trkpt lat="43.69797" lon="7.01732">
        <ele>133</ele>
        <time>2026-05-16T07:09:26Z</time>
      </trkpt>
      <trkpt lat="43.69806" lon="7.01716">
        <ele>134.5</ele>
        <time>2026-05-16T07:09:27Z</time>
      </trkpt>
      <trkpt lat="43.69815" lon="7.017">
        <ele>136.3</ele>
        <time>2026-05-16T07:09:28Z</time>
      </trkpt>
      <trkpt lat="43.69822" lon="7.01683">
        <ele>137.9</ele>
        <time>2026-05-16T07:09:29Z</time>
      </trkpt>
      <trkpt lat="43.69826" lon="7.01663">
        <ele>138.7</ele>
        <time>2026-05-16T07:09:30Z</time>
      </trkpt>
      <trkpt lat="43.69829" lon="7.01644">
        <ele>139.7</ele>
        <time>2026-05-16T07:09:31Z</time>
      </trkpt>
      <trkpt lat="43.69829" lon="7.01622">
        <ele>139</ele>
        <time>2026-05-16T07:09:32Z</time>
      </trkpt>
      <trkpt lat="43.6983" lon="7.01601">
        <ele>139.1</ele>
        <time>2026-05-16T07:09:33Z</time>
      </trkpt>
      <trkpt lat="43.69831" lon="7.01581">
        <ele>139.7</ele>
        <time>2026-05-16T07:09:34Z</time>
      </trkpt>
      <trkpt lat="43.69832" lon="7.01561">
        <ele>141</ele>
        <time>2026-05-16T07:09:35Z</time>
      </trkpt>
      <trkpt lat="43.69832" lon="7.01541">
        <ele>141.3</ele>
        <time>2026-05-16T07:09:36Z</time>
      </trkpt>
      <trkpt lat="43.69833" lon="7.01521">
        <ele>141.8</ele>
        <time>2026-05-16T07:09:37Z</time>
      </trkpt>
      <trkpt lat="43.69834" lon="7.01502">
        <ele>142.3</ele>
        <time>2026-05-16T07:09:38Z</time>
      </trkpt>
      <trkpt lat="43.69836" lon="7.01485">
        <ele>142.8</ele>
        <time>2026-05-16T07:09:39Z</time>
      </trkpt>
      <trkpt lat="43.69837" lon="7.01468">
        <ele>142.7</ele>
        <time>2026-05-16T07:09:40Z</time>
      </trkpt>
      <trkpt lat="43.69839" lon="7.01452">
        <ele>142.8</ele>
        <time>2026-05-16T07:09:41Z</time>
      </trkpt>
      <trkpt lat="43.6984" lon="7.01436">
        <ele>142.4</ele>
        <time>2026-05-16T07:09:42Z</time>
      </trkpt>
      <trkpt lat="43.69841" lon="7.01419">
        <ele>141.6</ele>
        <time>2026-05-16T07:09:43Z</time>
      </trkpt>
      <trkpt lat="43.69841" lon="7.01401">
        <ele>141.5</ele>
        <time>2026-05-16T07:09:44Z</time>
      </trkpt>
      <trkpt lat="43.69841" lon="7.01383">
        <ele>141.6</ele>
        <time>2026-05-16T07:09:45Z</time>
      </trkpt>
      <trkpt lat="43.69841" lon="7.01366">
        <ele>141.9</ele>
        <time>2026-05-16T07:09:46Z</time>
      </trkpt>
      <trkpt lat="43.69841" lon="7.01349">
        <ele>142.2</ele>
        <time>2026-05-16T07:09:47Z</time>
      </trkpt>
      <trkpt lat="43.69842" lon="7.01333">
        <ele>142.7</ele>
        <time>2026-05-16T07:09:48Z</time>
      </trkpt>
      <trkpt lat="43.69844" lon="7.01315">
        <ele>143.2</ele>
        <time>2026-05-16T07:09:49Z</time>
      </trkpt>
      <trkpt lat="43.69848" lon="7.01297">
        <ele>144.4</ele>
        <time>2026-05-16T07:09:50Z</time>
      </trkpt>
      <trkpt lat="43.69852" lon="7.01278">
        <ele>145.1</ele>
        <time>2026-05-16T07:09:51Z</time>
      </trkpt>
      <trkpt lat="43.69856" lon="7.01259">
        <ele>145.6</ele>
        <time>2026-05-16T07:09:52Z</time>
      </trkpt>
      <trkpt lat="43.69861" lon="7.01238">
        <ele>145.7</ele>
        <time>2026-05-16T07:09:53Z</time>
      </trkpt>
      <trkpt lat="43.69866" lon="7.01217">
        <ele>146.1</ele>
        <time>2026-05-16T07:09:54Z</time>
      </trkpt>
      <trkpt lat="43.6987" lon="7.01197">
        <ele>146.4</ele>
        <time>2026-05-16T07:09:55Z</time>
      </trkpt>
      <trkpt lat="43.69874" lon="7.01178">
        <ele>147.2</ele>
        <time>2026-05-16T07:09:56Z</time>
      </trkpt>
      <trkpt lat="43.69878" lon="7.0116">
        <ele>148</ele>
        <time>2026-05-16T07:09:57Z</time>
      </trkpt>
      <trkpt lat="43.69882" lon="7.01141">
        <ele>148.6</ele>
        <time>2026-05-16T07:09:58Z</time>
      </trkpt>
      <trkpt lat="43.69887" lon="7.01123">
        <ele>149.8</ele>
        <time>2026-05-16T07:09:59Z</time>
      </trkpt>
      <trkpt lat="43.69891" lon="7.01106">
        <ele>150.8</ele>
        <time>2026-05-16T07:10:00Z</time>
      </trkpt>
      <trkpt lat="43.69894" lon="7.01088">
        <ele>151.1</ele>
        <time>2026-05-16T07:10:01Z</time>
      </trkpt>
      <trkpt lat="43.69896" lon="7.0107">
        <ele>150.5</ele>
        <time>2026-05-16T07:10:02Z</time>
      </trkpt>
      <trkpt lat="43.69896" lon="7.0105">
        <ele>149.2</ele>
        <time>2026-05-16T07:10:03Z</time>
      </trkpt>
      <trkpt lat="43.69894" lon="7.01031">
        <ele>148.3</ele>
        <time>2026-05-16T07:10:04Z</time>
      </trkpt>
      <trkpt lat="43.69891" lon="7.01012">
        <ele>148.1</ele>
        <time>2026-05-16T07:10:05Z</time>
      </trkpt>
      <trkpt lat="43.69888" lon="7.00992">
        <ele>148.1</ele>
        <time>2026-05-16T07:10:06Z</time>
      </trkpt>
      <trkpt lat="43.69886" lon="7.00973">
        <ele>148.5</ele>
        <time>2026-05-16T07:10:07Z</time>
      </trkpt>
      <trkpt lat="43.69886" lon="7.00953">
        <ele>149.1</ele>
        <time>2026-05-16T07:10:08Z</time>
      </trkpt>
      <trkpt lat="43.69887" lon="7.00934">
        <ele>149.2</ele>
        <time>2026-05-16T07:10:09Z</time>
      </trkpt>
      <trkpt lat="43.69891" lon="7.00916">
        <ele>149.4</ele>
        <time>2026-05-16T07:10:10Z</time>
      </trkpt>
      <trkpt lat="43.69897" lon="7.00899">
        <ele>149.8</ele>
        <time>2026-05-16T07:10:11Z</time>
      </trkpt>
      <trkpt lat="43.69904" lon="7.00882">
        <ele>150.1</ele>
        <time>2026-05-16T07:10:12Z</time>
      </trkpt>
      <trkpt lat="43.69911" lon="7.00865">
        <ele>149.6</ele>
        <time>2026-05-16T07:10:13Z</time>
      </trkpt>
      <trkpt lat="43.69918" lon="7.00849">
        <ele>149.3</ele>
        <time>2026-05-16T07:10:14Z</time>
      </trkpt>
      <trkpt lat="43.69926" lon="7.00834">
        <ele>149.4</ele>
        <time>2026-05-16T07:10:15Z</time>
      </trkpt>
      <trkpt lat="43.69934" lon="7.00821">
        <ele>149.3</ele>
        <time>2026-05-16T07:10:16Z</time>
      </trkpt>
      <trkpt lat="43.69944" lon="7.00808">
        <ele>149.2</ele>
        <time>2026-05-16T07:10:17Z</time>
      </trkpt>
      <trkpt lat="43.69955" lon="7.00796">
        <ele>149.1</ele>
        <time>2026-05-16T07:10:18Z</time>
      </trkpt>
      <trkpt lat="43.69967" lon="7.00786">
        <ele>149.3</ele>
        <time>2026-05-16T07:10:19Z</time>
      </trkpt>
      <trkpt lat="43.69978" lon="7.00777">
        <ele>149.5</ele>
        <time>2026-05-16T07:10:20Z</time>
      </trkpt>
      <trkpt lat="43.69989" lon="7.00767">
        <ele>149.9</ele>
        <time>2026-05-16T07:10:21Z</time>
      </trkpt>
      <trkpt lat="43.69999" lon="7.00753">
        <ele>150.1</ele>
        <time>2026-05-16T07:10:22Z</time>
      </trkpt>
      <trkpt lat="43.70006" lon="7.00738">
        <ele>151.1</ele>
        <time>2026-05-16T07:10:23Z</time>
      </trkpt>
      <trkpt lat="43.70013" lon="7.0072">
        <ele>151.9</ele>
        <time>2026-05-16T07:10:24Z</time>
      </trkpt>
      <trkpt lat="43.70019" lon="7.00701">
        <ele>151.7</ele>
        <time>2026-05-16T07:10:25Z</time>
      </trkpt>
      <trkpt lat="43.70026" lon="7.00683">
        <ele>151.8</ele>
        <time>2026-05-16T07:10:26Z</time>
      </trkpt>
      <trkpt lat="43.70033" lon="7.00665">
        <ele>151.7</ele>
        <time>2026-05-16T07:10:27Z</time>
      </trkpt>
      <trkpt lat="43.70041" lon="7.00648">
        <ele>151.2</ele>
        <time>2026-05-16T07:10:28Z</time>
      </trkpt>
      <trkpt lat="43.7005" lon="7.00632">
        <ele>151.7</ele>
        <time>2026-05-16T07:10:29Z</time>
      </trkpt>
      <trkpt lat="43.70059" lon="7.00616">
        <ele>151.7</ele>
        <time>2026-05-16T07:10:30Z</time>
      </trkpt>
      <trkpt lat="43.70068" lon="7.006">
        <ele>150.9</ele>
        <time>2026-05-16T07:10:31Z</time>
      </trkpt>
      <trkpt lat="43.70077" lon="7.00586">
        <ele>150.7</ele>
        <time>2026-05-16T07:10:32Z</time>
      </trkpt>
      <trkpt lat="43.70086" lon="7.00571">
        <ele>150.6</ele>
        <time>2026-05-16T07:10:33Z</time>
      </trkpt>
      <trkpt lat="43.70095" lon="7.00558">
        <ele>150.8</ele>
        <time>2026-05-16T07:10:34Z</time>
      </trkpt>
      <trkpt lat="43.70103" lon="7.00545">
        <ele>150.8</ele>
        <time>2026-05-16T07:10:35Z</time>
      </trkpt>
      <trkpt lat="43.70111" lon="7.00532">
        <ele>150.7</ele>
        <time>2026-05-16T07:10:36Z</time>
      </trkpt>
      <trkpt lat="43.7012" lon="7.00518">
        <ele>152.2</ele>
        <time>2026-05-16T07:10:37Z</time>
      </trkpt>
      <trkpt lat="43.70128" lon="7.00504">
        <ele>153.1</ele>
        <time>2026-05-16T07:10:38Z</time>
      </trkpt>
      <trkpt lat="43.70138" lon="7.0049">
        <ele>153.2</ele>
        <time>2026-05-16T07:10:39Z</time>
      </trkpt>
      <trkpt lat="43.70147" lon="7.00476">
        <ele>152</ele>
        <time>2026-05-16T07:10:40Z</time>
      </trkpt>
      <trkpt lat="43.70156" lon="7.0046">
        <ele>151.6</ele>
        <time>2026-05-16T07:10:41Z</time>
      </trkpt>
      <trkpt lat="43.70165" lon="7.00444">
        <ele>151.5</ele>
        <time>2026-05-16T07:10:42Z</time>
      </trkpt>
      <trkpt lat="43.70174" lon="7.00428">
        <ele>152.3</ele>
        <time>2026-05-16T07:10:43Z</time>
      </trkpt>
      <trkpt lat="43.70182" lon="7.0041">
        <ele>152.5</ele>
        <time>2026-05-16T07:10:44Z</time>
      </trkpt>
      <trkpt lat="43.70191" lon="7.00393">
        <ele>152.7</ele>
        <time>2026-05-16T07:10:45Z</time>
      </trkpt>
      <trkpt lat="43.70199" lon="7.00377">
        <ele>152.3</ele>
        <time>2026-05-16T07:10:46Z</time>
      </trkpt>
      <trkpt lat="43.70207" lon="7.00361">
        <ele>151.7</ele>
        <time>2026-05-16T07:10:47Z</time>
      </trkpt>
      <trkpt lat="43.70214" lon="7.00347">
        <ele>151.9</ele>
        <time>2026-05-16T07:10:48Z</time>
      </trkpt>
      <trkpt lat="43.70222" lon="7.00336">
        <ele>152.2</ele>
        <time>2026-05-16T07:10:49Z</time>
      </trkpt>
      <trkpt lat="43.70229" lon="7.00325">
        <ele>152.3</ele>
        <time>2026-05-16T07:10:50Z</time>
      </trkpt>
      <trkpt lat="43.70236" lon="7.00314">
        <ele>152.4</ele>
        <time>2026-05-16T07:10:51Z</time>
      </trkpt>
      <trkpt lat="43.70243" lon="7.00303">
        <ele>152.5</ele>
        <time>2026-05-16T07:10:52Z</time>
      </trkpt>
      <trkpt lat="43.70251" lon="7.00293">
        <ele>152.8</ele>
        <time>2026-05-16T07:10:53Z</time>
      </trkpt>
      <trkpt lat="43.70258" lon="7.00283">
        <ele>152.7</ele>
        <time>2026-05-16T07:10:54Z</time>
      </trkpt>
      <trkpt lat="43.70267" lon="7.00274">
        <ele>152.9</ele>
        <time>2026-05-16T07:10:55Z</time>
      </trkpt>
      <trkpt lat="43.70278" lon="7.00266">
        <ele>152.9</ele>
        <time>2026-05-16T07:10:56Z</time>
      </trkpt>
      <trkpt lat="43.70288" lon="7.0026">
        <ele>152.5</ele>
        <time>2026-05-16T07:10:57Z</time>
      </trkpt>
      <trkpt lat="43.70299" lon="7.00255">
        <ele>152.4</ele>
        <time>2026-05-16T07:10:58Z</time>
      </trkpt>
      <trkpt lat="43.70309" lon="7.00249">
        <ele>152.3</ele>
        <time>2026-05-16T07:10:59Z</time>
      </trkpt>
      <trkpt lat="43.70319" lon="7.00239">
        <ele>152.5</ele>
        <time>2026-05-16T07:11:00Z</time>
      </trkpt>
      <trkpt lat="43.70326" lon="7.00227">
        <ele>152.6</ele>
        <time>2026-05-16T07:11:01Z</time>
      </trkpt>
      <trkpt lat="43.70332" lon="7.00213">
        <ele>153</ele>
        <time>2026-05-16T07:11:02Z</time>
      </trkpt>
      <trkpt lat="43.70337" lon="7.00197">
        <ele>153.9</ele>
        <time>2026-05-16T07:11:03Z</time>
      </trkpt>
      <trkpt lat="43.70341" lon="7.00182">
        <ele>153.7</ele>
        <time>2026-05-16T07:11:04Z</time>
      </trkpt>
      <trkpt lat="43.70345" lon="7.00167">
        <ele>153.8</ele>
        <time>2026-05-16T07:11:05Z</time>
      </trkpt>
      <trkpt lat="43.70349" lon="7.00153">
        <ele>153.8</ele>
        <time>2026-05-16T07:11:06Z</time>
      </trkpt>
      <trkpt lat="43.70353" lon="7.00141">
        <ele>154</ele>
        <time>2026-05-16T07:11:07Z</time>
      </trkpt>
      <trkpt lat="43.70357" lon="7.00129">
        <ele>153.4</ele>
        <time>2026-05-16T07:11:08Z</time>
      </trkpt>
      <trkpt lat="43.70362" lon="7.00119">
        <ele>153.3</ele>
        <time>2026-05-16T07:11:09Z</time>
      </trkpt>
      <trkpt lat="43.70367" lon="7.00109">
        <ele>152.2</ele>
        <time>2026-05-16T07:11:10Z</time>
      </trkpt>
      <trkpt lat="43.70374" lon="7.00101">
        <ele>152.5</ele>
        <time>2026-05-16T07:11:11Z</time>
      </trkpt>
      <trkpt lat="43.70381" lon="7.00093">
        <ele>153.1</ele>
        <time>2026-05-16T07:11:12Z</time>
      </trkpt>
      <trkpt lat="43.70389" lon="7.00087">
        <ele>154.7</ele>
        <time>2026-05-16T07:11:13Z</time>
      </trkpt>
      <trkpt lat="43.70398" lon="7.00083">
        <ele>154.6</ele>
        <time>2026-05-16T07:11:14Z</time>
      </trkpt>
      <trkpt lat="43.70407" lon="7.0008">
        <ele>154.5</ele>
        <time>2026-05-16T07:11:15Z</time>
      </trkpt>
      <trkpt lat="43.70419" lon="7.00079">
        <ele>154.9</ele>
        <time>2026-05-16T07:11:16Z</time>
      </trkpt>
      <trkpt lat="43.70431" lon="7.00081">
        <ele>155.4</ele>
        <time>2026-05-16T07:11:17Z</time>
      </trkpt>
      <trkpt lat="43.70444" lon="7.00084">
        <ele>156.2</ele>
        <time>2026-05-16T07:11:18Z</time>
      </trkpt>
      <trkpt lat="43.70459" lon="7.00088">
        <ele>157.4</ele>
        <time>2026-05-16T07:11:19Z</time>
      </trkpt>
      <trkpt lat="43.70473" lon="7.00092">
        <ele>158.5</ele>
        <time>2026-05-16T07:11:20Z</time>
      </trkpt>
      <trkpt lat="43.70488" lon="7.00095">
        <ele>159.7</ele>
        <time>2026-05-16T07:11:21Z</time>
      </trkpt>
      <trkpt lat="43.705" lon="7.00093">
        <ele>159.4</ele>
        <time>2026-05-16T07:11:22Z</time>
      </trkpt>
      <trkpt lat="43.70512" lon="7.00088">
        <ele>159.9</ele>
        <time>2026-05-16T07:11:23Z</time>
      </trkpt>
      <trkpt lat="43.70523" lon="7.00077">
        <ele>159.7</ele>
        <time>2026-05-16T07:11:24Z</time>
      </trkpt>
      <trkpt lat="43.70533" lon="7.00062">
        <ele>161.2</ele>
        <time>2026-05-16T07:11:25Z</time>
      </trkpt>
      <trkpt lat="43.7054" lon="7.00046">
        <ele>161.5</ele>
        <time>2026-05-16T07:11:26Z</time>
      </trkpt>
      <trkpt lat="43.70548" lon="7.00032">
        <ele>161.2</ele>
        <time>2026-05-16T07:11:27Z</time>
      </trkpt>
      <trkpt lat="43.70558" lon="7.00022">
        <ele>161.5</ele>
        <time>2026-05-16T07:11:28Z</time>
      </trkpt>
      <trkpt lat="43.70568" lon="7.00015">
        <ele>161.3</ele>
        <time>2026-05-16T07:11:29Z</time>
      </trkpt>
      <trkpt lat="43.70579" lon="7.0001">
        <ele>161.2</ele>
        <time>2026-05-16T07:11:30Z</time>
      </trkpt>
      <trkpt lat="43.7059" lon="7.00006">
        <ele>161.2</ele>
        <time>2026-05-16T07:11:31Z</time>
      </trkpt>
      <trkpt lat="43.70601" lon="7.00003">
        <ele>161.6</ele>
        <time>2026-05-16T07:11:32Z</time>
      </trkpt>
      <trkpt lat="43.70612" lon="6.99998">
        <ele>161.8</ele>
        <time>2026-05-16T07:11:33Z</time>
      </trkpt>
      <trkpt lat="43.70623" lon="6.99991">
        <ele>163.5</ele>
        <time>2026-05-16T07:11:34Z</time>
      </trkpt>
      <trkpt lat="43.70633" lon="6.9998">
        <ele>163.1</ele>
        <time>2026-05-16T07:11:35Z</time>
      </trkpt>
      <trkpt lat="43.70644" lon="6.99969">
        <ele>162.2</ele>
        <time>2026-05-16T07:11:36Z</time>
      </trkpt>
      <trkpt lat="43.70655" lon="6.99956">
        <ele>161.1</ele>
        <time>2026-05-16T07:11:37Z</time>
      </trkpt>
      <trkpt lat="43.70666" lon="6.99943">
        <ele>160.5</ele>
        <time>2026-05-16T07:11:38Z</time>
      </trkpt>
      <trkpt lat="43.70677" lon="6.99933">
        <ele>161.3</ele>
        <time>2026-05-16T07:11:39Z</time>
      </trkpt>
      <trkpt lat="43.70686" lon="6.99921">
        <ele>161.4</ele>
        <time>2026-05-16T07:11:40Z</time>
      </trkpt>
      <trkpt lat="43.70693" lon="6.99904">
        <ele>161.1</ele>
        <time>2026-05-16T07:11:41Z</time>
      </trkpt>
      <trkpt lat="43.70699" lon="6.99887">
        <ele>161.1</ele>
        <time>2026-05-16T07:11:42Z</time>
      </trkpt>
      <trkpt lat="43.70702" lon="6.99867">
        <ele>160</ele>
        <time>2026-05-16T07:11:43Z</time>
      </trkpt>
      <trkpt lat="43.70706" lon="6.99849">
        <ele>159.4</ele>
        <time>2026-05-16T07:11:44Z</time>
      </trkpt>
      <trkpt lat="43.70712" lon="6.99831">
        <ele>159.4</ele>
        <time>2026-05-16T07:11:45Z</time>
      </trkpt>
      <trkpt lat="43.70719" lon="6.99814">
        <ele>159.9</ele>
        <time>2026-05-16T07:11:46Z</time>
      </trkpt>
      <trkpt lat="43.70727" lon="6.99798">
        <ele>160.6</ele>
        <time>2026-05-16T07:11:47Z</time>
      </trkpt>
      <trkpt lat="43.70735" lon="6.99783">
        <ele>161.6</ele>
        <time>2026-05-16T07:11:48Z</time>
      </trkpt>
      <trkpt lat="43.70742" lon="6.99768">
        <ele>162</ele>
        <time>2026-05-16T07:11:49Z</time>
      </trkpt>
      <trkpt lat="43.70749" lon="6.99754">
        <ele>162.3</ele>
        <time>2026-05-16T07:11:50Z</time>
      </trkpt>
      <trkpt lat="43.70756" lon="6.99741">
        <ele>162.8</ele>
        <time>2026-05-16T07:11:51Z</time>
      </trkpt>
      <trkpt lat="43.70764" lon="6.99731">
        <ele>163.6</ele>
        <time>2026-05-16T07:11:52Z</time>
      </trkpt>
      <trkpt lat="43.70774" lon="6.9972">
        <ele>164.2</ele>
        <time>2026-05-16T07:11:53Z</time>
      </trkpt>
      <trkpt lat="43.70785" lon="6.9971">
        <ele>164.7</ele>
        <time>2026-05-16T07:11:54Z</time>
      </trkpt>
      <trkpt lat="43.70797" lon="6.99701">
        <ele>165.2</ele>
        <time>2026-05-16T07:11:55Z</time>
      </trkpt>
      <trkpt lat="43.70809" lon="6.99691">
        <ele>164.9</ele>
        <time>2026-05-16T07:11:56Z</time>
      </trkpt>
      <trkpt lat="43.70821" lon="6.99681">
        <ele>165</ele>
        <time>2026-05-16T07:11:57Z</time>
      </trkpt>
      <trkpt lat="43.70833" lon="6.99671">
        <ele>165.2</ele>
        <time>2026-05-16T07:11:58Z</time>
      </trkpt>
      <trkpt lat="43.70844" lon="6.9966">
        <ele>165</ele>
        <time>2026-05-16T07:11:59Z</time>
      </trkpt>
      <trkpt lat="43.70854" lon="6.9965">
        <ele>165</ele>
        <time>2026-05-16T07:12:00Z</time>
      </trkpt>
      <trkpt lat="43.70863" lon="6.99638">
        <ele>164.4</ele>
        <time>2026-05-16T07:12:01Z</time>
      </trkpt>
      <trkpt lat="43.70872" lon="6.99625">
        <ele>164.3</ele>
        <time>2026-05-16T07:12:02Z</time>
      </trkpt>
      <trkpt lat="43.70881" lon="6.99612">
        <ele>164.6</ele>
        <time>2026-05-16T07:12:03Z</time>
      </trkpt>
      <trkpt lat="43.70889" lon="6.99597">
        <ele>164</ele>
        <time>2026-05-16T07:12:04Z</time>
      </trkpt>
      <trkpt lat="43.70897" lon="6.99584">
        <ele>163.8</ele>
        <time>2026-05-16T07:12:05Z</time>
      </trkpt>
      <trkpt lat="43.70905" lon="6.99573">
        <ele>164.2</ele>
        <time>2026-05-16T07:12:06Z</time>
      </trkpt>
      <trkpt lat="43.70913" lon="6.99563">
        <ele>165.1</ele>
        <time>2026-05-16T07:12:07Z</time>
      </trkpt>
      <trkpt lat="43.70921" lon="6.99554">
        <ele>165.9</ele>
        <time>2026-05-16T07:12:08Z</time>
      </trkpt>
      <trkpt lat="43.7093" lon="6.99546">
        <ele>167.3</ele>
        <time>2026-05-16T07:12:09Z</time>
      </trkpt>
      <trkpt lat="43.70937" lon="6.99534">
        <ele>167.9</ele>
        <time>2026-05-16T07:12:10Z</time>
      </trkpt>
      <trkpt lat="43.70942" lon="6.9952">
        <ele>168.4</ele>
        <time>2026-05-16T07:12:11Z</time>
      </trkpt>
      <trkpt lat="43.70946" lon="6.99505">
        <ele>168.8</ele>
        <time>2026-05-16T07:12:12Z</time>
      </trkpt>
      <trkpt lat="43.7095" lon="6.99489">
        <ele>169.1</ele>
        <time>2026-05-16T07:12:13Z</time>
      </trkpt>
      <trkpt lat="43.70956" lon="6.99473">
        <ele>170.2</ele>
        <time>2026-05-16T07:12:14Z</time>
      </trkpt>
      <trkpt lat="43.70964" lon="6.99458">
        <ele>170.5</ele>
        <time>2026-05-16T07:12:15Z</time>
      </trkpt>
      <trkpt lat="43.70974" lon="6.99445">
        <ele>171.5</ele>
        <time>2026-05-16T07:12:16Z</time>
      </trkpt>
      <trkpt lat="43.70985" lon="6.99433">
        <ele>171.7</ele>
        <time>2026-05-16T07:12:17Z</time>
      </trkpt>
      <trkpt lat="43.70997" lon="6.99421">
        <ele>172.2</ele>
        <time>2026-05-16T07:12:18Z</time>
      </trkpt>
      <trkpt lat="43.71011" lon="6.99412">
        <ele>171.7</ele>
        <time>2026-05-16T07:12:19Z</time>
      </trkpt>
      <trkpt lat="43.71025" lon="6.99405">
        <ele>171.2</ele>
        <time>2026-05-16T07:12:20Z</time>
      </trkpt>
      <trkpt lat="43.71039" lon="6.994">
        <ele>170.6</ele>
        <time>2026-05-16T07:12:21Z</time>
      </trkpt>
      <trkpt lat="43.71053" lon="6.99398">
        <ele>170.6</ele>
        <time>2026-05-16T07:12:22Z</time>
      </trkpt>
      <trkpt lat="43.71067" lon="6.99398">
        <ele>171.2</ele>
        <time>2026-05-16T07:12:23Z</time>
      </trkpt>
      <trkpt lat="43.71082" lon="6.99399">
        <ele>172.1</ele>
        <time>2026-05-16T07:12:24Z</time>
      </trkpt>
      <trkpt lat="43.71097" lon="6.994">
        <ele>172.8</ele>
        <time>2026-05-16T07:12:25Z</time>
      </trkpt>
      <trkpt lat="43.71112" lon="6.994">
        <ele>173.2</ele>
        <time>2026-05-16T07:12:26Z</time>
      </trkpt>
      <trkpt lat="43.71128" lon="6.994">
        <ele>173.8</ele>
        <time>2026-05-16T07:12:27Z</time>
      </trkpt>
      <trkpt lat="43.71142" lon="6.99399">
        <ele>174.2</ele>
        <time>2026-05-16T07:12:28Z</time>
      </trkpt>
      <trkpt lat="43.71157" lon="6.99398">
        <ele>175.6</ele>
        <time>2026-05-16T07:12:29Z</time>
      </trkpt>
      <trkpt lat="43.71172" lon="6.99397">
        <ele>177.2</ele>
        <time>2026-05-16T07:12:30Z</time>
      </trkpt>
      <trkpt lat="43.71186" lon="6.99395">
        <ele>178.7</ele>
        <time>2026-05-16T07:12:31Z</time>
      </trkpt>
      <trkpt lat="43.71199" lon="6.99392">
        <ele>179.8</ele>
        <time>2026-05-16T07:12:32Z</time>
      </trkpt>
      <trkpt lat="43.71212" lon="6.99387">
        <ele>180.7</ele>
        <time>2026-05-16T07:12:33Z</time>
      </trkpt>
      <trkpt lat="43.71224" lon="6.9938">
        <ele>181.2</ele>
        <time>2026-05-16T07:12:34Z</time>
      </trkpt>
      <trkpt lat="43.71236" lon="6.99371">
        <ele>181.6</ele>
        <time>2026-05-16T07:12:35Z</time>
      </trkpt>
      <trkpt lat="43.71248" lon="6.99362">
        <ele>181.8</ele>
        <time>2026-05-16T07:12:36Z</time>
      </trkpt>
      <trkpt lat="43.71261" lon="6.99354">
        <ele>182.6</ele>
        <time>2026-05-16T07:12:37Z</time>
      </trkpt>
      <trkpt lat="43.71275" lon="6.99348">
        <ele>184.1</ele>
        <time>2026-05-16T07:12:38Z</time>
      </trkpt>
      <trkpt lat="43.71289" lon="6.99344">
        <ele>185.9</ele>
        <time>2026-05-16T07:12:39Z</time>
      </trkpt>
      <trkpt lat="43.71303" lon="6.9934">
        <ele>187.6</ele>
        <time>2026-05-16T07:12:40Z</time>
      </trkpt>
      <trkpt lat="43.71317" lon="6.99334">
        <ele>188.7</ele>
        <time>2026-05-16T07:12:41Z</time>
      </trkpt>
      <trkpt lat="43.71331" lon="6.99326">
        <ele>189.1</ele>
        <time>2026-05-16T07:12:42Z</time>
      </trkpt>
      <trkpt lat="43.71345" lon="6.99317">
        <ele>189.4</ele>
        <time>2026-05-16T07:12:43Z</time>
      </trkpt>
      <trkpt lat="43.71359" lon="6.99307">
        <ele>189.1</ele>
        <time>2026-05-16T07:12:44Z</time>
      </trkpt>
      <trkpt lat="43.71372" lon="6.99295">
        <ele>190.5</ele>
        <time>2026-05-16T07:12:45Z</time>
      </trkpt>
      <trkpt lat="43.71383" lon="6.99281">
        <ele>190.9</ele>
        <time>2026-05-16T07:12:46Z</time>
      </trkpt>
      <trkpt lat="43.71394" lon="6.99264">
        <ele>192.2</ele>
        <time>2026-05-16T07:12:47Z</time>
      </trkpt>
      <trkpt lat="43.71403" lon="6.99246">
        <ele>192.9</ele>
        <time>2026-05-16T07:12:48Z</time>
      </trkpt>
      <trkpt lat="43.71412" lon="6.99228">
        <ele>192.7</ele>
        <time>2026-05-16T07:12:49Z</time>
      </trkpt>
      <trkpt lat="43.71421" lon="6.99211">
        <ele>191.3</ele>
        <time>2026-05-16T07:12:50Z</time>
      </trkpt>
      <trkpt lat="43.71431" lon="6.99196">
        <ele>189.5</ele>
        <time>2026-05-16T07:12:51Z</time>
      </trkpt>
      <trkpt lat="43.71443" lon="6.99188">
        <ele>189.6</ele>
        <time>2026-05-16T07:12:52Z</time>
      </trkpt>
      <trkpt lat="43.71455" lon="6.99183">
        <ele>188.9</ele>
        <time>2026-05-16T07:12:53Z</time>
      </trkpt>
      <trkpt lat="43.71467" lon="6.99184">
        <ele>189.9</ele>
        <time>2026-05-16T07:12:54Z</time>
      </trkpt>
      <trkpt lat="43.71479" lon="6.99184">
        <ele>189.3</ele>
        <time>2026-05-16T07:12:55Z</time>
      </trkpt>
      <trkpt lat="43.71489" lon="6.99197">
        <ele>192.2</ele>
        <time>2026-05-16T07:12:56Z</time>
      </trkpt>
      <trkpt lat="43.71499" lon="6.99207">
        <ele>192.9</ele>
        <time>2026-05-16T07:12:57Z</time>
      </trkpt>
      <trkpt lat="43.7151" lon="6.99217">
        <ele>193.4</ele>
        <time>2026-05-16T07:12:58Z</time>
      </trkpt>
      <trkpt lat="43.71523" lon="6.99225">
        <ele>193.4</ele>
        <time>2026-05-16T07:12:59Z</time>
      </trkpt>
      <trkpt lat="43.71537" lon="6.99228">
        <ele>192.6</ele>
        <time>2026-05-16T07:13:00Z</time>
      </trkpt>
      <trkpt lat="43.71551" lon="6.99229">
        <ele>191.6</ele>
        <time>2026-05-16T07:13:01Z</time>
      </trkpt>
      <trkpt lat="43.71564" lon="6.99229">
        <ele>190.6</ele>
        <time>2026-05-16T07:13:02Z</time>
      </trkpt>
      <trkpt lat="43.71578" lon="6.99231">
        <ele>190.2</ele>
        <time>2026-05-16T07:13:03Z</time>
      </trkpt>
      <trkpt lat="43.71589" lon="6.99239">
        <ele>192.1</ele>
        <time>2026-05-16T07:13:04Z</time>
      </trkpt>
      <trkpt lat="43.71601" lon="6.99246">
        <ele>193.1</ele>
        <time>2026-05-16T07:13:05Z</time>
      </trkpt>
      <trkpt lat="43.71613" lon="6.9925">
        <ele>193</ele>
        <time>2026-05-16T07:13:06Z</time>
      </trkpt>
      <trkpt lat="43.71625" lon="6.9925">
        <ele>193</ele>
        <time>2026-05-16T07:13:07Z</time>
      </trkpt>
      <trkpt lat="43.71636" lon="6.99247">
        <ele>192.5</ele>
        <time>2026-05-16T07:13:08Z</time>
      </trkpt>
      <trkpt lat="43.71646" lon="6.99243">
        <ele>192.8</ele>
        <time>2026-05-16T07:13:09Z</time>
      </trkpt>
      <trkpt lat="43.71655" lon="6.99237">
        <ele>192.9</ele>
        <time>2026-05-16T07:13:10Z</time>
      </trkpt>
      <trkpt lat="43.71664" lon="6.9923">
        <ele>192.8</ele>
        <time>2026-05-16T07:13:11Z</time>
      </trkpt>
      <trkpt lat="43.71672" lon="6.99222">
        <ele>192.6</ele>
        <time>2026-05-16T07:13:12Z</time>
      </trkpt>
      <trkpt lat="43.7168" lon="6.99214">
        <ele>192.6</ele>
        <time>2026-05-16T07:13:13Z</time>
      </trkpt>
      <trkpt lat="43.71688" lon="6.99206">
        <ele>192.6</ele>
        <time>2026-05-16T07:13:14Z</time>
      </trkpt>
      <trkpt lat="43.71695" lon="6.992">
        <ele>192.6</ele>
        <time>2026-05-16T07:13:15Z</time>
      </trkpt>
      <trkpt lat="43.71702" lon="6.99196">
        <ele>192.7</ele>
        <time>2026-05-16T07:13:16Z</time>
      </trkpt>
      <trkpt lat="43.71709" lon="6.99193">
        <ele>192.8</ele>
        <time>2026-05-16T07:13:17Z</time>
      </trkpt>
      <trkpt lat="43.71715" lon="6.99192">
        <ele>193</ele>
        <time>2026-05-16T07:13:18Z</time>
      </trkpt>
      <trkpt lat="43.71719" lon="6.99191">
        <ele>193</ele>
        <time>2026-05-16T07:13:19Z</time>
      </trkpt>
      <trkpt lat="43.71722" lon="6.99191">
        <ele>193.2</ele>
        <time>2026-05-16T07:13:20Z</time>
      </trkpt>
      <trkpt lat="43.71724" lon="6.99191">
        <ele>193.2</ele>
        <time>2026-05-16T07:13:21Z</time>
      </trkpt>
      <trkpt lat="43.71726" lon="6.99191">
        <ele>193.2</ele>
        <time>2026-05-16T07:13:22Z</time>
      </trkpt>
      <trkpt lat="43.7173" lon="6.99191">
        <ele>193</ele>
        <time>2026-05-16T07:13:23Z</time>
      </trkpt>
      <trkpt lat="43.71734" lon="6.99193">
        <ele>193.3</ele>
        <time>2026-05-16T07:13:24Z</time>
      </trkpt>
      <trkpt lat="43.71738" lon="6.99196">
        <ele>193.7</ele>
        <time>2026-05-16T07:13:25Z</time>
      </trkpt>
      <trkpt lat="43.71741" lon="6.99202">
        <ele>194.7</ele>
        <time>2026-05-16T07:13:26Z</time>
      </trkpt>
      <trkpt lat="43.71744" lon="6.99208">
        <ele>195.7</ele>
        <time>2026-05-16T07:13:27Z</time>
      </trkpt>
      <trkpt lat="43.71748" lon="6.99215">
        <ele>196.8</ele>
        <time>2026-05-16T07:13:28Z</time>
      </trkpt>
      <trkpt lat="43.71753" lon="6.99223">
        <ele>198.1</ele>
        <time>2026-05-16T07:13:29Z</time>
      </trkpt>
      <trkpt lat="43.7176" lon="6.99229">
        <ele>198.9</ele>
        <time>2026-05-16T07:13:30Z</time>
      </trkpt>
      <trkpt lat="43.71769" lon="6.99233">
        <ele>199.1</ele>
        <time>2026-05-16T07:13:31Z</time>
      </trkpt>
      <trkpt lat="43.71778" lon="6.99233">
        <ele>198.5</ele>
        <time>2026-05-16T07:13:32Z</time>
      </trkpt>
      <trkpt lat="43.71787" lon="6.99233">
        <ele>198.2</ele>
        <time>2026-05-16T07:13:33Z</time>
      </trkpt>
      <trkpt lat="43.71796" lon="6.99236">
        <ele>198.3</ele>
        <time>2026-05-16T07:13:34Z</time>
      </trkpt>
      <trkpt lat="43.71804" lon="6.99243">
        <ele>199</ele>
        <time>2026-05-16T07:13:35Z</time>
      </trkpt>
      <trkpt lat="43.71812" lon="6.99252">
        <ele>199.6</ele>
        <time>2026-05-16T07:13:36Z</time>
      </trkpt>
      <trkpt lat="43.7182" lon="6.99262">
        <ele>200.2</ele>
        <time>2026-05-16T07:13:37Z</time>
      </trkpt>
      <trkpt lat="43.71829" lon="6.99273">
        <ele>200.8</ele>
        <time>2026-05-16T07:13:38Z</time>
      </trkpt>
      <trkpt lat="43.71837" lon="6.99283">
        <ele>201.5</ele>
        <time>2026-05-16T07:13:39Z</time>
      </trkpt>
      <trkpt lat="43.71847" lon="6.99292">
        <ele>202.1</ele>
        <time>2026-05-16T07:13:40Z</time>
      </trkpt>
      <trkpt lat="43.71855" lon="6.99302">
        <ele>203.6</ele>
        <time>2026-05-16T07:13:41Z</time>
      </trkpt>
      <trkpt lat="43.71867" lon="6.99312">
        <ele>205.2</ele>
        <time>2026-05-16T07:13:42Z</time>
      </trkpt>
      <trkpt lat="43.71878" lon="6.99321">
        <ele>207</ele>
        <time>2026-05-16T07:13:43Z</time>
      </trkpt>
      <trkpt lat="43.7189" lon="6.99326">
        <ele>207.9</ele>
        <time>2026-05-16T07:13:44Z</time>
      </trkpt>
      <trkpt lat="43.71902" lon="6.99329">
        <ele>209.5</ele>
        <time>2026-05-16T07:13:45Z</time>
      </trkpt>
      <trkpt lat="43.71914" lon="6.99329">
        <ele>210.1</ele>
        <time>2026-05-16T07:13:46Z</time>
      </trkpt>
      <trkpt lat="43.71925" lon="6.99328">
        <ele>210.1</ele>
        <time>2026-05-16T07:13:47Z</time>
      </trkpt>
      <trkpt lat="43.71936" lon="6.99327">
        <ele>210</ele>
        <time>2026-05-16T07:13:48Z</time>
      </trkpt>
      <trkpt lat="43.71947" lon="6.99327">
        <ele>210.3</ele>
        <time>2026-05-16T07:13:49Z</time>
      </trkpt>
      <trkpt lat="43.71956" lon="6.9933">
        <ele>211.6</ele>
        <time>2026-05-16T07:13:50Z</time>
      </trkpt>
      <trkpt lat="43.71965" lon="6.99333">
        <ele>212.9</ele>
        <time>2026-05-16T07:13:51Z</time>
      </trkpt>
      <trkpt lat="43.71974" lon="6.99339">
        <ele>215.4</ele>
        <time>2026-05-16T07:13:52Z</time>
      </trkpt>
      <trkpt lat="43.71984" lon="6.99339">
        <ele>215</ele>
        <time>2026-05-16T07:13:53Z</time>
      </trkpt>
      <trkpt lat="43.71994" lon="6.99336">
        <ele>213.8</ele>
        <time>2026-05-16T07:13:54Z</time>
      </trkpt>
      <trkpt lat="43.72004" lon="6.99334">
        <ele>212.9</ele>
        <time>2026-05-16T07:13:55Z</time>
      </trkpt>
      <trkpt lat="43.72013" lon="6.99336">
        <ele>212.6</ele>
        <time>2026-05-16T07:13:56Z</time>
      </trkpt>
      <trkpt lat="43.7202" lon="6.99341">
        <ele>212.7</ele>
        <time>2026-05-16T07:13:57Z</time>
      </trkpt>
      <trkpt lat="43.72023" lon="6.99349">
        <ele>213.4</ele>
        <time>2026-05-16T07:13:58Z</time>
      </trkpt>
      <trkpt lat="43.72024" lon="6.9936">
        <ele>214.7</ele>
        <time>2026-05-16T07:13:59Z</time>
      </trkpt>
      <trkpt lat="43.72022" lon="6.99372">
        <ele>217.1</ele>
        <time>2026-05-16T07:14:00Z</time>
      </trkpt>
      <trkpt lat="43.7202" lon="6.99384">
        <ele>219.7</ele>
        <time>2026-05-16T07:14:01Z</time>
      </trkpt>
      <trkpt lat="43.72018" lon="6.99397">
        <ele>222.7</ele>
        <time>2026-05-16T07:14:02Z</time>
      </trkpt>
      <trkpt lat="43.72017" lon="6.99411">
        <ele>225.9</ele>
        <time>2026-05-16T07:14:03Z</time>
      </trkpt>
      <trkpt lat="43.72018" lon="6.99424">
        <ele>227.9</ele>
        <time>2026-05-16T07:14:04Z</time>
      </trkpt>
      <trkpt lat="43.7202" lon="6.99435">
        <ele>228.9</ele>
        <time>2026-05-16T07:14:05Z</time>
      </trkpt>
      <trkpt lat="43.72022" lon="6.99444">
        <ele>229.6</ele>
        <time>2026-05-16T07:14:06Z</time>
      </trkpt>
      <trkpt lat="43.72028" lon="6.99452">
        <ele>229</ele>
        <time>2026-05-16T07:14:07Z</time>
      </trkpt>
      <trkpt lat="43.72035" lon="6.99457">
        <ele>232.6</ele>
        <time>2026-05-16T07:14:08Z</time>
      </trkpt>
      <trkpt lat="43.72042" lon="6.99457">
        <ele>235</ele>
        <time>2026-05-16T07:14:09Z</time>
      </trkpt>
      <trkpt lat="43.72048" lon="6.99453">
        <ele>235.7</ele>
        <time>2026-05-16T07:14:10Z</time>
      </trkpt>
      <trkpt lat="43.72054" lon="6.99445">
        <ele>234.7</ele>
        <time>2026-05-16T07:14:11Z</time>
      </trkpt>
      <trkpt lat="43.72058" lon="6.99438">
        <ele>234.8</ele>
        <time>2026-05-16T07:14:12Z</time>
      </trkpt>
      <trkpt lat="43.72063" lon="6.99431">
        <ele>236.1</ele>
        <time>2026-05-16T07:14:13Z</time>
      </trkpt>
      <trkpt lat="43.72068" lon="6.99423">
        <ele>236.7</ele>
        <time>2026-05-16T07:14:14Z</time>
      </trkpt>
      <trkpt lat="43.72074" lon="6.99413">
        <ele>237.1</ele>
        <time>2026-05-16T07:14:15Z</time>
      </trkpt>
      <trkpt lat="43.7208" lon="6.99404">
        <ele>237.5</ele>
        <time>2026-05-16T07:14:16Z</time>
      </trkpt>
      <trkpt lat="43.72087" lon="6.99395">
        <ele>238.2</ele>
        <time>2026-05-16T07:14:17Z</time>
      </trkpt>
      <trkpt lat="43.72094" lon="6.99384">
        <ele>237.8</ele>
        <time>2026-05-16T07:14:18Z</time>
      </trkpt>
      <trkpt lat="43.72102" lon="6.99374">
        <ele>237.8</ele>
        <time>2026-05-16T07:14:19Z</time>
      </trkpt>
      <trkpt lat="43.72109" lon="6.99365">
        <ele>237.6</ele>
        <time>2026-05-16T07:14:20Z</time>
      </trkpt>
      <trkpt lat="43.72117" lon="6.99359">
        <ele>237.5</ele>
        <time>2026-05-16T07:14:21Z</time>
      </trkpt>
      <trkpt lat="43.72125" lon="6.99355">
        <ele>237.5</ele>
        <time>2026-05-16T07:14:22Z</time>
      </trkpt>
      <trkpt lat="43.72135" lon="6.99354">
        <ele>239.5</ele>
        <time>2026-05-16T07:14:23Z</time>
      </trkpt>
      <trkpt lat="43.72145" lon="6.99358">
        <ele>242</ele>
        <time>2026-05-16T07:14:24Z</time>
      </trkpt>
      <trkpt lat="43.72156" lon="6.99363">
        <ele>243.7</ele>
        <time>2026-05-16T07:14:25Z</time>
      </trkpt>
      <trkpt lat="43.72167" lon="6.9937">
        <ele>246.1</ele>
        <time>2026-05-16T07:14:26Z</time>
      </trkpt>
      <trkpt lat="43.72178" lon="6.99378">
        <ele>247.8</ele>
        <time>2026-05-16T07:14:27Z</time>
      </trkpt>
      <trkpt lat="43.72188" lon="6.99386">
        <ele>249.2</ele>
        <time>2026-05-16T07:14:28Z</time>
      </trkpt>
      <trkpt lat="43.722" lon="6.99394">
        <ele>250.2</ele>
        <time>2026-05-16T07:14:29Z</time>
      </trkpt>
      <trkpt lat="43.72212" lon="6.99403">
        <ele>251.9</ele>
        <time>2026-05-16T07:14:30Z</time>
      </trkpt>
      <trkpt lat="43.72224" lon="6.99415">
        <ele>254.8</ele>
        <time>2026-05-16T07:14:31Z</time>
      </trkpt>
      <trkpt lat="43.72237" lon="6.99425">
        <ele>256</ele>
        <time>2026-05-16T07:14:32Z</time>
      </trkpt>
      <trkpt lat="43.72249" lon="6.99436">
        <ele>257.6</ele>
        <time>2026-05-16T07:14:33Z</time>
      </trkpt>
      <trkpt lat="43.72261" lon="6.99446">
        <ele>257.2</ele>
        <time>2026-05-16T07:14:34Z</time>
      </trkpt>
      <trkpt lat="43.72272" lon="6.99457">
        <ele>257.2</ele>
        <time>2026-05-16T07:14:35Z</time>
      </trkpt>
      <trkpt lat="43.72285" lon="6.99466">
        <ele>256.3</ele>
        <time>2026-05-16T07:14:36Z</time>
      </trkpt>
      <trkpt lat="43.72298" lon="6.99473">
        <ele>254.8</ele>
        <time>2026-05-16T07:14:37Z</time>
      </trkpt>
      <trkpt lat="43.72311" lon="6.99477">
        <ele>254.1</ele>
        <time>2026-05-16T07:14:38Z</time>
      </trkpt>
      <trkpt lat="43.72323" lon="6.99478">
        <ele>254.6</ele>
        <time>2026-05-16T07:14:39Z</time>
      </trkpt>
      <trkpt lat="43.72336" lon="6.99477">
        <ele>254.8</ele>
        <time>2026-05-16T07:14:40Z</time>
      </trkpt>
      <trkpt lat="43.72348" lon="6.99476">
        <ele>257.1</ele>
        <time>2026-05-16T07:14:41Z</time>
      </trkpt>
      <trkpt lat="43.7236" lon="6.99475">
        <ele>259.3</ele>
        <time>2026-05-16T07:14:42Z</time>
      </trkpt>
      <trkpt lat="43.72373" lon="6.99473">
        <ele>258</ele>
        <time>2026-05-16T07:14:43Z</time>
      </trkpt>
      <trkpt lat="43.72385" lon="6.99472">
        <ele>257.1</ele>
        <time>2026-05-16T07:14:44Z</time>
      </trkpt>
      <trkpt lat="43.72396" lon="6.99474">
        <ele>256.6</ele>
        <time>2026-05-16T07:14:45Z</time>
      </trkpt>
      <trkpt lat="43.72407" lon="6.99477">
        <ele>255.9</ele>
        <time>2026-05-16T07:14:46Z</time>
      </trkpt>
      <trkpt lat="43.72417" lon="6.99484">
        <ele>257</ele>
        <time>2026-05-16T07:14:47Z</time>
      </trkpt>
      <trkpt lat="43.72426" lon="6.99495">
        <ele>258.8</ele>
        <time>2026-05-16T07:14:48Z</time>
      </trkpt>
      <trkpt lat="43.72435" lon="6.99508">
        <ele>261.6</ele>
        <time>2026-05-16T07:14:49Z</time>
      </trkpt>
      <trkpt lat="43.72445" lon="6.9952">
        <ele>263.5</ele>
        <time>2026-05-16T07:14:50Z</time>
      </trkpt>
      <trkpt lat="43.72457" lon="6.99531">
        <ele>263.7</ele>
        <time>2026-05-16T07:14:51Z</time>
      </trkpt>
      <trkpt lat="43.72469" lon="6.99543">
        <ele>263.2</ele>
        <time>2026-05-16T07:14:52Z</time>
      </trkpt>
      <trkpt lat="43.72482" lon="6.99553">
        <ele>262.7</ele>
        <time>2026-05-16T07:14:53Z</time>
      </trkpt>
      <trkpt lat="43.72493" lon="6.99566">
        <ele>263.9</ele>
        <time>2026-05-16T07:14:54Z</time>
      </trkpt>
      <trkpt lat="43.72505" lon="6.99576">
        <ele>263.4</ele>
        <time>2026-05-16T07:14:55Z</time>
      </trkpt>
      <trkpt lat="43.72515" lon="6.99587">
        <ele>263.7</ele>
        <time>2026-05-16T07:14:56Z</time>
      </trkpt>
      <trkpt lat="43.72527" lon="6.99601">
        <ele>264.3</ele>
        <time>2026-05-16T07:14:57Z</time>
      </trkpt>
      <trkpt lat="43.72538" lon="6.99613">
        <ele>264.2</ele>
        <time>2026-05-16T07:14:58Z</time>
      </trkpt>
      <trkpt lat="43.72548" lon="6.99628">
        <ele>265.3</ele>
        <time>2026-05-16T07:14:59Z</time>
      </trkpt>
      <trkpt lat="43.72556" lon="6.99646">
        <ele>268.2</ele>
        <time>2026-05-16T07:15:00Z</time>
      </trkpt>
      <trkpt lat="43.72566" lon="6.99661">
        <ele>270.6</ele>
        <time>2026-05-16T07:15:01Z</time>
      </trkpt>
      <trkpt lat="43.72576" lon="6.99673">
        <ele>271.6</ele>
        <time>2026-05-16T07:15:02Z</time>
      </trkpt>
      <trkpt lat="43.72586" lon="6.99684">
        <ele>272.2</ele>
        <time>2026-05-16T07:15:03Z</time>
      </trkpt>
      <trkpt lat="43.72597" lon="6.99693">
        <ele>274.1</ele>
        <time>2026-05-16T07:15:04Z</time>
      </trkpt>
      <trkpt lat="43.72609" lon="6.99701">
        <ele>276.5</ele>
        <time>2026-05-16T07:15:05Z</time>
      </trkpt>
      <trkpt lat="43.72622" lon="6.9971">
        <ele>279.6</ele>
        <time>2026-05-16T07:15:06Z</time>
      </trkpt>
      <trkpt lat="43.72635" lon="6.99716">
        <ele>281.8</ele>
        <time>2026-05-16T07:15:07Z</time>
      </trkpt>
      <trkpt lat="43.72647" lon="6.99722">
        <ele>283.3</ele>
        <time>2026-05-16T07:15:08Z</time>
      </trkpt>
      <trkpt lat="43.7266" lon="6.99724">
        <ele>283.1</ele>
        <time>2026-05-16T07:15:09Z</time>
      </trkpt>
      <trkpt lat="43.72671" lon="6.99726">
        <ele>282.1</ele>
        <time>2026-05-16T07:15:10Z</time>
      </trkpt>
      <trkpt lat="43.72681" lon="6.99729">
        <ele>280.4</ele>
        <time>2026-05-16T07:15:11Z</time>
      </trkpt>
      <trkpt lat="43.7269" lon="6.99733">
        <ele>279.9</ele>
        <time>2026-05-16T07:15:12Z</time>
      </trkpt>
      <trkpt lat="43.72698" lon="6.99739">
        <ele>282.2</ele>
        <time>2026-05-16T07:15:13Z</time>
      </trkpt>
      <trkpt lat="43.72707" lon="6.99744">
        <ele>285.4</ele>
        <time>2026-05-16T07:15:14Z</time>
      </trkpt>
      <trkpt lat="43.72717" lon="6.99748">
        <ele>288.4</ele>
        <time>2026-05-16T07:15:15Z</time>
      </trkpt>
      <trkpt lat="43.72728" lon="6.99747">
        <ele>291.1</ele>
        <time>2026-05-16T07:15:16Z</time>
      </trkpt>
      <trkpt lat="43.72738" lon="6.99743">
        <ele>293.6</ele>
        <time>2026-05-16T07:15:17Z</time>
      </trkpt>
      <trkpt lat="43.72746" lon="6.99731">
        <ele>288.8</ele>
        <time>2026-05-16T07:15:18Z</time>
      </trkpt>
      <trkpt lat="43.72753" lon="6.9972">
        <ele>284.2</ele>
        <time>2026-05-16T07:15:19Z</time>
      </trkpt>
      <trkpt lat="43.72762" lon="6.9971">
        <ele>283.2</ele>
        <time>2026-05-16T07:15:20Z</time>
      </trkpt>
      <trkpt lat="43.72773" lon="6.99705">
        <ele>284</ele>
        <time>2026-05-16T07:15:21Z</time>
      </trkpt>
      <trkpt lat="43.72783" lon="6.99703">
        <ele>284.9</ele>
        <time>2026-05-16T07:15:22Z</time>
      </trkpt>
      <trkpt lat="43.72794" lon="6.99702">
        <ele>285.6</ele>
        <time>2026-05-16T07:15:23Z</time>
      </trkpt>
      <trkpt lat="43.72806" lon="6.99702">
        <ele>286.9</ele>
        <time>2026-05-16T07:15:24Z</time>
      </trkpt>
      <trkpt lat="43.72818" lon="6.99704">
        <ele>288.2</ele>
        <time>2026-05-16T07:15:25Z</time>
      </trkpt>
      <trkpt lat="43.72831" lon="6.99706">
        <ele>289.7</ele>
        <time>2026-05-16T07:15:26Z</time>
      </trkpt>
      <trkpt lat="43.72844" lon="6.99708">
        <ele>292.4</ele>
        <time>2026-05-16T07:15:27Z</time>
      </trkpt>
      <trkpt lat="43.72858" lon="6.99708">
        <ele>293.9</ele>
        <time>2026-05-16T07:15:28Z</time>
      </trkpt>
      <trkpt lat="43.72872" lon="6.9971">
        <ele>294.2</ele>
        <time>2026-05-16T07:15:29Z</time>
      </trkpt>
      <trkpt lat="43.72886" lon="6.99713">
        <ele>294.7</ele>
        <time>2026-05-16T07:15:30Z</time>
      </trkpt>
      <trkpt lat="43.729" lon="6.99716">
        <ele>293.2</ele>
        <time>2026-05-16T07:15:31Z</time>
      </trkpt>
      <trkpt lat="43.72913" lon="6.99721">
        <ele>294.6</ele>
        <time>2026-05-16T07:15:32Z</time>
      </trkpt>
      <trkpt lat="43.72927" lon="6.99727">
        <ele>295.9</ele>
        <time>2026-05-16T07:15:33Z</time>
      </trkpt>
      <trkpt lat="43.72942" lon="6.99733">
        <ele>296.2</ele>
        <time>2026-05-16T07:15:34Z</time>
      </trkpt>
      <trkpt lat="43.72956" lon="6.99739">
        <ele>296.9</ele>
        <time>2026-05-16T07:15:35Z</time>
      </trkpt>
      <trkpt lat="43.72972" lon="6.99744">
        <ele>295.1</ele>
        <time>2026-05-16T07:15:36Z</time>
      </trkpt>
      <trkpt lat="43.72987" lon="6.99749">
        <ele>296.7</ele>
        <time>2026-05-16T07:15:37Z</time>
      </trkpt>
      <trkpt lat="43.73001" lon="6.99754">
        <ele>296.5</ele>
        <time>2026-05-16T07:15:38Z</time>
      </trkpt>
      <trkpt lat="43.73015" lon="6.99759">
        <ele>297.7</ele>
        <time>2026-05-16T07:15:39Z</time>
      </trkpt>
      <trkpt lat="43.73028" lon="6.99765">
        <ele>298.7</ele>
        <time>2026-05-16T07:15:40Z</time>
      </trkpt>
      <trkpt lat="43.73041" lon="6.9977">
        <ele>298.8</ele>
        <time>2026-05-16T07:15:41Z</time>
      </trkpt>
      <trkpt lat="43.73052" lon="6.9978">
        <ele>301.2</ele>
        <time>2026-05-16T07:15:42Z</time>
      </trkpt>
      <trkpt lat="43.73064" lon="6.9979">
        <ele>302.5</ele>
        <time>2026-05-16T07:15:43Z</time>
      </trkpt>
      <trkpt lat="43.73076" lon="6.998">
        <ele>303.2</ele>
        <time>2026-05-16T07:15:44Z</time>
      </trkpt>
      <trkpt lat="43.73089" lon="6.99809">
        <ele>303.9</ele>
        <time>2026-05-16T07:15:45Z</time>
      </trkpt>
      <trkpt lat="43.73102" lon="6.99818">
        <ele>306.3</ele>
        <time>2026-05-16T07:15:46Z</time>
      </trkpt>
      <trkpt lat="43.73115" lon="6.99826">
        <ele>307.4</ele>
        <time>2026-05-16T07:15:47Z</time>
      </trkpt>
      <trkpt lat="43.73128" lon="6.99834">
        <ele>308.3</ele>
        <time>2026-05-16T07:15:48Z</time>
      </trkpt>
      <trkpt lat="43.73141" lon="6.9984">
        <ele>310.9</ele>
        <time>2026-05-16T07:15:49Z</time>
      </trkpt>
      <trkpt lat="43.73155" lon="6.99844">
        <ele>311.9</ele>
        <time>2026-05-16T07:15:50Z</time>
      </trkpt>
      <trkpt lat="43.73169" lon="6.99846">
        <ele>310.4</ele>
        <time>2026-05-16T07:15:51Z</time>
      </trkpt>
      <trkpt lat="43.73182" lon="6.99849">
        <ele>308.2</ele>
        <time>2026-05-16T07:15:52Z</time>
      </trkpt>
      <trkpt lat="43.73195" lon="6.99857">
        <ele>308.4</ele>
        <time>2026-05-16T07:15:53Z</time>
      </trkpt>
      <trkpt lat="43.73209" lon="6.99861">
        <ele>306.2</ele>
        <time>2026-05-16T07:15:54Z</time>
      </trkpt>
      <trkpt lat="43.73223" lon="6.99868">
        <ele>306.9</ele>
        <time>2026-05-16T07:15:55Z</time>
      </trkpt>
      <trkpt lat="43.73237" lon="6.99875">
        <ele>310.1</ele>
        <time>2026-05-16T07:15:56Z</time>
      </trkpt>
      <trkpt lat="43.73253" lon="6.99881">
        <ele>311.8</ele>
        <time>2026-05-16T07:15:57Z</time>
      </trkpt>
      <trkpt lat="43.73267" lon="6.99887">
        <ele>313.5</ele>
        <time>2026-05-16T07:15:58Z</time>
      </trkpt>
      <trkpt lat="43.73281" lon="6.99893">
        <ele>316.3</ele>
        <time>2026-05-16T07:15:59Z</time>
      </trkpt>
      <trkpt lat="43.73296" lon="6.99896">
        <ele>316.4</ele>
        <time>2026-05-16T07:16:00Z</time>
      </trkpt>
      <trkpt lat="43.73312" lon="6.999">
        <ele>317.7</ele>
        <time>2026-05-16T07:16:01Z</time>
      </trkpt>
      <trkpt lat="43.73326" lon="6.99903">
        <ele>319.4</ele>
        <time>2026-05-16T07:16:02Z</time>
      </trkpt>
      <trkpt lat="43.7334" lon="6.99905">
        <ele>321</ele>
        <time>2026-05-16T07:16:03Z</time>
      </trkpt>
      <trkpt lat="43.73355" lon="6.99905">
        <ele>322.5</ele>
        <time>2026-05-16T07:16:04Z</time>
      </trkpt>
      <trkpt lat="43.73369" lon="6.99903">
        <ele>322.4</ele>
        <time>2026-05-16T07:16:05Z</time>
      </trkpt>
      <trkpt lat="43.73382" lon="6.99899">
        <ele>320.4</ele>
        <time>2026-05-16T07:16:06Z</time>
      </trkpt>
      <trkpt lat="43.73395" lon="6.99898">
        <ele>320.1</ele>
        <time>2026-05-16T07:16:07Z</time>
      </trkpt>
      <trkpt lat="43.73408" lon="6.99899">
        <ele>320.7</ele>
        <time>2026-05-16T07:16:08Z</time>
      </trkpt>
      <trkpt lat="43.73421" lon="6.99902">
        <ele>323.7</ele>
        <time>2026-05-16T07:16:09Z</time>
      </trkpt>
      <trkpt lat="43.73435" lon="6.99903">
        <ele>328.1</ele>
        <time>2026-05-16T07:16:10Z</time>
      </trkpt>
      <trkpt lat="43.73448" lon="6.99904">
        <ele>331.9</ele>
        <time>2026-05-16T07:16:11Z</time>
      </trkpt>
      <trkpt lat="43.73461" lon="6.99904">
        <ele>334.2</ele>
        <time>2026-05-16T07:16:12Z</time>
      </trkpt>
      <trkpt lat="43.73473" lon="6.99905">
        <ele>337.1</ele>
        <time>2026-05-16T07:16:13Z</time>
      </trkpt>
      <trkpt lat="43.73484" lon="6.99904">
        <ele>336.3</ele>
        <time>2026-05-16T07:16:14Z</time>
      </trkpt>
      <trkpt lat="43.73496" lon="6.99903">
        <ele>335.6</ele>
        <time>2026-05-16T07:16:15Z</time>
      </trkpt>
      <trkpt lat="43.73507" lon="6.99899">
        <ele>334</ele>
        <time>2026-05-16T07:16:16Z</time>
      </trkpt>
      <trkpt lat="43.73517" lon="6.99896">
        <ele>334.2</ele>
        <time>2026-05-16T07:16:17Z</time>
      </trkpt>
      <trkpt lat="43.73525" lon="6.99892">
        <ele>333.4</ele>
        <time>2026-05-16T07:16:18Z</time>
      </trkpt>
      <trkpt lat="43.73533" lon="6.99889">
        <ele>332.1</ele>
        <time>2026-05-16T07:16:19Z</time>
      </trkpt>
      <trkpt lat="43.73542" lon="6.99886">
        <ele>330.6</ele>
        <time>2026-05-16T07:16:20Z</time>
      </trkpt>
      <trkpt lat="43.73551" lon="6.99885">
        <ele>330</ele>
        <time>2026-05-16T07:16:21Z</time>
      </trkpt>
      <trkpt lat="43.7356" lon="6.99887">
        <ele>330.1</ele>
        <time>2026-05-16T07:16:22Z</time>
      </trkpt>
      <trkpt lat="43.73569" lon="6.99893">
        <ele>332.2</ele>
        <time>2026-05-16T07:16:23Z</time>
      </trkpt>
      <trkpt lat="43.73579" lon="6.999">
        <ele>334.4</ele>
        <time>2026-05-16T07:16:24Z</time>
      </trkpt>
      <trkpt lat="43.73588" lon="6.9991">
        <ele>337.7</ele>
        <time>2026-05-16T07:16:25Z</time>
      </trkpt>
      <trkpt lat="43.73595" lon="6.99921">
        <ele>343</ele>
        <time>2026-05-16T07:16:26Z</time>
      </trkpt>
      <trkpt lat="43.73603" lon="6.99933">
        <ele>350.1</ele>
        <time>2026-05-16T07:16:27Z</time>
      </trkpt>
      <trkpt lat="43.7361" lon="6.99946">
        <ele>359.2</ele>
        <time>2026-05-16T07:16:28Z</time>
      </trkpt>
      <trkpt lat="43.73618" lon="6.99958">
        <ele>375.1</ele>
        <time>2026-05-16T07:16:29Z</time>
      </trkpt>
      <trkpt lat="43.73935" lon="7.00065">
        <ele>375.3</ele>
        <time>2026-05-16T07:16:52Z</time>
      </trkpt>
      <trkpt lat="43.73952" lon="7.00065">
        <ele>373.1</ele>
        <time>2026-05-16T07:16:53Z</time>
      </trkpt>
      <trkpt lat="43.73967" lon="7.00068">
        <ele>375.7</ele>
        <time>2026-05-16T07:16:54Z</time>
      </trkpt>
      <trkpt lat="43.73981" lon="7.00076">
        <ele>386.7</ele>
        <time>2026-05-16T07:16:55Z</time>
      </trkpt>
      <trkpt lat="43.73997" lon="7.00072">
        <ele>385.6</ele>
        <time>2026-05-16T07:16:56Z</time>
      </trkpt>
      <trkpt lat="43.74012" lon="7.00074">
        <ele>393.5</ele>
        <time>2026-05-16T07:16:57Z</time>
      </trkpt>
      <trkpt lat="43.74026" lon="7.00073">
        <ele>397.3</ele>
        <time>2026-05-16T07:16:58Z</time>
      </trkpt>
      <trkpt lat="43.7404" lon="7.00072">
        <ele>400.1</ele>
        <time>2026-05-16T07:16:59Z</time>
      </trkpt>
      <trkpt lat="43.74054" lon="7.0007">
        <ele>400.9</ele>
        <time>2026-05-16T07:17:00Z</time>
      </trkpt>
      <trkpt lat="43.74067" lon="7.0007">
        <ele>404.7</ele>
        <time>2026-05-16T07:17:01Z</time>
      </trkpt>
      <trkpt lat="43.74079" lon="7.00073">
        <ele>413</ele>
        <time>2026-05-16T07:17:02Z</time>
      </trkpt>
      <trkpt lat="43.74089" lon="7.00078">
        <ele>424.5</ele>
        <time>2026-05-16T07:17:03Z</time>
      </trkpt>
      <trkpt lat="43.74099" lon="7.0008">
        <ele>431.4</ele>
        <time>2026-05-16T07:17:04Z</time>
      </trkpt>
      <trkpt lat="43.7411" lon="7.00076">
        <ele>429.5</ele>
        <time>2026-05-16T07:17:05Z</time>
      </trkpt>
      <trkpt lat="43.74121" lon="7.00069">
        <ele>424</ele>
        <time>2026-05-16T07:17:06Z</time>
      </trkpt>
      <trkpt lat="43.74134" lon="7.00064">
        <ele>422.8</ele>
        <time>2026-05-16T07:17:07Z</time>
      </trkpt>
      <trkpt lat="43.74147" lon="7.00061">
        <ele>422.9</ele>
        <time>2026-05-16T07:17:08Z</time>
      </trkpt>
      <trkpt lat="43.74159" lon="7.00059">
        <ele>423.6</ele>
        <time>2026-05-16T07:17:09Z</time>
      </trkpt>
      <trkpt lat="43.7417" lon="7.00055">
        <ele>421.5</ele>
        <time>2026-05-16T07:17:10Z</time>
      </trkpt>
      <trkpt lat="43.74179" lon="7.00049">
        <ele>414.8</ele>
        <time>2026-05-16T07:17:11Z</time>
      </trkpt>
      <trkpt lat="43.74188" lon="7.00039">
        <ele>406.6</ele>
        <time>2026-05-16T07:17:12Z</time>
      </trkpt>
      <trkpt lat="43.74196" lon="7.0003">
        <ele>403.2</ele>
        <time>2026-05-16T07:17:13Z</time>
      </trkpt>
      <trkpt lat="43.74208" lon="7.00021">
        <ele>402.5</ele>
        <time>2026-05-16T07:17:14Z</time>
      </trkpt>
      <trkpt lat="43.74218" lon="7.00013">
        <ele>399.8</ele>
        <time>2026-05-16T07:17:15Z</time>
      </trkpt>
      <trkpt lat="43.7423" lon="7.00004">
        <ele>394.6</ele>
        <time>2026-05-16T07:17:16Z</time>
      </trkpt>
      <trkpt lat="43.74239" lon="6.99993">
        <ele>385.9</ele>
        <time>2026-05-16T07:17:17Z</time>
      </trkpt>
      <trkpt lat="43.74252" lon="6.99987">
        <ele>384</ele>
        <time>2026-05-16T07:17:18Z</time>
      </trkpt>
      <trkpt lat="43.74263" lon="6.99977">
        <ele>381.3</ele>
        <time>2026-05-16T07:17:19Z</time>
      </trkpt>
      <trkpt lat="43.74268" lon="6.9996">
        <ele>375.6</ele>
        <time>2026-05-16T07:17:20Z</time>
      </trkpt>
      <trkpt lat="43.74272" lon="6.99942">
        <ele>369.3</ele>
        <time>2026-05-16T07:17:21Z</time>
      </trkpt>
      <trkpt lat="43.74278" lon="6.99928">
        <ele>382.1</ele>
        <time>2026-05-16T07:17:22Z</time>
      </trkpt>
      <trkpt lat="43.74284" lon="6.99915">
        <ele>393.7</ele>
        <time>2026-05-16T07:17:23Z</time>
      </trkpt>
      <trkpt lat="43.74295" lon="6.99912">
        <ele>389.7</ele>
        <time>2026-05-16T07:17:24Z</time>
      </trkpt>
      <trkpt lat="43.74305" lon="6.99911">
        <ele>384.6</ele>
        <time>2026-05-16T07:17:25Z</time>
      </trkpt>
      <trkpt lat="43.74316" lon="6.99913">
        <ele>380.1</ele>
        <time>2026-05-16T07:17:26Z</time>
      </trkpt>
      <trkpt lat="43.74327" lon="6.99913">
        <ele>377.7</ele>
        <time>2026-05-16T07:17:27Z</time>
      </trkpt>
      <trkpt lat="43.74337" lon="6.99911">
        <ele>378.4</ele>
        <time>2026-05-16T07:17:28Z</time>
      </trkpt>
      <trkpt lat="43.74347" lon="6.99907">
        <ele>382.7</ele>
        <time>2026-05-16T07:17:29Z</time>
      </trkpt>
      <trkpt lat="43.74356" lon="6.99904">
        <ele>386</ele>
        <time>2026-05-16T07:17:30Z</time>
      </trkpt>
      <trkpt lat="43.74364" lon="6.99903">
        <ele>387.8</ele>
        <time>2026-05-16T07:17:31Z</time>
      </trkpt>
      <trkpt lat="43.74372" lon="6.99903">
        <ele>389.1</ele>
        <time>2026-05-16T07:17:32Z</time>
      </trkpt>
      <trkpt lat="43.74379" lon="6.99906">
        <ele>387.9</ele>
        <time>2026-05-16T07:17:33Z</time>
      </trkpt>
      <trkpt lat="43.74386" lon="6.9991">
        <ele>386.2</ele>
        <time>2026-05-16T07:17:34Z</time>
      </trkpt>
      <trkpt lat="43.74394" lon="6.99914">
        <ele>384</ele>
        <time>2026-05-16T07:17:35Z</time>
      </trkpt>
      <trkpt lat="43.74404" lon="6.99918">
        <ele>381.5</ele>
        <time>2026-05-16T07:17:36Z</time>
      </trkpt>
      <trkpt lat="43.74414" lon="6.99919">
        <ele>381.4</ele>
        <time>2026-05-16T07:17:37Z</time>
      </trkpt>
      <trkpt lat="43.74425" lon="6.99914">
        <ele>385</ele>
        <time>2026-05-16T07:17:38Z</time>
      </trkpt>
      <trkpt lat="43.74437" lon="6.99911">
        <ele>388.9</ele>
        <time>2026-05-16T07:17:39Z</time>
      </trkpt>
      <trkpt lat="43.74449" lon="6.9991">
        <ele>390.1</ele>
        <time>2026-05-16T07:17:40Z</time>
      </trkpt>
      <trkpt lat="43.74462" lon="6.99909">
        <ele>389.5</ele>
        <time>2026-05-16T07:17:41Z</time>
      </trkpt>
      <trkpt lat="43.74475" lon="6.99906">
        <ele>391.4</ele>
        <time>2026-05-16T07:17:42Z</time>
      </trkpt>
      <trkpt lat="43.74489" lon="6.99904">
        <ele>389.9</ele>
        <time>2026-05-16T07:17:43Z</time>
      </trkpt>
      <trkpt lat="43.74502" lon="6.99898">
        <ele>392.8</ele>
        <time>2026-05-16T07:17:44Z</time>
      </trkpt>
      <trkpt lat="43.74515" lon="6.99891">
        <ele>397.1</ele>
        <time>2026-05-16T07:17:45Z</time>
      </trkpt>
      <trkpt lat="43.74528" lon="6.99885">
        <ele>399.8</ele>
        <time>2026-05-16T07:17:46Z</time>
      </trkpt>
      <trkpt lat="43.74543" lon="6.99882">
        <ele>401.2</ele>
        <time>2026-05-16T07:17:47Z</time>
      </trkpt>
      <trkpt lat="43.74556" lon="6.99878">
        <ele>403.3</ele>
        <time>2026-05-16T07:17:48Z</time>
      </trkpt>
      <trkpt lat="43.74568" lon="6.99876">
        <ele>403.4</ele>
        <time>2026-05-16T07:17:49Z</time>
      </trkpt>
      <trkpt lat="43.74579" lon="6.99874">
        <ele>403.4</ele>
        <time>2026-05-16T07:17:50Z</time>
      </trkpt>
      <trkpt lat="43.74589" lon="6.99872">
        <ele>402.9</ele>
        <time>2026-05-16T07:17:51Z</time>
      </trkpt>
      <trkpt lat="43.74598" lon="6.99869">
        <ele>402.7</ele>
        <time>2026-05-16T07:17:52Z</time>
      </trkpt>
      <trkpt lat="43.74606" lon="6.99865">
        <ele>403.1</ele>
        <time>2026-05-16T07:17:53Z</time>
      </trkpt>
      <trkpt lat="43.74613" lon="6.99859">
        <ele>405</ele>
        <time>2026-05-16T07:17:54Z</time>
      </trkpt>
      <trkpt lat="43.74619" lon="6.99854">
        <ele>407.9</ele>
        <time>2026-05-16T07:17:55Z</time>
      </trkpt>
      <trkpt lat="43.74625" lon="6.9985">
        <ele>410.6</ele>
        <time>2026-05-16T07:17:56Z</time>
      </trkpt>
      <trkpt lat="43.74632" lon="6.99847">
        <ele>413.2</ele>
        <time>2026-05-16T07:17:57Z</time>
      </trkpt>
      <trkpt lat="43.74639" lon="6.99843">
        <ele>417</ele>
        <time>2026-05-16T07:17:58Z</time>
      </trkpt>
      <trkpt lat="43.74646" lon="6.99841">
        <ele>417.7</ele>
        <time>2026-05-16T07:17:59Z</time>
      </trkpt>
      <trkpt lat="43.74653" lon="6.99839">
        <ele>418.8</ele>
        <time>2026-05-16T07:18:00Z</time>
      </trkpt>
      <trkpt lat="43.74659" lon="6.99836">
        <ele>421.4</ele>
        <time>2026-05-16T07:18:01Z</time>
      </trkpt>
      <trkpt lat="43.74664" lon="6.99833">
        <ele>424.2</ele>
        <time>2026-05-16T07:18:02Z</time>
      </trkpt>
      <trkpt lat="43.7467" lon="6.99829">
        <ele>424.9</ele>
        <time>2026-05-16T07:18:03Z</time>
      </trkpt>
      <trkpt lat="43.74677" lon="6.99826">
        <ele>424.7</ele>
        <time>2026-05-16T07:18:04Z</time>
      </trkpt>
      <trkpt lat="43.74683" lon="6.99822">
        <ele>424.8</ele>
        <time>2026-05-16T07:18:05Z</time>
      </trkpt>
      <trkpt lat="43.7469" lon="6.99818">
        <ele>424.7</ele>
        <time>2026-05-16T07:18:06Z</time>
      </trkpt>
      <trkpt lat="43.74696" lon="6.99817">
        <ele>423.8</ele>
        <time>2026-05-16T07:18:07Z</time>
      </trkpt>
      <trkpt lat="43.74703" lon="6.99814">
        <ele>423</ele>
        <time>2026-05-16T07:18:08Z</time>
      </trkpt>
      <trkpt lat="43.74709" lon="6.99811">
        <ele>422.5</ele>
        <time>2026-05-16T07:18:09Z</time>
      </trkpt>
      <trkpt lat="43.74751" lon="6.99783">
        <ele>411.1</ele>
        <time>2026-05-16T07:18:18Z</time>
      </trkpt>
      <trkpt lat="43.74757" lon="6.9978">
        <ele>410.4</ele>
        <time>2026-05-16T07:18:19Z</time>
      </trkpt>
      <trkpt lat="43.7476" lon="6.99779">
        <ele>410</ele>
        <time>2026-05-16T07:18:20Z</time>
      </trkpt>
      <trkpt lat="43.74763" lon="6.99781">
        <ele>409.3</ele>
        <time>2026-05-16T07:18:21Z</time>
      </trkpt>
      <trkpt lat="43.74764" lon="6.99784">
        <ele>408.7</ele>
        <time>2026-05-16T07:18:22Z</time>
      </trkpt>
      <trkpt lat="43.74766" lon="6.99787">
        <ele>408</ele>
        <time>2026-05-16T07:18:23Z</time>
      </trkpt>
      <trkpt lat="43.74768" lon="6.9979">
        <ele>407.3</ele>
        <time>2026-05-16T07:18:24Z</time>
      </trkpt>
      <trkpt lat="43.74767" lon="6.99794">
        <ele>407</ele>
        <time>2026-05-16T07:18:25Z</time>
      </trkpt>
      <trkpt lat="43.74767" lon="6.99798">
        <ele>406.5</ele>
        <time>2026-05-16T07:18:26Z</time>
      </trkpt>
      <trkpt lat="43.74767" lon="6.99802">
        <ele>406</ele>
        <time>2026-05-16T07:18:27Z</time>
      </trkpt>
      <trkpt lat="43.74768" lon="6.99806">
        <ele>405.4</ele>
        <time>2026-05-16T07:18:28Z</time>
      </trkpt>
      <trkpt lat="43.7477" lon="6.99809">
        <ele>405.1</ele>
        <time>2026-05-16T07:18:29Z</time>
      </trkpt>
      <trkpt lat="43.74771" lon="6.99812">
        <ele>404.9</ele>
        <time>2026-05-16T07:18:30Z</time>
      </trkpt>
      <trkpt lat="43.74774" lon="6.99813">
        <ele>404.5</ele>
        <time>2026-05-16T07:18:31Z</time>
      </trkpt>
      <trkpt lat="43.74776" lon="6.99813">
        <ele>404.2</ele>
        <time>2026-05-16T07:18:32Z</time>
      </trkpt>
      <trkpt lat="43.74778" lon="6.99812">
        <ele>404</ele>
        <time>2026-05-16T07:18:33Z</time>
      </trkpt>
      <trkpt lat="43.7478" lon="6.9981">
        <ele>403.9</ele>
        <time>2026-05-16T07:18:34Z</time>
      </trkpt>
      <trkpt lat="43.74781" lon="6.99807">
        <ele>403.9</ele>
        <time>2026-05-16T07:18:35Z</time>
      </trkpt>
      <trkpt lat="43.74782" lon="6.99805">
        <ele>403.9</ele>
        <time>2026-05-16T07:18:36Z</time>
      </trkpt>
      <trkpt lat="43.74783" lon="6.99802">
        <ele>404.1</ele>
        <time>2026-05-16T07:18:37Z</time>
      </trkpt>
      <trkpt lat="43.74783" lon="6.99799">
        <ele>404.3</ele>
        <time>2026-05-16T07:18:38Z</time>
      </trkpt>
      <trkpt lat="43.74782" lon="6.99798">
        <ele>404.5</ele>
        <time>2026-05-16T07:18:39Z</time>
      </trkpt>
      <trkpt lat="43.74782" lon="6.99797">
        <ele>404.6</ele>
        <time>2026-05-16T07:18:40Z</time>
      </trkpt>
      <trkpt lat="43.74782" lon="6.99796">
        <ele>404.7</ele>
        <time>2026-05-16T07:18:41Z</time>
      </trkpt>
      <trkpt lat="43.74782" lon="6.99796">
        <ele>404.7</ele>
        <time>2026-05-16T07:18:42Z</time>
      </trkpt>
      <trkpt lat="43.74781" lon="6.99795">
        <ele>404.8</ele>
        <time>2026-05-16T07:18:43Z</time>
      </trkpt>
      <trkpt lat="43.7478" lon="6.99794">
        <ele>405</ele>
        <time>2026-05-16T07:18:44Z</time>
      </trkpt>
      <trkpt lat="43.7478" lon="6.99793">
        <ele>405.1</ele>
        <time>2026-05-16T07:18:45Z</time>
      </trkpt>
      <trkpt lat="43.74779" lon="6.99793">
        <ele>405.2</ele>
        <time>2026-05-16T07:18:46Z</time>
      </trkpt>
      <trkpt lat="43.74778" lon="6.99793">
        <ele>405.3</ele>
        <time>2026-05-16T07:18:47Z</time>
      </trkpt>
      <trkpt lat="43.74778" lon="6.99793">
        <ele>405.3</ele>
        <time>2026-05-16T07:18:48Z</time>
      </trkpt>
      <trkpt lat="43.74777" lon="6.99793">
        <ele>405.5</ele>
        <time>2026-05-16T07:18:49Z</time>
      </trkpt>
      <trkpt lat="43.74777" lon="6.99793">
        <ele>405.5</ele>
        <time>2026-05-16T07:18:50Z</time>
      </trkpt>
      <trkpt lat="43.74777" lon="6.99793">
        <ele>405.5</ele>
        <time>2026-05-16T07:18:51Z</time>
      </trkpt>
      <trkpt lat="43.74777" lon="6.99793">
        <ele>405.5</ele>
        <time>2026-05-16T07:18:52Z</time>
      </trkpt>
      <trkpt lat="43.74777" lon="6.99793">
        <ele>405.5</ele>
        <time>2026-05-16T07:18:53Z</time>
      </trkpt>
      <trkpt lat="43.74777" lon="6.99793">
        <ele>405.5</ele>
        <time>2026-05-16T07:18:54Z</time>
      </trkpt>
      <trkpt lat="43.74777" lon="6.99793">
        <ele>405.5</ele>
        <time>2026-05-16T07:18:55Z</time>
      </trkpt>
      <trkpt lat="43.74777" lon="6.99794">
        <ele>405.4</ele>
        <time>2026-05-16T07:18:56Z</time>
      </trkpt>
      <trkpt lat="43.74777" lon="6.99794">
        <ele>405.4</ele>
        <time>2026-05-16T07:18:57Z</time>
      </trkpt>
      <trkpt lat="43.74777" lon="6.99794">
        <ele>405.4</ele>
        <time>2026-05-16T07:18:58Z</time>
      </trkpt>
      <trkpt lat="43.74777" lon="6.99794">
        <ele>405.4</ele>
        <time>2026-05-16T07:18:59Z</time>
      </trkpt>
      <trkpt lat="43.74777" lon="6.99795">
        <ele>405.3</ele>
        <time>2026-05-16T07:19:00Z</time>
      </trkpt>
      <trkpt lat="43.74777" lon="6.99795">
        <ele>405.3</ele>
        <time>2026-05-16T07:19:01Z</time>
      </trkpt>
      <trkpt lat="43.74777" lon="6.99795">
        <ele>405.3</ele>
        <time>2026-05-16T07:19:02Z</time>
      </trkpt>
      <trkpt lat="43.74777" lon="6.99795">
        <ele>405.3</ele>
        <time>2026-05-16T07:19:03Z</time>
      </trkpt>
      <trkpt lat="43.74777" lon="6.99795">
        <ele>405.3</ele>
        <time>2026-05-16T07:19:04Z</time>
      </trkpt>
      <trkpt lat="43.74777" lon="6.99795">
        <ele>405.3</ele>
        <time>2026-05-16T07:19:05Z</time>
      </trkpt>
      <trkpt lat="43.74777" lon="6.99795">
        <ele>405.3</ele>
        <time>2026-05-16T07:19:06Z</time>
      </trkpt>
      <trkpt lat="43.74777" lon="6.99795">
        <ele>405.3</ele>
        <time>2026-05-16T07:19:07Z</time>
      </trkpt>
      <trkpt lat="43.74777" lon="6.99795">
        <ele>405.3</ele>
        <time>2026-05-16T07:19:08Z</time>
      </trkpt>
      <trkpt lat="43.74777" lon="6.99795">
        <ele>405.3</ele>
        <time>2026-05-16T07:19:09Z</time>
      </trkpt>
      <trkpt lat="43.74777" lon="6.99796">
        <ele>405.2</ele>
        <time>2026-05-16T07:19:10Z</time>
      </trkpt>
      <trkpt lat="43.74777" lon="6.99796">
        <ele>405.2</ele>
        <time>2026-05-16T07:19:11Z</time>
      </trkpt>
      <trkpt lat="43.74776" lon="6.99796">
        <ele>405.3</ele>
        <time>2026-05-16T07:19:13Z</time>
      </trkpt>
      <trkpt lat="43.74776" lon="6.99796">
        <ele>405.3</ele>
        <time>2026-05-16T07:19:14Z</time>
      </trkpt>
      <trkpt lat="43.74772" lon="6.99796">
        <ele>405.9</ele>
        <time>2026-05-16T07:56:27Z</time>
      </trkpt>
      <trkpt lat="43.74775" lon="6.99797">
        <ele>405.4</ele>
        <time>2026-05-16T07:56:28Z</time>
      </trkpt>
      <trkpt lat="43.74778" lon="6.99795">
        <ele>405.1</ele>
        <time>2026-05-16T07:56:29Z</time>
      </trkpt>
      <trkpt lat="43.74778" lon="6.99793">
        <ele>405.3</ele>
        <time>2026-05-16T07:56:30Z</time>
      </trkpt>
      <trkpt lat="43.74777" lon="6.99791">
        <ele>405.7</ele>
        <time>2026-05-16T07:56:31Z</time>
      </trkpt>
      <trkpt lat="43.74776" lon="6.99791">
        <ele>405.9</ele>
        <time>2026-05-16T07:56:32Z</time>
      </trkpt>
      <trkpt lat="43.74776" lon="6.99791">
        <ele>405.9</ele>
        <time>2026-05-16T07:56:33Z</time>
      </trkpt>
      <trkpt lat="43.74777" lon="6.9979">
        <ele>405.8</ele>
        <time>2026-05-16T07:56:34Z</time>
      </trkpt>
      <trkpt lat="43.74777" lon="6.9979">
        <ele>405.8</ele>
        <time>2026-05-16T07:56:35Z</time>
      </trkpt>
      <trkpt lat="43.74778" lon="6.9979">
        <ele>405.7</ele>
        <time>2026-05-16T07:56:36Z</time>
      </trkpt>
      <trkpt lat="43.74778" lon="6.99791">
        <ele>405.5</ele>
        <time>2026-05-16T07:56:37Z</time>
      </trkpt>
      <trkpt lat="43.74778" lon="6.99791">
        <ele>405.5</ele>
        <time>2026-05-16T07:56:38Z</time>
      </trkpt>
      <trkpt lat="43.74777" lon="6.99792">
        <ele>405.6</ele>
        <time>2026-05-16T07:56:39Z</time>
      </trkpt>
      <trkpt lat="43.74777" lon="6.99792">
        <ele>405.6</ele>
        <time>2026-05-16T07:56:40Z</time>
      </trkpt>
      <trkpt lat="43.74777" lon="6.99792">
        <ele>405.6</ele>
        <time>2026-05-16T07:56:41Z</time>
      </trkpt>
      <trkpt lat="43.74778" lon="6.99792">
        <ele>405.4</ele>
        <time>2026-05-16T07:56:42Z</time>
      </trkpt>
      <trkpt lat="43.74778" lon="6.99792">
        <ele>405.4</ele>
        <time>2026-05-16T07:56:43Z</time>
      </trkpt>
      <trkpt lat="43.74778" lon="6.99792">
        <ele>405.4</ele>
        <time>2026-05-16T07:56:44Z</time>
      </trkpt>
      <trkpt lat="43.74778" lon="6.99792">
        <ele>405.4</ele>
        <time>2026-05-16T07:56:45Z</time>
      </trkpt>
      <trkpt lat="43.74778" lon="6.99792">
        <ele>405.4</ele>
        <time>2026-05-16T07:56:46Z</time>
      </trkpt>
      <trkpt lat="43.74778" lon="6.99792">
        <ele>405.4</ele>
        <time>2026-05-16T07:56:47Z</time>
      </trkpt>
      <trkpt lat="43.74778" lon="6.99792">
        <ele>405.4</ele>
        <time>2026-05-16T07:56:48Z</time>
      </trkpt>
      <trkpt lat="43.74778" lon="6.99792">
        <ele>405.4</ele>
        <time>2026-05-16T07:56:49Z</time>
      </trkpt>
      <trkpt lat="43.74778" lon="6.99792">
        <ele>405.4</ele>
        <time>2026-05-16T07:56:50Z</time>
      </trkpt>
      <trkpt lat="43.74778" lon="6.99792">
        <ele>405.4</ele>
        <time>2026-05-16T07:56:51Z</time>
      </trkpt>
      <trkpt lat="43.74778" lon="6.99792">
        <ele>405.4</ele>
        <time>2026-05-16T07:56:52Z</time>
      </trkpt>
      <trkpt lat="43.74778" lon="6.99792">
        <ele>405.4</ele>
        <time>2026-05-16T07:56:53Z</time>
      </trkpt>
      <trkpt lat="43.74778" lon="6.99792">
        <ele>405.4</ele>
        <time>2026-05-16T07:56:54Z</time>
      </trkpt>
      <trkpt lat="43.74778" lon="6.99792">
        <ele>405.4</ele>
        <time>2026-05-16T07:56:55Z</time>
      </trkpt>
      <trkpt lat="43.74778" lon="6.99792">
        <ele>405.4</ele>
        <time>2026-05-16T07:56:56Z</time>
      </trkpt>
      <trkpt lat="43.74778" lon="6.99792">
        <ele>405.4</ele>
        <time>2026-05-16T07:56:57Z</time>
      </trkpt>
      <trkpt lat="43.74778" lon="6.99792">
        <ele>405.4</ele>
        <time>2026-05-16T07:56:58Z</time>
      </trkpt>
      <trkpt lat="43.74778" lon="6.99792">
        <ele>405.4</ele>
        <time>2026-05-16T07:56:59Z</time>
      </trkpt>
      <trkpt lat="43.74778" lon="6.99792">
        <ele>405.4</ele>
        <time>2026-05-16T07:57:00Z</time>
      </trkpt>
      <trkpt lat="43.74778" lon="6.99792">
        <ele>405.4</ele>
        <time>2026-05-16T07:57:01Z</time>
      </trkpt>
      <trkpt lat="43.74778" lon="6.99792">
        <ele>405.4</ele>
        <time>2026-05-16T07:57:02Z</time>
      </trkpt>
      <trkpt lat="43.74778" lon="6.99792">
        <ele>405.4</ele>
        <time>2026-05-16T07:57:03Z</time>
      </trkpt>
      <trkpt lat="43.74778" lon="6.99792">
        <ele>405.4</ele>
        <time>2026-05-16T07:57:04Z</time>
      </trkpt>
      <trkpt lat="43.74778" lon="6.99792">
        <ele>405.4</ele>
        <time>2026-05-16T07:57:05Z</time>
      </trkpt>
      <trkpt lat="43.74778" lon="6.99791">
        <ele>405.5</ele>
        <time>2026-05-16T07:57:06Z</time>
      </trkpt>
      <trkpt lat="43.74778" lon="6.9979">
        <ele>405.7</ele>
        <time>2026-05-16T07:57:07Z</time>
      </trkpt>
      <trkpt lat="43.74778" lon="6.99789">
        <ele>405.8</ele>
        <time>2026-05-16T07:57:08Z</time>
      </trkpt>
      <trkpt lat="43.74778" lon="6.99788">
        <ele>405.9</ele>
        <time>2026-05-16T07:57:09Z</time>
      </trkpt>
      <trkpt lat="43.74778" lon="6.99787">
        <ele>406</ele>
        <time>2026-05-16T07:57:10Z</time>
      </trkpt>
      <trkpt lat="43.74778" lon="6.99785">
        <ele>406.2</ele>
        <time>2026-05-16T07:57:11Z</time>
      </trkpt>
      <trkpt lat="43.74778" lon="6.99784">
        <ele>406.3</ele>
        <time>2026-05-16T07:57:12Z</time>
      </trkpt>
      <trkpt lat="43.74778" lon="6.99783">
        <ele>406.4</ele>
        <time>2026-05-16T07:57:13Z</time>
      </trkpt>
      <trkpt lat="43.74779" lon="6.99782">
        <ele>406.4</ele>
        <time>2026-05-16T07:57:14Z</time>
      </trkpt>
      <trkpt lat="43.74778" lon="6.99782">
        <ele>406.5</ele>
        <time>2026-05-16T07:57:15Z</time>
      </trkpt>
      <trkpt lat="43.74778" lon="6.99782">
        <ele>406.5</ele>
        <time>2026-05-16T07:57:16Z</time>
      </trkpt>
      <trkpt lat="43.74778" lon="6.99782">
        <ele>406.5</ele>
        <time>2026-05-16T07:57:17Z</time>
      </trkpt>
      <trkpt lat="43.74778" lon="6.99782">
        <ele>406.5</ele>
        <time>2026-05-16T07:57:18Z</time>
      </trkpt>
      <trkpt lat="43.74778" lon="6.99782">
        <ele>406.5</ele>
        <time>2026-05-16T07:57:19Z</time>
      </trkpt>
      <trkpt lat="43.74778" lon="6.99782">
        <ele>406.5</ele>
        <time>2026-05-16T07:57:20Z</time>
      </trkpt>
      <trkpt lat="43.74778" lon="6.99782">
        <ele>406.5</ele>
        <time>2026-05-16T07:57:21Z</time>
      </trkpt>
      <trkpt lat="43.74778" lon="6.99782">
        <ele>406.5</ele>
        <time>2026-05-16T07:57:22Z</time>
      </trkpt>
      <trkpt lat="43.74778" lon="6.99782">
        <ele>406.5</ele>
        <time>2026-05-16T07:57:23Z</time>
      </trkpt>
      <trkpt lat="43.74778" lon="6.99782">
        <ele>406.5</ele>
        <time>2026-05-16T07:57:24Z</time>
      </trkpt>
      <trkpt lat="43.74778" lon="6.99782">
        <ele>406.5</ele>
        <time>2026-05-16T07:57:25Z</time>
      </trkpt>
      <trkpt lat="43.74778" lon="6.99782">
        <ele>406.5</ele>
        <time>2026-05-16T07:57:26Z</time>
      </trkpt>
      <trkpt lat="43.74778" lon="6.99782">
        <ele>406.5</ele>
        <time>2026-05-16T07:57:27Z</time>
      </trkpt>
      <trkpt lat="43.74778" lon="6.99782">
        <ele>406.5</ele>
        <time>2026-05-16T07:57:28Z</time>
      </trkpt>
      <trkpt lat="43.74778" lon="6.99782">
        <ele>406.5</ele>
        <time>2026-05-16T07:57:29Z</time>
      </trkpt>
      <trkpt lat="43.74778" lon="6.99782">
        <ele>406.5</ele>
        <time>2026-05-16T07:57:30Z</time>
      </trkpt>
      <trkpt lat="43.74778" lon="6.99782">
        <ele>406.5</ele>
        <time>2026-05-16T07:57:31Z</time>
      </trkpt>
      <trkpt lat="43.74778" lon="6.99782">
        <ele>406.5</ele>
        <time>2026-05-16T07:57:32Z</time>
      </trkpt>
      <trkpt lat="43.74778" lon="6.99782">
        <ele>406.5</ele>
        <time>2026-05-16T07:57:33Z</time>
      </trkpt>
      <trkpt lat="43.74778" lon="6.99782">
        <ele>406.5</ele>
        <time>2026-05-16T07:57:34Z</time>
      </trkpt>
      <trkpt lat="43.74778" lon="6.99782">
        <ele>406.5</ele>
        <time>2026-05-16T07:57:35Z</time>
      </trkpt>
      <trkpt lat="43.74778" lon="6.99782">
        <ele>406.5</ele>
        <time>2026-05-16T07:57:36Z</time>
      </trkpt>
      <trkpt lat="43.74778" lon="6.99782">
        <ele>406.5</ele>
        <time>2026-05-16T07:57:37Z</time>
      </trkpt>
      <trkpt lat="43.74778" lon="6.99782">
        <ele>406.5</ele>
        <time>2026-05-16T07:57:38Z</time>
      </trkpt>
      <trkpt lat="43.74778" lon="6.99782">
        <ele>406.5</ele>
        <time>2026-05-16T07:57:39Z</time>
      </trkpt>
      <trkpt lat="43.74778" lon="6.99782">
        <ele>406.5</ele>
        <time>2026-05-16T07:57:40Z</time>
      </trkpt>
      <trkpt lat="43.74778" lon="6.99782">
        <ele>406.5</ele>
        <time>2026-05-16T07:57:41Z</time>
      </trkpt>
      <trkpt lat="43.74778" lon="6.99782">
        <ele>406.5</ele>
        <time>2026-05-16T07:57:42Z</time>
      </trkpt>
      <trkpt lat="43.74778" lon="6.99782">
        <ele>406.5</ele>
        <time>2026-05-16T07:57:43Z</time>
      </trkpt>
      <trkpt lat="43.74778" lon="6.99782">
        <ele>406.5</ele>
        <time>2026-05-16T07:57:44Z</time>
      </trkpt>
      <trkpt lat="43.74778" lon="6.99782">
        <ele>406.5</ele>
        <time>2026-05-16T07:57:45Z</time>
      </trkpt>
      <trkpt lat="43.74778" lon="6.99782">
        <ele>406.5</ele>
        <time>2026-05-16T07:57:46Z</time>
      </trkpt>
      <trkpt lat="43.74778" lon="6.99782">
        <ele>406.5</ele>
        <time>2026-05-16T07:57:47Z</time>
      </trkpt>
      <trkpt lat="43.74778" lon="6.99782">
        <ele>406.5</ele>
        <time>2026-05-16T07:57:48Z</time>
      </trkpt>
      <trkpt lat="43.74778" lon="6.99782">
        <ele>406.5</ele>
        <time>2026-05-16T07:57:49Z</time>
      </trkpt>
      <trkpt lat="43.74778" lon="6.99782">
        <ele>406.5</ele>
        <time>2026-05-16T07:57:50Z</time>
      </trkpt>
      <trkpt lat="43.74778" lon="6.99782">
        <ele>406.5</ele>
        <time>2026-05-16T07:57:51Z</time>
      </trkpt>
      <trkpt lat="43.74778" lon="6.99781">
        <ele>406.6</ele>
        <time>2026-05-16T07:57:52Z</time>
      </trkpt>
      <trkpt lat="43.74778" lon="6.9978">
        <ele>406.7</ele>
        <time>2026-05-16T07:57:53Z</time>
      </trkpt>
      <trkpt lat="43.74778" lon="6.9978">
        <ele>406.7</ele>
        <time>2026-05-16T07:57:54Z</time>
      </trkpt>
      <trkpt lat="43.74778" lon="6.9978">
        <ele>406.7</ele>
        <time>2026-05-16T07:57:55Z</time>
      </trkpt>
      <trkpt lat="43.74778" lon="6.9978">
        <ele>406.7</ele>
        <time>2026-05-16T07:57:56Z</time>
      </trkpt>
      <trkpt lat="43.74778" lon="6.9978">
        <ele>406.7</ele>
        <time>2026-05-16T07:57:57Z</time>
      </trkpt>
      <trkpt lat="43.74778" lon="6.9978">
        <ele>406.7</ele>
        <time>2026-05-16T07:57:58Z</time>
      </trkpt>
      <trkpt lat="43.74778" lon="6.9978">
        <ele>406.7</ele>
        <time>2026-05-16T07:57:59Z</time>
      </trkpt>
      <trkpt lat="43.74778" lon="6.9978">
        <ele>406.7</ele>
        <time>2026-05-16T07:58:00Z</time>
      </trkpt>
      <trkpt lat="43.74778" lon="6.9978">
        <ele>406.7</ele>
        <time>2026-05-16T07:58:01Z</time>
      </trkpt>
      <trkpt lat="43.74778" lon="6.99779">
        <ele>406.8</ele>
        <time>2026-05-16T07:58:02Z</time>
      </trkpt>
      <trkpt lat="43.74778" lon="6.9978">
        <ele>406.7</ele>
        <time>2026-05-16T07:58:03Z</time>
      </trkpt>
      <trkpt lat="43.74778" lon="6.9978">
        <ele>406.7</ele>
        <time>2026-05-16T07:58:04Z</time>
      </trkpt>
      <trkpt lat="43.74778" lon="6.9978">
        <ele>406.7</ele>
        <time>2026-05-16T07:58:05Z</time>
      </trkpt>
      <trkpt lat="43.74778" lon="6.9978">
        <ele>406.7</ele>
        <time>2026-05-16T07:58:06Z</time>
      </trkpt>
      <trkpt lat="43.74778" lon="6.9978">
        <ele>406.7</ele>
        <time>2026-05-16T07:58:07Z</time>
      </trkpt>
      <trkpt lat="43.74778" lon="6.9978">
        <ele>406.7</ele>
        <time>2026-05-16T07:58:08Z</time>
      </trkpt>
      <trkpt lat="43.74778" lon="6.99781">
        <ele>406.6</ele>
        <time>2026-05-16T07:58:09Z</time>
      </trkpt>
      <trkpt lat="43.74778" lon="6.99781">
        <ele>406.6</ele>
        <time>2026-05-16T07:58:10Z</time>
      </trkpt>
      <trkpt lat="43.74778" lon="6.99781">
        <ele>406.6</ele>
        <time>2026-05-16T07:58:11Z</time>
      </trkpt>
      <trkpt lat="43.74778" lon="6.99781">
        <ele>406.6</ele>
        <time>2026-05-16T07:58:12Z</time>
      </trkpt>
      <trkpt lat="43.74778" lon="6.99781">
        <ele>406.6</ele>
        <time>2026-05-16T07:58:13Z</time>
      </trkpt>
      <trkpt lat="43.74778" lon="6.99781">
        <ele>406.6</ele>
        <time>2026-05-16T07:58:14Z</time>
      </trkpt>
      <trkpt lat="43.74778" lon="6.99781">
        <ele>406.6</ele>
        <time>2026-05-16T07:58:15Z</time>
      </trkpt>
      <trkpt lat="43.74778" lon="6.99781">
        <ele>406.6</ele>
        <time>2026-05-16T07:58:16Z</time>
      </trkpt>
      <trkpt lat="43.74778" lon="6.99781">
        <ele>406.6</ele>
        <time>2026-05-16T07:58:17Z</time>
      </trkpt>
      <trkpt lat="43.74778" lon="6.99781">
        <ele>406.6</ele>
        <time>2026-05-16T07:58:18Z</time>
      </trkpt>
      <trkpt lat="43.74778" lon="6.99781">
        <ele>406.6</ele>
        <time>2026-05-16T07:58:19Z</time>
      </trkpt>
      <trkpt lat="43.74778" lon="6.9978">
        <ele>406.7</ele>
        <time>2026-05-16T07:58:20Z</time>
      </trkpt>
      <trkpt lat="43.74778" lon="6.99778">
        <ele>406.9</ele>
        <time>2026-05-16T07:58:21Z</time>
      </trkpt>
      <trkpt lat="43.74778" lon="6.99774">
        <ele>407.4</ele>
        <time>2026-05-16T07:58:22Z</time>
      </trkpt>
      <trkpt lat="43.7478" lon="6.99769">
        <ele>407.5</ele>
        <time>2026-05-16T07:58:23Z</time>
      </trkpt>
      <trkpt lat="43.74783" lon="6.99761">
        <ele>407.8</ele>
        <time>2026-05-16T07:58:24Z</time>
      </trkpt>
      <trkpt lat="43.74787" lon="6.99755">
        <ele>407.5</ele>
        <time>2026-05-16T07:58:25Z</time>
      </trkpt>
      <trkpt lat="43.7479" lon="6.99747">
        <ele>407.9</ele>
        <time>2026-05-16T07:58:26Z</time>
      </trkpt>
      <trkpt lat="43.74794" lon="6.9974">
        <ele>408.4</ele>
        <time>2026-05-16T07:58:27Z</time>
      </trkpt>
      <trkpt lat="43.74797" lon="6.9973">
        <ele>409.7</ele>
        <time>2026-05-16T07:58:28Z</time>
      </trkpt>
      <trkpt lat="43.74799" lon="6.99718">
        <ele>411.5</ele>
        <time>2026-05-16T07:58:29Z</time>
      </trkpt>
      <trkpt lat="43.74802" lon="6.99706">
        <ele>412.4</ele>
        <time>2026-05-16T07:58:30Z</time>
      </trkpt>
      <trkpt lat="43.74804" lon="6.99694">
        <ele>413.5</ele>
        <time>2026-05-16T07:58:31Z</time>
      </trkpt>
      <trkpt lat="43.74806" lon="6.99682">
        <ele>416.5</ele>
        <time>2026-05-16T07:58:32Z</time>
      </trkpt>
      <trkpt lat="43.74807" lon="6.99673">
        <ele>419</ele>
        <time>2026-05-16T07:58:33Z</time>
      </trkpt>
      <trkpt lat="43.74811" lon="6.99665">
        <ele>420.9</ele>
        <time>2026-05-16T07:58:34Z</time>
      </trkpt>
      <trkpt lat="43.74817" lon="6.99657">
        <ele>423.3</ele>
        <time>2026-05-16T07:58:35Z</time>
      </trkpt>
      <trkpt lat="43.74824" lon="6.9965">
        <ele>425.3</ele>
        <time>2026-05-16T07:58:36Z</time>
      </trkpt>
      <trkpt lat="43.74832" lon="6.99645">
        <ele>426.5</ele>
        <time>2026-05-16T07:58:37Z</time>
      </trkpt>
      <trkpt lat="43.74841" lon="6.9964">
        <ele>428.3</ele>
        <time>2026-05-16T07:58:38Z</time>
      </trkpt>
      <trkpt lat="43.7485" lon="6.99638">
        <ele>428.8</ele>
        <time>2026-05-16T07:58:39Z</time>
      </trkpt>
      <trkpt lat="43.74859" lon="6.99639">
        <ele>428</ele>
        <time>2026-05-16T07:58:40Z</time>
      </trkpt>
      <trkpt lat="43.74869" lon="6.9964">
        <ele>428.2</ele>
        <time>2026-05-16T07:58:41Z</time>
      </trkpt>
      <trkpt lat="43.7488" lon="6.99643">
        <ele>428</ele>
        <time>2026-05-16T07:58:42Z</time>
      </trkpt>
      <trkpt lat="43.74891" lon="6.99647">
        <ele>427.4</ele>
        <time>2026-05-16T07:58:43Z</time>
      </trkpt>
      <trkpt lat="43.74904" lon="6.9965">
        <ele>426.7</ele>
        <time>2026-05-16T07:58:44Z</time>
      </trkpt>
      <trkpt lat="43.74915" lon="6.99652">
        <ele>426.6</ele>
        <time>2026-05-16T07:58:45Z</time>
      </trkpt>
      <trkpt lat="43.74924" lon="6.99653">
        <ele>426.8</ele>
        <time>2026-05-16T07:58:46Z</time>
      </trkpt>
      <trkpt lat="43.74934" lon="6.99654">
        <ele>427.1</ele>
        <time>2026-05-16T07:58:47Z</time>
      </trkpt>
      <trkpt lat="43.7494" lon="6.99653">
        <ele>427.7</ele>
        <time>2026-05-16T07:58:48Z</time>
      </trkpt>
      <trkpt lat="43.74947" lon="6.99652">
        <ele>428.1</ele>
        <time>2026-05-16T07:58:49Z</time>
      </trkpt>
      <trkpt lat="43.74955" lon="6.99654">
        <ele>427.1</ele>
        <time>2026-05-16T07:58:50Z</time>
      </trkpt>
      <trkpt lat="43.74962" lon="6.99654">
        <ele>426.7</ele>
        <time>2026-05-16T07:58:51Z</time>
      </trkpt>
      <trkpt lat="43.74969" lon="6.99653">
        <ele>426.6</ele>
        <time>2026-05-16T07:58:52Z</time>
      </trkpt>
      <trkpt lat="43.74976" lon="6.99652">
        <ele>426.8</ele>
        <time>2026-05-16T07:58:53Z</time>
      </trkpt>
      <trkpt lat="43.74984" lon="6.9965">
        <ele>427.6</ele>
        <time>2026-05-16T07:58:54Z</time>
      </trkpt>
      <trkpt lat="43.74993" lon="6.99648">
        <ele>428.3</ele>
        <time>2026-05-16T07:58:55Z</time>
      </trkpt>
      <trkpt lat="43.75003" lon="6.99646">
        <ele>428.9</ele>
        <time>2026-05-16T07:58:56Z</time>
      </trkpt>
      <trkpt lat="43.75013" lon="6.99645">
        <ele>429.1</ele>
        <time>2026-05-16T07:58:57Z</time>
      </trkpt>
      <trkpt lat="43.75023" lon="6.99643">
        <ele>429.4</ele>
        <time>2026-05-16T07:58:58Z</time>
      </trkpt>
      <trkpt lat="43.75033" lon="6.99641">
        <ele>429.1</ele>
        <time>2026-05-16T07:58:59Z</time>
      </trkpt>
      <trkpt lat="43.75041" lon="6.99639">
        <ele>428.6</ele>
        <time>2026-05-16T07:59:00Z</time>
      </trkpt>
      <trkpt lat="43.75047" lon="6.99636">
        <ele>428.9</ele>
        <time>2026-05-16T07:59:01Z</time>
      </trkpt>
      <trkpt lat="43.75053" lon="6.99631">
        <ele>430.1</ele>
        <time>2026-05-16T07:59:02Z</time>
      </trkpt>
      <trkpt lat="43.75058" lon="6.99625">
        <ele>431.6</ele>
        <time>2026-05-16T07:59:03Z</time>
      </trkpt>
      <trkpt lat="43.75063" lon="6.99618">
        <ele>433</ele>
        <time>2026-05-16T07:59:04Z</time>
      </trkpt>
      <trkpt lat="43.75067" lon="6.9961">
        <ele>434.3</ele>
        <time>2026-05-16T07:59:05Z</time>
      </trkpt>
      <trkpt lat="43.7507" lon="6.996">
        <ele>435.3</ele>
        <time>2026-05-16T07:59:06Z</time>
      </trkpt>
      <trkpt lat="43.75072" lon="6.99589">
        <ele>436.7</ele>
        <time>2026-05-16T07:59:07Z</time>
      </trkpt>
      <trkpt lat="43.75073" lon="6.99577">
        <ele>437.5</ele>
        <time>2026-05-16T07:59:08Z</time>
      </trkpt>
      <trkpt lat="43.75069" lon="6.99564">
        <ele>439.7</ele>
        <time>2026-05-16T07:59:09Z</time>
      </trkpt>
      <trkpt lat="43.75063" lon="6.99552">
        <ele>443.2</ele>
        <time>2026-05-16T07:59:10Z</time>
      </trkpt>
      <trkpt lat="43.75057" lon="6.99539">
        <ele>445.7</ele>
        <time>2026-05-16T07:59:11Z</time>
      </trkpt>
      <trkpt lat="43.75052" lon="6.99524">
        <ele>446.7</ele>
        <time>2026-05-16T07:59:12Z</time>
      </trkpt>
      <trkpt lat="43.75048" lon="6.99507">
        <ele>446</ele>
        <time>2026-05-16T07:59:13Z</time>
      </trkpt>
      <trkpt lat="43.75047" lon="6.99489">
        <ele>445.1</ele>
        <time>2026-05-16T07:59:14Z</time>
      </trkpt>
      <trkpt lat="43.75047" lon="6.99471">
        <ele>444.3</ele>
        <time>2026-05-16T07:59:15Z</time>
      </trkpt>
      <trkpt lat="43.7505" lon="6.99454">
        <ele>442.5</ele>
        <time>2026-05-16T07:59:16Z</time>
      </trkpt>
      <trkpt lat="43.75052" lon="6.99438">
        <ele>442.4</ele>
        <time>2026-05-16T07:59:17Z</time>
      </trkpt>
      <trkpt lat="43.75055" lon="6.99424">
        <ele>443.2</ele>
        <time>2026-05-16T07:59:18Z</time>
      </trkpt>
      <trkpt lat="43.75057" lon="6.99411">
        <ele>445.1</ele>
        <time>2026-05-16T07:59:19Z</time>
      </trkpt>
      <trkpt lat="43.7506" lon="6.99401">
        <ele>446.4</ele>
        <time>2026-05-16T07:59:20Z</time>
      </trkpt>
      <trkpt lat="43.75062" lon="6.99392">
        <ele>447.4</ele>
        <time>2026-05-16T07:59:21Z</time>
      </trkpt>
      <trkpt lat="43.75064" lon="6.99383">
        <ele>448.5</ele>
        <time>2026-05-16T07:59:22Z</time>
      </trkpt>
      <trkpt lat="43.75067" lon="6.99374">
        <ele>449.4</ele>
        <time>2026-05-16T07:59:23Z</time>
      </trkpt>
      <trkpt lat="43.75071" lon="6.99364">
        <ele>450</ele>
        <time>2026-05-16T07:59:24Z</time>
      </trkpt>
      <trkpt lat="43.75076" lon="6.99356">
        <ele>450.4</ele>
        <time>2026-05-16T07:59:25Z</time>
      </trkpt>
      <trkpt lat="43.75083" lon="6.99349">
        <ele>449.9</ele>
        <time>2026-05-16T07:59:26Z</time>
      </trkpt>
      <trkpt lat="43.75091" lon="6.99342">
        <ele>451.3</ele>
        <time>2026-05-16T07:59:27Z</time>
      </trkpt>
      <trkpt lat="43.751" lon="6.99337">
        <ele>451.6</ele>
        <time>2026-05-16T07:59:28Z</time>
      </trkpt>
      <trkpt lat="43.75109" lon="6.99336">
        <ele>450.4</ele>
        <time>2026-05-16T07:59:29Z</time>
      </trkpt>
      <trkpt lat="43.7512" lon="6.99337">
        <ele>450.3</ele>
        <time>2026-05-16T07:59:30Z</time>
      </trkpt>
      <trkpt lat="43.7513" lon="6.99339">
        <ele>450.2</ele>
        <time>2026-05-16T07:59:31Z</time>
      </trkpt>
      <trkpt lat="43.75141" lon="6.9934">
        <ele>450.7</ele>
        <time>2026-05-16T07:59:32Z</time>
      </trkpt>
      <trkpt lat="43.75153" lon="6.99342">
        <ele>451.8</ele>
        <time>2026-05-16T07:59:33Z</time>
      </trkpt>
      <trkpt lat="43.75165" lon="6.99343">
        <ele>453.3</ele>
        <time>2026-05-16T07:59:34Z</time>
      </trkpt>
      <trkpt lat="43.75177" lon="6.99345">
        <ele>453.9</ele>
        <time>2026-05-16T07:59:35Z</time>
      </trkpt>
      <trkpt lat="43.75189" lon="6.99346">
        <ele>454.8</ele>
        <time>2026-05-16T07:59:36Z</time>
      </trkpt>
      <trkpt lat="43.752" lon="6.99343">
        <ele>454.5</ele>
        <time>2026-05-16T07:59:37Z</time>
      </trkpt>
      <trkpt lat="43.75209" lon="6.99335">
        <ele>453.4</ele>
        <time>2026-05-16T07:59:38Z</time>
      </trkpt>
      <trkpt lat="43.75217" lon="6.99324">
        <ele>452.8</ele>
        <time>2026-05-16T07:59:39Z</time>
      </trkpt>
      <trkpt lat="43.75225" lon="6.9931">
        <ele>453.5</ele>
        <time>2026-05-16T07:59:40Z</time>
      </trkpt>
      <trkpt lat="43.75229" lon="6.99291">
        <ele>455.3</ele>
        <time>2026-05-16T07:59:41Z</time>
      </trkpt>
      <trkpt lat="43.75237" lon="6.99274">
        <ele>454.7</ele>
        <time>2026-05-16T07:59:42Z</time>
      </trkpt>
      <trkpt lat="43.75246" lon="6.99258">
        <ele>455.4</ele>
        <time>2026-05-16T07:59:43Z</time>
      </trkpt>
      <trkpt lat="43.75255" lon="6.99243">
        <ele>457.5</ele>
        <time>2026-05-16T07:59:44Z</time>
      </trkpt>
      <trkpt lat="43.75265" lon="6.99228">
        <ele>459.6</ele>
        <time>2026-05-16T07:59:45Z</time>
      </trkpt>
      <trkpt lat="43.75275" lon="6.99212">
        <ele>460.2</ele>
        <time>2026-05-16T07:59:46Z</time>
      </trkpt>
      <trkpt lat="43.75285" lon="6.99197">
        <ele>461</ele>
        <time>2026-05-16T07:59:47Z</time>
      </trkpt>
      <trkpt lat="43.75295" lon="6.99182">
        <ele>461.1</ele>
        <time>2026-05-16T07:59:48Z</time>
      </trkpt>
      <trkpt lat="43.75306" lon="6.99169">
        <ele>460.4</ele>
        <time>2026-05-16T07:59:49Z</time>
      </trkpt>
      <trkpt lat="43.7532" lon="6.99161">
        <ele>460.6</ele>
        <time>2026-05-16T07:59:50Z</time>
      </trkpt>
      <trkpt lat="43.75332" lon="6.99151">
        <ele>461.7</ele>
        <time>2026-05-16T07:59:51Z</time>
      </trkpt>
      <trkpt lat="43.75343" lon="6.99143">
        <ele>462.9</ele>
        <time>2026-05-16T07:59:52Z</time>
      </trkpt>
      <trkpt lat="43.75355" lon="6.99134">
        <ele>464.1</ele>
        <time>2026-05-16T07:59:53Z</time>
      </trkpt>
      <trkpt lat="43.75368" lon="6.99127">
        <ele>464.7</ele>
        <time>2026-05-16T07:59:54Z</time>
      </trkpt>
      <trkpt lat="43.75381" lon="6.99119">
        <ele>465.3</ele>
        <time>2026-05-16T07:59:55Z</time>
      </trkpt>
      <trkpt lat="43.75391" lon="6.99111">
        <ele>465.8</ele>
        <time>2026-05-16T07:59:56Z</time>
      </trkpt>
      <trkpt lat="43.75401" lon="6.99105">
        <ele>465.9</ele>
        <time>2026-05-16T07:59:57Z</time>
      </trkpt>
      <trkpt lat="43.75411" lon="6.99099">
        <ele>465.9</ele>
        <time>2026-05-16T07:59:58Z</time>
      </trkpt>
      <trkpt lat="43.7542" lon="6.99096">
        <ele>465.5</ele>
        <time>2026-05-16T07:59:59Z</time>
      </trkpt>
      <trkpt lat="43.75429" lon="6.99094">
        <ele>465.2</ele>
        <time>2026-05-16T08:00:00Z</time>
      </trkpt>
      <trkpt lat="43.75439" lon="6.99093">
        <ele>464.7</ele>
        <time>2026-05-16T08:00:01Z</time>
      </trkpt>
      <trkpt lat="43.7545" lon="6.99093">
        <ele>464.1</ele>
        <time>2026-05-16T08:00:02Z</time>
      </trkpt>
      <trkpt lat="43.75461" lon="6.99094">
        <ele>463.5</ele>
        <time>2026-05-16T08:00:03Z</time>
      </trkpt>
      <trkpt lat="43.75472" lon="6.99095">
        <ele>462.9</ele>
        <time>2026-05-16T08:00:04Z</time>
      </trkpt>
      <trkpt lat="43.75485" lon="6.99094">
        <ele>462.2</ele>
        <time>2026-05-16T08:00:05Z</time>
      </trkpt>
      <trkpt lat="43.75498" lon="6.9909">
        <ele>461.9</ele>
        <time>2026-05-16T08:00:06Z</time>
      </trkpt>
      <trkpt lat="43.7551" lon="6.99085">
        <ele>460.9</ele>
        <time>2026-05-16T08:00:07Z</time>
      </trkpt>
      <trkpt lat="43.75522" lon="6.99078">
        <ele>460.4</ele>
        <time>2026-05-16T08:00:08Z</time>
      </trkpt>
      <trkpt lat="43.75533" lon="6.9907">
        <ele>460.5</ele>
        <time>2026-05-16T08:00:09Z</time>
      </trkpt>
      <trkpt lat="43.7554" lon="6.99059">
        <ele>461.3</ele>
        <time>2026-05-16T08:00:10Z</time>
      </trkpt>
      <trkpt lat="43.75548" lon="6.9905">
        <ele>461.7</ele>
        <time>2026-05-16T08:00:11Z</time>
      </trkpt>
      <trkpt lat="43.75556" lon="6.99042">
        <ele>462.3</ele>
        <time>2026-05-16T08:00:12Z</time>
      </trkpt>
      <trkpt lat="43.75564" lon="6.99034">
        <ele>463.5</ele>
        <time>2026-05-16T08:00:13Z</time>
      </trkpt>
      <trkpt lat="43.75572" lon="6.99028">
        <ele>463.4</ele>
        <time>2026-05-16T08:00:14Z</time>
      </trkpt>
      <trkpt lat="43.7558" lon="6.99024">
        <ele>463.3</ele>
        <time>2026-05-16T08:00:15Z</time>
      </trkpt>
      <trkpt lat="43.75588" lon="6.99021">
        <ele>463.6</ele>
        <time>2026-05-16T08:00:16Z</time>
      </trkpt>
      <trkpt lat="43.75595" lon="6.99018">
        <ele>464.4</ele>
        <time>2026-05-16T08:00:17Z</time>
      </trkpt>
      <trkpt lat="43.75602" lon="6.99016">
        <ele>464.7</ele>
        <time>2026-05-16T08:00:18Z</time>
      </trkpt>
      <trkpt lat="43.75611" lon="6.99014">
        <ele>465</ele>
        <time>2026-05-16T08:00:19Z</time>
      </trkpt>
      <trkpt lat="43.75619" lon="6.99012">
        <ele>465.8</ele>
        <time>2026-05-16T08:00:20Z</time>
      </trkpt>
      <trkpt lat="43.75628" lon="6.9901">
        <ele>466.5</ele>
        <time>2026-05-16T08:00:21Z</time>
      </trkpt>
      <trkpt lat="43.75638" lon="6.99009">
        <ele>466.8</ele>
        <time>2026-05-16T08:00:22Z</time>
      </trkpt>
      <trkpt lat="43.75648" lon="6.99007">
        <ele>467.5</ele>
        <time>2026-05-16T08:00:23Z</time>
      </trkpt>
      <trkpt lat="43.75657" lon="6.99005">
        <ele>468.2</ele>
        <time>2026-05-16T08:00:24Z</time>
      </trkpt>
      <trkpt lat="43.75667" lon="6.99004">
        <ele>468.6</ele>
        <time>2026-05-16T08:00:25Z</time>
      </trkpt>
      <trkpt lat="43.75676" lon="6.99003">
        <ele>469</ele>
        <time>2026-05-16T08:00:26Z</time>
      </trkpt>
      <trkpt lat="43.75685" lon="6.99003">
        <ele>469</ele>
        <time>2026-05-16T08:00:27Z</time>
      </trkpt>
      <trkpt lat="43.75694" lon="6.99003">
        <ele>469</ele>
        <time>2026-05-16T08:00:28Z</time>
      </trkpt>
      <trkpt lat="43.75702" lon="6.99004">
        <ele>468.9</ele>
        <time>2026-05-16T08:00:29Z</time>
      </trkpt>
      <trkpt lat="43.75709" lon="6.99004">
        <ele>469.2</ele>
        <time>2026-05-16T08:00:30Z</time>
      </trkpt>
      <trkpt lat="43.75717" lon="6.99004">
        <ele>469.4</ele>
        <time>2026-05-16T08:00:31Z</time>
      </trkpt>
      <trkpt lat="43.75726" lon="6.99005">
        <ele>469.4</ele>
        <time>2026-05-16T08:00:32Z</time>
      </trkpt>
      <trkpt lat="43.75734" lon="6.99004">
        <ele>470.3</ele>
        <time>2026-05-16T08:00:33Z</time>
      </trkpt>
      <trkpt lat="43.75743" lon="6.99004">
        <ele>470.9</ele>
        <time>2026-05-16T08:00:34Z</time>
      </trkpt>
      <trkpt lat="43.75752" lon="6.99004">
        <ele>471.7</ele>
        <time>2026-05-16T08:00:35Z</time>
      </trkpt>
      <trkpt lat="43.75761" lon="6.99004">
        <ele>472.9</ele>
        <time>2026-05-16T08:00:36Z</time>
      </trkpt>
      <trkpt lat="43.75771" lon="6.99005">
        <ele>473.8</ele>
        <time>2026-05-16T08:00:37Z</time>
      </trkpt>
      <trkpt lat="43.75779" lon="6.99006">
        <ele>474.3</ele>
        <time>2026-05-16T08:00:38Z</time>
      </trkpt>
      <trkpt lat="43.75788" lon="6.99008">
        <ele>474.1</ele>
        <time>2026-05-16T08:00:39Z</time>
      </trkpt>
      <trkpt lat="43.75799" lon="6.9901">
        <ele>474.1</ele>
        <time>2026-05-16T08:00:40Z</time>
      </trkpt>
      <trkpt lat="43.75809" lon="6.9901">
        <ele>474.8</ele>
        <time>2026-05-16T08:00:41Z</time>
      </trkpt>
      <trkpt lat="43.7582" lon="6.99012">
        <ele>474.6</ele>
        <time>2026-05-16T08:00:42Z</time>
      </trkpt>
      <trkpt lat="43.75832" lon="6.99013">
        <ele>474.9</ele>
        <time>2026-05-16T08:00:43Z</time>
      </trkpt>
      <trkpt lat="43.75843" lon="6.99013">
        <ele>475.3</ele>
        <time>2026-05-16T08:00:44Z</time>
      </trkpt>
      <trkpt lat="43.75855" lon="6.99013">
        <ele>475.8</ele>
        <time>2026-05-16T08:00:45Z</time>
      </trkpt>
      <trkpt lat="43.75866" lon="6.99013">
        <ele>476</ele>
        <time>2026-05-16T08:00:46Z</time>
      </trkpt>
      <trkpt lat="43.75876" lon="6.99015">
        <ele>474.9</ele>
        <time>2026-05-16T08:00:47Z</time>
      </trkpt>
      <trkpt lat="43.75885" lon="6.99016">
        <ele>474.4</ele>
        <time>2026-05-16T08:00:48Z</time>
      </trkpt>
      <trkpt lat="43.75895" lon="6.99016">
        <ele>474.4</ele>
        <time>2026-05-16T08:00:49Z</time>
      </trkpt>
      <trkpt lat="43.75906" lon="6.99015">
        <ele>474.9</ele>
        <time>2026-05-16T08:00:50Z</time>
      </trkpt>
      <trkpt lat="43.75915" lon="6.99014">
        <ele>475.4</ele>
        <time>2026-05-16T08:00:51Z</time>
      </trkpt>
      <trkpt lat="43.75924" lon="6.99016">
        <ele>474.5</ele>
        <time>2026-05-16T08:00:52Z</time>
      </trkpt>
      <trkpt lat="43.75934" lon="6.99018">
        <ele>473.7</ele>
        <time>2026-05-16T08:00:53Z</time>
      </trkpt>
      <trkpt lat="43.75943" lon="6.99019">
        <ele>473.4</ele>
        <time>2026-05-16T08:00:54Z</time>
      </trkpt>
      <trkpt lat="43.75952" lon="6.99021">
        <ele>472.4</ele>
        <time>2026-05-16T08:00:55Z</time>
      </trkpt>
      <trkpt lat="43.75961" lon="6.99023">
        <ele>471.4</ele>
        <time>2026-05-16T08:00:56Z</time>
      </trkpt>
      <trkpt lat="43.75969" lon="6.99023">
        <ele>471.4</ele>
        <time>2026-05-16T08:00:57Z</time>
      </trkpt>
      <trkpt lat="43.75979" lon="6.99021">
        <ele>472.4</ele>
        <time>2026-05-16T08:00:58Z</time>
      </trkpt>
      <trkpt lat="43.75989" lon="6.99019">
        <ele>473.2</ele>
        <time>2026-05-16T08:00:59Z</time>
      </trkpt>
      <trkpt lat="43.75999" lon="6.99017">
        <ele>474.1</ele>
        <time>2026-05-16T08:01:00Z</time>
      </trkpt>
      <trkpt lat="43.76009" lon="6.99013">
        <ele>474.6</ele>
        <time>2026-05-16T08:01:01Z</time>
      </trkpt>
      <trkpt lat="43.76019" lon="6.99008">
        <ele>475.2</ele>
        <time>2026-05-16T08:01:02Z</time>
      </trkpt>
      <trkpt lat="43.76028" lon="6.99004">
        <ele>475.4</ele>
        <time>2026-05-16T08:01:03Z</time>
      </trkpt>
      <trkpt lat="43.76038" lon="6.98998">
        <ele>474.9</ele>
        <time>2026-05-16T08:01:04Z</time>
      </trkpt>
      <trkpt lat="43.76047" lon="6.98993">
        <ele>473.9</ele>
        <time>2026-05-16T08:01:05Z</time>
      </trkpt>
      <trkpt lat="43.76055" lon="6.98988">
        <ele>472.7</ele>
        <time>2026-05-16T08:01:06Z</time>
      </trkpt>
      <trkpt lat="43.76058" lon="6.98981">
        <ele>473.6</ele>
        <time>2026-05-16T08:01:07Z</time>
      </trkpt>
      <trkpt lat="43.76062" lon="6.98975">
        <ele>473.6</ele>
        <time>2026-05-16T08:01:08Z</time>
      </trkpt>
      <trkpt lat="43.76065" lon="6.98971">
        <ele>473.3</ele>
        <time>2026-05-16T08:01:09Z</time>
      </trkpt>
      <trkpt lat="43.76067" lon="6.98966">
        <ele>473.8</ele>
        <time>2026-05-16T08:01:10Z</time>
      </trkpt>
      <trkpt lat="43.76069" lon="6.98963">
        <ele>473.6</ele>
        <time>2026-05-16T08:01:11Z</time>
      </trkpt>
      <trkpt lat="43.7607" lon="6.98959">
        <ele>474</ele>
        <time>2026-05-16T08:01:12Z</time>
      </trkpt>
      <trkpt lat="43.7607" lon="6.98956">
        <ele>474.8</ele>
        <time>2026-05-16T08:01:13Z</time>
      </trkpt>
      <trkpt lat="43.76071" lon="6.98954">
        <ele>474.6</ele>
        <time>2026-05-16T08:01:14Z</time>
      </trkpt>
      <trkpt lat="43.76073" lon="6.98951">
        <ele>474</ele>
        <time>2026-05-16T08:01:15Z</time>
      </trkpt>
      <trkpt lat="43.76074" lon="6.98946">
        <ele>474.4</ele>
        <time>2026-05-16T08:01:16Z</time>
      </trkpt>
      <trkpt lat="43.76076" lon="6.98941">
        <ele>474.2</ele>
        <time>2026-05-16T08:01:17Z</time>
      </trkpt>
      <trkpt lat="43.76079" lon="6.98936">
        <ele>473.4</ele>
        <time>2026-05-16T08:01:18Z</time>
      </trkpt>
      <trkpt lat="43.76079" lon="6.9893">
        <ele>475</ele>
        <time>2026-05-16T08:01:19Z</time>
      </trkpt>
      <trkpt lat="43.76078" lon="6.98926">
        <ele>476.9</ele>
        <time>2026-05-16T08:01:20Z</time>
      </trkpt>
      <trkpt lat="43.76074" lon="6.98924">
        <ele>480.6</ele>
        <time>2026-05-16T08:01:21Z</time>
      </trkpt>
      <trkpt lat="43.76071" lon="6.98927">
        <ele>482.1</ele>
        <time>2026-05-16T08:01:22Z</time>
      </trkpt>
      <trkpt lat="43.76068" lon="6.98931">
        <ele>483.2</ele>
        <time>2026-05-16T08:01:23Z</time>
      </trkpt>
      <trkpt lat="43.76064" lon="6.98935">
        <ele>485</ele>
        <time>2026-05-16T08:01:24Z</time>
      </trkpt>
      <trkpt lat="43.76063" lon="6.98942">
        <ele>483.4</ele>
        <time>2026-05-16T08:01:25Z</time>
      </trkpt>
      <trkpt lat="43.76061" lon="6.98953">
        <ele>481.2</ele>
        <time>2026-05-16T08:01:26Z</time>
      </trkpt>
      <trkpt lat="43.76058" lon="6.98961">
        <ele>480.1</ele>
        <time>2026-05-16T08:01:27Z</time>
      </trkpt>
      <trkpt lat="43.76053" lon="6.98969">
        <ele>479.5</ele>
        <time>2026-05-16T08:01:28Z</time>
      </trkpt>
      <trkpt lat="43.76046" lon="6.98975">
        <ele>480.5</ele>
        <time>2026-05-16T08:01:29Z</time>
      </trkpt>
      <trkpt lat="43.76037" lon="6.98979">
        <ele>482.9</ele>
        <time>2026-05-16T08:01:30Z</time>
      </trkpt>
      <trkpt lat="43.76028" lon="6.98983">
        <ele>484.9</ele>
        <time>2026-05-16T08:01:31Z</time>
      </trkpt>
      <trkpt lat="43.76019" lon="6.98987">
        <ele>485.1</ele>
        <time>2026-05-16T08:01:32Z</time>
      </trkpt>
      <trkpt lat="43.76009" lon="6.98992">
        <ele>484.7</ele>
        <time>2026-05-16T08:01:33Z</time>
      </trkpt>
      <trkpt lat="43.75999" lon="6.98994">
        <ele>485.5</ele>
        <time>2026-05-16T08:01:34Z</time>
      </trkpt>
      <trkpt lat="43.7599" lon="6.98998">
        <ele>483.6</ele>
        <time>2026-05-16T08:01:35Z</time>
      </trkpt>
      <trkpt lat="43.7598" lon="6.99001">
        <ele>482.2</ele>
        <time>2026-05-16T08:01:36Z</time>
      </trkpt>
      <trkpt lat="43.7597" lon="6.99001">
        <ele>482.5</ele>
        <time>2026-05-16T08:01:37Z</time>
      </trkpt>
      <trkpt lat="43.75959" lon="6.98998">
        <ele>484.4</ele>
        <time>2026-05-16T08:01:38Z</time>
      </trkpt>
      <trkpt lat="43.75947" lon="6.98996">
        <ele>485.7</ele>
        <time>2026-05-16T08:01:39Z</time>
      </trkpt>
      <trkpt lat="43.75934" lon="6.98993">
        <ele>487.5</ele>
        <time>2026-05-16T08:01:40Z</time>
      </trkpt>
      <trkpt lat="43.75922" lon="6.98991">
        <ele>488.4</ele>
        <time>2026-05-16T08:01:41Z</time>
      </trkpt>
      <trkpt lat="43.7591" lon="6.98988">
        <ele>490</ele>
        <time>2026-05-16T08:01:42Z</time>
      </trkpt>
      <trkpt lat="43.75896" lon="6.98986">
        <ele>491.4</ele>
        <time>2026-05-16T08:01:43Z</time>
      </trkpt>
      <trkpt lat="43.75882" lon="6.98984">
        <ele>493.1</ele>
        <time>2026-05-16T08:01:44Z</time>
      </trkpt>
      <trkpt lat="43.75869" lon="6.98984">
        <ele>493.6</ele>
        <time>2026-05-16T08:01:45Z</time>
      </trkpt>
      <trkpt lat="43.75857" lon="6.98984">
        <ele>493.9</ele>
        <time>2026-05-16T08:01:46Z</time>
      </trkpt>
      <trkpt lat="43.75846" lon="6.98984">
        <ele>493.7</ele>
        <time>2026-05-16T08:01:47Z</time>
      </trkpt>
      <trkpt lat="43.75834" lon="6.98984">
        <ele>493.5</ele>
        <time>2026-05-16T08:01:48Z</time>
      </trkpt>
      <trkpt lat="43.7582" lon="6.98981">
        <ele>494.1</ele>
        <time>2026-05-16T08:01:49Z</time>
      </trkpt>
      <trkpt lat="43.7581" lon="6.98973">
        <ele>498.1</ele>
        <time>2026-05-16T08:01:50Z</time>
      </trkpt>
      <trkpt lat="43.75798" lon="6.98968">
        <ele>499.9</ele>
        <time>2026-05-16T08:01:51Z</time>
      </trkpt>
      <trkpt lat="43.75786" lon="6.98964">
        <ele>500.2</ele>
        <time>2026-05-16T08:01:52Z</time>
      </trkpt>
      <trkpt lat="43.75775" lon="6.98961">
        <ele>499.7</ele>
        <time>2026-05-16T08:01:53Z</time>
      </trkpt>
      <trkpt lat="43.75765" lon="6.98958">
        <ele>499.4</ele>
        <time>2026-05-16T08:01:54Z</time>
      </trkpt>
      <trkpt lat="43.75755" lon="6.98955">
        <ele>499</ele>
        <time>2026-05-16T08:01:55Z</time>
      </trkpt>
      <trkpt lat="43.75746" lon="6.98952">
        <ele>499.4</ele>
        <time>2026-05-16T08:01:56Z</time>
      </trkpt>
      <trkpt lat="43.75737" lon="6.98949">
        <ele>500.4</ele>
        <time>2026-05-16T08:01:57Z</time>
      </trkpt>
      <trkpt lat="43.75729" lon="6.98947">
        <ele>501</ele>
        <time>2026-05-16T08:01:58Z</time>
      </trkpt>
      <trkpt lat="43.75721" lon="6.98946">
        <ele>501</ele>
        <time>2026-05-16T08:01:59Z</time>
      </trkpt>
      <trkpt lat="43.75712" lon="6.98945">
        <ele>500.6</ele>
        <time>2026-05-16T08:02:00Z</time>
      </trkpt>
      <trkpt lat="43.75704" lon="6.98945">
        <ele>499.7</ele>
        <time>2026-05-16T08:02:01Z</time>
      </trkpt>
      <trkpt lat="43.75695" lon="6.98944">
        <ele>499.4</ele>
        <time>2026-05-16T08:02:02Z</time>
      </trkpt>
      <trkpt lat="43.75686" lon="6.9894">
        <ele>500.7</ele>
        <time>2026-05-16T08:02:03Z</time>
      </trkpt>
      <trkpt lat="43.75677" lon="6.98935">
        <ele>502.5</ele>
        <time>2026-05-16T08:02:04Z</time>
      </trkpt>
      <trkpt lat="43.75666" lon="6.98932">
        <ele>502.6</ele>
        <time>2026-05-16T08:02:05Z</time>
      </trkpt>
      <trkpt lat="43.75656" lon="6.98928">
        <ele>504.5</ele>
        <time>2026-05-16T08:02:06Z</time>
      </trkpt>
      <trkpt lat="43.75646" lon="6.98925">
        <ele>505.6</ele>
        <time>2026-05-16T08:02:07Z</time>
      </trkpt>
      <trkpt lat="43.75636" lon="6.98924">
        <ele>505.6</ele>
        <time>2026-05-16T08:02:08Z</time>
      </trkpt>
      <trkpt lat="43.75625" lon="6.98924">
        <ele>505.6</ele>
        <time>2026-05-16T08:02:09Z</time>
      </trkpt>
      <trkpt lat="43.75613" lon="6.98927">
        <ele>504.2</ele>
        <time>2026-05-16T08:02:10Z</time>
      </trkpt>
      <trkpt lat="43.75602" lon="6.98929">
        <ele>504.4</ele>
        <time>2026-05-16T08:02:11Z</time>
      </trkpt>
      <trkpt lat="43.7559" lon="6.98929">
        <ele>505.9</ele>
        <time>2026-05-16T08:02:12Z</time>
      </trkpt>
      <trkpt lat="43.75578" lon="6.98928">
        <ele>507.5</ele>
        <time>2026-05-16T08:02:13Z</time>
      </trkpt>
      <trkpt lat="43.75566" lon="6.98928">
        <ele>507.9</ele>
        <time>2026-05-16T08:02:14Z</time>
      </trkpt>
      <trkpt lat="43.75553" lon="6.98927">
        <ele>508.9</ele>
        <time>2026-05-16T08:02:15Z</time>
      </trkpt>
      <trkpt lat="43.7554" lon="6.98926">
        <ele>509.9</ele>
        <time>2026-05-16T08:02:16Z</time>
      </trkpt>
      <trkpt lat="43.75527" lon="6.98924">
        <ele>511.2</ele>
        <time>2026-05-16T08:02:17Z</time>
      </trkpt>
      <trkpt lat="43.75515" lon="6.98924">
        <ele>512.1</ele>
        <time>2026-05-16T08:02:18Z</time>
      </trkpt>
      <trkpt lat="43.75502" lon="6.98928">
        <ele>511.7</ele>
        <time>2026-05-16T08:02:19Z</time>
      </trkpt>
      <trkpt lat="43.7549" lon="6.9893">
        <ele>512.5</ele>
        <time>2026-05-16T08:02:20Z</time>
      </trkpt>
      <trkpt lat="43.75478" lon="6.98934">
        <ele>512.4</ele>
        <time>2026-05-16T08:02:21Z</time>
      </trkpt>
      <trkpt lat="43.75465" lon="6.98937">
        <ele>513</ele>
        <time>2026-05-16T08:02:22Z</time>
      </trkpt>
      <trkpt lat="43.75453" lon="6.9894">
        <ele>513.5</ele>
        <time>2026-05-16T08:02:23Z</time>
      </trkpt>
      <trkpt lat="43.75442" lon="6.98943">
        <ele>513.8</ele>
        <time>2026-05-16T08:02:24Z</time>
      </trkpt>
      <trkpt lat="43.75433" lon="6.98945">
        <ele>514</ele>
        <time>2026-05-16T08:02:25Z</time>
      </trkpt>
      <trkpt lat="43.75424" lon="6.98945">
        <ele>515</ele>
        <time>2026-05-16T08:02:26Z</time>
      </trkpt>
      <trkpt lat="43.75414" lon="6.98946">
        <ele>515.8</ele>
        <time>2026-05-16T08:02:27Z</time>
      </trkpt>
      <trkpt lat="43.75405" lon="6.98945">
        <ele>517.5</ele>
        <time>2026-05-16T08:02:28Z</time>
      </trkpt>
      <trkpt lat="43.75395" lon="6.98946">
        <ele>518.6</ele>
        <time>2026-05-16T08:02:29Z</time>
      </trkpt>
      <trkpt lat="43.75387" lon="6.98948">
        <ele>519.1</ele>
        <time>2026-05-16T08:02:30Z</time>
      </trkpt>
      <trkpt lat="43.75378" lon="6.98951">
        <ele>519.8</ele>
        <time>2026-05-16T08:02:31Z</time>
      </trkpt>
      <trkpt lat="43.7537" lon="6.98957">
        <ele>519.5</ele>
        <time>2026-05-16T08:02:32Z</time>
      </trkpt>
      <trkpt lat="43.75362" lon="6.98964">
        <ele>519.2</ele>
        <time>2026-05-16T08:02:33Z</time>
      </trkpt>
      <trkpt lat="43.75353" lon="6.98971">
        <ele>518.8</ele>
        <time>2026-05-16T08:02:34Z</time>
      </trkpt>
      <trkpt lat="43.75343" lon="6.98977">
        <ele>518.9</ele>
        <time>2026-05-16T08:02:35Z</time>
      </trkpt>
      <trkpt lat="43.75332" lon="6.98981">
        <ele>520.1</ele>
        <time>2026-05-16T08:02:36Z</time>
      </trkpt>
      <trkpt lat="43.75321" lon="6.98982">
        <ele>522</ele>
        <time>2026-05-16T08:02:37Z</time>
      </trkpt>
      <trkpt lat="43.75311" lon="6.98983">
        <ele>523.8</ele>
        <time>2026-05-16T08:02:38Z</time>
      </trkpt>
      <trkpt lat="43.75301" lon="6.98987">
        <ele>524.8</ele>
        <time>2026-05-16T08:02:39Z</time>
      </trkpt>
      <trkpt lat="43.75291" lon="6.98993">
        <ele>525.3</ele>
        <time>2026-05-16T08:02:40Z</time>
      </trkpt>
      <trkpt lat="43.75282" lon="6.99001">
        <ele>524.8</ele>
        <time>2026-05-16T08:02:41Z</time>
      </trkpt>
      <trkpt lat="43.75272" lon="6.99009">
        <ele>524.7</ele>
        <time>2026-05-16T08:02:42Z</time>
      </trkpt>
      <trkpt lat="43.75262" lon="6.99017">
        <ele>525</ele>
        <time>2026-05-16T08:02:43Z</time>
      </trkpt>
      <trkpt lat="43.75252" lon="6.99025">
        <ele>525.3</ele>
        <time>2026-05-16T08:02:44Z</time>
      </trkpt>
      <trkpt lat="43.75243" lon="6.99032">
        <ele>525.3</ele>
        <time>2026-05-16T08:02:45Z</time>
      </trkpt>
      <trkpt lat="43.75234" lon="6.99038">
        <ele>525.6</ele>
        <time>2026-05-16T08:02:46Z</time>
      </trkpt>
      <trkpt lat="43.75225" lon="6.99042">
        <ele>526.6</ele>
        <time>2026-05-16T08:02:47Z</time>
      </trkpt>
      <trkpt lat="43.75217" lon="6.99046">
        <ele>526.7</ele>
        <time>2026-05-16T08:02:48Z</time>
      </trkpt>
      <trkpt lat="43.75208" lon="6.99048">
        <ele>527</ele>
        <time>2026-05-16T08:02:49Z</time>
      </trkpt>
      <trkpt lat="43.75198" lon="6.99048">
        <ele>528.1</ele>
        <time>2026-05-16T08:02:50Z</time>
      </trkpt>
      <trkpt lat="43.75189" lon="6.99048">
        <ele>529.1</ele>
        <time>2026-05-16T08:02:51Z</time>
      </trkpt>
      <trkpt lat="43.7518" lon="6.99048">
        <ele>530.2</ele>
        <time>2026-05-16T08:02:52Z</time>
      </trkpt>
      <trkpt lat="43.75172" lon="6.99046">
        <ele>531.8</ele>
        <time>2026-05-16T08:02:53Z</time>
      </trkpt>
      <trkpt lat="43.75165" lon="6.99046">
        <ele>532.5</ele>
        <time>2026-05-16T08:02:54Z</time>
      </trkpt>
      <trkpt lat="43.75158" lon="6.99044">
        <ele>533.2</ele>
        <time>2026-05-16T08:02:55Z</time>
      </trkpt>
      <trkpt lat="43.7515" lon="6.99043">
        <ele>533.8</ele>
        <time>2026-05-16T08:02:56Z</time>
      </trkpt>
      <trkpt lat="43.75141" lon="6.99043">
        <ele>534.1</ele>
        <time>2026-05-16T08:02:57Z</time>
      </trkpt>
      <trkpt lat="43.75134" lon="6.99045">
        <ele>535.2</ele>
        <time>2026-05-16T08:02:58Z</time>
      </trkpt>
      <trkpt lat="43.75126" lon="6.99051">
        <ele>536.2</ele>
        <time>2026-05-16T08:02:59Z</time>
      </trkpt>
      <trkpt lat="43.75119" lon="6.99059">
        <ele>536.7</ele>
        <time>2026-05-16T08:03:00Z</time>
      </trkpt>
      <trkpt lat="43.75112" lon="6.99067">
        <ele>537.3</ele>
        <time>2026-05-16T08:03:01Z</time>
      </trkpt>
      <trkpt lat="43.75106" lon="6.99075">
        <ele>537.6</ele>
        <time>2026-05-16T08:03:02Z</time>
      </trkpt>
      <trkpt lat="43.75098" lon="6.99085">
        <ele>537.9</ele>
        <time>2026-05-16T08:03:03Z</time>
      </trkpt>
      <trkpt lat="43.75091" lon="6.99094">
        <ele>537.9</ele>
        <time>2026-05-16T08:03:04Z</time>
      </trkpt>
      <trkpt lat="43.75084" lon="6.99103">
        <ele>537.8</ele>
        <time>2026-05-16T08:03:05Z</time>
      </trkpt>
      <trkpt lat="43.75076" lon="6.9911">
        <ele>537.3</ele>
        <time>2026-05-16T08:03:06Z</time>
      </trkpt>
      <trkpt lat="43.75069" lon="6.99117">
        <ele>536.7</ele>
        <time>2026-05-16T08:03:07Z</time>
      </trkpt>
      <trkpt lat="43.75059" lon="6.99122">
        <ele>536.8</ele>
        <time>2026-05-16T08:03:08Z</time>
      </trkpt>
      <trkpt lat="43.75049" lon="6.99124">
        <ele>536.9</ele>
        <time>2026-05-16T08:03:09Z</time>
      </trkpt>
      <trkpt lat="43.75038" lon="6.99121">
        <ele>538.1</ele>
        <time>2026-05-16T08:03:10Z</time>
      </trkpt>
      <trkpt lat="43.75027" lon="6.99119">
        <ele>539.2</ele>
        <time>2026-05-16T08:03:11Z</time>
      </trkpt>
      <trkpt lat="43.75018" lon="6.99117">
        <ele>540</ele>
        <time>2026-05-16T08:03:12Z</time>
      </trkpt>
      <trkpt lat="43.75008" lon="6.99114">
        <ele>541</ele>
        <time>2026-05-16T08:03:13Z</time>
      </trkpt>
      <trkpt lat="43.74998" lon="6.99111">
        <ele>542</ele>
        <time>2026-05-16T08:03:14Z</time>
      </trkpt>
      <trkpt lat="43.74989" lon="6.99106">
        <ele>543.3</ele>
        <time>2026-05-16T08:03:15Z</time>
      </trkpt>
      <trkpt lat="43.7498" lon="6.99101">
        <ele>544.4</ele>
        <time>2026-05-16T08:03:16Z</time>
      </trkpt>
      <trkpt lat="43.74971" lon="6.99096">
        <ele>545.1</ele>
        <time>2026-05-16T08:03:17Z</time>
      </trkpt>
      <trkpt lat="43.74963" lon="6.99091">
        <ele>545.1</ele>
        <time>2026-05-16T08:03:18Z</time>
      </trkpt>
      <trkpt lat="43.74956" lon="6.99083">
        <ele>546.2</ele>
        <time>2026-05-16T08:03:19Z</time>
      </trkpt>
      <trkpt lat="43.74949" lon="6.99075">
        <ele>547.5</ele>
        <time>2026-05-16T08:03:20Z</time>
      </trkpt>
      <trkpt lat="43.74942" lon="6.99069">
        <ele>548.2</ele>
        <time>2026-05-16T08:03:21Z</time>
      </trkpt>
      <trkpt lat="43.74937" lon="6.99062">
        <ele>549.4</ele>
        <time>2026-05-16T08:03:22Z</time>
      </trkpt>
      <trkpt lat="43.74931" lon="6.99055">
        <ele>550.3</ele>
        <time>2026-05-16T08:03:23Z</time>
      </trkpt>
      <trkpt lat="43.74923" lon="6.99048">
        <ele>550.6</ele>
        <time>2026-05-16T08:03:24Z</time>
      </trkpt>
      <trkpt lat="43.74915" lon="6.99042">
        <ele>550.9</ele>
        <time>2026-05-16T08:03:25Z</time>
      </trkpt>
      <trkpt lat="43.74906" lon="6.99039">
        <ele>551.8</ele>
        <time>2026-05-16T08:03:26Z</time>
      </trkpt>
      <trkpt lat="43.74896" lon="6.99038">
        <ele>552.1</ele>
        <time>2026-05-16T08:03:27Z</time>
      </trkpt>
      <trkpt lat="43.74887" lon="6.99038">
        <ele>552.3</ele>
        <time>2026-05-16T08:03:28Z</time>
      </trkpt>
      <trkpt lat="43.74879" lon="6.99042">
        <ele>552.5</ele>
        <time>2026-05-16T08:03:29Z</time>
      </trkpt>
      <trkpt lat="43.74873" lon="6.99045">
        <ele>552.8</ele>
        <time>2026-05-16T08:03:30Z</time>
      </trkpt>
      <trkpt lat="43.74868" lon="6.99049">
        <ele>552.8</ele>
        <time>2026-05-16T08:03:31Z</time>
      </trkpt>
      <trkpt lat="43.74862" lon="6.99052">
        <ele>553.3</ele>
        <time>2026-05-16T08:03:32Z</time>
      </trkpt>
      <trkpt lat="43.74857" lon="6.99055">
        <ele>553.5</ele>
        <time>2026-05-16T08:03:33Z</time>
      </trkpt>
      <trkpt lat="43.74852" lon="6.99057">
        <ele>553.8</ele>
        <time>2026-05-16T08:03:34Z</time>
      </trkpt>
      <trkpt lat="43.74849" lon="6.99059">
        <ele>553.9</ele>
        <time>2026-05-16T08:03:35Z</time>
      </trkpt>
      <trkpt lat="43.74846" lon="6.99061">
        <ele>554</ele>
        <time>2026-05-16T08:03:36Z</time>
      </trkpt>
      <trkpt lat="43.74844" lon="6.99062">
        <ele>554.1</ele>
        <time>2026-05-16T08:03:37Z</time>
      </trkpt>
      <trkpt lat="43.74842" lon="6.99063">
        <ele>554.2</ele>
        <time>2026-05-16T08:03:38Z</time>
      </trkpt>
      <trkpt lat="43.74841" lon="6.99064">
        <ele>554.2</ele>
        <time>2026-05-16T08:03:39Z</time>
      </trkpt>
      <trkpt lat="43.74839" lon="6.99065">
        <ele>554.3</ele>
        <time>2026-05-16T08:03:40Z</time>
      </trkpt>
      <trkpt lat="43.74837" lon="6.99067">
        <ele>554.3</ele>
        <time>2026-05-16T08:03:41Z</time>
      </trkpt>
      <trkpt lat="43.74834" lon="6.99068">
        <ele>554.6</ele>
        <time>2026-05-16T08:03:42Z</time>
      </trkpt>
      <trkpt lat="43.74832" lon="6.9907">
        <ele>554.8</ele>
        <time>2026-05-16T08:03:43Z</time>
      </trkpt>
      <trkpt lat="43.7483" lon="6.99071">
        <ele>555.1</ele>
        <time>2026-05-16T08:03:44Z</time>
      </trkpt>
      <trkpt lat="43.74829" lon="6.99072">
        <ele>555.3</ele>
        <time>2026-05-16T08:03:45Z</time>
      </trkpt>
      <trkpt lat="43.74827" lon="6.99074">
        <ele>555.5</ele>
        <time>2026-05-16T08:03:46Z</time>
      </trkpt>
      <trkpt lat="43.74825" lon="6.99076">
        <ele>555.8</ele>
        <time>2026-05-16T08:03:47Z</time>
      </trkpt>
      <trkpt lat="43.74823" lon="6.99078">
        <ele>556.1</ele>
        <time>2026-05-16T08:03:48Z</time>
      </trkpt>
      <trkpt lat="43.74822" lon="6.9908">
        <ele>556.2</ele>
        <time>2026-05-16T08:03:49Z</time>
      </trkpt>
      <trkpt lat="43.7482" lon="6.99082">
        <ele>556.5</ele>
        <time>2026-05-16T08:03:50Z</time>
      </trkpt>
      <trkpt lat="43.74818" lon="6.99084">
        <ele>556.8</ele>
        <time>2026-05-16T08:03:51Z</time>
      </trkpt>
      <trkpt lat="43.74817" lon="6.99085">
        <ele>556.9</ele>
        <time>2026-05-16T08:03:52Z</time>
      </trkpt>
      <trkpt lat="43.74817" lon="6.99086">
        <ele>556.8</ele>
        <time>2026-05-16T08:03:53Z</time>
      </trkpt>
      <trkpt lat="43.74817" lon="6.99086">
        <ele>556.8</ele>
        <time>2026-05-16T08:03:54Z</time>
      </trkpt>
      <trkpt lat="43.74817" lon="6.99086">
        <ele>556.8</ele>
        <time>2026-05-16T08:03:55Z</time>
      </trkpt>
      <trkpt lat="43.74818" lon="6.99087">
        <ele>556.5</ele>
        <time>2026-05-16T08:03:56Z</time>
      </trkpt>
      <trkpt lat="43.74818" lon="6.99087">
        <ele>556.5</ele>
        <time>2026-05-16T08:03:57Z</time>
      </trkpt>
      <trkpt lat="43.74818" lon="6.99087">
        <ele>556.5</ele>
        <time>2026-05-16T08:03:58Z</time>
      </trkpt>
      <trkpt lat="43.74818" lon="6.99087">
        <ele>556.5</ele>
        <time>2026-05-16T08:03:59Z</time>
      </trkpt>
      <trkpt lat="43.74818" lon="6.99087">
        <ele>556.5</ele>
        <time>2026-05-16T08:04:00Z</time>
      </trkpt>
      <trkpt lat="43.74818" lon="6.99088">
        <ele>556.4</ele>
        <time>2026-05-16T08:04:01Z</time>
      </trkpt>
      <trkpt lat="43.74818" lon="6.99088">
        <ele>556.4</ele>
        <time>2026-05-16T08:04:02Z</time>
      </trkpt>
      <trkpt lat="43.74818" lon="6.99088">
        <ele>556.4</ele>
        <time>2026-05-16T08:04:03Z</time>
      </trkpt>
      <trkpt lat="43.74818" lon="6.99089">
        <ele>556.3</ele>
        <time>2026-05-16T08:04:04Z</time>
      </trkpt>
      <trkpt lat="43.74818" lon="6.99089">
        <ele>556.3</ele>
        <time>2026-05-16T08:04:05Z</time>
      </trkpt>
      <trkpt lat="43.74818" lon="6.99089">
        <ele>556.3</ele>
        <time>2026-05-16T08:04:06Z</time>
      </trkpt>
      <trkpt lat="43.74818" lon="6.99089">
        <ele>556.3</ele>
        <time>2026-05-16T08:04:07Z</time>
      </trkpt>
      <trkpt lat="43.74818" lon="6.99089">
        <ele>556.3</ele>
        <time>2026-05-16T08:04:08Z</time>
      </trkpt>
      <trkpt lat="43.74818" lon="6.99089">
        <ele>556.3</ele>
        <time>2026-05-16T08:04:09Z</time>
      </trkpt>
      <trkpt lat="43.74818" lon="6.99089">
        <ele>556.3</ele>
        <time>2026-05-16T08:04:10Z</time>
      </trkpt>
      <trkpt lat="43.74818" lon="6.99089">
        <ele>556.3</ele>
        <time>2026-05-16T08:04:11Z</time>
      </trkpt>
      <trkpt lat="43.74818" lon="6.99089">
        <ele>556.3</ele>
        <time>2026-05-16T08:04:12Z</time>
      </trkpt>
      <trkpt lat="43.74818" lon="6.99089">
        <ele>556.3</ele>
        <time>2026-05-16T08:04:13Z</time>
      </trkpt>
      <trkpt lat="43.74818" lon="6.99089">
        <ele>556.3</ele>
        <time>2026-05-16T08:04:14Z</time>
      </trkpt>
      <trkpt lat="43.74818" lon="6.99089">
        <ele>556.3</ele>
        <time>2026-05-16T08:04:15Z</time>
      </trkpt>
      <trkpt lat="43.74818" lon="6.99089">
        <ele>556.3</ele>
        <time>2026-05-16T08:04:16Z</time>
      </trkpt>
      <trkpt lat="43.74818" lon="6.99089">
        <ele>556.3</ele>
        <time>2026-05-16T08:04:17Z</time>
      </trkpt>
      <trkpt lat="43.74818" lon="6.99089">
        <ele>556.3</ele>
        <time>2026-05-16T08:04:18Z</time>
      </trkpt>
      <trkpt lat="43.74818" lon="6.99089">
        <ele>556.3</ele>
        <time>2026-05-16T08:04:19Z</time>
      </trkpt>
      <trkpt lat="43.74818" lon="6.99089">
        <ele>556.3</ele>
        <time>2026-05-16T08:04:20Z</time>
      </trkpt>
      <trkpt lat="43.74818" lon="6.99089">
        <ele>556.3</ele>
        <time>2026-05-16T08:04:21Z</time>
      </trkpt>
      <trkpt lat="43.74818" lon="6.99089">
        <ele>556.3</ele>
        <time>2026-05-16T08:04:22Z</time>
      </trkpt>
      <trkpt lat="43.74818" lon="6.99089">
        <ele>556.3</ele>
        <time>2026-05-16T08:04:23Z</time>
      </trkpt>
      <trkpt lat="43.74818" lon="6.99089">
        <ele>556.3</ele>
        <time>2026-05-16T08:04:24Z</time>
      </trkpt>
      <trkpt lat="43.74818" lon="6.99089">
        <ele>556.3</ele>
        <time>2026-05-16T08:04:25Z</time>
      </trkpt>
      <trkpt lat="43.74818" lon="6.99089">
        <ele>556.3</ele>
        <time>2026-05-16T08:04:26Z</time>
      </trkpt>
      <trkpt lat="43.74818" lon="6.99089">
        <ele>556.3</ele>
        <time>2026-05-16T08:04:27Z</time>
      </trkpt>
      <trkpt lat="43.74818" lon="6.99089">
        <ele>556.3</ele>
        <time>2026-05-16T08:04:28Z</time>
      </trkpt>
      <trkpt lat="43.74818" lon="6.99089">
        <ele>556.3</ele>
        <time>2026-05-16T08:04:29Z</time>
      </trkpt>
      <trkpt lat="43.74818" lon="6.99089">
        <ele>556.3</ele>
        <time>2026-05-16T08:04:30Z</time>
      </trkpt>
      <trkpt lat="43.74818" lon="6.99089">
        <ele>556.3</ele>
        <time>2026-05-16T08:04:31Z</time>
      </trkpt>
      <trkpt lat="43.74818" lon="6.99089">
        <ele>556.3</ele>
        <time>2026-05-16T08:04:32Z</time>
      </trkpt>
      <trkpt lat="43.74818" lon="6.99089">
        <ele>556.3</ele>
        <time>2026-05-16T08:04:33Z</time>
      </trkpt>
      <trkpt lat="43.74818" lon="6.99089">
        <ele>556.3</ele>
        <time>2026-05-16T08:04:34Z</time>
      </trkpt>
      <trkpt lat="43.74818" lon="6.99089">
        <ele>556.3</ele>
        <time>2026-05-16T08:04:35Z</time>
      </trkpt>
      <trkpt lat="43.74818" lon="6.99089">
        <ele>556.3</ele>
        <time>2026-05-16T08:04:36Z</time>
      </trkpt>
      <trkpt lat="43.74818" lon="6.99089">
        <ele>556.3</ele>
        <time>2026-05-16T08:04:37Z</time>
      </trkpt>
      <trkpt lat="43.74818" lon="6.99089">
        <ele>556.3</ele>
        <time>2026-05-16T08:04:38Z</time>
      </trkpt>
      <trkpt lat="43.74818" lon="6.99089">
        <ele>556.3</ele>
        <time>2026-05-16T08:04:39Z</time>
      </trkpt>
      <trkpt lat="43.74818" lon="6.99089">
        <ele>556.3</ele>
        <time>2026-05-16T08:04:40Z</time>
      </trkpt>
      <trkpt lat="43.74818" lon="6.99089">
        <ele>556.3</ele>
        <time>2026-05-16T08:04:41Z</time>
      </trkpt>
      <trkpt lat="43.74818" lon="6.99089">
        <ele>556.3</ele>
        <time>2026-05-16T08:04:42Z</time>
      </trkpt>
      <trkpt lat="43.74818" lon="6.99089">
        <ele>556.3</ele>
        <time>2026-05-16T08:04:43Z</time>
      </trkpt>
      <trkpt lat="43.74818" lon="6.99089">
        <ele>556.3</ele>
        <time>2026-05-16T08:04:44Z</time>
      </trkpt>
      <trkpt lat="43.74818" lon="6.99089">
        <ele>556.3</ele>
        <time>2026-05-16T08:04:45Z</time>
      </trkpt>
      <trkpt lat="43.74819" lon="6.9909">
        <ele>555.9</ele>
        <time>2026-05-16T08:09:28Z</time>
      </trkpt>
      <trkpt lat="43.74825" lon="6.99092">
        <ele>554.2</ele>
        <time>2026-05-16T08:09:29Z</time>
      </trkpt>
      <trkpt lat="43.74822" lon="6.99097">
        <ele>554.4</ele>
        <time>2026-05-16T08:09:30Z</time>
      </trkpt>
      <trkpt lat="43.74822" lon="6.99094">
        <ele>554.7</ele>
        <time>2026-05-16T08:09:31Z</time>
      </trkpt>
      <trkpt lat="43.74819" lon="6.99084">
        <ele>556.5</ele>
        <time>2026-05-16T08:09:32Z</time>
      </trkpt>
      <trkpt lat="43.74818" lon="6.99089">
        <ele>556.3</ele>
        <time>2026-05-16T08:09:33Z</time>
      </trkpt>
      <trkpt lat="43.74818" lon="6.99089">
        <ele>556.3</ele>
        <time>2026-05-16T08:09:34Z</time>
      </trkpt>
      <trkpt lat="43.74818" lon="6.99089">
        <ele>556.3</ele>
        <time>2026-05-16T08:09:35Z</time>
      </trkpt>
      <trkpt lat="43.74818" lon="6.99089">
        <ele>556.3</ele>
        <time>2026-05-16T08:09:36Z</time>
      </trkpt>
      <trkpt lat="43.74818" lon="6.99089">
        <ele>556.3</ele>
        <time>2026-05-16T08:09:37Z</time>
      </trkpt>
      <trkpt lat="43.74818" lon="6.99089">
        <ele>556.3</ele>
        <time>2026-05-16T08:09:38Z</time>
      </trkpt>
      <trkpt lat="43.74818" lon="6.99089">
        <ele>556.3</ele>
        <time>2026-05-16T08:09:39Z</time>
      </trkpt>
      <trkpt lat="43.74819" lon="6.99089">
        <ele>556</ele>
        <time>2026-05-16T08:09:40Z</time>
      </trkpt>
      <trkpt lat="43.74819" lon="6.9909">
        <ele>555.9</ele>
        <time>2026-05-16T08:09:41Z</time>
      </trkpt>
      <trkpt lat="43.74819" lon="6.9909">
        <ele>555.9</ele>
        <time>2026-05-16T08:09:42Z</time>
      </trkpt>
      <trkpt lat="43.74819" lon="6.9909">
        <ele>555.9</ele>
        <time>2026-05-16T08:09:43Z</time>
      </trkpt>
      <trkpt lat="43.74819" lon="6.9909">
        <ele>555.9</ele>
        <time>2026-05-16T08:09:44Z</time>
      </trkpt>
      <trkpt lat="43.74819" lon="6.9909">
        <ele>555.9</ele>
        <time>2026-05-16T08:09:45Z</time>
      </trkpt>
      <trkpt lat="43.74819" lon="6.9909">
        <ele>555.9</ele>
        <time>2026-05-16T08:09:46Z</time>
      </trkpt>
      <trkpt lat="43.74819" lon="6.9909">
        <ele>555.9</ele>
        <time>2026-05-16T08:09:47Z</time>
      </trkpt>
      <trkpt lat="43.74819" lon="6.9909">
        <ele>555.9</ele>
        <time>2026-05-16T08:09:48Z</time>
      </trkpt>
      <trkpt lat="43.74819" lon="6.9909">
        <ele>555.9</ele>
        <time>2026-05-16T08:09:49Z</time>
      </trkpt>
      <trkpt lat="43.74819" lon="6.9909">
        <ele>555.9</ele>
        <time>2026-05-16T08:09:50Z</time>
      </trkpt>
      <trkpt lat="43.74819" lon="6.9909">
        <ele>555.9</ele>
        <time>2026-05-16T08:09:51Z</time>
      </trkpt>
      <trkpt lat="43.74819" lon="6.9909">
        <ele>555.9</ele>
        <time>2026-05-16T08:09:52Z</time>
      </trkpt>
      <trkpt lat="43.74819" lon="6.9909">
        <ele>555.9</ele>
        <time>2026-05-16T08:09:53Z</time>
      </trkpt>
      <trkpt lat="43.74819" lon="6.9909">
        <ele>555.9</ele>
        <time>2026-05-16T08:09:54Z</time>
      </trkpt>
      <trkpt lat="43.74819" lon="6.9909">
        <ele>555.9</ele>
        <time>2026-05-16T08:09:55Z</time>
      </trkpt>
      <trkpt lat="43.74819" lon="6.9909">
        <ele>555.9</ele>
        <time>2026-05-16T08:09:56Z</time>
      </trkpt>
      <trkpt lat="43.74819" lon="6.9909">
        <ele>555.9</ele>
        <time>2026-05-16T08:09:57Z</time>
      </trkpt>
      <trkpt lat="43.74819" lon="6.9909">
        <ele>555.9</ele>
        <time>2026-05-16T08:09:58Z</time>
      </trkpt>
      <trkpt lat="43.74819" lon="6.9909">
        <ele>555.9</ele>
        <time>2026-05-16T08:09:59Z</time>
      </trkpt>
      <trkpt lat="43.74819" lon="6.9909">
        <ele>555.9</ele>
        <time>2026-05-16T08:10:00Z</time>
      </trkpt>
      <trkpt lat="43.74819" lon="6.9909">
        <ele>555.9</ele>
        <time>2026-05-16T08:10:01Z</time>
      </trkpt>
      <trkpt lat="43.74819" lon="6.9909">
        <ele>555.9</ele>
        <time>2026-05-16T08:10:02Z</time>
      </trkpt>
      <trkpt lat="43.74819" lon="6.9909">
        <ele>555.9</ele>
        <time>2026-05-16T08:10:03Z</time>
      </trkpt>
      <trkpt lat="43.74819" lon="6.9909">
        <ele>555.9</ele>
        <time>2026-05-16T08:10:04Z</time>
      </trkpt>
      <trkpt lat="43.74819" lon="6.9909">
        <ele>555.9</ele>
        <time>2026-05-16T08:10:05Z</time>
      </trkpt>
      <trkpt lat="43.74819" lon="6.9909">
        <ele>555.9</ele>
        <time>2026-05-16T08:10:06Z</time>
      </trkpt>
      <trkpt lat="43.74819" lon="6.9909">
        <ele>555.9</ele>
        <time>2026-05-16T08:10:07Z</time>
      </trkpt>
      <trkpt lat="43.74819" lon="6.9909">
        <ele>555.9</ele>
        <time>2026-05-16T08:10:08Z</time>
      </trkpt>
      <trkpt lat="43.74819" lon="6.9909">
        <ele>555.9</ele>
        <time>2026-05-16T08:10:09Z</time>
      </trkpt>
      <trkpt lat="43.74819" lon="6.9909">
        <ele>555.9</ele>
        <time>2026-05-16T08:10:10Z</time>
      </trkpt>
      <trkpt lat="43.74819" lon="6.9909">
        <ele>555.9</ele>
        <time>2026-05-16T08:10:11Z</time>
      </trkpt>
      <trkpt lat="43.74817" lon="6.99093">
        <ele>556.1</ele>
        <time>2026-05-16T08:10:12Z</time>
      </trkpt>
      <trkpt lat="43.74813" lon="6.99098">
        <ele>556.5</ele>
        <time>2026-05-16T08:10:13Z</time>
      </trkpt>
      <trkpt lat="43.74809" lon="6.99105">
        <ele>556.8</ele>
        <time>2026-05-16T08:10:14Z</time>
      </trkpt>
      <trkpt lat="43.74803" lon="6.99112">
        <ele>557.7</ele>
        <time>2026-05-16T08:10:15Z</time>
      </trkpt>
      <trkpt lat="43.74798" lon="6.99118">
        <ele>558.1</ele>
        <time>2026-05-16T08:10:16Z</time>
      </trkpt>
      <trkpt lat="43.74792" lon="6.99126">
        <ele>558.2</ele>
        <time>2026-05-16T08:10:17Z</time>
      </trkpt>
      <trkpt lat="43.74785" lon="6.99134">
        <ele>558.3</ele>
        <time>2026-05-16T08:10:18Z</time>
      </trkpt>
      <trkpt lat="43.74777" lon="6.99142">
        <ele>558.3</ele>
        <time>2026-05-16T08:10:19Z</time>
      </trkpt>
      <trkpt lat="43.74767" lon="6.9915">
        <ele>559</ele>
        <time>2026-05-16T08:10:20Z</time>
      </trkpt>
      <trkpt lat="43.74758" lon="6.99159">
        <ele>558.6</ele>
        <time>2026-05-16T08:10:21Z</time>
      </trkpt>
      <trkpt lat="43.74748" lon="6.99166">
        <ele>558.6</ele>
        <time>2026-05-16T08:10:22Z</time>
      </trkpt>
      <trkpt lat="43.74736" lon="6.99171">
        <ele>559</ele>
        <time>2026-05-16T08:10:23Z</time>
      </trkpt>
      <trkpt lat="43.74724" lon="6.99175">
        <ele>559.4</ele>
        <time>2026-05-16T08:10:24Z</time>
      </trkpt>
      <trkpt lat="43.7471" lon="6.99178">
        <ele>560.2</ele>
        <time>2026-05-16T08:10:25Z</time>
      </trkpt>
      <trkpt lat="43.74695" lon="6.9918">
        <ele>561.6</ele>
        <time>2026-05-16T08:10:26Z</time>
      </trkpt>
      <trkpt lat="43.7468" lon="6.9918">
        <ele>563.2</ele>
        <time>2026-05-16T08:10:27Z</time>
      </trkpt>
      <trkpt lat="43.74665" lon="6.99179">
        <ele>564.8</ele>
        <time>2026-05-16T08:10:28Z</time>
      </trkpt>
      <trkpt lat="43.7465" lon="6.99175">
        <ele>565.9</ele>
        <time>2026-05-16T08:10:29Z</time>
      </trkpt>
      <trkpt lat="43.74635" lon="6.99169">
        <ele>566.6</ele>
        <time>2026-05-16T08:10:30Z</time>
      </trkpt>
      <trkpt lat="43.74621" lon="6.99161">
        <ele>567.6</ele>
        <time>2026-05-16T08:10:31Z</time>
      </trkpt>
      <trkpt lat="43.74607" lon="6.99152">
        <ele>568.4</ele>
        <time>2026-05-16T08:10:32Z</time>
      </trkpt>
      <trkpt lat="43.74595" lon="6.99142">
        <ele>569.3</ele>
        <time>2026-05-16T08:10:33Z</time>
      </trkpt>
      <trkpt lat="43.74584" lon="6.99132">
        <ele>570.3</ele>
        <time>2026-05-16T08:10:34Z</time>
      </trkpt>
      <trkpt lat="43.74575" lon="6.99124">
        <ele>571.7</ele>
        <time>2026-05-16T08:10:35Z</time>
      </trkpt>
      <trkpt lat="43.74567" lon="6.99117">
        <ele>572.9</ele>
        <time>2026-05-16T08:10:36Z</time>
      </trkpt>
      <trkpt lat="43.74558" lon="6.99114">
        <ele>573.5</ele>
        <time>2026-05-16T08:10:37Z</time>
      </trkpt>
      <trkpt lat="43.7455" lon="6.99114">
        <ele>574.1</ele>
        <time>2026-05-16T08:10:38Z</time>
      </trkpt>
      <trkpt lat="43.74542" lon="6.99119">
        <ele>574.5</ele>
        <time>2026-05-16T08:10:39Z</time>
      </trkpt>
      <trkpt lat="43.74535" lon="6.99127">
        <ele>574.6</ele>
        <time>2026-05-16T08:10:40Z</time>
      </trkpt>
      <trkpt lat="43.74528" lon="6.99139">
        <ele>574.9</ele>
        <time>2026-05-16T08:10:41Z</time>
      </trkpt>
      <trkpt lat="43.74523" lon="6.99153">
        <ele>576.1</ele>
        <time>2026-05-16T08:10:42Z</time>
      </trkpt>
      <trkpt lat="43.74518" lon="6.99169">
        <ele>577.1</ele>
        <time>2026-05-16T08:10:43Z</time>
      </trkpt>
      <trkpt lat="43.74515" lon="6.99186">
        <ele>577.6</ele>
        <time>2026-05-16T08:10:44Z</time>
      </trkpt>
      <trkpt lat="43.74512" lon="6.99202">
        <ele>577.5</ele>
        <time>2026-05-16T08:10:45Z</time>
      </trkpt>
      <trkpt lat="43.74509" lon="6.99216">
        <ele>577.2</ele>
        <time>2026-05-16T08:10:46Z</time>
      </trkpt>
      <trkpt lat="43.74503" lon="6.99228">
        <ele>577.6</ele>
        <time>2026-05-16T08:10:47Z</time>
      </trkpt>
      <trkpt lat="43.74494" lon="6.99238">
        <ele>578.3</ele>
        <time>2026-05-16T08:10:48Z</time>
      </trkpt>
      <trkpt lat="43.74484" lon="6.99247">
        <ele>578.4</ele>
        <time>2026-05-16T08:10:49Z</time>
      </trkpt>
      <trkpt lat="43.74472" lon="6.99254">
        <ele>578.9</ele>
        <time>2026-05-16T08:10:50Z</time>
      </trkpt>
      <trkpt lat="43.7446" lon="6.99261">
        <ele>580.2</ele>
        <time>2026-05-16T08:10:51Z</time>
      </trkpt>
      <trkpt lat="43.74447" lon="6.99268">
        <ele>581.5</ele>
        <time>2026-05-16T08:10:52Z</time>
      </trkpt>
      <trkpt lat="43.74433" lon="6.99276">
        <ele>582.5</ele>
        <time>2026-05-16T08:10:53Z</time>
      </trkpt>
      <trkpt lat="43.74419" lon="6.99284">
        <ele>583.4</ele>
        <time>2026-05-16T08:10:54Z</time>
      </trkpt>
      <trkpt lat="43.74406" lon="6.99292">
        <ele>583.9</ele>
        <time>2026-05-16T08:10:55Z</time>
      </trkpt>
      <trkpt lat="43.74392" lon="6.99302">
        <ele>583.6</ele>
        <time>2026-05-16T08:10:56Z</time>
      </trkpt>
      <trkpt lat="43.74379" lon="6.99313">
        <ele>584.3</ele>
        <time>2026-05-16T08:10:57Z</time>
      </trkpt>
      <trkpt lat="43.74366" lon="6.99324">
        <ele>585.4</ele>
        <time>2026-05-16T08:10:58Z</time>
      </trkpt>
      <trkpt lat="43.74352" lon="6.99333">
        <ele>586.4</ele>
        <time>2026-05-16T08:10:59Z</time>
      </trkpt>
      <trkpt lat="43.74338" lon="6.99341">
        <ele>587.4</ele>
        <time>2026-05-16T08:11:00Z</time>
      </trkpt>
      <trkpt lat="43.74324" lon="6.99348">
        <ele>588.2</ele>
        <time>2026-05-16T08:11:01Z</time>
      </trkpt>
      <trkpt lat="43.74309" lon="6.99353">
        <ele>589.5</ele>
        <time>2026-05-16T08:11:02Z</time>
      </trkpt>
      <trkpt lat="43.74294" lon="6.99357">
        <ele>589.9</ele>
        <time>2026-05-16T08:11:03Z</time>
      </trkpt>
      <trkpt lat="43.7428" lon="6.99361">
        <ele>589.8</ele>
        <time>2026-05-16T08:11:04Z</time>
      </trkpt>
      <trkpt lat="43.74266" lon="6.99366">
        <ele>590.7</ele>
        <time>2026-05-16T08:11:05Z</time>
      </trkpt>
      <trkpt lat="43.74252" lon="6.99372">
        <ele>591.5</ele>
        <time>2026-05-16T08:11:06Z</time>
      </trkpt>
      <trkpt lat="43.74239" lon="6.99379">
        <ele>592.4</ele>
        <time>2026-05-16T08:11:07Z</time>
      </trkpt>
      <trkpt lat="43.74225" lon="6.99386">
        <ele>593.3</ele>
        <time>2026-05-16T08:11:08Z</time>
      </trkpt>
      <trkpt lat="43.74212" lon="6.99393">
        <ele>594.2</ele>
        <time>2026-05-16T08:11:09Z</time>
      </trkpt>
      <trkpt lat="43.74198" lon="6.994">
        <ele>594.8</ele>
        <time>2026-05-16T08:11:10Z</time>
      </trkpt>
      <trkpt lat="43.74185" lon="6.99406">
        <ele>595.3</ele>
        <time>2026-05-16T08:11:11Z</time>
      </trkpt>
      <trkpt lat="43.74172" lon="6.99412">
        <ele>595.7</ele>
        <time>2026-05-16T08:11:12Z</time>
      </trkpt>
      <trkpt lat="43.74158" lon="6.99418">
        <ele>596.6</ele>
        <time>2026-05-16T08:11:13Z</time>
      </trkpt>
      <trkpt lat="43.74145" lon="6.99424">
        <ele>597.9</ele>
        <time>2026-05-16T08:11:14Z</time>
      </trkpt>
      <trkpt lat="43.74131" lon="6.99429">
        <ele>599.8</ele>
        <time>2026-05-16T08:11:15Z</time>
      </trkpt>
      <trkpt lat="43.74118" lon="6.99435">
        <ele>600.9</ele>
        <time>2026-05-16T08:11:16Z</time>
      </trkpt>
      <trkpt lat="43.74106" lon="6.9944">
        <ele>601.6</ele>
        <time>2026-05-16T08:11:17Z</time>
      </trkpt>
      <trkpt lat="43.74095" lon="6.99446">
        <ele>601.4</ele>
        <time>2026-05-16T08:11:18Z</time>
      </trkpt>
      <trkpt lat="43.74083" lon="6.99452">
        <ele>601.6</ele>
        <time>2026-05-16T08:11:19Z</time>
      </trkpt>
      <trkpt lat="43.74071" lon="6.99459">
        <ele>602.2</ele>
        <time>2026-05-16T08:11:20Z</time>
      </trkpt>
      <trkpt lat="43.74059" lon="6.99466">
        <ele>602.5</ele>
        <time>2026-05-16T08:11:21Z</time>
      </trkpt>
      <trkpt lat="43.74047" lon="6.99474">
        <ele>602.7</ele>
        <time>2026-05-16T08:11:22Z</time>
      </trkpt>
      <trkpt lat="43.74035" lon="6.99481">
        <ele>604.4</ele>
        <time>2026-05-16T08:11:23Z</time>
      </trkpt>
      <trkpt lat="43.74023" lon="6.99488">
        <ele>606</ele>
        <time>2026-05-16T08:11:24Z</time>
      </trkpt>
      <trkpt lat="43.74011" lon="6.99495">
        <ele>606.1</ele>
        <time>2026-05-16T08:11:25Z</time>
      </trkpt>
      <trkpt lat="43.73998" lon="6.995">
        <ele>606.2</ele>
        <time>2026-05-16T08:11:26Z</time>
      </trkpt>
      <trkpt lat="43.73987" lon="6.995">
        <ele>607.4</ele>
        <time>2026-05-16T08:11:27Z</time>
      </trkpt>
      <trkpt lat="43.73976" lon="6.99497">
        <ele>609.4</ele>
        <time>2026-05-16T08:11:28Z</time>
      </trkpt>
      <trkpt lat="43.73966" lon="6.99494">
        <ele>611.1</ele>
        <time>2026-05-16T08:11:29Z</time>
      </trkpt>
      <trkpt lat="43.73958" lon="6.99495">
        <ele>611.6</ele>
        <time>2026-05-16T08:11:30Z</time>
      </trkpt>
      <trkpt lat="43.73951" lon="6.99499">
        <ele>611.5</ele>
        <time>2026-05-16T08:11:31Z</time>
      </trkpt>
      <trkpt lat="43.73947" lon="6.99508">
        <ele>612.3</ele>
        <time>2026-05-16T08:11:32Z</time>
      </trkpt>
      <trkpt lat="43.73949" lon="6.99519">
        <ele>612.9</ele>
        <time>2026-05-16T08:11:33Z</time>
      </trkpt>
      <trkpt lat="43.7395" lon="6.99528">
        <ele>613.4</ele>
        <time>2026-05-16T08:11:34Z</time>
      </trkpt>
      <trkpt lat="43.73958" lon="6.99539">
        <ele>613.1</ele>
        <time>2026-05-16T08:11:35Z</time>
      </trkpt>
      <trkpt lat="43.73964" lon="6.9955">
        <ele>613.6</ele>
        <time>2026-05-16T08:11:36Z</time>
      </trkpt>
      <trkpt lat="43.73969" lon="6.9956">
        <ele>614.1</ele>
        <time>2026-05-16T08:11:37Z</time>
      </trkpt>
      <trkpt lat="43.73971" lon="6.99571">
        <ele>614.5</ele>
        <time>2026-05-16T08:11:38Z</time>
      </trkpt>
      <trkpt lat="43.73971" lon="6.99581">
        <ele>614.8</ele>
        <time>2026-05-16T08:11:39Z</time>
      </trkpt>
      <trkpt lat="43.73967" lon="6.99588">
        <ele>614.3</ele>
        <time>2026-05-16T08:11:40Z</time>
      </trkpt>
      <trkpt lat="43.73962" lon="6.99592">
        <ele>613.8</ele>
        <time>2026-05-16T08:11:41Z</time>
      </trkpt>
      <trkpt lat="43.73955" lon="6.99593">
        <ele>613.2</ele>
        <time>2026-05-16T08:11:42Z</time>
      </trkpt>
      <trkpt lat="43.73947" lon="6.9959">
        <ele>612.5</ele>
        <time>2026-05-16T08:11:43Z</time>
      </trkpt>
      <trkpt lat="43.7394" lon="6.99583">
        <ele>612.3</ele>
        <time>2026-05-16T08:11:44Z</time>
      </trkpt>
      <trkpt lat="43.73931" lon="6.99574">
        <ele>613.3</ele>
        <time>2026-05-16T08:11:45Z</time>
      </trkpt>
      <trkpt lat="43.73922" lon="6.99565">
        <ele>613.9</ele>
        <time>2026-05-16T08:11:46Z</time>
      </trkpt>
      <trkpt lat="43.73913" lon="6.99553">
        <ele>615.7</ele>
        <time>2026-05-16T08:11:47Z</time>
      </trkpt>
      <trkpt lat="43.73907" lon="6.99542">
        <ele>618.7</ele>
        <time>2026-05-16T08:11:48Z</time>
      </trkpt>
      <trkpt lat="43.73902" lon="6.99528">
        <ele>621.3</ele>
        <time>2026-05-16T08:11:49Z</time>
      </trkpt>
      <trkpt lat="43.73898" lon="6.99513">
        <ele>621.1</ele>
        <time>2026-05-16T08:11:50Z</time>
      </trkpt>
      <trkpt lat="43.73904" lon="6.99498">
        <ele>618.5</ele>
        <time>2026-05-16T08:11:51Z</time>
      </trkpt>
      <trkpt lat="43.73906" lon="6.99483">
        <ele>619.5</ele>
        <time>2026-05-16T08:11:52Z</time>
      </trkpt>
      <trkpt lat="43.73913" lon="6.99474">
        <ele>619.3</ele>
        <time>2026-05-16T08:11:53Z</time>
      </trkpt>
      <trkpt lat="43.73927" lon="6.99472">
        <ele>618.4</ele>
        <time>2026-05-16T08:11:54Z</time>
      </trkpt>
      <trkpt lat="43.7394" lon="6.99471">
        <ele>617.9</ele>
        <time>2026-05-16T08:11:55Z</time>
      </trkpt>
      <trkpt lat="43.73954" lon="6.99468">
        <ele>618.6</ele>
        <time>2026-05-16T08:11:56Z</time>
      </trkpt>
      <trkpt lat="43.73968" lon="6.99468">
        <ele>618</ele>
        <time>2026-05-16T08:11:57Z</time>
      </trkpt>
      <trkpt lat="43.73982" lon="6.99468">
        <ele>617.4</ele>
        <time>2026-05-16T08:11:58Z</time>
      </trkpt>
      <trkpt lat="43.73995" lon="6.99466">
        <ele>617.7</ele>
        <time>2026-05-16T08:11:59Z</time>
      </trkpt>
      <trkpt lat="43.74007" lon="6.9946">
        <ele>618.2</ele>
        <time>2026-05-16T08:12:00Z</time>
      </trkpt>
      <trkpt lat="43.74019" lon="6.99452">
        <ele>618.7</ele>
        <time>2026-05-16T08:12:01Z</time>
      </trkpt>
      <trkpt lat="43.74029" lon="6.99443">
        <ele>620</ele>
        <time>2026-05-16T08:12:02Z</time>
      </trkpt>
      <trkpt lat="43.7404" lon="6.99433">
        <ele>619.7</ele>
        <time>2026-05-16T08:12:03Z</time>
      </trkpt>
      <trkpt lat="43.74048" lon="6.99421">
        <ele>621.4</ele>
        <time>2026-05-16T08:12:04Z</time>
      </trkpt>
      <trkpt lat="43.74055" lon="6.99409">
        <ele>622.8</ele>
        <time>2026-05-16T08:12:05Z</time>
      </trkpt>
      <trkpt lat="43.7406" lon="6.99397">
        <ele>624.6</ele>
        <time>2026-05-16T08:12:06Z</time>
      </trkpt>
      <trkpt lat="43.74065" lon="6.99386">
        <ele>626.1</ele>
        <time>2026-05-16T08:12:07Z</time>
      </trkpt>
      <trkpt lat="43.74068" lon="6.99376">
        <ele>627.1</ele>
        <time>2026-05-16T08:12:08Z</time>
      </trkpt>
      <trkpt lat="43.7407" lon="6.99366">
        <ele>628.2</ele>
        <time>2026-05-16T08:12:09Z</time>
      </trkpt>
      <trkpt lat="43.74069" lon="6.99357">
        <ele>628.8</ele>
        <time>2026-05-16T08:12:10Z</time>
      </trkpt>
      <trkpt lat="43.74065" lon="6.99351">
        <ele>629.2</ele>
        <time>2026-05-16T08:12:11Z</time>
      </trkpt>
      <trkpt lat="43.74059" lon="6.9935">
        <ele>630.1</ele>
        <time>2026-05-16T08:12:12Z</time>
      </trkpt>
      <trkpt lat="43.74053" lon="6.99355">
        <ele>631.9</ele>
        <time>2026-05-16T08:12:13Z</time>
      </trkpt>
      <trkpt lat="43.7405" lon="6.99364">
        <ele>632.9</ele>
        <time>2026-05-16T08:12:14Z</time>
      </trkpt>
      <trkpt lat="43.74048" lon="6.99376">
        <ele>631.8</ele>
        <time>2026-05-16T08:12:15Z</time>
      </trkpt>
      <trkpt lat="43.74046" lon="6.99389">
        <ele>630.4</ele>
        <time>2026-05-16T08:12:16Z</time>
      </trkpt>
      <trkpt lat="43.74041" lon="6.99401">
        <ele>628.9</ele>
        <time>2026-05-16T08:12:17Z</time>
      </trkpt>
      <trkpt lat="43.74034" lon="6.99411">
        <ele>628.1</ele>
        <time>2026-05-16T08:12:18Z</time>
      </trkpt>
      <trkpt lat="43.74024" lon="6.9942">
        <ele>628</ele>
        <time>2026-05-16T08:12:19Z</time>
      </trkpt>
      <trkpt lat="43.74013" lon="6.99426">
        <ele>628.9</ele>
        <time>2026-05-16T08:12:20Z</time>
      </trkpt>
      <trkpt lat="43.74001" lon="6.9943">
        <ele>630.4</ele>
        <time>2026-05-16T08:12:21Z</time>
      </trkpt>
      <trkpt lat="43.73989" lon="6.99432">
        <ele>631.2</ele>
        <time>2026-05-16T08:12:22Z</time>
      </trkpt>
      <trkpt lat="43.73977" lon="6.99434">
        <ele>631.7</ele>
        <time>2026-05-16T08:12:23Z</time>
      </trkpt>
      <trkpt lat="43.73963" lon="6.99435">
        <ele>632.5</ele>
        <time>2026-05-16T08:12:24Z</time>
      </trkpt>
      <trkpt lat="43.73949" lon="6.99436">
        <ele>633.3</ele>
        <time>2026-05-16T08:12:25Z</time>
      </trkpt>
      <trkpt lat="43.73934" lon="6.99437">
        <ele>634.4</ele>
        <time>2026-05-16T08:12:26Z</time>
      </trkpt>
      <trkpt lat="43.73918" lon="6.99438">
        <ele>635.9</ele>
        <time>2026-05-16T08:12:27Z</time>
      </trkpt>
      <trkpt lat="43.73902" lon="6.99438">
        <ele>637.3</ele>
        <time>2026-05-16T08:12:28Z</time>
      </trkpt>
      <trkpt lat="43.73886" lon="6.99439">
        <ele>638.5</ele>
        <time>2026-05-16T08:12:29Z</time>
      </trkpt>
      <trkpt lat="43.7387" lon="6.99442">
        <ele>640.3</ele>
        <time>2026-05-16T08:12:30Z</time>
      </trkpt>
      <trkpt lat="43.73855" lon="6.99448">
        <ele>641.7</ele>
        <time>2026-05-16T08:12:31Z</time>
      </trkpt>
      <trkpt lat="43.73842" lon="6.99455">
        <ele>643.3</ele>
        <time>2026-05-16T08:12:32Z</time>
      </trkpt>
      <trkpt lat="43.73828" lon="6.9946">
        <ele>644</ele>
        <time>2026-05-16T08:12:33Z</time>
      </trkpt>
      <trkpt lat="43.73814" lon="6.9946">
        <ele>643.8</ele>
        <time>2026-05-16T08:12:34Z</time>
      </trkpt>
      <trkpt lat="43.73801" lon="6.99455">
        <ele>644.9</ele>
        <time>2026-05-16T08:12:35Z</time>
      </trkpt>
      <trkpt lat="43.73788" lon="6.99451">
        <ele>646</ele>
        <time>2026-05-16T08:12:36Z</time>
      </trkpt>
      <trkpt lat="43.73775" lon="6.9945">
        <ele>646.7</ele>
        <time>2026-05-16T08:12:37Z</time>
      </trkpt>
      <trkpt lat="43.73763" lon="6.99455">
        <ele>647.5</ele>
        <time>2026-05-16T08:12:38Z</time>
      </trkpt>
      <trkpt lat="43.7375" lon="6.99463">
        <ele>648</ele>
        <time>2026-05-16T08:12:39Z</time>
      </trkpt>
      <trkpt lat="43.73738" lon="6.99473">
        <ele>648.6</ele>
        <time>2026-05-16T08:12:40Z</time>
      </trkpt>
      <trkpt lat="43.73725" lon="6.99484">
        <ele>648.9</ele>
        <time>2026-05-16T08:12:41Z</time>
      </trkpt>
      <trkpt lat="43.73711" lon="6.99495">
        <ele>650</ele>
        <time>2026-05-16T08:12:42Z</time>
      </trkpt>
      <trkpt lat="43.73698" lon="6.99506">
        <ele>651.6</ele>
        <time>2026-05-16T08:12:43Z</time>
      </trkpt>
      <trkpt lat="43.73687" lon="6.99516">
        <ele>652.3</ele>
        <time>2026-05-16T08:12:44Z</time>
      </trkpt>
      <trkpt lat="43.73678" lon="6.99524">
        <ele>652.8</ele>
        <time>2026-05-16T08:12:45Z</time>
      </trkpt>
      <trkpt lat="43.7367" lon="6.99529">
        <ele>653.2</ele>
        <time>2026-05-16T08:12:46Z</time>
      </trkpt>
      <trkpt lat="43.73663" lon="6.9953">
        <ele>653.9</ele>
        <time>2026-05-16T08:12:47Z</time>
      </trkpt>
      <trkpt lat="43.73658" lon="6.99526">
        <ele>655.8</ele>
        <time>2026-05-16T08:12:48Z</time>
      </trkpt>
      <trkpt lat="43.73656" lon="6.9952">
        <ele>656.8</ele>
        <time>2026-05-16T08:12:49Z</time>
      </trkpt>
      <trkpt lat="43.73656" lon="6.99512">
        <ele>657.6</ele>
        <time>2026-05-16T08:12:50Z</time>
      </trkpt>
      <trkpt lat="43.73659" lon="6.99502">
        <ele>658.2</ele>
        <time>2026-05-16T08:12:51Z</time>
      </trkpt>
      <trkpt lat="43.73664" lon="6.99491">
        <ele>658.4</ele>
        <time>2026-05-16T08:12:52Z</time>
      </trkpt>
      <trkpt lat="43.73671" lon="6.99479">
        <ele>658.5</ele>
        <time>2026-05-16T08:12:53Z</time>
      </trkpt>
      <trkpt lat="43.73679" lon="6.99466">
        <ele>658.5</ele>
        <time>2026-05-16T08:12:54Z</time>
      </trkpt>
      <trkpt lat="43.73686" lon="6.99453">
        <ele>658.6</ele>
        <time>2026-05-16T08:12:55Z</time>
      </trkpt>
      <trkpt lat="43.73695" lon="6.99442">
        <ele>658.5</ele>
        <time>2026-05-16T08:12:56Z</time>
      </trkpt>
      <trkpt lat="43.73706" lon="6.99433">
        <ele>659.2</ele>
        <time>2026-05-16T08:12:57Z</time>
      </trkpt>
      <trkpt lat="43.73718" lon="6.99426">
        <ele>659.7</ele>
        <time>2026-05-16T08:12:58Z</time>
      </trkpt>
      <trkpt lat="43.73732" lon="6.9942">
        <ele>660.3</ele>
        <time>2026-05-16T08:12:59Z</time>
      </trkpt>
      <trkpt lat="43.73747" lon="6.99415">
        <ele>661</ele>
        <time>2026-05-16T08:13:00Z</time>
      </trkpt>
      <trkpt lat="43.73764" lon="6.99411">
        <ele>661.7</ele>
        <time>2026-05-16T08:13:01Z</time>
      </trkpt>
      <trkpt lat="43.7378" lon="6.9941">
        <ele>661.4</ele>
        <time>2026-05-16T08:13:02Z</time>
      </trkpt>
      <trkpt lat="43.73795" lon="6.99411">
        <ele>661.5</ele>
        <time>2026-05-16T08:13:03Z</time>
      </trkpt>
      <trkpt lat="43.73809" lon="6.9941">
        <ele>662.3</ele>
        <time>2026-05-16T08:13:04Z</time>
      </trkpt>
      <trkpt lat="43.73824" lon="6.99408">
        <ele>663.2</ele>
        <time>2026-05-16T08:13:05Z</time>
      </trkpt>
      <trkpt lat="43.73838" lon="6.99403">
        <ele>664.6</ele>
        <time>2026-05-16T08:13:06Z</time>
      </trkpt>
      <trkpt lat="43.73853" lon="6.99396">
        <ele>665.7</ele>
        <time>2026-05-16T08:13:07Z</time>
      </trkpt>
      <trkpt lat="43.73868" lon="6.99389">
        <ele>667.2</ele>
        <time>2026-05-16T08:13:08Z</time>
      </trkpt>
      <trkpt lat="43.73882" lon="6.99382">
        <ele>668.5</ele>
        <time>2026-05-16T08:13:09Z</time>
      </trkpt>
      <trkpt lat="43.73897" lon="6.99373">
        <ele>669.5</ele>
        <time>2026-05-16T08:13:10Z</time>
      </trkpt>
      <trkpt lat="43.73911" lon="6.99364">
        <ele>669.4</ele>
        <time>2026-05-16T08:13:11Z</time>
      </trkpt>
      <trkpt lat="43.73924" lon="6.99354">
        <ele>670.6</ele>
        <time>2026-05-16T08:13:12Z</time>
      </trkpt>
      <trkpt lat="43.73937" lon="6.99344">
        <ele>671.8</ele>
        <time>2026-05-16T08:13:13Z</time>
      </trkpt>
      <trkpt lat="43.73948" lon="6.99335">
        <ele>672.2</ele>
        <time>2026-05-16T08:13:14Z</time>
      </trkpt>
      <trkpt lat="43.73958" lon="6.99327">
        <ele>672.2</ele>
        <time>2026-05-16T08:13:15Z</time>
      </trkpt>
      <trkpt lat="43.73966" lon="6.99321">
        <ele>672.1</ele>
        <time>2026-05-16T08:13:16Z</time>
      </trkpt>
      <trkpt lat="43.73973" lon="6.99315">
        <ele>672</ele>
        <time>2026-05-16T08:13:17Z</time>
      </trkpt>
      <trkpt lat="43.73978" lon="6.99309">
        <ele>671.3</ele>
        <time>2026-05-16T08:13:18Z</time>
      </trkpt>
      <trkpt lat="43.73981" lon="6.99301">
        <ele>671.7</ele>
        <time>2026-05-16T08:13:19Z</time>
      </trkpt>
      <trkpt lat="43.73981" lon="6.99293">
        <ele>673.2</ele>
        <time>2026-05-16T08:13:20Z</time>
      </trkpt>
      <trkpt lat="43.73978" lon="6.99285">
        <ele>675.2</ele>
        <time>2026-05-16T08:13:21Z</time>
      </trkpt>
      <trkpt lat="43.73973" lon="6.9928">
        <ele>676.7</ele>
        <time>2026-05-16T08:13:22Z</time>
      </trkpt>
      <trkpt lat="43.73966" lon="6.99279">
        <ele>677.8</ele>
        <time>2026-05-16T08:13:23Z</time>
      </trkpt>
      <trkpt lat="43.73959" lon="6.99285">
        <ele>678.1</ele>
        <time>2026-05-16T08:13:24Z</time>
      </trkpt>
      <trkpt lat="43.73954" lon="6.99294">
        <ele>677.9</ele>
        <time>2026-05-16T08:13:25Z</time>
      </trkpt>
      <trkpt lat="43.7395" lon="6.99304">
        <ele>677.4</ele>
        <time>2026-05-16T08:13:26Z</time>
      </trkpt>
      <trkpt lat="43.73944" lon="6.99315">
        <ele>676.4</ele>
        <time>2026-05-16T08:13:27Z</time>
      </trkpt>
      <trkpt lat="43.73934" lon="6.99322">
        <ele>676.4</ele>
        <time>2026-05-16T08:13:28Z</time>
      </trkpt>
      <trkpt lat="43.73922" lon="6.99327">
        <ele>677.2</ele>
        <time>2026-05-16T08:13:29Z</time>
      </trkpt>
      <trkpt lat="43.73911" lon="6.99332">
        <ele>678.2</ele>
        <time>2026-05-16T08:13:30Z</time>
      </trkpt>
      <trkpt lat="43.73898" lon="6.99335">
        <ele>680</ele>
        <time>2026-05-16T08:13:31Z</time>
      </trkpt>
      <trkpt lat="43.73885" lon="6.99339">
        <ele>681.3</ele>
        <time>2026-05-16T08:13:32Z</time>
      </trkpt>
      <trkpt lat="43.73872" lon="6.99344">
        <ele>682.1</ele>
        <time>2026-05-16T08:13:33Z</time>
      </trkpt>
      <trkpt lat="43.73859" lon="6.9935">
        <ele>682.6</ele>
        <time>2026-05-16T08:13:34Z</time>
      </trkpt>
      <trkpt lat="43.73846" lon="6.99356">
        <ele>682.7</ele>
        <time>2026-05-16T08:13:35Z</time>
      </trkpt>
      <trkpt lat="43.73833" lon="6.99359">
        <ele>683.5</ele>
        <time>2026-05-16T08:13:36Z</time>
      </trkpt>
      <trkpt lat="43.73819" lon="6.99359">
        <ele>684</ele>
        <time>2026-05-16T08:13:37Z</time>
      </trkpt>
      <trkpt lat="43.73805" lon="6.99359">
        <ele>684.5</ele>
        <time>2026-05-16T08:13:38Z</time>
      </trkpt>
      <trkpt lat="43.7379" lon="6.99357">
        <ele>685</ele>
        <time>2026-05-16T08:13:39Z</time>
      </trkpt>
      <trkpt lat="43.73774" lon="6.99357">
        <ele>685</ele>
        <time>2026-05-16T08:13:40Z</time>
      </trkpt>
      <trkpt lat="43.73758" lon="6.99355">
        <ele>686.2</ele>
        <time>2026-05-16T08:13:41Z</time>
      </trkpt>
      <trkpt lat="43.73743" lon="6.99355">
        <ele>686.8</ele>
        <time>2026-05-16T08:13:42Z</time>
      </trkpt>
      <trkpt lat="43.73728" lon="6.99353">
        <ele>688.1</ele>
        <time>2026-05-16T08:13:43Z</time>
      </trkpt>
      <trkpt lat="43.73713" lon="6.9935">
        <ele>689.7</ele>
        <time>2026-05-16T08:13:44Z</time>
      </trkpt>
      <trkpt lat="43.73697" lon="6.99347">
        <ele>691.4</ele>
        <time>2026-05-16T08:13:45Z</time>
      </trkpt>
      <trkpt lat="43.7368" lon="6.99345">
        <ele>692.5</ele>
        <time>2026-05-16T08:13:46Z</time>
      </trkpt>
      <trkpt lat="43.73664" lon="6.99346">
        <ele>692.7</ele>
        <time>2026-05-16T08:13:47Z</time>
      </trkpt>
      <trkpt lat="43.73646" lon="6.99347">
        <ele>693.9</ele>
        <time>2026-05-16T08:13:48Z</time>
      </trkpt>
      <trkpt lat="43.73629" lon="6.99347">
        <ele>695.1</ele>
        <time>2026-05-16T08:13:49Z</time>
      </trkpt>
      <trkpt lat="43.73612" lon="6.99346">
        <ele>696.4</ele>
        <time>2026-05-16T08:13:50Z</time>
      </trkpt>
      <trkpt lat="43.73596" lon="6.99343">
        <ele>698.3</ele>
        <time>2026-05-16T08:13:51Z</time>
      </trkpt>
      <trkpt lat="43.7358" lon="6.99339">
        <ele>700</ele>
        <time>2026-05-16T08:13:52Z</time>
      </trkpt>
      <trkpt lat="43.73565" lon="6.99335">
        <ele>700.8</ele>
        <time>2026-05-16T08:13:53Z</time>
      </trkpt>
      <trkpt lat="43.73548" lon="6.99333">
        <ele>700.8</ele>
        <time>2026-05-16T08:13:54Z</time>
      </trkpt>
      <trkpt lat="43.73532" lon="6.99331">
        <ele>701</ele>
        <time>2026-05-16T08:13:55Z</time>
      </trkpt>
      <trkpt lat="43.73516" lon="6.99329">
        <ele>702.3</ele>
        <time>2026-05-16T08:13:56Z</time>
      </trkpt>
      <trkpt lat="43.73499" lon="6.99328">
        <ele>703.8</ele>
        <time>2026-05-16T08:13:57Z</time>
      </trkpt>
      <trkpt lat="43.73484" lon="6.99329">
        <ele>705</ele>
        <time>2026-05-16T08:13:58Z</time>
      </trkpt>
      <trkpt lat="43.73468" lon="6.99332">
        <ele>705.8</ele>
        <time>2026-05-16T08:13:59Z</time>
      </trkpt>
      <trkpt lat="43.73453" lon="6.99335">
        <ele>706.8</ele>
        <time>2026-05-16T08:14:00Z</time>
      </trkpt>
      <trkpt lat="43.73439" lon="6.99339">
        <ele>707.2</ele>
        <time>2026-05-16T08:14:01Z</time>
      </trkpt>
      <trkpt lat="43.73425" lon="6.99342">
        <ele>707.1</ele>
        <time>2026-05-16T08:14:02Z</time>
      </trkpt>
      <trkpt lat="43.73411" lon="6.99342">
        <ele>707.6</ele>
        <time>2026-05-16T08:14:03Z</time>
      </trkpt>
      <trkpt lat="43.73397" lon="6.9934">
        <ele>708.3</ele>
        <time>2026-05-16T08:14:04Z</time>
      </trkpt>
      <trkpt lat="43.73384" lon="6.99335">
        <ele>708.7</ele>
        <time>2026-05-16T08:14:05Z</time>
      </trkpt>
      <trkpt lat="43.73373" lon="6.99328">
        <ele>709.1</ele>
        <time>2026-05-16T08:14:06Z</time>
      </trkpt>
      <trkpt lat="43.73363" lon="6.99319">
        <ele>709.7</ele>
        <time>2026-05-16T08:14:07Z</time>
      </trkpt>
      <trkpt lat="43.73356" lon="6.99308">
        <ele>710.6</ele>
        <time>2026-05-16T08:14:08Z</time>
      </trkpt>
      <trkpt lat="43.73353" lon="6.99294">
        <ele>711.5</ele>
        <time>2026-05-16T08:14:09Z</time>
      </trkpt>
      <trkpt lat="43.73351" lon="6.99279">
        <ele>712.1</ele>
        <time>2026-05-16T08:14:10Z</time>
      </trkpt>
      <trkpt lat="43.7335" lon="6.99261">
        <ele>711.9</ele>
        <time>2026-05-16T08:14:11Z</time>
      </trkpt>
      <trkpt lat="43.73351" lon="6.99243">
        <ele>712.2</ele>
        <time>2026-05-16T08:14:12Z</time>
      </trkpt>
      <trkpt lat="43.73352" lon="6.99222">
        <ele>712.7</ele>
        <time>2026-05-16T08:14:13Z</time>
      </trkpt>
      <trkpt lat="43.73352" lon="6.99202">
        <ele>714.4</ele>
        <time>2026-05-16T08:14:14Z</time>
      </trkpt>
      <trkpt lat="43.73349" lon="6.99183">
        <ele>715.2</ele>
        <time>2026-05-16T08:14:15Z</time>
      </trkpt>
      <trkpt lat="43.73343" lon="6.99165">
        <ele>714.8</ele>
        <time>2026-05-16T08:14:16Z</time>
      </trkpt>
      <trkpt lat="43.73336" lon="6.99148">
        <ele>714.6</ele>
        <time>2026-05-16T08:14:17Z</time>
      </trkpt>
      <trkpt lat="43.73327" lon="6.9913">
        <ele>714.4</ele>
        <time>2026-05-16T08:14:18Z</time>
      </trkpt>
      <trkpt lat="43.73317" lon="6.99112">
        <ele>713.6</ele>
        <time>2026-05-16T08:14:19Z</time>
      </trkpt>
      <trkpt lat="43.73309" lon="6.99092">
        <ele>714</ele>
        <time>2026-05-16T08:14:20Z</time>
      </trkpt>
      <trkpt lat="43.73302" lon="6.99072">
        <ele>714.6</ele>
        <time>2026-05-16T08:14:21Z</time>
      </trkpt>
      <trkpt lat="43.73293" lon="6.99052">
        <ele>714.9</ele>
        <time>2026-05-16T08:14:22Z</time>
      </trkpt>
      <trkpt lat="43.73281" lon="6.99035">
        <ele>714.9</ele>
        <time>2026-05-16T08:14:23Z</time>
      </trkpt>
      <trkpt lat="43.7327" lon="6.99018">
        <ele>715.9</ele>
        <time>2026-05-16T08:14:24Z</time>
      </trkpt>
      <trkpt lat="43.7326" lon="6.99001">
        <ele>717</ele>
        <time>2026-05-16T08:14:25Z</time>
      </trkpt>
      <trkpt lat="43.7325" lon="6.98982">
        <ele>717.8</ele>
        <time>2026-05-16T08:14:26Z</time>
      </trkpt>
      <trkpt lat="43.73241" lon="6.98962">
        <ele>718.3</ele>
        <time>2026-05-16T08:14:27Z</time>
      </trkpt>
      <trkpt lat="43.73232" lon="6.98942">
        <ele>718.7</ele>
        <time>2026-05-16T08:14:28Z</time>
      </trkpt>
      <trkpt lat="43.73222" lon="6.98922">
        <ele>718.8</ele>
        <time>2026-05-16T08:14:29Z</time>
      </trkpt>
      <trkpt lat="43.73213" lon="6.98904">
        <ele>719.1</ele>
        <time>2026-05-16T08:14:30Z</time>
      </trkpt>
      <trkpt lat="43.73201" lon="6.98887">
        <ele>719.1</ele>
        <time>2026-05-16T08:14:31Z</time>
      </trkpt>
      <trkpt lat="43.73187" lon="6.98871">
        <ele>719.1</ele>
        <time>2026-05-16T08:14:32Z</time>
      </trkpt>
      <trkpt lat="43.73173" lon="6.98857">
        <ele>720.1</ele>
        <time>2026-05-16T08:14:33Z</time>
      </trkpt>
      <trkpt lat="43.73159" lon="6.98846">
        <ele>720.2</ele>
        <time>2026-05-16T08:14:34Z</time>
      </trkpt>
      <trkpt lat="43.73145" lon="6.98835">
        <ele>721.9</ele>
        <time>2026-05-16T08:14:35Z</time>
      </trkpt>
      <trkpt lat="43.73132" lon="6.98826">
        <ele>723.2</ele>
        <time>2026-05-16T08:14:36Z</time>
      </trkpt>
      <trkpt lat="43.73119" lon="6.98818">
        <ele>724.1</ele>
        <time>2026-05-16T08:14:37Z</time>
      </trkpt>
      <trkpt lat="43.73108" lon="6.98811">
        <ele>725</ele>
        <time>2026-05-16T08:14:38Z</time>
      </trkpt>
      <trkpt lat="43.73095" lon="6.98806">
        <ele>724.5</ele>
        <time>2026-05-16T08:14:39Z</time>
      </trkpt>
      <trkpt lat="43.73083" lon="6.988">
        <ele>724</ele>
        <time>2026-05-16T08:14:40Z</time>
      </trkpt>
      <trkpt lat="43.7307" lon="6.98796">
        <ele>725.2</ele>
        <time>2026-05-16T08:14:41Z</time>
      </trkpt>
      <trkpt lat="43.73056" lon="6.98792">
        <ele>726.4</ele>
        <time>2026-05-16T08:14:42Z</time>
      </trkpt>
      <trkpt lat="43.73043" lon="6.98791">
        <ele>726.2</ele>
        <time>2026-05-16T08:14:43Z</time>
      </trkpt>
      <trkpt lat="43.73028" lon="6.98792">
        <ele>725.4</ele>
        <time>2026-05-16T08:14:44Z</time>
      </trkpt>
      <trkpt lat="43.73014" lon="6.98793">
        <ele>725.2</ele>
        <time>2026-05-16T08:14:45Z</time>
      </trkpt>
      <trkpt lat="43.73001" lon="6.98795">
        <ele>724.7</ele>
        <time>2026-05-16T08:14:46Z</time>
      </trkpt>
      <trkpt lat="43.72987" lon="6.98794">
        <ele>725.4</ele>
        <time>2026-05-16T08:14:47Z</time>
      </trkpt>
      <trkpt lat="43.72974" lon="6.98791">
        <ele>726.6</ele>
        <time>2026-05-16T08:14:48Z</time>
      </trkpt>
      <trkpt lat="43.72961" lon="6.98787">
        <ele>728.1</ele>
        <time>2026-05-16T08:14:49Z</time>
      </trkpt>
      <trkpt lat="43.72947" lon="6.98781">
        <ele>730.1</ele>
        <time>2026-05-16T08:14:50Z</time>
      </trkpt>
      <trkpt lat="43.72933" lon="6.98776">
        <ele>731.8</ele>
        <time>2026-05-16T08:14:51Z</time>
      </trkpt>
      <trkpt lat="43.72919" lon="6.98771">
        <ele>733.4</ele>
        <time>2026-05-16T08:14:52Z</time>
      </trkpt>
      <trkpt lat="43.72904" lon="6.98769">
        <ele>734.4</ele>
        <time>2026-05-16T08:14:53Z</time>
      </trkpt>
      <trkpt lat="43.7289" lon="6.98768">
        <ele>735.1</ele>
        <time>2026-05-16T08:14:54Z</time>
      </trkpt>
      <trkpt lat="43.72877" lon="6.98769">
        <ele>734.9</ele>
        <time>2026-05-16T08:14:55Z</time>
      </trkpt>
      <trkpt lat="43.72865" lon="6.9877">
        <ele>734.7</ele>
        <time>2026-05-16T08:14:56Z</time>
      </trkpt>
      <trkpt lat="43.72853" lon="6.98769">
        <ele>734.6</ele>
        <time>2026-05-16T08:14:57Z</time>
      </trkpt>
      <trkpt lat="43.72842" lon="6.98765">
        <ele>735.1</ele>
        <time>2026-05-16T08:14:58Z</time>
      </trkpt>
      <trkpt lat="43.72834" lon="6.98759">
        <ele>736.1</ele>
        <time>2026-05-16T08:14:59Z</time>
      </trkpt>
      <trkpt lat="43.72826" lon="6.98752">
        <ele>736.8</ele>
        <time>2026-05-16T08:15:00Z</time>
      </trkpt>
      <trkpt lat="43.72816" lon="6.98746">
        <ele>737.1</ele>
        <time>2026-05-16T08:15:01Z</time>
      </trkpt>
      <trkpt lat="43.72807" lon="6.98739">
        <ele>737.6</ele>
        <time>2026-05-16T08:15:02Z</time>
      </trkpt>
      <trkpt lat="43.72796" lon="6.98734">
        <ele>737.3</ele>
        <time>2026-05-16T08:15:03Z</time>
      </trkpt>
      <trkpt lat="43.72785" lon="6.98728">
        <ele>737.4</ele>
        <time>2026-05-16T08:15:04Z</time>
      </trkpt>
      <trkpt lat="43.72773" lon="6.98723">
        <ele>736.9</ele>
        <time>2026-05-16T08:15:05Z</time>
      </trkpt>
      <trkpt lat="43.7276" lon="6.98717">
        <ele>736.3</ele>
        <time>2026-05-16T08:15:06Z</time>
      </trkpt>
      <trkpt lat="43.72749" lon="6.98711">
        <ele>736.1</ele>
        <time>2026-05-16T08:15:07Z</time>
      </trkpt>
      <trkpt lat="43.72739" lon="6.98704">
        <ele>737.2</ele>
        <time>2026-05-16T08:15:08Z</time>
      </trkpt>
      <trkpt lat="43.7273" lon="6.98697">
        <ele>738.2</ele>
        <time>2026-05-16T08:15:09Z</time>
      </trkpt>
      <trkpt lat="43.72722" lon="6.98689">
        <ele>739.1</ele>
        <time>2026-05-16T08:15:10Z</time>
      </trkpt>
      <trkpt lat="43.72715" lon="6.98679">
        <ele>738.6</ele>
        <time>2026-05-16T08:15:11Z</time>
      </trkpt>
      <trkpt lat="43.72708" lon="6.98666">
        <ele>738.5</ele>
        <time>2026-05-16T08:15:12Z</time>
      </trkpt>
      <trkpt lat="43.72702" lon="6.98652">
        <ele>739.5</ele>
        <time>2026-05-16T08:15:13Z</time>
      </trkpt>
      <trkpt lat="43.72695" lon="6.98638">
        <ele>740.4</ele>
        <time>2026-05-16T08:15:14Z</time>
      </trkpt>
      <trkpt lat="43.72689" lon="6.98623">
        <ele>742</ele>
        <time>2026-05-16T08:15:15Z</time>
      </trkpt>
      <trkpt lat="43.72681" lon="6.98611">
        <ele>742.2</ele>
        <time>2026-05-16T08:15:16Z</time>
      </trkpt>
      <trkpt lat="43.72672" lon="6.98601">
        <ele>741.6</ele>
        <time>2026-05-16T08:15:17Z</time>
      </trkpt>
      <trkpt lat="43.72662" lon="6.98593">
        <ele>740.8</ele>
        <time>2026-05-16T08:15:18Z</time>
      </trkpt>
      <trkpt lat="43.72651" lon="6.98584">
        <ele>740.3</ele>
        <time>2026-05-16T08:15:19Z</time>
      </trkpt>
      <trkpt lat="43.7264" lon="6.98575">
        <ele>739.7</ele>
        <time>2026-05-16T08:15:20Z</time>
      </trkpt>
      <trkpt lat="43.7263" lon="6.98567">
        <ele>739.3</ele>
        <time>2026-05-16T08:15:21Z</time>
      </trkpt>
      <trkpt lat="43.7262" lon="6.98559">
        <ele>739.2</ele>
        <time>2026-05-16T08:15:22Z</time>
      </trkpt>
      <trkpt lat="43.72611" lon="6.9855">
        <ele>738.7</ele>
        <time>2026-05-16T08:15:23Z</time>
      </trkpt>
      <trkpt lat="43.72604" lon="6.98539">
        <ele>737.4</ele>
        <time>2026-05-16T08:15:24Z</time>
      </trkpt>
      <trkpt lat="43.72599" lon="6.98525">
        <ele>737.5</ele>
        <time>2026-05-16T08:15:25Z</time>
      </trkpt>
      <trkpt lat="43.72595" lon="6.98509">
        <ele>737.9</ele>
        <time>2026-05-16T08:15:26Z</time>
      </trkpt>
      <trkpt lat="43.72592" lon="6.9849">
        <ele>738.9</ele>
        <time>2026-05-16T08:15:27Z</time>
      </trkpt>
      <trkpt lat="43.7259" lon="6.9847">
        <ele>740.1</ele>
        <time>2026-05-16T08:15:28Z</time>
      </trkpt>
      <trkpt lat="43.72587" lon="6.98449">
        <ele>741.2</ele>
        <time>2026-05-16T08:15:29Z</time>
      </trkpt>
      <trkpt lat="43.72584" lon="6.98429">
        <ele>742.2</ele>
        <time>2026-05-16T08:15:30Z</time>
      </trkpt>
      <trkpt lat="43.72581" lon="6.98408">
        <ele>743.3</ele>
        <time>2026-05-16T08:15:31Z</time>
      </trkpt>
      <trkpt lat="43.72579" lon="6.98387">
        <ele>744.3</ele>
        <time>2026-05-16T08:15:32Z</time>
      </trkpt>
      <trkpt lat="43.72576" lon="6.98367">
        <ele>745</ele>
        <time>2026-05-16T08:15:33Z</time>
      </trkpt>
      <trkpt lat="43.72571" lon="6.98348">
        <ele>746</ele>
        <time>2026-05-16T08:15:34Z</time>
      </trkpt>
      <trkpt lat="43.72563" lon="6.98332">
        <ele>746.1</ele>
        <time>2026-05-16T08:15:35Z</time>
      </trkpt>
      <trkpt lat="43.72555" lon="6.98317">
        <ele>746.2</ele>
        <time>2026-05-16T08:15:36Z</time>
      </trkpt>
      <trkpt lat="43.72545" lon="6.98303">
        <ele>746.3</ele>
        <time>2026-05-16T08:15:37Z</time>
      </trkpt>
      <trkpt lat="43.72534" lon="6.9829">
        <ele>746.7</ele>
        <time>2026-05-16T08:15:38Z</time>
      </trkpt>
      <trkpt lat="43.72523" lon="6.98278">
        <ele>747.4</ele>
        <time>2026-05-16T08:15:39Z</time>
      </trkpt>
      <trkpt lat="43.7251" lon="6.98267">
        <ele>748.7</ele>
        <time>2026-05-16T08:15:40Z</time>
      </trkpt>
      <trkpt lat="43.72494" lon="6.98263">
        <ele>747.4</ele>
        <time>2026-05-16T08:15:41Z</time>
      </trkpt>
      <trkpt lat="43.72481" lon="6.98254">
        <ele>747</ele>
        <time>2026-05-16T08:15:42Z</time>
      </trkpt>
      <trkpt lat="43.72468" lon="6.98241">
        <ele>746.4</ele>
        <time>2026-05-16T08:15:43Z</time>
      </trkpt>
      <trkpt lat="43.72456" lon="6.98229">
        <ele>745.6</ele>
        <time>2026-05-16T08:15:44Z</time>
      </trkpt>
      <trkpt lat="43.72445" lon="6.98217">
        <ele>744.7</ele>
        <time>2026-05-16T08:15:45Z</time>
      </trkpt>
      <trkpt lat="43.72434" lon="6.98204">
        <ele>744.2</ele>
        <time>2026-05-16T08:15:46Z</time>
      </trkpt>
      <trkpt lat="43.72424" lon="6.98191">
        <ele>743.5</ele>
        <time>2026-05-16T08:15:47Z</time>
      </trkpt>
      <trkpt lat="43.72413" lon="6.98178">
        <ele>741.9</ele>
        <time>2026-05-16T08:15:48Z</time>
      </trkpt>
      <trkpt lat="43.72403" lon="6.98165">
        <ele>741.2</ele>
        <time>2026-05-16T08:15:49Z</time>
      </trkpt>
      <trkpt lat="43.72392" lon="6.98151">
        <ele>741.1</ele>
        <time>2026-05-16T08:15:50Z</time>
      </trkpt>
      <trkpt lat="43.72382" lon="6.98137">
        <ele>741.1</ele>
        <time>2026-05-16T08:15:51Z</time>
      </trkpt>
      <trkpt lat="43.72372" lon="6.98125">
        <ele>740.6</ele>
        <time>2026-05-16T08:15:52Z</time>
      </trkpt>
      <trkpt lat="43.72362" lon="6.98113">
        <ele>740</ele>
        <time>2026-05-16T08:15:53Z</time>
      </trkpt>
      <trkpt lat="43.72353" lon="6.98101">
        <ele>739.7</ele>
        <time>2026-05-16T08:15:54Z</time>
      </trkpt>
      <trkpt lat="43.72344" lon="6.98089">
        <ele>739.6</ele>
        <time>2026-05-16T08:15:55Z</time>
      </trkpt>
      <trkpt lat="43.72335" lon="6.98079">
        <ele>739.5</ele>
        <time>2026-05-16T08:15:56Z</time>
      </trkpt>
      <trkpt lat="43.72326" lon="6.98068">
        <ele>739.5</ele>
        <time>2026-05-16T08:15:57Z</time>
      </trkpt>
      <trkpt lat="43.72318" lon="6.98059">
        <ele>739.6</ele>
        <time>2026-05-16T08:15:58Z</time>
      </trkpt>
      <trkpt lat="43.72311" lon="6.98049">
        <ele>739.9</ele>
        <time>2026-05-16T08:15:59Z</time>
      </trkpt>
      <trkpt lat="43.72304" lon="6.9804">
        <ele>740</ele>
        <time>2026-05-16T08:16:00Z</time>
      </trkpt>
      <trkpt lat="43.72297" lon="6.98031">
        <ele>740.2</ele>
        <time>2026-05-16T08:16:01Z</time>
      </trkpt>
      <trkpt lat="43.7229" lon="6.98022">
        <ele>740.4</ele>
        <time>2026-05-16T08:16:02Z</time>
      </trkpt>
      <trkpt lat="43.72284" lon="6.98013">
        <ele>740.6</ele>
        <time>2026-05-16T08:16:03Z</time>
      </trkpt>
      <trkpt lat="43.72278" lon="6.98003">
        <ele>740.8</ele>
        <time>2026-05-16T08:16:04Z</time>
      </trkpt>
      <trkpt lat="43.72272" lon="6.97993">
        <ele>740.3</ele>
        <time>2026-05-16T08:16:05Z</time>
      </trkpt>
      <trkpt lat="43.72266" lon="6.97982">
        <ele>740</ele>
        <time>2026-05-16T08:16:06Z</time>
      </trkpt>
      <trkpt lat="43.7226" lon="6.9797">
        <ele>740</ele>
        <time>2026-05-16T08:16:07Z</time>
      </trkpt>
      <trkpt lat="43.72255" lon="6.97957">
        <ele>740.5</ele>
        <time>2026-05-16T08:16:08Z</time>
      </trkpt>
      <trkpt lat="43.72249" lon="6.97943">
        <ele>740.7</ele>
        <time>2026-05-16T08:16:09Z</time>
      </trkpt>
      <trkpt lat="43.72245" lon="6.97928">
        <ele>740.2</ele>
        <time>2026-05-16T08:16:10Z</time>
      </trkpt>
      <trkpt lat="43.72241" lon="6.97912">
        <ele>740</ele>
        <time>2026-05-16T08:16:11Z</time>
      </trkpt>
      <trkpt lat="43.72239" lon="6.97896">
        <ele>740.3</ele>
        <time>2026-05-16T08:16:12Z</time>
      </trkpt>
      <trkpt lat="43.72237" lon="6.97878">
        <ele>740.6</ele>
        <time>2026-05-16T08:16:13Z</time>
      </trkpt>
      <trkpt lat="43.72234" lon="6.97861">
        <ele>740.5</ele>
        <time>2026-05-16T08:16:14Z</time>
      </trkpt>
      <trkpt lat="43.7223" lon="6.97844">
        <ele>740.1</ele>
        <time>2026-05-16T08:16:15Z</time>
      </trkpt>
      <trkpt lat="43.72225" lon="6.97829">
        <ele>739.8</ele>
        <time>2026-05-16T08:16:16Z</time>
      </trkpt>
      <trkpt lat="43.72218" lon="6.97816">
        <ele>739.7</ele>
        <time>2026-05-16T08:16:17Z</time>
      </trkpt>
      <trkpt lat="43.72211" lon="6.97805">
        <ele>739.8</ele>
        <time>2026-05-16T08:16:18Z</time>
      </trkpt>
      <trkpt lat="43.72204" lon="6.97795">
        <ele>739.8</ele>
        <time>2026-05-16T08:16:19Z</time>
      </trkpt>
      <trkpt lat="43.72198" lon="6.97788">
        <ele>739.6</ele>
        <time>2026-05-16T08:16:20Z</time>
      </trkpt>
      <trkpt lat="43.72193" lon="6.97782">
        <ele>739.6</ele>
        <time>2026-05-16T08:16:21Z</time>
      </trkpt>
      <trkpt lat="43.72189" lon="6.97777">
        <ele>739.6</ele>
        <time>2026-05-16T08:16:22Z</time>
      </trkpt>
      <trkpt lat="43.72186" lon="6.97773">
        <ele>739.6</ele>
        <time>2026-05-16T08:16:23Z</time>
      </trkpt>
      <trkpt lat="43.72182" lon="6.9777">
        <ele>739.4</ele>
        <time>2026-05-16T08:16:24Z</time>
      </trkpt>
      <trkpt lat="43.72179" lon="6.97766">
        <ele>739.3</ele>
        <time>2026-05-16T08:16:25Z</time>
      </trkpt>
      <trkpt lat="43.72177" lon="6.97763">
        <ele>739.3</ele>
        <time>2026-05-16T08:16:26Z</time>
      </trkpt>
      <trkpt lat="43.72175" lon="6.9776">
        <ele>739.2</ele>
        <time>2026-05-16T08:16:27Z</time>
      </trkpt>
      <trkpt lat="43.72174" lon="6.97757">
        <ele>739.3</ele>
        <time>2026-05-16T08:16:28Z</time>
      </trkpt>
      <trkpt lat="43.72172" lon="6.97755">
        <ele>739.2</ele>
        <time>2026-05-16T08:16:29Z</time>
      </trkpt>
      <trkpt lat="43.72169" lon="6.97752">
        <ele>739.1</ele>
        <time>2026-05-16T08:16:30Z</time>
      </trkpt>
      <trkpt lat="43.72167" lon="6.97748">
        <ele>739.1</ele>
        <time>2026-05-16T08:16:31Z</time>
      </trkpt>
      <trkpt lat="43.72164" lon="6.97745">
        <ele>739.2</ele>
        <time>2026-05-16T08:16:32Z</time>
      </trkpt>
      <trkpt lat="43.72161" lon="6.97742">
        <ele>739.2</ele>
        <time>2026-05-16T08:16:33Z</time>
      </trkpt>
      <trkpt lat="43.72158" lon="6.97738">
        <ele>739.3</ele>
        <time>2026-05-16T08:16:34Z</time>
      </trkpt>
      <trkpt lat="43.72154" lon="6.97734">
        <ele>739.3</ele>
        <time>2026-05-16T08:16:35Z</time>
      </trkpt>
      <trkpt lat="43.72151" lon="6.97731">
        <ele>739.3</ele>
        <time>2026-05-16T08:16:36Z</time>
      </trkpt>
      <trkpt lat="43.72148" lon="6.97727">
        <ele>739.3</ele>
        <time>2026-05-16T08:16:37Z</time>
      </trkpt>
      <trkpt lat="43.72146" lon="6.97724">
        <ele>739.2</ele>
        <time>2026-05-16T08:16:38Z</time>
      </trkpt>
      <trkpt lat="43.72144" lon="6.97721">
        <ele>739.2</ele>
        <time>2026-05-16T08:16:39Z</time>
      </trkpt>
      <trkpt lat="43.72141" lon="6.9772">
        <ele>739.1</ele>
        <time>2026-05-16T08:16:40Z</time>
      </trkpt>
      <trkpt lat="43.72139" lon="6.9772">
        <ele>739</ele>
        <time>2026-05-16T08:16:41Z</time>
      </trkpt>
      <trkpt lat="43.72137" lon="6.97722">
        <ele>739.1</ele>
        <time>2026-05-16T08:16:42Z</time>
      </trkpt>
      <trkpt lat="43.72135" lon="6.97726">
        <ele>739.3</ele>
        <time>2026-05-16T08:16:43Z</time>
      </trkpt>
      <trkpt lat="43.72134" lon="6.9773">
        <ele>739.4</ele>
        <time>2026-05-16T08:16:44Z</time>
      </trkpt>
      <trkpt lat="43.72134" lon="6.97734">
        <ele>739.4</ele>
        <time>2026-05-16T08:16:45Z</time>
      </trkpt>
      <trkpt lat="43.72134" lon="6.97738">
        <ele>739.5</ele>
        <time>2026-05-16T08:16:46Z</time>
      </trkpt>
      <trkpt lat="43.72134" lon="6.97741">
        <ele>739.5</ele>
        <time>2026-05-16T08:16:47Z</time>
      </trkpt>
      <trkpt lat="43.72135" lon="6.97743">
        <ele>739.4</ele>
        <time>2026-05-16T08:16:48Z</time>
      </trkpt>
      <trkpt lat="43.72136" lon="6.97745">
        <ele>739.3</ele>
        <time>2026-05-16T08:16:49Z</time>
      </trkpt>
      <trkpt lat="43.72137" lon="6.97745">
        <ele>739.2</ele>
        <time>2026-05-16T08:16:50Z</time>
      </trkpt>
      <trkpt lat="43.72138" lon="6.97745">
        <ele>739.1</ele>
        <time>2026-05-16T08:16:51Z</time>
      </trkpt>
      <trkpt lat="43.72138" lon="6.97745">
        <ele>739.1</ele>
        <time>2026-05-16T08:16:52Z</time>
      </trkpt>
      <trkpt lat="43.72138" lon="6.97745">
        <ele>739.1</ele>
        <time>2026-05-16T08:16:53Z</time>
      </trkpt>
      <trkpt lat="43.72138" lon="6.97745">
        <ele>739.1</ele>
        <time>2026-05-16T08:16:54Z</time>
      </trkpt>
      <trkpt lat="43.72138" lon="6.97745">
        <ele>739.1</ele>
        <time>2026-05-16T08:16:55Z</time>
      </trkpt>
      <trkpt lat="43.72138" lon="6.97745">
        <ele>739.1</ele>
        <time>2026-05-16T08:16:56Z</time>
      </trkpt>
      <trkpt lat="43.72138" lon="6.97745">
        <ele>739.1</ele>
        <time>2026-05-16T08:16:57Z</time>
      </trkpt>
      <trkpt lat="43.72138" lon="6.97745">
        <ele>739.1</ele>
        <time>2026-05-16T08:16:58Z</time>
      </trkpt>
      <trkpt lat="43.72138" lon="6.97745">
        <ele>739.1</ele>
        <time>2026-05-16T08:16:59Z</time>
      </trkpt>
      <trkpt lat="43.72138" lon="6.97746">
        <ele>739.1</ele>
        <time>2026-05-16T08:17:00Z</time>
      </trkpt>
      <trkpt lat="43.72139" lon="6.97747">
        <ele>739</ele>
        <time>2026-05-16T08:17:01Z</time>
      </trkpt>
      <trkpt lat="43.7214" lon="6.97749">
        <ele>739</ele>
        <time>2026-05-16T08:17:02Z</time>
      </trkpt>
      <trkpt lat="43.72142" lon="6.97751">
        <ele>739</ele>
        <time>2026-05-16T08:17:03Z</time>
      </trkpt>
      <trkpt lat="43.72145" lon="6.97753">
        <ele>738.9</ele>
        <time>2026-05-16T08:17:04Z</time>
      </trkpt>
      <trkpt lat="43.72147" lon="6.97754">
        <ele>738.9</ele>
        <time>2026-05-16T08:17:05Z</time>
      </trkpt>
      <trkpt lat="43.72149" lon="6.97755">
        <ele>738.8</ele>
        <time>2026-05-16T08:17:06Z</time>
      </trkpt>
      <trkpt lat="43.72151" lon="6.97757">
        <ele>738.7</ele>
        <time>2026-05-16T08:17:07Z</time>
      </trkpt>
      <trkpt lat="43.72153" lon="6.97759">
        <ele>738.7</ele>
        <time>2026-05-16T08:17:08Z</time>
      </trkpt>
      <trkpt lat="43.72155" lon="6.97761">
        <ele>738.6</ele>
        <time>2026-05-16T08:17:09Z</time>
      </trkpt>
      <trkpt lat="43.72156" lon="6.97763">
        <ele>738.5</ele>
        <time>2026-05-16T08:17:10Z</time>
      </trkpt>
      <trkpt lat="43.72157" lon="6.97765">
        <ele>738.5</ele>
        <time>2026-05-16T08:17:11Z</time>
      </trkpt>
      <trkpt lat="43.72157" lon="6.97766">
        <ele>738.4</ele>
        <time>2026-05-16T08:17:12Z</time>
      </trkpt>
      <trkpt lat="43.72158" lon="6.97767">
        <ele>738.4</ele>
        <time>2026-05-16T08:17:13Z</time>
      </trkpt>
      <trkpt lat="43.72158" lon="6.97768">
        <ele>738.4</ele>
        <time>2026-05-16T08:17:14Z</time>
      </trkpt>
      <trkpt lat="43.72157" lon="6.97769">
        <ele>738.3</ele>
        <time>2026-05-16T08:17:15Z</time>
      </trkpt>
      <trkpt lat="43.72157" lon="6.9777">
        <ele>738.3</ele>
        <time>2026-05-16T08:17:16Z</time>
      </trkpt>
      <trkpt lat="43.72157" lon="6.97771">
        <ele>738.2</ele>
        <time>2026-05-16T08:17:17Z</time>
      </trkpt>
      <trkpt lat="43.72156" lon="6.97771">
        <ele>738.2</ele>
        <time>2026-05-16T08:17:18Z</time>
      </trkpt>
      <trkpt lat="43.72156" lon="6.97771">
        <ele>738.2</ele>
        <time>2026-05-16T08:17:19Z</time>
      </trkpt>
      <trkpt lat="43.72156" lon="6.97771">
        <ele>738.2</ele>
        <time>2026-05-16T08:17:20Z</time>
      </trkpt>
      <trkpt lat="43.72156" lon="6.97771">
        <ele>738.2</ele>
        <time>2026-05-16T08:17:21Z</time>
      </trkpt>
      <trkpt lat="43.72156" lon="6.9777">
        <ele>738.3</ele>
        <time>2026-05-16T08:17:22Z</time>
      </trkpt>
      <trkpt lat="43.72156" lon="6.9777">
        <ele>738.3</ele>
        <time>2026-05-16T08:17:23Z</time>
      </trkpt>
      <trkpt lat="43.72155" lon="6.9777">
        <ele>738.3</ele>
        <time>2026-05-16T08:17:24Z</time>
      </trkpt>
      <trkpt lat="43.72156" lon="6.9777">
        <ele>738.3</ele>
        <time>2026-05-16T08:17:25Z</time>
      </trkpt>
      <trkpt lat="43.72156" lon="6.9777">
        <ele>738.3</ele>
        <time>2026-05-16T08:17:26Z</time>
      </trkpt>
      <trkpt lat="43.72156" lon="6.9777">
        <ele>738.3</ele>
        <time>2026-05-16T08:17:27Z</time>
      </trkpt>
      <trkpt lat="43.72156" lon="6.9777">
        <ele>738.3</ele>
        <time>2026-05-16T08:17:28Z</time>
      </trkpt>
      <trkpt lat="43.72156" lon="6.9777">
        <ele>738.3</ele>
        <time>2026-05-16T08:17:29Z</time>
      </trkpt>
      <trkpt lat="43.72156" lon="6.9777">
        <ele>738.3</ele>
        <time>2026-05-16T08:17:30Z</time>
      </trkpt>
      <trkpt lat="43.72156" lon="6.97771">
        <ele>738.2</ele>
        <time>2026-05-16T08:17:31Z</time>
      </trkpt>
      <trkpt lat="43.72156" lon="6.97771">
        <ele>738.2</ele>
        <time>2026-05-16T08:17:32Z</time>
      </trkpt>
      <trkpt lat="43.72157" lon="6.97771">
        <ele>738.2</ele>
        <time>2026-05-16T08:17:33Z</time>
      </trkpt>
      <trkpt lat="43.72157" lon="6.9777">
        <ele>738.3</ele>
        <time>2026-05-16T08:17:34Z</time>
      </trkpt>
      <trkpt lat="43.72157" lon="6.9777">
        <ele>738.3</ele>
        <time>2026-05-16T08:17:35Z</time>
      </trkpt>
      <trkpt lat="43.72157" lon="6.9777">
        <ele>738.3</ele>
        <time>2026-05-16T08:17:36Z</time>
      </trkpt>
      <trkpt lat="43.72157" lon="6.9777">
        <ele>738.3</ele>
        <time>2026-05-16T08:17:37Z</time>
      </trkpt>
      <trkpt lat="43.72157" lon="6.9777">
        <ele>738.3</ele>
        <time>2026-05-16T08:17:38Z</time>
      </trkpt>
      <trkpt lat="43.72157" lon="6.9777">
        <ele>738.3</ele>
        <time>2026-05-16T08:17:39Z</time>
      </trkpt>
      <trkpt lat="43.72157" lon="6.9777">
        <ele>738.3</ele>
        <time>2026-05-16T08:17:40Z</time>
      </trkpt>
      <trkpt lat="43.72149" lon="6.97773">
        <ele>738.2</ele>
        <time>2026-05-16T08:54:54Z</time>
      </trkpt>
      <trkpt lat="43.72159" lon="6.97769">
        <ele>738.3</ele>
        <time>2026-05-16T08:54:55Z</time>
      </trkpt>
      <trkpt lat="43.7216" lon="6.97775">
        <ele>738.1</ele>
        <time>2026-05-16T08:54:56Z</time>
      </trkpt>
      <trkpt lat="43.72159" lon="6.97771">
        <ele>738.2</ele>
        <time>2026-05-16T08:54:57Z</time>
      </trkpt>
      <trkpt lat="43.72159" lon="6.9777">
        <ele>738.3</ele>
        <time>2026-05-16T08:54:58Z</time>
      </trkpt>
      <trkpt lat="43.72159" lon="6.97768">
        <ele>738.4</ele>
        <time>2026-05-16T08:54:59Z</time>
      </trkpt>
      <trkpt lat="43.72158" lon="6.97769">
        <ele>738.3</ele>
        <time>2026-05-16T08:55:00Z</time>
      </trkpt>
      <trkpt lat="43.72158" lon="6.9777">
        <ele>738.3</ele>
        <time>2026-05-16T08:55:01Z</time>
      </trkpt>
      <trkpt lat="43.72157" lon="6.97771">
        <ele>738.2</ele>
        <time>2026-05-16T08:55:02Z</time>
      </trkpt>
      <trkpt lat="43.72169" lon="6.97734">
        <ele>739.7</ele>
        <time>2026-05-16T09:12:28Z</time>
      </trkpt>
      <trkpt lat="43.72164" lon="6.97744">
        <ele>739.2</ele>
        <time>2026-05-16T09:12:29Z</time>
      </trkpt>
      <trkpt lat="43.72156" lon="6.97764">
        <ele>738.5</ele>
        <time>2026-05-16T09:12:30Z</time>
      </trkpt>
      <trkpt lat="43.72152" lon="6.97761">
        <ele>738.6</ele>
        <time>2026-05-16T09:12:31Z</time>
      </trkpt>
      <trkpt lat="43.72147" lon="6.97758">
        <ele>738.7</ele>
        <time>2026-05-16T09:12:32Z</time>
      </trkpt>
      <trkpt lat="43.72141" lon="6.97755">
        <ele>738.8</ele>
        <time>2026-05-16T09:12:33Z</time>
      </trkpt>
      <trkpt lat="43.72139" lon="6.97749">
        <ele>739</ele>
        <time>2026-05-16T09:12:34Z</time>
      </trkpt>
      <trkpt lat="43.72139" lon="6.97744">
        <ele>739</ele>
        <time>2026-05-16T09:12:35Z</time>
      </trkpt>
      <trkpt lat="43.7214" lon="6.97738">
        <ele>739</ele>
        <time>2026-05-16T09:12:36Z</time>
      </trkpt>
      <trkpt lat="43.72141" lon="6.97731">
        <ele>739.1</ele>
        <time>2026-05-16T09:12:37Z</time>
      </trkpt>
      <trkpt lat="43.72141" lon="6.97726">
        <ele>739.1</ele>
        <time>2026-05-16T09:12:38Z</time>
      </trkpt>
      <trkpt lat="43.72141" lon="6.97722">
        <ele>739.1</ele>
        <time>2026-05-16T09:12:39Z</time>
      </trkpt>
      <trkpt lat="43.72142" lon="6.9772">
        <ele>739.1</ele>
        <time>2026-05-16T09:12:40Z</time>
      </trkpt>
      <trkpt lat="43.72143" lon="6.97718">
        <ele>739.1</ele>
        <time>2026-05-16T09:12:41Z</time>
      </trkpt>
      <trkpt lat="43.72143" lon="6.97717">
        <ele>739.1</ele>
        <time>2026-05-16T09:12:42Z</time>
      </trkpt>
      <trkpt lat="43.72143" lon="6.97717">
        <ele>739.1</ele>
        <time>2026-05-16T09:12:43Z</time>
      </trkpt>
      <trkpt lat="43.72143" lon="6.97715">
        <ele>739.1</ele>
        <time>2026-05-16T09:12:44Z</time>
      </trkpt>
      <trkpt lat="43.72144" lon="6.97712">
        <ele>739.2</ele>
        <time>2026-05-16T09:12:45Z</time>
      </trkpt>
      <trkpt lat="43.72142" lon="6.97708">
        <ele>739.1</ele>
        <time>2026-05-16T09:12:46Z</time>
      </trkpt>
      <trkpt lat="43.7214" lon="6.97706">
        <ele>739</ele>
        <time>2026-05-16T09:12:47Z</time>
      </trkpt>
      <trkpt lat="43.72138" lon="6.97704">
        <ele>739</ele>
        <time>2026-05-16T09:12:48Z</time>
      </trkpt>
      <trkpt lat="43.72136" lon="6.97701">
        <ele>739.1</ele>
        <time>2026-05-16T09:12:49Z</time>
      </trkpt>
      <trkpt lat="43.72135" lon="6.97697">
        <ele>739.2</ele>
        <time>2026-05-16T09:12:50Z</time>
      </trkpt>
      <trkpt lat="43.72135" lon="6.97693">
        <ele>739.2</ele>
        <time>2026-05-16T09:12:51Z</time>
      </trkpt>
      <trkpt lat="43.72142" lon="6.97686">
        <ele>739.5</ele>
        <time>2026-05-16T09:12:52Z</time>
      </trkpt>
      <trkpt lat="43.72147" lon="6.97678">
        <ele>740.1</ele>
        <time>2026-05-16T09:12:53Z</time>
      </trkpt>
      <trkpt lat="43.72152" lon="6.97669">
        <ele>740.8</ele>
        <time>2026-05-16T09:12:54Z</time>
      </trkpt>
      <trkpt lat="43.72158" lon="6.97658">
        <ele>741.9</ele>
        <time>2026-05-16T09:12:55Z</time>
      </trkpt>
      <trkpt lat="43.72164" lon="6.97646">
        <ele>743.2</ele>
        <time>2026-05-16T09:12:56Z</time>
      </trkpt>
      <trkpt lat="43.7217" lon="6.97634">
        <ele>744.8</ele>
        <time>2026-05-16T09:12:57Z</time>
      </trkpt>
      <trkpt lat="43.72175" lon="6.9762">
        <ele>746.8</ele>
        <time>2026-05-16T09:12:58Z</time>
      </trkpt>
      <trkpt lat="43.72178" lon="6.97605">
        <ele>748.8</ele>
        <time>2026-05-16T09:12:59Z</time>
      </trkpt>
      <trkpt lat="43.72179" lon="6.9759">
        <ele>750.3</ele>
        <time>2026-05-16T09:13:00Z</time>
      </trkpt>
      <trkpt lat="43.7218" lon="6.97575">
        <ele>752.2</ele>
        <time>2026-05-16T09:13:01Z</time>
      </trkpt>
      <trkpt lat="43.72179" lon="6.9756">
        <ele>753.4</ele>
        <time>2026-05-16T09:13:02Z</time>
      </trkpt>
      <trkpt lat="43.72176" lon="6.97545">
        <ele>753.5</ele>
        <time>2026-05-16T09:13:03Z</time>
      </trkpt>
      <trkpt lat="43.72171" lon="6.97531">
        <ele>752.5</ele>
        <time>2026-05-16T09:13:04Z</time>
      </trkpt>
      <trkpt lat="43.72166" lon="6.97518">
        <ele>752.9</ele>
        <time>2026-05-16T09:13:05Z</time>
      </trkpt>
      <trkpt lat="43.72161" lon="6.97505">
        <ele>754</ele>
        <time>2026-05-16T09:13:06Z</time>
      </trkpt>
      <trkpt lat="43.72156" lon="6.97493">
        <ele>754.4</ele>
        <time>2026-05-16T09:13:07Z</time>
      </trkpt>
      <trkpt lat="43.72151" lon="6.97481">
        <ele>754.8</ele>
        <time>2026-05-16T09:13:08Z</time>
      </trkpt>
      <trkpt lat="43.72147" lon="6.97469">
        <ele>755.8</ele>
        <time>2026-05-16T09:13:09Z</time>
      </trkpt>
      <trkpt lat="43.72145" lon="6.97457">
        <ele>756.6</ele>
        <time>2026-05-16T09:13:10Z</time>
      </trkpt>
      <trkpt lat="43.72144" lon="6.97445">
        <ele>757.7</ele>
        <time>2026-05-16T09:13:11Z</time>
      </trkpt>
      <trkpt lat="43.72147" lon="6.97435">
        <ele>757.7</ele>
        <time>2026-05-16T09:13:12Z</time>
      </trkpt>
      <trkpt lat="43.72151" lon="6.97426">
        <ele>757.8</ele>
        <time>2026-05-16T09:13:13Z</time>
      </trkpt>
      <trkpt lat="43.72159" lon="6.97418">
        <ele>758.3</ele>
        <time>2026-05-16T09:13:14Z</time>
      </trkpt>
      <trkpt lat="43.72168" lon="6.97411">
        <ele>758.1</ele>
        <time>2026-05-16T09:13:15Z</time>
      </trkpt>
      <trkpt lat="43.7218" lon="6.97405">
        <ele>758.5</ele>
        <time>2026-05-16T09:13:16Z</time>
      </trkpt>
      <trkpt lat="43.72192" lon="6.97399">
        <ele>759.1</ele>
        <time>2026-05-16T09:13:17Z</time>
      </trkpt>
      <trkpt lat="43.72205" lon="6.97394">
        <ele>760.5</ele>
        <time>2026-05-16T09:13:18Z</time>
      </trkpt>
      <trkpt lat="43.72216" lon="6.97388">
        <ele>760.9</ele>
        <time>2026-05-16T09:13:19Z</time>
      </trkpt>
      <trkpt lat="43.72227" lon="6.97382">
        <ele>761.7</ele>
        <time>2026-05-16T09:13:20Z</time>
      </trkpt>
      <trkpt lat="43.72237" lon="6.97378">
        <ele>762.8</ele>
        <time>2026-05-16T09:13:21Z</time>
      </trkpt>
      <trkpt lat="43.72247" lon="6.97373">
        <ele>763.5</ele>
        <time>2026-05-16T09:13:22Z</time>
      </trkpt>
      <trkpt lat="43.72256" lon="6.9737">
        <ele>764.6</ele>
        <time>2026-05-16T09:13:23Z</time>
      </trkpt>
      <trkpt lat="43.72264" lon="6.97363">
        <ele>764.9</ele>
        <time>2026-05-16T09:13:24Z</time>
      </trkpt>
      <trkpt lat="43.72271" lon="6.97354">
        <ele>765.9</ele>
        <time>2026-05-16T09:13:25Z</time>
      </trkpt>
      <trkpt lat="43.72276" lon="6.9734">
        <ele>766.7</ele>
        <time>2026-05-16T09:13:26Z</time>
      </trkpt>
      <trkpt lat="43.7228" lon="6.97325">
        <ele>767.5</ele>
        <time>2026-05-16T09:13:27Z</time>
      </trkpt>
      <trkpt lat="43.72282" lon="6.97309">
        <ele>767.8</ele>
        <time>2026-05-16T09:13:28Z</time>
      </trkpt>
      <trkpt lat="43.72283" lon="6.97291">
        <ele>768.6</ele>
        <time>2026-05-16T09:13:29Z</time>
      </trkpt>
      <trkpt lat="43.72281" lon="6.9727">
        <ele>768.9</ele>
        <time>2026-05-16T09:13:30Z</time>
      </trkpt>
      <trkpt lat="43.72279" lon="6.97247">
        <ele>769.7</ele>
        <time>2026-05-16T09:13:31Z</time>
      </trkpt>
      <trkpt lat="43.72279" lon="6.97225">
        <ele>771.3</ele>
        <time>2026-05-16T09:13:32Z</time>
      </trkpt>
      <trkpt lat="43.72281" lon="6.97204">
        <ele>771.3</ele>
        <time>2026-05-16T09:13:33Z</time>
      </trkpt>
      <trkpt lat="43.72286" lon="6.97184">
        <ele>773.1</ele>
        <time>2026-05-16T09:13:34Z</time>
      </trkpt>
      <trkpt lat="43.72292" lon="6.97161">
        <ele>775.6</ele>
        <time>2026-05-16T09:13:35Z</time>
      </trkpt>
      <trkpt lat="43.72296" lon="6.97138">
        <ele>777.5</ele>
        <time>2026-05-16T09:13:36Z</time>
      </trkpt>
      <trkpt lat="43.72298" lon="6.97112">
        <ele>778.6</ele>
        <time>2026-05-16T09:13:37Z</time>
      </trkpt>
      <trkpt lat="43.72298" lon="6.97086">
        <ele>780.2</ele>
        <time>2026-05-16T09:13:38Z</time>
      </trkpt>
      <trkpt lat="43.72296" lon="6.97059">
        <ele>781.2</ele>
        <time>2026-05-16T09:13:39Z</time>
      </trkpt>
      <trkpt lat="43.72294" lon="6.97032">
        <ele>782.3</ele>
        <time>2026-05-16T09:13:40Z</time>
      </trkpt>
      <trkpt lat="43.72292" lon="6.97005">
        <ele>783.3</ele>
        <time>2026-05-16T09:13:41Z</time>
      </trkpt>
      <trkpt lat="43.7229" lon="6.96978">
        <ele>783.7</ele>
        <time>2026-05-16T09:13:42Z</time>
      </trkpt>
      <trkpt lat="43.72289" lon="6.96951">
        <ele>784.4</ele>
        <time>2026-05-16T09:13:43Z</time>
      </trkpt>
      <trkpt lat="43.72288" lon="6.96925">
        <ele>784.9</ele>
        <time>2026-05-16T09:13:44Z</time>
      </trkpt>
      <trkpt lat="43.72288" lon="6.969">
        <ele>786.2</ele>
        <time>2026-05-16T09:13:45Z</time>
      </trkpt>
      <trkpt lat="43.72286" lon="6.96877">
        <ele>786.6</ele>
        <time>2026-05-16T09:13:46Z</time>
      </trkpt>
      <trkpt lat="43.72284" lon="6.96853">
        <ele>787.5</ele>
        <time>2026-05-16T09:13:47Z</time>
      </trkpt>
      <trkpt lat="43.72281" lon="6.9683">
        <ele>788.3</ele>
        <time>2026-05-16T09:13:48Z</time>
      </trkpt>
      <trkpt lat="43.72279" lon="6.96809">
        <ele>789.3</ele>
        <time>2026-05-16T09:13:49Z</time>
      </trkpt>
      <trkpt lat="43.72279" lon="6.96789">
        <ele>790.2</ele>
        <time>2026-05-16T09:13:50Z</time>
      </trkpt>
      <trkpt lat="43.72283" lon="6.96771">
        <ele>791.5</ele>
        <time>2026-05-16T09:13:51Z</time>
      </trkpt>
      <trkpt lat="43.7229" lon="6.96757">
        <ele>791.8</ele>
        <time>2026-05-16T09:13:52Z</time>
      </trkpt>
      <trkpt lat="43.72301" lon="6.96748">
        <ele>793</ele>
        <time>2026-05-16T09:13:53Z</time>
      </trkpt>
      <trkpt lat="43.72314" lon="6.96745">
        <ele>793.3</ele>
        <time>2026-05-16T09:13:54Z</time>
      </trkpt>
      <trkpt lat="43.72328" lon="6.96745">
        <ele>793.8</ele>
        <time>2026-05-16T09:13:55Z</time>
      </trkpt>
      <trkpt lat="43.72341" lon="6.96751">
        <ele>794.4</ele>
        <time>2026-05-16T09:13:56Z</time>
      </trkpt>
      <trkpt lat="43.72351" lon="6.96761">
        <ele>794.6</ele>
        <time>2026-05-16T09:13:57Z</time>
      </trkpt>
      <trkpt lat="43.72359" lon="6.96775">
        <ele>796</ele>
        <time>2026-05-16T09:13:58Z</time>
      </trkpt>
      <trkpt lat="43.72365" lon="6.96793">
        <ele>797.1</ele>
        <time>2026-05-16T09:13:59Z</time>
      </trkpt>
      <trkpt lat="43.7237" lon="6.96813">
        <ele>798.1</ele>
        <time>2026-05-16T09:14:00Z</time>
      </trkpt>
      <trkpt lat="43.72375" lon="6.96835">
        <ele>799.2</ele>
        <time>2026-05-16T09:14:01Z</time>
      </trkpt>
      <trkpt lat="43.72381" lon="6.96858">
        <ele>800.1</ele>
        <time>2026-05-16T09:14:02Z</time>
      </trkpt>
      <trkpt lat="43.72389" lon="6.9688">
        <ele>800.7</ele>
        <time>2026-05-16T09:14:03Z</time>
      </trkpt>
      <trkpt lat="43.72399" lon="6.96904">
        <ele>801.4</ele>
        <time>2026-05-16T09:14:04Z</time>
      </trkpt>
      <trkpt lat="43.72407" lon="6.96928">
        <ele>802.8</ele>
        <time>2026-05-16T09:14:05Z</time>
      </trkpt>
      <trkpt lat="43.72415" lon="6.96951">
        <ele>805</ele>
        <time>2026-05-16T09:14:06Z</time>
      </trkpt>
      <trkpt lat="43.72425" lon="6.9697">
        <ele>806.7</ele>
        <time>2026-05-16T09:14:07Z</time>
      </trkpt>
      <trkpt lat="43.72437" lon="6.96985">
        <ele>807.4</ele>
        <time>2026-05-16T09:14:08Z</time>
      </trkpt>
      <trkpt lat="43.72451" lon="6.96995">
        <ele>807.7</ele>
        <time>2026-05-16T09:14:09Z</time>
      </trkpt>
      <trkpt lat="43.72465" lon="6.97003">
        <ele>808.7</ele>
        <time>2026-05-16T09:14:10Z</time>
      </trkpt>
      <trkpt lat="43.72476" lon="6.97013">
        <ele>809.7</ele>
        <time>2026-05-16T09:14:11Z</time>
      </trkpt>
      <trkpt lat="43.72485" lon="6.97027">
        <ele>811</ele>
        <time>2026-05-16T09:14:12Z</time>
      </trkpt>
      <trkpt lat="43.72489" lon="6.97044">
        <ele>812.4</ele>
        <time>2026-05-16T09:14:13Z</time>
      </trkpt>
      <trkpt lat="43.72489" lon="6.97063">
        <ele>814.1</ele>
        <time>2026-05-16T09:14:14Z</time>
      </trkpt>
      <trkpt lat="43.72486" lon="6.97082">
        <ele>815.4</ele>
        <time>2026-05-16T09:14:15Z</time>
      </trkpt>
      <trkpt lat="43.72479" lon="6.97098">
        <ele>815.9</ele>
        <time>2026-05-16T09:14:16Z</time>
      </trkpt>
      <trkpt lat="43.72472" lon="6.97112">
        <ele>816.1</ele>
        <time>2026-05-16T09:14:17Z</time>
      </trkpt>
      <trkpt lat="43.72467" lon="6.97124">
        <ele>817.3</ele>
        <time>2026-05-16T09:14:18Z</time>
      </trkpt>
      <trkpt lat="43.72464" lon="6.97135">
        <ele>818.1</ele>
        <time>2026-05-16T09:14:19Z</time>
      </trkpt>
      <trkpt lat="43.72464" lon="6.97147">
        <ele>818.6</ele>
        <time>2026-05-16T09:14:20Z</time>
      </trkpt>
      <trkpt lat="43.72466" lon="6.97159">
        <ele>818.9</ele>
        <time>2026-05-16T09:14:21Z</time>
      </trkpt>
      <trkpt lat="43.72471" lon="6.97168">
        <ele>818.5</ele>
        <time>2026-05-16T09:14:22Z</time>
      </trkpt>
      <trkpt lat="43.72478" lon="6.97173">
        <ele>819.9</ele>
        <time>2026-05-16T09:14:23Z</time>
      </trkpt>
      <trkpt lat="43.72487" lon="6.97174">
        <ele>821.3</ele>
        <time>2026-05-16T09:14:24Z</time>
      </trkpt>
      <trkpt lat="43.72496" lon="6.9717">
        <ele>821.9</ele>
        <time>2026-05-16T09:14:25Z</time>
      </trkpt>
      <trkpt lat="43.72504" lon="6.97162">
        <ele>822.3</ele>
        <time>2026-05-16T09:14:26Z</time>
      </trkpt>
      <trkpt lat="43.72511" lon="6.97152">
        <ele>822.5</ele>
        <time>2026-05-16T09:14:27Z</time>
      </trkpt>
      <trkpt lat="43.72518" lon="6.97141">
        <ele>822.2</ele>
        <time>2026-05-16T09:14:28Z</time>
      </trkpt>
      <trkpt lat="43.72525" lon="6.9713">
        <ele>822.5</ele>
        <time>2026-05-16T09:14:29Z</time>
      </trkpt>
      <trkpt lat="43.7253" lon="6.97122">
        <ele>822.8</ele>
        <time>2026-05-16T09:14:30Z</time>
      </trkpt>
      <trkpt lat="43.72535" lon="6.97115">
        <ele>823.5</ele>
        <time>2026-05-16T09:14:31Z</time>
      </trkpt>
      <trkpt lat="43.7254" lon="6.97107">
        <ele>824.2</ele>
        <time>2026-05-16T09:14:32Z</time>
      </trkpt>
      <trkpt lat="43.72545" lon="6.971">
        <ele>824.9</ele>
        <time>2026-05-16T09:14:33Z</time>
      </trkpt>
      <trkpt lat="43.72549" lon="6.97094">
        <ele>825.4</ele>
        <time>2026-05-16T09:14:34Z</time>
      </trkpt>
      <trkpt lat="43.72554" lon="6.97088">
        <ele>826.1</ele>
        <time>2026-05-16T09:14:35Z</time>
      </trkpt>
      <trkpt lat="43.72558" lon="6.9708">
        <ele>826.3</ele>
        <time>2026-05-16T09:14:36Z</time>
      </trkpt>
      <trkpt lat="43.72563" lon="6.97072">
        <ele>826.7</ele>
        <time>2026-05-16T09:14:37Z</time>
      </trkpt>
      <trkpt lat="43.72568" lon="6.97065">
        <ele>827.2</ele>
        <time>2026-05-16T09:14:38Z</time>
      </trkpt>
      <trkpt lat="43.72574" lon="6.97057">
        <ele>827.8</ele>
        <time>2026-05-16T09:14:39Z</time>
      </trkpt>
      <trkpt lat="43.72579" lon="6.97048">
        <ele>828.4</ele>
        <time>2026-05-16T09:14:40Z</time>
      </trkpt>
      <trkpt lat="43.72586" lon="6.97038">
        <ele>829.3</ele>
        <time>2026-05-16T09:14:41Z</time>
      </trkpt>
      <trkpt lat="43.72592" lon="6.97027">
        <ele>829.8</ele>
        <time>2026-05-16T09:14:42Z</time>
      </trkpt>
      <trkpt lat="43.72599" lon="6.97017">
        <ele>830.4</ele>
        <time>2026-05-16T09:14:43Z</time>
      </trkpt>
      <trkpt lat="43.72606" lon="6.97005">
        <ele>831.1</ele>
        <time>2026-05-16T09:14:44Z</time>
      </trkpt>
      <trkpt lat="43.72613" lon="6.96993">
        <ele>831.8</ele>
        <time>2026-05-16T09:14:45Z</time>
      </trkpt>
      <trkpt lat="43.7262" lon="6.96979">
        <ele>832.1</ele>
        <time>2026-05-16T09:14:46Z</time>
      </trkpt>
      <trkpt lat="43.72627" lon="6.96965">
        <ele>832.9</ele>
        <time>2026-05-16T09:14:47Z</time>
      </trkpt>
      <trkpt lat="43.72633" lon="6.96951">
        <ele>833.9</ele>
        <time>2026-05-16T09:14:48Z</time>
      </trkpt>
      <trkpt lat="43.72639" lon="6.96937">
        <ele>835.3</ele>
        <time>2026-05-16T09:14:49Z</time>
      </trkpt>
      <trkpt lat="43.72645" lon="6.96923">
        <ele>837.1</ele>
        <time>2026-05-16T09:14:50Z</time>
      </trkpt>
      <trkpt lat="43.7265" lon="6.96911">
        <ele>838.4</ele>
        <time>2026-05-16T09:14:51Z</time>
      </trkpt>
      <trkpt lat="43.72655" lon="6.96901">
        <ele>839.5</ele>
        <time>2026-05-16T09:14:52Z</time>
      </trkpt>
      <trkpt lat="43.7266" lon="6.96891">
        <ele>840.6</ele>
        <time>2026-05-16T09:14:53Z</time>
      </trkpt>
      <trkpt lat="43.72664" lon="6.96881">
        <ele>841.5</ele>
        <time>2026-05-16T09:14:54Z</time>
      </trkpt>
      <trkpt lat="43.72669" lon="6.96872">
        <ele>842.4</ele>
        <time>2026-05-16T09:14:55Z</time>
      </trkpt>
      <trkpt lat="43.72672" lon="6.96864">
        <ele>842.8</ele>
        <time>2026-05-16T09:14:56Z</time>
      </trkpt>
      <trkpt lat="43.72676" lon="6.96855">
        <ele>842.9</ele>
        <time>2026-05-16T09:14:57Z</time>
      </trkpt>
      <trkpt lat="43.72681" lon="6.96846">
        <ele>843</ele>
        <time>2026-05-16T09:14:58Z</time>
      </trkpt>
      <trkpt lat="43.72686" lon="6.96836">
        <ele>843</ele>
        <time>2026-05-16T09:14:59Z</time>
      </trkpt>
      <trkpt lat="43.7269" lon="6.96824">
        <ele>843</ele>
        <time>2026-05-16T09:15:00Z</time>
      </trkpt>
      <trkpt lat="43.72695" lon="6.96813">
        <ele>843.4</ele>
        <time>2026-05-16T09:15:01Z</time>
      </trkpt>
      <trkpt lat="43.727" lon="6.968">
        <ele>844.1</ele>
        <time>2026-05-16T09:15:02Z</time>
      </trkpt>
      <trkpt lat="43.72704" lon="6.96787">
        <ele>844.9</ele>
        <time>2026-05-16T09:15:03Z</time>
      </trkpt>
      <trkpt lat="43.72708" lon="6.96772">
        <ele>846</ele>
        <time>2026-05-16T09:15:04Z</time>
      </trkpt>
      <trkpt lat="43.72712" lon="6.96756">
        <ele>847.6</ele>
        <time>2026-05-16T09:15:05Z</time>
      </trkpt>
      <trkpt lat="43.72715" lon="6.96739">
        <ele>848.6</ele>
        <time>2026-05-16T09:15:06Z</time>
      </trkpt>
      <trkpt lat="43.72718" lon="6.96721">
        <ele>849.4</ele>
        <time>2026-05-16T09:15:07Z</time>
      </trkpt>
      <trkpt lat="43.72722" lon="6.96702">
        <ele>850.2</ele>
        <time>2026-05-16T09:15:08Z</time>
      </trkpt>
      <trkpt lat="43.72725" lon="6.96681">
        <ele>851.3</ele>
        <time>2026-05-16T09:15:09Z</time>
      </trkpt>
      <trkpt lat="43.72728" lon="6.96659">
        <ele>852.7</ele>
        <time>2026-05-16T09:15:10Z</time>
      </trkpt>
      <trkpt lat="43.72731" lon="6.96638">
        <ele>854.1</ele>
        <time>2026-05-16T09:15:11Z</time>
      </trkpt>
      <trkpt lat="43.72733" lon="6.96615">
        <ele>855.4</ele>
        <time>2026-05-16T09:15:12Z</time>
      </trkpt>
      <trkpt lat="43.72735" lon="6.96592">
        <ele>854.5</ele>
        <time>2026-05-16T09:15:13Z</time>
      </trkpt>
      <trkpt lat="43.72736" lon="6.96567">
        <ele>854.3</ele>
        <time>2026-05-16T09:15:14Z</time>
      </trkpt>
      <trkpt lat="43.72737" lon="6.96542">
        <ele>856</ele>
        <time>2026-05-16T09:15:15Z</time>
      </trkpt>
      <trkpt lat="43.72736" lon="6.96516">
        <ele>858</ele>
        <time>2026-05-16T09:15:16Z</time>
      </trkpt>
      <trkpt lat="43.72735" lon="6.9649">
        <ele>860.4</ele>
        <time>2026-05-16T09:15:17Z</time>
      </trkpt>
      <trkpt lat="43.72734" lon="6.96464">
        <ele>862.4</ele>
        <time>2026-05-16T09:15:18Z</time>
      </trkpt>
      <trkpt lat="43.72733" lon="6.96439">
        <ele>863.3</ele>
        <time>2026-05-16T09:15:19Z</time>
      </trkpt>
      <trkpt lat="43.72733" lon="6.96415">
        <ele>865.9</ele>
        <time>2026-05-16T09:15:20Z</time>
      </trkpt>
      <trkpt lat="43.72732" lon="6.96392">
        <ele>866.5</ele>
        <time>2026-05-16T09:15:21Z</time>
      </trkpt>
      <trkpt lat="43.72732" lon="6.96368">
        <ele>867.9</ele>
        <time>2026-05-16T09:15:22Z</time>
      </trkpt>
      <trkpt lat="43.72732" lon="6.96345">
        <ele>869.7</ele>
        <time>2026-05-16T09:15:23Z</time>
      </trkpt>
      <trkpt lat="43.72731" lon="6.96321">
        <ele>870.7</ele>
        <time>2026-05-16T09:15:24Z</time>
      </trkpt>
      <trkpt lat="43.7273" lon="6.96298">
        <ele>871.3</ele>
        <time>2026-05-16T09:15:25Z</time>
      </trkpt>
      <trkpt lat="43.7273" lon="6.96277">
        <ele>872.6</ele>
        <time>2026-05-16T09:15:26Z</time>
      </trkpt>
      <trkpt lat="43.72732" lon="6.96257">
        <ele>873.5</ele>
        <time>2026-05-16T09:15:27Z</time>
      </trkpt>
      <trkpt lat="43.72735" lon="6.96237">
        <ele>873.9</ele>
        <time>2026-05-16T09:15:28Z</time>
      </trkpt>
      <trkpt lat="43.7274" lon="6.96218">
        <ele>874.8</ele>
        <time>2026-05-16T09:15:29Z</time>
      </trkpt>
      <trkpt lat="43.72747" lon="6.96199">
        <ele>876</ele>
        <time>2026-05-16T09:15:30Z</time>
      </trkpt>
      <trkpt lat="43.72754" lon="6.96181">
        <ele>876.5</ele>
        <time>2026-05-16T09:15:31Z</time>
      </trkpt>
      <trkpt lat="43.72763" lon="6.96164">
        <ele>877.8</ele>
        <time>2026-05-16T09:15:32Z</time>
      </trkpt>
      <trkpt lat="43.72773" lon="6.96148">
        <ele>879</ele>
        <time>2026-05-16T09:15:33Z</time>
      </trkpt>
      <trkpt lat="43.72784" lon="6.96133">
        <ele>880</ele>
        <time>2026-05-16T09:15:34Z</time>
      </trkpt>
      <trkpt lat="43.72796" lon="6.96119">
        <ele>881.1</ele>
        <time>2026-05-16T09:15:35Z</time>
      </trkpt>
      <trkpt lat="43.72809" lon="6.96106">
        <ele>882.2</ele>
        <time>2026-05-16T09:15:36Z</time>
      </trkpt>
      <trkpt lat="43.72823" lon="6.96097">
        <ele>883.7</ele>
        <time>2026-05-16T09:15:37Z</time>
      </trkpt>
      <trkpt lat="43.72838" lon="6.96087">
        <ele>885</ele>
        <time>2026-05-16T09:15:38Z</time>
      </trkpt>
      <trkpt lat="43.72853" lon="6.96077">
        <ele>885.7</ele>
        <time>2026-05-16T09:15:39Z</time>
      </trkpt>
      <trkpt lat="43.72869" lon="6.96067">
        <ele>886</ele>
        <time>2026-05-16T09:15:40Z</time>
      </trkpt>
      <trkpt lat="43.72885" lon="6.96058">
        <ele>886.8</ele>
        <time>2026-05-16T09:15:41Z</time>
      </trkpt>
      <trkpt lat="43.72901" lon="6.96048">
        <ele>888.5</ele>
        <time>2026-05-16T09:15:42Z</time>
      </trkpt>
      <trkpt lat="43.72917" lon="6.96038">
        <ele>890.4</ele>
        <time>2026-05-16T09:15:43Z</time>
      </trkpt>
      <trkpt lat="43.72934" lon="6.96028">
        <ele>891.5</ele>
        <time>2026-05-16T09:15:44Z</time>
      </trkpt>
      <trkpt lat="43.7295" lon="6.96019">
        <ele>892.3</ele>
        <time>2026-05-16T09:15:45Z</time>
      </trkpt>
      <trkpt lat="43.72966" lon="6.96009">
        <ele>893</ele>
        <time>2026-05-16T09:15:46Z</time>
      </trkpt>
      <trkpt lat="43.72982" lon="6.95999">
        <ele>893.8</ele>
        <time>2026-05-16T09:15:47Z</time>
      </trkpt>
      <trkpt lat="43.72997" lon="6.95991">
        <ele>895.5</ele>
        <time>2026-05-16T09:15:48Z</time>
      </trkpt>
      <trkpt lat="43.73012" lon="6.95985">
        <ele>896</ele>
        <time>2026-05-16T09:15:49Z</time>
      </trkpt>
      <trkpt lat="43.73027" lon="6.95981">
        <ele>897</ele>
        <time>2026-05-16T09:15:50Z</time>
      </trkpt>
      <trkpt lat="43.73042" lon="6.95979">
        <ele>898.1</ele>
        <time>2026-05-16T09:15:51Z</time>
      </trkpt>
      <trkpt lat="43.73056" lon="6.95975">
        <ele>898.8</ele>
        <time>2026-05-16T09:15:52Z</time>
      </trkpt>
      <trkpt lat="43.73071" lon="6.9597">
        <ele>901.6</ele>
        <time>2026-05-16T09:15:53Z</time>
      </trkpt>
      <trkpt lat="43.73086" lon="6.95962">
        <ele>903.4</ele>
        <time>2026-05-16T09:15:54Z</time>
      </trkpt>
      <trkpt lat="43.73101" lon="6.95952">
        <ele>905.4</ele>
        <time>2026-05-16T09:15:55Z</time>
      </trkpt>
      <trkpt lat="43.73116" lon="6.95942">
        <ele>906.6</ele>
        <time>2026-05-16T09:15:56Z</time>
      </trkpt>
      <trkpt lat="43.73132" lon="6.95931">
        <ele>907.4</ele>
        <time>2026-05-16T09:15:57Z</time>
      </trkpt>
      <trkpt lat="43.73148" lon="6.95921">
        <ele>908</ele>
        <time>2026-05-16T09:15:58Z</time>
      </trkpt>
      <trkpt lat="43.73163" lon="6.95911">
        <ele>908.4</ele>
        <time>2026-05-16T09:15:59Z</time>
      </trkpt>
      <trkpt lat="43.73178" lon="6.959">
        <ele>910.4</ele>
        <time>2026-05-16T09:16:00Z</time>
      </trkpt>
      <trkpt lat="43.73192" lon="6.95887">
        <ele>911.5</ele>
        <time>2026-05-16T09:16:01Z</time>
      </trkpt>
      <trkpt lat="43.73205" lon="6.95874">
        <ele>912.7</ele>
        <time>2026-05-16T09:16:02Z</time>
      </trkpt>
      <trkpt lat="43.73217" lon="6.9586">
        <ele>913.4</ele>
        <time>2026-05-16T09:16:03Z</time>
      </trkpt>
      <trkpt lat="43.73228" lon="6.95848">
        <ele>914.6</ele>
        <time>2026-05-16T09:16:04Z</time>
      </trkpt>
      <trkpt lat="43.73239" lon="6.95835">
        <ele>915.2</ele>
        <time>2026-05-16T09:16:05Z</time>
      </trkpt>
      <trkpt lat="43.73251" lon="6.95823">
        <ele>916.7</ele>
        <time>2026-05-16T09:16:06Z</time>
      </trkpt>
      <trkpt lat="43.73263" lon="6.95813">
        <ele>917.1</ele>
        <time>2026-05-16T09:16:07Z</time>
      </trkpt>
      <trkpt lat="43.73277" lon="6.95806">
        <ele>918</ele>
        <time>2026-05-16T09:16:08Z</time>
      </trkpt>
      <trkpt lat="43.73291" lon="6.95804">
        <ele>918.4</ele>
        <time>2026-05-16T09:16:09Z</time>
      </trkpt>
      <trkpt lat="43.73306" lon="6.95805">
        <ele>919.8</ele>
        <time>2026-05-16T09:16:10Z</time>
      </trkpt>
      <trkpt lat="43.73321" lon="6.95807">
        <ele>920.8</ele>
        <time>2026-05-16T09:16:11Z</time>
      </trkpt>
      <trkpt lat="43.73336" lon="6.95811">
        <ele>923.2</ele>
        <time>2026-05-16T09:16:12Z</time>
      </trkpt>
      <trkpt lat="43.7335" lon="6.95814">
        <ele>925.3</ele>
        <time>2026-05-16T09:16:13Z</time>
      </trkpt>
      <trkpt lat="43.73363" lon="6.95816">
        <ele>926.8</ele>
        <time>2026-05-16T09:16:14Z</time>
      </trkpt>
      <trkpt lat="43.73374" lon="6.95816">
        <ele>927.7</ele>
        <time>2026-05-16T09:16:15Z</time>
      </trkpt>
      <trkpt lat="43.73384" lon="6.95813">
        <ele>927.1</ele>
        <time>2026-05-16T09:16:16Z</time>
      </trkpt>
      <trkpt lat="43.73392" lon="6.95804">
        <ele>924</ele>
        <time>2026-05-16T09:16:17Z</time>
      </trkpt>
      <trkpt lat="43.73398" lon="6.95792">
        <ele>924.5</ele>
        <time>2026-05-16T09:16:18Z</time>
      </trkpt>
      <trkpt lat="43.734" lon="6.95777">
        <ele>925.4</ele>
        <time>2026-05-16T09:16:19Z</time>
      </trkpt>
      <trkpt lat="43.73397" lon="6.95762">
        <ele>927.3</ele>
        <time>2026-05-16T09:16:20Z</time>
      </trkpt>
      <trkpt lat="43.73392" lon="6.95749">
        <ele>927.5</ele>
        <time>2026-05-16T09:16:21Z</time>
      </trkpt>
      <trkpt lat="43.73386" lon="6.95736">
        <ele>927.4</ele>
        <time>2026-05-16T09:16:22Z</time>
      </trkpt>
      <trkpt lat="43.73381" lon="6.95722">
        <ele>928.2</ele>
        <time>2026-05-16T09:16:23Z</time>
      </trkpt>
      <trkpt lat="43.7338" lon="6.95706">
        <ele>929</ele>
        <time>2026-05-16T09:16:24Z</time>
      </trkpt>
      <trkpt lat="43.73384" lon="6.9569">
        <ele>930.9</ele>
        <time>2026-05-16T09:16:25Z</time>
      </trkpt>
      <trkpt lat="43.73389" lon="6.95674">
        <ele>931.6</ele>
        <time>2026-05-16T09:16:26Z</time>
      </trkpt>
      <trkpt lat="43.73395" lon="6.95657">
        <ele>932.9</ele>
        <time>2026-05-16T09:16:27Z</time>
      </trkpt>
      <trkpt lat="43.73404" lon="6.9564">
        <ele>934.7</ele>
        <time>2026-05-16T09:16:28Z</time>
      </trkpt>
      <trkpt lat="43.73414" lon="6.95625">
        <ele>935.5</ele>
        <time>2026-05-16T09:16:29Z</time>
      </trkpt>
      <trkpt lat="43.73425" lon="6.95611">
        <ele>936.3</ele>
        <time>2026-05-16T09:16:30Z</time>
      </trkpt>
      <trkpt lat="43.73437" lon="6.95599">
        <ele>937.8</ele>
        <time>2026-05-16T09:16:31Z</time>
      </trkpt>
      <trkpt lat="43.73447" lon="6.95587">
        <ele>938</ele>
        <time>2026-05-16T09:16:32Z</time>
      </trkpt>
      <trkpt lat="43.73455" lon="6.95575">
        <ele>938.9</ele>
        <time>2026-05-16T09:16:33Z</time>
      </trkpt>
      <trkpt lat="43.73459" lon="6.9556">
        <ele>939.2</ele>
        <time>2026-05-16T09:16:34Z</time>
      </trkpt>
      <trkpt lat="43.73459" lon="6.95545">
        <ele>939.8</ele>
        <time>2026-05-16T09:16:35Z</time>
      </trkpt>
      <trkpt lat="43.7346" lon="6.95529">
        <ele>941.8</ele>
        <time>2026-05-16T09:16:36Z</time>
      </trkpt>
      <trkpt lat="43.7346" lon="6.95511">
        <ele>942.8</ele>
        <time>2026-05-16T09:16:37Z</time>
      </trkpt>
      <trkpt lat="43.7346" lon="6.95493">
        <ele>943.5</ele>
        <time>2026-05-16T09:16:38Z</time>
      </trkpt>
      <trkpt lat="43.7346" lon="6.95474">
        <ele>943.8</ele>
        <time>2026-05-16T09:16:39Z</time>
      </trkpt>
      <trkpt lat="43.73461" lon="6.95454">
        <ele>945.4</ele>
        <time>2026-05-16T09:16:40Z</time>
      </trkpt>
      <trkpt lat="43.73461" lon="6.95434">
        <ele>946.3</ele>
        <time>2026-05-16T09:16:41Z</time>
      </trkpt>
      <trkpt lat="43.73461" lon="6.95414">
        <ele>947</ele>
        <time>2026-05-16T09:16:42Z</time>
      </trkpt>
      <trkpt lat="43.73462" lon="6.95394">
        <ele>948.3</ele>
        <time>2026-05-16T09:16:43Z</time>
      </trkpt>
      <trkpt lat="43.73464" lon="6.95375">
        <ele>949.2</ele>
        <time>2026-05-16T09:16:44Z</time>
      </trkpt>
      <trkpt lat="43.73467" lon="6.95357">
        <ele>950.1</ele>
        <time>2026-05-16T09:16:45Z</time>
      </trkpt>
      <trkpt lat="43.73471" lon="6.9534">
        <ele>950.9</ele>
        <time>2026-05-16T09:16:46Z</time>
      </trkpt>
      <trkpt lat="43.73477" lon="6.95324">
        <ele>951.9</ele>
        <time>2026-05-16T09:16:47Z</time>
      </trkpt>
      <trkpt lat="43.73483" lon="6.95309">
        <ele>952.3</ele>
        <time>2026-05-16T09:16:48Z</time>
      </trkpt>
      <trkpt lat="43.73491" lon="6.95296">
        <ele>953.3</ele>
        <time>2026-05-16T09:16:49Z</time>
      </trkpt>
      <trkpt lat="43.73499" lon="6.95284">
        <ele>954.5</ele>
        <time>2026-05-16T09:16:50Z</time>
      </trkpt>
      <trkpt lat="43.73507" lon="6.95272">
        <ele>955.7</ele>
        <time>2026-05-16T09:16:51Z</time>
      </trkpt>
      <trkpt lat="43.73515" lon="6.9526">
        <ele>956.3</ele>
        <time>2026-05-16T09:16:52Z</time>
      </trkpt>
      <trkpt lat="43.73523" lon="6.95249">
        <ele>956.9</ele>
        <time>2026-05-16T09:16:53Z</time>
      </trkpt>
      <trkpt lat="43.7353" lon="6.95239">
        <ele>957.2</ele>
        <time>2026-05-16T09:16:54Z</time>
      </trkpt>
      <trkpt lat="43.73537" lon="6.95227">
        <ele>957.2</ele>
        <time>2026-05-16T09:16:55Z</time>
      </trkpt>
      <trkpt lat="43.73546" lon="6.95216">
        <ele>958.4</ele>
        <time>2026-05-16T09:16:56Z</time>
      </trkpt>
      <trkpt lat="43.73554" lon="6.95205">
        <ele>959</ele>
        <time>2026-05-16T09:16:57Z</time>
      </trkpt>
      <trkpt lat="43.73562" lon="6.95194">
        <ele>959.2</ele>
        <time>2026-05-16T09:16:58Z</time>
      </trkpt>
      <trkpt lat="43.7357" lon="6.95185">
        <ele>960.3</ele>
        <time>2026-05-16T09:16:59Z</time>
      </trkpt>
      <trkpt lat="43.73579" lon="6.95178">
        <ele>962</ele>
        <time>2026-05-16T09:17:00Z</time>
      </trkpt>
      <trkpt lat="43.73586" lon="6.95172">
        <ele>962.8</ele>
        <time>2026-05-16T09:17:01Z</time>
      </trkpt>
      <trkpt lat="43.73593" lon="6.95167">
        <ele>963.5</ele>
        <time>2026-05-16T09:17:02Z</time>
      </trkpt>
      <trkpt lat="43.736" lon="6.95162">
        <ele>964.7</ele>
        <time>2026-05-16T09:17:03Z</time>
      </trkpt>
      <trkpt lat="43.73605" lon="6.95157">
        <ele>965.3</ele>
        <time>2026-05-16T09:17:04Z</time>
      </trkpt>
      <trkpt lat="43.73611" lon="6.95151">
        <ele>965.7</ele>
        <time>2026-05-16T09:17:05Z</time>
      </trkpt>
      <trkpt lat="43.73615" lon="6.95141">
        <ele>964.9</ele>
        <time>2026-05-16T09:17:06Z</time>
      </trkpt>
      <trkpt lat="43.73615" lon="6.95131">
        <ele>965.6</ele>
        <time>2026-05-16T09:17:07Z</time>
      </trkpt>
      <trkpt lat="43.73612" lon="6.9512">
        <ele>966.8</ele>
        <time>2026-05-16T09:17:08Z</time>
      </trkpt>
      <trkpt lat="43.73605" lon="6.95113">
        <ele>967.3</ele>
        <time>2026-05-16T09:17:09Z</time>
      </trkpt>
      <trkpt lat="43.73595" lon="6.95109">
        <ele>967.5</ele>
        <time>2026-05-16T09:17:10Z</time>
      </trkpt>
      <trkpt lat="43.73583" lon="6.95108">
        <ele>967</ele>
        <time>2026-05-16T09:17:11Z</time>
      </trkpt>
      <trkpt lat="43.7357" lon="6.95108">
        <ele>967.5</ele>
        <time>2026-05-16T09:17:12Z</time>
      </trkpt>
      <trkpt lat="43.73557" lon="6.95108">
        <ele>968</ele>
        <time>2026-05-16T09:17:13Z</time>
      </trkpt>
      <trkpt lat="43.73545" lon="6.95109">
        <ele>968.8</ele>
        <time>2026-05-16T09:17:14Z</time>
      </trkpt>
      <trkpt lat="43.73532" lon="6.95109">
        <ele>970.2</ele>
        <time>2026-05-16T09:17:15Z</time>
      </trkpt>
      <trkpt lat="43.73519" lon="6.95109">
        <ele>971.3</ele>
        <time>2026-05-16T09:17:16Z</time>
      </trkpt>
      <trkpt lat="43.73504" lon="6.95109">
        <ele>972.5</ele>
        <time>2026-05-16T09:17:17Z</time>
      </trkpt>
      <trkpt lat="43.7349" lon="6.95109">
        <ele>973.5</ele>
        <time>2026-05-16T09:17:18Z</time>
      </trkpt>
      <trkpt lat="43.73475" lon="6.95109">
        <ele>974.6</ele>
        <time>2026-05-16T09:17:19Z</time>
      </trkpt>
      <trkpt lat="43.7346" lon="6.95108">
        <ele>975.2</ele>
        <time>2026-05-16T09:17:20Z</time>
      </trkpt>
      <trkpt lat="43.73446" lon="6.95104">
        <ele>976.8</ele>
        <time>2026-05-16T09:17:21Z</time>
      </trkpt>
      <trkpt lat="43.73432" lon="6.95097">
        <ele>978</ele>
        <time>2026-05-16T09:17:22Z</time>
      </trkpt>
      <trkpt lat="43.7342" lon="6.95089">
        <ele>979.4</ele>
        <time>2026-05-16T09:17:23Z</time>
      </trkpt>
      <trkpt lat="43.73409" lon="6.95085">
        <ele>981.5</ele>
        <time>2026-05-16T09:17:24Z</time>
      </trkpt>
      <trkpt lat="43.73398" lon="6.95087">
        <ele>982.5</ele>
        <time>2026-05-16T09:17:25Z</time>
      </trkpt>
      <trkpt lat="43.73388" lon="6.95094">
        <ele>982.3</ele>
        <time>2026-05-16T09:17:26Z</time>
      </trkpt>
      <trkpt lat="43.73379" lon="6.95106">
        <ele>982.7</ele>
        <time>2026-05-16T09:17:27Z</time>
      </trkpt>
      <trkpt lat="43.73371" lon="6.9512">
        <ele>982.8</ele>
        <time>2026-05-16T09:17:28Z</time>
      </trkpt>
      <trkpt lat="43.73362" lon="6.95135">
        <ele>983.5</ele>
        <time>2026-05-16T09:17:29Z</time>
      </trkpt>
      <trkpt lat="43.73351" lon="6.9515">
        <ele>984.5</ele>
        <time>2026-05-16T09:17:30Z</time>
      </trkpt>
      <trkpt lat="43.7334" lon="6.95163">
        <ele>985.5</ele>
        <time>2026-05-16T09:17:31Z</time>
      </trkpt>
      <trkpt lat="43.73327" lon="6.95173">
        <ele>987</ele>
        <time>2026-05-16T09:17:32Z</time>
      </trkpt>
      <trkpt lat="43.73315" lon="6.95181">
        <ele>988</ele>
        <time>2026-05-16T09:17:33Z</time>
      </trkpt>
      <trkpt lat="43.73303" lon="6.95186">
        <ele>989.3</ele>
        <time>2026-05-16T09:17:34Z</time>
      </trkpt>
      <trkpt lat="43.73292" lon="6.95187">
        <ele>989.8</ele>
        <time>2026-05-16T09:17:35Z</time>
      </trkpt>
      <trkpt lat="43.73285" lon="6.95187">
        <ele>990.2</ele>
        <time>2026-05-16T09:17:36Z</time>
      </trkpt>
      <trkpt lat="43.73279" lon="6.95186">
        <ele>991</ele>
        <time>2026-05-16T09:17:37Z</time>
      </trkpt>
      <trkpt lat="43.73274" lon="6.95185">
        <ele>991.4</ele>
        <time>2026-05-16T09:17:38Z</time>
      </trkpt>
      <trkpt lat="43.7327" lon="6.95184">
        <ele>991.8</ele>
        <time>2026-05-16T09:17:39Z</time>
      </trkpt>
      <trkpt lat="43.73267" lon="6.95183">
        <ele>992.1</ele>
        <time>2026-05-16T09:17:40Z</time>
      </trkpt>
      <trkpt lat="43.73264" lon="6.95182">
        <ele>992.5</ele>
        <time>2026-05-16T09:17:41Z</time>
      </trkpt>
      <trkpt lat="43.73262" lon="6.95182">
        <ele>992.5</ele>
        <time>2026-05-16T09:17:42Z</time>
      </trkpt>
      <trkpt lat="43.73259" lon="6.95182">
        <ele>992.5</ele>
        <time>2026-05-16T09:17:43Z</time>
      </trkpt>
      <trkpt lat="43.73256" lon="6.95181">
        <ele>992.8</ele>
        <time>2026-05-16T09:17:44Z</time>
      </trkpt>
      <trkpt lat="43.73253" lon="6.95181">
        <ele>992.8</ele>
        <time>2026-05-16T09:17:45Z</time>
      </trkpt>
      <trkpt lat="43.7325" lon="6.95181">
        <ele>992.8</ele>
        <time>2026-05-16T09:17:46Z</time>
      </trkpt>
      <trkpt lat="43.73246" lon="6.9518">
        <ele>993.5</ele>
        <time>2026-05-16T09:17:47Z</time>
      </trkpt>
      <trkpt lat="43.73243" lon="6.95179">
        <ele>994</ele>
        <time>2026-05-16T09:17:48Z</time>
      </trkpt>
      <trkpt lat="43.73239" lon="6.95179">
        <ele>994.3</ele>
        <time>2026-05-16T09:17:49Z</time>
      </trkpt>
      <trkpt lat="43.73235" lon="6.95179">
        <ele>994.6</ele>
        <time>2026-05-16T09:17:50Z</time>
      </trkpt>
      <trkpt lat="43.73231" lon="6.95178">
        <ele>995.2</ele>
        <time>2026-05-16T09:17:51Z</time>
      </trkpt>
      <trkpt lat="43.73227" lon="6.95178">
        <ele>995.4</ele>
        <time>2026-05-16T09:17:52Z</time>
      </trkpt>
      <trkpt lat="43.73222" lon="6.95176">
        <ele>996.3</ele>
        <time>2026-05-16T09:17:53Z</time>
      </trkpt>
      <trkpt lat="43.73217" lon="6.95175">
        <ele>996.8</ele>
        <time>2026-05-16T09:17:54Z</time>
      </trkpt>
      <trkpt lat="43.73212" lon="6.95173">
        <ele>997.4</ele>
        <time>2026-05-16T09:17:55Z</time>
      </trkpt>
      <trkpt lat="43.73207" lon="6.95172">
        <ele>997.8</ele>
        <time>2026-05-16T09:17:56Z</time>
      </trkpt>
      <trkpt lat="43.732" lon="6.95172">
        <ele>997.9</ele>
        <time>2026-05-16T09:17:57Z</time>
      </trkpt>
      <trkpt lat="43.73193" lon="6.95173">
        <ele>998.1</ele>
        <time>2026-05-16T09:17:58Z</time>
      </trkpt>
      <trkpt lat="43.73187" lon="6.95176">
        <ele>998.8</ele>
        <time>2026-05-16T09:17:59Z</time>
      </trkpt>
      <trkpt lat="43.73182" lon="6.95181">
        <ele>999.4</ele>
        <time>2026-05-16T09:18:00Z</time>
      </trkpt>
      <trkpt lat="43.73177" lon="6.95188">
        <ele>1000.1</ele>
        <time>2026-05-16T09:18:01Z</time>
      </trkpt>
      <trkpt lat="43.73174" lon="6.95197">
        <ele>1000.6</ele>
        <time>2026-05-16T09:18:02Z</time>
      </trkpt>
      <trkpt lat="43.73172" lon="6.95208">
        <ele>1001.1</ele>
        <time>2026-05-16T09:18:03Z</time>
      </trkpt>
      <trkpt lat="43.7317" lon="6.9522">
        <ele>1001.7</ele>
        <time>2026-05-16T09:18:04Z</time>
      </trkpt>
      <trkpt lat="43.73169" lon="6.95234">
        <ele>1002.5</ele>
        <time>2026-05-16T09:18:05Z</time>
      </trkpt>
      <trkpt lat="43.73169" lon="6.95248">
        <ele>1003</ele>
        <time>2026-05-16T09:18:06Z</time>
      </trkpt>
      <trkpt lat="43.73168" lon="6.95262">
        <ele>1003.5</ele>
        <time>2026-05-16T09:18:07Z</time>
      </trkpt>
      <trkpt lat="43.73166" lon="6.95275">
        <ele>1004.2</ele>
        <time>2026-05-16T09:18:08Z</time>
      </trkpt>
      <trkpt lat="43.7316" lon="6.95288">
        <ele>1005.1</ele>
        <time>2026-05-16T09:18:09Z</time>
      </trkpt>
      <trkpt lat="43.73154" lon="6.95301">
        <ele>1005.6</ele>
        <time>2026-05-16T09:18:10Z</time>
      </trkpt>
      <trkpt lat="43.73148" lon="6.95312">
        <ele>1005.7</ele>
        <time>2026-05-16T09:18:11Z</time>
      </trkpt>
      <trkpt lat="43.73142" lon="6.95322">
        <ele>1005.7</ele>
        <time>2026-05-16T09:18:12Z</time>
      </trkpt>
      <trkpt lat="43.73137" lon="6.9533">
        <ele>1005.6</ele>
        <time>2026-05-16T09:18:13Z</time>
      </trkpt>
      <trkpt lat="43.73132" lon="6.95337">
        <ele>1005.5</ele>
        <time>2026-05-16T09:18:14Z</time>
      </trkpt>
      <trkpt lat="43.73126" lon="6.95341">
        <ele>1005.8</ele>
        <time>2026-05-16T09:18:15Z</time>
      </trkpt>
      <trkpt lat="43.73121" lon="6.95341">
        <ele>1006.5</ele>
        <time>2026-05-16T09:18:16Z</time>
      </trkpt>
      <trkpt lat="43.73116" lon="6.95338">
        <ele>1007.6</ele>
        <time>2026-05-16T09:18:17Z</time>
      </trkpt>
      <trkpt lat="43.73113" lon="6.95332">
        <ele>1008.9</ele>
        <time>2026-05-16T09:18:18Z</time>
      </trkpt>
      <trkpt lat="43.73113" lon="6.95323">
        <ele>1009.8</ele>
        <time>2026-05-16T09:18:19Z</time>
      </trkpt>
      <trkpt lat="43.73115" lon="6.95314">
        <ele>1010.5</ele>
        <time>2026-05-16T09:18:20Z</time>
      </trkpt>
      <trkpt lat="43.73119" lon="6.95303">
        <ele>1011.1</ele>
        <time>2026-05-16T09:18:21Z</time>
      </trkpt>
      <trkpt lat="43.73123" lon="6.95292">
        <ele>1011.8</ele>
        <time>2026-05-16T09:18:22Z</time>
      </trkpt>
      <trkpt lat="43.73128" lon="6.9528">
        <ele>1012.3</ele>
        <time>2026-05-16T09:18:23Z</time>
      </trkpt>
      <trkpt lat="43.73132" lon="6.95266">
        <ele>1012.5</ele>
        <time>2026-05-16T09:18:24Z</time>
      </trkpt>
      <trkpt lat="43.73134" lon="6.95249">
        <ele>1012.9</ele>
        <time>2026-05-16T09:18:25Z</time>
      </trkpt>
      <trkpt lat="43.73134" lon="6.95232">
        <ele>1013</ele>
        <time>2026-05-16T09:18:26Z</time>
      </trkpt>
      <trkpt lat="43.73132" lon="6.95214">
        <ele>1013.9</ele>
        <time>2026-05-16T09:18:27Z</time>
      </trkpt>
      <trkpt lat="43.7313" lon="6.95198">
        <ele>1015.1</ele>
        <time>2026-05-16T09:18:28Z</time>
      </trkpt>
      <trkpt lat="43.73127" lon="6.95182">
        <ele>1016.4</ele>
        <time>2026-05-16T09:18:29Z</time>
      </trkpt>
      <trkpt lat="43.73124" lon="6.95167">
        <ele>1017.7</ele>
        <time>2026-05-16T09:18:30Z</time>
      </trkpt>
      <trkpt lat="43.73122" lon="6.95151">
        <ele>1018.5</ele>
        <time>2026-05-16T09:18:31Z</time>
      </trkpt>
      <trkpt lat="43.7312" lon="6.95138">
        <ele>1019.1</ele>
        <time>2026-05-16T09:18:32Z</time>
      </trkpt>
      <trkpt lat="43.73119" lon="6.95127">
        <ele>1020.1</ele>
        <time>2026-05-16T09:18:33Z</time>
      </trkpt>
      <trkpt lat="43.73119" lon="6.95119">
        <ele>1020.6</ele>
        <time>2026-05-16T09:18:34Z</time>
      </trkpt>
      <trkpt lat="43.73119" lon="6.95112">
        <ele>1021.1</ele>
        <time>2026-05-16T09:18:35Z</time>
      </trkpt>
      <trkpt lat="43.7312" lon="6.95106">
        <ele>1021.4</ele>
        <time>2026-05-16T09:18:36Z</time>
      </trkpt>
      <trkpt lat="43.73122" lon="6.951">
        <ele>1021.7</ele>
        <time>2026-05-16T09:18:37Z</time>
      </trkpt>
      <trkpt lat="43.73125" lon="6.95094">
        <ele>1022</ele>
        <time>2026-05-16T09:18:38Z</time>
      </trkpt>
      <trkpt lat="43.73129" lon="6.95088">
        <ele>1022.5</ele>
        <time>2026-05-16T09:18:39Z</time>
      </trkpt>
      <trkpt lat="43.73134" lon="6.95084">
        <ele>1022.9</ele>
        <time>2026-05-16T09:18:40Z</time>
      </trkpt>
      <trkpt lat="43.7314" lon="6.95082">
        <ele>1023.4</ele>
        <time>2026-05-16T09:18:41Z</time>
      </trkpt>
      <trkpt lat="43.73146" lon="6.95082">
        <ele>1023.8</ele>
        <time>2026-05-16T09:18:42Z</time>
      </trkpt>
      <trkpt lat="43.73152" lon="6.95082">
        <ele>1024.3</ele>
        <time>2026-05-16T09:18:43Z</time>
      </trkpt>
      <trkpt lat="43.73158" lon="6.95082">
        <ele>1024.7</ele>
        <time>2026-05-16T09:18:44Z</time>
      </trkpt>
      <trkpt lat="43.73165" lon="6.95082">
        <ele>1025.2</ele>
        <time>2026-05-16T09:18:45Z</time>
      </trkpt>
      <trkpt lat="43.73172" lon="6.95082">
        <ele>1025.5</ele>
        <time>2026-05-16T09:18:46Z</time>
      </trkpt>
      <trkpt lat="43.73179" lon="6.95082">
        <ele>1025.8</ele>
        <time>2026-05-16T09:18:47Z</time>
      </trkpt>
      <trkpt lat="43.73186" lon="6.95082">
        <ele>1026</ele>
        <time>2026-05-16T09:18:48Z</time>
      </trkpt>
      <trkpt lat="43.73193" lon="6.95081">
        <ele>1026.5</ele>
        <time>2026-05-16T09:18:49Z</time>
      </trkpt>
      <trkpt lat="43.73199" lon="6.95079">
        <ele>1026.9</ele>
        <time>2026-05-16T09:18:50Z</time>
      </trkpt>
      <trkpt lat="43.73206" lon="6.95078">
        <ele>1026.9</ele>
        <time>2026-05-16T09:18:51Z</time>
      </trkpt>
      <trkpt lat="43.73213" lon="6.95076">
        <ele>1027.2</ele>
        <time>2026-05-16T09:18:52Z</time>
      </trkpt>
      <trkpt lat="43.7322" lon="6.95073">
        <ele>1027.7</ele>
        <time>2026-05-16T09:18:53Z</time>
      </trkpt>
      <trkpt lat="43.73227" lon="6.9507">
        <ele>1028</ele>
        <time>2026-05-16T09:18:54Z</time>
      </trkpt>
      <trkpt lat="43.73235" lon="6.95065">
        <ele>1028.7</ele>
        <time>2026-05-16T09:18:55Z</time>
      </trkpt>
      <trkpt lat="43.73243" lon="6.9506">
        <ele>1029.4</ele>
        <time>2026-05-16T09:18:56Z</time>
      </trkpt>
      <trkpt lat="43.73251" lon="6.95054">
        <ele>1030.2</ele>
        <time>2026-05-16T09:18:57Z</time>
      </trkpt>
      <trkpt lat="43.73259" lon="6.95048">
        <ele>1030.7</ele>
        <time>2026-05-16T09:18:58Z</time>
      </trkpt>
      <trkpt lat="43.73266" lon="6.95041">
        <ele>1031.4</ele>
        <time>2026-05-16T09:18:59Z</time>
      </trkpt>
      <trkpt lat="43.73273" lon="6.95034">
        <ele>1032.2</ele>
        <time>2026-05-16T09:19:00Z</time>
      </trkpt>
      <trkpt lat="43.73281" lon="6.95027">
        <ele>1032.6</ele>
        <time>2026-05-16T09:19:01Z</time>
      </trkpt>
      <trkpt lat="43.73288" lon="6.95019">
        <ele>1033.1</ele>
        <time>2026-05-16T09:19:02Z</time>
      </trkpt>
      <trkpt lat="43.73295" lon="6.95011">
        <ele>1033.5</ele>
        <time>2026-05-16T09:19:03Z</time>
      </trkpt>
      <trkpt lat="43.73303" lon="6.95002">
        <ele>1034</ele>
        <time>2026-05-16T09:19:04Z</time>
      </trkpt>
      <trkpt lat="43.73311" lon="6.94993">
        <ele>1034.4</ele>
        <time>2026-05-16T09:19:05Z</time>
      </trkpt>
      <trkpt lat="43.73319" lon="6.94984">
        <ele>1035</ele>
        <time>2026-05-16T09:19:06Z</time>
      </trkpt>
      <trkpt lat="43.73327" lon="6.94974">
        <ele>1036.3</ele>
        <time>2026-05-16T09:19:07Z</time>
      </trkpt>
      <trkpt lat="43.73336" lon="6.94965">
        <ele>1037.1</ele>
        <time>2026-05-16T09:19:08Z</time>
      </trkpt>
      <trkpt lat="43.73345" lon="6.94956">
        <ele>1037.9</ele>
        <time>2026-05-16T09:19:09Z</time>
      </trkpt>
      <trkpt lat="43.73354" lon="6.94947">
        <ele>1039.1</ele>
        <time>2026-05-16T09:19:10Z</time>
      </trkpt>
      <trkpt lat="43.73365" lon="6.9494">
        <ele>1040</ele>
        <time>2026-05-16T09:19:11Z</time>
      </trkpt>
      <trkpt lat="43.73377" lon="6.94934">
        <ele>1041.5</ele>
        <time>2026-05-16T09:19:12Z</time>
      </trkpt>
      <trkpt lat="43.73389" lon="6.9493">
        <ele>1042.7</ele>
        <time>2026-05-16T09:19:13Z</time>
      </trkpt>
      <trkpt lat="43.73402" lon="6.94929">
        <ele>1043.5</ele>
        <time>2026-05-16T09:19:14Z</time>
      </trkpt>
      <trkpt lat="43.73414" lon="6.94928">
        <ele>1044.4</ele>
        <time>2026-05-16T09:19:15Z</time>
      </trkpt>
      <trkpt lat="43.73427" lon="6.94928">
        <ele>1045.3</ele>
        <time>2026-05-16T09:19:16Z</time>
      </trkpt>
      <trkpt lat="43.7344" lon="6.94927">
        <ele>1046.6</ele>
        <time>2026-05-16T09:19:17Z</time>
      </trkpt>
      <trkpt lat="43.73452" lon="6.94927">
        <ele>1046.8</ele>
        <time>2026-05-16T09:19:18Z</time>
      </trkpt>
      <trkpt lat="43.73465" lon="6.94926">
        <ele>1047.1</ele>
        <time>2026-05-16T09:19:19Z</time>
      </trkpt>
      <trkpt lat="43.73478" lon="6.94924">
        <ele>1047.8</ele>
        <time>2026-05-16T09:19:20Z</time>
      </trkpt>
      <trkpt lat="43.73491" lon="6.94922">
        <ele>1048.6</ele>
        <time>2026-05-16T09:19:21Z</time>
      </trkpt>
      <trkpt lat="43.73503" lon="6.94919">
        <ele>1049.6</ele>
        <time>2026-05-16T09:19:22Z</time>
      </trkpt>
      <trkpt lat="43.73517" lon="6.94915">
        <ele>1049.8</ele>
        <time>2026-05-16T09:19:23Z</time>
      </trkpt>
      <trkpt lat="43.73529" lon="6.94909">
        <ele>1050.9</ele>
        <time>2026-05-16T09:19:24Z</time>
      </trkpt>
      <trkpt lat="43.73542" lon="6.94904">
        <ele>1051.8</ele>
        <time>2026-05-16T09:19:25Z</time>
      </trkpt>
      <trkpt lat="43.73555" lon="6.94898">
        <ele>1052.8</ele>
        <time>2026-05-16T09:19:26Z</time>
      </trkpt>
      <trkpt lat="43.73567" lon="6.94893">
        <ele>1053.7</ele>
        <time>2026-05-16T09:19:27Z</time>
      </trkpt>
      <trkpt lat="43.73579" lon="6.94888">
        <ele>1054.5</ele>
        <time>2026-05-16T09:19:28Z</time>
      </trkpt>
      <trkpt lat="43.73591" lon="6.94882">
        <ele>1054.9</ele>
        <time>2026-05-16T09:19:29Z</time>
      </trkpt>
      <trkpt lat="43.73602" lon="6.94873">
        <ele>1056</ele>
        <time>2026-05-16T09:19:30Z</time>
      </trkpt>
      <trkpt lat="43.73613" lon="6.94862">
        <ele>1057.3</ele>
        <time>2026-05-16T09:19:31Z</time>
      </trkpt>
      <trkpt lat="43.73623" lon="6.9485">
        <ele>1057.4</ele>
        <time>2026-05-16T09:19:32Z</time>
      </trkpt>
      <trkpt lat="43.73632" lon="6.94837">
        <ele>1057.9</ele>
        <time>2026-05-16T09:19:33Z</time>
      </trkpt>
      <trkpt lat="43.73641" lon="6.94822">
        <ele>1059.2</ele>
        <time>2026-05-16T09:19:34Z</time>
      </trkpt>
      <trkpt lat="43.7365" lon="6.94807">
        <ele>1060.4</ele>
        <time>2026-05-16T09:19:35Z</time>
      </trkpt>
      <trkpt lat="43.73659" lon="6.94792">
        <ele>1061.4</ele>
        <time>2026-05-16T09:19:36Z</time>
      </trkpt>
      <trkpt lat="43.73668" lon="6.94777">
        <ele>1062.8</ele>
        <time>2026-05-16T09:19:37Z</time>
      </trkpt>
      <trkpt lat="43.73677" lon="6.94762">
        <ele>1063.6</ele>
        <time>2026-05-16T09:19:38Z</time>
      </trkpt>
      <trkpt lat="43.73686" lon="6.94747">
        <ele>1064.5</ele>
        <time>2026-05-16T09:19:39Z</time>
      </trkpt>
      <trkpt lat="43.73695" lon="6.94732">
        <ele>1066</ele>
        <time>2026-05-16T09:19:40Z</time>
      </trkpt>
      <trkpt lat="43.73704" lon="6.94717">
        <ele>1068.3</ele>
        <time>2026-05-16T09:19:41Z</time>
      </trkpt>
      <trkpt lat="43.73713" lon="6.94701">
        <ele>1070.3</ele>
        <time>2026-05-16T09:19:42Z</time>
      </trkpt>
      <trkpt lat="43.73723" lon="6.94686">
        <ele>1071.4</ele>
        <time>2026-05-16T09:19:43Z</time>
      </trkpt>
      <trkpt lat="43.73731" lon="6.94671">
        <ele>1072.4</ele>
        <time>2026-05-16T09:19:44Z</time>
      </trkpt>
      <trkpt lat="43.73738" lon="6.94656">
        <ele>1072.5</ele>
        <time>2026-05-16T09:19:45Z</time>
      </trkpt>
      <trkpt lat="43.73742" lon="6.9464">
        <ele>1072.9</ele>
        <time>2026-05-16T09:19:46Z</time>
      </trkpt>
      <trkpt lat="43.73744" lon="6.94624">
        <ele>1073</ele>
        <time>2026-05-16T09:19:47Z</time>
      </trkpt>
      <trkpt lat="43.73743" lon="6.94607">
        <ele>1073.8</ele>
        <time>2026-05-16T09:19:48Z</time>
      </trkpt>
      <trkpt lat="43.73739" lon="6.94593">
        <ele>1074.8</ele>
        <time>2026-05-16T09:19:49Z</time>
      </trkpt>
      <trkpt lat="43.73735" lon="6.94581">
        <ele>1075.8</ele>
        <time>2026-05-16T09:19:50Z</time>
      </trkpt>
      <trkpt lat="43.73728" lon="6.94571">
        <ele>1077.3</ele>
        <time>2026-05-16T09:19:51Z</time>
      </trkpt>
      <trkpt lat="43.73723" lon="6.94561">
        <ele>1078</ele>
        <time>2026-05-16T09:19:52Z</time>
      </trkpt>
      <trkpt lat="43.7372" lon="6.9455">
        <ele>1078.9</ele>
        <time>2026-05-16T09:19:53Z</time>
      </trkpt>
      <trkpt lat="43.73721" lon="6.94538">
        <ele>1079.5</ele>
        <time>2026-05-16T09:19:54Z</time>
      </trkpt>
      <trkpt lat="43.73725" lon="6.94528">
        <ele>1079.7</ele>
        <time>2026-05-16T09:19:55Z</time>
      </trkpt>
      <trkpt lat="43.73733" lon="6.94519">
        <ele>1080.9</ele>
        <time>2026-05-16T09:19:56Z</time>
      </trkpt>
      <trkpt lat="43.73741" lon="6.94512">
        <ele>1081.8</ele>
        <time>2026-05-16T09:19:57Z</time>
      </trkpt>
      <trkpt lat="43.73751" lon="6.94505">
        <ele>1082.7</ele>
        <time>2026-05-16T09:19:58Z</time>
      </trkpt>
      <trkpt lat="43.73762" lon="6.945">
        <ele>1084</ele>
        <time>2026-05-16T09:19:59Z</time>
      </trkpt>
      <trkpt lat="43.73774" lon="6.94497">
        <ele>1084.9</ele>
        <time>2026-05-16T09:20:00Z</time>
      </trkpt>
      <trkpt lat="43.73786" lon="6.94496">
        <ele>1085.7</ele>
        <time>2026-05-16T09:20:01Z</time>
      </trkpt>
      <trkpt lat="43.73797" lon="6.94499">
        <ele>1085.6</ele>
        <time>2026-05-16T09:20:02Z</time>
      </trkpt>
      <trkpt lat="43.73808" lon="6.94502">
        <ele>1085.7</ele>
        <time>2026-05-16T09:20:03Z</time>
      </trkpt>
      <trkpt lat="43.73817" lon="6.94504">
        <ele>1086.2</ele>
        <time>2026-05-16T09:20:04Z</time>
      </trkpt>
      <trkpt lat="43.73826" lon="6.94506">
        <ele>1086.8</ele>
        <time>2026-05-16T09:20:05Z</time>
      </trkpt>
      <trkpt lat="43.73835" lon="6.94509">
        <ele>1087.3</ele>
        <time>2026-05-16T09:20:06Z</time>
      </trkpt>
      <trkpt lat="43.73843" lon="6.94514">
        <ele>1087.5</ele>
        <time>2026-05-16T09:20:07Z</time>
      </trkpt>
      <trkpt lat="43.73849" lon="6.94519">
        <ele>1087.5</ele>
        <time>2026-05-16T09:20:08Z</time>
      </trkpt>
      <trkpt lat="43.73856" lon="6.94525">
        <ele>1087.6</ele>
        <time>2026-05-16T09:20:09Z</time>
      </trkpt>
      <trkpt lat="43.73862" lon="6.9453">
        <ele>1087.7</ele>
        <time>2026-05-16T09:20:10Z</time>
      </trkpt>
      <trkpt lat="43.73869" lon="6.94534">
        <ele>1087.9</ele>
        <time>2026-05-16T09:20:11Z</time>
      </trkpt>
      <trkpt lat="43.73876" lon="6.94536">
        <ele>1088.5</ele>
        <time>2026-05-16T09:20:12Z</time>
      </trkpt>
      <trkpt lat="43.73882" lon="6.94538">
        <ele>1089.1</ele>
        <time>2026-05-16T09:20:13Z</time>
      </trkpt>
      <trkpt lat="43.73889" lon="6.94538">
        <ele>1090.2</ele>
        <time>2026-05-16T09:20:14Z</time>
      </trkpt>
      <trkpt lat="43.73896" lon="6.94538">
        <ele>1090.8</ele>
        <time>2026-05-16T09:20:15Z</time>
      </trkpt>
      <trkpt lat="43.73904" lon="6.94537">
        <ele>1091.6</ele>
        <time>2026-05-16T09:20:16Z</time>
      </trkpt>
      <trkpt lat="43.73912" lon="6.94536">
        <ele>1092.4</ele>
        <time>2026-05-16T09:20:17Z</time>
      </trkpt>
      <trkpt lat="43.7392" lon="6.94536">
        <ele>1093</ele>
        <time>2026-05-16T09:20:18Z</time>
      </trkpt>
      <trkpt lat="43.73925" lon="6.94536">
        <ele>1093.4</ele>
        <time>2026-05-16T09:20:19Z</time>
      </trkpt>
      <trkpt lat="43.73931" lon="6.94537">
        <ele>1093.7</ele>
        <time>2026-05-16T09:20:20Z</time>
      </trkpt>
      <trkpt lat="43.73935" lon="6.94537">
        <ele>1094</ele>
        <time>2026-05-16T09:20:21Z</time>
      </trkpt>
      <trkpt lat="43.73939" lon="6.94538">
        <ele>1094.2</ele>
        <time>2026-05-16T09:20:22Z</time>
      </trkpt>
      <trkpt lat="43.73946" lon="6.94538">
        <ele>1094.9</ele>
        <time>2026-05-16T09:20:23Z</time>
      </trkpt>
      <trkpt lat="43.73952" lon="6.9454">
        <ele>1095.8</ele>
        <time>2026-05-16T09:20:24Z</time>
      </trkpt>
      <trkpt lat="43.73957" lon="6.94543">
        <ele>1096.5</ele>
        <time>2026-05-16T09:20:25Z</time>
      </trkpt>
      <trkpt lat="43.73961" lon="6.94546">
        <ele>1097.1</ele>
        <time>2026-05-16T09:20:26Z</time>
      </trkpt>
      <trkpt lat="43.73966" lon="6.94551">
        <ele>1097.9</ele>
        <time>2026-05-16T09:20:27Z</time>
      </trkpt>
      <trkpt lat="43.7397" lon="6.94555">
        <ele>1098.6</ele>
        <time>2026-05-16T09:20:28Z</time>
      </trkpt>
      <trkpt lat="43.73975" lon="6.94561">
        <ele>1099.7</ele>
        <time>2026-05-16T09:20:29Z</time>
      </trkpt>
      <trkpt lat="43.73978" lon="6.94569">
        <ele>1100.3</ele>
        <time>2026-05-16T09:20:30Z</time>
      </trkpt>
      <trkpt lat="43.73979" lon="6.94578">
        <ele>1100.3</ele>
        <time>2026-05-16T09:20:31Z</time>
      </trkpt>
      <trkpt lat="43.73979" lon="6.94588">
        <ele>1100.6</ele>
        <time>2026-05-16T09:20:32Z</time>
      </trkpt>
      <trkpt lat="43.73977" lon="6.94597">
        <ele>1100.9</ele>
        <time>2026-05-16T09:20:33Z</time>
      </trkpt>
      <trkpt lat="43.73973" lon="6.94607">
        <ele>1100.9</ele>
        <time>2026-05-16T09:20:34Z</time>
      </trkpt>
      <trkpt lat="43.73969" lon="6.94615">
        <ele>1100.6</ele>
        <time>2026-05-16T09:20:35Z</time>
      </trkpt>
      <trkpt lat="43.73964" lon="6.94623">
        <ele>1100.3</ele>
        <time>2026-05-16T09:20:36Z</time>
      </trkpt>
      <trkpt lat="43.7396" lon="6.94633">
        <ele>1100.6</ele>
        <time>2026-05-16T09:20:37Z</time>
      </trkpt>
      <trkpt lat="43.73957" lon="6.94641">
        <ele>1100.9</ele>
        <time>2026-05-16T09:20:38Z</time>
      </trkpt>
      <trkpt lat="43.73957" lon="6.9465">
        <ele>1102</ele>
        <time>2026-05-16T09:20:39Z</time>
      </trkpt>
      <trkpt lat="43.7396" lon="6.94657">
        <ele>1103.2</ele>
        <time>2026-05-16T09:20:40Z</time>
      </trkpt>
      <trkpt lat="43.73967" lon="6.94659">
        <ele>1104.6</ele>
        <time>2026-05-16T09:20:41Z</time>
      </trkpt>
      <trkpt lat="43.73973" lon="6.94654">
        <ele>1105.2</ele>
        <time>2026-05-16T09:20:42Z</time>
      </trkpt>
      <trkpt lat="43.73978" lon="6.94645">
        <ele>1105.6</ele>
        <time>2026-05-16T09:20:43Z</time>
      </trkpt>
      <trkpt lat="43.73982" lon="6.94633">
        <ele>1105.5</ele>
        <time>2026-05-16T09:20:44Z</time>
      </trkpt>
      <trkpt lat="43.73989" lon="6.94622">
        <ele>1105.8</ele>
        <time>2026-05-16T09:20:45Z</time>
      </trkpt>
      <trkpt lat="43.73997" lon="6.94611">
        <ele>1106.3</ele>
        <time>2026-05-16T09:20:46Z</time>
      </trkpt>
      <trkpt lat="43.74006" lon="6.94602">
        <ele>1106.7</ele>
        <time>2026-05-16T09:20:47Z</time>
      </trkpt>
      <trkpt lat="43.74015" lon="6.94597">
        <ele>1107.1</ele>
        <time>2026-05-16T09:20:48Z</time>
      </trkpt>
      <trkpt lat="43.74024" lon="6.94596">
        <ele>1108</ele>
        <time>2026-05-16T09:20:49Z</time>
      </trkpt>
      <trkpt lat="43.74033" lon="6.94597">
        <ele>1108.9</ele>
        <time>2026-05-16T09:20:50Z</time>
      </trkpt>
      <trkpt lat="43.74043" lon="6.94596">
        <ele>1109.5</ele>
        <time>2026-05-16T09:20:51Z</time>
      </trkpt>
      <trkpt lat="43.74054" lon="6.94593">
        <ele>1110.2</ele>
        <time>2026-05-16T09:20:52Z</time>
      </trkpt>
      <trkpt lat="43.74065" lon="6.9459">
        <ele>1110.9</ele>
        <time>2026-05-16T09:20:53Z</time>
      </trkpt>
      <trkpt lat="43.74076" lon="6.94587">
        <ele>1111.6</ele>
        <time>2026-05-16T09:20:54Z</time>
      </trkpt>
      <trkpt lat="43.74088" lon="6.94585">
        <ele>1112.4</ele>
        <time>2026-05-16T09:20:55Z</time>
      </trkpt>
      <trkpt lat="43.741" lon="6.94585">
        <ele>1113.3</ele>
        <time>2026-05-16T09:20:56Z</time>
      </trkpt>
      <trkpt lat="43.74112" lon="6.94586">
        <ele>1114.2</ele>
        <time>2026-05-16T09:20:57Z</time>
      </trkpt>
      <trkpt lat="43.74124" lon="6.94585">
        <ele>1115</ele>
        <time>2026-05-16T09:20:58Z</time>
      </trkpt>
      <trkpt lat="43.74136" lon="6.94583">
        <ele>1115.8</ele>
        <time>2026-05-16T09:20:59Z</time>
      </trkpt>
      <trkpt lat="43.74148" lon="6.94581">
        <ele>1116.7</ele>
        <time>2026-05-16T09:21:00Z</time>
      </trkpt>
      <trkpt lat="43.7416" lon="6.94577">
        <ele>1117.7</ele>
        <time>2026-05-16T09:21:01Z</time>
      </trkpt>
      <trkpt lat="43.74173" lon="6.94574">
        <ele>1118.3</ele>
        <time>2026-05-16T09:21:02Z</time>
      </trkpt>
      <trkpt lat="43.74186" lon="6.94571">
        <ele>1118.4</ele>
        <time>2026-05-16T09:21:03Z</time>
      </trkpt>
      <trkpt lat="43.74199" lon="6.94569">
        <ele>1118.4</ele>
        <time>2026-05-16T09:21:04Z</time>
      </trkpt>
      <trkpt lat="43.74212" lon="6.94566">
        <ele>1118.2</ele>
        <time>2026-05-16T09:21:05Z</time>
      </trkpt>
      <trkpt lat="43.74225" lon="6.94562">
        <ele>1117.8</ele>
        <time>2026-05-16T09:21:06Z</time>
      </trkpt>
      <trkpt lat="43.74238" lon="6.94558">
        <ele>1116.9</ele>
        <time>2026-05-16T09:21:07Z</time>
      </trkpt>
      <trkpt lat="43.7425" lon="6.94555">
        <ele>1116</ele>
        <time>2026-05-16T09:21:08Z</time>
      </trkpt>
      <trkpt lat="43.74263" lon="6.94552">
        <ele>1115.5</ele>
        <time>2026-05-16T09:21:09Z</time>
      </trkpt>
      <trkpt lat="43.74276" lon="6.94551">
        <ele>1114.9</ele>
        <time>2026-05-16T09:21:10Z</time>
      </trkpt>
      <trkpt lat="43.7429" lon="6.9455">
        <ele>1113.5</ele>
        <time>2026-05-16T09:21:11Z</time>
      </trkpt>
      <trkpt lat="43.74303" lon="6.94552">
        <ele>1112.1</ele>
        <time>2026-05-16T09:21:12Z</time>
      </trkpt>
      <trkpt lat="43.74316" lon="6.94557">
        <ele>1110.6</ele>
        <time>2026-05-16T09:21:13Z</time>
      </trkpt>
      <trkpt lat="43.74328" lon="6.94563">
        <ele>1109.3</ele>
        <time>2026-05-16T09:21:14Z</time>
      </trkpt>
      <trkpt lat="43.74338" lon="6.94574">
        <ele>1108.5</ele>
        <time>2026-05-16T09:21:15Z</time>
      </trkpt>
      <trkpt lat="43.74346" lon="6.94587">
        <ele>1108</ele>
        <time>2026-05-16T09:21:16Z</time>
      </trkpt>
      <trkpt lat="43.74354" lon="6.94601">
        <ele>1107.6</ele>
        <time>2026-05-16T09:21:17Z</time>
      </trkpt>
      <trkpt lat="43.74361" lon="6.94615">
        <ele>1107.3</ele>
        <time>2026-05-16T09:21:18Z</time>
      </trkpt>
      <trkpt lat="43.7437" lon="6.94627">
        <ele>1107.2</ele>
        <time>2026-05-16T09:21:19Z</time>
      </trkpt>
      <trkpt lat="43.7438" lon="6.94633">
        <ele>1106.5</ele>
        <time>2026-05-16T09:21:20Z</time>
      </trkpt>
      <trkpt lat="43.7439" lon="6.94635">
        <ele>1105.7</ele>
        <time>2026-05-16T09:21:21Z</time>
      </trkpt>
      <trkpt lat="43.744" lon="6.94633">
        <ele>1105.7</ele>
        <time>2026-05-16T09:21:22Z</time>
      </trkpt>
      <trkpt lat="43.74409" lon="6.94627">
        <ele>1105.8</ele>
        <time>2026-05-16T09:21:23Z</time>
      </trkpt>
      <trkpt lat="43.74416" lon="6.94619">
        <ele>1106</ele>
        <time>2026-05-16T09:21:24Z</time>
      </trkpt>
      <trkpt lat="43.74421" lon="6.94608">
        <ele>1105.6</ele>
        <time>2026-05-16T09:21:25Z</time>
      </trkpt>
      <trkpt lat="43.74424" lon="6.94595">
        <ele>1104.9</ele>
        <time>2026-05-16T09:21:26Z</time>
      </trkpt>
      <trkpt lat="43.74424" lon="6.9458">
        <ele>1104.3</ele>
        <time>2026-05-16T09:21:27Z</time>
      </trkpt>
      <trkpt lat="43.74422" lon="6.94564">
        <ele>1103.8</ele>
        <time>2026-05-16T09:21:28Z</time>
      </trkpt>
      <trkpt lat="43.74418" lon="6.94547">
        <ele>1103.6</ele>
        <time>2026-05-16T09:21:29Z</time>
      </trkpt>
      <trkpt lat="43.74414" lon="6.94529">
        <ele>1103</ele>
        <time>2026-05-16T09:21:30Z</time>
      </trkpt>
      <trkpt lat="43.74409" lon="6.9451">
        <ele>1102.5</ele>
        <time>2026-05-16T09:21:31Z</time>
      </trkpt>
      <trkpt lat="43.74403" lon="6.94491">
        <ele>1102</ele>
        <time>2026-05-16T09:21:32Z</time>
      </trkpt>
      <trkpt lat="43.74395" lon="6.94472">
        <ele>1101.5</ele>
        <time>2026-05-16T09:21:33Z</time>
      </trkpt>
      <trkpt lat="43.74386" lon="6.94453">
        <ele>1100.7</ele>
        <time>2026-05-16T09:21:34Z</time>
      </trkpt>
      <trkpt lat="43.74377" lon="6.94432">
        <ele>1099.7</ele>
        <time>2026-05-16T09:21:35Z</time>
      </trkpt>
      <trkpt lat="43.74371" lon="6.94408">
        <ele>1099.2</ele>
        <time>2026-05-16T09:21:36Z</time>
      </trkpt>
      <trkpt lat="43.74368" lon="6.94384">
        <ele>1099.1</ele>
        <time>2026-05-16T09:21:37Z</time>
      </trkpt>
      <trkpt lat="43.74366" lon="6.9436">
        <ele>1098.6</ele>
        <time>2026-05-16T09:21:38Z</time>
      </trkpt>
      <trkpt lat="43.74364" lon="6.94335">
        <ele>1098.7</ele>
        <time>2026-05-16T09:21:39Z</time>
      </trkpt>
      <trkpt lat="43.74361" lon="6.9431">
        <ele>1098.2</ele>
        <time>2026-05-16T09:21:40Z</time>
      </trkpt>
      <trkpt lat="43.7436" lon="6.94284">
        <ele>1097.3</ele>
        <time>2026-05-16T09:21:41Z</time>
      </trkpt>
      <trkpt lat="43.74358" lon="6.9426">
        <ele>1096.5</ele>
        <time>2026-05-16T09:21:42Z</time>
      </trkpt>
      <trkpt lat="43.74355" lon="6.94236">
        <ele>1096.4</ele>
        <time>2026-05-16T09:21:43Z</time>
      </trkpt>
      <trkpt lat="43.74353" lon="6.94213">
        <ele>1096.3</ele>
        <time>2026-05-16T09:21:44Z</time>
      </trkpt>
      <trkpt lat="43.74351" lon="6.9419">
        <ele>1095.7</ele>
        <time>2026-05-16T09:21:45Z</time>
      </trkpt>
      <trkpt lat="43.74348" lon="6.94167">
        <ele>1095.5</ele>
        <time>2026-05-16T09:21:46Z</time>
      </trkpt>
      <trkpt lat="43.74346" lon="6.94143">
        <ele>1094.7</ele>
        <time>2026-05-16T09:21:47Z</time>
      </trkpt>
      <trkpt lat="43.74344" lon="6.94119">
        <ele>1094.2</ele>
        <time>2026-05-16T09:21:48Z</time>
      </trkpt>
      <trkpt lat="43.74342" lon="6.94095">
        <ele>1093.4</ele>
        <time>2026-05-16T09:21:49Z</time>
      </trkpt>
      <trkpt lat="43.7434" lon="6.9407">
        <ele>1092.5</ele>
        <time>2026-05-16T09:21:50Z</time>
      </trkpt>
      <trkpt lat="43.74338" lon="6.94045">
        <ele>1092</ele>
        <time>2026-05-16T09:21:51Z</time>
      </trkpt>
      <trkpt lat="43.74336" lon="6.94021">
        <ele>1092</ele>
        <time>2026-05-16T09:21:52Z</time>
      </trkpt>
      <trkpt lat="43.74334" lon="6.93997">
        <ele>1092</ele>
        <time>2026-05-16T09:21:53Z</time>
      </trkpt>
      <trkpt lat="43.74331" lon="6.93974">
        <ele>1092.2</ele>
        <time>2026-05-16T09:21:54Z</time>
      </trkpt>
      <trkpt lat="43.74328" lon="6.9395">
        <ele>1093.2</ele>
        <time>2026-05-16T09:21:55Z</time>
      </trkpt>
      <trkpt lat="43.74325" lon="6.93926">
        <ele>1092.9</ele>
        <time>2026-05-16T09:21:56Z</time>
      </trkpt>
      <trkpt lat="43.74322" lon="6.93903">
        <ele>1092.6</ele>
        <time>2026-05-16T09:21:57Z</time>
      </trkpt>
      <trkpt lat="43.7432" lon="6.93879">
        <ele>1092.5</ele>
        <time>2026-05-16T09:21:58Z</time>
      </trkpt>
      <trkpt lat="43.74318" lon="6.93855">
        <ele>1092.4</ele>
        <time>2026-05-16T09:21:59Z</time>
      </trkpt>
      <trkpt lat="43.74317" lon="6.93832">
        <ele>1092</ele>
        <time>2026-05-16T09:22:00Z</time>
      </trkpt>
      <trkpt lat="43.74316" lon="6.93808">
        <ele>1091.1</ele>
        <time>2026-05-16T09:22:01Z</time>
      </trkpt>
      <trkpt lat="43.74315" lon="6.93783">
        <ele>1090.2</ele>
        <time>2026-05-16T09:22:02Z</time>
      </trkpt>
      <trkpt lat="43.74315" lon="6.93759">
        <ele>1090.2</ele>
        <time>2026-05-16T09:22:03Z</time>
      </trkpt>
      <trkpt lat="43.74315" lon="6.93737">
        <ele>1090.6</ele>
        <time>2026-05-16T09:22:04Z</time>
      </trkpt>
      <trkpt lat="43.74314" lon="6.93714">
        <ele>1091.4</ele>
        <time>2026-05-16T09:22:05Z</time>
      </trkpt>
      <trkpt lat="43.74312" lon="6.93693">
        <ele>1092.3</ele>
        <time>2026-05-16T09:22:06Z</time>
      </trkpt>
      <trkpt lat="43.7431" lon="6.93672">
        <ele>1092.4</ele>
        <time>2026-05-16T09:22:07Z</time>
      </trkpt>
      <trkpt lat="43.74309" lon="6.93651">
        <ele>1092.5</ele>
        <time>2026-05-16T09:22:08Z</time>
      </trkpt>
      <trkpt lat="43.74308" lon="6.9363">
        <ele>1092.7</ele>
        <time>2026-05-16T09:22:09Z</time>
      </trkpt>
      <trkpt lat="43.74308" lon="6.93608">
        <ele>1092.7</ele>
        <time>2026-05-16T09:22:10Z</time>
      </trkpt>
      <trkpt lat="43.74308" lon="6.93588">
        <ele>1092.7</ele>
        <time>2026-05-16T09:22:11Z</time>
      </trkpt>
      <trkpt lat="43.74308" lon="6.93568">
        <ele>1092.7</ele>
        <time>2026-05-16T09:22:12Z</time>
      </trkpt>
      <trkpt lat="43.74307" lon="6.93549">
        <ele>1092.6</ele>
        <time>2026-05-16T09:22:13Z</time>
      </trkpt>
      <trkpt lat="43.74305" lon="6.9353">
        <ele>1092.1</ele>
        <time>2026-05-16T09:22:14Z</time>
      </trkpt>
      <trkpt lat="43.74302" lon="6.93512">
        <ele>1091.9</ele>
        <time>2026-05-16T09:22:15Z</time>
      </trkpt>
      <trkpt lat="43.743" lon="6.93493">
        <ele>1091.8</ele>
        <time>2026-05-16T09:22:16Z</time>
      </trkpt>
      <trkpt lat="43.74298" lon="6.93474">
        <ele>1091.7</ele>
        <time>2026-05-16T09:22:17Z</time>
      </trkpt>
      <trkpt lat="43.74295" lon="6.93454">
        <ele>1091</ele>
        <time>2026-05-16T09:22:18Z</time>
      </trkpt>
      <trkpt lat="43.74292" lon="6.93432">
        <ele>1090.3</ele>
        <time>2026-05-16T09:22:19Z</time>
      </trkpt>
      <trkpt lat="43.74289" lon="6.93412">
        <ele>1089.9</ele>
        <time>2026-05-16T09:22:20Z</time>
      </trkpt>
      <trkpt lat="43.74286" lon="6.93391">
        <ele>1089.7</ele>
        <time>2026-05-16T09:22:21Z</time>
      </trkpt>
      <trkpt lat="43.74284" lon="6.9337">
        <ele>1089.5</ele>
        <time>2026-05-16T09:22:22Z</time>
      </trkpt>
      <trkpt lat="43.74282" lon="6.93348">
        <ele>1088.7</ele>
        <time>2026-05-16T09:22:23Z</time>
      </trkpt>
      <trkpt lat="43.74281" lon="6.93326">
        <ele>1087.5</ele>
        <time>2026-05-16T09:22:24Z</time>
      </trkpt>
      <trkpt lat="43.74279" lon="6.93302">
        <ele>1086.8</ele>
        <time>2026-05-16T09:22:25Z</time>
      </trkpt>
      <trkpt lat="43.74276" lon="6.93278">
        <ele>1085.9</ele>
        <time>2026-05-16T09:22:26Z</time>
      </trkpt>
      <trkpt lat="43.74273" lon="6.93253">
        <ele>1084.9</ele>
        <time>2026-05-16T09:22:27Z</time>
      </trkpt>
      <trkpt lat="43.74268" lon="6.93227">
        <ele>1083.6</ele>
        <time>2026-05-16T09:22:28Z</time>
      </trkpt>
      <trkpt lat="43.74263" lon="6.93203">
        <ele>1083.9</ele>
        <time>2026-05-16T09:22:29Z</time>
      </trkpt>
      <trkpt lat="43.74257" lon="6.93179">
        <ele>1084.1</ele>
        <time>2026-05-16T09:22:30Z</time>
      </trkpt>
      <trkpt lat="43.7425" lon="6.93156">
        <ele>1083.6</ele>
        <time>2026-05-16T09:22:31Z</time>
      </trkpt>
      <trkpt lat="43.74243" lon="6.93135">
        <ele>1083.1</ele>
        <time>2026-05-16T09:22:32Z</time>
      </trkpt>
      <trkpt lat="43.74236" lon="6.93113">
        <ele>1082.6</ele>
        <time>2026-05-16T09:22:33Z</time>
      </trkpt>
      <trkpt lat="43.74231" lon="6.93092">
        <ele>1082.7</ele>
        <time>2026-05-16T09:22:34Z</time>
      </trkpt>
      <trkpt lat="43.74227" lon="6.93069">
        <ele>1082.8</ele>
        <time>2026-05-16T09:22:35Z</time>
      </trkpt>
      <trkpt lat="43.74224" lon="6.93046">
        <ele>1082.6</ele>
        <time>2026-05-16T09:22:36Z</time>
      </trkpt>
      <trkpt lat="43.74223" lon="6.93023">
        <ele>1082</ele>
        <time>2026-05-16T09:22:37Z</time>
      </trkpt>
      <trkpt lat="43.74222" lon="6.92998">
        <ele>1082</ele>
        <time>2026-05-16T09:22:38Z</time>
      </trkpt>
      <trkpt lat="43.74222" lon="6.92974">
        <ele>1082</ele>
        <time>2026-05-16T09:22:39Z</time>
      </trkpt>
      <trkpt lat="43.74222" lon="6.9295">
        <ele>1081.2</ele>
        <time>2026-05-16T09:22:40Z</time>
      </trkpt>
      <trkpt lat="43.74222" lon="6.92926">
        <ele>1081</ele>
        <time>2026-05-16T09:22:41Z</time>
      </trkpt>
      <trkpt lat="43.74222" lon="6.92901">
        <ele>1081</ele>
        <time>2026-05-16T09:22:42Z</time>
      </trkpt>
      <trkpt lat="43.74222" lon="6.92875">
        <ele>1081</ele>
        <time>2026-05-16T09:22:43Z</time>
      </trkpt>
      <trkpt lat="43.74222" lon="6.92849">
        <ele>1080.6</ele>
        <time>2026-05-16T09:22:44Z</time>
      </trkpt>
      <trkpt lat="43.74222" lon="6.92824">
        <ele>1080</ele>
        <time>2026-05-16T09:22:45Z</time>
      </trkpt>
      <trkpt lat="43.74222" lon="6.92799">
        <ele>1080</ele>
        <time>2026-05-16T09:22:46Z</time>
      </trkpt>
      <trkpt lat="43.7422" lon="6.92775">
        <ele>1080.2</ele>
        <time>2026-05-16T09:22:47Z</time>
      </trkpt>
      <trkpt lat="43.74216" lon="6.92751">
        <ele>1079.9</ele>
        <time>2026-05-16T09:22:48Z</time>
      </trkpt>
      <trkpt lat="43.7421" lon="6.92728">
        <ele>1080.4</ele>
        <time>2026-05-16T09:22:49Z</time>
      </trkpt>
      <trkpt lat="43.74203" lon="6.92707">
        <ele>1080.1</ele>
        <time>2026-05-16T09:22:50Z</time>
      </trkpt>
      <trkpt lat="43.74195" lon="6.92688">
        <ele>1079.7</ele>
        <time>2026-05-16T09:22:51Z</time>
      </trkpt>
      <trkpt lat="43.74186" lon="6.9267">
        <ele>1080.1</ele>
        <time>2026-05-16T09:22:52Z</time>
      </trkpt>
      <trkpt lat="43.74178" lon="6.92651">
        <ele>1079.9</ele>
        <time>2026-05-16T09:22:53Z</time>
      </trkpt>
      <trkpt lat="43.74172" lon="6.9263">
        <ele>1079.4</ele>
        <time>2026-05-16T09:22:54Z</time>
      </trkpt>
      <trkpt lat="43.74167" lon="6.92608">
        <ele>1079</ele>
        <time>2026-05-16T09:22:55Z</time>
      </trkpt>
      <trkpt lat="43.74163" lon="6.92585">
        <ele>1079.3</ele>
        <time>2026-05-16T09:22:56Z</time>
      </trkpt>
      <trkpt lat="43.74161" lon="6.92563">
        <ele>1079</ele>
        <time>2026-05-16T09:22:57Z</time>
      </trkpt>
      <trkpt lat="43.74159" lon="6.9254">
        <ele>1079.1</ele>
        <time>2026-05-16T09:22:58Z</time>
      </trkpt>
      <trkpt lat="43.74159" lon="6.92519">
        <ele>1079</ele>
        <time>2026-05-16T09:22:59Z</time>
      </trkpt>
      <trkpt lat="43.74159" lon="6.92498">
        <ele>1078.8</ele>
        <time>2026-05-16T09:23:00Z</time>
      </trkpt>
      <trkpt lat="43.74163" lon="6.92478">
        <ele>1078.2</ele>
        <time>2026-05-16T09:23:01Z</time>
      </trkpt>
      <trkpt lat="43.74169" lon="6.92461">
        <ele>1078.3</ele>
        <time>2026-05-16T09:23:02Z</time>
      </trkpt>
      <trkpt lat="43.74179" lon="6.92446">
        <ele>1078.1</ele>
        <time>2026-05-16T09:23:03Z</time>
      </trkpt>
      <trkpt lat="43.74191" lon="6.92434">
        <ele>1078</ele>
        <time>2026-05-16T09:23:04Z</time>
      </trkpt>
      <trkpt lat="43.74202" lon="6.92424">
        <ele>1078.1</ele>
        <time>2026-05-16T09:23:05Z</time>
      </trkpt>
      <trkpt lat="43.7421" lon="6.9241">
        <ele>1078</ele>
        <time>2026-05-16T09:23:06Z</time>
      </trkpt>
      <trkpt lat="43.74216" lon="6.92395">
        <ele>1077.6</ele>
        <time>2026-05-16T09:23:07Z</time>
      </trkpt>
      <trkpt lat="43.74218" lon="6.92377">
        <ele>1077.5</ele>
        <time>2026-05-16T09:23:08Z</time>
      </trkpt>
      <trkpt lat="43.74219" lon="6.92358">
        <ele>1077.3</ele>
        <time>2026-05-16T09:23:09Z</time>
      </trkpt>
      <trkpt lat="43.74218" lon="6.92339">
        <ele>1077.5</ele>
        <time>2026-05-16T09:23:10Z</time>
      </trkpt>
      <trkpt lat="43.74217" lon="6.9232">
        <ele>1077.6</ele>
        <time>2026-05-16T09:23:11Z</time>
      </trkpt>
      <trkpt lat="43.74215" lon="6.923">
        <ele>1077.8</ele>
        <time>2026-05-16T09:23:12Z</time>
      </trkpt>
      <trkpt lat="43.74214" lon="6.92279">
        <ele>1077.9</ele>
        <time>2026-05-16T09:23:13Z</time>
      </trkpt>
      <trkpt lat="43.74212" lon="6.92258">
        <ele>1077.8</ele>
        <time>2026-05-16T09:23:14Z</time>
      </trkpt>
      <trkpt lat="43.74211" lon="6.92237">
        <ele>1077.5</ele>
        <time>2026-05-16T09:23:15Z</time>
      </trkpt>
      <trkpt lat="43.74209" lon="6.92215">
        <ele>1077.3</ele>
        <time>2026-05-16T09:23:16Z</time>
      </trkpt>
      <trkpt lat="43.74208" lon="6.92194">
        <ele>1077</ele>
        <time>2026-05-16T09:23:17Z</time>
      </trkpt>
      <trkpt lat="43.74207" lon="6.92173">
        <ele>1077.5</ele>
        <time>2026-05-16T09:23:18Z</time>
      </trkpt>
      <trkpt lat="43.74207" lon="6.92153">
        <ele>1077.2</ele>
        <time>2026-05-16T09:23:19Z</time>
      </trkpt>
      <trkpt lat="43.74205" lon="6.92134">
        <ele>1076.9</ele>
        <time>2026-05-16T09:23:20Z</time>
      </trkpt>
      <trkpt lat="43.74205" lon="6.92116">
        <ele>1076.9</ele>
        <time>2026-05-16T09:23:21Z</time>
      </trkpt>
      <trkpt lat="43.74204" lon="6.92097">
        <ele>1076.6</ele>
        <time>2026-05-16T09:23:22Z</time>
      </trkpt>
      <trkpt lat="43.74203" lon="6.92077">
        <ele>1076.4</ele>
        <time>2026-05-16T09:23:23Z</time>
      </trkpt>
      <trkpt lat="43.74203" lon="6.92057">
        <ele>1076.4</ele>
        <time>2026-05-16T09:23:24Z</time>
      </trkpt>
      <trkpt lat="43.74202" lon="6.92037">
        <ele>1076.5</ele>
        <time>2026-05-16T09:23:25Z</time>
      </trkpt>
      <trkpt lat="43.74201" lon="6.92018">
        <ele>1076.5</ele>
        <time>2026-05-16T09:23:26Z</time>
      </trkpt>
      <trkpt lat="43.742" lon="6.91998">
        <ele>1076.6</ele>
        <time>2026-05-16T09:23:27Z</time>
      </trkpt>
      <trkpt lat="43.742" lon="6.91978">
        <ele>1076.6</ele>
        <time>2026-05-16T09:23:28Z</time>
      </trkpt>
      <trkpt lat="43.74199" lon="6.91957">
        <ele>1076.6</ele>
        <time>2026-05-16T09:23:29Z</time>
      </trkpt>
      <trkpt lat="43.74198" lon="6.91935">
        <ele>1076.3</ele>
        <time>2026-05-16T09:23:30Z</time>
      </trkpt>
      <trkpt lat="43.74197" lon="6.91913">
        <ele>1075.8</ele>
        <time>2026-05-16T09:23:31Z</time>
      </trkpt>
      <trkpt lat="43.74197" lon="6.91891">
        <ele>1075.8</ele>
        <time>2026-05-16T09:23:32Z</time>
      </trkpt>
      <trkpt lat="43.74195" lon="6.91868">
        <ele>1076</ele>
        <time>2026-05-16T09:23:33Z</time>
      </trkpt>
      <trkpt lat="43.74194" lon="6.91845">
        <ele>1076.1</ele>
        <time>2026-05-16T09:23:34Z</time>
      </trkpt>
      <trkpt lat="43.74192" lon="6.91822">
        <ele>1075.9</ele>
        <time>2026-05-16T09:23:35Z</time>
      </trkpt>
      <trkpt lat="43.74189" lon="6.91799">
        <ele>1075.7</ele>
        <time>2026-05-16T09:23:36Z</time>
      </trkpt>
      <trkpt lat="43.74187" lon="6.91776">
        <ele>1075.8</ele>
        <time>2026-05-16T09:23:37Z</time>
      </trkpt>
      <trkpt lat="43.74184" lon="6.91755">
        <ele>1076.1</ele>
        <time>2026-05-16T09:23:38Z</time>
      </trkpt>
      <trkpt lat="43.74182" lon="6.91735">
        <ele>1075.8</ele>
        <time>2026-05-16T09:23:39Z</time>
      </trkpt>
      <trkpt lat="43.7418" lon="6.91714">
        <ele>1075.4</ele>
        <time>2026-05-16T09:23:40Z</time>
      </trkpt>
      <trkpt lat="43.74178" lon="6.91695">
        <ele>1075.2</ele>
        <time>2026-05-16T09:23:41Z</time>
      </trkpt>
      <trkpt lat="43.74177" lon="6.91676">
        <ele>1074.6</ele>
        <time>2026-05-16T09:23:42Z</time>
      </trkpt>
      <trkpt lat="43.74176" lon="6.91658">
        <ele>1074.1</ele>
        <time>2026-05-16T09:23:43Z</time>
      </trkpt>
      <trkpt lat="43.74176" lon="6.9164">
        <ele>1073.7</ele>
        <time>2026-05-16T09:23:44Z</time>
      </trkpt>
      <trkpt lat="43.74175" lon="6.91623">
        <ele>1073.7</ele>
        <time>2026-05-16T09:23:45Z</time>
      </trkpt>
      <trkpt lat="43.74175" lon="6.91606">
        <ele>1073.7</ele>
        <time>2026-05-16T09:23:46Z</time>
      </trkpt>
      <trkpt lat="43.74176" lon="6.9159">
        <ele>1073.7</ele>
        <time>2026-05-16T09:23:47Z</time>
      </trkpt>
      <trkpt lat="43.74177" lon="6.91573">
        <ele>1073.6</ele>
        <time>2026-05-16T09:23:48Z</time>
      </trkpt>
      <trkpt lat="43.74178" lon="6.91556">
        <ele>1073.6</ele>
        <time>2026-05-16T09:23:49Z</time>
      </trkpt>
      <trkpt lat="43.74182" lon="6.9154">
        <ele>1073.2</ele>
        <time>2026-05-16T09:23:50Z</time>
      </trkpt>
      <trkpt lat="43.74187" lon="6.91523">
        <ele>1072.8</ele>
        <time>2026-05-16T09:23:51Z</time>
      </trkpt>
      <trkpt lat="43.74193" lon="6.91506">
        <ele>1072.2</ele>
        <time>2026-05-16T09:23:52Z</time>
      </trkpt>
      <trkpt lat="43.742" lon="6.91488">
        <ele>1072.6</ele>
        <time>2026-05-16T09:23:53Z</time>
      </trkpt>
      <trkpt lat="43.74207" lon="6.9147">
        <ele>1073.5</ele>
        <time>2026-05-16T09:23:54Z</time>
      </trkpt>
      <trkpt lat="43.74216" lon="6.91453">
        <ele>1073.8</ele>
        <time>2026-05-16T09:23:55Z</time>
      </trkpt>
      <trkpt lat="43.74225" lon="6.91435">
        <ele>1073.7</ele>
        <time>2026-05-16T09:23:56Z</time>
      </trkpt>
      <trkpt lat="43.74234" lon="6.91418">
        <ele>1073.5</ele>
        <time>2026-05-16T09:23:57Z</time>
      </trkpt>
      <trkpt lat="43.74244" lon="6.91401">
        <ele>1073.8</ele>
        <time>2026-05-16T09:23:58Z</time>
      </trkpt>
      <trkpt lat="43.74254" lon="6.91384">
        <ele>1074.1</ele>
        <time>2026-05-16T09:23:59Z</time>
      </trkpt>
      <trkpt lat="43.74266" lon="6.91367">
        <ele>1074.6</ele>
        <time>2026-05-16T09:24:00Z</time>
      </trkpt>
      <trkpt lat="43.74277" lon="6.9135">
        <ele>1075</ele>
        <time>2026-05-16T09:24:01Z</time>
      </trkpt>
      <trkpt lat="43.7429" lon="6.91334">
        <ele>1075</ele>
        <time>2026-05-16T09:24:02Z</time>
      </trkpt>
      <trkpt lat="43.74303" lon="6.91318">
        <ele>1075</ele>
        <time>2026-05-16T09:24:03Z</time>
      </trkpt>
      <trkpt lat="43.74317" lon="6.91302">
        <ele>1075</ele>
        <time>2026-05-16T09:24:04Z</time>
      </trkpt>
      <trkpt lat="43.74331" lon="6.91286">
        <ele>1075</ele>
        <time>2026-05-16T09:24:05Z</time>
      </trkpt>
      <trkpt lat="43.74345" lon="6.91269">
        <ele>1075.6</ele>
        <time>2026-05-16T09:24:06Z</time>
      </trkpt>
      <trkpt lat="43.74359" lon="6.91253">
        <ele>1076</ele>
        <time>2026-05-16T09:24:07Z</time>
      </trkpt>
      <trkpt lat="43.74373" lon="6.91237">
        <ele>1076.9</ele>
        <time>2026-05-16T09:24:08Z</time>
      </trkpt>
      <trkpt lat="43.74386" lon="6.91221">
        <ele>1077.9</ele>
        <time>2026-05-16T09:24:09Z</time>
      </trkpt>
      <trkpt lat="43.74399" lon="6.91206">
        <ele>1078</ele>
        <time>2026-05-16T09:24:10Z</time>
      </trkpt>
      <trkpt lat="43.74412" lon="6.91192">
        <ele>1078.1</ele>
        <time>2026-05-16T09:24:11Z</time>
      </trkpt>
      <trkpt lat="43.74426" lon="6.91178">
        <ele>1078.7</ele>
        <time>2026-05-16T09:24:12Z</time>
      </trkpt>
      <trkpt lat="43.74441" lon="6.91167">
        <ele>1079</ele>
        <time>2026-05-16T09:24:13Z</time>
      </trkpt>
      <trkpt lat="43.74456" lon="6.91157">
        <ele>1079.8</ele>
        <time>2026-05-16T09:24:14Z</time>
      </trkpt>
      <trkpt lat="43.74471" lon="6.91147">
        <ele>1080.7</ele>
        <time>2026-05-16T09:24:15Z</time>
      </trkpt>
      <trkpt lat="43.74485" lon="6.91138">
        <ele>1081.9</ele>
        <time>2026-05-16T09:24:16Z</time>
      </trkpt>
      <trkpt lat="43.74497" lon="6.91127">
        <ele>1083.2</ele>
        <time>2026-05-16T09:24:17Z</time>
      </trkpt>
      <trkpt lat="43.74506" lon="6.91113">
        <ele>1084.6</ele>
        <time>2026-05-16T09:24:18Z</time>
      </trkpt>
      <trkpt lat="43.74511" lon="6.91098">
        <ele>1085</ele>
        <time>2026-05-16T09:24:19Z</time>
      </trkpt>
      <trkpt lat="43.74512" lon="6.91081">
        <ele>1084.8</ele>
        <time>2026-05-16T09:24:20Z</time>
      </trkpt>
      <trkpt lat="43.7451" lon="6.91063">
        <ele>1084</ele>
        <time>2026-05-16T09:24:21Z</time>
      </trkpt>
      <trkpt lat="43.74504" lon="6.91045">
        <ele>1083.2</ele>
        <time>2026-05-16T09:24:22Z</time>
      </trkpt>
      <trkpt lat="43.74498" lon="6.91025">
        <ele>1082.9</ele>
        <time>2026-05-16T09:24:23Z</time>
      </trkpt>
      <trkpt lat="43.74491" lon="6.91004">
        <ele>1082.7</ele>
        <time>2026-05-16T09:24:24Z</time>
      </trkpt>
      <trkpt lat="43.74484" lon="6.90982">
        <ele>1082.4</ele>
        <time>2026-05-16T09:24:25Z</time>
      </trkpt>
      <trkpt lat="43.74476" lon="6.90961">
        <ele>1082.2</ele>
        <time>2026-05-16T09:24:26Z</time>
      </trkpt>
      <trkpt lat="43.74467" lon="6.90942">
        <ele>1081.9</ele>
        <time>2026-05-16T09:24:27Z</time>
      </trkpt>
      <trkpt lat="43.74455" lon="6.90926">
        <ele>1082</ele>
        <time>2026-05-16T09:24:28Z</time>
      </trkpt>
      <trkpt lat="43.74442" lon="6.90913">
        <ele>1081.9</ele>
        <time>2026-05-16T09:24:29Z</time>
      </trkpt>
      <trkpt lat="43.74427" lon="6.90901">
        <ele>1081.7</ele>
        <time>2026-05-16T09:24:30Z</time>
      </trkpt>
      <trkpt lat="43.74413" lon="6.90889">
        <ele>1081.9</ele>
        <time>2026-05-16T09:24:31Z</time>
      </trkpt>
      <trkpt lat="43.74398" lon="6.90878">
        <ele>1081.6</ele>
        <time>2026-05-16T09:24:32Z</time>
      </trkpt>
      <trkpt lat="43.74385" lon="6.90866">
        <ele>1081.7</ele>
        <time>2026-05-16T09:24:33Z</time>
      </trkpt>
      <trkpt lat="43.74372" lon="6.90853">
        <ele>1081.7</ele>
        <time>2026-05-16T09:24:34Z</time>
      </trkpt>
      <trkpt lat="43.74361" lon="6.90837">
        <ele>1081.9</ele>
        <time>2026-05-16T09:24:35Z</time>
      </trkpt>
      <trkpt lat="43.74351" lon="6.9082">
        <ele>1081.6</ele>
        <time>2026-05-16T09:24:36Z</time>
      </trkpt>
      <trkpt lat="43.74343" lon="6.908">
        <ele>1081.4</ele>
        <time>2026-05-16T09:24:37Z</time>
      </trkpt>
      <trkpt lat="43.74335" lon="6.9078">
        <ele>1081.1</ele>
        <time>2026-05-16T09:24:38Z</time>
      </trkpt>
      <trkpt lat="43.74329" lon="6.9076">
        <ele>1082.2</ele>
        <time>2026-05-16T09:24:39Z</time>
      </trkpt>
      <trkpt lat="43.74324" lon="6.90739">
        <ele>1083.1</ele>
        <time>2026-05-16T09:24:40Z</time>
      </trkpt>
      <trkpt lat="43.74319" lon="6.90718">
        <ele>1083.8</ele>
        <time>2026-05-16T09:24:41Z</time>
      </trkpt>
      <trkpt lat="43.74314" lon="6.90697">
        <ele>1085.1</ele>
        <time>2026-05-16T09:24:42Z</time>
      </trkpt>
      <trkpt lat="43.7431" lon="6.90677">
        <ele>1085.3</ele>
        <time>2026-05-16T09:24:43Z</time>
      </trkpt>
      <trkpt lat="43.74303" lon="6.90661">
        <ele>1084.7</ele>
        <time>2026-05-16T09:24:44Z</time>
      </trkpt>
      <trkpt lat="43.74294" lon="6.90645">
        <ele>1084.1</ele>
        <time>2026-05-16T09:24:45Z</time>
      </trkpt>
      <trkpt lat="43.74284" lon="6.9063">
        <ele>1084</ele>
        <time>2026-05-16T09:24:46Z</time>
      </trkpt>
      <trkpt lat="43.74275" lon="6.90614">
        <ele>1084</ele>
        <time>2026-05-16T09:24:47Z</time>
      </trkpt>
      <trkpt lat="43.74266" lon="6.90596">
        <ele>1084.5</ele>
        <time>2026-05-16T09:24:48Z</time>
      </trkpt>
      <trkpt lat="43.74257" lon="6.90577">
        <ele>1085</ele>
        <time>2026-05-16T09:24:49Z</time>
      </trkpt>
      <trkpt lat="43.74249" lon="6.90557">
        <ele>1085</ele>
        <time>2026-05-16T09:24:50Z</time>
      </trkpt>
      <trkpt lat="43.74241" lon="6.90536">
        <ele>1085</ele>
        <time>2026-05-16T09:24:51Z</time>
      </trkpt>
      <trkpt lat="43.74233" lon="6.90515">
        <ele>1085.5</ele>
        <time>2026-05-16T09:24:52Z</time>
      </trkpt>
      <trkpt lat="43.74225" lon="6.90493">
        <ele>1086</ele>
        <time>2026-05-16T09:24:53Z</time>
      </trkpt>
      <trkpt lat="43.74217" lon="6.90472">
        <ele>1086.4</ele>
        <time>2026-05-16T09:24:54Z</time>
      </trkpt>
      <trkpt lat="43.7421" lon="6.9045">
        <ele>1087.7</ele>
        <time>2026-05-16T09:24:55Z</time>
      </trkpt>
      <trkpt lat="43.74205" lon="6.90428">
        <ele>1088.2</ele>
        <time>2026-05-16T09:24:56Z</time>
      </trkpt>
      <trkpt lat="43.74202" lon="6.90405">
        <ele>1088.6</ele>
        <time>2026-05-16T09:24:57Z</time>
      </trkpt>
      <trkpt lat="43.742" lon="6.90383">
        <ele>1088.8</ele>
        <time>2026-05-16T09:24:58Z</time>
      </trkpt>
      <trkpt lat="43.74198" lon="6.90364">
        <ele>1088.9</ele>
        <time>2026-05-16T09:24:59Z</time>
      </trkpt>
      <trkpt lat="43.74196" lon="6.90348">
        <ele>1088.9</ele>
        <time>2026-05-16T09:25:00Z</time>
      </trkpt>
      <trkpt lat="43.74195" lon="6.90336">
        <ele>1089</ele>
        <time>2026-05-16T09:25:01Z</time>
      </trkpt>
      <trkpt lat="43.74194" lon="6.90326">
        <ele>1089</ele>
        <time>2026-05-16T09:25:02Z</time>
      </trkpt>
      <trkpt lat="43.74193" lon="6.90318">
        <ele>1089.1</ele>
        <time>2026-05-16T09:25:03Z</time>
      </trkpt>
      <trkpt lat="43.74193" lon="6.9031">
        <ele>1089.1</ele>
        <time>2026-05-16T09:25:04Z</time>
      </trkpt>
      <trkpt lat="43.74192" lon="6.90302">
        <ele>1089.2</ele>
        <time>2026-05-16T09:25:05Z</time>
      </trkpt>
      <trkpt lat="43.74191" lon="6.90294">
        <ele>1089.2</ele>
        <time>2026-05-16T09:25:06Z</time>
      </trkpt>
      <trkpt lat="43.7419" lon="6.90286">
        <ele>1089.3</ele>
        <time>2026-05-16T09:25:07Z</time>
      </trkpt>
      <trkpt lat="43.7419" lon="6.90276">
        <ele>1089.4</ele>
        <time>2026-05-16T09:25:08Z</time>
      </trkpt>
      <trkpt lat="43.74189" lon="6.90267">
        <ele>1089.7</ele>
        <time>2026-05-16T09:25:09Z</time>
      </trkpt>
      <trkpt lat="43.74188" lon="6.90257">
        <ele>1090</ele>
        <time>2026-05-16T09:25:10Z</time>
      </trkpt>
      <trkpt lat="43.74187" lon="6.90247">
        <ele>1090.3</ele>
        <time>2026-05-16T09:25:11Z</time>
      </trkpt>
      <trkpt lat="43.74185" lon="6.90237">
        <ele>1090.3</ele>
        <time>2026-05-16T09:25:12Z</time>
      </trkpt>
      <trkpt lat="43.74184" lon="6.90228">
        <ele>1090.4</ele>
        <time>2026-05-16T09:25:13Z</time>
      </trkpt>
      <trkpt lat="43.74183" lon="6.90217">
        <ele>1090.6</ele>
        <time>2026-05-16T09:25:14Z</time>
      </trkpt>
      <trkpt lat="43.74182" lon="6.90206">
        <ele>1091</ele>
        <time>2026-05-16T09:25:15Z</time>
      </trkpt>
      <trkpt lat="43.74182" lon="6.90193">
        <ele>1091.6</ele>
        <time>2026-05-16T09:25:16Z</time>
      </trkpt>
      <trkpt lat="43.74182" lon="6.90181">
        <ele>1092.4</ele>
        <time>2026-05-16T09:25:17Z</time>
      </trkpt>
      <trkpt lat="43.74181" lon="6.90168">
        <ele>1093.4</ele>
        <time>2026-05-16T09:25:18Z</time>
      </trkpt>
      <trkpt lat="43.7418" lon="6.90155">
        <ele>1093.9</ele>
        <time>2026-05-16T09:25:19Z</time>
      </trkpt>
      <trkpt lat="43.7418" lon="6.90142">
        <ele>1094.4</ele>
        <time>2026-05-16T09:25:20Z</time>
      </trkpt>
      <trkpt lat="43.74179" lon="6.9013">
        <ele>1094.9</ele>
        <time>2026-05-16T09:25:21Z</time>
      </trkpt>
      <trkpt lat="43.74179" lon="6.90119">
        <ele>1095.3</ele>
        <time>2026-05-16T09:25:22Z</time>
      </trkpt>
      <trkpt lat="43.74178" lon="6.90108">
        <ele>1095.7</ele>
        <time>2026-05-16T09:25:23Z</time>
      </trkpt>
      <trkpt lat="43.74177" lon="6.90098">
        <ele>1095.9</ele>
        <time>2026-05-16T09:25:24Z</time>
      </trkpt>
      <trkpt lat="43.74177" lon="6.90089">
        <ele>1096.1</ele>
        <time>2026-05-16T09:25:25Z</time>
      </trkpt>
      <trkpt lat="43.74176" lon="6.9008">
        <ele>1096.4</ele>
        <time>2026-05-16T09:25:26Z</time>
      </trkpt>
      <trkpt lat="43.74175" lon="6.9007">
        <ele>1096.5</ele>
        <time>2026-05-16T09:25:27Z</time>
      </trkpt>
      <trkpt lat="43.74175" lon="6.9006">
        <ele>1096.7</ele>
        <time>2026-05-16T09:25:28Z</time>
      </trkpt>
      <trkpt lat="43.74174" lon="6.90052">
        <ele>1096.9</ele>
        <time>2026-05-16T09:25:29Z</time>
      </trkpt>
      <trkpt lat="43.74174" lon="6.90043">
        <ele>1097.2</ele>
        <time>2026-05-16T09:25:30Z</time>
      </trkpt>
      <trkpt lat="43.74173" lon="6.90034">
        <ele>1097.5</ele>
        <time>2026-05-16T09:25:31Z</time>
      </trkpt>
      <trkpt lat="43.74173" lon="6.90024">
        <ele>1097.8</ele>
        <time>2026-05-16T09:25:32Z</time>
      </trkpt>
      <trkpt lat="43.74173" lon="6.90014">
        <ele>1097.9</ele>
        <time>2026-05-16T09:25:33Z</time>
      </trkpt>
      <trkpt lat="43.74174" lon="6.90007">
        <ele>1097.9</ele>
        <time>2026-05-16T09:25:34Z</time>
      </trkpt>
      <trkpt lat="43.74171" lon="6.90001">
        <ele>1098</ele>
        <time>2026-05-16T09:25:35Z</time>
      </trkpt>
      <trkpt lat="43.74166" lon="6.89997">
        <ele>1098</ele>
        <time>2026-05-16T09:25:36Z</time>
      </trkpt>
      <trkpt lat="43.74161" lon="6.89992">
        <ele>1098.4</ele>
        <time>2026-05-16T09:25:37Z</time>
      </trkpt>
      <trkpt lat="43.74157" lon="6.89984">
        <ele>1098.7</ele>
        <time>2026-05-16T09:25:38Z</time>
      </trkpt>
      <trkpt lat="43.74155" lon="6.89976">
        <ele>1098.8</ele>
        <time>2026-05-16T09:25:39Z</time>
      </trkpt>
      <trkpt lat="43.74152" lon="6.89967">
        <ele>1099.1</ele>
        <time>2026-05-16T09:25:40Z</time>
      </trkpt>
      <trkpt lat="43.7415" lon="6.89957">
        <ele>1099.4</ele>
        <time>2026-05-16T09:25:41Z</time>
      </trkpt>
      <trkpt lat="43.74146" lon="6.89945">
        <ele>1099.7</ele>
        <time>2026-05-16T09:25:42Z</time>
      </trkpt>
      <trkpt lat="43.74143" lon="6.89932">
        <ele>1099.9</ele>
        <time>2026-05-16T09:25:43Z</time>
      </trkpt>
      <trkpt lat="43.74139" lon="6.89918">
        <ele>1100</ele>
        <time>2026-05-16T09:25:44Z</time>
      </trkpt>
      <trkpt lat="43.74135" lon="6.89903">
        <ele>1100.8</ele>
        <time>2026-05-16T09:25:45Z</time>
      </trkpt>
      <trkpt lat="43.74131" lon="6.89888">
        <ele>1101.6</ele>
        <time>2026-05-16T09:25:46Z</time>
      </trkpt>
      <trkpt lat="43.74129" lon="6.89872">
        <ele>1101.7</ele>
        <time>2026-05-16T09:25:47Z</time>
      </trkpt>
      <trkpt lat="43.74128" lon="6.89853">
        <ele>1102.1</ele>
        <time>2026-05-16T09:25:48Z</time>
      </trkpt>
      <trkpt lat="43.74127" lon="6.89832">
        <ele>1102.9</ele>
        <time>2026-05-16T09:25:49Z</time>
      </trkpt>
      <trkpt lat="43.74128" lon="6.89809">
        <ele>1103.7</ele>
        <time>2026-05-16T09:25:50Z</time>
      </trkpt>
      <trkpt lat="43.74129" lon="6.89785">
        <ele>1103.7</ele>
        <time>2026-05-16T09:25:51Z</time>
      </trkpt>
      <trkpt lat="43.7413" lon="6.8976">
        <ele>1103.8</ele>
        <time>2026-05-16T09:25:52Z</time>
      </trkpt>
      <trkpt lat="43.74131" lon="6.89736">
        <ele>1104.4</ele>
        <time>2026-05-16T09:25:53Z</time>
      </trkpt>
      <trkpt lat="43.74132" lon="6.89709">
        <ele>1105.2</ele>
        <time>2026-05-16T09:25:54Z</time>
      </trkpt>
      <trkpt lat="43.74131" lon="6.89684">
        <ele>1106</ele>
        <time>2026-05-16T09:25:55Z</time>
      </trkpt>
      <trkpt lat="43.74128" lon="6.89658">
        <ele>1106.3</ele>
        <time>2026-05-16T09:25:56Z</time>
      </trkpt>
      <trkpt lat="43.74123" lon="6.89632">
        <ele>1105.9</ele>
        <time>2026-05-16T09:25:57Z</time>
      </trkpt>
      <trkpt lat="43.74116" lon="6.89605">
        <ele>1105.5</ele>
        <time>2026-05-16T09:25:58Z</time>
      </trkpt>
      <trkpt lat="43.7411" lon="6.89577">
        <ele>1106.2</ele>
        <time>2026-05-16T09:25:59Z</time>
      </trkpt>
      <trkpt lat="43.74104" lon="6.89549">
        <ele>1107.5</ele>
        <time>2026-05-16T09:26:00Z</time>
      </trkpt>
      <trkpt lat="43.74099" lon="6.8952">
        <ele>1109.5</ele>
        <time>2026-05-16T09:26:01Z</time>
      </trkpt>
      <trkpt lat="43.74094" lon="6.89491">
        <ele>1111</ele>
        <time>2026-05-16T09:26:02Z</time>
      </trkpt>
      <trkpt lat="43.7409" lon="6.89462">
        <ele>1111.9</ele>
        <time>2026-05-16T09:26:03Z</time>
      </trkpt>
      <trkpt lat="43.74088" lon="6.89433">
        <ele>1112.8</ele>
        <time>2026-05-16T09:26:04Z</time>
      </trkpt>
      <trkpt lat="43.74088" lon="6.89405">
        <ele>1113.4</ele>
        <time>2026-05-16T09:26:05Z</time>
      </trkpt>
      <trkpt lat="43.74088" lon="6.89376">
        <ele>1114.2</ele>
        <time>2026-05-16T09:26:06Z</time>
      </trkpt>
      <trkpt lat="43.74089" lon="6.89348">
        <ele>1114.7</ele>
        <time>2026-05-16T09:26:07Z</time>
      </trkpt>
      <trkpt lat="43.74089" lon="6.89321">
        <ele>1115.9</ele>
        <time>2026-05-16T09:26:08Z</time>
      </trkpt>
      <trkpt lat="43.74089" lon="6.89293">
        <ele>1117.5</ele>
        <time>2026-05-16T09:26:09Z</time>
      </trkpt>
      <trkpt lat="43.7409" lon="6.89266">
        <ele>1118.6</ele>
        <time>2026-05-16T09:26:10Z</time>
      </trkpt>
      <trkpt lat="43.74094" lon="6.8924">
        <ele>1119.7</ele>
        <time>2026-05-16T09:26:11Z</time>
      </trkpt>
      <trkpt lat="43.74099" lon="6.89213">
        <ele>1120.4</ele>
        <time>2026-05-16T09:26:12Z</time>
      </trkpt>
      <trkpt lat="43.74107" lon="6.89186">
        <ele>1120.5</ele>
        <time>2026-05-16T09:26:13Z</time>
      </trkpt>
      <trkpt lat="43.74116" lon="6.89158">
        <ele>1121.7</ele>
        <time>2026-05-16T09:26:14Z</time>
      </trkpt>
      <trkpt lat="43.74124" lon="6.89131">
        <ele>1123.4</ele>
        <time>2026-05-16T09:26:15Z</time>
      </trkpt>
      <trkpt lat="43.74133" lon="6.89105">
        <ele>1123.9</ele>
        <time>2026-05-16T09:26:16Z</time>
      </trkpt>
      <trkpt lat="43.74141" lon="6.8908">
        <ele>1125</ele>
        <time>2026-05-16T09:26:17Z</time>
      </trkpt>
      <trkpt lat="43.74148" lon="6.89055">
        <ele>1125.7</ele>
        <time>2026-05-16T09:26:18Z</time>
      </trkpt>
      <trkpt lat="43.74154" lon="6.8903">
        <ele>1126.7</ele>
        <time>2026-05-16T09:26:19Z</time>
      </trkpt>
      <trkpt lat="43.74159" lon="6.89006">
        <ele>1126.9</ele>
        <time>2026-05-16T09:26:20Z</time>
      </trkpt>
      <trkpt lat="43.74164" lon="6.88982">
        <ele>1127.1</ele>
        <time>2026-05-16T09:26:21Z</time>
      </trkpt>
      <trkpt lat="43.74169" lon="6.88958">
        <ele>1127.9</ele>
        <time>2026-05-16T09:26:22Z</time>
      </trkpt>
      <trkpt lat="43.74176" lon="6.88935">
        <ele>1128.9</ele>
        <time>2026-05-16T09:26:23Z</time>
      </trkpt>
      <trkpt lat="43.74184" lon="6.88912">
        <ele>1129.5</ele>
        <time>2026-05-16T09:26:24Z</time>
      </trkpt>
      <trkpt lat="43.74193" lon="6.8889">
        <ele>1130.1</ele>
        <time>2026-05-16T09:26:25Z</time>
      </trkpt>
      <trkpt lat="43.74202" lon="6.88867">
        <ele>1131.1</ele>
        <time>2026-05-16T09:26:26Z</time>
      </trkpt>
      <trkpt lat="43.74211" lon="6.88845">
        <ele>1131.9</ele>
        <time>2026-05-16T09:26:27Z</time>
      </trkpt>
      <trkpt lat="43.74219" lon="6.88823">
        <ele>1132.2</ele>
        <time>2026-05-16T09:26:28Z</time>
      </trkpt>
      <trkpt lat="43.74227" lon="6.88803">
        <ele>1132.8</ele>
        <time>2026-05-16T09:26:29Z</time>
      </trkpt>
      <trkpt lat="43.74235" lon="6.88783">
        <ele>1133.3</ele>
        <time>2026-05-16T09:26:30Z</time>
      </trkpt>
      <trkpt lat="43.74241" lon="6.88764">
        <ele>1134</ele>
        <time>2026-05-16T09:26:31Z</time>
      </trkpt>
      <trkpt lat="43.74245" lon="6.88745">
        <ele>1134.9</ele>
        <time>2026-05-16T09:26:32Z</time>
      </trkpt>
      <trkpt lat="43.74247" lon="6.88728">
        <ele>1135.9</ele>
        <time>2026-05-16T09:26:33Z</time>
      </trkpt>
      <trkpt lat="43.74248" lon="6.8871">
        <ele>1137.1</ele>
        <time>2026-05-16T09:26:34Z</time>
      </trkpt>
      <trkpt lat="43.74247" lon="6.88692">
        <ele>1138.3</ele>
        <time>2026-05-16T09:26:35Z</time>
      </trkpt>
      <trkpt lat="43.74245" lon="6.88674">
        <ele>1139.1</ele>
        <time>2026-05-16T09:26:36Z</time>
      </trkpt>
      <trkpt lat="43.74244" lon="6.88656">
        <ele>1139.8</ele>
        <time>2026-05-16T09:26:37Z</time>
      </trkpt>
      <trkpt lat="43.74244" lon="6.88638">
        <ele>1140.5</ele>
        <time>2026-05-16T09:26:38Z</time>
      </trkpt>
      <trkpt lat="43.74243" lon="6.8862">
        <ele>1141.7</ele>
        <time>2026-05-16T09:26:39Z</time>
      </trkpt>
      <trkpt lat="43.74244" lon="6.88603">
        <ele>1142.5</ele>
        <time>2026-05-16T09:26:40Z</time>
      </trkpt>
      <trkpt lat="43.74247" lon="6.88587">
        <ele>1143</ele>
        <time>2026-05-16T09:26:41Z</time>
      </trkpt>
      <trkpt lat="43.74249" lon="6.88575">
        <ele>1143.3</ele>
        <time>2026-05-16T09:26:42Z</time>
      </trkpt>
      <trkpt lat="43.74251" lon="6.88564">
        <ele>1143.7</ele>
        <time>2026-05-16T09:26:43Z</time>
      </trkpt>
      <trkpt lat="43.74253" lon="6.88555">
        <ele>1144.1</ele>
        <time>2026-05-16T09:26:44Z</time>
      </trkpt>
      <trkpt lat="43.74255" lon="6.88547">
        <ele>1144.2</ele>
        <time>2026-05-16T09:26:45Z</time>
      </trkpt>
      <trkpt lat="43.74258" lon="6.8854">
        <ele>1144.3</ele>
        <time>2026-05-16T09:26:46Z</time>
      </trkpt>
      <trkpt lat="43.74263" lon="6.88535">
        <ele>1144.5</ele>
        <time>2026-05-16T09:26:47Z</time>
      </trkpt>
      <trkpt lat="43.74269" lon="6.88532">
        <ele>1144.7</ele>
        <time>2026-05-16T09:26:48Z</time>
      </trkpt>
      <trkpt lat="43.74276" lon="6.8853">
        <ele>1144.9</ele>
        <time>2026-05-16T09:26:49Z</time>
      </trkpt>
      <trkpt lat="43.74282" lon="6.88527">
        <ele>1145.1</ele>
        <time>2026-05-16T09:26:50Z</time>
      </trkpt>
      <trkpt lat="43.74287" lon="6.88522">
        <ele>1145</ele>
        <time>2026-05-16T09:26:51Z</time>
      </trkpt>
      <trkpt lat="43.7429" lon="6.88513">
        <ele>1144.6</ele>
        <time>2026-05-16T09:26:52Z</time>
      </trkpt>
      <trkpt lat="43.74291" lon="6.88502">
        <ele>1144.1</ele>
        <time>2026-05-16T09:26:53Z</time>
      </trkpt>
      <trkpt lat="43.74293" lon="6.8849">
        <ele>1143.5</ele>
        <time>2026-05-16T09:26:54Z</time>
      </trkpt>
      <trkpt lat="43.74299" lon="6.88477">
        <ele>1143.1</ele>
        <time>2026-05-16T09:26:55Z</time>
      </trkpt>
      <trkpt lat="43.74305" lon="6.88465">
        <ele>1142.7</ele>
        <time>2026-05-16T09:26:56Z</time>
      </trkpt>
      <trkpt lat="43.74313" lon="6.88452">
        <ele>1142.7</ele>
        <time>2026-05-16T09:26:57Z</time>
      </trkpt>
      <trkpt lat="43.74321" lon="6.88438">
        <ele>1142.2</ele>
        <time>2026-05-16T09:26:58Z</time>
      </trkpt>
      <trkpt lat="43.74331" lon="6.88423">
        <ele>1141.4</ele>
        <time>2026-05-16T09:26:59Z</time>
      </trkpt>
      <trkpt lat="43.7434" lon="6.88408">
        <ele>1140.8</ele>
        <time>2026-05-16T09:27:00Z</time>
      </trkpt>
      <trkpt lat="43.7435" lon="6.88393">
        <ele>1140</ele>
        <time>2026-05-16T09:27:01Z</time>
      </trkpt>
      <trkpt lat="43.74362" lon="6.88377">
        <ele>1139.6</ele>
        <time>2026-05-16T09:27:02Z</time>
      </trkpt>
      <trkpt lat="43.74373" lon="6.88361">
        <ele>1139</ele>
        <time>2026-05-16T09:27:03Z</time>
      </trkpt>
      <trkpt lat="43.74384" lon="6.88343">
        <ele>1138.2</ele>
        <time>2026-05-16T09:27:04Z</time>
      </trkpt>
      <trkpt lat="43.74394" lon="6.88324">
        <ele>1137.7</ele>
        <time>2026-05-16T09:27:05Z</time>
      </trkpt>
      <trkpt lat="43.74404" lon="6.88305">
        <ele>1137</ele>
        <time>2026-05-16T09:27:06Z</time>
      </trkpt>
      <trkpt lat="43.74415" lon="6.88285">
        <ele>1137</ele>
        <time>2026-05-16T09:27:07Z</time>
      </trkpt>
      <trkpt lat="43.74425" lon="6.88264">
        <ele>1136.2</ele>
        <time>2026-05-16T09:27:08Z</time>
      </trkpt>
      <trkpt lat="43.74436" lon="6.88244">
        <ele>1135.4</ele>
        <time>2026-05-16T09:27:09Z</time>
      </trkpt>
      <trkpt lat="43.74447" lon="6.88225">
        <ele>1135.8</ele>
        <time>2026-05-16T09:27:10Z</time>
      </trkpt>
      <trkpt lat="43.74457" lon="6.88205">
        <ele>1135.8</ele>
        <time>2026-05-16T09:27:11Z</time>
      </trkpt>
      <trkpt lat="43.74467" lon="6.88185">
        <ele>1135.7</ele>
        <time>2026-05-16T09:27:12Z</time>
      </trkpt>
      <trkpt lat="43.74477" lon="6.88164">
        <ele>1134.8</ele>
        <time>2026-05-16T09:27:13Z</time>
      </trkpt>
      <trkpt lat="43.74487" lon="6.88143">
        <ele>1134.5</ele>
        <time>2026-05-16T09:27:14Z</time>
      </trkpt>
      <trkpt lat="43.74497" lon="6.88122">
        <ele>1134</ele>
        <time>2026-05-16T09:27:15Z</time>
      </trkpt>
      <trkpt lat="43.74505" lon="6.881">
        <ele>1133.8</ele>
        <time>2026-05-16T09:27:16Z</time>
      </trkpt>
      <trkpt lat="43.74514" lon="6.88079">
        <ele>1133.9</ele>
        <time>2026-05-16T09:27:17Z</time>
      </trkpt>
      <trkpt lat="43.74522" lon="6.88058">
        <ele>1133.8</ele>
        <time>2026-05-16T09:27:18Z</time>
      </trkpt>
      <trkpt lat="43.7453" lon="6.88037">
        <ele>1134.6</ele>
        <time>2026-05-16T09:27:19Z</time>
      </trkpt>
      <trkpt lat="43.74539" lon="6.88016">
        <ele>1134.7</ele>
        <time>2026-05-16T09:27:20Z</time>
      </trkpt>
      <trkpt lat="43.74547" lon="6.87994">
        <ele>1134.9</ele>
        <time>2026-05-16T09:27:21Z</time>
      </trkpt>
      <trkpt lat="43.74554" lon="6.87973">
        <ele>1134.9</ele>
        <time>2026-05-16T09:27:22Z</time>
      </trkpt>
      <trkpt lat="43.7456" lon="6.87953">
        <ele>1133.7</ele>
        <time>2026-05-16T09:27:23Z</time>
      </trkpt>
      <trkpt lat="43.74565" lon="6.87932">
        <ele>1132.8</ele>
        <time>2026-05-16T09:27:24Z</time>
      </trkpt>
      <trkpt lat="43.74569" lon="6.87912">
        <ele>1132.5</ele>
        <time>2026-05-16T09:27:25Z</time>
      </trkpt>
      <trkpt lat="43.74574" lon="6.87893">
        <ele>1132.3</ele>
        <time>2026-05-16T09:27:26Z</time>
      </trkpt>
      <trkpt lat="43.74578" lon="6.87874">
        <ele>1132.1</ele>
        <time>2026-05-16T09:27:27Z</time>
      </trkpt>
      <trkpt lat="43.74582" lon="6.87855">
        <ele>1132</ele>
        <time>2026-05-16T09:27:28Z</time>
      </trkpt>
      <trkpt lat="43.74586" lon="6.87836">
        <ele>1131.7</ele>
        <time>2026-05-16T09:27:29Z</time>
      </trkpt>
      <trkpt lat="43.7459" lon="6.87816">
        <ele>1130.8</ele>
        <time>2026-05-16T09:27:30Z</time>
      </trkpt>
      <trkpt lat="43.74594" lon="6.87797">
        <ele>1130.2</ele>
        <time>2026-05-16T09:27:31Z</time>
      </trkpt>
      <trkpt lat="43.74599" lon="6.87777">
        <ele>1129.9</ele>
        <time>2026-05-16T09:27:32Z</time>
      </trkpt>
      <trkpt lat="43.74604" lon="6.87758">
        <ele>1129.5</ele>
        <time>2026-05-16T09:27:33Z</time>
      </trkpt>
      <trkpt lat="43.7461" lon="6.87738">
        <ele>1129.5</ele>
        <time>2026-05-16T09:27:34Z</time>
      </trkpt>
      <trkpt lat="43.74616" lon="6.87719">
        <ele>1129.3</ele>
        <time>2026-05-16T09:27:35Z</time>
      </trkpt>
      <trkpt lat="43.74622" lon="6.877">
        <ele>1129.1</ele>
        <time>2026-05-16T09:27:36Z</time>
      </trkpt>
      <trkpt lat="43.74629" lon="6.87683">
        <ele>1128.8</ele>
        <time>2026-05-16T09:27:37Z</time>
      </trkpt>
      <trkpt lat="43.74635" lon="6.87666">
        <ele>1129</ele>
        <time>2026-05-16T09:27:38Z</time>
      </trkpt>
      <trkpt lat="43.74641" lon="6.8765">
        <ele>1128.8</ele>
        <time>2026-05-16T09:27:39Z</time>
      </trkpt>
      <trkpt lat="43.74646" lon="6.87634">
        <ele>1128.5</ele>
        <time>2026-05-16T09:27:40Z</time>
      </trkpt>
      <trkpt lat="43.74651" lon="6.87619">
        <ele>1128.4</ele>
        <time>2026-05-16T09:27:41Z</time>
      </trkpt>
      <trkpt lat="43.74656" lon="6.87603">
        <ele>1128.5</ele>
        <time>2026-05-16T09:27:42Z</time>
      </trkpt>
      <trkpt lat="43.7466" lon="6.87588">
        <ele>1128.7</ele>
        <time>2026-05-16T09:27:43Z</time>
      </trkpt>
      <trkpt lat="43.74664" lon="6.87573">
        <ele>1128.9</ele>
        <time>2026-05-16T09:27:44Z</time>
      </trkpt>
      <trkpt lat="43.74667" lon="6.87558">
        <ele>1129</ele>
        <time>2026-05-16T09:27:45Z</time>
      </trkpt>
      <trkpt lat="43.7467" lon="6.87543">
        <ele>1129.1</ele>
        <time>2026-05-16T09:27:46Z</time>
      </trkpt>
      <trkpt lat="43.74673" lon="6.87528">
        <ele>1129.2</ele>
        <time>2026-05-16T09:27:47Z</time>
      </trkpt>
      <trkpt lat="43.74677" lon="6.87513">
        <ele>1129.4</ele>
        <time>2026-05-16T09:27:48Z</time>
      </trkpt>
      <trkpt lat="43.74683" lon="6.87499">
        <ele>1129.6</ele>
        <time>2026-05-16T09:27:49Z</time>
      </trkpt>
      <trkpt lat="43.74689" lon="6.87486">
        <ele>1129.6</ele>
        <time>2026-05-16T09:27:50Z</time>
      </trkpt>
      <trkpt lat="43.74697" lon="6.87475">
        <ele>1129.9</ele>
        <time>2026-05-16T09:27:51Z</time>
      </trkpt>
      <trkpt lat="43.74704" lon="6.87463">
        <ele>1129.2</ele>
        <time>2026-05-16T09:27:52Z</time>
      </trkpt>
      <trkpt lat="43.74712" lon="6.87451">
        <ele>1128.8</ele>
        <time>2026-05-16T09:27:53Z</time>
      </trkpt>
      <trkpt lat="43.74721" lon="6.87439">
        <ele>1128.8</ele>
        <time>2026-05-16T09:27:54Z</time>
      </trkpt>
      <trkpt lat="43.7473" lon="6.87429">
        <ele>1128</ele>
        <time>2026-05-16T09:27:55Z</time>
      </trkpt>
      <trkpt lat="43.74741" lon="6.87422">
        <ele>1127.4</ele>
        <time>2026-05-16T09:27:56Z</time>
      </trkpt>
      <trkpt lat="43.74752" lon="6.87419">
        <ele>1126.8</ele>
        <time>2026-05-16T09:27:57Z</time>
      </trkpt>
      <trkpt lat="43.74762" lon="6.8742">
        <ele>1125.7</ele>
        <time>2026-05-16T09:27:58Z</time>
      </trkpt>
      <trkpt lat="43.74771" lon="6.87427">
        <ele>1124.7</ele>
        <time>2026-05-16T09:27:59Z</time>
      </trkpt>
      <trkpt lat="43.74779" lon="6.87437">
        <ele>1123.8</ele>
        <time>2026-05-16T09:28:00Z</time>
      </trkpt>
      <trkpt lat="43.74786" lon="6.8745">
        <ele>1122.6</ele>
        <time>2026-05-16T09:28:01Z</time>
      </trkpt>
      <trkpt lat="43.74792" lon="6.87465">
        <ele>1121.2</ele>
        <time>2026-05-16T09:28:02Z</time>
      </trkpt>
      <trkpt lat="43.74798" lon="6.8748">
        <ele>1120</ele>
        <time>2026-05-16T09:28:03Z</time>
      </trkpt>
      <trkpt lat="43.74803" lon="6.87494">
        <ele>1119.3</ele>
        <time>2026-05-16T09:28:04Z</time>
      </trkpt>
      <trkpt lat="43.74806" lon="6.87509">
        <ele>1118.9</ele>
        <time>2026-05-16T09:28:05Z</time>
      </trkpt>
      <trkpt lat="43.74807" lon="6.87523">
        <ele>1118.8</ele>
        <time>2026-05-16T09:28:06Z</time>
      </trkpt>
      <trkpt lat="43.74809" lon="6.87533">
        <ele>1118.5</ele>
        <time>2026-05-16T09:28:07Z</time>
      </trkpt>
      <trkpt lat="43.74814" lon="6.87541">
        <ele>1117.9</ele>
        <time>2026-05-16T09:28:08Z</time>
      </trkpt>
      <trkpt lat="43.7482" lon="6.87546">
        <ele>1117.5</ele>
        <time>2026-05-16T09:28:09Z</time>
      </trkpt>
      <trkpt lat="43.74827" lon="6.87545">
        <ele>1117</ele>
        <time>2026-05-16T09:28:10Z</time>
      </trkpt>
      <trkpt lat="43.74833" lon="6.8754">
        <ele>1116.5</ele>
        <time>2026-05-16T09:28:11Z</time>
      </trkpt>
      <trkpt lat="43.74837" lon="6.8753">
        <ele>1115.4</ele>
        <time>2026-05-16T09:28:12Z</time>
      </trkpt>
      <trkpt lat="43.74839" lon="6.87518">
        <ele>1114.6</ele>
        <time>2026-05-16T09:28:13Z</time>
      </trkpt>
      <trkpt lat="43.74838" lon="6.87504">
        <ele>1114.2</ele>
        <time>2026-05-16T09:28:14Z</time>
      </trkpt>
      <trkpt lat="43.74838" lon="6.8749">
        <ele>1113.7</ele>
        <time>2026-05-16T09:28:15Z</time>
      </trkpt>
      <trkpt lat="43.74839" lon="6.87475">
        <ele>1113.1</ele>
        <time>2026-05-16T09:28:16Z</time>
      </trkpt>
      <trkpt lat="43.74839" lon="6.8746">
        <ele>1113.4</ele>
        <time>2026-05-16T09:28:17Z</time>
      </trkpt>
      <trkpt lat="43.7484" lon="6.87444">
        <ele>1113.8</ele>
        <time>2026-05-16T09:28:18Z</time>
      </trkpt>
      <trkpt lat="43.74841" lon="6.87428">
        <ele>1113.8</ele>
        <time>2026-05-16T09:28:19Z</time>
      </trkpt>
      <trkpt lat="43.74841" lon="6.87413">
        <ele>1113.9</ele>
        <time>2026-05-16T09:28:20Z</time>
      </trkpt>
      <trkpt lat="43.74842" lon="6.87401">
        <ele>1113.8</ele>
        <time>2026-05-16T09:28:21Z</time>
      </trkpt>
      <trkpt lat="43.74845" lon="6.87392">
        <ele>1113.3</ele>
        <time>2026-05-16T09:28:22Z</time>
      </trkpt>
      <trkpt lat="43.74849" lon="6.87385">
        <ele>1112.7</ele>
        <time>2026-05-16T09:28:23Z</time>
      </trkpt>
      <trkpt lat="43.74856" lon="6.87381">
        <ele>1111.5</ele>
        <time>2026-05-16T09:28:24Z</time>
      </trkpt>
      <trkpt lat="43.74864" lon="6.87383">
        <ele>1110.2</ele>
        <time>2026-05-16T09:28:25Z</time>
      </trkpt>
      <trkpt lat="43.7487" lon="6.8739">
        <ele>1109.1</ele>
        <time>2026-05-16T09:28:26Z</time>
      </trkpt>
      <trkpt lat="43.74874" lon="6.87399">
        <ele>1108.4</ele>
        <time>2026-05-16T09:28:27Z</time>
      </trkpt>
      <trkpt lat="43.74874" lon="6.87414">
        <ele>1108.6</ele>
        <time>2026-05-16T09:28:28Z</time>
      </trkpt>
      <trkpt lat="43.74873" lon="6.87429">
        <ele>1108.6</ele>
        <time>2026-05-16T09:28:29Z</time>
      </trkpt>
      <trkpt lat="43.74872" lon="6.87443">
        <ele>1108.5</ele>
        <time>2026-05-16T09:28:30Z</time>
      </trkpt>
      <trkpt lat="43.74869" lon="6.87456">
        <ele>1108.2</ele>
        <time>2026-05-16T09:28:31Z</time>
      </trkpt>
      <trkpt lat="43.74868" lon="6.87467">
        <ele>1107.8</ele>
        <time>2026-05-16T09:28:32Z</time>
      </trkpt>
      <trkpt lat="43.7487" lon="6.87478">
        <ele>1107</ele>
        <time>2026-05-16T09:28:33Z</time>
      </trkpt>
      <trkpt lat="43.74875" lon="6.87486">
        <ele>1105.8</ele>
        <time>2026-05-16T09:28:34Z</time>
      </trkpt>
      <trkpt lat="43.74882" lon="6.8749">
        <ele>1104</ele>
        <time>2026-05-16T09:28:35Z</time>
      </trkpt>
      <trkpt lat="43.7489" lon="6.87489">
        <ele>1102</ele>
        <time>2026-05-16T09:28:36Z</time>
      </trkpt>
      <trkpt lat="43.74896" lon="6.87482">
        <ele>1100.3</ele>
        <time>2026-05-16T09:28:37Z</time>
      </trkpt>
      <trkpt lat="43.749" lon="6.8747">
        <ele>1099.6</ele>
        <time>2026-05-16T09:28:38Z</time>
      </trkpt>
      <trkpt lat="43.74902" lon="6.87455">
        <ele>1100.3</ele>
        <time>2026-05-16T09:28:39Z</time>
      </trkpt>
      <trkpt lat="43.74904" lon="6.87439">
        <ele>1100.8</ele>
        <time>2026-05-16T09:28:40Z</time>
      </trkpt>
      <trkpt lat="43.74906" lon="6.87422">
        <ele>1100.8</ele>
        <time>2026-05-16T09:28:41Z</time>
      </trkpt>
      <trkpt lat="43.7491" lon="6.87404">
        <ele>1099.8</ele>
        <time>2026-05-16T09:28:42Z</time>
      </trkpt>
      <trkpt lat="43.74914" lon="6.87386">
        <ele>1098.8</ele>
        <time>2026-05-16T09:28:43Z</time>
      </trkpt>
      <trkpt lat="43.74919" lon="6.87368">
        <ele>1098.1</ele>
        <time>2026-05-16T09:28:44Z</time>
      </trkpt>
      <trkpt lat="43.74925" lon="6.87351">
        <ele>1097.1</ele>
        <time>2026-05-16T09:28:45Z</time>
      </trkpt>
      <trkpt lat="43.74931" lon="6.87334">
        <ele>1096.4</ele>
        <time>2026-05-16T09:28:46Z</time>
      </trkpt>
      <trkpt lat="43.74938" lon="6.87317">
        <ele>1095.5</ele>
        <time>2026-05-16T09:28:47Z</time>
      </trkpt>
      <trkpt lat="43.74946" lon="6.87301">
        <ele>1094.7</ele>
        <time>2026-05-16T09:28:48Z</time>
      </trkpt>
      <trkpt lat="43.74953" lon="6.87283">
        <ele>1093.6</ele>
        <time>2026-05-16T09:28:49Z</time>
      </trkpt>
      <trkpt lat="43.74961" lon="6.87266">
        <ele>1092.3</ele>
        <time>2026-05-16T09:28:50Z</time>
      </trkpt>
      <trkpt lat="43.74968" lon="6.87249">
        <ele>1091.8</ele>
        <time>2026-05-16T09:28:51Z</time>
      </trkpt>
      <trkpt lat="43.74976" lon="6.87233">
        <ele>1090.7</ele>
        <time>2026-05-16T09:28:52Z</time>
      </trkpt>
      <trkpt lat="43.74982" lon="6.87216">
        <ele>1090.3</ele>
        <time>2026-05-16T09:28:53Z</time>
      </trkpt>
      <trkpt lat="43.74988" lon="6.87199">
        <ele>1090.4</ele>
        <time>2026-05-16T09:28:54Z</time>
      </trkpt>
      <trkpt lat="43.74994" lon="6.87182">
        <ele>1090.6</ele>
        <time>2026-05-16T09:28:55Z</time>
      </trkpt>
      <trkpt lat="43.74999" lon="6.87167">
        <ele>1091</ele>
        <time>2026-05-16T09:28:56Z</time>
      </trkpt>
      <trkpt lat="43.75003" lon="6.87156">
        <ele>1090.3</ele>
        <time>2026-05-16T09:28:57Z</time>
      </trkpt>
      <trkpt lat="43.75007" lon="6.87148">
        <ele>1089.6</ele>
        <time>2026-05-16T09:28:58Z</time>
      </trkpt>
      <trkpt lat="43.75014" lon="6.87143">
        <ele>1088.3</ele>
        <time>2026-05-16T09:28:59Z</time>
      </trkpt>
      <trkpt lat="43.7502" lon="6.87144">
        <ele>1087.1</ele>
        <time>2026-05-16T09:29:00Z</time>
      </trkpt>
      <trkpt lat="43.75026" lon="6.87151">
        <ele>1085.5</ele>
        <time>2026-05-16T09:29:01Z</time>
      </trkpt>
      <trkpt lat="43.75028" lon="6.8716">
        <ele>1084.4</ele>
        <time>2026-05-16T09:29:02Z</time>
      </trkpt>
      <trkpt lat="43.75026" lon="6.87171">
        <ele>1084.1</ele>
        <time>2026-05-16T09:29:03Z</time>
      </trkpt>
      <trkpt lat="43.75024" lon="6.87184">
        <ele>1083.7</ele>
        <time>2026-05-16T09:29:04Z</time>
      </trkpt>
      <trkpt lat="43.75021" lon="6.87199">
        <ele>1083.2</ele>
        <time>2026-05-16T09:29:05Z</time>
      </trkpt>
      <trkpt lat="43.75018" lon="6.87215">
        <ele>1082.2</ele>
        <time>2026-05-16T09:29:06Z</time>
      </trkpt>
      <trkpt lat="43.75015" lon="6.87232">
        <ele>1081.2</ele>
        <time>2026-05-16T09:29:07Z</time>
      </trkpt>
      <trkpt lat="43.75012" lon="6.87249">
        <ele>1080.1</ele>
        <time>2026-05-16T09:29:08Z</time>
      </trkpt>
      <trkpt lat="43.75009" lon="6.87265">
        <ele>1079.7</ele>
        <time>2026-05-16T09:29:09Z</time>
      </trkpt>
      <trkpt lat="43.75004" lon="6.8728">
        <ele>1079.8</ele>
        <time>2026-05-16T09:29:10Z</time>
      </trkpt>
      <trkpt lat="43.74999" lon="6.87294">
        <ele>1079.6</ele>
        <time>2026-05-16T09:29:11Z</time>
      </trkpt>
      <trkpt lat="43.74994" lon="6.87308">
        <ele>1079.8</ele>
        <time>2026-05-16T09:29:12Z</time>
      </trkpt>
      <trkpt lat="43.7499" lon="6.87318">
        <ele>1080.3</ele>
        <time>2026-05-16T09:29:13Z</time>
      </trkpt>
      <trkpt lat="43.7499" lon="6.87329">
        <ele>1079.6</ele>
        <time>2026-05-16T09:29:14Z</time>
      </trkpt>
      <trkpt lat="43.74993" lon="6.87338">
        <ele>1078.3</ele>
        <time>2026-05-16T09:29:15Z</time>
      </trkpt>
      <trkpt lat="43.74998" lon="6.87345">
        <ele>1076.9</ele>
        <time>2026-05-16T09:29:16Z</time>
      </trkpt>
      <trkpt lat="43.75004" lon="6.87347">
        <ele>1075.9</ele>
        <time>2026-05-16T09:29:17Z</time>
      </trkpt>
      <trkpt lat="43.75011" lon="6.87345">
        <ele>1074.7</ele>
        <time>2026-05-16T09:29:18Z</time>
      </trkpt>
      <trkpt lat="43.75017" lon="6.87338">
        <ele>1072.9</ele>
        <time>2026-05-16T09:29:19Z</time>
      </trkpt>
      <trkpt lat="43.75021" lon="6.87328">
        <ele>1071.7</ele>
        <time>2026-05-16T09:29:20Z</time>
      </trkpt>
      <trkpt lat="43.75025" lon="6.87318">
        <ele>1071.2</ele>
        <time>2026-05-16T09:29:21Z</time>
      </trkpt>
      <trkpt lat="43.75029" lon="6.87308">
        <ele>1070.9</ele>
        <time>2026-05-16T09:29:22Z</time>
      </trkpt>
      <trkpt lat="43.75033" lon="6.87298">
        <ele>1071.2</ele>
        <time>2026-05-16T09:29:23Z</time>
      </trkpt>
      <trkpt lat="43.75037" lon="6.87288">
        <ele>1071.4</ele>
        <time>2026-05-16T09:29:24Z</time>
      </trkpt>
      <trkpt lat="43.7504" lon="6.8728">
        <ele>1071.3</ele>
        <time>2026-05-16T09:29:25Z</time>
      </trkpt>
      <trkpt lat="43.75044" lon="6.87274">
        <ele>1070.6</ele>
        <time>2026-05-16T09:29:26Z</time>
      </trkpt>
      <trkpt lat="43.75048" lon="6.87267">
        <ele>1069.8</ele>
        <time>2026-05-16T09:29:27Z</time>
      </trkpt>
      <trkpt lat="43.75053" lon="6.87263">
        <ele>1068.6</ele>
        <time>2026-05-16T09:29:28Z</time>
      </trkpt>
      <trkpt lat="43.7506" lon="6.87261">
        <ele>1068.5</ele>
        <time>2026-05-16T09:29:29Z</time>
      </trkpt>
      <trkpt lat="43.75069" lon="6.87261">
        <ele>1069.6</ele>
        <time>2026-05-16T09:29:30Z</time>
      </trkpt>
      <trkpt lat="43.75077" lon="6.87263">
        <ele>1070.9</ele>
        <time>2026-05-16T09:29:31Z</time>
      </trkpt>
      <trkpt lat="43.75086" lon="6.8726">
        <ele>1072.4</ele>
        <time>2026-05-16T09:29:32Z</time>
      </trkpt>
      <trkpt lat="43.75094" lon="6.87252">
        <ele>1074.4</ele>
        <time>2026-05-16T09:29:33Z</time>
      </trkpt>
      <trkpt lat="43.751" lon="6.87238">
        <ele>1074.6</ele>
        <time>2026-05-16T09:29:34Z</time>
      </trkpt>
      <trkpt lat="43.75106" lon="6.87225">
        <ele>1074.5</ele>
        <time>2026-05-16T09:29:35Z</time>
      </trkpt>
      <trkpt lat="43.75112" lon="6.87211">
        <ele>1073.2</ele>
        <time>2026-05-16T09:29:36Z</time>
      </trkpt>
      <trkpt lat="43.7512" lon="6.87197">
        <ele>1073.2</ele>
        <time>2026-05-16T09:29:37Z</time>
      </trkpt>
      <trkpt lat="43.7513" lon="6.87182">
        <ele>1074.5</ele>
        <time>2026-05-16T09:29:38Z</time>
      </trkpt>
      <trkpt lat="43.75139" lon="6.87167">
        <ele>1075.1</ele>
        <time>2026-05-16T09:29:39Z</time>
      </trkpt>
      <trkpt lat="43.75148" lon="6.87153">
        <ele>1075.2</ele>
        <time>2026-05-16T09:29:40Z</time>
      </trkpt>
      <trkpt lat="43.75157" lon="6.8714">
        <ele>1075.8</ele>
        <time>2026-05-16T09:29:41Z</time>
      </trkpt>
      <trkpt lat="43.75163" lon="6.87127">
        <ele>1075.6</ele>
        <time>2026-05-16T09:29:42Z</time>
      </trkpt>
      <trkpt lat="43.7517" lon="6.87114">
        <ele>1076</ele>
        <time>2026-05-16T09:29:43Z</time>
      </trkpt>
      <trkpt lat="43.75175" lon="6.87102">
        <ele>1075.8</ele>
        <time>2026-05-16T09:29:44Z</time>
      </trkpt>
      <trkpt lat="43.7518" lon="6.87091">
        <ele>1076.1</ele>
        <time>2026-05-16T09:29:45Z</time>
      </trkpt>
      <trkpt lat="43.75185" lon="6.8708">
        <ele>1076.6</ele>
        <time>2026-05-16T09:29:46Z</time>
      </trkpt>
      <trkpt lat="43.75189" lon="6.87071">
        <ele>1077</ele>
        <time>2026-05-16T09:29:47Z</time>
      </trkpt>
      <trkpt lat="43.75193" lon="6.87063">
        <ele>1078.2</ele>
        <time>2026-05-16T09:29:48Z</time>
      </trkpt>
      <trkpt lat="43.75197" lon="6.87057">
        <ele>1078.7</ele>
        <time>2026-05-16T09:29:49Z</time>
      </trkpt>
      <trkpt lat="43.752" lon="6.87052">
        <ele>1078.2</ele>
        <time>2026-05-16T09:29:50Z</time>
      </trkpt>
      <trkpt lat="43.75206" lon="6.87047">
        <ele>1078.3</ele>
        <time>2026-05-16T09:29:51Z</time>
      </trkpt>
      <trkpt lat="43.75213" lon="6.87042">
        <ele>1078.9</ele>
        <time>2026-05-16T09:29:52Z</time>
      </trkpt>
      <trkpt lat="43.75221" lon="6.87039">
        <ele>1080.3</ele>
        <time>2026-05-16T09:29:53Z</time>
      </trkpt>
      <trkpt lat="43.75232" lon="6.87036">
        <ele>1080.6</ele>
        <time>2026-05-16T09:29:54Z</time>
      </trkpt>
      <trkpt lat="43.75243" lon="6.87033">
        <ele>1080.6</ele>
        <time>2026-05-16T09:29:55Z</time>
      </trkpt>
      <trkpt lat="43.75255" lon="6.87029">
        <ele>1080.8</ele>
        <time>2026-05-16T09:29:56Z</time>
      </trkpt>
      <trkpt lat="43.75267" lon="6.87025">
        <ele>1081.4</ele>
        <time>2026-05-16T09:29:57Z</time>
      </trkpt>
      <trkpt lat="43.7528" lon="6.87021">
        <ele>1082</ele>
        <time>2026-05-16T09:29:58Z</time>
      </trkpt>
      <trkpt lat="43.75293" lon="6.87016">
        <ele>1082.5</ele>
        <time>2026-05-16T09:29:59Z</time>
      </trkpt>
      <trkpt lat="43.75306" lon="6.87011">
        <ele>1083</ele>
        <time>2026-05-16T09:30:00Z</time>
      </trkpt>
      <trkpt lat="43.75318" lon="6.87008">
        <ele>1083.3</ele>
        <time>2026-05-16T09:30:01Z</time>
      </trkpt>
      <trkpt lat="43.75331" lon="6.87007">
        <ele>1084.1</ele>
        <time>2026-05-16T09:30:02Z</time>
      </trkpt>
      <trkpt lat="43.75343" lon="6.87007">
        <ele>1084.3</ele>
        <time>2026-05-16T09:30:03Z</time>
      </trkpt>
      <trkpt lat="43.75355" lon="6.87008">
        <ele>1084.7</ele>
        <time>2026-05-16T09:30:04Z</time>
      </trkpt>
      <trkpt lat="43.75367" lon="6.87008">
        <ele>1085.4</ele>
        <time>2026-05-16T09:30:05Z</time>
      </trkpt>
      <trkpt lat="43.75379" lon="6.87005">
        <ele>1086.1</ele>
        <time>2026-05-16T09:30:06Z</time>
      </trkpt>
      <trkpt lat="43.75391" lon="6.87">
        <ele>1086.5</ele>
        <time>2026-05-16T09:30:07Z</time>
      </trkpt>
      <trkpt lat="43.75403" lon="6.86991">
        <ele>1087.4</ele>
        <time>2026-05-16T09:30:08Z</time>
      </trkpt>
      <trkpt lat="43.75415" lon="6.86982">
        <ele>1088.1</ele>
        <time>2026-05-16T09:30:09Z</time>
      </trkpt>
      <trkpt lat="43.75426" lon="6.86971">
        <ele>1088.5</ele>
        <time>2026-05-16T09:30:10Z</time>
      </trkpt>
      <trkpt lat="43.75437" lon="6.86959">
        <ele>1089.5</ele>
        <time>2026-05-16T09:30:11Z</time>
      </trkpt>
      <trkpt lat="43.75448" lon="6.86946">
        <ele>1090.3</ele>
        <time>2026-05-16T09:30:12Z</time>
      </trkpt>
      <trkpt lat="43.75459" lon="6.86932">
        <ele>1090.7</ele>
        <time>2026-05-16T09:30:13Z</time>
      </trkpt>
      <trkpt lat="43.7547" lon="6.86918">
        <ele>1090.7</ele>
        <time>2026-05-16T09:30:14Z</time>
      </trkpt>
      <trkpt lat="43.7548" lon="6.86904">
        <ele>1091.1</ele>
        <time>2026-05-16T09:30:15Z</time>
      </trkpt>
      <trkpt lat="43.75489" lon="6.86892">
        <ele>1091.5</ele>
        <time>2026-05-16T09:30:16Z</time>
      </trkpt>
      <trkpt lat="43.75498" lon="6.8688">
        <ele>1091.9</ele>
        <time>2026-05-16T09:30:17Z</time>
      </trkpt>
      <trkpt lat="43.75504" lon="6.86869">
        <ele>1092</ele>
        <time>2026-05-16T09:30:18Z</time>
      </trkpt>
      <trkpt lat="43.75509" lon="6.86858">
        <ele>1092.3</ele>
        <time>2026-05-16T09:30:19Z</time>
      </trkpt>
      <trkpt lat="43.75512" lon="6.86847">
        <ele>1092.3</ele>
        <time>2026-05-16T09:30:20Z</time>
      </trkpt>
      <trkpt lat="43.75515" lon="6.86836">
        <ele>1092.2</ele>
        <time>2026-05-16T09:30:21Z</time>
      </trkpt>
      <trkpt lat="43.75519" lon="6.86824">
        <ele>1092.5</ele>
        <time>2026-05-16T09:30:22Z</time>
      </trkpt>
      <trkpt lat="43.75523" lon="6.86812">
        <ele>1092.9</ele>
        <time>2026-05-16T09:30:23Z</time>
      </trkpt>
      <trkpt lat="43.75528" lon="6.86798">
        <ele>1093.5</ele>
        <time>2026-05-16T09:30:24Z</time>
      </trkpt>
      <trkpt lat="43.75533" lon="6.86784">
        <ele>1093.8</ele>
        <time>2026-05-16T09:30:25Z</time>
      </trkpt>
      <trkpt lat="43.7554" lon="6.8677">
        <ele>1094.4</ele>
        <time>2026-05-16T09:30:26Z</time>
      </trkpt>
      <trkpt lat="43.7555" lon="6.86757">
        <ele>1095.5</ele>
        <time>2026-05-16T09:30:27Z</time>
      </trkpt>
      <trkpt lat="43.75562" lon="6.86746">
        <ele>1096.2</ele>
        <time>2026-05-16T09:30:28Z</time>
      </trkpt>
      <trkpt lat="43.75575" lon="6.86737">
        <ele>1096.5</ele>
        <time>2026-05-16T09:30:29Z</time>
      </trkpt>
      <trkpt lat="43.75587" lon="6.86727">
        <ele>1096.5</ele>
        <time>2026-05-16T09:30:30Z</time>
      </trkpt>
      <trkpt lat="43.756" lon="6.86718">
        <ele>1097.1</ele>
        <time>2026-05-16T09:30:31Z</time>
      </trkpt>
      <trkpt lat="43.75614" lon="6.86707">
        <ele>1097.4</ele>
        <time>2026-05-16T09:30:32Z</time>
      </trkpt>
      <trkpt lat="43.75627" lon="6.86694">
        <ele>1097.9</ele>
        <time>2026-05-16T09:30:33Z</time>
      </trkpt>
      <trkpt lat="43.7564" lon="6.86679">
        <ele>1098</ele>
        <time>2026-05-16T09:30:34Z</time>
      </trkpt>
      <trkpt lat="43.75652" lon="6.86661">
        <ele>1098.1</ele>
        <time>2026-05-16T09:30:35Z</time>
      </trkpt>
      <trkpt lat="43.75665" lon="6.86642">
        <ele>1098.2</ele>
        <time>2026-05-16T09:30:36Z</time>
      </trkpt>
      <trkpt lat="43.75677" lon="6.86623">
        <ele>1098.6</ele>
        <time>2026-05-16T09:30:37Z</time>
      </trkpt>
      <trkpt lat="43.7569" lon="6.86605">
        <ele>1099.7</ele>
        <time>2026-05-16T09:30:38Z</time>
      </trkpt>
      <trkpt lat="43.75702" lon="6.86586">
        <ele>1100.6</ele>
        <time>2026-05-16T09:30:39Z</time>
      </trkpt>
      <trkpt lat="43.75712" lon="6.86566">
        <ele>1100.3</ele>
        <time>2026-05-16T09:30:40Z</time>
      </trkpt>
      <trkpt lat="43.75721" lon="6.86544">
        <ele>1100.4</ele>
        <time>2026-05-16T09:30:41Z</time>
      </trkpt>
      <trkpt lat="43.75729" lon="6.86522">
        <ele>1100.6</ele>
        <time>2026-05-16T09:30:42Z</time>
      </trkpt>
      <trkpt lat="43.75738" lon="6.86502">
        <ele>1101</ele>
        <time>2026-05-16T09:30:43Z</time>
      </trkpt>
      <trkpt lat="43.75749" lon="6.86484">
        <ele>1101.8</ele>
        <time>2026-05-16T09:30:44Z</time>
      </trkpt>
      <trkpt lat="43.75762" lon="6.86467">
        <ele>1102.3</ele>
        <time>2026-05-16T09:30:45Z</time>
      </trkpt>
      <trkpt lat="43.75776" lon="6.86452">
        <ele>1103.1</ele>
        <time>2026-05-16T09:30:46Z</time>
      </trkpt>
      <trkpt lat="43.75792" lon="6.86439">
        <ele>1104.6</ele>
        <time>2026-05-16T09:30:47Z</time>
      </trkpt>
      <trkpt lat="43.75807" lon="6.86425">
        <ele>1105.5</ele>
        <time>2026-05-16T09:30:48Z</time>
      </trkpt>
      <trkpt lat="43.75822" lon="6.8641">
        <ele>1106.3</ele>
        <time>2026-05-16T09:30:49Z</time>
      </trkpt>
      <trkpt lat="43.75837" lon="6.86394">
        <ele>1107.2</ele>
        <time>2026-05-16T09:30:50Z</time>
      </trkpt>
      <trkpt lat="43.7585" lon="6.86378">
        <ele>1107.4</ele>
        <time>2026-05-16T09:30:51Z</time>
      </trkpt>
      <trkpt lat="43.75863" lon="6.86362">
        <ele>1107.8</ele>
        <time>2026-05-16T09:30:52Z</time>
      </trkpt>
      <trkpt lat="43.75874" lon="6.86346">
        <ele>1107.6</ele>
        <time>2026-05-16T09:30:53Z</time>
      </trkpt>
      <trkpt lat="43.75885" lon="6.8633">
        <ele>1108</ele>
        <time>2026-05-16T09:30:54Z</time>
      </trkpt>
      <trkpt lat="43.75893" lon="6.86312">
        <ele>1107.9</ele>
        <time>2026-05-16T09:30:55Z</time>
      </trkpt>
      <trkpt lat="43.759" lon="6.86293">
        <ele>1108.4</ele>
        <time>2026-05-16T09:30:56Z</time>
      </trkpt>
      <trkpt lat="43.75905" lon="6.86273">
        <ele>1108.5</ele>
        <time>2026-05-16T09:30:57Z</time>
      </trkpt>
      <trkpt lat="43.75909" lon="6.86253">
        <ele>1108.3</ele>
        <time>2026-05-16T09:30:58Z</time>
      </trkpt>
      <trkpt lat="43.75913" lon="6.86232">
        <ele>1107.7</ele>
        <time>2026-05-16T09:30:59Z</time>
      </trkpt>
      <trkpt lat="43.75918" lon="6.86211">
        <ele>1107.2</ele>
        <time>2026-05-16T09:31:00Z</time>
      </trkpt>
      <trkpt lat="43.75924" lon="6.8619">
        <ele>1106.2</ele>
        <time>2026-05-16T09:31:01Z</time>
      </trkpt>
      <trkpt lat="43.75931" lon="6.86171">
        <ele>1106</ele>
        <time>2026-05-16T09:31:02Z</time>
      </trkpt>
      <trkpt lat="43.75938" lon="6.86153">
        <ele>1106.3</ele>
        <time>2026-05-16T09:31:03Z</time>
      </trkpt>
      <trkpt lat="43.75944" lon="6.86137">
        <ele>1106.9</ele>
        <time>2026-05-16T09:31:04Z</time>
      </trkpt>
      <trkpt lat="43.75949" lon="6.8612">
        <ele>1106.8</ele>
        <time>2026-05-16T09:31:05Z</time>
      </trkpt>
      <trkpt lat="43.75952" lon="6.86103">
        <ele>1106.6</ele>
        <time>2026-05-16T09:31:06Z</time>
      </trkpt>
      <trkpt lat="43.75954" lon="6.86086">
        <ele>1106.6</ele>
        <time>2026-05-16T09:31:07Z</time>
      </trkpt>
      <trkpt lat="43.75955" lon="6.86069">
        <ele>1106.8</ele>
        <time>2026-05-16T09:31:08Z</time>
      </trkpt>
      <trkpt lat="43.75955" lon="6.86051">
        <ele>1107.1</ele>
        <time>2026-05-16T09:31:09Z</time>
      </trkpt>
      <trkpt lat="43.75956" lon="6.86033">
        <ele>1106.9</ele>
        <time>2026-05-16T09:31:10Z</time>
      </trkpt>
      <trkpt lat="43.7596" lon="6.86016">
        <ele>1107.8</ele>
        <time>2026-05-16T09:31:11Z</time>
      </trkpt>
      <trkpt lat="43.75965" lon="6.85999">
        <ele>1109</ele>
        <time>2026-05-16T09:31:12Z</time>
      </trkpt>
      <trkpt lat="43.75973" lon="6.85983">
        <ele>1110.6</ele>
        <time>2026-05-16T09:31:13Z</time>
      </trkpt>
      <trkpt lat="43.75982" lon="6.85969">
        <ele>1112.2</ele>
        <time>2026-05-16T09:31:14Z</time>
      </trkpt>
      <trkpt lat="43.75994" lon="6.85959">
        <ele>1112.3</ele>
        <time>2026-05-16T09:31:15Z</time>
      </trkpt>
      <trkpt lat="43.76008" lon="6.85954">
        <ele>1111.8</ele>
        <time>2026-05-16T09:31:16Z</time>
      </trkpt>
      <trkpt lat="43.76022" lon="6.85953">
        <ele>1111.1</ele>
        <time>2026-05-16T09:31:17Z</time>
      </trkpt>
      <trkpt lat="43.76036" lon="6.85959">
        <ele>1110.3</ele>
        <time>2026-05-16T09:31:18Z</time>
      </trkpt>
      <trkpt lat="43.76048" lon="6.85967">
        <ele>1109.6</ele>
        <time>2026-05-16T09:31:19Z</time>
      </trkpt>
      <trkpt lat="43.76059" lon="6.85978">
        <ele>1108.7</ele>
        <time>2026-05-16T09:31:20Z</time>
      </trkpt>
      <trkpt lat="43.7607" lon="6.85987">
        <ele>1108.7</ele>
        <time>2026-05-16T09:31:21Z</time>
      </trkpt>
      <trkpt lat="43.76081" lon="6.85994">
        <ele>1108.7</ele>
        <time>2026-05-16T09:31:22Z</time>
      </trkpt>
      <trkpt lat="43.76093" lon="6.85995">
        <ele>1108.6</ele>
        <time>2026-05-16T09:31:23Z</time>
      </trkpt>
      <trkpt lat="43.76103" lon="6.85992">
        <ele>1108.7</ele>
        <time>2026-05-16T09:31:24Z</time>
      </trkpt>
      <trkpt lat="43.76112" lon="6.85984">
        <ele>1109</ele>
        <time>2026-05-16T09:31:25Z</time>
      </trkpt>
      <trkpt lat="43.76119" lon="6.85971">
        <ele>1108.4</ele>
        <time>2026-05-16T09:31:26Z</time>
      </trkpt>
      <trkpt lat="43.76125" lon="6.85956">
        <ele>1108.2</ele>
        <time>2026-05-16T09:31:27Z</time>
      </trkpt>
      <trkpt lat="43.76131" lon="6.8594">
        <ele>1108</ele>
        <time>2026-05-16T09:31:28Z</time>
      </trkpt>
      <trkpt lat="43.76138" lon="6.85923">
        <ele>1107.7</ele>
        <time>2026-05-16T09:31:29Z</time>
      </trkpt>
      <trkpt lat="43.76145" lon="6.85904">
        <ele>1107.4</ele>
        <time>2026-05-16T09:31:30Z</time>
      </trkpt>
      <trkpt lat="43.76151" lon="6.85886">
        <ele>1108.2</ele>
        <time>2026-05-16T09:31:31Z</time>
      </trkpt>
      <trkpt lat="43.76158" lon="6.85868">
        <ele>1110.7</ele>
        <time>2026-05-16T09:31:32Z</time>
      </trkpt>
      <trkpt lat="43.76167" lon="6.85852">
        <ele>1112.9</ele>
        <time>2026-05-16T09:31:33Z</time>
      </trkpt>
      <trkpt lat="43.76177" lon="6.85839">
        <ele>1113.8</ele>
        <time>2026-05-16T09:31:34Z</time>
      </trkpt>
      <trkpt lat="43.76189" lon="6.85831">
        <ele>1113.6</ele>
        <time>2026-05-16T09:31:35Z</time>
      </trkpt>
      <trkpt lat="43.76204" lon="6.85828">
        <ele>1112.3</ele>
        <time>2026-05-16T09:31:36Z</time>
      </trkpt>
      <trkpt lat="43.76219" lon="6.85825">
        <ele>1111.4</ele>
        <time>2026-05-16T09:31:37Z</time>
      </trkpt>
      <trkpt lat="43.76233" lon="6.85821">
        <ele>1110.9</ele>
        <time>2026-05-16T09:31:38Z</time>
      </trkpt>
      <trkpt lat="43.76248" lon="6.85817">
        <ele>1110.2</ele>
        <time>2026-05-16T09:31:39Z</time>
      </trkpt>
      <trkpt lat="43.76261" lon="6.8581">
        <ele>1109.4</ele>
        <time>2026-05-16T09:31:40Z</time>
      </trkpt>
      <trkpt lat="43.76272" lon="6.85799">
        <ele>1109.9</ele>
        <time>2026-05-16T09:31:41Z</time>
      </trkpt>
      <trkpt lat="43.76282" lon="6.85786">
        <ele>1110.6</ele>
        <time>2026-05-16T09:31:42Z</time>
      </trkpt>
      <trkpt lat="43.7629" lon="6.8577">
        <ele>1111.7</ele>
        <time>2026-05-16T09:31:43Z</time>
      </trkpt>
      <trkpt lat="43.76299" lon="6.85752">
        <ele>1112.3</ele>
        <time>2026-05-16T09:31:44Z</time>
      </trkpt>
      <trkpt lat="43.76309" lon="6.85735">
        <ele>1112.5</ele>
        <time>2026-05-16T09:31:45Z</time>
      </trkpt>
      <trkpt lat="43.76318" lon="6.85717">
        <ele>1113.3</ele>
        <time>2026-05-16T09:31:46Z</time>
      </trkpt>
      <trkpt lat="43.76328" lon="6.857">
        <ele>1113.6</ele>
        <time>2026-05-16T09:31:47Z</time>
      </trkpt>
      <trkpt lat="43.76338" lon="6.85684">
        <ele>1114.1</ele>
        <time>2026-05-16T09:31:48Z</time>
      </trkpt>
      <trkpt lat="43.76348" lon="6.85668">
        <ele>1114.9</ele>
        <time>2026-05-16T09:31:49Z</time>
      </trkpt>
      <trkpt lat="43.76357" lon="6.85653">
        <ele>1115.8</ele>
        <time>2026-05-16T09:31:50Z</time>
      </trkpt>
      <trkpt lat="43.76368" lon="6.85638">
        <ele>1116.5</ele>
        <time>2026-05-16T09:31:51Z</time>
      </trkpt>
      <trkpt lat="43.7638" lon="6.85626">
        <ele>1116</ele>
        <time>2026-05-16T09:31:52Z</time>
      </trkpt>
      <trkpt lat="43.76392" lon="6.85615">
        <ele>1115.6</ele>
        <time>2026-05-16T09:31:53Z</time>
      </trkpt>
      <trkpt lat="43.76406" lon="6.85607">
        <ele>1114.8</ele>
        <time>2026-05-16T09:31:54Z</time>
      </trkpt>
      <trkpt lat="43.7642" lon="6.85601">
        <ele>1113.7</ele>
        <time>2026-05-16T09:31:55Z</time>
      </trkpt>
      <trkpt lat="43.76434" lon="6.85594">
        <ele>1113.2</ele>
        <time>2026-05-16T09:31:56Z</time>
      </trkpt>
      <trkpt lat="43.76446" lon="6.85585">
        <ele>1113.5</ele>
        <time>2026-05-16T09:31:57Z</time>
      </trkpt>
      <trkpt lat="43.76459" lon="6.8558">
        <ele>1113.8</ele>
        <time>2026-05-16T09:31:58Z</time>
      </trkpt>
      <trkpt lat="43.76474" lon="6.85576">
        <ele>1113.8</ele>
        <time>2026-05-16T09:31:59Z</time>
      </trkpt>
      <trkpt lat="43.76488" lon="6.85574">
        <ele>1113.8</ele>
        <time>2026-05-16T09:32:00Z</time>
      </trkpt>
      <trkpt lat="43.76504" lon="6.85575">
        <ele>1113.3</ele>
        <time>2026-05-16T09:32:01Z</time>
      </trkpt>
      <trkpt lat="43.76519" lon="6.85576">
        <ele>1113.7</ele>
        <time>2026-05-16T09:32:02Z</time>
      </trkpt>
      <trkpt lat="43.76535" lon="6.8558">
        <ele>1113.5</ele>
        <time>2026-05-16T09:32:03Z</time>
      </trkpt>
      <trkpt lat="43.76552" lon="6.85584">
        <ele>1113.6</ele>
        <time>2026-05-16T09:32:04Z</time>
      </trkpt>
      <trkpt lat="43.76568" lon="6.85588">
        <ele>1114.2</ele>
        <time>2026-05-16T09:32:05Z</time>
      </trkpt>
      <trkpt lat="43.76582" lon="6.85595">
        <ele>1113.9</ele>
        <time>2026-05-16T09:32:06Z</time>
      </trkpt>
      <trkpt lat="43.76597" lon="6.85602">
        <ele>1114.1</ele>
        <time>2026-05-16T09:32:07Z</time>
      </trkpt>
      <trkpt lat="43.7661" lon="6.8561">
        <ele>1113.2</ele>
        <time>2026-05-16T09:32:08Z</time>
      </trkpt>
      <trkpt lat="43.76624" lon="6.85618">
        <ele>1113.5</ele>
        <time>2026-05-16T09:32:09Z</time>
      </trkpt>
      <trkpt lat="43.76637" lon="6.85625">
        <ele>1113.7</ele>
        <time>2026-05-16T09:32:10Z</time>
      </trkpt>
      <trkpt lat="43.76651" lon="6.85633">
        <ele>1113.5</ele>
        <time>2026-05-16T09:32:11Z</time>
      </trkpt>
      <trkpt lat="43.76665" lon="6.85641">
        <ele>1113.2</ele>
        <time>2026-05-16T09:32:12Z</time>
      </trkpt>
      <trkpt lat="43.76679" lon="6.85648">
        <ele>1113.5</ele>
        <time>2026-05-16T09:32:13Z</time>
      </trkpt>
      <trkpt lat="43.76694" lon="6.85656">
        <ele>1113.4</ele>
        <time>2026-05-16T09:32:14Z</time>
      </trkpt>
      <trkpt lat="43.76709" lon="6.85663">
        <ele>1113.3</ele>
        <time>2026-05-16T09:32:15Z</time>
      </trkpt>
      <trkpt lat="43.76724" lon="6.85669">
        <ele>1113.3</ele>
        <time>2026-05-16T09:32:16Z</time>
      </trkpt>
      <trkpt lat="43.76739" lon="6.85673">
        <ele>1112.6</ele>
        <time>2026-05-16T09:32:17Z</time>
      </trkpt>
      <trkpt lat="43.76753" lon="6.85673">
        <ele>1112.9</ele>
        <time>2026-05-16T09:32:18Z</time>
      </trkpt>
      <trkpt lat="43.76769" lon="6.85672">
        <ele>1112.7</ele>
        <time>2026-05-16T09:32:19Z</time>
      </trkpt>
      <trkpt lat="43.76784" lon="6.85668">
        <ele>1113.2</ele>
        <time>2026-05-16T09:32:20Z</time>
      </trkpt>
      <trkpt lat="43.76799" lon="6.85664">
        <ele>1113.5</ele>
        <time>2026-05-16T09:32:21Z</time>
      </trkpt>
      <trkpt lat="43.76814" lon="6.85659">
        <ele>1114.1</ele>
        <time>2026-05-16T09:32:22Z</time>
      </trkpt>
      <trkpt lat="43.76828" lon="6.85655">
        <ele>1114.2</ele>
        <time>2026-05-16T09:32:23Z</time>
      </trkpt>
      <trkpt lat="43.76842" lon="6.85651">
        <ele>1114.6</ele>
        <time>2026-05-16T09:32:24Z</time>
      </trkpt>
      <trkpt lat="43.76857" lon="6.85646">
        <ele>1115.2</ele>
        <time>2026-05-16T09:32:25Z</time>
      </trkpt>
      <trkpt lat="43.76872" lon="6.85641">
        <ele>1115.2</ele>
        <time>2026-05-16T09:32:26Z</time>
      </trkpt>
      <trkpt lat="43.76888" lon="6.85636">
        <ele>1114.9</ele>
        <time>2026-05-16T09:32:27Z</time>
      </trkpt>
      <trkpt lat="43.76905" lon="6.8563">
        <ele>1114.8</ele>
        <time>2026-05-16T09:32:28Z</time>
      </trkpt>
      <trkpt lat="43.76921" lon="6.85623">
        <ele>1115.2</ele>
        <time>2026-05-16T09:32:29Z</time>
      </trkpt>
      <trkpt lat="43.76938" lon="6.85616">
        <ele>1115.4</ele>
        <time>2026-05-16T09:32:30Z</time>
      </trkpt>
      <trkpt lat="43.76955" lon="6.8561">
        <ele>1115.5</ele>
        <time>2026-05-16T09:32:31Z</time>
      </trkpt>
      <trkpt lat="43.76972" lon="6.85603">
        <ele>1116.1</ele>
        <time>2026-05-16T09:32:32Z</time>
      </trkpt>
      <trkpt lat="43.76988" lon="6.85596">
        <ele>1115.8</ele>
        <time>2026-05-16T09:32:33Z</time>
      </trkpt>
      <trkpt lat="43.77005" lon="6.85589">
        <ele>1115.4</ele>
        <time>2026-05-16T09:32:34Z</time>
      </trkpt>
      <trkpt lat="43.77022" lon="6.85583">
        <ele>1115.5</ele>
        <time>2026-05-16T09:32:35Z</time>
      </trkpt>
      <trkpt lat="43.77038" lon="6.85577">
        <ele>1115.7</ele>
        <time>2026-05-16T09:32:36Z</time>
      </trkpt>
      <trkpt lat="43.77054" lon="6.85572">
        <ele>1115.4</ele>
        <time>2026-05-16T09:32:37Z</time>
      </trkpt>
      <trkpt lat="43.7707" lon="6.85566">
        <ele>1115.8</ele>
        <time>2026-05-16T09:32:38Z</time>
      </trkpt>
      <trkpt lat="43.77086" lon="6.85561">
        <ele>1116</ele>
        <time>2026-05-16T09:32:39Z</time>
      </trkpt>
      <trkpt lat="43.77102" lon="6.85557">
        <ele>1116.2</ele>
        <time>2026-05-16T09:32:40Z</time>
      </trkpt>
      <trkpt lat="43.77118" lon="6.85552">
        <ele>1116.8</ele>
        <time>2026-05-16T09:32:41Z</time>
      </trkpt>
      <trkpt lat="43.77133" lon="6.85548">
        <ele>1117.1</ele>
        <time>2026-05-16T09:32:42Z</time>
      </trkpt>
      <trkpt lat="43.77148" lon="6.85545">
        <ele>1117.1</ele>
        <time>2026-05-16T09:32:43Z</time>
      </trkpt>
      <trkpt lat="43.77164" lon="6.85542">
        <ele>1117.1</ele>
        <time>2026-05-16T09:32:44Z</time>
      </trkpt>
      <trkpt lat="43.77179" lon="6.85539">
        <ele>1116.8</ele>
        <time>2026-05-16T09:32:45Z</time>
      </trkpt>
      <trkpt lat="43.77193" lon="6.85534">
        <ele>1117.1</ele>
        <time>2026-05-16T09:32:46Z</time>
      </trkpt>
      <trkpt lat="43.77208" lon="6.85529">
        <ele>1117.2</ele>
        <time>2026-05-16T09:32:47Z</time>
      </trkpt>
      <trkpt lat="43.77223" lon="6.85525">
        <ele>1116.9</ele>
        <time>2026-05-16T09:32:48Z</time>
      </trkpt>
      <trkpt lat="43.77238" lon="6.85522">
        <ele>1117.8</ele>
        <time>2026-05-16T09:32:49Z</time>
      </trkpt>
      <trkpt lat="43.77254" lon="6.85521">
        <ele>1118.1</ele>
        <time>2026-05-16T09:32:50Z</time>
      </trkpt>
      <trkpt lat="43.7727" lon="6.85523">
        <ele>1118</ele>
        <time>2026-05-16T09:32:51Z</time>
      </trkpt>
      <trkpt lat="43.77286" lon="6.85527">
        <ele>1117.8</ele>
        <time>2026-05-16T09:32:52Z</time>
      </trkpt>
      <trkpt lat="43.77301" lon="6.85532">
        <ele>1117.6</ele>
        <time>2026-05-16T09:32:53Z</time>
      </trkpt>
      <trkpt lat="43.77316" lon="6.85539">
        <ele>1117.1</ele>
        <time>2026-05-16T09:32:54Z</time>
      </trkpt>
      <trkpt lat="43.77332" lon="6.85543">
        <ele>1117.5</ele>
        <time>2026-05-16T09:32:55Z</time>
      </trkpt>
      <trkpt lat="43.77347" lon="6.85547">
        <ele>1117.1</ele>
        <time>2026-05-16T09:32:56Z</time>
      </trkpt>
      <trkpt lat="43.77362" lon="6.8555">
        <ele>1116.8</ele>
        <time>2026-05-16T09:32:57Z</time>
      </trkpt>
      <trkpt lat="43.77376" lon="6.85552">
        <ele>1116.1</ele>
        <time>2026-05-16T09:32:58Z</time>
      </trkpt>
      <trkpt lat="43.77389" lon="6.85551">
        <ele>1116.3</ele>
        <time>2026-05-16T09:32:59Z</time>
      </trkpt>
      <trkpt lat="43.77401" lon="6.85545">
        <ele>1115.9</ele>
        <time>2026-05-16T09:33:00Z</time>
      </trkpt>
      <trkpt lat="43.77412" lon="6.85534">
        <ele>1117</ele>
        <time>2026-05-16T09:33:01Z</time>
      </trkpt>
      <trkpt lat="43.77422" lon="6.85522">
        <ele>1117.7</ele>
        <time>2026-05-16T09:33:02Z</time>
      </trkpt>
      <trkpt lat="43.77432" lon="6.85508">
        <ele>1117.5</ele>
        <time>2026-05-16T09:33:03Z</time>
      </trkpt>
      <trkpt lat="43.77441" lon="6.85491">
        <ele>1117.4</ele>
        <time>2026-05-16T09:33:04Z</time>
      </trkpt>
      <trkpt lat="43.77449" lon="6.85473">
        <ele>1117.2</ele>
        <time>2026-05-16T09:33:05Z</time>
      </trkpt>
      <trkpt lat="43.77457" lon="6.85453">
        <ele>1117.6</ele>
        <time>2026-05-16T09:33:06Z</time>
      </trkpt>
      <trkpt lat="43.77466" lon="6.85433">
        <ele>1118.2</ele>
        <time>2026-05-16T09:33:07Z</time>
      </trkpt>
      <trkpt lat="43.77476" lon="6.85414">
        <ele>1118.4</ele>
        <time>2026-05-16T09:33:08Z</time>
      </trkpt>
      <trkpt lat="43.77488" lon="6.85396">
        <ele>1118.4</ele>
        <time>2026-05-16T09:33:09Z</time>
      </trkpt>
      <trkpt lat="43.77499" lon="6.8538">
        <ele>1118.6</ele>
        <time>2026-05-16T09:33:10Z</time>
      </trkpt>
      <trkpt lat="43.77511" lon="6.85364">
        <ele>1118.4</ele>
        <time>2026-05-16T09:33:11Z</time>
      </trkpt>
      <trkpt lat="43.77522" lon="6.85349">
        <ele>1118.1</ele>
        <time>2026-05-16T09:33:12Z</time>
      </trkpt>
      <trkpt lat="43.77534" lon="6.85335">
        <ele>1118</ele>
        <time>2026-05-16T09:33:13Z</time>
      </trkpt>
      <trkpt lat="43.77546" lon="6.85324">
        <ele>1118</ele>
        <time>2026-05-16T09:33:14Z</time>
      </trkpt>
      <trkpt lat="43.77558" lon="6.85315">
        <ele>1117.8</ele>
        <time>2026-05-16T09:33:15Z</time>
      </trkpt>
      <trkpt lat="43.7757" lon="6.85308">
        <ele>1117.7</ele>
        <time>2026-05-16T09:33:16Z</time>
      </trkpt>
      <trkpt lat="43.77581" lon="6.85299">
        <ele>1117.6</ele>
        <time>2026-05-16T09:33:17Z</time>
      </trkpt>
      <trkpt lat="43.7759" lon="6.85287">
        <ele>1118.1</ele>
        <time>2026-05-16T09:33:18Z</time>
      </trkpt>
      <trkpt lat="43.77598" lon="6.85275">
        <ele>1118.1</ele>
        <time>2026-05-16T09:33:19Z</time>
      </trkpt>
      <trkpt lat="43.77603" lon="6.8526">
        <ele>1118.4</ele>
        <time>2026-05-16T09:33:20Z</time>
      </trkpt>
      <trkpt lat="43.77608" lon="6.85245">
        <ele>1118.3</ele>
        <time>2026-05-16T09:33:21Z</time>
      </trkpt>
      <trkpt lat="43.77611" lon="6.85227">
        <ele>1118.7</ele>
        <time>2026-05-16T09:33:22Z</time>
      </trkpt>
      <trkpt lat="43.77614" lon="6.8521">
        <ele>1119</ele>
        <time>2026-05-16T09:33:23Z</time>
      </trkpt>
      <trkpt lat="43.77616" lon="6.85191">
        <ele>1119.5</ele>
        <time>2026-05-16T09:33:24Z</time>
      </trkpt>
      <trkpt lat="43.77619" lon="6.85172">
        <ele>1118.9</ele>
        <time>2026-05-16T09:33:25Z</time>
      </trkpt>
      <trkpt lat="43.77624" lon="6.85153">
        <ele>1119</ele>
        <time>2026-05-16T09:33:26Z</time>
      </trkpt>
      <trkpt lat="43.77631" lon="6.85137">
        <ele>1118.9</ele>
        <time>2026-05-16T09:33:27Z</time>
      </trkpt>
      <trkpt lat="43.77639" lon="6.85122">
        <ele>1118.8</ele>
        <time>2026-05-16T09:33:28Z</time>
      </trkpt>
      <trkpt lat="43.77647" lon="6.85106">
        <ele>1118.9</ele>
        <time>2026-05-16T09:33:29Z</time>
      </trkpt>
      <trkpt lat="43.77653" lon="6.85088">
        <ele>1119.1</ele>
        <time>2026-05-16T09:33:30Z</time>
      </trkpt>
      <trkpt lat="43.77658" lon="6.85071">
        <ele>1119.3</ele>
        <time>2026-05-16T09:33:31Z</time>
      </trkpt>
      <trkpt lat="43.77663" lon="6.85052">
        <ele>1119.7</ele>
        <time>2026-05-16T09:33:32Z</time>
      </trkpt>
      <trkpt lat="43.77671" lon="6.85035">
        <ele>1119.2</ele>
        <time>2026-05-16T09:33:33Z</time>
      </trkpt>
      <trkpt lat="43.77681" lon="6.85019">
        <ele>1119.1</ele>
        <time>2026-05-16T09:33:34Z</time>
      </trkpt>
      <trkpt lat="43.77692" lon="6.85005">
        <ele>1118.9</ele>
        <time>2026-05-16T09:33:35Z</time>
      </trkpt>
      <trkpt lat="43.77702" lon="6.8499">
        <ele>1118.5</ele>
        <time>2026-05-16T09:33:36Z</time>
      </trkpt>
      <trkpt lat="43.7771" lon="6.84973">
        <ele>1118.3</ele>
        <time>2026-05-16T09:33:37Z</time>
      </trkpt>
      <trkpt lat="43.77715" lon="6.84953">
        <ele>1118.3</ele>
        <time>2026-05-16T09:33:38Z</time>
      </trkpt>
      <trkpt lat="43.77719" lon="6.84934">
        <ele>1118.3</ele>
        <time>2026-05-16T09:33:39Z</time>
      </trkpt>
      <trkpt lat="43.77724" lon="6.84914">
        <ele>1117.9</ele>
        <time>2026-05-16T09:33:40Z</time>
      </trkpt>
      <trkpt lat="43.77728" lon="6.84896">
        <ele>1118.1</ele>
        <time>2026-05-16T09:33:41Z</time>
      </trkpt>
      <trkpt lat="43.77733" lon="6.84878">
        <ele>1118.1</ele>
        <time>2026-05-16T09:33:42Z</time>
      </trkpt>
      <trkpt lat="43.77736" lon="6.8486">
        <ele>1118</ele>
        <time>2026-05-16T09:33:43Z</time>
      </trkpt>
      <trkpt lat="43.77738" lon="6.8484">
        <ele>1118.1</ele>
        <time>2026-05-16T09:33:44Z</time>
      </trkpt>
      <trkpt lat="43.77737" lon="6.8482">
        <ele>1118.3</ele>
        <time>2026-05-16T09:33:45Z</time>
      </trkpt>
      <trkpt lat="43.77735" lon="6.848">
        <ele>1118.5</ele>
        <time>2026-05-16T09:33:46Z</time>
      </trkpt>
      <trkpt lat="43.77733" lon="6.84779">
        <ele>1118.1</ele>
        <time>2026-05-16T09:33:47Z</time>
      </trkpt>
      <trkpt lat="43.7773" lon="6.8476">
        <ele>1118.4</ele>
        <time>2026-05-16T09:33:48Z</time>
      </trkpt>
      <trkpt lat="43.77727" lon="6.84739">
        <ele>1118.9</ele>
        <time>2026-05-16T09:33:49Z</time>
      </trkpt>
      <trkpt lat="43.77724" lon="6.84719">
        <ele>1119.4</ele>
        <time>2026-05-16T09:33:50Z</time>
      </trkpt>
      <trkpt lat="43.77721" lon="6.84699">
        <ele>1119.4</ele>
        <time>2026-05-16T09:33:51Z</time>
      </trkpt>
      <trkpt lat="43.77719" lon="6.84678">
        <ele>1119</ele>
        <time>2026-05-16T09:33:52Z</time>
      </trkpt>
      <trkpt lat="43.77715" lon="6.84656">
        <ele>1118.9</ele>
        <time>2026-05-16T09:33:53Z</time>
      </trkpt>
      <trkpt lat="43.77712" lon="6.84634">
        <ele>1118.6</ele>
        <time>2026-05-16T09:33:54Z</time>
      </trkpt>
      <trkpt lat="43.77709" lon="6.84612">
        <ele>1117.9</ele>
        <time>2026-05-16T09:33:55Z</time>
      </trkpt>
      <trkpt lat="43.77706" lon="6.8459">
        <ele>1118.6</ele>
        <time>2026-05-16T09:33:56Z</time>
      </trkpt>
      <trkpt lat="43.77704" lon="6.84568">
        <ele>1119.1</ele>
        <time>2026-05-16T09:33:57Z</time>
      </trkpt>
      <trkpt lat="43.77701" lon="6.84547">
        <ele>1119.3</ele>
        <time>2026-05-16T09:33:58Z</time>
      </trkpt>
      <trkpt lat="43.77697" lon="6.84527">
        <ele>1119.1</ele>
        <time>2026-05-16T09:33:59Z</time>
      </trkpt>
      <trkpt lat="43.77691" lon="6.84508">
        <ele>1119.3</ele>
        <time>2026-05-16T09:34:00Z</time>
      </trkpt>
      <trkpt lat="43.77682" lon="6.8449">
        <ele>1119.8</ele>
        <time>2026-05-16T09:34:01Z</time>
      </trkpt>
      <trkpt lat="43.77672" lon="6.84473">
        <ele>1120.7</ele>
        <time>2026-05-16T09:34:02Z</time>
      </trkpt>
      <trkpt lat="43.77662" lon="6.84455">
        <ele>1121.6</ele>
        <time>2026-05-16T09:34:03Z</time>
      </trkpt>
      <trkpt lat="43.77654" lon="6.84436">
        <ele>1121.7</ele>
        <time>2026-05-16T09:34:04Z</time>
      </trkpt>
      <trkpt lat="43.77648" lon="6.84415">
        <ele>1121.3</ele>
        <time>2026-05-16T09:34:05Z</time>
      </trkpt>
      <trkpt lat="43.77643" lon="6.84395">
        <ele>1121.5</ele>
        <time>2026-05-16T09:34:06Z</time>
      </trkpt>
      <trkpt lat="43.77637" lon="6.84374">
        <ele>1121.2</ele>
        <time>2026-05-16T09:34:07Z</time>
      </trkpt>
      <trkpt lat="43.77632" lon="6.84355">
        <ele>1121</ele>
        <time>2026-05-16T09:34:08Z</time>
      </trkpt>
      <trkpt lat="43.77628" lon="6.84335">
        <ele>1121</ele>
        <time>2026-05-16T09:34:09Z</time>
      </trkpt>
      <trkpt lat="43.77623" lon="6.84316">
        <ele>1120.7</ele>
        <time>2026-05-16T09:34:10Z</time>
      </trkpt>
      <trkpt lat="43.77618" lon="6.84297">
        <ele>1120.6</ele>
        <time>2026-05-16T09:34:11Z</time>
      </trkpt>
      <trkpt lat="43.77611" lon="6.8428">
        <ele>1121.2</ele>
        <time>2026-05-16T09:34:12Z</time>
      </trkpt>
      <trkpt lat="43.77602" lon="6.84266">
        <ele>1120.3</ele>
        <time>2026-05-16T09:34:13Z</time>
      </trkpt>
      <trkpt lat="43.77592" lon="6.84256">
        <ele>1120.4</ele>
        <time>2026-05-16T09:34:14Z</time>
      </trkpt>
      <trkpt lat="43.77579" lon="6.84249">
        <ele>1121.1</ele>
        <time>2026-05-16T09:34:15Z</time>
      </trkpt>
      <trkpt lat="43.77566" lon="6.84247">
        <ele>1121.6</ele>
        <time>2026-05-16T09:34:16Z</time>
      </trkpt>
      <trkpt lat="43.77553" lon="6.84246">
        <ele>1122.4</ele>
        <time>2026-05-16T09:34:17Z</time>
      </trkpt>
      <trkpt lat="43.7754" lon="6.84246">
        <ele>1122.9</ele>
        <time>2026-05-16T09:34:18Z</time>
      </trkpt>
      <trkpt lat="43.77527" lon="6.84246">
        <ele>1123.5</ele>
        <time>2026-05-16T09:34:19Z</time>
      </trkpt>
      <trkpt lat="43.77515" lon="6.84244">
        <ele>1123.8</ele>
        <time>2026-05-16T09:34:20Z</time>
      </trkpt>
      <trkpt lat="43.77505" lon="6.8424">
        <ele>1124</ele>
        <time>2026-05-16T09:34:21Z</time>
      </trkpt>
      <trkpt lat="43.77497" lon="6.84232">
        <ele>1124.1</ele>
        <time>2026-05-16T09:34:22Z</time>
      </trkpt>
      <trkpt lat="43.77491" lon="6.84221">
        <ele>1124.3</ele>
        <time>2026-05-16T09:34:23Z</time>
      </trkpt>
      <trkpt lat="43.7749" lon="6.84207">
        <ele>1124.3</ele>
        <time>2026-05-16T09:34:24Z</time>
      </trkpt>
      <trkpt lat="43.77491" lon="6.84191">
        <ele>1124.2</ele>
        <time>2026-05-16T09:34:25Z</time>
      </trkpt>
      <trkpt lat="43.77494" lon="6.84175">
        <ele>1124.5</ele>
        <time>2026-05-16T09:34:26Z</time>
      </trkpt>
      <trkpt lat="43.77497" lon="6.84158">
        <ele>1124.9</ele>
        <time>2026-05-16T09:34:27Z</time>
      </trkpt>
      <trkpt lat="43.775" lon="6.84139">
        <ele>1125</ele>
        <time>2026-05-16T09:34:28Z</time>
      </trkpt>
      <trkpt lat="43.77503" lon="6.84118">
        <ele>1124.5</ele>
        <time>2026-05-16T09:34:29Z</time>
      </trkpt>
      <trkpt lat="43.77507" lon="6.84096">
        <ele>1124.5</ele>
        <time>2026-05-16T09:34:30Z</time>
      </trkpt>
      <trkpt lat="43.7751" lon="6.84075">
        <ele>1124.7</ele>
        <time>2026-05-16T09:34:31Z</time>
      </trkpt>
      <trkpt lat="43.7751" lon="6.84054">
        <ele>1124.9</ele>
        <time>2026-05-16T09:34:32Z</time>
      </trkpt>
      <trkpt lat="43.77507" lon="6.84034">
        <ele>1125</ele>
        <time>2026-05-16T09:34:33Z</time>
      </trkpt>
      <trkpt lat="43.77502" lon="6.84015">
        <ele>1125.3</ele>
        <time>2026-05-16T09:34:34Z</time>
      </trkpt>
      <trkpt lat="43.77495" lon="6.83997">
        <ele>1125.7</ele>
        <time>2026-05-16T09:34:35Z</time>
      </trkpt>
      <trkpt lat="43.77487" lon="6.8398">
        <ele>1126.2</ele>
        <time>2026-05-16T09:34:36Z</time>
      </trkpt>
      <trkpt lat="43.77478" lon="6.83962">
        <ele>1126.9</ele>
        <time>2026-05-16T09:34:37Z</time>
      </trkpt>
      <trkpt lat="43.7747" lon="6.83944">
        <ele>1127.4</ele>
        <time>2026-05-16T09:34:38Z</time>
      </trkpt>
      <trkpt lat="43.77461" lon="6.83926">
        <ele>1127.7</ele>
        <time>2026-05-16T09:34:39Z</time>
      </trkpt>
      <trkpt lat="43.77451" lon="6.83909">
        <ele>1127.7</ele>
        <time>2026-05-16T09:34:40Z</time>
      </trkpt>
      <trkpt lat="43.7744" lon="6.83895">
        <ele>1127</ele>
        <time>2026-05-16T09:34:41Z</time>
      </trkpt>
      <trkpt lat="43.77427" lon="6.83883">
        <ele>1126.2</ele>
        <time>2026-05-16T09:34:42Z</time>
      </trkpt>
      <trkpt lat="43.77413" lon="6.83871">
        <ele>1125.9</ele>
        <time>2026-05-16T09:34:43Z</time>
      </trkpt>
      <trkpt lat="43.77401" lon="6.8386">
        <ele>1126.3</ele>
        <time>2026-05-16T09:34:44Z</time>
      </trkpt>
      <trkpt lat="43.77389" lon="6.83849">
        <ele>1127.2</ele>
        <time>2026-05-16T09:34:45Z</time>
      </trkpt>
      <trkpt lat="43.77377" lon="6.83836">
        <ele>1127.5</ele>
        <time>2026-05-16T09:34:46Z</time>
      </trkpt>
      <trkpt lat="43.77367" lon="6.8382">
        <ele>1127.7</ele>
        <time>2026-05-16T09:34:47Z</time>
      </trkpt>
      <trkpt lat="43.77359" lon="6.83802">
        <ele>1127.2</ele>
        <time>2026-05-16T09:34:48Z</time>
      </trkpt>
      <trkpt lat="43.77352" lon="6.83786">
        <ele>1127.7</ele>
        <time>2026-05-16T09:34:49Z</time>
      </trkpt>
      <trkpt lat="43.77349" lon="6.8377">
        <ele>1128.1</ele>
        <time>2026-05-16T09:34:50Z</time>
      </trkpt>
      <trkpt lat="43.77349" lon="6.83757">
        <ele>1128.6</ele>
        <time>2026-05-16T09:34:51Z</time>
      </trkpt>
      <trkpt lat="43.77353" lon="6.83746">
        <ele>1128.8</ele>
        <time>2026-05-16T09:34:52Z</time>
      </trkpt>
      <trkpt lat="43.77359" lon="6.83739">
        <ele>1128.9</ele>
        <time>2026-05-16T09:34:53Z</time>
      </trkpt>
      <trkpt lat="43.77368" lon="6.83733">
        <ele>1128.7</ele>
        <time>2026-05-16T09:34:54Z</time>
      </trkpt>
      <trkpt lat="43.77378" lon="6.83728">
        <ele>1128.4</ele>
        <time>2026-05-16T09:34:55Z</time>
      </trkpt>
      <trkpt lat="43.77389" lon="6.83725">
        <ele>1127.8</ele>
        <time>2026-05-16T09:34:56Z</time>
      </trkpt>
      <trkpt lat="43.77403" lon="6.83723">
        <ele>1126.4</ele>
        <time>2026-05-16T09:34:57Z</time>
      </trkpt>
      <trkpt lat="43.77415" lon="6.83721">
        <ele>1125.2</ele>
        <time>2026-05-16T09:34:58Z</time>
      </trkpt>
      <trkpt lat="43.77425" lon="6.83717">
        <ele>1123.4</ele>
        <time>2026-05-16T09:34:59Z</time>
      </trkpt>
      <trkpt lat="43.77435" lon="6.83711">
        <ele>1121.4</ele>
        <time>2026-05-16T09:35:00Z</time>
      </trkpt>
      <trkpt lat="43.77442" lon="6.83702">
        <ele>1120.3</ele>
        <time>2026-05-16T09:35:01Z</time>
      </trkpt>
      <trkpt lat="43.77448" lon="6.8369">
        <ele>1118.9</ele>
        <time>2026-05-16T09:35:02Z</time>
      </trkpt>
      <trkpt lat="43.7745" lon="6.83675">
        <ele>1118.6</ele>
        <time>2026-05-16T09:35:03Z</time>
      </trkpt>
      <trkpt lat="43.7745" lon="6.83658">
        <ele>1118.5</ele>
        <time>2026-05-16T09:35:04Z</time>
      </trkpt>
      <trkpt lat="43.77449" lon="6.83639">
        <ele>1118.2</ele>
        <time>2026-05-16T09:35:05Z</time>
      </trkpt>
      <trkpt lat="43.77448" lon="6.83619">
        <ele>1117.8</ele>
        <time>2026-05-16T09:35:06Z</time>
      </trkpt>
      <trkpt lat="43.77447" lon="6.83599">
        <ele>1117.5</ele>
        <time>2026-05-16T09:35:07Z</time>
      </trkpt>
      <trkpt lat="43.77447" lon="6.83579">
        <ele>1116.9</ele>
        <time>2026-05-16T09:35:08Z</time>
      </trkpt>
      <trkpt lat="43.77447" lon="6.83557">
        <ele>1116.8</ele>
        <time>2026-05-16T09:35:09Z</time>
      </trkpt>
      <trkpt lat="43.77447" lon="6.83533">
        <ele>1116</ele>
        <time>2026-05-16T09:35:10Z</time>
      </trkpt>
      <trkpt lat="43.77446" lon="6.83511">
        <ele>1115.7</ele>
        <time>2026-05-16T09:35:11Z</time>
      </trkpt>
      <trkpt lat="43.77445" lon="6.83489">
        <ele>1115.7</ele>
        <time>2026-05-16T09:35:12Z</time>
      </trkpt>
      <trkpt lat="43.77444" lon="6.83468">
        <ele>1116</ele>
        <time>2026-05-16T09:35:13Z</time>
      </trkpt>
      <trkpt lat="43.77442" lon="6.83447">
        <ele>1115.9</ele>
        <time>2026-05-16T09:35:14Z</time>
      </trkpt>
      <trkpt lat="43.77441" lon="6.83426">
        <ele>1116.1</ele>
        <time>2026-05-16T09:35:15Z</time>
      </trkpt>
      <trkpt lat="43.77439" lon="6.83404">
        <ele>1116.3</ele>
        <time>2026-05-16T09:35:16Z</time>
      </trkpt>
      <trkpt lat="43.77437" lon="6.83382">
        <ele>1116</ele>
        <time>2026-05-16T09:35:17Z</time>
      </trkpt>
      <trkpt lat="43.77437" lon="6.8336">
        <ele>1114.6</ele>
        <time>2026-05-16T09:35:18Z</time>
      </trkpt>
      <trkpt lat="43.77435" lon="6.83339">
        <ele>1113.8</ele>
        <time>2026-05-16T09:35:19Z</time>
      </trkpt>
      <trkpt lat="43.77433" lon="6.83318">
        <ele>1113.2</ele>
        <time>2026-05-16T09:35:20Z</time>
      </trkpt>
      <trkpt lat="43.77432" lon="6.83297">
        <ele>1112.3</ele>
        <time>2026-05-16T09:35:21Z</time>
      </trkpt>
      <trkpt lat="43.7743" lon="6.83275">
        <ele>1111.5</ele>
        <time>2026-05-16T09:35:22Z</time>
      </trkpt>
      <trkpt lat="43.77428" lon="6.83253">
        <ele>1110.9</ele>
        <time>2026-05-16T09:35:23Z</time>
      </trkpt>
      <trkpt lat="43.77427" lon="6.83233">
        <ele>1109.9</ele>
        <time>2026-05-16T09:35:24Z</time>
      </trkpt>
      <trkpt lat="43.77424" lon="6.83211">
        <ele>1110.1</ele>
        <time>2026-05-16T09:35:25Z</time>
      </trkpt>
      <trkpt lat="43.77422" lon="6.83191">
        <ele>1110</ele>
        <time>2026-05-16T09:35:26Z</time>
      </trkpt>
      <trkpt lat="43.77419" lon="6.83171">
        <ele>1110.1</ele>
        <time>2026-05-16T09:35:27Z</time>
      </trkpt>
      <trkpt lat="43.77416" lon="6.83151">
        <ele>1109.6</ele>
        <time>2026-05-16T09:35:28Z</time>
      </trkpt>
      <trkpt lat="43.77413" lon="6.83132">
        <ele>1109</ele>
        <time>2026-05-16T09:35:29Z</time>
      </trkpt>
      <trkpt lat="43.7741" lon="6.83114">
        <ele>1109.1</ele>
        <time>2026-05-16T09:35:30Z</time>
      </trkpt>
      <trkpt lat="43.77407" lon="6.83096">
        <ele>1109.6</ele>
        <time>2026-05-16T09:35:31Z</time>
      </trkpt>
      <trkpt lat="43.77405" lon="6.83076">
        <ele>1109.4</ele>
        <time>2026-05-16T09:35:32Z</time>
      </trkpt>
      <trkpt lat="43.77403" lon="6.83056">
        <ele>1108.4</ele>
        <time>2026-05-16T09:35:33Z</time>
      </trkpt>
      <trkpt lat="43.77402" lon="6.83036">
        <ele>1106.8</ele>
        <time>2026-05-16T09:35:34Z</time>
      </trkpt>
      <trkpt lat="43.774" lon="6.83016">
        <ele>1106</ele>
        <time>2026-05-16T09:35:35Z</time>
      </trkpt>
      <trkpt lat="43.77399" lon="6.82997">
        <ele>1105.1</ele>
        <time>2026-05-16T09:35:36Z</time>
      </trkpt>
      <trkpt lat="43.77398" lon="6.82979">
        <ele>1104.7</ele>
        <time>2026-05-16T09:35:37Z</time>
      </trkpt>
      <trkpt lat="43.77397" lon="6.8296">
        <ele>1104.3</ele>
        <time>2026-05-16T09:35:38Z</time>
      </trkpt>
      <trkpt lat="43.77397" lon="6.82941">
        <ele>1103.4</ele>
        <time>2026-05-16T09:35:39Z</time>
      </trkpt>
      <trkpt lat="43.77396" lon="6.82921">
        <ele>1102.9</ele>
        <time>2026-05-16T09:35:40Z</time>
      </trkpt>
      <trkpt lat="43.77394" lon="6.829">
        <ele>1102.7</ele>
        <time>2026-05-16T09:35:41Z</time>
      </trkpt>
      <trkpt lat="43.77393" lon="6.82879">
        <ele>1101.7</ele>
        <time>2026-05-16T09:35:42Z</time>
      </trkpt>
      <trkpt lat="43.77391" lon="6.82857">
        <ele>1101.3</ele>
        <time>2026-05-16T09:35:43Z</time>
      </trkpt>
      <trkpt lat="43.77389" lon="6.82836">
        <ele>1101.1</ele>
        <time>2026-05-16T09:35:44Z</time>
      </trkpt>
      <trkpt lat="43.77387" lon="6.82815">
        <ele>1100.6</ele>
        <time>2026-05-16T09:35:45Z</time>
      </trkpt>
      <trkpt lat="43.77385" lon="6.82794">
        <ele>1100.5</ele>
        <time>2026-05-16T09:35:46Z</time>
      </trkpt>
      <trkpt lat="43.77382" lon="6.82773">
        <ele>1101.2</ele>
        <time>2026-05-16T09:35:47Z</time>
      </trkpt>
      <trkpt lat="43.7738" lon="6.82752">
        <ele>1100.9</ele>
        <time>2026-05-16T09:35:48Z</time>
      </trkpt>
      <trkpt lat="43.77378" lon="6.82731">
        <ele>1100.4</ele>
        <time>2026-05-16T09:35:49Z</time>
      </trkpt>
      <trkpt lat="43.77376" lon="6.82709">
        <ele>1100.2</ele>
        <time>2026-05-16T09:35:50Z</time>
      </trkpt>
      <trkpt lat="43.77374" lon="6.82688">
        <ele>1100.3</ele>
        <time>2026-05-16T09:35:51Z</time>
      </trkpt>
      <trkpt lat="43.77371" lon="6.82666">
        <ele>1101.2</ele>
        <time>2026-05-16T09:35:52Z</time>
      </trkpt>
      <trkpt lat="43.77369" lon="6.82645">
        <ele>1101</ele>
        <time>2026-05-16T09:35:53Z</time>
      </trkpt>
      <trkpt lat="43.77366" lon="6.82623">
        <ele>1100.9</ele>
        <time>2026-05-16T09:35:54Z</time>
      </trkpt>
      <trkpt lat="43.77361" lon="6.82604">
        <ele>1102</ele>
        <time>2026-05-16T09:35:55Z</time>
      </trkpt>
      <trkpt lat="43.77355" lon="6.82585">
        <ele>1102.3</ele>
        <time>2026-05-16T09:35:56Z</time>
      </trkpt>
      <trkpt lat="43.77349" lon="6.82568">
        <ele>1102.7</ele>
        <time>2026-05-16T09:35:57Z</time>
      </trkpt>
      <trkpt lat="43.77343" lon="6.8255">
        <ele>1103.1</ele>
        <time>2026-05-16T09:35:58Z</time>
      </trkpt>
      <trkpt lat="43.77341" lon="6.82532">
        <ele>1102.7</ele>
        <time>2026-05-16T09:35:59Z</time>
      </trkpt>
      <trkpt lat="43.77344" lon="6.82514">
        <ele>1101.5</ele>
        <time>2026-05-16T09:36:00Z</time>
      </trkpt>
      <trkpt lat="43.7735" lon="6.82496">
        <ele>1099.5</ele>
        <time>2026-05-16T09:36:01Z</time>
      </trkpt>
      <trkpt lat="43.77354" lon="6.82477">
        <ele>1099.2</ele>
        <time>2026-05-16T09:36:02Z</time>
      </trkpt>
      <trkpt lat="43.77356" lon="6.82455">
        <ele>1098.7</ele>
        <time>2026-05-16T09:36:03Z</time>
      </trkpt>
      <trkpt lat="43.77356" lon="6.82433">
        <ele>1098.3</ele>
        <time>2026-05-16T09:36:04Z</time>
      </trkpt>
      <trkpt lat="43.77356" lon="6.8241">
        <ele>1097.3</ele>
        <time>2026-05-16T09:36:05Z</time>
      </trkpt>
      <trkpt lat="43.77355" lon="6.82389">
        <ele>1096.3</ele>
        <time>2026-05-16T09:36:06Z</time>
      </trkpt>
      <trkpt lat="43.77354" lon="6.82368">
        <ele>1095.5</ele>
        <time>2026-05-16T09:36:07Z</time>
      </trkpt>
      <trkpt lat="43.77354" lon="6.82347">
        <ele>1094.1</ele>
        <time>2026-05-16T09:36:08Z</time>
      </trkpt>
      <trkpt lat="43.77353" lon="6.82326">
        <ele>1093.2</ele>
        <time>2026-05-16T09:36:09Z</time>
      </trkpt>
      <trkpt lat="43.77351" lon="6.82305">
        <ele>1093.2</ele>
        <time>2026-05-16T09:36:10Z</time>
      </trkpt>
      <trkpt lat="43.7735" lon="6.82283">
        <ele>1092.7</ele>
        <time>2026-05-16T09:36:11Z</time>
      </trkpt>
      <trkpt lat="43.77349" lon="6.8226">
        <ele>1091.7</ele>
        <time>2026-05-16T09:36:12Z</time>
      </trkpt>
      <trkpt lat="43.77348" lon="6.82236">
        <ele>1090.3</ele>
        <time>2026-05-16T09:36:13Z</time>
      </trkpt>
      <trkpt lat="43.77347" lon="6.82212">
        <ele>1088.9</ele>
        <time>2026-05-16T09:36:14Z</time>
      </trkpt>
      <trkpt lat="43.77346" lon="6.82187">
        <ele>1087.7</ele>
        <time>2026-05-16T09:36:15Z</time>
      </trkpt>
      <trkpt lat="43.77346" lon="6.82163">
        <ele>1086</ele>
        <time>2026-05-16T09:36:16Z</time>
      </trkpt>
      <trkpt lat="43.77346" lon="6.82139">
        <ele>1084.3</ele>
        <time>2026-05-16T09:36:17Z</time>
      </trkpt>
      <trkpt lat="43.77346" lon="6.82115">
        <ele>1082.1</ele>
        <time>2026-05-16T09:36:18Z</time>
      </trkpt>
      <trkpt lat="43.77345" lon="6.82092">
        <ele>1080.9</ele>
        <time>2026-05-16T09:36:19Z</time>
      </trkpt>
      <trkpt lat="43.77343" lon="6.82069">
        <ele>1079.7</ele>
        <time>2026-05-16T09:36:20Z</time>
      </trkpt>
      <trkpt lat="43.77341" lon="6.82048">
        <ele>1077.6</ele>
        <time>2026-05-16T09:36:21Z</time>
      </trkpt>
      <trkpt lat="43.77336" lon="6.82028">
        <ele>1075.8</ele>
        <time>2026-05-16T09:36:22Z</time>
      </trkpt>
      <trkpt lat="43.77328" lon="6.8201">
        <ele>1074.4</ele>
        <time>2026-05-16T09:36:23Z</time>
      </trkpt>
      <trkpt lat="43.77319" lon="6.81993">
        <ele>1073.7</ele>
        <time>2026-05-16T09:36:24Z</time>
      </trkpt>
      <trkpt lat="43.77309" lon="6.81977">
        <ele>1073.8</ele>
        <time>2026-05-16T09:36:25Z</time>
      </trkpt>
      <trkpt lat="43.773" lon="6.81962">
        <ele>1073.6</ele>
        <time>2026-05-16T09:36:26Z</time>
      </trkpt>
      <trkpt lat="43.7729" lon="6.81947">
        <ele>1073.7</ele>
        <time>2026-05-16T09:36:27Z</time>
      </trkpt>
      <trkpt lat="43.77279" lon="6.81935">
        <ele>1074.7</ele>
        <time>2026-05-16T09:36:28Z</time>
      </trkpt>
      <trkpt lat="43.77268" lon="6.81923">
        <ele>1075.9</ele>
        <time>2026-05-16T09:36:29Z</time>
      </trkpt>
      <trkpt lat="43.77258" lon="6.81912">
        <ele>1077</ele>
        <time>2026-05-16T09:36:30Z</time>
      </trkpt>
      <trkpt lat="43.77248" lon="6.81902">
        <ele>1078.2</ele>
        <time>2026-05-16T09:36:31Z</time>
      </trkpt>
      <trkpt lat="43.77239" lon="6.81893">
        <ele>1078.9</ele>
        <time>2026-05-16T09:36:32Z</time>
      </trkpt>
      <trkpt lat="43.77231" lon="6.81884">
        <ele>1079</ele>
        <time>2026-05-16T09:36:33Z</time>
      </trkpt>
      <trkpt lat="43.77223" lon="6.81876">
        <ele>1079.1</ele>
        <time>2026-05-16T09:36:34Z</time>
      </trkpt>
      <trkpt lat="43.77214" lon="6.81868">
        <ele>1078.4</ele>
        <time>2026-05-16T09:36:35Z</time>
      </trkpt>
      <trkpt lat="43.77204" lon="6.81861">
        <ele>1078.2</ele>
        <time>2026-05-16T09:36:36Z</time>
      </trkpt>
      <trkpt lat="43.77195" lon="6.81855">
        <ele>1078.4</ele>
        <time>2026-05-16T09:36:37Z</time>
      </trkpt>
      <trkpt lat="43.77183" lon="6.81851">
        <ele>1078.6</ele>
        <time>2026-05-16T09:36:38Z</time>
      </trkpt>
      <trkpt lat="43.77172" lon="6.81848">
        <ele>1079</ele>
        <time>2026-05-16T09:36:39Z</time>
      </trkpt>
      <trkpt lat="43.7716" lon="6.81842">
        <ele>1078.6</ele>
        <time>2026-05-16T09:36:40Z</time>
      </trkpt>
      <trkpt lat="43.77151" lon="6.81832">
        <ele>1076.4</ele>
        <time>2026-05-16T09:36:41Z</time>
      </trkpt>
      <trkpt lat="43.77143" lon="6.8182">
        <ele>1074.4</ele>
        <time>2026-05-16T09:36:42Z</time>
      </trkpt>
      <trkpt lat="43.77136" lon="6.81809">
        <ele>1072.7</ele>
        <time>2026-05-16T09:36:43Z</time>
      </trkpt>
      <trkpt lat="43.77127" lon="6.81798">
        <ele>1072.4</ele>
        <time>2026-05-16T09:36:44Z</time>
      </trkpt>
      <trkpt lat="43.7712" lon="6.81788">
        <ele>1071.7</ele>
        <time>2026-05-16T09:36:45Z</time>
      </trkpt>
      <trkpt lat="43.77112" lon="6.81777">
        <ele>1070.7</ele>
        <time>2026-05-16T09:36:46Z</time>
      </trkpt>
      <trkpt lat="43.77104" lon="6.81768">
        <ele>1071.4</ele>
        <time>2026-05-16T09:36:47Z</time>
      </trkpt>
      <trkpt lat="43.77096" lon="6.81759">
        <ele>1071.5</ele>
        <time>2026-05-16T09:36:48Z</time>
      </trkpt>
      <trkpt lat="43.77091" lon="6.81752">
        <ele>1071.1</ele>
        <time>2026-05-16T09:36:49Z</time>
      </trkpt>
      <trkpt lat="43.77085" lon="6.81745">
        <ele>1071</ele>
        <time>2026-05-16T09:36:50Z</time>
      </trkpt>
      <trkpt lat="43.77081" lon="6.81739">
        <ele>1071</ele>
        <time>2026-05-16T09:36:51Z</time>
      </trkpt>
      <trkpt lat="43.77076" lon="6.81733">
        <ele>1071.2</ele>
        <time>2026-05-16T09:36:52Z</time>
      </trkpt>
      <trkpt lat="43.77072" lon="6.81727">
        <ele>1070.9</ele>
        <time>2026-05-16T09:36:53Z</time>
      </trkpt>
      <trkpt lat="43.77068" lon="6.81722">
        <ele>1070.7</ele>
        <time>2026-05-16T09:36:54Z</time>
      </trkpt>
      <trkpt lat="43.77064" lon="6.81716">
        <ele>1070.7</ele>
        <time>2026-05-16T09:36:55Z</time>
      </trkpt>
      <trkpt lat="43.77059" lon="6.8171">
        <ele>1070.7</ele>
        <time>2026-05-16T09:36:56Z</time>
      </trkpt>
      <trkpt lat="43.77056" lon="6.81702">
        <ele>1070</ele>
        <time>2026-05-16T09:36:57Z</time>
      </trkpt>
      <trkpt lat="43.77053" lon="6.81694">
        <ele>1069.5</ele>
        <time>2026-05-16T09:36:58Z</time>
      </trkpt>
      <trkpt lat="43.77052" lon="6.81684">
        <ele>1068.9</ele>
        <time>2026-05-16T09:36:59Z</time>
      </trkpt>
      <trkpt lat="43.77054" lon="6.81673">
        <ele>1067.7</ele>
        <time>2026-05-16T09:37:00Z</time>
      </trkpt>
      <trkpt lat="43.77058" lon="6.81664">
        <ele>1067</ele>
        <time>2026-05-16T09:37:01Z</time>
      </trkpt>
      <trkpt lat="43.77063" lon="6.81656">
        <ele>1067.2</ele>
        <time>2026-05-16T09:37:02Z</time>
      </trkpt>
      <trkpt lat="43.7707" lon="6.81651">
        <ele>1067.6</ele>
        <time>2026-05-16T09:37:03Z</time>
      </trkpt>
      <trkpt lat="43.77078" lon="6.8165">
        <ele>1068</ele>
        <time>2026-05-16T09:37:04Z</time>
      </trkpt>
      <trkpt lat="43.77086" lon="6.81652">
        <ele>1068.4</ele>
        <time>2026-05-16T09:37:05Z</time>
      </trkpt>
      <trkpt lat="43.77095" lon="6.81657">
        <ele>1069.2</ele>
        <time>2026-05-16T09:37:06Z</time>
      </trkpt>
      <trkpt lat="43.77105" lon="6.81665">
        <ele>1069.6</ele>
        <time>2026-05-16T09:37:07Z</time>
      </trkpt>
      <trkpt lat="43.77115" lon="6.81675">
        <ele>1069.5</ele>
        <time>2026-05-16T09:37:08Z</time>
      </trkpt>
      <trkpt lat="43.77123" lon="6.81686">
        <ele>1068.9</ele>
        <time>2026-05-16T09:37:09Z</time>
      </trkpt>
      <trkpt lat="43.77132" lon="6.81698">
        <ele>1067.8</ele>
        <time>2026-05-16T09:37:10Z</time>
      </trkpt>
      <trkpt lat="43.7714" lon="6.8171">
        <ele>1066.9</ele>
        <time>2026-05-16T09:37:11Z</time>
      </trkpt>
      <trkpt lat="43.77149" lon="6.81718">
        <ele>1066.2</ele>
        <time>2026-05-16T09:37:12Z</time>
      </trkpt>
      <trkpt lat="43.77158" lon="6.81724">
        <ele>1065.6</ele>
        <time>2026-05-16T09:37:13Z</time>
      </trkpt>
      <trkpt lat="43.77168" lon="6.81727">
        <ele>1065.6</ele>
        <time>2026-05-16T09:37:14Z</time>
      </trkpt>
      <trkpt lat="43.77179" lon="6.81728">
        <ele>1066.8</ele>
        <time>2026-05-16T09:37:15Z</time>
      </trkpt>
      <trkpt lat="43.7719" lon="6.81727">
        <ele>1068.3</ele>
        <time>2026-05-16T09:37:16Z</time>
      </trkpt>
      <trkpt lat="43.77203" lon="6.81725">
        <ele>1070.5</ele>
        <time>2026-05-16T09:37:17Z</time>
      </trkpt>
      <trkpt lat="43.77215" lon="6.81722">
        <ele>1073.1</ele>
        <time>2026-05-16T09:37:18Z</time>
      </trkpt>
      <trkpt lat="43.77228" lon="6.8172">
        <ele>1076.2</ele>
        <time>2026-05-16T09:37:19Z</time>
      </trkpt>
      <trkpt lat="43.7724" lon="6.81722">
        <ele>1077.9</ele>
        <time>2026-05-16T09:37:20Z</time>
      </trkpt>
      <trkpt lat="43.77251" lon="6.81725">
        <ele>1079.3</ele>
        <time>2026-05-16T09:37:21Z</time>
      </trkpt>
      <trkpt lat="43.77261" lon="6.81731">
        <ele>1080.3</ele>
        <time>2026-05-16T09:37:22Z</time>
      </trkpt>
      <trkpt lat="43.77271" lon="6.81739">
        <ele>1080.3</ele>
        <time>2026-05-16T09:37:23Z</time>
      </trkpt>
      <trkpt lat="43.77278" lon="6.81747">
        <ele>1079.2</ele>
        <time>2026-05-16T09:37:24Z</time>
      </trkpt>
      <trkpt lat="43.77287" lon="6.81752">
        <ele>1079.3</ele>
        <time>2026-05-16T09:37:25Z</time>
      </trkpt>
      <trkpt lat="43.77297" lon="6.81756">
        <ele>1080.1</ele>
        <time>2026-05-16T09:37:26Z</time>
      </trkpt>
      <trkpt lat="43.77308" lon="6.81758">
        <ele>1081.8</ele>
        <time>2026-05-16T09:37:27Z</time>
      </trkpt>
      <trkpt lat="43.77319" lon="6.81761">
        <ele>1082.7</ele>
        <time>2026-05-16T09:37:28Z</time>
      </trkpt>
      <trkpt lat="43.7733" lon="6.81763">
        <ele>1083.8</ele>
        <time>2026-05-16T09:37:29Z</time>
      </trkpt>
      <trkpt lat="43.77341" lon="6.81763">
        <ele>1085.3</ele>
        <time>2026-05-16T09:37:30Z</time>
      </trkpt>
      <trkpt lat="43.7735" lon="6.81761">
        <ele>1087.1</ele>
        <time>2026-05-16T09:37:31Z</time>
      </trkpt>
      <trkpt lat="43.7736" lon="6.81757">
        <ele>1089.6</ele>
        <time>2026-05-16T09:37:32Z</time>
      </trkpt>
      <trkpt lat="43.77369" lon="6.81756">
        <ele>1091.5</ele>
        <time>2026-05-16T09:37:33Z</time>
      </trkpt>
      <trkpt lat="43.77377" lon="6.81759">
        <ele>1091.9</ele>
        <time>2026-05-16T09:37:34Z</time>
      </trkpt>
      <trkpt lat="43.77386" lon="6.81765">
        <ele>1091.6</ele>
        <time>2026-05-16T09:37:35Z</time>
      </trkpt>
      <trkpt lat="43.77395" lon="6.81771">
        <ele>1091.5</ele>
        <time>2026-05-16T09:37:36Z</time>
      </trkpt>
      <trkpt lat="43.77405" lon="6.81778">
        <ele>1091.4</ele>
        <time>2026-05-16T09:37:37Z</time>
      </trkpt>
      <trkpt lat="43.77416" lon="6.81784">
        <ele>1092.1</ele>
        <time>2026-05-16T09:37:38Z</time>
      </trkpt>
      <trkpt lat="43.77427" lon="6.8179">
        <ele>1093.5</ele>
        <time>2026-05-16T09:37:39Z</time>
      </trkpt>
      <trkpt lat="43.77439" lon="6.81797">
        <ele>1094.9</ele>
        <time>2026-05-16T09:37:40Z</time>
      </trkpt>
      <trkpt lat="43.7745" lon="6.81806">
        <ele>1095.7</ele>
        <time>2026-05-16T09:37:41Z</time>
      </trkpt>
      <trkpt lat="43.77461" lon="6.81816">
        <ele>1096.5</ele>
        <time>2026-05-16T09:37:42Z</time>
      </trkpt>
      <trkpt lat="43.77472" lon="6.81827">
        <ele>1096.8</ele>
        <time>2026-05-16T09:37:43Z</time>
      </trkpt>
      <trkpt lat="43.77482" lon="6.81838">
        <ele>1096.9</ele>
        <time>2026-05-16T09:37:44Z</time>
      </trkpt>
      <trkpt lat="43.77491" lon="6.81848">
        <ele>1097</ele>
        <time>2026-05-16T09:37:45Z</time>
      </trkpt>
      <trkpt lat="43.775" lon="6.81858">
        <ele>1096.9</ele>
        <time>2026-05-16T09:37:46Z</time>
      </trkpt>
      <trkpt lat="43.77507" lon="6.81866">
        <ele>1096.1</ele>
        <time>2026-05-16T09:37:47Z</time>
      </trkpt>
      <trkpt lat="43.77515" lon="6.81873">
        <ele>1095.8</ele>
        <time>2026-05-16T09:37:48Z</time>
      </trkpt>
      <trkpt lat="43.77522" lon="6.81879">
        <ele>1095.6</ele>
        <time>2026-05-16T09:37:49Z</time>
      </trkpt>
      <trkpt lat="43.7753" lon="6.81882">
        <ele>1096.3</ele>
        <time>2026-05-16T09:37:50Z</time>
      </trkpt>
      <trkpt lat="43.77539" lon="6.81883">
        <ele>1097.2</ele>
        <time>2026-05-16T09:37:51Z</time>
      </trkpt>
      <trkpt lat="43.77548" lon="6.81881">
        <ele>1099</ele>
        <time>2026-05-16T09:37:52Z</time>
      </trkpt>
      <trkpt lat="43.77556" lon="6.81876">
        <ele>1101.3</ele>
        <time>2026-05-16T09:37:53Z</time>
      </trkpt>
      <trkpt lat="43.77565" lon="6.8187">
        <ele>1103.5</ele>
        <time>2026-05-16T09:37:54Z</time>
      </trkpt>
      <trkpt lat="43.77576" lon="6.81864">
        <ele>1105.8</ele>
        <time>2026-05-16T09:37:55Z</time>
      </trkpt>
      <trkpt lat="43.77587" lon="6.81861">
        <ele>1107.4</ele>
        <time>2026-05-16T09:37:56Z</time>
      </trkpt>
      <trkpt lat="43.77599" lon="6.81862">
        <ele>1108.5</ele>
        <time>2026-05-16T09:37:57Z</time>
      </trkpt>
      <trkpt lat="43.77611" lon="6.81866">
        <ele>1109.1</ele>
        <time>2026-05-16T09:37:58Z</time>
      </trkpt>
      <trkpt lat="43.77622" lon="6.81872">
        <ele>1109.5</ele>
        <time>2026-05-16T09:37:59Z</time>
      </trkpt>
      <trkpt lat="43.77633" lon="6.8188">
        <ele>1110</ele>
        <time>2026-05-16T09:38:00Z</time>
      </trkpt>
      <trkpt lat="43.77642" lon="6.81891">
        <ele>1110.5</ele>
        <time>2026-05-16T09:38:01Z</time>
      </trkpt>
      <trkpt lat="43.7765" lon="6.81905">
        <ele>1110.9</ele>
        <time>2026-05-16T09:38:02Z</time>
      </trkpt>
      <trkpt lat="43.77657" lon="6.81918">
        <ele>1111.4</ele>
        <time>2026-05-16T09:38:03Z</time>
      </trkpt>
      <trkpt lat="43.77666" lon="6.81929">
        <ele>1112.5</ele>
        <time>2026-05-16T09:38:04Z</time>
      </trkpt>
      <trkpt lat="43.77677" lon="6.81939">
        <ele>1113.8</ele>
        <time>2026-05-16T09:38:05Z</time>
      </trkpt>
      <trkpt lat="43.77689" lon="6.81951">
        <ele>1114.9</ele>
        <time>2026-05-16T09:38:06Z</time>
      </trkpt>
      <trkpt lat="43.77701" lon="6.81962">
        <ele>1116.3</ele>
        <time>2026-05-16T09:38:07Z</time>
      </trkpt>
      <trkpt lat="43.77712" lon="6.81974">
        <ele>1117.8</ele>
        <time>2026-05-16T09:38:08Z</time>
      </trkpt>
      <trkpt lat="43.77722" lon="6.81987">
        <ele>1118.8</ele>
        <time>2026-05-16T09:38:09Z</time>
      </trkpt>
      <trkpt lat="43.77732" lon="6.81999">
        <ele>1120</ele>
        <time>2026-05-16T09:38:10Z</time>
      </trkpt>
      <trkpt lat="43.77743" lon="6.82011">
        <ele>1121.7</ele>
        <time>2026-05-16T09:38:11Z</time>
      </trkpt>
      <trkpt lat="43.77752" lon="6.82024">
        <ele>1123.2</ele>
        <time>2026-05-16T09:38:12Z</time>
      </trkpt>
      <trkpt lat="43.77759" lon="6.8204">
        <ele>1125.3</ele>
        <time>2026-05-16T09:38:13Z</time>
      </trkpt>
      <trkpt lat="43.77761" lon="6.82058">
        <ele>1125.8</ele>
        <time>2026-05-16T09:38:14Z</time>
      </trkpt>
      <trkpt lat="43.7776" lon="6.82076">
        <ele>1126.1</ele>
        <time>2026-05-16T09:38:15Z</time>
      </trkpt>
      <trkpt lat="43.77756" lon="6.82094">
        <ele>1125.4</ele>
        <time>2026-05-16T09:38:16Z</time>
      </trkpt>
      <trkpt lat="43.77753" lon="6.82112">
        <ele>1125.4</ele>
        <time>2026-05-16T09:38:17Z</time>
      </trkpt>
      <trkpt lat="43.77751" lon="6.82131">
        <ele>1126.6</ele>
        <time>2026-05-16T09:38:18Z</time>
      </trkpt>
      <trkpt lat="43.77751" lon="6.82151">
        <ele>1128.3</ele>
        <time>2026-05-16T09:38:19Z</time>
      </trkpt>
      <trkpt lat="43.77751" lon="6.82171">
        <ele>1129.7</ele>
        <time>2026-05-16T09:38:20Z</time>
      </trkpt>
      <trkpt lat="43.77753" lon="6.82194">
        <ele>1132</ele>
        <time>2026-05-16T09:38:21Z</time>
      </trkpt>
      <trkpt lat="43.77753" lon="6.82216">
        <ele>1132.9</ele>
        <time>2026-05-16T09:38:22Z</time>
      </trkpt>
      <trkpt lat="43.77754" lon="6.82238">
        <ele>1133.9</ele>
        <time>2026-05-16T09:38:23Z</time>
      </trkpt>
      <trkpt lat="43.77755" lon="6.82261">
        <ele>1134.5</ele>
        <time>2026-05-16T09:38:24Z</time>
      </trkpt>
      <trkpt lat="43.77758" lon="6.82283">
        <ele>1135.2</ele>
        <time>2026-05-16T09:38:25Z</time>
      </trkpt>
      <trkpt lat="43.77761" lon="6.82303">
        <ele>1135.4</ele>
        <time>2026-05-16T09:38:26Z</time>
      </trkpt>
      <trkpt lat="43.77765" lon="6.82321">
        <ele>1135.4</ele>
        <time>2026-05-16T09:38:27Z</time>
      </trkpt>
      <trkpt lat="43.77772" lon="6.82335">
        <ele>1135.8</ele>
        <time>2026-05-16T09:38:28Z</time>
      </trkpt>
      <trkpt lat="43.7778" lon="6.82345">
        <ele>1135.9</ele>
        <time>2026-05-16T09:38:29Z</time>
      </trkpt>
      <trkpt lat="43.7779" lon="6.8235">
        <ele>1136.1</ele>
        <time>2026-05-16T09:38:30Z</time>
      </trkpt>
      <trkpt lat="43.77802" lon="6.82351">
        <ele>1136.8</ele>
        <time>2026-05-16T09:38:31Z</time>
      </trkpt>
      <trkpt lat="43.77813" lon="6.82346">
        <ele>1137.5</ele>
        <time>2026-05-16T09:38:32Z</time>
      </trkpt>
      <trkpt lat="43.77825" lon="6.8234">
        <ele>1138.1</ele>
        <time>2026-05-16T09:38:33Z</time>
      </trkpt>
      <trkpt lat="43.77837" lon="6.82334">
        <ele>1138.8</ele>
        <time>2026-05-16T09:38:34Z</time>
      </trkpt>
      <trkpt lat="43.7785" lon="6.82328">
        <ele>1139.3</ele>
        <time>2026-05-16T09:38:35Z</time>
      </trkpt>
      <trkpt lat="43.77863" lon="6.82322">
        <ele>1140</ele>
        <time>2026-05-16T09:38:36Z</time>
      </trkpt>
      <trkpt lat="43.77877" lon="6.82315">
        <ele>1141.3</ele>
        <time>2026-05-16T09:38:37Z</time>
      </trkpt>
      <trkpt lat="43.77891" lon="6.82309">
        <ele>1142.5</ele>
        <time>2026-05-16T09:38:38Z</time>
      </trkpt>
      <trkpt lat="43.77903" lon="6.82303">
        <ele>1144.1</ele>
        <time>2026-05-16T09:38:39Z</time>
      </trkpt>
      <trkpt lat="43.77915" lon="6.82301">
        <ele>1144.9</ele>
        <time>2026-05-16T09:38:40Z</time>
      </trkpt>
      <trkpt lat="43.77927" lon="6.82302">
        <ele>1146.2</ele>
        <time>2026-05-16T09:38:41Z</time>
      </trkpt>
      <trkpt lat="43.77938" lon="6.82307">
        <ele>1146.9</ele>
        <time>2026-05-16T09:38:42Z</time>
      </trkpt>
      <trkpt lat="43.77947" lon="6.82317">
        <ele>1147.2</ele>
        <time>2026-05-16T09:38:43Z</time>
      </trkpt>
      <trkpt lat="43.77954" lon="6.8233">
        <ele>1147.1</ele>
        <time>2026-05-16T09:38:44Z</time>
      </trkpt>
      <trkpt lat="43.7796" lon="6.82347">
        <ele>1147.1</ele>
        <time>2026-05-16T09:38:45Z</time>
      </trkpt>
      <trkpt lat="43.77965" lon="6.82364">
        <ele>1147.3</ele>
        <time>2026-05-16T09:38:46Z</time>
      </trkpt>
      <trkpt lat="43.77971" lon="6.82383">
        <ele>1147.9</ele>
        <time>2026-05-16T09:38:47Z</time>
      </trkpt>
      <trkpt lat="43.77977" lon="6.82402">
        <ele>1148.7</ele>
        <time>2026-05-16T09:38:48Z</time>
      </trkpt>
      <trkpt lat="43.77983" lon="6.82421">
        <ele>1149.3</ele>
        <time>2026-05-16T09:38:49Z</time>
      </trkpt>
      <trkpt lat="43.77987" lon="6.82441">
        <ele>1150.2</ele>
        <time>2026-05-16T09:38:50Z</time>
      </trkpt>
      <trkpt lat="43.77991" lon="6.82462">
        <ele>1151.1</ele>
        <time>2026-05-16T09:38:51Z</time>
      </trkpt>
      <trkpt lat="43.77995" lon="6.82485">
        <ele>1151.9</ele>
        <time>2026-05-16T09:38:52Z</time>
      </trkpt>
      <trkpt lat="43.77999" lon="6.82508">
        <ele>1152.5</ele>
        <time>2026-05-16T09:38:53Z</time>
      </trkpt>
      <trkpt lat="43.78005" lon="6.82531">
        <ele>1153.4</ele>
        <time>2026-05-16T09:38:54Z</time>
      </trkpt>
      <trkpt lat="43.78012" lon="6.82552">
        <ele>1153.8</ele>
        <time>2026-05-16T09:38:55Z</time>
      </trkpt>
      <trkpt lat="43.78022" lon="6.82572">
        <ele>1154.6</ele>
        <time>2026-05-16T09:38:56Z</time>
      </trkpt>
      <trkpt lat="43.78033" lon="6.82591">
        <ele>1155.9</ele>
        <time>2026-05-16T09:38:57Z</time>
      </trkpt>
      <trkpt lat="43.78044" lon="6.82609">
        <ele>1157.2</ele>
        <time>2026-05-16T09:38:58Z</time>
      </trkpt>
      <trkpt lat="43.78054" lon="6.82628">
        <ele>1158</ele>
        <time>2026-05-16T09:38:59Z</time>
      </trkpt>
      <trkpt lat="43.78063" lon="6.82649">
        <ele>1158.8</ele>
        <time>2026-05-16T09:39:00Z</time>
      </trkpt>
      <trkpt lat="43.7807" lon="6.82671">
        <ele>1158.9</ele>
        <time>2026-05-16T09:39:01Z</time>
      </trkpt>
      <trkpt lat="43.78076" lon="6.82694">
        <ele>1159.4</ele>
        <time>2026-05-16T09:39:02Z</time>
      </trkpt>
      <trkpt lat="43.78082" lon="6.82714">
        <ele>1160.1</ele>
        <time>2026-05-16T09:39:03Z</time>
      </trkpt>
      <trkpt lat="43.78091" lon="6.82731">
        <ele>1161.2</ele>
        <time>2026-05-16T09:39:04Z</time>
      </trkpt>
      <trkpt lat="43.78103" lon="6.82745">
        <ele>1162.6</ele>
        <time>2026-05-16T09:39:05Z</time>
      </trkpt>
      <trkpt lat="43.78117" lon="6.82758">
        <ele>1164.8</ele>
        <time>2026-05-16T09:39:06Z</time>
      </trkpt>
      <trkpt lat="43.78131" lon="6.82771">
        <ele>1167.4</ele>
        <time>2026-05-16T09:39:07Z</time>
      </trkpt>
      <trkpt lat="43.78141" lon="6.82788">
        <ele>1168.4</ele>
        <time>2026-05-16T09:39:08Z</time>
      </trkpt>
      <trkpt lat="43.78148" lon="6.82806">
        <ele>1169.6</ele>
        <time>2026-05-16T09:39:09Z</time>
      </trkpt>
      <trkpt lat="43.78152" lon="6.82828">
        <ele>1170.4</ele>
        <time>2026-05-16T09:39:10Z</time>
      </trkpt>
      <trkpt lat="43.78155" lon="6.82849">
        <ele>1171.1</ele>
        <time>2026-05-16T09:39:11Z</time>
      </trkpt>
      <trkpt lat="43.78157" lon="6.82872">
        <ele>1171.4</ele>
        <time>2026-05-16T09:39:12Z</time>
      </trkpt>
      <trkpt lat="43.78159" lon="6.82896">
        <ele>1171.8</ele>
        <time>2026-05-16T09:39:13Z</time>
      </trkpt>
      <trkpt lat="43.78162" lon="6.8292">
        <ele>1173.1</ele>
        <time>2026-05-16T09:39:14Z</time>
      </trkpt>
      <trkpt lat="43.78165" lon="6.82944">
        <ele>1173.5</ele>
        <time>2026-05-16T09:39:15Z</time>
      </trkpt>
      <trkpt lat="43.7817" lon="6.82966">
        <ele>1173.6</ele>
        <time>2026-05-16T09:39:16Z</time>
      </trkpt>
      <trkpt lat="43.78177" lon="6.82985">
        <ele>1174.2</ele>
        <time>2026-05-16T09:39:17Z</time>
      </trkpt>
      <trkpt lat="43.78186" lon="6.83">
        <ele>1174.5</ele>
        <time>2026-05-16T09:39:18Z</time>
      </trkpt>
      <trkpt lat="43.78198" lon="6.83012">
        <ele>1174.3</ele>
        <time>2026-05-16T09:39:19Z</time>
      </trkpt>
      <trkpt lat="43.78211" lon="6.83022">
        <ele>1174.6</ele>
        <time>2026-05-16T09:39:20Z</time>
      </trkpt>
      <trkpt lat="43.78225" lon="6.83027">
        <ele>1175.8</ele>
        <time>2026-05-16T09:39:21Z</time>
      </trkpt>
      <trkpt lat="43.7824" lon="6.83031">
        <ele>1177.6</ele>
        <time>2026-05-16T09:39:22Z</time>
      </trkpt>
      <trkpt lat="43.78252" lon="6.8304">
        <ele>1178.4</ele>
        <time>2026-05-16T09:39:23Z</time>
      </trkpt>
      <trkpt lat="43.78262" lon="6.83052">
        <ele>1179.1</ele>
        <time>2026-05-16T09:39:24Z</time>
      </trkpt>
      <trkpt lat="43.78269" lon="6.83068">
        <ele>1179.4</ele>
        <time>2026-05-16T09:39:25Z</time>
      </trkpt>
      <trkpt lat="43.78275" lon="6.83083">
        <ele>1180.1</ele>
        <time>2026-05-16T09:39:26Z</time>
      </trkpt>
      <trkpt lat="43.78283" lon="6.83098">
        <ele>1180.5</ele>
        <time>2026-05-16T09:39:27Z</time>
      </trkpt>
      <trkpt lat="43.78293" lon="6.83112">
        <ele>1181.8</ele>
        <time>2026-05-16T09:39:28Z</time>
      </trkpt>
      <trkpt lat="43.78304" lon="6.83126">
        <ele>1182.8</ele>
        <time>2026-05-16T09:39:29Z</time>
      </trkpt>
      <trkpt lat="43.78315" lon="6.83141">
        <ele>1183.3</ele>
        <time>2026-05-16T09:39:30Z</time>
      </trkpt>
      <trkpt lat="43.78326" lon="6.83157">
        <ele>1183.6</ele>
        <time>2026-05-16T09:39:31Z</time>
      </trkpt>
      <trkpt lat="43.78339" lon="6.83173">
        <ele>1184.3</ele>
        <time>2026-05-16T09:39:32Z</time>
      </trkpt>
      <trkpt lat="43.78351" lon="6.83189">
        <ele>1184.8</ele>
        <time>2026-05-16T09:39:33Z</time>
      </trkpt>
      <trkpt lat="43.78365" lon="6.83206">
        <ele>1186.2</ele>
        <time>2026-05-16T09:39:34Z</time>
      </trkpt>
      <trkpt lat="43.78378" lon="6.83222">
        <ele>1187.5</ele>
        <time>2026-05-16T09:39:35Z</time>
      </trkpt>
      <trkpt lat="43.78391" lon="6.83239">
        <ele>1189.3</ele>
        <time>2026-05-16T09:39:36Z</time>
      </trkpt>
      <trkpt lat="43.78405" lon="6.83256">
        <ele>1190.6</ele>
        <time>2026-05-16T09:39:37Z</time>
      </trkpt>
      <trkpt lat="43.78418" lon="6.83273">
        <ele>1191.3</ele>
        <time>2026-05-16T09:39:38Z</time>
      </trkpt>
      <trkpt lat="43.78431" lon="6.8329">
        <ele>1192.2</ele>
        <time>2026-05-16T09:39:39Z</time>
      </trkpt>
      <trkpt lat="43.78444" lon="6.83308">
        <ele>1193.3</ele>
        <time>2026-05-16T09:39:40Z</time>
      </trkpt>
      <trkpt lat="43.78458" lon="6.83326">
        <ele>1194.2</ele>
        <time>2026-05-16T09:39:41Z</time>
      </trkpt>
      <trkpt lat="43.78471" lon="6.83343">
        <ele>1196.5</ele>
        <time>2026-05-16T09:39:42Z</time>
      </trkpt>
      <trkpt lat="43.78484" lon="6.8336">
        <ele>1197.3</ele>
        <time>2026-05-16T09:39:43Z</time>
      </trkpt>
      <trkpt lat="43.78498" lon="6.83377">
        <ele>1197.4</ele>
        <time>2026-05-16T09:39:44Z</time>
      </trkpt>
      <trkpt lat="43.78513" lon="6.83392">
        <ele>1198</ele>
        <time>2026-05-16T09:39:45Z</time>
      </trkpt>
      <trkpt lat="43.78529" lon="6.83405">
        <ele>1198.9</ele>
        <time>2026-05-16T09:39:46Z</time>
      </trkpt>
      <trkpt lat="43.78546" lon="6.83414">
        <ele>1200.1</ele>
        <time>2026-05-16T09:39:47Z</time>
      </trkpt>
      <trkpt lat="43.78563" lon="6.83421">
        <ele>1201.5</ele>
        <time>2026-05-16T09:39:48Z</time>
      </trkpt>
      <trkpt lat="43.7858" lon="6.83427">
        <ele>1202.9</ele>
        <time>2026-05-16T09:39:49Z</time>
      </trkpt>
      <trkpt lat="43.78597" lon="6.83434">
        <ele>1205.1</ele>
        <time>2026-05-16T09:39:50Z</time>
      </trkpt>
      <trkpt lat="43.78614" lon="6.8344">
        <ele>1207.2</ele>
        <time>2026-05-16T09:39:51Z</time>
      </trkpt>
      <trkpt lat="43.78631" lon="6.83446">
        <ele>1207.9</ele>
        <time>2026-05-16T09:39:52Z</time>
      </trkpt>
      <trkpt lat="43.78647" lon="6.83452">
        <ele>1209.2</ele>
        <time>2026-05-16T09:39:53Z</time>
      </trkpt>
      <trkpt lat="43.78662" lon="6.83458">
        <ele>1211.6</ele>
        <time>2026-05-16T09:39:54Z</time>
      </trkpt>
      <trkpt lat="43.78676" lon="6.83468">
        <ele>1217.1</ele>
        <time>2026-05-16T09:39:55Z</time>
      </trkpt>
      <trkpt lat="43.78687" lon="6.83482">
        <ele>1217.4</ele>
        <time>2026-05-16T09:39:56Z</time>
      </trkpt>
      <trkpt lat="43.78696" lon="6.83499">
        <ele>1210.8</ele>
        <time>2026-05-16T09:39:57Z</time>
      </trkpt>
      <trkpt lat="43.78703" lon="6.83519">
        <ele>1211.5</ele>
        <time>2026-05-16T09:39:58Z</time>
      </trkpt>
      <trkpt lat="43.7871" lon="6.83539">
        <ele>1212.7</ele>
        <time>2026-05-16T09:39:59Z</time>
      </trkpt>
      <trkpt lat="43.78716" lon="6.8356">
        <ele>1213.5</ele>
        <time>2026-05-16T09:40:00Z</time>
      </trkpt>
      <trkpt lat="43.78721" lon="6.83582">
        <ele>1214.5</ele>
        <time>2026-05-16T09:40:01Z</time>
      </trkpt>
      <trkpt lat="43.78725" lon="6.83605">
        <ele>1216.2</ele>
        <time>2026-05-16T09:40:02Z</time>
      </trkpt>
      <trkpt lat="43.78729" lon="6.83629">
        <ele>1218.2</ele>
        <time>2026-05-16T09:40:03Z</time>
      </trkpt>
      <trkpt lat="43.78732" lon="6.83652">
        <ele>1219.6</ele>
        <time>2026-05-16T09:40:04Z</time>
      </trkpt>
      <trkpt lat="43.78735" lon="6.83677">
        <ele>1220.9</ele>
        <time>2026-05-16T09:40:05Z</time>
      </trkpt>
      <trkpt lat="43.78739" lon="6.837">
        <ele>1222.3</ele>
        <time>2026-05-16T09:40:06Z</time>
      </trkpt>
      <trkpt lat="43.78743" lon="6.83723">
        <ele>1222.3</ele>
        <time>2026-05-16T09:40:07Z</time>
      </trkpt>
      <trkpt lat="43.78751" lon="6.83745">
        <ele>1223.5</ele>
        <time>2026-05-16T09:40:08Z</time>
      </trkpt>
      <trkpt lat="43.78759" lon="6.83766">
        <ele>1225.6</ele>
        <time>2026-05-16T09:40:09Z</time>
      </trkpt>
      <trkpt lat="43.78766" lon="6.83788">
        <ele>1227.4</ele>
        <time>2026-05-16T09:40:10Z</time>
      </trkpt>
      <trkpt lat="43.78771" lon="6.8381">
        <ele>1228.5</ele>
        <time>2026-05-16T09:40:11Z</time>
      </trkpt>
      <trkpt lat="43.78774" lon="6.83834">
        <ele>1230</ele>
        <time>2026-05-16T09:40:12Z</time>
      </trkpt>
      <trkpt lat="43.78776" lon="6.83858">
        <ele>1231</ele>
        <time>2026-05-16T09:40:13Z</time>
      </trkpt>
      <trkpt lat="43.78777" lon="6.83882">
        <ele>1231.6</ele>
        <time>2026-05-16T09:40:14Z</time>
      </trkpt>
      <trkpt lat="43.78778" lon="6.83907">
        <ele>1232.8</ele>
        <time>2026-05-16T09:40:15Z</time>
      </trkpt>
      <trkpt lat="43.78779" lon="6.83932">
        <ele>1233.6</ele>
        <time>2026-05-16T09:40:16Z</time>
      </trkpt>
      <trkpt lat="43.78779" lon="6.83957">
        <ele>1234</ele>
        <time>2026-05-16T09:40:17Z</time>
      </trkpt>
      <trkpt lat="43.78777" lon="6.8398">
        <ele>1234.2</ele>
        <time>2026-05-16T09:40:18Z</time>
      </trkpt>
      <trkpt lat="43.78772" lon="6.84003">
        <ele>1233.2</ele>
        <time>2026-05-16T09:40:19Z</time>
      </trkpt>
      <trkpt lat="43.78768" lon="6.84024">
        <ele>1233.3</ele>
        <time>2026-05-16T09:40:20Z</time>
      </trkpt>
      <trkpt lat="43.78767" lon="6.84044">
        <ele>1233.3</ele>
        <time>2026-05-16T09:40:21Z</time>
      </trkpt>
      <trkpt lat="43.78768" lon="6.84065">
        <ele>1233.9</ele>
        <time>2026-05-16T09:40:22Z</time>
      </trkpt>
      <trkpt lat="43.7877" lon="6.84087">
        <ele>1235.2</ele>
        <time>2026-05-16T09:40:23Z</time>
      </trkpt>
      <trkpt lat="43.78771" lon="6.84108">
        <ele>1237.1</ele>
        <time>2026-05-16T09:40:24Z</time>
      </trkpt>
      <trkpt lat="43.78772" lon="6.84129">
        <ele>1240.1</ele>
        <time>2026-05-16T09:40:25Z</time>
      </trkpt>
      <trkpt lat="43.78774" lon="6.8415">
        <ele>1243</ele>
        <time>2026-05-16T09:40:26Z</time>
      </trkpt>
      <trkpt lat="43.78779" lon="6.84169">
        <ele>1245.1</ele>
        <time>2026-05-16T09:40:27Z</time>
      </trkpt>
      <trkpt lat="43.78786" lon="6.84188">
        <ele>1245.4</ele>
        <time>2026-05-16T09:40:28Z</time>
      </trkpt>
      <trkpt lat="43.78794" lon="6.84207">
        <ele>1245.2</ele>
        <time>2026-05-16T09:40:29Z</time>
      </trkpt>
      <trkpt lat="43.78802" lon="6.84227">
        <ele>1245.1</ele>
        <time>2026-05-16T09:40:30Z</time>
      </trkpt>
      <trkpt lat="43.78806" lon="6.84249">
        <ele>1245.2</ele>
        <time>2026-05-16T09:40:31Z</time>
      </trkpt>
      <trkpt lat="43.78808" lon="6.84272">
        <ele>1245.2</ele>
        <time>2026-05-16T09:40:32Z</time>
      </trkpt>
      <trkpt lat="43.78809" lon="6.84296">
        <ele>1246.1</ele>
        <time>2026-05-16T09:40:33Z</time>
      </trkpt>
      <trkpt lat="43.78808" lon="6.8432">
        <ele>1246.6</ele>
        <time>2026-05-16T09:40:34Z</time>
      </trkpt>
      <trkpt lat="43.78808" lon="6.84345">
        <ele>1247.5</ele>
        <time>2026-05-16T09:40:35Z</time>
      </trkpt>
      <trkpt lat="43.78808" lon="6.8437">
        <ele>1248.1</ele>
        <time>2026-05-16T09:40:36Z</time>
      </trkpt>
      <trkpt lat="43.78807" lon="6.84395">
        <ele>1247.7</ele>
        <time>2026-05-16T09:40:37Z</time>
      </trkpt>
      <trkpt lat="43.78806" lon="6.84421">
        <ele>1247.4</ele>
        <time>2026-05-16T09:40:38Z</time>
      </trkpt>
      <trkpt lat="43.78806" lon="6.84446">
        <ele>1248.3</ele>
        <time>2026-05-16T09:40:39Z</time>
      </trkpt>
      <trkpt lat="43.78806" lon="6.8447">
        <ele>1250</ele>
        <time>2026-05-16T09:40:40Z</time>
      </trkpt>
      <trkpt lat="43.78804" lon="6.84494">
        <ele>1250</ele>
        <time>2026-05-16T09:40:41Z</time>
      </trkpt>
      <trkpt lat="43.78802" lon="6.84517">
        <ele>1250.7</ele>
        <time>2026-05-16T09:40:42Z</time>
      </trkpt>
      <trkpt lat="43.78798" lon="6.8454">
        <ele>1250.9</ele>
        <time>2026-05-16T09:40:43Z</time>
      </trkpt>
      <trkpt lat="43.78792" lon="6.84562">
        <ele>1250.1</ele>
        <time>2026-05-16T09:40:44Z</time>
      </trkpt>
      <trkpt lat="43.78785" lon="6.84582">
        <ele>1249.2</ele>
        <time>2026-05-16T09:40:45Z</time>
      </trkpt>
      <trkpt lat="43.78778" lon="6.84601">
        <ele>1249</ele>
        <time>2026-05-16T09:40:46Z</time>
      </trkpt>
      <trkpt lat="43.7877" lon="6.84617">
        <ele>1248.4</ele>
        <time>2026-05-16T09:40:47Z</time>
      </trkpt>
      <trkpt lat="43.78764" lon="6.84633">
        <ele>1248.1</ele>
        <time>2026-05-16T09:40:48Z</time>
      </trkpt>
      <trkpt lat="43.78762" lon="6.84648">
        <ele>1248</ele>
        <time>2026-05-16T09:40:49Z</time>
      </trkpt>
      <trkpt lat="43.78763" lon="6.84665">
        <ele>1247.9</ele>
        <time>2026-05-16T09:40:50Z</time>
      </trkpt>
      <trkpt lat="43.78769" lon="6.84682">
        <ele>1246.2</ele>
        <time>2026-05-16T09:40:51Z</time>
      </trkpt>
      <trkpt lat="43.78778" lon="6.84695">
        <ele>1244.9</ele>
        <time>2026-05-16T09:40:52Z</time>
      </trkpt>
      <trkpt lat="43.78789" lon="6.84705">
        <ele>1243.8</ele>
        <time>2026-05-16T09:40:53Z</time>
      </trkpt>
      <trkpt lat="43.78802" lon="6.84712">
        <ele>1243.5</ele>
        <time>2026-05-16T09:40:54Z</time>
      </trkpt>
      <trkpt lat="43.78815" lon="6.8472">
        <ele>1243</ele>
        <time>2026-05-16T09:40:55Z</time>
      </trkpt>
      <trkpt lat="43.78827" lon="6.84731">
        <ele>1241.3</ele>
        <time>2026-05-16T09:40:56Z</time>
      </trkpt>
      <trkpt lat="43.7884" lon="6.84741">
        <ele>1239.6</ele>
        <time>2026-05-16T09:40:57Z</time>
      </trkpt>
      <trkpt lat="43.78853" lon="6.84747">
        <ele>1239.1</ele>
        <time>2026-05-16T09:40:58Z</time>
      </trkpt>
      <trkpt lat="43.78867" lon="6.84752">
        <ele>1238.1</ele>
        <time>2026-05-16T09:40:59Z</time>
      </trkpt>
      <trkpt lat="43.78881" lon="6.84754">
        <ele>1236.8</ele>
        <time>2026-05-16T09:41:00Z</time>
      </trkpt>
      <trkpt lat="43.78895" lon="6.84755">
        <ele>1235.8</ele>
        <time>2026-05-16T09:41:01Z</time>
      </trkpt>
      <trkpt lat="43.78909" lon="6.84753">
        <ele>1235.6</ele>
        <time>2026-05-16T09:41:02Z</time>
      </trkpt>
      <trkpt lat="43.78923" lon="6.84749">
        <ele>1235</ele>
        <time>2026-05-16T09:41:03Z</time>
      </trkpt>
      <trkpt lat="43.78937" lon="6.84743">
        <ele>1234.1</ele>
        <time>2026-05-16T09:41:04Z</time>
      </trkpt>
      <trkpt lat="43.78951" lon="6.84735">
        <ele>1233.4</ele>
        <time>2026-05-16T09:41:05Z</time>
      </trkpt>
      <trkpt lat="43.78965" lon="6.84726">
        <ele>1232.1</ele>
        <time>2026-05-16T09:41:06Z</time>
      </trkpt>
      <trkpt lat="43.78979" lon="6.84715">
        <ele>1231.8</ele>
        <time>2026-05-16T09:41:07Z</time>
      </trkpt>
      <trkpt lat="43.78992" lon="6.84704">
        <ele>1232.1</ele>
        <time>2026-05-16T09:41:08Z</time>
      </trkpt>
      <trkpt lat="43.79006" lon="6.84693">
        <ele>1231.3</ele>
        <time>2026-05-16T09:41:09Z</time>
      </trkpt>
      <trkpt lat="43.7902" lon="6.84682">
        <ele>1229.4</ele>
        <time>2026-05-16T09:41:10Z</time>
      </trkpt>
      <trkpt lat="43.79035" lon="6.84672">
        <ele>1227.1</ele>
        <time>2026-05-16T09:41:11Z</time>
      </trkpt>
      <trkpt lat="43.7905" lon="6.84663">
        <ele>1225.1</ele>
        <time>2026-05-16T09:41:12Z</time>
      </trkpt>
      <trkpt lat="43.79064" lon="6.84653">
        <ele>1223.1</ele>
        <time>2026-05-16T09:41:13Z</time>
      </trkpt>
      <trkpt lat="43.79077" lon="6.84642">
        <ele>1220.9</ele>
        <time>2026-05-16T09:41:14Z</time>
      </trkpt>
      <trkpt lat="43.79088" lon="6.84627">
        <ele>1220.4</ele>
        <time>2026-05-16T09:41:15Z</time>
      </trkpt>
      <trkpt lat="43.79095" lon="6.84609">
        <ele>1222.4</ele>
        <time>2026-05-16T09:41:16Z</time>
      </trkpt>
      <trkpt lat="43.79103" lon="6.84591">
        <ele>1223.1</ele>
        <time>2026-05-16T09:41:17Z</time>
      </trkpt>
      <trkpt lat="43.79111" lon="6.84574">
        <ele>1222.4</ele>
        <time>2026-05-16T09:41:18Z</time>
      </trkpt>
      <trkpt lat="43.79121" lon="6.84557">
        <ele>1221.7</ele>
        <time>2026-05-16T09:41:19Z</time>
      </trkpt>
      <trkpt lat="43.79132" lon="6.84541">
        <ele>1219.7</ele>
        <time>2026-05-16T09:41:20Z</time>
      </trkpt>
      <trkpt lat="43.79144" lon="6.84525">
        <ele>1218</ele>
        <time>2026-05-16T09:41:21Z</time>
      </trkpt>
      <trkpt lat="43.79156" lon="6.8451">
        <ele>1217.9</ele>
        <time>2026-05-16T09:41:22Z</time>
      </trkpt>
      <trkpt lat="43.79169" lon="6.84495">
        <ele>1217.3</ele>
        <time>2026-05-16T09:41:23Z</time>
      </trkpt>
      <trkpt lat="43.79182" lon="6.8448">
        <ele>1216.7</ele>
        <time>2026-05-16T09:41:24Z</time>
      </trkpt>
      <trkpt lat="43.79196" lon="6.84467">
        <ele>1215.6</ele>
        <time>2026-05-16T09:41:25Z</time>
      </trkpt>
      <trkpt lat="43.7921" lon="6.84455">
        <ele>1213.1</ele>
        <time>2026-05-16T09:41:26Z</time>
      </trkpt>
      <trkpt lat="43.79224" lon="6.84443">
        <ele>1210.7</ele>
        <time>2026-05-16T09:41:27Z</time>
      </trkpt>
      <trkpt lat="43.79235" lon="6.84429">
        <ele>1209.5</ele>
        <time>2026-05-16T09:41:28Z</time>
      </trkpt>
      <trkpt lat="43.79246" lon="6.84414">
        <ele>1208.3</ele>
        <time>2026-05-16T09:41:29Z</time>
      </trkpt>
      <trkpt lat="43.79259" lon="6.84401">
        <ele>1207.2</ele>
        <time>2026-05-16T09:41:30Z</time>
      </trkpt>
      <trkpt lat="43.79273" lon="6.84392">
        <ele>1204.9</ele>
        <time>2026-05-16T09:41:31Z</time>
      </trkpt>
      <trkpt lat="43.79287" lon="6.84385">
        <ele>1202.6</ele>
        <time>2026-05-16T09:41:32Z</time>
      </trkpt>
      <trkpt lat="43.79301" lon="6.84378">
        <ele>1200.2</ele>
        <time>2026-05-16T09:41:33Z</time>
      </trkpt>
      <trkpt lat="43.79314" lon="6.84369">
        <ele>1198.5</ele>
        <time>2026-05-16T09:41:34Z</time>
      </trkpt>
      <trkpt lat="43.79327" lon="6.84356">
        <ele>1197.4</ele>
        <time>2026-05-16T09:41:35Z</time>
      </trkpt>
      <trkpt lat="43.79339" lon="6.84341">
        <ele>1196.5</ele>
        <time>2026-05-16T09:41:36Z</time>
      </trkpt>
      <trkpt lat="43.79351" lon="6.84324">
        <ele>1195.8</ele>
        <time>2026-05-16T09:41:37Z</time>
      </trkpt>
      <trkpt lat="43.79363" lon="6.84307">
        <ele>1194.4</ele>
        <time>2026-05-16T09:41:38Z</time>
      </trkpt>
      <trkpt lat="43.79375" lon="6.84289">
        <ele>1193.3</ele>
        <time>2026-05-16T09:41:39Z</time>
      </trkpt>
      <trkpt lat="43.79387" lon="6.84272">
        <ele>1192.1</ele>
        <time>2026-05-16T09:41:40Z</time>
      </trkpt>
      <trkpt lat="43.79398" lon="6.84254">
        <ele>1191.3</ele>
        <time>2026-05-16T09:41:41Z</time>
      </trkpt>
      <trkpt lat="43.7941" lon="6.84237">
        <ele>1190.2</ele>
        <time>2026-05-16T09:41:42Z</time>
      </trkpt>
      <trkpt lat="43.79422" lon="6.8422">
        <ele>1189.1</ele>
        <time>2026-05-16T09:41:43Z</time>
      </trkpt>
      <trkpt lat="43.79434" lon="6.84203">
        <ele>1188.2</ele>
        <time>2026-05-16T09:41:44Z</time>
      </trkpt>
      <trkpt lat="43.79447" lon="6.84187">
        <ele>1186.6</ele>
        <time>2026-05-16T09:41:45Z</time>
      </trkpt>
      <trkpt lat="43.79461" lon="6.84172">
        <ele>1185.3</ele>
        <time>2026-05-16T09:41:46Z</time>
      </trkpt>
      <trkpt lat="43.79474" lon="6.84156">
        <ele>1183.8</ele>
        <time>2026-05-16T09:41:47Z</time>
      </trkpt>
      <trkpt lat="43.79486" lon="6.84137">
        <ele>1183.2</ele>
        <time>2026-05-16T09:41:48Z</time>
      </trkpt>
      <trkpt lat="43.79496" lon="6.84117">
        <ele>1182.7</ele>
        <time>2026-05-16T09:41:49Z</time>
      </trkpt>
      <trkpt lat="43.79506" lon="6.84096">
        <ele>1181.6</ele>
        <time>2026-05-16T09:41:50Z</time>
      </trkpt>
      <trkpt lat="43.79515" lon="6.84075">
        <ele>1180.5</ele>
        <time>2026-05-16T09:41:51Z</time>
      </trkpt>
      <trkpt lat="43.79526" lon="6.84056">
        <ele>1178.4</ele>
        <time>2026-05-16T09:41:52Z</time>
      </trkpt>
      <trkpt lat="43.79539" lon="6.84039">
        <ele>1176.6</ele>
        <time>2026-05-16T09:41:53Z</time>
      </trkpt>
      <trkpt lat="43.79552" lon="6.84023">
        <ele>1175</ele>
        <time>2026-05-16T09:41:54Z</time>
      </trkpt>
      <trkpt lat="43.79566" lon="6.84009">
        <ele>1174</ele>
        <time>2026-05-16T09:41:55Z</time>
      </trkpt>
      <trkpt lat="43.79581" lon="6.83995">
        <ele>1172.5</ele>
        <time>2026-05-16T09:41:56Z</time>
      </trkpt>
      <trkpt lat="43.79596" lon="6.83981">
        <ele>1171.9</ele>
        <time>2026-05-16T09:41:57Z</time>
      </trkpt>
      <trkpt lat="43.79613" lon="6.83969">
        <ele>1171</ele>
        <time>2026-05-16T09:41:58Z</time>
      </trkpt>
      <trkpt lat="43.79631" lon="6.83959">
        <ele>1170.8</ele>
        <time>2026-05-16T09:41:59Z</time>
      </trkpt>
      <trkpt lat="43.79649" lon="6.83952">
        <ele>1170.4</ele>
        <time>2026-05-16T09:42:00Z</time>
      </trkpt>
      <trkpt lat="43.79668" lon="6.83947">
        <ele>1169.9</ele>
        <time>2026-05-16T09:42:01Z</time>
      </trkpt>
      <trkpt lat="43.79687" lon="6.8394">
        <ele>1169.3</ele>
        <time>2026-05-16T09:42:02Z</time>
      </trkpt>
      <trkpt lat="43.79707" lon="6.83935">
        <ele>1168.7</ele>
        <time>2026-05-16T09:42:03Z</time>
      </trkpt>
      <trkpt lat="43.79726" lon="6.83929">
        <ele>1168.4</ele>
        <time>2026-05-16T09:42:04Z</time>
      </trkpt>
      <trkpt lat="43.79745" lon="6.83923">
        <ele>1168</ele>
        <time>2026-05-16T09:42:05Z</time>
      </trkpt>
      <trkpt lat="43.79764" lon="6.8392">
        <ele>1167.9</ele>
        <time>2026-05-16T09:42:06Z</time>
      </trkpt>
      <trkpt lat="43.79783" lon="6.83918">
        <ele>1168</ele>
        <time>2026-05-16T09:42:07Z</time>
      </trkpt>
      <trkpt lat="43.79803" lon="6.83917">
        <ele>1168</ele>
        <time>2026-05-16T09:42:08Z</time>
      </trkpt>
      <trkpt lat="43.79823" lon="6.83917">
        <ele>1168</ele>
        <time>2026-05-16T09:42:09Z</time>
      </trkpt>
      <trkpt lat="43.79842" lon="6.83919">
        <ele>1167.6</ele>
        <time>2026-05-16T09:42:10Z</time>
      </trkpt>
      <trkpt lat="43.7986" lon="6.8392">
        <ele>1166.9</ele>
        <time>2026-05-16T09:42:11Z</time>
      </trkpt>
      <trkpt lat="43.79878" lon="6.83922">
        <ele>1166.8</ele>
        <time>2026-05-16T09:42:12Z</time>
      </trkpt>
      <trkpt lat="43.79896" lon="6.83923">
        <ele>1166.5</ele>
        <time>2026-05-16T09:42:13Z</time>
      </trkpt>
      <trkpt lat="43.79913" lon="6.83923">
        <ele>1165.9</ele>
        <time>2026-05-16T09:42:14Z</time>
      </trkpt>
      <trkpt lat="43.7993" lon="6.83922">
        <ele>1165.4</ele>
        <time>2026-05-16T09:42:15Z</time>
      </trkpt>
      <trkpt lat="43.79945" lon="6.83918">
        <ele>1165</ele>
        <time>2026-05-16T09:42:16Z</time>
      </trkpt>
      <trkpt lat="43.7996" lon="6.83911">
        <ele>1164.6</ele>
        <time>2026-05-16T09:42:17Z</time>
      </trkpt>
      <trkpt lat="43.79973" lon="6.83902">
        <ele>1164.5</ele>
        <time>2026-05-16T09:42:18Z</time>
      </trkpt>
      <trkpt lat="43.79985" lon="6.83892">
        <ele>1164.1</ele>
        <time>2026-05-16T09:42:19Z</time>
      </trkpt>
      <trkpt lat="43.79993" lon="6.83884">
        <ele>1163.7</ele>
        <time>2026-05-16T09:42:20Z</time>
      </trkpt>
      <trkpt lat="43.80001" lon="6.83876">
        <ele>1163.5</ele>
        <time>2026-05-16T09:42:21Z</time>
      </trkpt>
      <trkpt lat="43.80007" lon="6.83868">
        <ele>1163.8</ele>
        <time>2026-05-16T09:42:22Z</time>
      </trkpt>
      <trkpt lat="43.80012" lon="6.8386">
        <ele>1163.6</ele>
        <time>2026-05-16T09:42:23Z</time>
      </trkpt>
      <trkpt lat="43.80016" lon="6.83853">
        <ele>1163.7</ele>
        <time>2026-05-16T09:42:24Z</time>
      </trkpt>
      <trkpt lat="43.80019" lon="6.83848">
        <ele>1163.8</ele>
        <time>2026-05-16T09:42:25Z</time>
      </trkpt>
      <trkpt lat="43.80021" lon="6.83844">
        <ele>1163.9</ele>
        <time>2026-05-16T09:42:26Z</time>
      </trkpt>
      <trkpt lat="43.80023" lon="6.83841">
        <ele>1163.9</ele>
        <time>2026-05-16T09:42:27Z</time>
      </trkpt>
      <trkpt lat="43.80025" lon="6.83837">
        <ele>1164</ele>
        <time>2026-05-16T09:42:28Z</time>
      </trkpt>
      <trkpt lat="43.80027" lon="6.83834">
        <ele>1164</ele>
        <time>2026-05-16T09:42:29Z</time>
      </trkpt>
      <trkpt lat="43.80029" lon="6.8383">
        <ele>1164.1</ele>
        <time>2026-05-16T09:42:30Z</time>
      </trkpt>
      <trkpt lat="43.80032" lon="6.83825">
        <ele>1164.2</ele>
        <time>2026-05-16T09:42:31Z</time>
      </trkpt>
      <trkpt lat="43.80034" lon="6.83821">
        <ele>1164.2</ele>
        <time>2026-05-16T09:42:32Z</time>
      </trkpt>
      <trkpt lat="43.80037" lon="6.83817">
        <ele>1164.2</ele>
        <time>2026-05-16T09:42:33Z</time>
      </trkpt>
      <trkpt lat="43.80039" lon="6.83815">
        <ele>1164.1</ele>
        <time>2026-05-16T09:42:34Z</time>
      </trkpt>
      <trkpt lat="43.80042" lon="6.83812">
        <ele>1164</ele>
        <time>2026-05-16T09:42:35Z</time>
      </trkpt>
      <trkpt lat="43.80045" lon="6.8381">
        <ele>1163.8</ele>
        <time>2026-05-16T09:42:36Z</time>
      </trkpt>
      <trkpt lat="43.80048" lon="6.83808">
        <ele>1163.6</ele>
        <time>2026-05-16T09:42:37Z</time>
      </trkpt>
      <trkpt lat="43.80053" lon="6.83812">
        <ele>1163.4</ele>
        <time>2026-05-16T09:42:38Z</time>
      </trkpt>
      <trkpt lat="43.80059" lon="6.83815">
        <ele>1163.4</ele>
        <time>2026-05-16T09:42:39Z</time>
      </trkpt>
      <trkpt lat="43.80065" lon="6.83821">
        <ele>1163.7</ele>
        <time>2026-05-16T09:42:40Z</time>
      </trkpt>
      <trkpt lat="43.80071" lon="6.83826">
        <ele>1164.1</ele>
        <time>2026-05-16T09:42:41Z</time>
      </trkpt>
      <trkpt lat="43.80078" lon="6.83831">
        <ele>1164.7</ele>
        <time>2026-05-16T09:42:42Z</time>
      </trkpt>
      <trkpt lat="43.80085" lon="6.83837">
        <ele>1165.3</ele>
        <time>2026-05-16T09:42:43Z</time>
      </trkpt>
      <trkpt lat="43.80092" lon="6.83844">
        <ele>1165.7</ele>
        <time>2026-05-16T09:42:44Z</time>
      </trkpt>
      <trkpt lat="43.801" lon="6.83853">
        <ele>1166.1</ele>
        <time>2026-05-16T09:42:45Z</time>
      </trkpt>
      <trkpt lat="43.80106" lon="6.83865">
        <ele>1166.7</ele>
        <time>2026-05-16T09:42:46Z</time>
      </trkpt>
      <trkpt lat="43.80112" lon="6.83877">
        <ele>1167.1</ele>
        <time>2026-05-16T09:42:47Z</time>
      </trkpt>
      <trkpt lat="43.80118" lon="6.83888">
        <ele>1167.2</ele>
        <time>2026-05-16T09:42:48Z</time>
      </trkpt>
      <trkpt lat="43.80124" lon="6.839">
        <ele>1167.4</ele>
        <time>2026-05-16T09:42:49Z</time>
      </trkpt>
      <trkpt lat="43.8013" lon="6.83912">
        <ele>1167.6</ele>
        <time>2026-05-16T09:42:50Z</time>
      </trkpt>
      <trkpt lat="43.80135" lon="6.83924">
        <ele>1167.7</ele>
        <time>2026-05-16T09:42:51Z</time>
      </trkpt>
      <trkpt lat="43.80141" lon="6.83937">
        <ele>1167.6</ele>
        <time>2026-05-16T09:42:52Z</time>
      </trkpt>
      <trkpt lat="43.80146" lon="6.83951">
        <ele>1168.2</ele>
        <time>2026-05-16T09:42:53Z</time>
      </trkpt>
      <trkpt lat="43.80151" lon="6.83966">
        <ele>1168.8</ele>
        <time>2026-05-16T09:42:54Z</time>
      </trkpt>
      <trkpt lat="43.80157" lon="6.83982">
        <ele>1169.2</ele>
        <time>2026-05-16T09:42:55Z</time>
      </trkpt>
      <trkpt lat="43.80163" lon="6.84">
        <ele>1169.4</ele>
        <time>2026-05-16T09:42:56Z</time>
      </trkpt>
      <trkpt lat="43.80169" lon="6.84017">
        <ele>1169.5</ele>
        <time>2026-05-16T09:42:57Z</time>
      </trkpt>
      <trkpt lat="43.80175" lon="6.84035">
        <ele>1170</ele>
        <time>2026-05-16T09:42:58Z</time>
      </trkpt>
      <trkpt lat="43.80181" lon="6.84053">
        <ele>1170.4</ele>
        <time>2026-05-16T09:42:59Z</time>
      </trkpt>
      <trkpt lat="43.80186" lon="6.84073">
        <ele>1171.1</ele>
        <time>2026-05-16T09:43:00Z</time>
      </trkpt>
      <trkpt lat="43.80191" lon="6.84093">
        <ele>1171.6</ele>
        <time>2026-05-16T09:43:01Z</time>
      </trkpt>
      <trkpt lat="43.80197" lon="6.84115">
        <ele>1172</ele>
        <time>2026-05-16T09:43:02Z</time>
      </trkpt>
      <trkpt lat="43.80201" lon="6.84136">
        <ele>1172.4</ele>
        <time>2026-05-16T09:43:03Z</time>
      </trkpt>
      <trkpt lat="43.80205" lon="6.84157">
        <ele>1172.9</ele>
        <time>2026-05-16T09:43:04Z</time>
      </trkpt>
      <trkpt lat="43.80208" lon="6.84179">
        <ele>1173.2</ele>
        <time>2026-05-16T09:43:05Z</time>
      </trkpt>
      <trkpt lat="43.80211" lon="6.84201">
        <ele>1173.5</ele>
        <time>2026-05-16T09:43:06Z</time>
      </trkpt>
      <trkpt lat="43.80214" lon="6.84224">
        <ele>1173.6</ele>
        <time>2026-05-16T09:43:07Z</time>
      </trkpt>
      <trkpt lat="43.80216" lon="6.84246">
        <ele>1173.4</ele>
        <time>2026-05-16T09:43:08Z</time>
      </trkpt>
      <trkpt lat="43.80218" lon="6.84267">
        <ele>1173.3</ele>
        <time>2026-05-16T09:43:09Z</time>
      </trkpt>
      <trkpt lat="43.80219" lon="6.84288">
        <ele>1173.2</ele>
        <time>2026-05-16T09:43:10Z</time>
      </trkpt>
      <trkpt lat="43.80221" lon="6.84308">
        <ele>1173.1</ele>
        <time>2026-05-16T09:43:11Z</time>
      </trkpt>
      <trkpt lat="43.80223" lon="6.84327">
        <ele>1173</ele>
        <time>2026-05-16T09:43:12Z</time>
      </trkpt>
      <trkpt lat="43.80224" lon="6.84345">
        <ele>1172.9</ele>
        <time>2026-05-16T09:43:13Z</time>
      </trkpt>
      <trkpt lat="43.80225" lon="6.84363">
        <ele>1172.9</ele>
        <time>2026-05-16T09:43:14Z</time>
      </trkpt>
      <trkpt lat="43.80227" lon="6.8438">
        <ele>1172.7</ele>
        <time>2026-05-16T09:43:15Z</time>
      </trkpt>
      <trkpt lat="43.80228" lon="6.84398">
        <ele>1172.6</ele>
        <time>2026-05-16T09:43:16Z</time>
      </trkpt>
      <trkpt lat="43.8023" lon="6.84417">
        <ele>1172.4</ele>
        <time>2026-05-16T09:43:17Z</time>
      </trkpt>
      <trkpt lat="43.80231" lon="6.84437">
        <ele>1172.1</ele>
        <time>2026-05-16T09:43:18Z</time>
      </trkpt>
      <trkpt lat="43.80233" lon="6.84458">
        <ele>1171.5</ele>
        <time>2026-05-16T09:43:19Z</time>
      </trkpt>
      <trkpt lat="43.80235" lon="6.8448">
        <ele>1171.1</ele>
        <time>2026-05-16T09:43:20Z</time>
      </trkpt>
      <trkpt lat="43.80237" lon="6.84504">
        <ele>1170.7</ele>
        <time>2026-05-16T09:43:21Z</time>
      </trkpt>
      <trkpt lat="43.80239" lon="6.84529">
        <ele>1169.4</ele>
        <time>2026-05-16T09:43:22Z</time>
      </trkpt>
      <trkpt lat="43.80242" lon="6.84554">
        <ele>1169</ele>
        <time>2026-05-16T09:43:23Z</time>
      </trkpt>
      <trkpt lat="43.80247" lon="6.8458">
        <ele>1168.9</ele>
        <time>2026-05-16T09:43:24Z</time>
      </trkpt>
      <trkpt lat="43.80254" lon="6.84607">
        <ele>1168.3</ele>
        <time>2026-05-16T09:43:25Z</time>
      </trkpt>
      <trkpt lat="43.80261" lon="6.84633">
        <ele>1168.1</ele>
        <time>2026-05-16T09:43:26Z</time>
      </trkpt>
      <trkpt lat="43.80269" lon="6.8466">
        <ele>1168</ele>
        <time>2026-05-16T09:43:27Z</time>
      </trkpt>
      <trkpt lat="43.80277" lon="6.84687">
        <ele>1168</ele>
        <time>2026-05-16T09:43:28Z</time>
      </trkpt>
      <trkpt lat="43.80285" lon="6.84714">
        <ele>1168</ele>
        <time>2026-05-16T09:43:29Z</time>
      </trkpt>
      <trkpt lat="43.80295" lon="6.84741">
        <ele>1168.7</ele>
        <time>2026-05-16T09:43:30Z</time>
      </trkpt>
      <trkpt lat="43.80305" lon="6.84769">
        <ele>1169.7</ele>
        <time>2026-05-16T09:43:31Z</time>
      </trkpt>
      <trkpt lat="43.80316" lon="6.84797">
        <ele>1170.7</ele>
        <time>2026-05-16T09:43:32Z</time>
      </trkpt>
      <trkpt lat="43.80326" lon="6.84826">
        <ele>1171.5</ele>
        <time>2026-05-16T09:43:33Z</time>
      </trkpt>
      <trkpt lat="43.80336" lon="6.84855">
        <ele>1171.6</ele>
        <time>2026-05-16T09:43:34Z</time>
      </trkpt>
      <trkpt lat="43.80346" lon="6.84885">
        <ele>1171.9</ele>
        <time>2026-05-16T09:43:35Z</time>
      </trkpt>
      <trkpt lat="43.80356" lon="6.84913">
        <ele>1172.4</ele>
        <time>2026-05-16T09:43:36Z</time>
      </trkpt>
      <trkpt lat="43.80366" lon="6.84942">
        <ele>1172.4</ele>
        <time>2026-05-16T09:43:37Z</time>
      </trkpt>
      <trkpt lat="43.80375" lon="6.8497">
        <ele>1172.4</ele>
        <time>2026-05-16T09:43:38Z</time>
      </trkpt>
      <trkpt lat="43.80385" lon="6.84999">
        <ele>1172.2</ele>
        <time>2026-05-16T09:43:39Z</time>
      </trkpt>
      <trkpt lat="43.80394" lon="6.85029">
        <ele>1172.9</ele>
        <time>2026-05-16T09:43:40Z</time>
      </trkpt>
      <trkpt lat="43.80404" lon="6.85059">
        <ele>1173</ele>
        <time>2026-05-16T09:43:41Z</time>
      </trkpt>
      <trkpt lat="43.80414" lon="6.85088">
        <ele>1173.2</ele>
        <time>2026-05-16T09:43:42Z</time>
      </trkpt>
      <trkpt lat="43.80424" lon="6.85119">
        <ele>1172.9</ele>
        <time>2026-05-16T09:43:43Z</time>
      </trkpt>
      <trkpt lat="43.80434" lon="6.8515">
        <ele>1173</ele>
        <time>2026-05-16T09:43:44Z</time>
      </trkpt>
      <trkpt lat="43.80444" lon="6.85181">
        <ele>1173.5</ele>
        <time>2026-05-16T09:43:45Z</time>
      </trkpt>
      <trkpt lat="43.80454" lon="6.85212">
        <ele>1175</ele>
        <time>2026-05-16T09:43:46Z</time>
      </trkpt>
      <trkpt lat="43.80465" lon="6.85243">
        <ele>1176</ele>
        <time>2026-05-16T09:43:47Z</time>
      </trkpt>
      <trkpt lat="43.80476" lon="6.85273">
        <ele>1176.7</ele>
        <time>2026-05-16T09:43:48Z</time>
      </trkpt>
      <trkpt lat="43.80488" lon="6.85303">
        <ele>1177.3</ele>
        <time>2026-05-16T09:43:49Z</time>
      </trkpt>
      <trkpt lat="43.805" lon="6.85333">
        <ele>1177</ele>
        <time>2026-05-16T09:43:50Z</time>
      </trkpt>
      <trkpt lat="43.80513" lon="6.85363">
        <ele>1177.5</ele>
        <time>2026-05-16T09:43:51Z</time>
      </trkpt>
      <trkpt lat="43.80526" lon="6.85393">
        <ele>1177.2</ele>
        <time>2026-05-16T09:43:52Z</time>
      </trkpt>
      <trkpt lat="43.8054" lon="6.85423">
        <ele>1177.7</ele>
        <time>2026-05-16T09:43:53Z</time>
      </trkpt>
      <trkpt lat="43.80553" lon="6.85453">
        <ele>1177.5</ele>
        <time>2026-05-16T09:43:54Z</time>
      </trkpt>
      <trkpt lat="43.80567" lon="6.85483">
        <ele>1177.8</ele>
        <time>2026-05-16T09:43:55Z</time>
      </trkpt>
      <trkpt lat="43.80581" lon="6.85513">
        <ele>1177.6</ele>
        <time>2026-05-16T09:43:56Z</time>
      </trkpt>
      <trkpt lat="43.80594" lon="6.85544">
        <ele>1178.2</ele>
        <time>2026-05-16T09:43:57Z</time>
      </trkpt>
      <trkpt lat="43.80607" lon="6.85574">
        <ele>1178.1</ele>
        <time>2026-05-16T09:43:58Z</time>
      </trkpt>
      <trkpt lat="43.8062" lon="6.85603">
        <ele>1178.5</ele>
        <time>2026-05-16T09:43:59Z</time>
      </trkpt>
      <trkpt lat="43.80634" lon="6.85632">
        <ele>1178.8</ele>
        <time>2026-05-16T09:44:00Z</time>
      </trkpt>
      <trkpt lat="43.80647" lon="6.85661">
        <ele>1178.9</ele>
        <time>2026-05-16T09:44:01Z</time>
      </trkpt>
      <trkpt lat="43.80662" lon="6.85689">
        <ele>1179.1</ele>
        <time>2026-05-16T09:44:02Z</time>
      </trkpt>
      <trkpt lat="43.80677" lon="6.85716">
        <ele>1179.8</ele>
        <time>2026-05-16T09:44:03Z</time>
      </trkpt>
      <trkpt lat="43.80692" lon="6.85744">
        <ele>1180.1</ele>
        <time>2026-05-16T09:44:04Z</time>
      </trkpt>
      <trkpt lat="43.80707" lon="6.85772">
        <ele>1180.8</ele>
        <time>2026-05-16T09:44:05Z</time>
      </trkpt>
      <trkpt lat="43.80721" lon="6.858">
        <ele>1181.8</ele>
        <time>2026-05-16T09:44:06Z</time>
      </trkpt>
      <trkpt lat="43.80736" lon="6.85827">
        <ele>1182.8</ele>
        <time>2026-05-16T09:44:07Z</time>
      </trkpt>
      <trkpt lat="43.80752" lon="6.85854">
        <ele>1183.7</ele>
        <time>2026-05-16T09:44:08Z</time>
      </trkpt>
      <trkpt lat="43.80766" lon="6.85879">
        <ele>1184.4</ele>
        <time>2026-05-16T09:44:09Z</time>
      </trkpt>
      <trkpt lat="43.8078" lon="6.85904">
        <ele>1185.1</ele>
        <time>2026-05-16T09:44:10Z</time>
      </trkpt>
      <trkpt lat="43.80793" lon="6.85929">
        <ele>1186</ele>
        <time>2026-05-16T09:44:11Z</time>
      </trkpt>
      <trkpt lat="43.80803" lon="6.85954">
        <ele>1186.9</ele>
        <time>2026-05-16T09:44:12Z</time>
      </trkpt>
      <trkpt lat="43.80811" lon="6.85979">
        <ele>1187.2</ele>
        <time>2026-05-16T09:44:13Z</time>
      </trkpt>
      <trkpt lat="43.80817" lon="6.86001">
        <ele>1187.4</ele>
        <time>2026-05-16T09:44:14Z</time>
      </trkpt>
      <trkpt lat="43.80821" lon="6.8602">
        <ele>1187.2</ele>
        <time>2026-05-16T09:44:15Z</time>
      </trkpt>
      <trkpt lat="43.80826" lon="6.86038">
        <ele>1186.6</ele>
        <time>2026-05-16T09:44:16Z</time>
      </trkpt>
      <trkpt lat="43.80832" lon="6.86056">
        <ele>1186</ele>
        <time>2026-05-16T09:44:17Z</time>
      </trkpt>
      <trkpt lat="43.80838" lon="6.86072">
        <ele>1185</ele>
        <time>2026-05-16T09:44:18Z</time>
      </trkpt>
      <trkpt lat="43.80845" lon="6.8609">
        <ele>1183.9</ele>
        <time>2026-05-16T09:44:19Z</time>
      </trkpt>
      <trkpt lat="43.80852" lon="6.86108">
        <ele>1182.9</ele>
        <time>2026-05-16T09:44:20Z</time>
      </trkpt>
      <trkpt lat="43.80858" lon="6.86126">
        <ele>1182.4</ele>
        <time>2026-05-16T09:44:21Z</time>
      </trkpt>
      <trkpt lat="43.80864" lon="6.86146">
        <ele>1181.9</ele>
        <time>2026-05-16T09:44:22Z</time>
      </trkpt>
      <trkpt lat="43.80869" lon="6.86168">
        <ele>1181</ele>
        <time>2026-05-16T09:44:23Z</time>
      </trkpt>
      <trkpt lat="43.80873" lon="6.8619">
        <ele>1180</ele>
        <time>2026-05-16T09:44:24Z</time>
      </trkpt>
      <trkpt lat="43.80877" lon="6.86213">
        <ele>1178.6</ele>
        <time>2026-05-16T09:44:25Z</time>
      </trkpt>
      <trkpt lat="43.80881" lon="6.86236">
        <ele>1177.2</ele>
        <time>2026-05-16T09:44:26Z</time>
      </trkpt>
      <trkpt lat="43.80887" lon="6.86259">
        <ele>1175.9</ele>
        <time>2026-05-16T09:44:27Z</time>
      </trkpt>
      <trkpt lat="43.80893" lon="6.86281">
        <ele>1174.9</ele>
        <time>2026-05-16T09:44:28Z</time>
      </trkpt>
      <trkpt lat="43.80898" lon="6.86304">
        <ele>1174.7</ele>
        <time>2026-05-16T09:44:29Z</time>
      </trkpt>
      <trkpt lat="43.80902" lon="6.86326">
        <ele>1173.5</ele>
        <time>2026-05-16T09:44:30Z</time>
      </trkpt>
      <trkpt lat="43.80904" lon="6.86349">
        <ele>1172.3</ele>
        <time>2026-05-16T09:44:31Z</time>
      </trkpt>
      <trkpt lat="43.80905" lon="6.86372">
        <ele>1171.7</ele>
        <time>2026-05-16T09:44:32Z</time>
      </trkpt>
      <trkpt lat="43.80904" lon="6.86394">
        <ele>1171.5</ele>
        <time>2026-05-16T09:44:33Z</time>
      </trkpt>
      <trkpt lat="43.80903" lon="6.86416">
        <ele>1171</ele>
        <time>2026-05-16T09:44:34Z</time>
      </trkpt>
      <trkpt lat="43.80901" lon="6.86438">
        <ele>1171.3</ele>
        <time>2026-05-16T09:44:35Z</time>
      </trkpt>
      <trkpt lat="43.80902" lon="6.8646">
        <ele>1170.9</ele>
        <time>2026-05-16T09:44:36Z</time>
      </trkpt>
      <trkpt lat="43.80903" lon="6.86481">
        <ele>1170.2</ele>
        <time>2026-05-16T09:44:37Z</time>
      </trkpt>
      <trkpt lat="43.80905" lon="6.86501">
        <ele>1169.5</ele>
        <time>2026-05-16T09:44:38Z</time>
      </trkpt>
      <trkpt lat="43.80906" lon="6.86521">
        <ele>1168.4</ele>
        <time>2026-05-16T09:44:39Z</time>
      </trkpt>
      <trkpt lat="43.80903" lon="6.86541">
        <ele>1167.8</ele>
        <time>2026-05-16T09:44:40Z</time>
      </trkpt>
      <trkpt lat="43.80898" lon="6.86559">
        <ele>1167.4</ele>
        <time>2026-05-16T09:44:41Z</time>
      </trkpt>
      <trkpt lat="43.80891" lon="6.86578">
        <ele>1167.2</ele>
        <time>2026-05-16T09:44:42Z</time>
      </trkpt>
      <trkpt lat="43.80882" lon="6.86596">
        <ele>1166.9</ele>
        <time>2026-05-16T09:44:43Z</time>
      </trkpt>
      <trkpt lat="43.80872" lon="6.86614">
        <ele>1166.2</ele>
        <time>2026-05-16T09:44:44Z</time>
      </trkpt>
      <trkpt lat="43.80863" lon="6.86634">
        <ele>1166</ele>
        <time>2026-05-16T09:44:45Z</time>
      </trkpt>
      <trkpt lat="43.80854" lon="6.86654">
        <ele>1165.8</ele>
        <time>2026-05-16T09:44:46Z</time>
      </trkpt>
      <trkpt lat="43.80846" lon="6.86675">
        <ele>1165.3</ele>
        <time>2026-05-16T09:44:47Z</time>
      </trkpt>
      <trkpt lat="43.80838" lon="6.86696">
        <ele>1164.4</ele>
        <time>2026-05-16T09:44:48Z</time>
      </trkpt>
      <trkpt lat="43.80834" lon="6.86717">
        <ele>1163.2</ele>
        <time>2026-05-16T09:44:49Z</time>
      </trkpt>
      <trkpt lat="43.80831" lon="6.86738">
        <ele>1162.5</ele>
        <time>2026-05-16T09:44:50Z</time>
      </trkpt>
      <trkpt lat="43.80831" lon="6.86758">
        <ele>1162</ele>
        <time>2026-05-16T09:44:51Z</time>
      </trkpt>
      <trkpt lat="43.80833" lon="6.86779">
        <ele>1160.9</ele>
        <time>2026-05-16T09:44:52Z</time>
      </trkpt>
      <trkpt lat="43.80835" lon="6.86799">
        <ele>1160.8</ele>
        <time>2026-05-16T09:44:53Z</time>
      </trkpt>
      <trkpt lat="43.80838" lon="6.86819">
        <ele>1161.4</ele>
        <time>2026-05-16T09:44:54Z</time>
      </trkpt>
      <trkpt lat="43.8084" lon="6.86839">
        <ele>1161.7</ele>
        <time>2026-05-16T09:44:55Z</time>
      </trkpt>
      <trkpt lat="43.8084" lon="6.86858">
        <ele>1161</ele>
        <time>2026-05-16T09:44:56Z</time>
      </trkpt>
      <trkpt lat="43.80839" lon="6.86879">
        <ele>1160</ele>
        <time>2026-05-16T09:44:57Z</time>
      </trkpt>
      <trkpt lat="43.80837" lon="6.869">
        <ele>1158.7</ele>
        <time>2026-05-16T09:44:58Z</time>
      </trkpt>
      <trkpt lat="43.80834" lon="6.86922">
        <ele>1157.2</ele>
        <time>2026-05-16T09:44:59Z</time>
      </trkpt>
      <trkpt lat="43.80831" lon="6.86944">
        <ele>1156.7</ele>
        <time>2026-05-16T09:45:00Z</time>
      </trkpt>
      <trkpt lat="43.80826" lon="6.86965">
        <ele>1156.2</ele>
        <time>2026-05-16T09:45:01Z</time>
      </trkpt>
      <trkpt lat="43.80821" lon="6.86986">
        <ele>1155.9</ele>
        <time>2026-05-16T09:45:02Z</time>
      </trkpt>
      <trkpt lat="43.80816" lon="6.87007">
        <ele>1155.5</ele>
        <time>2026-05-16T09:45:03Z</time>
      </trkpt>
      <trkpt lat="43.80813" lon="6.87028">
        <ele>1155.1</ele>
        <time>2026-05-16T09:45:04Z</time>
      </trkpt>
      <trkpt lat="43.8081" lon="6.8705">
        <ele>1154.5</ele>
        <time>2026-05-16T09:45:05Z</time>
      </trkpt>
      <trkpt lat="43.80807" lon="6.87071">
        <ele>1153.6</ele>
        <time>2026-05-16T09:45:06Z</time>
      </trkpt>
      <trkpt lat="43.80805" lon="6.87093">
        <ele>1153.3</ele>
        <time>2026-05-16T09:45:07Z</time>
      </trkpt>
      <trkpt lat="43.80802" lon="6.87114">
        <ele>1153.7</ele>
        <time>2026-05-16T09:45:08Z</time>
      </trkpt>
      <trkpt lat="43.808" lon="6.87135">
        <ele>1153.9</ele>
        <time>2026-05-16T09:45:09Z</time>
      </trkpt>
      <trkpt lat="43.808" lon="6.87156">
        <ele>1153.9</ele>
        <time>2026-05-16T09:45:10Z</time>
      </trkpt>
      <trkpt lat="43.80801" lon="6.87176">
        <ele>1153.4</ele>
        <time>2026-05-16T09:45:11Z</time>
      </trkpt>
      <trkpt lat="43.80804" lon="6.87198">
        <ele>1152.5</ele>
        <time>2026-05-16T09:45:12Z</time>
      </trkpt>
      <trkpt lat="43.80808" lon="6.8722">
        <ele>1151.8</ele>
        <time>2026-05-16T09:45:13Z</time>
      </trkpt>
      <trkpt lat="43.80812" lon="6.87241">
        <ele>1151</ele>
        <time>2026-05-16T09:45:14Z</time>
      </trkpt>
      <trkpt lat="43.80815" lon="6.87263">
        <ele>1149.9</ele>
        <time>2026-05-16T09:45:15Z</time>
      </trkpt>
      <trkpt lat="43.80817" lon="6.87286">
        <ele>1148.9</ele>
        <time>2026-05-16T09:45:16Z</time>
      </trkpt>
      <trkpt lat="43.80818" lon="6.8731">
        <ele>1148.3</ele>
        <time>2026-05-16T09:45:17Z</time>
      </trkpt>
      <trkpt lat="43.80819" lon="6.87335">
        <ele>1147.9</ele>
        <time>2026-05-16T09:45:18Z</time>
      </trkpt>
      <trkpt lat="43.8082" lon="6.8736">
        <ele>1147.1</ele>
        <time>2026-05-16T09:45:19Z</time>
      </trkpt>
      <trkpt lat="43.8082" lon="6.87386">
        <ele>1146.6</ele>
        <time>2026-05-16T09:45:20Z</time>
      </trkpt>
      <trkpt lat="43.80822" lon="6.87411">
        <ele>1146.9</ele>
        <time>2026-05-16T09:45:21Z</time>
      </trkpt>
      <trkpt lat="43.80825" lon="6.87437">
        <ele>1146.8</ele>
        <time>2026-05-16T09:45:22Z</time>
      </trkpt>
      <trkpt lat="43.8083" lon="6.87463">
        <ele>1146.2</ele>
        <time>2026-05-16T09:45:23Z</time>
      </trkpt>
      <trkpt lat="43.80835" lon="6.87489">
        <ele>1146</ele>
        <time>2026-05-16T09:45:24Z</time>
      </trkpt>
      <trkpt lat="43.8084" lon="6.87516">
        <ele>1145.2</ele>
        <time>2026-05-16T09:45:25Z</time>
      </trkpt>
      <trkpt lat="43.80846" lon="6.87542">
        <ele>1144.3</ele>
        <time>2026-05-16T09:45:26Z</time>
      </trkpt>
      <trkpt lat="43.80854" lon="6.87566">
        <ele>1143.7</ele>
        <time>2026-05-16T09:45:27Z</time>
      </trkpt>
      <trkpt lat="43.80862" lon="6.8759">
        <ele>1143</ele>
        <time>2026-05-16T09:45:28Z</time>
      </trkpt>
      <trkpt lat="43.80871" lon="6.87614">
        <ele>1143</ele>
        <time>2026-05-16T09:45:29Z</time>
      </trkpt>
      <trkpt lat="43.80879" lon="6.87638">
        <ele>1143</ele>
        <time>2026-05-16T09:45:30Z</time>
      </trkpt>
      <trkpt lat="43.80884" lon="6.87664">
        <ele>1142.1</ele>
        <time>2026-05-16T09:45:31Z</time>
      </trkpt>
      <trkpt lat="43.80888" lon="6.8769">
        <ele>1142</ele>
        <time>2026-05-16T09:45:32Z</time>
      </trkpt>
      <trkpt lat="43.80891" lon="6.87716">
        <ele>1141.9</ele>
        <time>2026-05-16T09:45:33Z</time>
      </trkpt>
      <trkpt lat="43.80893" lon="6.87743">
        <ele>1141.7</ele>
        <time>2026-05-16T09:45:34Z</time>
      </trkpt>
      <trkpt lat="43.80894" lon="6.87769">
        <ele>1141.1</ele>
        <time>2026-05-16T09:45:35Z</time>
      </trkpt>
      <trkpt lat="43.80894" lon="6.87795">
        <ele>1140.8</ele>
        <time>2026-05-16T09:45:36Z</time>
      </trkpt>
      <trkpt lat="43.80895" lon="6.87821">
        <ele>1140.8</ele>
        <time>2026-05-16T09:45:37Z</time>
      </trkpt>
      <trkpt lat="43.80896" lon="6.87846">
        <ele>1140.7</ele>
        <time>2026-05-16T09:45:38Z</time>
      </trkpt>
      <trkpt lat="43.80897" lon="6.87872">
        <ele>1140.7</ele>
        <time>2026-05-16T09:45:39Z</time>
      </trkpt>
      <trkpt lat="43.80897" lon="6.87898">
        <ele>1140.5</ele>
        <time>2026-05-16T09:45:40Z</time>
      </trkpt>
      <trkpt lat="43.80898" lon="6.87925">
        <ele>1140</ele>
        <time>2026-05-16T09:45:41Z</time>
      </trkpt>
      <trkpt lat="43.80899" lon="6.87952">
        <ele>1139.7</ele>
        <time>2026-05-16T09:45:42Z</time>
      </trkpt>
      <trkpt lat="43.80899" lon="6.87978">
        <ele>1139</ele>
        <time>2026-05-16T09:45:43Z</time>
      </trkpt>
      <trkpt lat="43.80901" lon="6.88004">
        <ele>1139.1</ele>
        <time>2026-05-16T09:45:44Z</time>
      </trkpt>
      <trkpt lat="43.80901" lon="6.88029">
        <ele>1139.5</ele>
        <time>2026-05-16T09:45:45Z</time>
      </trkpt>
      <trkpt lat="43.80902" lon="6.88053">
        <ele>1139.1</ele>
        <time>2026-05-16T09:45:46Z</time>
      </trkpt>
      <trkpt lat="43.80903" lon="6.88077">
        <ele>1139</ele>
        <time>2026-05-16T09:45:47Z</time>
      </trkpt>
      <trkpt lat="43.80903" lon="6.88099">
        <ele>1139.5</ele>
        <time>2026-05-16T09:45:48Z</time>
      </trkpt>
      <trkpt lat="43.80904" lon="6.8812">
        <ele>1139.7</ele>
        <time>2026-05-16T09:45:49Z</time>
      </trkpt>
      <trkpt lat="43.80903" lon="6.88141">
        <ele>1139.5</ele>
        <time>2026-05-16T09:45:50Z</time>
      </trkpt>
      <trkpt lat="43.80902" lon="6.88162">
        <ele>1140</ele>
        <time>2026-05-16T09:45:51Z</time>
      </trkpt>
      <trkpt lat="43.809" lon="6.88181">
        <ele>1140.6</ele>
        <time>2026-05-16T09:45:52Z</time>
      </trkpt>
      <trkpt lat="43.80898" lon="6.88199">
        <ele>1141</ele>
        <time>2026-05-16T09:45:53Z</time>
      </trkpt>
      <trkpt lat="43.80896" lon="6.88216">
        <ele>1141</ele>
        <time>2026-05-16T09:45:54Z</time>
      </trkpt>
      <trkpt lat="43.80894" lon="6.88232">
        <ele>1141.3</ele>
        <time>2026-05-16T09:45:55Z</time>
      </trkpt>
      <trkpt lat="43.80892" lon="6.88246">
        <ele>1141.6</ele>
        <time>2026-05-16T09:45:56Z</time>
      </trkpt>
      <trkpt lat="43.80891" lon="6.88259">
        <ele>1142.1</ele>
        <time>2026-05-16T09:45:57Z</time>
      </trkpt>
      <trkpt lat="43.80889" lon="6.88269">
        <ele>1142.7</ele>
        <time>2026-05-16T09:45:58Z</time>
      </trkpt>
      <trkpt lat="43.80886" lon="6.88279">
        <ele>1143.3</ele>
        <time>2026-05-16T09:45:59Z</time>
      </trkpt>
      <trkpt lat="43.80883" lon="6.88286">
        <ele>1143.6</ele>
        <time>2026-05-16T09:46:00Z</time>
      </trkpt>
      <trkpt lat="43.80879" lon="6.88293">
        <ele>1144.1</ele>
        <time>2026-05-16T09:46:01Z</time>
      </trkpt>
      <trkpt lat="43.80878" lon="6.88299">
        <ele>1144.2</ele>
        <time>2026-05-16T09:46:02Z</time>
      </trkpt>
      <trkpt lat="43.80879" lon="6.88307">
        <ele>1144.1</ele>
        <time>2026-05-16T09:46:03Z</time>
      </trkpt>
      <trkpt lat="43.80885" lon="6.88312">
        <ele>1143.3</ele>
        <time>2026-05-16T09:46:04Z</time>
      </trkpt>
      <trkpt lat="43.80892" lon="6.88313">
        <ele>1142.4</ele>
        <time>2026-05-16T09:46:05Z</time>
      </trkpt>
      <trkpt lat="43.80899" lon="6.88309">
        <ele>1141.8</ele>
        <time>2026-05-16T09:46:06Z</time>
      </trkpt>
      <trkpt lat="43.80908" lon="6.88304">
        <ele>1140.9</ele>
        <time>2026-05-16T09:46:07Z</time>
      </trkpt>
      <trkpt lat="43.80919" lon="6.883">
        <ele>1139.8</ele>
        <time>2026-05-16T09:46:08Z</time>
      </trkpt>
      <trkpt lat="43.8093" lon="6.88297">
        <ele>1139</ele>
        <time>2026-05-16T09:46:09Z</time>
      </trkpt>
      <trkpt lat="43.80943" lon="6.88294">
        <ele>1138.1</ele>
        <time>2026-05-16T09:46:10Z</time>
      </trkpt>
      <trkpt lat="43.80957" lon="6.88291">
        <ele>1137.5</ele>
        <time>2026-05-16T09:46:11Z</time>
      </trkpt>
      <trkpt lat="43.80972" lon="6.88288">
        <ele>1137</ele>
        <time>2026-05-16T09:46:12Z</time>
      </trkpt>
      <trkpt lat="43.80988" lon="6.88284">
        <ele>1136.4</ele>
        <time>2026-05-16T09:46:13Z</time>
      </trkpt>
      <trkpt lat="43.81005" lon="6.88281">
        <ele>1135.8</ele>
        <time>2026-05-16T09:46:14Z</time>
      </trkpt>
      <trkpt lat="43.81023" lon="6.88279">
        <ele>1135.1</ele>
        <time>2026-05-16T09:46:15Z</time>
      </trkpt>
      <trkpt lat="43.81041" lon="6.88279">
        <ele>1135</ele>
        <time>2026-05-16T09:46:16Z</time>
      </trkpt>
      <trkpt lat="43.8106" lon="6.8828">
        <ele>1135</ele>
        <time>2026-05-16T09:46:17Z</time>
      </trkpt>
      <trkpt lat="43.81079" lon="6.88284">
        <ele>1135</ele>
        <time>2026-05-16T09:46:18Z</time>
      </trkpt>
      <trkpt lat="43.81098" lon="6.88288">
        <ele>1135</ele>
        <time>2026-05-16T09:46:19Z</time>
      </trkpt>
      <trkpt lat="43.81118" lon="6.88292">
        <ele>1135</ele>
        <time>2026-05-16T09:46:20Z</time>
      </trkpt>
      <trkpt lat="43.81138" lon="6.88297">
        <ele>1135</ele>
        <time>2026-05-16T09:46:21Z</time>
      </trkpt>
      <trkpt lat="43.81158" lon="6.88301">
        <ele>1135.6</ele>
        <time>2026-05-16T09:46:22Z</time>
      </trkpt>
      <trkpt lat="43.81179" lon="6.88306">
        <ele>1135.5</ele>
        <time>2026-05-16T09:46:23Z</time>
      </trkpt>
      <trkpt lat="43.81199" lon="6.88311">
        <ele>1134.8</ele>
        <time>2026-05-16T09:46:24Z</time>
      </trkpt>
      <trkpt lat="43.8122" lon="6.88313">
        <ele>1134.7</ele>
        <time>2026-05-16T09:46:25Z</time>
      </trkpt>
      <trkpt lat="43.81241" lon="6.88313">
        <ele>1134.7</ele>
        <time>2026-05-16T09:46:26Z</time>
      </trkpt>
      <trkpt lat="43.81262" lon="6.88311">
        <ele>1134.9</ele>
        <time>2026-05-16T09:46:27Z</time>
      </trkpt>
      <trkpt lat="43.81283" lon="6.88309">
        <ele>1135</ele>
        <time>2026-05-16T09:46:28Z</time>
      </trkpt>
      <trkpt lat="43.81303" lon="6.88308">
        <ele>1135</ele>
        <time>2026-05-16T09:46:29Z</time>
      </trkpt>
      <trkpt lat="43.81323" lon="6.88306">
        <ele>1135</ele>
        <time>2026-05-16T09:46:30Z</time>
      </trkpt>
      <trkpt lat="43.81342" lon="6.88305">
        <ele>1135.3</ele>
        <time>2026-05-16T09:46:31Z</time>
      </trkpt>
      <trkpt lat="43.8136" lon="6.88303">
        <ele>1135.9</ele>
        <time>2026-05-16T09:46:32Z</time>
      </trkpt>
      <trkpt lat="43.81376" lon="6.88302">
        <ele>1136.4</ele>
        <time>2026-05-16T09:46:33Z</time>
      </trkpt>
      <trkpt lat="43.81392" lon="6.88302">
        <ele>1137.1</ele>
        <time>2026-05-16T09:46:34Z</time>
      </trkpt>
      <trkpt lat="43.81406" lon="6.88301">
        <ele>1138.1</ele>
        <time>2026-05-16T09:46:35Z</time>
      </trkpt>
      <trkpt lat="43.81419" lon="6.88299">
        <ele>1139</ele>
        <time>2026-05-16T09:46:36Z</time>
      </trkpt>
      <trkpt lat="43.8143" lon="6.88293">
        <ele>1140.2</ele>
        <time>2026-05-16T09:46:37Z</time>
      </trkpt>
      <trkpt lat="43.81438" lon="6.88285">
        <ele>1141.1</ele>
        <time>2026-05-16T09:46:38Z</time>
      </trkpt>
      <trkpt lat="43.81444" lon="6.88275">
        <ele>1141.9</ele>
        <time>2026-05-16T09:46:39Z</time>
      </trkpt>
      <trkpt lat="43.8145" lon="6.88266">
        <ele>1142.6</ele>
        <time>2026-05-16T09:46:40Z</time>
      </trkpt>
      <trkpt lat="43.81455" lon="6.88256">
        <ele>1143.1</ele>
        <time>2026-05-16T09:46:41Z</time>
      </trkpt>
      <trkpt lat="43.81459" lon="6.88247">
        <ele>1143.6</ele>
        <time>2026-05-16T09:46:42Z</time>
      </trkpt>
      <trkpt lat="43.81464" lon="6.88237">
        <ele>1144.1</ele>
        <time>2026-05-16T09:46:43Z</time>
      </trkpt>
      <trkpt lat="43.81469" lon="6.88226">
        <ele>1144.7</ele>
        <time>2026-05-16T09:46:44Z</time>
      </trkpt>
      <trkpt lat="43.81474" lon="6.88217">
        <ele>1145.5</ele>
        <time>2026-05-16T09:46:45Z</time>
      </trkpt>
      <trkpt lat="43.8148" lon="6.88209">
        <ele>1146.7</ele>
        <time>2026-05-16T09:46:46Z</time>
      </trkpt>
      <trkpt lat="43.81487" lon="6.88204">
        <ele>1148.1</ele>
        <time>2026-05-16T09:46:47Z</time>
      </trkpt>
      <trkpt lat="43.81494" lon="6.88202">
        <ele>1149.4</ele>
        <time>2026-05-16T09:46:48Z</time>
      </trkpt>
      <trkpt lat="43.81502" lon="6.88204">
        <ele>1151</ele>
        <time>2026-05-16T09:46:49Z</time>
      </trkpt>
      <trkpt lat="43.8151" lon="6.88211">
        <ele>1152.8</ele>
        <time>2026-05-16T09:46:50Z</time>
      </trkpt>
      <trkpt lat="43.81517" lon="6.88221">
        <ele>1153.5</ele>
        <time>2026-05-16T09:46:51Z</time>
      </trkpt>
      <trkpt lat="43.81525" lon="6.88232">
        <ele>1154.7</ele>
        <time>2026-05-16T09:46:52Z</time>
      </trkpt>
      <trkpt lat="43.81532" lon="6.88244">
        <ele>1156.2</ele>
        <time>2026-05-16T09:46:53Z</time>
      </trkpt>
      <trkpt lat="43.81537" lon="6.88259">
        <ele>1157.4</ele>
        <time>2026-05-16T09:46:54Z</time>
      </trkpt>
      <trkpt lat="43.81539" lon="6.88273">
        <ele>1157.8</ele>
        <time>2026-05-16T09:46:55Z</time>
      </trkpt>
      <trkpt lat="43.81539" lon="6.8829">
        <ele>1157.9</ele>
        <time>2026-05-16T09:46:56Z</time>
      </trkpt>
      <trkpt lat="43.81537" lon="6.88308">
        <ele>1157.7</ele>
        <time>2026-05-16T09:46:57Z</time>
      </trkpt>
      <trkpt lat="43.81536" lon="6.88325">
        <ele>1157.9</ele>
        <time>2026-05-16T09:46:58Z</time>
      </trkpt>
      <trkpt lat="43.81535" lon="6.88344">
        <ele>1158.2</ele>
        <time>2026-05-16T09:46:59Z</time>
      </trkpt>
      <trkpt lat="43.81535" lon="6.88362">
        <ele>1158.9</ele>
        <time>2026-05-16T09:47:00Z</time>
      </trkpt>
      <trkpt lat="43.81536" lon="6.88381">
        <ele>1159.8</ele>
        <time>2026-05-16T09:47:01Z</time>
      </trkpt>
      <trkpt lat="43.81538" lon="6.88401">
        <ele>1161</ele>
        <time>2026-05-16T09:47:02Z</time>
      </trkpt>
      <trkpt lat="43.81539" lon="6.88422">
        <ele>1161.8</ele>
        <time>2026-05-16T09:47:03Z</time>
      </trkpt>
      <trkpt lat="43.8154" lon="6.88444">
        <ele>1162.1</ele>
        <time>2026-05-16T09:47:04Z</time>
      </trkpt>
      <trkpt lat="43.81541" lon="6.88466">
        <ele>1162.7</ele>
        <time>2026-05-16T09:47:05Z</time>
      </trkpt>
      <trkpt lat="43.81543" lon="6.8849">
        <ele>1164.3</ele>
        <time>2026-05-16T09:47:06Z</time>
      </trkpt>
      <trkpt lat="43.81545" lon="6.88514">
        <ele>1165.8</ele>
        <time>2026-05-16T09:47:07Z</time>
      </trkpt>
      <trkpt lat="43.81548" lon="6.8854">
        <ele>1168</ele>
        <time>2026-05-16T09:47:08Z</time>
      </trkpt>
      <trkpt lat="43.81551" lon="6.88566">
        <ele>1170.2</ele>
        <time>2026-05-16T09:47:09Z</time>
      </trkpt>
      <trkpt lat="43.81555" lon="6.88591">
        <ele>1171.6</ele>
        <time>2026-05-16T09:47:10Z</time>
      </trkpt>
      <trkpt lat="43.81559" lon="6.88616">
        <ele>1171.7</ele>
        <time>2026-05-16T09:47:11Z</time>
      </trkpt>
      <trkpt lat="43.81563" lon="6.88641">
        <ele>1172.7</ele>
        <time>2026-05-16T09:47:12Z</time>
      </trkpt>
      <trkpt lat="43.81568" lon="6.88667">
        <ele>1174.7</ele>
        <time>2026-05-16T09:47:13Z</time>
      </trkpt>
      <trkpt lat="43.81572" lon="6.88693">
        <ele>1176.5</ele>
        <time>2026-05-16T09:47:14Z</time>
      </trkpt>
      <trkpt lat="43.81577" lon="6.8872">
        <ele>1179.5</ele>
        <time>2026-05-16T09:47:15Z</time>
      </trkpt>
      <trkpt lat="43.81582" lon="6.88747">
        <ele>1181.6</ele>
        <time>2026-05-16T09:47:16Z</time>
      </trkpt>
      <trkpt lat="43.81586" lon="6.88773">
        <ele>1183.2</ele>
        <time>2026-05-16T09:47:17Z</time>
      </trkpt>
      <trkpt lat="43.81592" lon="6.88799">
        <ele>1184.5</ele>
        <time>2026-05-16T09:47:18Z</time>
      </trkpt>
      <trkpt lat="43.81598" lon="6.88824">
        <ele>1186.3</ele>
        <time>2026-05-16T09:47:19Z</time>
      </trkpt>
      <trkpt lat="43.81604" lon="6.88848">
        <ele>1187.9</ele>
        <time>2026-05-16T09:47:20Z</time>
      </trkpt>
      <trkpt lat="43.81609" lon="6.8887">
        <ele>1189</ele>
        <time>2026-05-16T09:47:21Z</time>
      </trkpt>
      <trkpt lat="43.81615" lon="6.8889">
        <ele>1190.6</ele>
        <time>2026-05-16T09:47:22Z</time>
      </trkpt>
      <trkpt lat="43.8162" lon="6.8891">
        <ele>1192</ele>
        <time>2026-05-16T09:47:23Z</time>
      </trkpt>
      <trkpt lat="43.81626" lon="6.88929">
        <ele>1193.6</ele>
        <time>2026-05-16T09:47:24Z</time>
      </trkpt>
      <trkpt lat="43.81631" lon="6.88948">
        <ele>1195</ele>
        <time>2026-05-16T09:47:25Z</time>
      </trkpt>
      <trkpt lat="43.81637" lon="6.88966">
        <ele>1196.5</ele>
        <time>2026-05-16T09:47:26Z</time>
      </trkpt>
      <trkpt lat="43.81642" lon="6.88983">
        <ele>1197.4</ele>
        <time>2026-05-16T09:47:27Z</time>
      </trkpt>
      <trkpt lat="43.81647" lon="6.89">
        <ele>1198.2</ele>
        <time>2026-05-16T09:47:28Z</time>
      </trkpt>
      <trkpt lat="43.81653" lon="6.89017">
        <ele>1199.3</ele>
        <time>2026-05-16T09:47:29Z</time>
      </trkpt>
      <trkpt lat="43.81659" lon="6.89035">
        <ele>1200.4</ele>
        <time>2026-05-16T09:47:30Z</time>
      </trkpt>
      <trkpt lat="43.81665" lon="6.89052">
        <ele>1201.6</ele>
        <time>2026-05-16T09:47:31Z</time>
      </trkpt>
      <trkpt lat="43.81671" lon="6.89068">
        <ele>1202.9</ele>
        <time>2026-05-16T09:47:32Z</time>
      </trkpt>
      <trkpt lat="43.81677" lon="6.89085">
        <ele>1204.1</ele>
        <time>2026-05-16T09:47:33Z</time>
      </trkpt>
      <trkpt lat="43.81683" lon="6.89101">
        <ele>1205.1</ele>
        <time>2026-05-16T09:47:34Z</time>
      </trkpt>
      <trkpt lat="43.81689" lon="6.89117">
        <ele>1206.2</ele>
        <time>2026-05-16T09:47:35Z</time>
      </trkpt>
      <trkpt lat="43.81694" lon="6.89133">
        <ele>1206.9</ele>
        <time>2026-05-16T09:47:36Z</time>
      </trkpt>
      <trkpt lat="43.817" lon="6.8915">
        <ele>1207.8</ele>
        <time>2026-05-16T09:47:37Z</time>
      </trkpt>
      <trkpt lat="43.81706" lon="6.89167">
        <ele>1208.7</ele>
        <time>2026-05-16T09:47:38Z</time>
      </trkpt>
      <trkpt lat="43.81712" lon="6.89184">
        <ele>1210.2</ele>
        <time>2026-05-16T09:47:39Z</time>
      </trkpt>
      <trkpt lat="43.81718" lon="6.89201">
        <ele>1211.6</ele>
        <time>2026-05-16T09:47:40Z</time>
      </trkpt>
      <trkpt lat="43.81724" lon="6.89218">
        <ele>1213.1</ele>
        <time>2026-05-16T09:47:41Z</time>
      </trkpt>
      <trkpt lat="43.8173" lon="6.89234">
        <ele>1214.2</ele>
        <time>2026-05-16T09:47:42Z</time>
      </trkpt>
      <trkpt lat="43.81736" lon="6.89249">
        <ele>1215.5</ele>
        <time>2026-05-16T09:47:43Z</time>
      </trkpt>
      <trkpt lat="43.81742" lon="6.89264">
        <ele>1216.6</ele>
        <time>2026-05-16T09:47:44Z</time>
      </trkpt>
      <trkpt lat="43.81748" lon="6.89279">
        <ele>1217.6</ele>
        <time>2026-05-16T09:47:45Z</time>
      </trkpt>
      <trkpt lat="43.81754" lon="6.89293">
        <ele>1218</ele>
        <time>2026-05-16T09:47:46Z</time>
      </trkpt>
      <trkpt lat="43.8176" lon="6.89308">
        <ele>1218.5</ele>
        <time>2026-05-16T09:47:47Z</time>
      </trkpt>
      <trkpt lat="43.81767" lon="6.89323">
        <ele>1219.8</ele>
        <time>2026-05-16T09:47:48Z</time>
      </trkpt>
      <trkpt lat="43.81773" lon="6.89337">
        <ele>1221.1</ele>
        <time>2026-05-16T09:47:49Z</time>
      </trkpt>
      <trkpt lat="43.8178" lon="6.89352">
        <ele>1222.4</ele>
        <time>2026-05-16T09:47:50Z</time>
      </trkpt>
      <trkpt lat="43.81787" lon="6.89368">
        <ele>1223.5</ele>
        <time>2026-05-16T09:47:51Z</time>
      </trkpt>
      <trkpt lat="43.81793" lon="6.89383">
        <ele>1224.4</ele>
        <time>2026-05-16T09:47:52Z</time>
      </trkpt>
      <trkpt lat="43.818" lon="6.89398">
        <ele>1225.5</ele>
        <time>2026-05-16T09:47:53Z</time>
      </trkpt>
      <trkpt lat="43.81807" lon="6.89415">
        <ele>1226.3</ele>
        <time>2026-05-16T09:47:54Z</time>
      </trkpt>
      <trkpt lat="43.81814" lon="6.89431">
        <ele>1227.2</ele>
        <time>2026-05-16T09:47:55Z</time>
      </trkpt>
      <trkpt lat="43.81821" lon="6.89449">
        <ele>1228.3</ele>
        <time>2026-05-16T09:47:56Z</time>
      </trkpt>
      <trkpt lat="43.81829" lon="6.89466">
        <ele>1230.1</ele>
        <time>2026-05-16T09:47:57Z</time>
      </trkpt>
      <trkpt lat="43.81836" lon="6.89484">
        <ele>1231.4</ele>
        <time>2026-05-16T09:47:58Z</time>
      </trkpt>
      <trkpt lat="43.81844" lon="6.89501">
        <ele>1232.5</ele>
        <time>2026-05-16T09:47:59Z</time>
      </trkpt>
      <trkpt lat="43.81851" lon="6.89519">
        <ele>1232.4</ele>
        <time>2026-05-16T09:48:00Z</time>
      </trkpt>
      <trkpt lat="43.81858" lon="6.89536">
        <ele>1233.3</ele>
        <time>2026-05-16T09:48:01Z</time>
      </trkpt>
      <trkpt lat="43.81865" lon="6.89552">
        <ele>1234.7</ele>
        <time>2026-05-16T09:48:02Z</time>
      </trkpt>
      <trkpt lat="43.81872" lon="6.89567">
        <ele>1235.7</ele>
        <time>2026-05-16T09:48:03Z</time>
      </trkpt>
      <trkpt lat="43.81877" lon="6.89581">
        <ele>1236.5</ele>
        <time>2026-05-16T09:48:04Z</time>
      </trkpt>
      <trkpt lat="43.81883" lon="6.89593">
        <ele>1237.4</ele>
        <time>2026-05-16T09:48:05Z</time>
      </trkpt>
      <trkpt lat="43.81888" lon="6.89606">
        <ele>1238</ele>
        <time>2026-05-16T09:48:06Z</time>
      </trkpt>
      <trkpt lat="43.81894" lon="6.89619">
        <ele>1239.3</ele>
        <time>2026-05-16T09:48:07Z</time>
      </trkpt>
      <trkpt lat="43.81899" lon="6.89632">
        <ele>1240.4</ele>
        <time>2026-05-16T09:48:08Z</time>
      </trkpt>
      <trkpt lat="43.81905" lon="6.89646">
        <ele>1241.3</ele>
        <time>2026-05-16T09:48:09Z</time>
      </trkpt>
      <trkpt lat="43.81911" lon="6.8966">
        <ele>1242.2</ele>
        <time>2026-05-16T09:48:10Z</time>
      </trkpt>
      <trkpt lat="43.81917" lon="6.89674">
        <ele>1242.8</ele>
        <time>2026-05-16T09:48:11Z</time>
      </trkpt>
      <trkpt lat="43.81923" lon="6.89689">
        <ele>1243.3</ele>
        <time>2026-05-16T09:48:12Z</time>
      </trkpt>
      <trkpt lat="43.81929" lon="6.89704">
        <ele>1244.2</ele>
        <time>2026-05-16T09:48:13Z</time>
      </trkpt>
      <trkpt lat="43.81936" lon="6.89719">
        <ele>1245.5</ele>
        <time>2026-05-16T09:48:14Z</time>
      </trkpt>
      <trkpt lat="43.81942" lon="6.89734">
        <ele>1246.1</ele>
        <time>2026-05-16T09:48:15Z</time>
      </trkpt>
      <trkpt lat="43.81947" lon="6.89747">
        <ele>1246.7</ele>
        <time>2026-05-16T09:48:16Z</time>
      </trkpt>
      <trkpt lat="43.81953" lon="6.8976">
        <ele>1247.8</ele>
        <time>2026-05-16T09:48:17Z</time>
      </trkpt>
      <trkpt lat="43.81957" lon="6.89773">
        <ele>1248.7</ele>
        <time>2026-05-16T09:48:18Z</time>
      </trkpt>
      <trkpt lat="43.81962" lon="6.89787">
        <ele>1249.6</ele>
        <time>2026-05-16T09:48:19Z</time>
      </trkpt>
      <trkpt lat="43.81964" lon="6.89801">
        <ele>1249.6</ele>
        <time>2026-05-16T09:48:20Z</time>
      </trkpt>
      <trkpt lat="43.81966" lon="6.89814">
        <ele>1249.5</ele>
        <time>2026-05-16T09:48:21Z</time>
      </trkpt>
      <trkpt lat="43.81967" lon="6.89827">
        <ele>1249.1</ele>
        <time>2026-05-16T09:48:22Z</time>
      </trkpt>
      <trkpt lat="43.81969" lon="6.89839">
        <ele>1249.1</ele>
        <time>2026-05-16T09:48:23Z</time>
      </trkpt>
      <trkpt lat="43.81974" lon="6.89848">
        <ele>1249.8</ele>
        <time>2026-05-16T09:48:24Z</time>
      </trkpt>
      <trkpt lat="43.81981" lon="6.89855">
        <ele>1250.8</ele>
        <time>2026-05-16T09:48:25Z</time>
      </trkpt>
      <trkpt lat="43.81989" lon="6.89856">
        <ele>1252.2</ele>
        <time>2026-05-16T09:48:26Z</time>
      </trkpt>
      <trkpt lat="43.81997" lon="6.89851">
        <ele>1253.8</ele>
        <time>2026-05-16T09:48:27Z</time>
      </trkpt>
      <trkpt lat="43.82002" lon="6.89842">
        <ele>1255</ele>
        <time>2026-05-16T09:48:28Z</time>
      </trkpt>
      <trkpt lat="43.82003" lon="6.8983">
        <ele>1255.7</ele>
        <time>2026-05-16T09:48:29Z</time>
      </trkpt>
      <trkpt lat="43.82001" lon="6.89816">
        <ele>1255.8</ele>
        <time>2026-05-16T09:48:30Z</time>
      </trkpt>
      <trkpt lat="43.81998" lon="6.89801">
        <ele>1255.8</ele>
        <time>2026-05-16T09:48:31Z</time>
      </trkpt>
      <trkpt lat="43.81996" lon="6.89785">
        <ele>1256</ele>
        <time>2026-05-16T09:48:32Z</time>
      </trkpt>
      <trkpt lat="43.81997" lon="6.89768">
        <ele>1256.8</ele>
        <time>2026-05-16T09:48:33Z</time>
      </trkpt>
      <trkpt lat="43.82001" lon="6.89751">
        <ele>1258.1</ele>
        <time>2026-05-16T09:48:34Z</time>
      </trkpt>
      <trkpt lat="43.82006" lon="6.89735">
        <ele>1258.7</ele>
        <time>2026-05-16T09:48:35Z</time>
      </trkpt>
      <trkpt lat="43.82011" lon="6.89718">
        <ele>1259.3</ele>
        <time>2026-05-16T09:48:36Z</time>
      </trkpt>
      <trkpt lat="43.82017" lon="6.89699">
        <ele>1260.2</ele>
        <time>2026-05-16T09:48:37Z</time>
      </trkpt>
      <trkpt lat="43.82022" lon="6.8968">
        <ele>1261</ele>
        <time>2026-05-16T09:48:38Z</time>
      </trkpt>
      <trkpt lat="43.82027" lon="6.89659">
        <ele>1261.9</ele>
        <time>2026-05-16T09:48:39Z</time>
      </trkpt>
      <trkpt lat="43.82031" lon="6.89638">
        <ele>1262.9</ele>
        <time>2026-05-16T09:48:40Z</time>
      </trkpt>
      <trkpt lat="43.82034" lon="6.89617">
        <ele>1265</ele>
        <time>2026-05-16T09:48:41Z</time>
      </trkpt>
      <trkpt lat="43.82037" lon="6.89596">
        <ele>1266.5</ele>
        <time>2026-05-16T09:48:42Z</time>
      </trkpt>
      <trkpt lat="43.82039" lon="6.89574">
        <ele>1267.8</ele>
        <time>2026-05-16T09:48:43Z</time>
      </trkpt>
      <trkpt lat="43.82041" lon="6.89553">
        <ele>1269</ele>
        <time>2026-05-16T09:48:44Z</time>
      </trkpt>
      <trkpt lat="43.82043" lon="6.89533">
        <ele>1270.9</ele>
        <time>2026-05-16T09:48:45Z</time>
      </trkpt>
      <trkpt lat="43.82043" lon="6.89515">
        <ele>1271.7</ele>
        <time>2026-05-16T09:48:46Z</time>
      </trkpt>
      <trkpt lat="43.82043" lon="6.89498">
        <ele>1272.3</ele>
        <time>2026-05-16T09:48:47Z</time>
      </trkpt>
      <trkpt lat="43.82041" lon="6.89483">
        <ele>1272.2</ele>
        <time>2026-05-16T09:48:48Z</time>
      </trkpt>
      <trkpt lat="43.8204" lon="6.89469">
        <ele>1272.2</ele>
        <time>2026-05-16T09:48:49Z</time>
      </trkpt>
      <trkpt lat="43.82039" lon="6.89457">
        <ele>1272</ele>
        <time>2026-05-16T09:48:50Z</time>
      </trkpt>
      <trkpt lat="43.8204" lon="6.89445">
        <ele>1272.2</ele>
        <time>2026-05-16T09:48:51Z</time>
      </trkpt>
      <trkpt lat="43.82045" lon="6.89437">
        <ele>1273.2</ele>
        <time>2026-05-16T09:48:52Z</time>
      </trkpt>
      <trkpt lat="43.82052" lon="6.89432">
        <ele>1274.7</ele>
        <time>2026-05-16T09:48:53Z</time>
      </trkpt>
      <trkpt lat="43.82059" lon="6.89434">
        <ele>1276.4</ele>
        <time>2026-05-16T09:48:54Z</time>
      </trkpt>
      <trkpt lat="43.82065" lon="6.89442">
        <ele>1277.8</ele>
        <time>2026-05-16T09:48:55Z</time>
      </trkpt>
      <trkpt lat="43.82067" lon="6.89453">
        <ele>1278.2</ele>
        <time>2026-05-16T09:48:56Z</time>
      </trkpt>
      <trkpt lat="43.82068" lon="6.89467">
        <ele>1278.2</ele>
        <time>2026-05-16T09:48:57Z</time>
      </trkpt>
      <trkpt lat="43.82069" lon="6.89485">
        <ele>1278.4</ele>
        <time>2026-05-16T09:48:58Z</time>
      </trkpt>
      <trkpt lat="43.82072" lon="6.89503">
        <ele>1279</ele>
        <time>2026-05-16T09:48:59Z</time>
      </trkpt>
      <trkpt lat="43.82076" lon="6.89522">
        <ele>1279.4</ele>
        <time>2026-05-16T09:49:00Z</time>
      </trkpt>
      <trkpt lat="43.82083" lon="6.8954">
        <ele>1280.5</ele>
        <time>2026-05-16T09:49:01Z</time>
      </trkpt>
      <trkpt lat="43.82091" lon="6.89558">
        <ele>1282.4</ele>
        <time>2026-05-16T09:49:02Z</time>
      </trkpt>
      <trkpt lat="43.82099" lon="6.89578">
        <ele>1284.3</ele>
        <time>2026-05-16T09:49:03Z</time>
      </trkpt>
      <trkpt lat="43.82108" lon="6.89599">
        <ele>1285.9</ele>
        <time>2026-05-16T09:49:04Z</time>
      </trkpt>
      <trkpt lat="43.82116" lon="6.89618">
        <ele>1286.9</ele>
        <time>2026-05-16T09:49:05Z</time>
      </trkpt>
      <trkpt lat="43.82125" lon="6.89636">
        <ele>1287.8</ele>
        <time>2026-05-16T09:49:06Z</time>
      </trkpt>
      <trkpt lat="43.82134" lon="6.89653">
        <ele>1288.8</ele>
        <time>2026-05-16T09:49:07Z</time>
      </trkpt>
      <trkpt lat="43.82143" lon="6.89669">
        <ele>1289.9</ele>
        <time>2026-05-16T09:49:08Z</time>
      </trkpt>
      <trkpt lat="43.82151" lon="6.89685">
        <ele>1291.1</ele>
        <time>2026-05-16T09:49:09Z</time>
      </trkpt>
      <trkpt lat="43.82156" lon="6.89702">
        <ele>1291.4</ele>
        <time>2026-05-16T09:49:10Z</time>
      </trkpt>
      <trkpt lat="43.8216" lon="6.89718">
        <ele>1291.7</ele>
        <time>2026-05-16T09:49:11Z</time>
      </trkpt>
      <trkpt lat="43.82163" lon="6.89734">
        <ele>1291.8</ele>
        <time>2026-05-16T09:49:12Z</time>
      </trkpt>
      <trkpt lat="43.82167" lon="6.89747">
        <ele>1292.2</ele>
        <time>2026-05-16T09:49:13Z</time>
      </trkpt>
      <trkpt lat="43.82173" lon="6.89757">
        <ele>1293.3</ele>
        <time>2026-05-16T09:49:14Z</time>
      </trkpt>
      <trkpt lat="43.82182" lon="6.89761">
        <ele>1295.5</ele>
        <time>2026-05-16T09:49:15Z</time>
      </trkpt>
      <trkpt lat="43.8219" lon="6.89758">
        <ele>1297.6</ele>
        <time>2026-05-16T09:49:16Z</time>
      </trkpt>
      <trkpt lat="43.82197" lon="6.8975">
        <ele>1299.6</ele>
        <time>2026-05-16T09:49:17Z</time>
      </trkpt>
      <trkpt lat="43.82198" lon="6.89737">
        <ele>1300.5</ele>
        <time>2026-05-16T09:49:18Z</time>
      </trkpt>
      <trkpt lat="43.82196" lon="6.89722">
        <ele>1300.5</ele>
        <time>2026-05-16T09:49:19Z</time>
      </trkpt>
      <trkpt lat="43.82193" lon="6.89705">
        <ele>1300.8</ele>
        <time>2026-05-16T09:49:20Z</time>
      </trkpt>
      <trkpt lat="43.82191" lon="6.89687">
        <ele>1301.5</ele>
        <time>2026-05-16T09:49:21Z</time>
      </trkpt>
      <trkpt lat="43.82189" lon="6.89667">
        <ele>1302.4</ele>
        <time>2026-05-16T09:49:22Z</time>
      </trkpt>
      <trkpt lat="43.82188" lon="6.89646">
        <ele>1303.8</ele>
        <time>2026-05-16T09:49:23Z</time>
      </trkpt>
      <trkpt lat="43.82188" lon="6.89624">
        <ele>1306</ele>
        <time>2026-05-16T09:49:24Z</time>
      </trkpt>
      <trkpt lat="43.82187" lon="6.89601">
        <ele>1308.1</ele>
        <time>2026-05-16T09:49:25Z</time>
      </trkpt>
      <trkpt lat="43.82187" lon="6.89579">
        <ele>1310</ele>
        <time>2026-05-16T09:49:26Z</time>
      </trkpt>
      <trkpt lat="43.82187" lon="6.89556">
        <ele>1310.8</ele>
        <time>2026-05-16T09:49:27Z</time>
      </trkpt>
      <trkpt lat="43.82189" lon="6.89533">
        <ele>1312.2</ele>
        <time>2026-05-16T09:49:28Z</time>
      </trkpt>
      <trkpt lat="43.82191" lon="6.89511">
        <ele>1313</ele>
        <time>2026-05-16T09:49:29Z</time>
      </trkpt>
      <trkpt lat="43.82194" lon="6.8949">
        <ele>1313.9</ele>
        <time>2026-05-16T09:49:30Z</time>
      </trkpt>
      <trkpt lat="43.82197" lon="6.8947">
        <ele>1314.8</ele>
        <time>2026-05-16T09:49:31Z</time>
      </trkpt>
      <trkpt lat="43.82197" lon="6.89452">
        <ele>1315.4</ele>
        <time>2026-05-16T09:49:32Z</time>
      </trkpt>
      <trkpt lat="43.82195" lon="6.89435">
        <ele>1315.5</ele>
        <time>2026-05-16T09:49:33Z</time>
      </trkpt>
      <trkpt lat="43.82192" lon="6.89421">
        <ele>1315.2</ele>
        <time>2026-05-16T09:49:34Z</time>
      </trkpt>
      <trkpt lat="43.8219" lon="6.89409">
        <ele>1315.2</ele>
        <time>2026-05-16T09:49:35Z</time>
      </trkpt>
      <trkpt lat="43.82192" lon="6.89399">
        <ele>1316</ele>
        <time>2026-05-16T09:49:36Z</time>
      </trkpt>
      <trkpt lat="43.82197" lon="6.8939">
        <ele>1317.6</ele>
        <time>2026-05-16T09:49:37Z</time>
      </trkpt>
      <trkpt lat="43.82204" lon="6.89386">
        <ele>1319.7</ele>
        <time>2026-05-16T09:49:38Z</time>
      </trkpt>
      <trkpt lat="43.82211" lon="6.89388">
        <ele>1321.3</ele>
        <time>2026-05-16T09:49:39Z</time>
      </trkpt>
      <trkpt lat="43.82216" lon="6.89396">
        <ele>1322</ele>
        <time>2026-05-16T09:49:40Z</time>
      </trkpt>
      <trkpt lat="43.82219" lon="6.89407">
        <ele>1322</ele>
        <time>2026-05-16T09:49:41Z</time>
      </trkpt>
      <trkpt lat="43.82221" lon="6.89421">
        <ele>1321.7</ele>
        <time>2026-05-16T09:49:42Z</time>
      </trkpt>
      <trkpt lat="43.82224" lon="6.89437">
        <ele>1322.5</ele>
        <time>2026-05-16T09:49:43Z</time>
      </trkpt>
      <trkpt lat="43.82229" lon="6.89453">
        <ele>1323.7</ele>
        <time>2026-05-16T09:49:44Z</time>
      </trkpt>
      <trkpt lat="43.82235" lon="6.8947">
        <ele>1325.2</ele>
        <time>2026-05-16T09:49:45Z</time>
      </trkpt>
      <trkpt lat="43.8224" lon="6.89489">
        <ele>1326.1</ele>
        <time>2026-05-16T09:49:46Z</time>
      </trkpt>
      <trkpt lat="43.82247" lon="6.89509">
        <ele>1327.4</ele>
        <time>2026-05-16T09:49:47Z</time>
      </trkpt>
      <trkpt lat="43.82254" lon="6.8953">
        <ele>1329.1</ele>
        <time>2026-05-16T09:49:48Z</time>
      </trkpt>
      <trkpt lat="43.82261" lon="6.89552">
        <ele>1331.3</ele>
        <time>2026-05-16T09:49:49Z</time>
      </trkpt>
      <trkpt lat="43.8227" lon="6.89573">
        <ele>1332.9</ele>
        <time>2026-05-16T09:49:50Z</time>
      </trkpt>
      <trkpt lat="43.8228" lon="6.89596">
        <ele>1334.1</ele>
        <time>2026-05-16T09:49:51Z</time>
      </trkpt>
      <trkpt lat="43.82291" lon="6.89617">
        <ele>1335.4</ele>
        <time>2026-05-16T09:49:52Z</time>
      </trkpt>
      <trkpt lat="43.82303" lon="6.89639">
        <ele>1336.4</ele>
        <time>2026-05-16T09:49:53Z</time>
      </trkpt>
      <trkpt lat="43.82314" lon="6.89661">
        <ele>1337.8</ele>
        <time>2026-05-16T09:49:54Z</time>
      </trkpt>
      <trkpt lat="43.82326" lon="6.89683">
        <ele>1339.9</ele>
        <time>2026-05-16T09:49:55Z</time>
      </trkpt>
      <trkpt lat="43.82338" lon="6.89706">
        <ele>1342.2</ele>
        <time>2026-05-16T09:49:56Z</time>
      </trkpt>
      <trkpt lat="43.82348" lon="6.89731">
        <ele>1343.1</ele>
        <time>2026-05-16T09:49:57Z</time>
      </trkpt>
      <trkpt lat="43.82357" lon="6.89759">
        <ele>1343.9</ele>
        <time>2026-05-16T09:49:58Z</time>
      </trkpt>
      <trkpt lat="43.82364" lon="6.89787">
        <ele>1345.4</ele>
        <time>2026-05-16T09:49:59Z</time>
      </trkpt>
      <trkpt lat="43.82371" lon="6.89815">
        <ele>1346.8</ele>
        <time>2026-05-16T09:50:00Z</time>
      </trkpt>
      <trkpt lat="43.82379" lon="6.89842">
        <ele>1349.2</ele>
        <time>2026-05-16T09:50:01Z</time>
      </trkpt>
      <trkpt lat="43.82389" lon="6.89869">
        <ele>1351.7</ele>
        <time>2026-05-16T09:50:02Z</time>
      </trkpt>
      <trkpt lat="43.82399" lon="6.89896">
        <ele>1353.3</ele>
        <time>2026-05-16T09:50:03Z</time>
      </trkpt>
      <trkpt lat="43.82409" lon="6.89923">
        <ele>1355</ele>
        <time>2026-05-16T09:50:04Z</time>
      </trkpt>
      <trkpt lat="43.8242" lon="6.89951">
        <ele>1357.7</ele>
        <time>2026-05-16T09:50:05Z</time>
      </trkpt>
      <trkpt lat="43.82432" lon="6.89979">
        <ele>1360.6</ele>
        <time>2026-05-16T09:50:06Z</time>
      </trkpt>
      <trkpt lat="43.82443" lon="6.90007">
        <ele>1362.4</ele>
        <time>2026-05-16T09:50:07Z</time>
      </trkpt>
      <trkpt lat="43.82455" lon="6.90036">
        <ele>1363.7</ele>
        <time>2026-05-16T09:50:08Z</time>
      </trkpt>
      <trkpt lat="43.82466" lon="6.90064">
        <ele>1364.3</ele>
        <time>2026-05-16T09:50:09Z</time>
      </trkpt>
      <trkpt lat="43.82477" lon="6.9009">
        <ele>1365.7</ele>
        <time>2026-05-16T09:50:10Z</time>
      </trkpt>
      <trkpt lat="43.82487" lon="6.90114">
        <ele>1366.6</ele>
        <time>2026-05-16T09:50:11Z</time>
      </trkpt>
      <trkpt lat="43.82498" lon="6.90138">
        <ele>1367.6</ele>
        <time>2026-05-16T09:50:12Z</time>
      </trkpt>
      <trkpt lat="43.82508" lon="6.90162">
        <ele>1368.1</ele>
        <time>2026-05-16T09:50:13Z</time>
      </trkpt>
      <trkpt lat="43.82519" lon="6.90186">
        <ele>1368</ele>
        <time>2026-05-16T09:50:14Z</time>
      </trkpt>
      <trkpt lat="43.8253" lon="6.90209">
        <ele>1368</ele>
        <time>2026-05-16T09:50:15Z</time>
      </trkpt>
      <trkpt lat="43.82542" lon="6.90233">
        <ele>1368.6</ele>
        <time>2026-05-16T09:50:16Z</time>
      </trkpt>
      <trkpt lat="43.82554" lon="6.90258">
        <ele>1369.1</ele>
        <time>2026-05-16T09:50:17Z</time>
      </trkpt>
      <trkpt lat="43.82565" lon="6.90285">
        <ele>1369.5</ele>
        <time>2026-05-16T09:50:18Z</time>
      </trkpt>
      <trkpt lat="43.82575" lon="6.90313">
        <ele>1369.6</ele>
        <time>2026-05-16T09:50:19Z</time>
      </trkpt>
      <trkpt lat="43.82585" lon="6.90342">
        <ele>1369.5</ele>
        <time>2026-05-16T09:50:20Z</time>
      </trkpt>
      <trkpt lat="43.82593" lon="6.90372">
        <ele>1368.7</ele>
        <time>2026-05-16T09:50:21Z</time>
      </trkpt>
      <trkpt lat="43.82602" lon="6.90403">
        <ele>1368.9</ele>
        <time>2026-05-16T09:50:22Z</time>
      </trkpt>
      <trkpt lat="43.8261" lon="6.90433">
        <ele>1368.5</ele>
        <time>2026-05-16T09:50:23Z</time>
      </trkpt>
      <trkpt lat="43.82619" lon="6.90465">
        <ele>1369.3</ele>
        <time>2026-05-16T09:50:24Z</time>
      </trkpt>
      <trkpt lat="43.82627" lon="6.90497">
        <ele>1369.7</ele>
        <time>2026-05-16T09:50:25Z</time>
      </trkpt>
      <trkpt lat="43.82635" lon="6.9053">
        <ele>1369.9</ele>
        <time>2026-05-16T09:50:26Z</time>
      </trkpt>
      <trkpt lat="43.82643" lon="6.90564">
        <ele>1370.7</ele>
        <time>2026-05-16T09:50:27Z</time>
      </trkpt>
      <trkpt lat="43.82651" lon="6.90598">
        <ele>1371.3</ele>
        <time>2026-05-16T09:50:28Z</time>
      </trkpt>
      <trkpt lat="43.8266" lon="6.90633">
        <ele>1371.8</ele>
        <time>2026-05-16T09:50:29Z</time>
      </trkpt>
      <trkpt lat="43.82671" lon="6.90668">
        <ele>1373</ele>
        <time>2026-05-16T09:50:30Z</time>
      </trkpt>
      <trkpt lat="43.82682" lon="6.90703">
        <ele>1373.1</ele>
        <time>2026-05-16T09:50:31Z</time>
      </trkpt>
      <trkpt lat="43.82693" lon="6.90738">
        <ele>1373.1</ele>
        <time>2026-05-16T09:50:32Z</time>
      </trkpt>
      <trkpt lat="43.82702" lon="6.90774">
        <ele>1374.9</ele>
        <time>2026-05-16T09:50:33Z</time>
      </trkpt>
      <trkpt lat="43.82709" lon="6.90812">
        <ele>1376.5</ele>
        <time>2026-05-16T09:50:34Z</time>
      </trkpt>
      <trkpt lat="43.82717" lon="6.90849">
        <ele>1376.9</ele>
        <time>2026-05-16T09:50:35Z</time>
      </trkpt>
      <trkpt lat="43.82724" lon="6.90886">
        <ele>1374.8</ele>
        <time>2026-05-16T09:50:36Z</time>
      </trkpt>
      <trkpt lat="43.82732" lon="6.90923">
        <ele>1375.5</ele>
        <time>2026-05-16T09:50:37Z</time>
      </trkpt>
      <trkpt lat="43.8274" lon="6.9096">
        <ele>1377.8</ele>
        <time>2026-05-16T09:50:38Z</time>
      </trkpt>
      <trkpt lat="43.82747" lon="6.90996">
        <ele>1380</ele>
        <time>2026-05-16T09:50:39Z</time>
      </trkpt>
      <trkpt lat="43.82752" lon="6.91032">
        <ele>1380.5</ele>
        <time>2026-05-16T09:50:40Z</time>
      </trkpt>
      <trkpt lat="43.82757" lon="6.91068">
        <ele>1380.5</ele>
        <time>2026-05-16T09:50:41Z</time>
      </trkpt>
      <trkpt lat="43.8276" lon="6.91105">
        <ele>1379.8</ele>
        <time>2026-05-16T09:50:42Z</time>
      </trkpt>
      <trkpt lat="43.82763" lon="6.91141">
        <ele>1380.6</ele>
        <time>2026-05-16T09:50:43Z</time>
      </trkpt>
      <trkpt lat="43.82766" lon="6.91178">
        <ele>1381</ele>
        <time>2026-05-16T09:50:44Z</time>
      </trkpt>
      <trkpt lat="43.82768" lon="6.91215">
        <ele>1381</ele>
        <time>2026-05-16T09:50:45Z</time>
      </trkpt>
      <trkpt lat="43.82771" lon="6.91251">
        <ele>1382</ele>
        <time>2026-05-16T09:50:46Z</time>
      </trkpt>
      <trkpt lat="43.82773" lon="6.91286">
        <ele>1382.6</ele>
        <time>2026-05-16T09:50:47Z</time>
      </trkpt>
      <trkpt lat="43.82776" lon="6.91319">
        <ele>1383</ele>
        <time>2026-05-16T09:50:48Z</time>
      </trkpt>
      <trkpt lat="43.82779" lon="6.91353">
        <ele>1383.4</ele>
        <time>2026-05-16T09:50:49Z</time>
      </trkpt>
      <trkpt lat="43.82783" lon="6.91385">
        <ele>1383.6</ele>
        <time>2026-05-16T09:50:50Z</time>
      </trkpt>
      <trkpt lat="43.82788" lon="6.91419">
        <ele>1383.5</ele>
        <time>2026-05-16T09:50:51Z</time>
      </trkpt>
      <trkpt lat="43.82794" lon="6.91451">
        <ele>1383.9</ele>
        <time>2026-05-16T09:50:52Z</time>
      </trkpt>
      <trkpt lat="43.82801" lon="6.91483">
        <ele>1384.1</ele>
        <time>2026-05-16T09:50:53Z</time>
      </trkpt>
      <trkpt lat="43.82808" lon="6.91515">
        <ele>1383.7</ele>
        <time>2026-05-16T09:50:54Z</time>
      </trkpt>
      <trkpt lat="43.82816" lon="6.91548">
        <ele>1383.8</ele>
        <time>2026-05-16T09:50:55Z</time>
      </trkpt>
      <trkpt lat="43.82825" lon="6.91581">
        <ele>1383.8</ele>
        <time>2026-05-16T09:50:56Z</time>
      </trkpt>
      <trkpt lat="43.82834" lon="6.91614">
        <ele>1384</ele>
        <time>2026-05-16T09:50:57Z</time>
      </trkpt>
      <trkpt lat="43.82844" lon="6.91649">
        <ele>1384.6</ele>
        <time>2026-05-16T09:50:58Z</time>
      </trkpt>
      <trkpt lat="43.82853" lon="6.91683">
        <ele>1384.1</ele>
        <time>2026-05-16T09:50:59Z</time>
      </trkpt>
      <trkpt lat="43.82862" lon="6.91717">
        <ele>1384.5</ele>
        <time>2026-05-16T09:51:00Z</time>
      </trkpt>
      <trkpt lat="43.82871" lon="6.91752">
        <ele>1384.7</ele>
        <time>2026-05-16T09:51:01Z</time>
      </trkpt>
      <trkpt lat="43.82878" lon="6.91786">
        <ele>1384.6</ele>
        <time>2026-05-16T09:51:02Z</time>
      </trkpt>
      <trkpt lat="43.82885" lon="6.91821">
        <ele>1384.8</ele>
        <time>2026-05-16T09:51:03Z</time>
      </trkpt>
      <trkpt lat="43.8289" lon="6.91857">
        <ele>1384.5</ele>
        <time>2026-05-16T09:51:04Z</time>
      </trkpt>
      <trkpt lat="43.82896" lon="6.91893">
        <ele>1385.2</ele>
        <time>2026-05-16T09:51:05Z</time>
      </trkpt>
      <trkpt lat="43.82902" lon="6.9193">
        <ele>1386</ele>
        <time>2026-05-16T09:51:06Z</time>
      </trkpt>
      <trkpt lat="43.82907" lon="6.91966">
        <ele>1386.4</ele>
        <time>2026-05-16T09:51:07Z</time>
      </trkpt>
      <trkpt lat="43.82912" lon="6.92003">
        <ele>1386.8</ele>
        <time>2026-05-16T09:51:08Z</time>
      </trkpt>
      <trkpt lat="43.82916" lon="6.92041">
        <ele>1387.8</ele>
        <time>2026-05-16T09:51:09Z</time>
      </trkpt>
      <trkpt lat="43.82918" lon="6.92078">
        <ele>1388.4</ele>
        <time>2026-05-16T09:51:10Z</time>
      </trkpt>
      <trkpt lat="43.82921" lon="6.92115">
        <ele>1388.4</ele>
        <time>2026-05-16T09:51:11Z</time>
      </trkpt>
      <trkpt lat="43.82924" lon="6.92152">
        <ele>1388.5</ele>
        <time>2026-05-16T09:51:12Z</time>
      </trkpt>
      <trkpt lat="43.82927" lon="6.92189">
        <ele>1388.5</ele>
        <time>2026-05-16T09:51:13Z</time>
      </trkpt>
      <trkpt lat="43.82929" lon="6.92225">
        <ele>1387.9</ele>
        <time>2026-05-16T09:51:14Z</time>
      </trkpt>
      <trkpt lat="43.82932" lon="6.9226">
        <ele>1387.6</ele>
        <time>2026-05-16T09:51:15Z</time>
      </trkpt>
      <trkpt lat="43.82935" lon="6.92294">
        <ele>1387.9</ele>
        <time>2026-05-16T09:51:16Z</time>
      </trkpt>
      <trkpt lat="43.82937" lon="6.92329">
        <ele>1388.6</ele>
        <time>2026-05-16T09:51:17Z</time>
      </trkpt>
      <trkpt lat="43.8294" lon="6.92363">
        <ele>1389.6</ele>
        <time>2026-05-16T09:51:18Z</time>
      </trkpt>
      <trkpt lat="43.82942" lon="6.92398">
        <ele>1390.5</ele>
        <time>2026-05-16T09:51:19Z</time>
      </trkpt>
      <trkpt lat="43.82946" lon="6.92432">
        <ele>1392.5</ele>
        <time>2026-05-16T09:51:20Z</time>
      </trkpt>
      <trkpt lat="43.8295" lon="6.92467">
        <ele>1392.2</ele>
        <time>2026-05-16T09:51:21Z</time>
      </trkpt>
      <trkpt lat="43.82954" lon="6.92502">
        <ele>1390.7</ele>
        <time>2026-05-16T09:51:22Z</time>
      </trkpt>
      <trkpt lat="43.82958" lon="6.92537">
        <ele>1390.7</ele>
        <time>2026-05-16T09:51:23Z</time>
      </trkpt>
      <trkpt lat="43.82962" lon="6.92572">
        <ele>1391.7</ele>
        <time>2026-05-16T09:51:24Z</time>
      </trkpt>
      <trkpt lat="43.82966" lon="6.92608">
        <ele>1392.1</ele>
        <time>2026-05-16T09:51:25Z</time>
      </trkpt>
      <trkpt lat="43.82969" lon="6.92643">
        <ele>1392.8</ele>
        <time>2026-05-16T09:51:26Z</time>
      </trkpt>
      <trkpt lat="43.82972" lon="6.92679">
        <ele>1392.9</ele>
        <time>2026-05-16T09:51:27Z</time>
      </trkpt>
      <trkpt lat="43.82974" lon="6.92715">
        <ele>1393.6</ele>
        <time>2026-05-16T09:51:28Z</time>
      </trkpt>
      <trkpt lat="43.82975" lon="6.92751">
        <ele>1393.9</ele>
        <time>2026-05-16T09:51:29Z</time>
      </trkpt>
      <trkpt lat="43.82976" lon="6.92787">
        <ele>1394.9</ele>
        <time>2026-05-16T09:51:30Z</time>
      </trkpt>
      <trkpt lat="43.82976" lon="6.92823">
        <ele>1394.9</ele>
        <time>2026-05-16T09:51:31Z</time>
      </trkpt>
      <trkpt lat="43.82976" lon="6.92858">
        <ele>1395.4</ele>
        <time>2026-05-16T09:51:32Z</time>
      </trkpt>
      <trkpt lat="43.82976" lon="6.92892">
        <ele>1396.2</ele>
        <time>2026-05-16T09:51:33Z</time>
      </trkpt>
      <trkpt lat="43.82977" lon="6.92925">
        <ele>1396.7</ele>
        <time>2026-05-16T09:51:34Z</time>
      </trkpt>
      <trkpt lat="43.82977" lon="6.92957">
        <ele>1396.7</ele>
        <time>2026-05-16T09:51:35Z</time>
      </trkpt>
      <trkpt lat="43.82978" lon="6.92989">
        <ele>1397.1</ele>
        <time>2026-05-16T09:51:36Z</time>
      </trkpt>
      <trkpt lat="43.82981" lon="6.93019">
        <ele>1397.5</ele>
        <time>2026-05-16T09:51:37Z</time>
      </trkpt>
      <trkpt lat="43.82984" lon="6.9305">
        <ele>1397.4</ele>
        <time>2026-05-16T09:51:38Z</time>
      </trkpt>
      <trkpt lat="43.82988" lon="6.9308">
        <ele>1398.2</ele>
        <time>2026-05-16T09:51:39Z</time>
      </trkpt>
      <trkpt lat="43.82992" lon="6.93111">
        <ele>1399.4</ele>
        <time>2026-05-16T09:51:40Z</time>
      </trkpt>
      <trkpt lat="43.82996" lon="6.93141">
        <ele>1398.8</ele>
        <time>2026-05-16T09:51:41Z</time>
      </trkpt>
      <trkpt lat="43.83" lon="6.93171">
        <ele>1398.7</ele>
        <time>2026-05-16T09:51:42Z</time>
      </trkpt>
      <trkpt lat="43.83005" lon="6.93199">
        <ele>1398.3</ele>
        <time>2026-05-16T09:51:43Z</time>
      </trkpt>
      <trkpt lat="43.83012" lon="6.93228">
        <ele>1398.1</ele>
        <time>2026-05-16T09:51:44Z</time>
      </trkpt>
      <trkpt lat="43.83018" lon="6.93256">
        <ele>1398.3</ele>
        <time>2026-05-16T09:51:45Z</time>
      </trkpt>
      <trkpt lat="43.83025" lon="6.93284">
        <ele>1397.8</ele>
        <time>2026-05-16T09:51:46Z</time>
      </trkpt>
      <trkpt lat="43.83031" lon="6.93312">
        <ele>1397.2</ele>
        <time>2026-05-16T09:51:47Z</time>
      </trkpt>
      <trkpt lat="43.83037" lon="6.93339">
        <ele>1397.2</ele>
        <time>2026-05-16T09:51:48Z</time>
      </trkpt>
      <trkpt lat="43.83041" lon="6.93366">
        <ele>1397.6</ele>
        <time>2026-05-16T09:51:49Z</time>
      </trkpt>
      <trkpt lat="43.83042" lon="6.93395">
        <ele>1399</ele>
        <time>2026-05-16T09:51:50Z</time>
      </trkpt>
      <trkpt lat="43.8304" lon="6.93423">
        <ele>1400.4</ele>
        <time>2026-05-16T09:51:51Z</time>
      </trkpt>
      <trkpt lat="43.83036" lon="6.93451">
        <ele>1400.8</ele>
        <time>2026-05-16T09:51:52Z</time>
      </trkpt>
      <trkpt lat="43.83031" lon="6.93478">
        <ele>1401.2</ele>
        <time>2026-05-16T09:51:53Z</time>
      </trkpt>
      <trkpt lat="43.83025" lon="6.93504">
        <ele>1400.7</ele>
        <time>2026-05-16T09:51:54Z</time>
      </trkpt>
      <trkpt lat="43.8302" lon="6.9353">
        <ele>1401.5</ele>
        <time>2026-05-16T09:51:55Z</time>
      </trkpt>
      <trkpt lat="43.83015" lon="6.93555">
        <ele>1402.2</ele>
        <time>2026-05-16T09:51:56Z</time>
      </trkpt>
      <trkpt lat="43.83011" lon="6.93579">
        <ele>1402.6</ele>
        <time>2026-05-16T09:51:57Z</time>
      </trkpt>
      <trkpt lat="43.83008" lon="6.93604">
        <ele>1403.5</ele>
        <time>2026-05-16T09:51:58Z</time>
      </trkpt>
      <trkpt lat="43.83005" lon="6.93629">
        <ele>1403.4</ele>
        <time>2026-05-16T09:51:59Z</time>
      </trkpt>
      <trkpt lat="43.83004" lon="6.93655">
        <ele>1403.6</ele>
        <time>2026-05-16T09:52:00Z</time>
      </trkpt>
      <trkpt lat="43.83004" lon="6.9368">
        <ele>1404.5</ele>
        <time>2026-05-16T09:52:01Z</time>
      </trkpt>
      <trkpt lat="43.83005" lon="6.93706">
        <ele>1405.5</ele>
        <time>2026-05-16T09:52:02Z</time>
      </trkpt>
      <trkpt lat="43.83009" lon="6.93731">
        <ele>1406.6</ele>
        <time>2026-05-16T09:52:03Z</time>
      </trkpt>
      <trkpt lat="43.83013" lon="6.93756">
        <ele>1407.1</ele>
        <time>2026-05-16T09:52:04Z</time>
      </trkpt>
      <trkpt lat="43.83019" lon="6.93781">
        <ele>1407.2</ele>
        <time>2026-05-16T09:52:05Z</time>
      </trkpt>
      <trkpt lat="43.83025" lon="6.93805">
        <ele>1406.5</ele>
        <time>2026-05-16T09:52:06Z</time>
      </trkpt>
      <trkpt lat="43.83032" lon="6.93831">
        <ele>1408.1</ele>
        <time>2026-05-16T09:52:07Z</time>
      </trkpt>
      <trkpt lat="43.83037" lon="6.93857">
        <ele>1408.8</ele>
        <time>2026-05-16T09:52:08Z</time>
      </trkpt>
      <trkpt lat="43.83041" lon="6.93884">
        <ele>1410.6</ele>
        <time>2026-05-16T09:52:09Z</time>
      </trkpt>
      <trkpt lat="43.83042" lon="6.93912">
        <ele>1411.9</ele>
        <time>2026-05-16T09:52:10Z</time>
      </trkpt>
      <trkpt lat="43.83042" lon="6.9394">
        <ele>1412.9</ele>
        <time>2026-05-16T09:52:11Z</time>
      </trkpt>
      <trkpt lat="43.83041" lon="6.93969">
        <ele>1413.3</ele>
        <time>2026-05-16T09:52:12Z</time>
      </trkpt>
      <trkpt lat="43.8304" lon="6.93996">
        <ele>1414.4</ele>
        <time>2026-05-16T09:52:13Z</time>
      </trkpt>
      <trkpt lat="43.83039" lon="6.94023">
        <ele>1415.6</ele>
        <time>2026-05-16T09:52:14Z</time>
      </trkpt>
      <trkpt lat="43.83038" lon="6.94048">
        <ele>1417</ele>
        <time>2026-05-16T09:52:15Z</time>
      </trkpt>
      <trkpt lat="43.83036" lon="6.94073">
        <ele>1418.5</ele>
        <time>2026-05-16T09:52:16Z</time>
      </trkpt>
      <trkpt lat="43.83034" lon="6.94098">
        <ele>1419.8</ele>
        <time>2026-05-16T09:52:17Z</time>
      </trkpt>
      <trkpt lat="43.83031" lon="6.94122">
        <ele>1421.1</ele>
        <time>2026-05-16T09:52:18Z</time>
      </trkpt>
      <trkpt lat="43.83027" lon="6.94146">
        <ele>1422.3</ele>
        <time>2026-05-16T09:52:19Z</time>
      </trkpt>
      <trkpt lat="43.83023" lon="6.9417">
        <ele>1423.2</ele>
        <time>2026-05-16T09:52:20Z</time>
      </trkpt>
      <trkpt lat="43.8302" lon="6.94193">
        <ele>1424.2</ele>
        <time>2026-05-16T09:52:21Z</time>
      </trkpt>
      <trkpt lat="43.83017" lon="6.94215">
        <ele>1425.2</ele>
        <time>2026-05-16T09:52:22Z</time>
      </trkpt>
      <trkpt lat="43.83017" lon="6.94236">
        <ele>1426.2</ele>
        <time>2026-05-16T09:52:23Z</time>
      </trkpt>
      <trkpt lat="43.83017" lon="6.94256">
        <ele>1426.9</ele>
        <time>2026-05-16T09:52:24Z</time>
      </trkpt>
      <trkpt lat="43.83018" lon="6.94277">
        <ele>1427.9</ele>
        <time>2026-05-16T09:52:25Z</time>
      </trkpt>
      <trkpt lat="43.83019" lon="6.94298">
        <ele>1428.8</ele>
        <time>2026-05-16T09:52:26Z</time>
      </trkpt>
      <trkpt lat="43.83019" lon="6.94318">
        <ele>1429.2</ele>
        <time>2026-05-16T09:52:27Z</time>
      </trkpt>
      <trkpt lat="43.8302" lon="6.94338">
        <ele>1429.7</ele>
        <time>2026-05-16T09:52:28Z</time>
      </trkpt>
      <trkpt lat="43.8302" lon="6.94357">
        <ele>1430.2</ele>
        <time>2026-05-16T09:52:29Z</time>
      </trkpt>
      <trkpt lat="43.83019" lon="6.94376">
        <ele>1430.1</ele>
        <time>2026-05-16T09:52:30Z</time>
      </trkpt>
      <trkpt lat="43.83018" lon="6.94394">
        <ele>1430</ele>
        <time>2026-05-16T09:52:31Z</time>
      </trkpt>
      <trkpt lat="43.83016" lon="6.94413">
        <ele>1429.8</ele>
        <time>2026-05-16T09:52:32Z</time>
      </trkpt>
      <trkpt lat="43.83014" lon="6.94432">
        <ele>1430.1</ele>
        <time>2026-05-16T09:52:33Z</time>
      </trkpt>
      <trkpt lat="43.83013" lon="6.9445">
        <ele>1430.5</ele>
        <time>2026-05-16T09:52:34Z</time>
      </trkpt>
      <trkpt lat="43.83011" lon="6.94468">
        <ele>1430.8</ele>
        <time>2026-05-16T09:52:35Z</time>
      </trkpt>
      <trkpt lat="43.83009" lon="6.94486">
        <ele>1431</ele>
        <time>2026-05-16T09:52:36Z</time>
      </trkpt>
      <trkpt lat="43.83006" lon="6.94503">
        <ele>1430.9</ele>
        <time>2026-05-16T09:52:37Z</time>
      </trkpt>
      <trkpt lat="43.83003" lon="6.9452">
        <ele>1430.4</ele>
        <time>2026-05-16T09:52:38Z</time>
      </trkpt>
      <trkpt lat="43.82997" lon="6.94535">
        <ele>1429.5</ele>
        <time>2026-05-16T09:52:39Z</time>
      </trkpt>
      <trkpt lat="43.8299" lon="6.94548">
        <ele>1428.6</ele>
        <time>2026-05-16T09:52:40Z</time>
      </trkpt>
      <trkpt lat="43.82981" lon="6.9456">
        <ele>1427.4</ele>
        <time>2026-05-16T09:52:41Z</time>
      </trkpt>
      <trkpt lat="43.82972" lon="6.9457">
        <ele>1426.5</ele>
        <time>2026-05-16T09:52:42Z</time>
      </trkpt>
      <trkpt lat="43.82962" lon="6.9458">
        <ele>1426.1</ele>
        <time>2026-05-16T09:52:43Z</time>
      </trkpt>
      <trkpt lat="43.82951" lon="6.9459">
        <ele>1425.2</ele>
        <time>2026-05-16T09:52:44Z</time>
      </trkpt>
      <trkpt lat="43.8294" lon="6.946">
        <ele>1424.5</ele>
        <time>2026-05-16T09:52:45Z</time>
      </trkpt>
      <trkpt lat="43.82928" lon="6.94611">
        <ele>1424.2</ele>
        <time>2026-05-16T09:52:46Z</time>
      </trkpt>
      <trkpt lat="43.82915" lon="6.94622">
        <ele>1422.9</ele>
        <time>2026-05-16T09:52:47Z</time>
      </trkpt>
      <trkpt lat="43.82902" lon="6.94634">
        <ele>1422.1</ele>
        <time>2026-05-16T09:52:48Z</time>
      </trkpt>
      <trkpt lat="43.8289" lon="6.94645">
        <ele>1421.5</ele>
        <time>2026-05-16T09:52:49Z</time>
      </trkpt>
      <trkpt lat="43.82877" lon="6.94656">
        <ele>1421</ele>
        <time>2026-05-16T09:52:50Z</time>
      </trkpt>
      <trkpt lat="43.82863" lon="6.94668">
        <ele>1420.4</ele>
        <time>2026-05-16T09:52:51Z</time>
      </trkpt>
      <trkpt lat="43.82851" lon="6.9468">
        <ele>1420.1</ele>
        <time>2026-05-16T09:52:52Z</time>
      </trkpt>
      <trkpt lat="43.82838" lon="6.94692">
        <ele>1419.8</ele>
        <time>2026-05-16T09:52:53Z</time>
      </trkpt>
      <trkpt lat="43.82826" lon="6.94703">
        <ele>1419.9</ele>
        <time>2026-05-16T09:52:54Z</time>
      </trkpt>
      <trkpt lat="43.82813" lon="6.94715">
        <ele>1419.6</ele>
        <time>2026-05-16T09:52:55Z</time>
      </trkpt>
      <trkpt lat="43.82802" lon="6.94727">
        <ele>1419.1</ele>
        <time>2026-05-16T09:52:56Z</time>
      </trkpt>
      <trkpt lat="43.82792" lon="6.94741">
        <ele>1418.4</ele>
        <time>2026-05-16T09:52:57Z</time>
      </trkpt>
      <trkpt lat="43.82783" lon="6.94756">
        <ele>1416.8</ele>
        <time>2026-05-16T09:52:58Z</time>
      </trkpt>
      <trkpt lat="43.82779" lon="6.94771">
        <ele>1415.6</ele>
        <time>2026-05-16T09:52:59Z</time>
      </trkpt>
      <trkpt lat="43.82778" lon="6.94787">
        <ele>1415.3</ele>
        <time>2026-05-16T09:53:00Z</time>
      </trkpt>
      <trkpt lat="43.82782" lon="6.94802">
        <ele>1415.4</ele>
        <time>2026-05-16T09:53:01Z</time>
      </trkpt>
      <trkpt lat="43.82789" lon="6.94814">
        <ele>1415.1</ele>
        <time>2026-05-16T09:53:02Z</time>
      </trkpt>
      <trkpt lat="43.82799" lon="6.94822">
        <ele>1414.3</ele>
        <time>2026-05-16T09:53:03Z</time>
      </trkpt>
      <trkpt lat="43.8281" lon="6.94826">
        <ele>1413.4</ele>
        <time>2026-05-16T09:53:04Z</time>
      </trkpt>
      <trkpt lat="43.82823" lon="6.94824">
        <ele>1412.2</ele>
        <time>2026-05-16T09:53:05Z</time>
      </trkpt>
      <trkpt lat="43.82836" lon="6.94818">
        <ele>1410.7</ele>
        <time>2026-05-16T09:53:06Z</time>
      </trkpt>
      <trkpt lat="43.82849" lon="6.94809">
        <ele>1409.1</ele>
        <time>2026-05-16T09:53:07Z</time>
      </trkpt>
      <trkpt lat="43.82861" lon="6.94799">
        <ele>1407.8</ele>
        <time>2026-05-16T09:53:08Z</time>
      </trkpt>
      <trkpt lat="43.82874" lon="6.94789">
        <ele>1406.9</ele>
        <time>2026-05-16T09:53:09Z</time>
      </trkpt>
      <trkpt lat="43.82887" lon="6.94779">
        <ele>1406.1</ele>
        <time>2026-05-16T09:53:10Z</time>
      </trkpt>
      <trkpt lat="43.82901" lon="6.94772">
        <ele>1405.4</ele>
        <time>2026-05-16T09:53:11Z</time>
      </trkpt>
      <trkpt lat="43.82915" lon="6.94768">
        <ele>1404.7</ele>
        <time>2026-05-16T09:53:12Z</time>
      </trkpt>
      <trkpt lat="43.82929" lon="6.94768">
        <ele>1403.9</ele>
        <time>2026-05-16T09:53:13Z</time>
      </trkpt>
      <trkpt lat="43.82943" lon="6.94769">
        <ele>1403.1</ele>
        <time>2026-05-16T09:53:14Z</time>
      </trkpt>
      <trkpt lat="43.82958" lon="6.94771">
        <ele>1402.5</ele>
        <time>2026-05-16T09:53:15Z</time>
      </trkpt>
      <trkpt lat="43.82973" lon="6.94775">
        <ele>1402</ele>
        <time>2026-05-16T09:53:16Z</time>
      </trkpt>
      <trkpt lat="43.82989" lon="6.9478">
        <ele>1401.9</ele>
        <time>2026-05-16T09:53:17Z</time>
      </trkpt>
      <trkpt lat="43.83004" lon="6.94786">
        <ele>1401.8</ele>
        <time>2026-05-16T09:53:18Z</time>
      </trkpt>
      <trkpt lat="43.8302" lon="6.94794">
        <ele>1402.1</ele>
        <time>2026-05-16T09:53:19Z</time>
      </trkpt>
      <trkpt lat="43.83035" lon="6.94804">
        <ele>1402.3</ele>
        <time>2026-05-16T09:53:20Z</time>
      </trkpt>
      <trkpt lat="43.83049" lon="6.94816">
        <ele>1402</ele>
        <time>2026-05-16T09:53:21Z</time>
      </trkpt>
      <trkpt lat="43.83063" lon="6.94828">
        <ele>1402.2</ele>
        <time>2026-05-16T09:53:22Z</time>
      </trkpt>
      <trkpt lat="43.83076" lon="6.94842">
        <ele>1402.9</ele>
        <time>2026-05-16T09:53:23Z</time>
      </trkpt>
      <trkpt lat="43.83088" lon="6.94858">
        <ele>1403.5</ele>
        <time>2026-05-16T09:53:24Z</time>
      </trkpt>
      <trkpt lat="43.83099" lon="6.94875">
        <ele>1403.3</ele>
        <time>2026-05-16T09:53:25Z</time>
      </trkpt>
      <trkpt lat="43.8311" lon="6.94893">
        <ele>1402.8</ele>
        <time>2026-05-16T09:53:26Z</time>
      </trkpt>
      <trkpt lat="43.8312" lon="6.94912">
        <ele>1402.8</ele>
        <time>2026-05-16T09:53:27Z</time>
      </trkpt>
      <trkpt lat="43.8313" lon="6.94931">
        <ele>1403</ele>
        <time>2026-05-16T09:53:28Z</time>
      </trkpt>
      <trkpt lat="43.83138" lon="6.94949">
        <ele>1402.8</ele>
        <time>2026-05-16T09:53:29Z</time>
      </trkpt>
      <trkpt lat="43.83147" lon="6.94967">
        <ele>1403</ele>
        <time>2026-05-16T09:53:30Z</time>
      </trkpt>
      <trkpt lat="43.83154" lon="6.94984">
        <ele>1403.4</ele>
        <time>2026-05-16T09:53:31Z</time>
      </trkpt>
      <trkpt lat="43.83159" lon="6.94999">
        <ele>1403.5</ele>
        <time>2026-05-16T09:53:32Z</time>
      </trkpt>
      <trkpt lat="43.83164" lon="6.95011">
        <ele>1403.5</ele>
        <time>2026-05-16T09:53:33Z</time>
      </trkpt>
      <trkpt lat="43.83168" lon="6.95022">
        <ele>1403.4</ele>
        <time>2026-05-16T09:53:34Z</time>
      </trkpt>
      <trkpt lat="43.8317" lon="6.95031">
        <ele>1403.5</ele>
        <time>2026-05-16T09:53:35Z</time>
      </trkpt>
      <trkpt lat="43.83173" lon="6.95039">
        <ele>1404.1</ele>
        <time>2026-05-16T09:53:36Z</time>
      </trkpt>
      <trkpt lat="43.83175" lon="6.95047">
        <ele>1404.6</ele>
        <time>2026-05-16T09:53:37Z</time>
      </trkpt>
      <trkpt lat="43.83176" lon="6.95053">
        <ele>1404.9</ele>
        <time>2026-05-16T09:53:38Z</time>
      </trkpt>
      <trkpt lat="43.83177" lon="6.95059">
        <ele>1405.1</ele>
        <time>2026-05-16T09:53:39Z</time>
      </trkpt>
      <trkpt lat="43.83178" lon="6.95063">
        <ele>1405.2</ele>
        <time>2026-05-16T09:53:40Z</time>
      </trkpt>
      <trkpt lat="43.8318" lon="6.95067">
        <ele>1405.4</ele>
        <time>2026-05-16T09:53:41Z</time>
      </trkpt>
      <trkpt lat="43.8318" lon="6.9507">
        <ele>1405.4</ele>
        <time>2026-05-16T09:53:42Z</time>
      </trkpt>
      <trkpt lat="43.83181" lon="6.95074">
        <ele>1405.5</ele>
        <time>2026-05-16T09:53:43Z</time>
      </trkpt>
      <trkpt lat="43.83182" lon="6.95078">
        <ele>1405.7</ele>
        <time>2026-05-16T09:53:44Z</time>
      </trkpt>
      <trkpt lat="43.83183" lon="6.95082">
        <ele>1405.8</ele>
        <time>2026-05-16T09:53:45Z</time>
      </trkpt>
      <trkpt lat="43.83184" lon="6.95086">
        <ele>1405.9</ele>
        <time>2026-05-16T09:53:46Z</time>
      </trkpt>
      <trkpt lat="43.83184" lon="6.95091">
        <ele>1406.1</ele>
        <time>2026-05-16T09:53:47Z</time>
      </trkpt>
      <trkpt lat="43.83185" lon="6.95095">
        <ele>1406.3</ele>
        <time>2026-05-16T09:53:48Z</time>
      </trkpt>
      <trkpt lat="43.83186" lon="6.951">
        <ele>1406.5</ele>
        <time>2026-05-16T09:53:49Z</time>
      </trkpt>
      <trkpt lat="43.83186" lon="6.95105">
        <ele>1406.6</ele>
        <time>2026-05-16T09:53:50Z</time>
      </trkpt>
      <trkpt lat="43.83186" lon="6.9511">
        <ele>1406.7</ele>
        <time>2026-05-16T09:53:51Z</time>
      </trkpt>
      <trkpt lat="43.83185" lon="6.95115">
        <ele>1406.7</ele>
        <time>2026-05-16T09:53:52Z</time>
      </trkpt>
      <trkpt lat="43.83184" lon="6.95119">
        <ele>1406.6</ele>
        <time>2026-05-16T09:53:53Z</time>
      </trkpt>
      <trkpt lat="43.83182" lon="6.95123">
        <ele>1406.6</ele>
        <time>2026-05-16T09:53:54Z</time>
      </trkpt>
      <trkpt lat="43.8318" lon="6.95126">
        <ele>1406.5</ele>
        <time>2026-05-16T09:53:55Z</time>
      </trkpt>
      <trkpt lat="43.83178" lon="6.95128">
        <ele>1406.4</ele>
        <time>2026-05-16T09:53:56Z</time>
      </trkpt>
      <trkpt lat="43.83175" lon="6.95129">
        <ele>1406.3</ele>
        <time>2026-05-16T09:53:57Z</time>
      </trkpt>
      <trkpt lat="43.83173" lon="6.9513">
        <ele>1406.2</ele>
        <time>2026-05-16T09:53:58Z</time>
      </trkpt>
      <trkpt lat="43.83172" lon="6.95131">
        <ele>1406.2</ele>
        <time>2026-05-16T09:53:59Z</time>
      </trkpt>
      <trkpt lat="43.83171" lon="6.95131">
        <ele>1406.2</ele>
        <time>2026-05-16T09:54:00Z</time>
      </trkpt>
      <trkpt lat="43.83171" lon="6.95131">
        <ele>1406.2</ele>
        <time>2026-05-16T09:54:01Z</time>
      </trkpt>
      <trkpt lat="43.83171" lon="6.95131">
        <ele>1406.2</ele>
        <time>2026-05-16T09:54:02Z</time>
      </trkpt>
      <trkpt lat="43.83171" lon="6.95131">
        <ele>1406.2</ele>
        <time>2026-05-16T09:54:03Z</time>
      </trkpt>
      <trkpt lat="43.83171" lon="6.9513">
        <ele>1406.2</ele>
        <time>2026-05-16T09:54:04Z</time>
      </trkpt>
      <trkpt lat="43.83172" lon="6.9513">
        <ele>1406.2</ele>
        <time>2026-05-16T09:54:05Z</time>
      </trkpt>
      <trkpt lat="43.83172" lon="6.9513">
        <ele>1406.2</ele>
        <time>2026-05-16T09:54:06Z</time>
      </trkpt>
      <trkpt lat="43.83172" lon="6.9513">
        <ele>1406.2</ele>
        <time>2026-05-16T09:54:07Z</time>
      </trkpt>
      <trkpt lat="43.83172" lon="6.95129">
        <ele>1406.2</ele>
        <time>2026-05-16T09:54:08Z</time>
      </trkpt>
      <trkpt lat="43.83172" lon="6.95129">
        <ele>1406.2</ele>
        <time>2026-05-16T09:54:09Z</time>
      </trkpt>
      <trkpt lat="43.83172" lon="6.95129">
        <ele>1406.2</ele>
        <time>2026-05-16T09:54:10Z</time>
      </trkpt>
      <trkpt lat="43.83172" lon="6.95129">
        <ele>1406.2</ele>
        <time>2026-05-16T09:54:11Z</time>
      </trkpt>
      <trkpt lat="43.83172" lon="6.95129">
        <ele>1406.2</ele>
        <time>2026-05-16T09:54:12Z</time>
      </trkpt>
      <trkpt lat="43.83172" lon="6.95129">
        <ele>1406.2</ele>
        <time>2026-05-16T09:54:13Z</time>
      </trkpt>
      <trkpt lat="43.83172" lon="6.95129">
        <ele>1406.2</ele>
        <time>2026-05-16T09:54:14Z</time>
      </trkpt>
      <trkpt lat="43.83172" lon="6.95129">
        <ele>1406.2</ele>
        <time>2026-05-16T09:54:15Z</time>
      </trkpt>
      <trkpt lat="43.83172" lon="6.95129">
        <ele>1406.2</ele>
        <time>2026-05-16T09:54:16Z</time>
      </trkpt>
      <trkpt lat="43.83172" lon="6.95129">
        <ele>1406.2</ele>
        <time>2026-05-16T09:54:17Z</time>
      </trkpt>
      <trkpt lat="43.83172" lon="6.9513">
        <ele>1406.2</ele>
        <time>2026-05-16T09:54:18Z</time>
      </trkpt>
      <trkpt lat="43.83172" lon="6.9513">
        <ele>1406.2</ele>
        <time>2026-05-16T09:54:19Z</time>
      </trkpt>
      <trkpt lat="43.83172" lon="6.95129">
        <ele>1406.2</ele>
        <time>2026-05-16T09:54:20Z</time>
      </trkpt>
      <trkpt lat="43.83172" lon="6.95129">
        <ele>1406.2</ele>
        <time>2026-05-16T09:54:21Z</time>
      </trkpt>
      <trkpt lat="43.83172" lon="6.95129">
        <ele>1406.2</ele>
        <time>2026-05-16T09:54:22Z</time>
      </trkpt>
      <trkpt lat="43.83172" lon="6.95128">
        <ele>1406.2</ele>
        <time>2026-05-16T09:54:23Z</time>
      </trkpt>
      <trkpt lat="43.83171" lon="6.95128">
        <ele>1406.2</ele>
        <time>2026-05-16T09:54:29Z</time>
      </trkpt>
      <trkpt lat="43.83172" lon="6.95128">
        <ele>1406.2</ele>
        <time>2026-05-16T09:54:30Z</time>
      </trkpt>
      <trkpt lat="43.83171" lon="6.95128">
        <ele>1406.2</ele>
        <time>2026-05-16T09:54:31Z</time>
      </trkpt>
      <trkpt lat="43.83171" lon="6.95129">
        <ele>1406.2</ele>
        <time>2026-05-16T09:54:32Z</time>
      </trkpt>
      <trkpt lat="43.83171" lon="6.95129">
        <ele>1406.2</ele>
        <time>2026-05-16T09:54:33Z</time>
      </trkpt>
      <trkpt lat="43.83171" lon="6.95129">
        <ele>1406.2</ele>
        <time>2026-05-16T09:54:34Z</time>
      </trkpt>
      <trkpt lat="43.8317" lon="6.9513">
        <ele>1406.1</ele>
        <time>2026-05-16T09:54:35Z</time>
      </trkpt>
      <trkpt lat="43.8317" lon="6.95131">
        <ele>1406.1</ele>
        <time>2026-05-16T09:54:36Z</time>
      </trkpt>
      <trkpt lat="43.8317" lon="6.95132">
        <ele>1406.1</ele>
        <time>2026-05-16T09:54:37Z</time>
      </trkpt>
      <trkpt lat="43.8317" lon="6.95133">
        <ele>1406.1</ele>
        <time>2026-05-16T09:54:38Z</time>
      </trkpt>
      <trkpt lat="43.8317" lon="6.95133">
        <ele>1406.1</ele>
        <time>2026-05-16T09:54:39Z</time>
      </trkpt>
      <trkpt lat="43.8317" lon="6.95134">
        <ele>1406.1</ele>
        <time>2026-05-16T09:54:40Z</time>
      </trkpt>
      <trkpt lat="43.8317" lon="6.95134">
        <ele>1406.1</ele>
        <time>2026-05-16T09:54:41Z</time>
      </trkpt>
      <trkpt lat="43.8317" lon="6.95135">
        <ele>1406.1</ele>
        <time>2026-05-16T09:54:42Z</time>
      </trkpt>
      <trkpt lat="43.8317" lon="6.95135">
        <ele>1406.1</ele>
        <time>2026-05-16T09:54:43Z</time>
      </trkpt>
      <trkpt lat="43.8317" lon="6.95136">
        <ele>1406.1</ele>
        <time>2026-05-16T09:54:44Z</time>
      </trkpt>
      <trkpt lat="43.8317" lon="6.95136">
        <ele>1406.1</ele>
        <time>2026-05-16T09:54:45Z</time>
      </trkpt>
      <trkpt lat="43.8317" lon="6.95137">
        <ele>1406.1</ele>
        <time>2026-05-16T09:54:46Z</time>
      </trkpt>
      <trkpt lat="43.8317" lon="6.95137">
        <ele>1406.1</ele>
        <time>2026-05-16T09:54:47Z</time>
      </trkpt>
      <trkpt lat="43.8317" lon="6.95136">
        <ele>1406.1</ele>
        <time>2026-05-16T09:54:48Z</time>
      </trkpt>
      <trkpt lat="43.8317" lon="6.95136">
        <ele>1406.1</ele>
        <time>2026-05-16T09:54:49Z</time>
      </trkpt>
      <trkpt lat="43.8317" lon="6.95136">
        <ele>1406.1</ele>
        <time>2026-05-16T09:54:50Z</time>
      </trkpt>
      <trkpt lat="43.8317" lon="6.95136">
        <ele>1406.1</ele>
        <time>2026-05-16T09:54:51Z</time>
      </trkpt>
      <trkpt lat="43.8317" lon="6.95136">
        <ele>1406.1</ele>
        <time>2026-05-16T09:54:52Z</time>
      </trkpt>
      <trkpt lat="43.8317" lon="6.95136">
        <ele>1406.1</ele>
        <time>2026-05-16T09:54:53Z</time>
      </trkpt>
      <trkpt lat="43.8317" lon="6.95136">
        <ele>1406.1</ele>
        <time>2026-05-16T09:54:54Z</time>
      </trkpt>
      <trkpt lat="43.8317" lon="6.95136">
        <ele>1406.1</ele>
        <time>2026-05-16T09:54:55Z</time>
      </trkpt>
      <trkpt lat="43.83169" lon="6.95136">
        <ele>1406.1</ele>
        <time>2026-05-16T09:54:56Z</time>
      </trkpt>
      <trkpt lat="43.83169" lon="6.95136">
        <ele>1406.1</ele>
        <time>2026-05-16T09:54:57Z</time>
      </trkpt>
      <trkpt lat="43.83169" lon="6.95136">
        <ele>1406.1</ele>
        <time>2026-05-16T09:54:58Z</time>
      </trkpt>
      <trkpt lat="43.83169" lon="6.95136">
        <ele>1406.1</ele>
        <time>2026-05-16T09:54:59Z</time>
      </trkpt>
      <trkpt lat="43.83169" lon="6.95136">
        <ele>1406.1</ele>
        <time>2026-05-16T09:55:00Z</time>
      </trkpt>
      <trkpt lat="43.83169" lon="6.95136">
        <ele>1406.1</ele>
        <time>2026-05-16T09:55:01Z</time>
      </trkpt>
      <trkpt lat="43.83169" lon="6.95136">
        <ele>1406.1</ele>
        <time>2026-05-16T09:55:02Z</time>
      </trkpt>
      <trkpt lat="43.83188" lon="6.95161">
        <ele>1407.4</ele>
        <time>2026-05-16T12:37:28Z</time>
      </trkpt>
      <trkpt lat="43.83186" lon="6.95161">
        <ele>1407.3</ele>
        <time>2026-05-16T12:37:29Z</time>
      </trkpt>
      <trkpt lat="43.83187" lon="6.95162">
        <ele>1407.3</ele>
        <time>2026-05-16T12:37:30Z</time>
      </trkpt>
      <trkpt lat="43.83188" lon="6.95164">
        <ele>1407.5</ele>
        <time>2026-05-16T12:37:31Z</time>
      </trkpt>
      <trkpt lat="43.83189" lon="6.95164">
        <ele>1407.5</ele>
        <time>2026-05-16T12:37:32Z</time>
      </trkpt>
      <trkpt lat="43.8319" lon="6.95165">
        <ele>1407.6</ele>
        <time>2026-05-16T12:37:33Z</time>
      </trkpt>
      <trkpt lat="43.83191" lon="6.95165">
        <ele>1407.7</ele>
        <time>2026-05-16T12:37:34Z</time>
      </trkpt>
      <trkpt lat="43.83192" lon="6.95165">
        <ele>1407.8</ele>
        <time>2026-05-16T12:37:35Z</time>
      </trkpt>
      <trkpt lat="43.83193" lon="6.95166">
        <ele>1407.9</ele>
        <time>2026-05-16T12:37:36Z</time>
      </trkpt>
      <trkpt lat="43.83193" lon="6.95166">
        <ele>1407.9</ele>
        <time>2026-05-16T12:37:37Z</time>
      </trkpt>
      <trkpt lat="43.83191" lon="6.95164">
        <ele>1407.7</ele>
        <time>2026-05-16T12:37:38Z</time>
      </trkpt>
      <trkpt lat="43.8319" lon="6.95163">
        <ele>1407.6</ele>
        <time>2026-05-16T12:37:39Z</time>
      </trkpt>
      <trkpt lat="43.83189" lon="6.95162">
        <ele>1407.5</ele>
        <time>2026-05-16T12:37:40Z</time>
      </trkpt>
      <trkpt lat="43.83189" lon="6.95162">
        <ele>1407.5</ele>
        <time>2026-05-16T12:37:41Z</time>
      </trkpt>
      <trkpt lat="43.83189" lon="6.95161">
        <ele>1407.4</ele>
        <time>2026-05-16T12:37:42Z</time>
      </trkpt>
      <trkpt lat="43.83188" lon="6.9516">
        <ele>1407.4</ele>
        <time>2026-05-16T12:37:43Z</time>
      </trkpt>
      <trkpt lat="43.83185" lon="6.95158">
        <ele>1407.1</ele>
        <time>2026-05-16T12:37:44Z</time>
      </trkpt>
      <trkpt lat="43.83185" lon="6.95157">
        <ele>1407.1</ele>
        <time>2026-05-16T12:37:45Z</time>
      </trkpt>
      <trkpt lat="43.83185" lon="6.95157">
        <ele>1407.1</ele>
        <time>2026-05-16T12:37:46Z</time>
      </trkpt>
      <trkpt lat="43.83184" lon="6.95157">
        <ele>1407</ele>
        <time>2026-05-16T12:37:47Z</time>
      </trkpt>
      <trkpt lat="43.83184" lon="6.95157">
        <ele>1407</ele>
        <time>2026-05-16T12:37:48Z</time>
      </trkpt>
      <trkpt lat="43.83183" lon="6.95157">
        <ele>1407</ele>
        <time>2026-05-16T12:37:49Z</time>
      </trkpt>
      <trkpt lat="43.83184" lon="6.95158">
        <ele>1407.1</ele>
        <time>2026-05-16T12:37:50Z</time>
      </trkpt>
      <trkpt lat="43.83184" lon="6.95159">
        <ele>1407.1</ele>
        <time>2026-05-16T12:37:51Z</time>
      </trkpt>
      <trkpt lat="43.83185" lon="6.95159">
        <ele>1407.1</ele>
        <time>2026-05-16T12:37:52Z</time>
      </trkpt>
      <trkpt lat="43.83185" lon="6.9516">
        <ele>1407.2</ele>
        <time>2026-05-16T12:37:53Z</time>
      </trkpt>
      <trkpt lat="43.83186" lon="6.95161">
        <ele>1407.3</ele>
        <time>2026-05-16T12:37:54Z</time>
      </trkpt>
      <trkpt lat="43.83186" lon="6.95162">
        <ele>1407.3</ele>
        <time>2026-05-16T12:37:55Z</time>
      </trkpt>
      <trkpt lat="43.83186" lon="6.95162">
        <ele>1407.3</ele>
        <time>2026-05-16T12:37:56Z</time>
      </trkpt>
      <trkpt lat="43.83186" lon="6.95162">
        <ele>1407.3</ele>
        <time>2026-05-16T12:37:57Z</time>
      </trkpt>
      <trkpt lat="43.83186" lon="6.95162">
        <ele>1407.3</ele>
        <time>2026-05-16T12:37:58Z</time>
      </trkpt>
      <trkpt lat="43.83186" lon="6.95162">
        <ele>1407.3</ele>
        <time>2026-05-16T12:37:59Z</time>
      </trkpt>
      <trkpt lat="43.83186" lon="6.95162">
        <ele>1407.3</ele>
        <time>2026-05-16T12:38:00Z</time>
      </trkpt>
      <trkpt lat="43.83185" lon="6.95162">
        <ele>1407.2</ele>
        <time>2026-05-16T12:38:01Z</time>
      </trkpt>
      <trkpt lat="43.83185" lon="6.95162">
        <ele>1407.2</ele>
        <time>2026-05-16T12:38:02Z</time>
      </trkpt>
      <trkpt lat="43.83185" lon="6.95162">
        <ele>1407.2</ele>
        <time>2026-05-16T12:38:03Z</time>
      </trkpt>
      <trkpt lat="43.83185" lon="6.95162">
        <ele>1407.2</ele>
        <time>2026-05-16T12:38:04Z</time>
      </trkpt>
      <trkpt lat="43.83185" lon="6.95162">
        <ele>1407.2</ele>
        <time>2026-05-16T12:38:05Z</time>
      </trkpt>
      <trkpt lat="43.83185" lon="6.95162">
        <ele>1407.2</ele>
        <time>2026-05-16T12:38:06Z</time>
      </trkpt>
      <trkpt lat="43.83185" lon="6.95162">
        <ele>1407.2</ele>
        <time>2026-05-16T12:38:07Z</time>
      </trkpt>
      <trkpt lat="43.83185" lon="6.95162">
        <ele>1407.2</ele>
        <time>2026-05-16T12:38:08Z</time>
      </trkpt>
      <trkpt lat="43.83185" lon="6.95162">
        <ele>1407.2</ele>
        <time>2026-05-16T12:38:09Z</time>
      </trkpt>
      <trkpt lat="43.83185" lon="6.95162">
        <ele>1407.2</ele>
        <time>2026-05-16T12:38:10Z</time>
      </trkpt>
      <trkpt lat="43.83185" lon="6.95162">
        <ele>1407.2</ele>
        <time>2026-05-16T12:38:11Z</time>
      </trkpt>
      <trkpt lat="43.83185" lon="6.95162">
        <ele>1407.2</ele>
        <time>2026-05-16T12:38:12Z</time>
      </trkpt>
      <trkpt lat="43.83185" lon="6.95162">
        <ele>1407.2</ele>
        <time>2026-05-16T12:38:13Z</time>
      </trkpt>
      <trkpt lat="43.83178" lon="6.95149">
        <ele>1406.6</ele>
        <time>2026-05-16T12:39:30Z</time>
      </trkpt>
      <trkpt lat="43.83177" lon="6.95159">
        <ele>1406.6</ele>
        <time>2026-05-16T12:39:31Z</time>
      </trkpt>
      <trkpt lat="43.83178" lon="6.9516">
        <ele>1406.7</ele>
        <time>2026-05-16T12:39:32Z</time>
      </trkpt>
      <trkpt lat="43.83179" lon="6.95162">
        <ele>1406.8</ele>
        <time>2026-05-16T12:39:33Z</time>
      </trkpt>
      <trkpt lat="43.83178" lon="6.95164">
        <ele>1406.8</ele>
        <time>2026-05-16T12:39:34Z</time>
      </trkpt>
      <trkpt lat="43.83178" lon="6.95165">
        <ele>1406.8</ele>
        <time>2026-05-16T12:39:35Z</time>
      </trkpt>
      <trkpt lat="43.83179" lon="6.95165">
        <ele>1406.9</ele>
        <time>2026-05-16T12:39:36Z</time>
      </trkpt>
      <trkpt lat="43.83179" lon="6.95165">
        <ele>1406.9</ele>
        <time>2026-05-16T12:39:37Z</time>
      </trkpt>
      <trkpt lat="43.8318" lon="6.95165">
        <ele>1406.9</ele>
        <time>2026-05-16T12:39:38Z</time>
      </trkpt>
      <trkpt lat="43.83182" lon="6.95166">
        <ele>1407.1</ele>
        <time>2026-05-16T12:39:39Z</time>
      </trkpt>
      <trkpt lat="43.83184" lon="6.95165">
        <ele>1407.2</ele>
        <time>2026-05-16T12:39:40Z</time>
      </trkpt>
      <trkpt lat="43.83185" lon="6.95165">
        <ele>1407.3</ele>
        <time>2026-05-16T12:39:41Z</time>
      </trkpt>
      <trkpt lat="43.83186" lon="6.95165">
        <ele>1407.4</ele>
        <time>2026-05-16T12:39:42Z</time>
      </trkpt>
      <trkpt lat="43.83186" lon="6.95165">
        <ele>1407.4</ele>
        <time>2026-05-16T12:39:43Z</time>
      </trkpt>
      <trkpt lat="43.83186" lon="6.95165">
        <ele>1407.4</ele>
        <time>2026-05-16T12:39:44Z</time>
      </trkpt>
      <trkpt lat="43.83187" lon="6.95164">
        <ele>1407.4</ele>
        <time>2026-05-16T12:39:45Z</time>
      </trkpt>
      <trkpt lat="43.83189" lon="6.95163">
        <ele>1407.5</ele>
        <time>2026-05-16T12:39:46Z</time>
      </trkpt>
      <trkpt lat="43.8319" lon="6.95162">
        <ele>1407.5</ele>
        <time>2026-05-16T12:39:47Z</time>
      </trkpt>
      <trkpt lat="43.83192" lon="6.9516">
        <ele>1407.6</ele>
        <time>2026-05-16T12:39:48Z</time>
      </trkpt>
      <trkpt lat="43.83194" lon="6.95157">
        <ele>1407.6</ele>
        <time>2026-05-16T12:39:49Z</time>
      </trkpt>
      <trkpt lat="43.83196" lon="6.95152">
        <ele>1407.7</ele>
        <time>2026-05-16T12:39:50Z</time>
      </trkpt>
      <trkpt lat="43.83196" lon="6.95142">
        <ele>1407.3</ele>
        <time>2026-05-16T12:39:51Z</time>
      </trkpt>
      <trkpt lat="43.83196" lon="6.95132">
        <ele>1407.2</ele>
        <time>2026-05-16T12:39:52Z</time>
      </trkpt>
      <trkpt lat="43.83195" lon="6.95122">
        <ele>1407.1</ele>
        <time>2026-05-16T12:39:53Z</time>
      </trkpt>
      <trkpt lat="43.83193" lon="6.95111">
        <ele>1406.9</ele>
        <time>2026-05-16T12:39:54Z</time>
      </trkpt>
      <trkpt lat="43.83191" lon="6.95099">
        <ele>1406.8</ele>
        <time>2026-05-16T12:39:55Z</time>
      </trkpt>
      <trkpt lat="43.83188" lon="6.95084">
        <ele>1406.3</ele>
        <time>2026-05-16T12:39:56Z</time>
      </trkpt>
      <trkpt lat="43.83185" lon="6.9507">
        <ele>1406</ele>
        <time>2026-05-16T12:39:57Z</time>
      </trkpt>
      <trkpt lat="43.83181" lon="6.95055">
        <ele>1405.5</ele>
        <time>2026-05-16T12:39:58Z</time>
      </trkpt>
      <trkpt lat="43.83177" lon="6.95039">
        <ele>1404.5</ele>
        <time>2026-05-16T12:39:59Z</time>
      </trkpt>
      <trkpt lat="43.83171" lon="6.95022">
        <ele>1403.7</ele>
        <time>2026-05-16T12:40:00Z</time>
      </trkpt>
      <trkpt lat="43.83166" lon="6.95003">
        <ele>1403.8</ele>
        <time>2026-05-16T12:40:01Z</time>
      </trkpt>
      <trkpt lat="43.83159" lon="6.94986">
        <ele>1403.8</ele>
        <time>2026-05-16T12:40:02Z</time>
      </trkpt>
      <trkpt lat="43.83152" lon="6.94969">
        <ele>1403.5</ele>
        <time>2026-05-16T12:40:03Z</time>
      </trkpt>
      <trkpt lat="43.83144" lon="6.94953">
        <ele>1403.1</ele>
        <time>2026-05-16T12:40:04Z</time>
      </trkpt>
      <trkpt lat="43.83137" lon="6.94939">
        <ele>1403.1</ele>
        <time>2026-05-16T12:40:05Z</time>
      </trkpt>
      <trkpt lat="43.8313" lon="6.94925">
        <ele>1403.2</ele>
        <time>2026-05-16T12:40:06Z</time>
      </trkpt>
      <trkpt lat="43.83124" lon="6.94912">
        <ele>1403.1</ele>
        <time>2026-05-16T12:40:07Z</time>
      </trkpt>
      <trkpt lat="43.83117" lon="6.949">
        <ele>1403</ele>
        <time>2026-05-16T12:40:08Z</time>
      </trkpt>
      <trkpt lat="43.8311" lon="6.94887">
        <ele>1403.1</ele>
        <time>2026-05-16T12:40:09Z</time>
      </trkpt>
      <trkpt lat="43.83102" lon="6.94875">
        <ele>1403.5</ele>
        <time>2026-05-16T12:40:10Z</time>
      </trkpt>
      <trkpt lat="43.83094" lon="6.94864">
        <ele>1403.6</ele>
        <time>2026-05-16T12:40:11Z</time>
      </trkpt>
      <trkpt lat="43.83086" lon="6.94852">
        <ele>1403.6</ele>
        <time>2026-05-16T12:40:12Z</time>
      </trkpt>
      <trkpt lat="43.83076" lon="6.94841">
        <ele>1402.9</ele>
        <time>2026-05-16T12:40:13Z</time>
      </trkpt>
      <trkpt lat="43.83066" lon="6.9483">
        <ele>1402.4</ele>
        <time>2026-05-16T12:40:14Z</time>
      </trkpt>
      <trkpt lat="43.83056" lon="6.9482">
        <ele>1402</ele>
        <time>2026-05-16T12:40:15Z</time>
      </trkpt>
      <trkpt lat="43.83046" lon="6.94811">
        <ele>1402.3</ele>
        <time>2026-05-16T12:40:16Z</time>
      </trkpt>
      <trkpt lat="43.83035" lon="6.94804">
        <ele>1402.3</ele>
        <time>2026-05-16T12:40:17Z</time>
      </trkpt>
      <trkpt lat="43.83025" lon="6.94797">
        <ele>1402.2</ele>
        <time>2026-05-16T12:40:18Z</time>
      </trkpt>
      <trkpt lat="43.83015" lon="6.94791">
        <ele>1402.1</ele>
        <time>2026-05-16T12:40:19Z</time>
      </trkpt>
      <trkpt lat="43.83005" lon="6.94786">
        <ele>1401.9</ele>
        <time>2026-05-16T12:40:20Z</time>
      </trkpt>
      <trkpt lat="43.82995" lon="6.94781">
        <ele>1401.9</ele>
        <time>2026-05-16T12:40:21Z</time>
      </trkpt>
      <trkpt lat="43.82984" lon="6.94778">
        <ele>1402</ele>
        <time>2026-05-16T12:40:22Z</time>
      </trkpt>
      <trkpt lat="43.82975" lon="6.94775">
        <ele>1402</ele>
        <time>2026-05-16T12:40:23Z</time>
      </trkpt>
      <trkpt lat="43.82966" lon="6.94772">
        <ele>1402.2</ele>
        <time>2026-05-16T12:40:24Z</time>
      </trkpt>
      <trkpt lat="43.82956" lon="6.9477">
        <ele>1402.6</ele>
        <time>2026-05-16T12:40:25Z</time>
      </trkpt>
      <trkpt lat="43.82947" lon="6.94769">
        <ele>1402.9</ele>
        <time>2026-05-16T12:40:26Z</time>
      </trkpt>
      <trkpt lat="43.82937" lon="6.94768">
        <ele>1403.4</ele>
        <time>2026-05-16T12:40:27Z</time>
      </trkpt>
      <trkpt lat="43.82927" lon="6.94767">
        <ele>1404</ele>
        <time>2026-05-16T12:40:28Z</time>
      </trkpt>
      <trkpt lat="43.82917" lon="6.94767">
        <ele>1404.6</ele>
        <time>2026-05-16T12:40:29Z</time>
      </trkpt>
      <trkpt lat="43.82907" lon="6.94769">
        <ele>1405</ele>
        <time>2026-05-16T12:40:30Z</time>
      </trkpt>
      <trkpt lat="43.82897" lon="6.94773">
        <ele>1405.5</ele>
        <time>2026-05-16T12:40:31Z</time>
      </trkpt>
      <trkpt lat="43.82887" lon="6.94778">
        <ele>1406.1</ele>
        <time>2026-05-16T12:40:32Z</time>
      </trkpt>
      <trkpt lat="43.82878" lon="6.94786">
        <ele>1406.7</ele>
        <time>2026-05-16T12:40:33Z</time>
      </trkpt>
      <trkpt lat="43.82869" lon="6.94794">
        <ele>1407.3</ele>
        <time>2026-05-16T12:40:34Z</time>
      </trkpt>
      <trkpt lat="43.82859" lon="6.94802">
        <ele>1408</ele>
        <time>2026-05-16T12:40:35Z</time>
      </trkpt>
      <trkpt lat="43.8285" lon="6.9481">
        <ele>1409.1</ele>
        <time>2026-05-16T12:40:36Z</time>
      </trkpt>
      <trkpt lat="43.8284" lon="6.94816">
        <ele>1410.3</ele>
        <time>2026-05-16T12:40:37Z</time>
      </trkpt>
      <trkpt lat="43.82829" lon="6.94821">
        <ele>1411.5</ele>
        <time>2026-05-16T12:40:38Z</time>
      </trkpt>
      <trkpt lat="43.82817" lon="6.94823">
        <ele>1412.7</ele>
        <time>2026-05-16T12:40:39Z</time>
      </trkpt>
      <trkpt lat="43.82806" lon="6.9482">
        <ele>1413.5</ele>
        <time>2026-05-16T12:40:40Z</time>
      </trkpt>
      <trkpt lat="43.82796" lon="6.94812">
        <ele>1414.3</ele>
        <time>2026-05-16T12:40:41Z</time>
      </trkpt>
      <trkpt lat="43.82789" lon="6.94801">
        <ele>1414.7</ele>
        <time>2026-05-16T12:40:42Z</time>
      </trkpt>
      <trkpt lat="43.82786" lon="6.94787">
        <ele>1414.6</ele>
        <time>2026-05-16T12:40:43Z</time>
      </trkpt>
      <trkpt lat="43.82786" lon="6.94774">
        <ele>1414.8</ele>
        <time>2026-05-16T12:40:44Z</time>
      </trkpt>
      <trkpt lat="43.8279" lon="6.94762">
        <ele>1415.6</ele>
        <time>2026-05-16T12:40:45Z</time>
      </trkpt>
      <trkpt lat="43.82796" lon="6.9475">
        <ele>1416</ele>
        <time>2026-05-16T12:40:46Z</time>
      </trkpt>
      <trkpt lat="43.82804" lon="6.94739">
        <ele>1416.8</ele>
        <time>2026-05-16T12:40:47Z</time>
      </trkpt>
      <trkpt lat="43.82813" lon="6.94727">
        <ele>1417.2</ele>
        <time>2026-05-16T12:40:48Z</time>
      </trkpt>
      <trkpt lat="43.82823" lon="6.94716">
        <ele>1417.8</ele>
        <time>2026-05-16T12:40:49Z</time>
      </trkpt>
      <trkpt lat="43.82834" lon="6.94704">
        <ele>1418.2</ele>
        <time>2026-05-16T12:40:50Z</time>
      </trkpt>
      <trkpt lat="43.82846" lon="6.94693">
        <ele>1418.1</ele>
        <time>2026-05-16T12:40:51Z</time>
      </trkpt>
      <trkpt lat="43.82859" lon="6.94681">
        <ele>1418.3</ele>
        <time>2026-05-16T12:40:52Z</time>
      </trkpt>
      <trkpt lat="43.82871" lon="6.9467">
        <ele>1418.8</ele>
        <time>2026-05-16T12:40:53Z</time>
      </trkpt>
      <trkpt lat="43.82883" lon="6.94659">
        <ele>1419.5</ele>
        <time>2026-05-16T12:40:54Z</time>
      </trkpt>
      <trkpt lat="43.82894" lon="6.94649">
        <ele>1420</ele>
        <time>2026-05-16T12:40:55Z</time>
      </trkpt>
      <trkpt lat="43.82905" lon="6.9464">
        <ele>1420.4</ele>
        <time>2026-05-16T12:40:56Z</time>
      </trkpt>
      <trkpt lat="43.82916" lon="6.9463">
        <ele>1421</ele>
        <time>2026-05-16T12:40:57Z</time>
      </trkpt>
      <trkpt lat="43.82928" lon="6.94619">
        <ele>1422.4</ele>
        <time>2026-05-16T12:40:58Z</time>
      </trkpt>
      <trkpt lat="43.82939" lon="6.94609">
        <ele>1423.6</ele>
        <time>2026-05-16T12:40:59Z</time>
      </trkpt>
      <trkpt lat="43.82952" lon="6.94598">
        <ele>1424.1</ele>
        <time>2026-05-16T12:41:00Z</time>
      </trkpt>
      <trkpt lat="43.82964" lon="6.94586">
        <ele>1425.6</ele>
        <time>2026-05-16T12:41:01Z</time>
      </trkpt>
      <trkpt lat="43.82976" lon="6.94574">
        <ele>1426.4</ele>
        <time>2026-05-16T12:41:02Z</time>
      </trkpt>
      <trkpt lat="43.82987" lon="6.94562">
        <ele>1427.6</ele>
        <time>2026-05-16T12:41:03Z</time>
      </trkpt>
      <trkpt lat="43.82997" lon="6.94547">
        <ele>1429.1</ele>
        <time>2026-05-16T12:41:04Z</time>
      </trkpt>
      <trkpt lat="43.83005" lon="6.94531">
        <ele>1430.6</ele>
        <time>2026-05-16T12:41:05Z</time>
      </trkpt>
      <trkpt lat="43.8301" lon="6.94513">
        <ele>1431.4</ele>
        <time>2026-05-16T12:41:06Z</time>
      </trkpt>
      <trkpt lat="43.83014" lon="6.94493">
        <ele>1431.9</ele>
        <time>2026-05-16T12:41:07Z</time>
      </trkpt>
      <trkpt lat="43.83015" lon="6.94472">
        <ele>1431.7</ele>
        <time>2026-05-16T12:41:08Z</time>
      </trkpt>
      <trkpt lat="43.83017" lon="6.9445">
        <ele>1431.3</ele>
        <time>2026-05-16T12:41:09Z</time>
      </trkpt>
      <trkpt lat="43.83019" lon="6.94428">
        <ele>1430.8</ele>
        <time>2026-05-16T12:41:10Z</time>
      </trkpt>
      <trkpt lat="43.83022" lon="6.94405">
        <ele>1430.9</ele>
        <time>2026-05-16T12:41:11Z</time>
      </trkpt>
      <trkpt lat="43.83023" lon="6.94381">
        <ele>1431</ele>
        <time>2026-05-16T12:41:12Z</time>
      </trkpt>
      <trkpt lat="43.83024" lon="6.94357">
        <ele>1431.1</ele>
        <time>2026-05-16T12:41:13Z</time>
      </trkpt>
      <trkpt lat="43.83024" lon="6.94333">
        <ele>1430.3</ele>
        <time>2026-05-16T12:41:14Z</time>
      </trkpt>
      <trkpt lat="43.83023" lon="6.94308">
        <ele>1430</ele>
        <time>2026-05-16T12:41:15Z</time>
      </trkpt>
      <trkpt lat="43.83022" lon="6.94282">
        <ele>1428.9</ele>
        <time>2026-05-16T12:41:16Z</time>
      </trkpt>
      <trkpt lat="43.83021" lon="6.94255">
        <ele>1427.7</ele>
        <time>2026-05-16T12:41:17Z</time>
      </trkpt>
      <trkpt lat="43.8302" lon="6.94227">
        <ele>1426.5</ele>
        <time>2026-05-16T12:41:18Z</time>
      </trkpt>
      <trkpt lat="43.83023" lon="6.94198">
        <ele>1425.2</ele>
        <time>2026-05-16T12:41:19Z</time>
      </trkpt>
      <trkpt lat="43.83027" lon="6.94169">
        <ele>1424</ele>
        <time>2026-05-16T12:41:20Z</time>
      </trkpt>
      <trkpt lat="43.83033" lon="6.9414">
        <ele>1423.4</ele>
        <time>2026-05-16T12:41:21Z</time>
      </trkpt>
      <trkpt lat="43.83037" lon="6.9411">
        <ele>1421.6</ele>
        <time>2026-05-16T12:41:22Z</time>
      </trkpt>
      <trkpt lat="43.83041" lon="6.9408">
        <ele>1420.5</ele>
        <time>2026-05-16T12:41:23Z</time>
      </trkpt>
      <trkpt lat="43.83042" lon="6.9405">
        <ele>1418.2</ele>
        <time>2026-05-16T12:41:24Z</time>
      </trkpt>
      <trkpt lat="43.83044" lon="6.94021">
        <ele>1416.7</ele>
        <time>2026-05-16T12:41:25Z</time>
      </trkpt>
      <trkpt lat="43.83045" lon="6.93992">
        <ele>1415.3</ele>
        <time>2026-05-16T12:41:26Z</time>
      </trkpt>
      <trkpt lat="43.83046" lon="6.93964">
        <ele>1414.4</ele>
        <time>2026-05-16T12:41:27Z</time>
      </trkpt>
      <trkpt lat="43.83046" lon="6.93936">
        <ele>1413.6</ele>
        <time>2026-05-16T12:41:28Z</time>
      </trkpt>
      <trkpt lat="43.83046" lon="6.93908">
        <ele>1412.6</ele>
        <time>2026-05-16T12:41:29Z</time>
      </trkpt>
      <trkpt lat="43.83044" lon="6.9388">
        <ele>1411</ele>
        <time>2026-05-16T12:41:30Z</time>
      </trkpt>
      <trkpt lat="43.8304" lon="6.93853">
        <ele>1409.5</ele>
        <time>2026-05-16T12:41:31Z</time>
      </trkpt>
      <trkpt lat="43.83035" lon="6.93827">
        <ele>1408.8</ele>
        <time>2026-05-16T12:41:32Z</time>
      </trkpt>
      <trkpt lat="43.83029" lon="6.93802">
        <ele>1407.6</ele>
        <time>2026-05-16T12:41:33Z</time>
      </trkpt>
      <trkpt lat="43.83023" lon="6.93778">
        <ele>1408.1</ele>
        <time>2026-05-16T12:41:34Z</time>
      </trkpt>
      <trkpt lat="43.83018" lon="6.93754">
        <ele>1408.1</ele>
        <time>2026-05-16T12:41:35Z</time>
      </trkpt>
      <trkpt lat="43.83013" lon="6.93729">
        <ele>1407.3</ele>
        <time>2026-05-16T12:41:36Z</time>
      </trkpt>
      <trkpt lat="43.83011" lon="6.93703">
        <ele>1406.8</ele>
        <time>2026-05-16T12:41:37Z</time>
      </trkpt>
      <trkpt lat="43.83009" lon="6.93677">
        <ele>1405.6</ele>
        <time>2026-05-16T12:41:38Z</time>
      </trkpt>
      <trkpt lat="43.83008" lon="6.93651">
        <ele>1404.6</ele>
        <time>2026-05-16T12:41:39Z</time>
      </trkpt>
      <trkpt lat="43.83009" lon="6.93626">
        <ele>1404.4</ele>
        <time>2026-05-16T12:41:40Z</time>
      </trkpt>
      <trkpt lat="43.83012" lon="6.93601">
        <ele>1404.3</ele>
        <time>2026-05-16T12:41:41Z</time>
      </trkpt>
      <trkpt lat="43.83016" lon="6.93577">
        <ele>1403.7</ele>
        <time>2026-05-16T12:41:42Z</time>
      </trkpt>
      <trkpt lat="43.8302" lon="6.93554">
        <ele>1403.2</ele>
        <time>2026-05-16T12:41:43Z</time>
      </trkpt>
      <trkpt lat="43.83025" lon="6.93531">
        <ele>1402.6</ele>
        <time>2026-05-16T12:41:44Z</time>
      </trkpt>
      <trkpt lat="43.8303" lon="6.93507">
        <ele>1402.2</ele>
        <time>2026-05-16T12:41:45Z</time>
      </trkpt>
      <trkpt lat="43.83034" lon="6.93485">
        <ele>1402.4</ele>
        <time>2026-05-16T12:41:46Z</time>
      </trkpt>
      <trkpt lat="43.83038" lon="6.93462">
        <ele>1402.2</ele>
        <time>2026-05-16T12:41:47Z</time>
      </trkpt>
      <trkpt lat="43.83042" lon="6.93441">
        <ele>1401.9</ele>
        <time>2026-05-16T12:41:48Z</time>
      </trkpt>
      <trkpt lat="43.83045" lon="6.9342">
        <ele>1401.5</ele>
        <time>2026-05-16T12:41:49Z</time>
      </trkpt>
      <trkpt lat="43.83047" lon="6.93399">
        <ele>1400.3</ele>
        <time>2026-05-16T12:41:50Z</time>
      </trkpt>
      <trkpt lat="43.83047" lon="6.93378">
        <ele>1399.1</ele>
        <time>2026-05-16T12:41:51Z</time>
      </trkpt>
      <trkpt lat="43.83046" lon="6.93357">
        <ele>1398.3</ele>
        <time>2026-05-16T12:41:52Z</time>
      </trkpt>
      <trkpt lat="43.83042" lon="6.93336">
        <ele>1398</ele>
        <time>2026-05-16T12:41:53Z</time>
      </trkpt>
      <trkpt lat="43.83038" lon="6.93315">
        <ele>1398.1</ele>
        <time>2026-05-16T12:41:54Z</time>
      </trkpt>
      <trkpt lat="43.83033" lon="6.93293">
        <ele>1398.4</ele>
        <time>2026-05-16T12:41:55Z</time>
      </trkpt>
      <trkpt lat="43.83028" lon="6.93272">
        <ele>1399.6</ele>
        <time>2026-05-16T12:41:56Z</time>
      </trkpt>
      <trkpt lat="43.83023" lon="6.9325">
        <ele>1400.5</ele>
        <time>2026-05-16T12:41:57Z</time>
      </trkpt>
      <trkpt lat="43.83018" lon="6.93228">
        <ele>1399.9</ele>
        <time>2026-05-16T12:41:58Z</time>
      </trkpt>
      <trkpt lat="43.83013" lon="6.93207">
        <ele>1400.1</ele>
        <time>2026-05-16T12:41:59Z</time>
      </trkpt>
      <trkpt lat="43.83008" lon="6.93185">
        <ele>1400.3</ele>
        <time>2026-05-16T12:42:00Z</time>
      </trkpt>
      <trkpt lat="43.83005" lon="6.93163">
        <ele>1400.8</ele>
        <time>2026-05-16T12:42:01Z</time>
      </trkpt>
      <trkpt lat="43.83002" lon="6.93143">
        <ele>1400.6</ele>
        <time>2026-05-16T12:42:02Z</time>
      </trkpt>
      <trkpt lat="43.82999" lon="6.93123">
        <ele>1400.8</ele>
        <time>2026-05-16T12:42:03Z</time>
      </trkpt>
      <trkpt lat="43.82996" lon="6.93101">
        <ele>1400.7</ele>
        <time>2026-05-16T12:42:04Z</time>
      </trkpt>
      <trkpt lat="43.82993" lon="6.9308">
        <ele>1399.8</ele>
        <time>2026-05-16T12:42:05Z</time>
      </trkpt>
      <trkpt lat="43.8299" lon="6.93058">
        <ele>1399.3</ele>
        <time>2026-05-16T12:42:06Z</time>
      </trkpt>
      <trkpt lat="43.82988" lon="6.93036">
        <ele>1399.4</ele>
        <time>2026-05-16T12:42:07Z</time>
      </trkpt>
      <trkpt lat="43.82985" lon="6.93014">
        <ele>1399.1</ele>
        <time>2026-05-16T12:42:08Z</time>
      </trkpt>
      <trkpt lat="43.82983" lon="6.92991">
        <ele>1398.9</ele>
        <time>2026-05-16T12:42:09Z</time>
      </trkpt>
      <trkpt lat="43.82982" lon="6.92968">
        <ele>1398.5</ele>
        <time>2026-05-16T12:42:10Z</time>
      </trkpt>
      <trkpt lat="43.82981" lon="6.92945">
        <ele>1398.2</ele>
        <time>2026-05-16T12:42:11Z</time>
      </trkpt>
      <trkpt lat="43.82981" lon="6.9292">
        <ele>1398.2</ele>
        <time>2026-05-16T12:42:12Z</time>
      </trkpt>
      <trkpt lat="43.82981" lon="6.92896">
        <ele>1397.9</ele>
        <time>2026-05-16T12:42:13Z</time>
      </trkpt>
      <trkpt lat="43.82981" lon="6.92872">
        <ele>1397.4</ele>
        <time>2026-05-16T12:42:14Z</time>
      </trkpt>
      <trkpt lat="43.82981" lon="6.92847">
        <ele>1397.2</ele>
        <time>2026-05-16T12:42:15Z</time>
      </trkpt>
      <trkpt lat="43.8298" lon="6.92821">
        <ele>1396.2</ele>
        <time>2026-05-16T12:42:16Z</time>
      </trkpt>
      <trkpt lat="43.8298" lon="6.92795">
        <ele>1395.9</ele>
        <time>2026-05-16T12:42:17Z</time>
      </trkpt>
      <trkpt lat="43.8298" lon="6.9277">
        <ele>1396.2</ele>
        <time>2026-05-16T12:42:18Z</time>
      </trkpt>
      <trkpt lat="43.82979" lon="6.92744">
        <ele>1395.2</ele>
        <time>2026-05-16T12:42:19Z</time>
      </trkpt>
      <trkpt lat="43.82978" lon="6.92718">
        <ele>1395.1</ele>
        <time>2026-05-16T12:42:20Z</time>
      </trkpt>
      <trkpt lat="43.82977" lon="6.92691">
        <ele>1394.7</ele>
        <time>2026-05-16T12:42:21Z</time>
      </trkpt>
      <trkpt lat="43.82976" lon="6.92664">
        <ele>1394.4</ele>
        <time>2026-05-16T12:42:22Z</time>
      </trkpt>
      <trkpt lat="43.82973" lon="6.92637">
        <ele>1394.3</ele>
        <time>2026-05-16T12:42:23Z</time>
      </trkpt>
      <trkpt lat="43.8297" lon="6.9261">
        <ele>1393.3</ele>
        <time>2026-05-16T12:42:24Z</time>
      </trkpt>
      <trkpt lat="43.82967" lon="6.92583">
        <ele>1393.3</ele>
        <time>2026-05-16T12:42:25Z</time>
      </trkpt>
      <trkpt lat="43.82964" lon="6.92556">
        <ele>1392.3</ele>
        <time>2026-05-16T12:42:26Z</time>
      </trkpt>
      <trkpt lat="43.8296" lon="6.92528">
        <ele>1391.5</ele>
        <time>2026-05-16T12:42:27Z</time>
      </trkpt>
      <trkpt lat="43.82957" lon="6.92499">
        <ele>1391.7</ele>
        <time>2026-05-16T12:42:28Z</time>
      </trkpt>
      <trkpt lat="43.82954" lon="6.9247">
        <ele>1393.3</ele>
        <time>2026-05-16T12:42:29Z</time>
      </trkpt>
      <trkpt lat="43.82951" lon="6.92441">
        <ele>1394.2</ele>
        <time>2026-05-16T12:42:30Z</time>
      </trkpt>
      <trkpt lat="43.82948" lon="6.92412">
        <ele>1393.1</ele>
        <time>2026-05-16T12:42:31Z</time>
      </trkpt>
      <trkpt lat="43.82945" lon="6.92382">
        <ele>1391.2</ele>
        <time>2026-05-16T12:42:32Z</time>
      </trkpt>
      <trkpt lat="43.82943" lon="6.92353">
        <ele>1390.5</ele>
        <time>2026-05-16T12:42:33Z</time>
      </trkpt>
      <trkpt lat="43.8294" lon="6.92323">
        <ele>1389.6</ele>
        <time>2026-05-16T12:42:34Z</time>
      </trkpt>
      <trkpt lat="43.82938" lon="6.92294">
        <ele>1388.9</ele>
        <time>2026-05-16T12:42:35Z</time>
      </trkpt>
      <trkpt lat="43.82935" lon="6.92264">
        <ele>1388.4</ele>
        <time>2026-05-16T12:42:36Z</time>
      </trkpt>
      <trkpt lat="43.82933" lon="6.92234">
        <ele>1388.9</ele>
        <time>2026-05-16T12:42:37Z</time>
      </trkpt>
      <trkpt lat="43.8293" lon="6.92205">
        <ele>1388.9</ele>
        <time>2026-05-16T12:42:38Z</time>
      </trkpt>
      <trkpt lat="43.82929" lon="6.92176">
        <ele>1389.7</ele>
        <time>2026-05-16T12:42:39Z</time>
      </trkpt>
      <trkpt lat="43.82926" lon="6.92147">
        <ele>1389.3</ele>
        <time>2026-05-16T12:42:40Z</time>
      </trkpt>
      <trkpt lat="43.82924" lon="6.92118">
        <ele>1389.4</ele>
        <time>2026-05-16T12:42:41Z</time>
      </trkpt>
      <trkpt lat="43.82922" lon="6.9209">
        <ele>1389.5</ele>
        <time>2026-05-16T12:42:42Z</time>
      </trkpt>
      <trkpt lat="43.8292" lon="6.92061">
        <ele>1389.1</ele>
        <time>2026-05-16T12:42:43Z</time>
      </trkpt>
      <trkpt lat="43.82918" lon="6.92032">
        <ele>1388.4</ele>
        <time>2026-05-16T12:42:44Z</time>
      </trkpt>
      <trkpt lat="43.82915" lon="6.92004">
        <ele>1387.6</ele>
        <time>2026-05-16T12:42:45Z</time>
      </trkpt>
      <trkpt lat="43.82911" lon="6.91976">
        <ele>1387.3</ele>
        <time>2026-05-16T12:42:46Z</time>
      </trkpt>
      <trkpt lat="43.82908" lon="6.91948">
        <ele>1387.4</ele>
        <time>2026-05-16T12:42:47Z</time>
      </trkpt>
      <trkpt lat="43.82904" lon="6.91921">
        <ele>1386.8</ele>
        <time>2026-05-16T12:42:48Z</time>
      </trkpt>
      <trkpt lat="43.82899" lon="6.91894">
        <ele>1386.1</ele>
        <time>2026-05-16T12:42:49Z</time>
      </trkpt>
      <trkpt lat="43.82895" lon="6.91866">
        <ele>1385.8</ele>
        <time>2026-05-16T12:42:50Z</time>
      </trkpt>
      <trkpt lat="43.82891" lon="6.91839">
        <ele>1385.5</ele>
        <time>2026-05-16T12:42:51Z</time>
      </trkpt>
      <trkpt lat="43.82886" lon="6.91811">
        <ele>1385.8</ele>
        <time>2026-05-16T12:42:52Z</time>
      </trkpt>
      <trkpt lat="43.82882" lon="6.91784">
        <ele>1385.8</ele>
        <time>2026-05-16T12:42:53Z</time>
      </trkpt>
      <trkpt lat="43.82876" lon="6.91758">
        <ele>1385.7</ele>
        <time>2026-05-16T12:42:54Z</time>
      </trkpt>
      <trkpt lat="43.8287" lon="6.91733">
        <ele>1385.8</ele>
        <time>2026-05-16T12:42:55Z</time>
      </trkpt>
      <trkpt lat="43.82864" lon="6.91708">
        <ele>1385.5</ele>
        <time>2026-05-16T12:42:56Z</time>
      </trkpt>
      <trkpt lat="43.82857" lon="6.91682">
        <ele>1385.2</ele>
        <time>2026-05-16T12:42:57Z</time>
      </trkpt>
      <trkpt lat="43.8285" lon="6.91657">
        <ele>1385.7</ele>
        <time>2026-05-16T12:42:58Z</time>
      </trkpt>
      <trkpt lat="43.82844" lon="6.91632">
        <ele>1386</ele>
        <time>2026-05-16T12:42:59Z</time>
      </trkpt>
      <trkpt lat="43.82837" lon="6.91607">
        <ele>1385.5</ele>
        <time>2026-05-16T12:43:00Z</time>
      </trkpt>
      <trkpt lat="43.82831" lon="6.91582">
        <ele>1385.5</ele>
        <time>2026-05-16T12:43:01Z</time>
      </trkpt>
      <trkpt lat="43.82824" lon="6.91558">
        <ele>1385.7</ele>
        <time>2026-05-16T12:43:02Z</time>
      </trkpt>
      <trkpt lat="43.82818" lon="6.91532">
        <ele>1385.3</ele>
        <time>2026-05-16T12:43:03Z</time>
      </trkpt>
      <trkpt lat="43.82812" lon="6.91508">
        <ele>1385.4</ele>
        <time>2026-05-16T12:43:04Z</time>
      </trkpt>
      <trkpt lat="43.82806" lon="6.91482">
        <ele>1385.4</ele>
        <time>2026-05-16T12:43:05Z</time>
      </trkpt>
      <trkpt lat="43.828" lon="6.91458">
        <ele>1385.1</ele>
        <time>2026-05-16T12:43:06Z</time>
      </trkpt>
      <trkpt lat="43.82796" lon="6.91434">
        <ele>1385</ele>
        <time>2026-05-16T12:43:07Z</time>
      </trkpt>
      <trkpt lat="43.82792" lon="6.91411">
        <ele>1384.9</ele>
        <time>2026-05-16T12:43:08Z</time>
      </trkpt>
      <trkpt lat="43.82789" lon="6.91388">
        <ele>1385.3</ele>
        <time>2026-05-16T12:43:09Z</time>
      </trkpt>
      <trkpt lat="43.82785" lon="6.91365">
        <ele>1384.9</ele>
        <time>2026-05-16T12:43:10Z</time>
      </trkpt>
      <trkpt lat="43.82782" lon="6.91341">
        <ele>1384.3</ele>
        <time>2026-05-16T12:43:11Z</time>
      </trkpt>
      <trkpt lat="43.8278" lon="6.91317">
        <ele>1384.4</ele>
        <time>2026-05-16T12:43:12Z</time>
      </trkpt>
      <trkpt lat="43.82779" lon="6.91294">
        <ele>1384.4</ele>
        <time>2026-05-16T12:43:13Z</time>
      </trkpt>
      <trkpt lat="43.82777" lon="6.91269">
        <ele>1383.8</ele>
        <time>2026-05-16T12:43:14Z</time>
      </trkpt>
      <trkpt lat="43.82775" lon="6.91245">
        <ele>1383.2</ele>
        <time>2026-05-16T12:43:15Z</time>
      </trkpt>
      <trkpt lat="43.82773" lon="6.9122">
        <ele>1382.5</ele>
        <time>2026-05-16T12:43:16Z</time>
      </trkpt>
      <trkpt lat="43.82771" lon="6.91195">
        <ele>1382.5</ele>
        <time>2026-05-16T12:43:17Z</time>
      </trkpt>
      <trkpt lat="43.82769" lon="6.91169">
        <ele>1382.1</ele>
        <time>2026-05-16T12:43:18Z</time>
      </trkpt>
      <trkpt lat="43.82767" lon="6.91144">
        <ele>1382</ele>
        <time>2026-05-16T12:43:19Z</time>
      </trkpt>
      <trkpt lat="43.82764" lon="6.91119">
        <ele>1381</ele>
        <time>2026-05-16T12:43:20Z</time>
      </trkpt>
      <trkpt lat="43.82762" lon="6.91093">
        <ele>1381</ele>
        <time>2026-05-16T12:43:21Z</time>
      </trkpt>
      <trkpt lat="43.82759" lon="6.91067">
        <ele>1381.2</ele>
        <time>2026-05-16T12:43:22Z</time>
      </trkpt>
      <trkpt lat="43.82756" lon="6.91042">
        <ele>1381.4</ele>
        <time>2026-05-16T12:43:23Z</time>
      </trkpt>
      <trkpt lat="43.82753" lon="6.91017">
        <ele>1381.4</ele>
        <time>2026-05-16T12:43:24Z</time>
      </trkpt>
      <trkpt lat="43.82749" lon="6.90991">
        <ele>1380.7</ele>
        <time>2026-05-16T12:43:25Z</time>
      </trkpt>
      <trkpt lat="43.82744" lon="6.90966">
        <ele>1379.1</ele>
        <time>2026-05-16T12:43:26Z</time>
      </trkpt>
      <trkpt lat="43.82739" lon="6.90942">
        <ele>1377.2</ele>
        <time>2026-05-16T12:43:27Z</time>
      </trkpt>
      <trkpt lat="43.82734" lon="6.90918">
        <ele>1376</ele>
        <time>2026-05-16T12:43:28Z</time>
      </trkpt>
      <trkpt lat="43.82729" lon="6.90894">
        <ele>1375.5</ele>
        <time>2026-05-16T12:43:29Z</time>
      </trkpt>
      <trkpt lat="43.82725" lon="6.90869">
        <ele>1376.8</ele>
        <time>2026-05-16T12:43:30Z</time>
      </trkpt>
      <trkpt lat="43.82719" lon="6.90844">
        <ele>1377.6</ele>
        <time>2026-05-16T12:43:31Z</time>
      </trkpt>
      <trkpt lat="43.82714" lon="6.90818">
        <ele>1377.6</ele>
        <time>2026-05-16T12:43:32Z</time>
      </trkpt>
      <trkpt lat="43.82709" lon="6.90792">
        <ele>1376.7</ele>
        <time>2026-05-16T12:43:33Z</time>
      </trkpt>
      <trkpt lat="43.82704" lon="6.90766">
        <ele>1375.6</ele>
        <time>2026-05-16T12:43:34Z</time>
      </trkpt>
      <trkpt lat="43.82698" lon="6.9074">
        <ele>1374.4</ele>
        <time>2026-05-16T12:43:35Z</time>
      </trkpt>
      <trkpt lat="43.8269" lon="6.90715">
        <ele>1373.8</ele>
        <time>2026-05-16T12:43:36Z</time>
      </trkpt>
      <trkpt lat="43.82681" lon="6.9069">
        <ele>1373.9</ele>
        <time>2026-05-16T12:43:37Z</time>
      </trkpt>
      <trkpt lat="43.82673" lon="6.90665">
        <ele>1373.7</ele>
        <time>2026-05-16T12:43:38Z</time>
      </trkpt>
      <trkpt lat="43.82665" lon="6.90639">
        <ele>1372.6</ele>
        <time>2026-05-16T12:43:39Z</time>
      </trkpt>
      <trkpt lat="43.82659" lon="6.90613">
        <ele>1372.3</ele>
        <time>2026-05-16T12:43:40Z</time>
      </trkpt>
      <trkpt lat="43.82652" lon="6.90587">
        <ele>1372.1</ele>
        <time>2026-05-16T12:43:41Z</time>
      </trkpt>
      <trkpt lat="43.82646" lon="6.90562">
        <ele>1371.6</ele>
        <time>2026-05-16T12:43:42Z</time>
      </trkpt>
      <trkpt lat="43.8264" lon="6.90536">
        <ele>1371</ele>
        <time>2026-05-16T12:43:43Z</time>
      </trkpt>
      <trkpt lat="43.82634" lon="6.90511">
        <ele>1370.9</ele>
        <time>2026-05-16T12:43:44Z</time>
      </trkpt>
      <trkpt lat="43.82628" lon="6.90486">
        <ele>1370.6</ele>
        <time>2026-05-16T12:43:45Z</time>
      </trkpt>
      <trkpt lat="43.82622" lon="6.90461">
        <ele>1370.3</ele>
        <time>2026-05-16T12:43:46Z</time>
      </trkpt>
      <trkpt lat="43.82615" lon="6.90437">
        <ele>1369.7</ele>
        <time>2026-05-16T12:43:47Z</time>
      </trkpt>
      <trkpt lat="43.82608" lon="6.90412">
        <ele>1369.7</ele>
        <time>2026-05-16T12:43:48Z</time>
      </trkpt>
      <trkpt lat="43.82601" lon="6.90387">
        <ele>1369.9</ele>
        <time>2026-05-16T12:43:49Z</time>
      </trkpt>
      <trkpt lat="43.82594" lon="6.90363">
        <ele>1369.9</ele>
        <time>2026-05-16T12:43:50Z</time>
      </trkpt>
      <trkpt lat="43.82587" lon="6.90338">
        <ele>1370.4</ele>
        <time>2026-05-16T12:43:51Z</time>
      </trkpt>
      <trkpt lat="43.8258" lon="6.90313">
        <ele>1370.7</ele>
        <time>2026-05-16T12:43:52Z</time>
      </trkpt>
      <trkpt lat="43.82571" lon="6.90289">
        <ele>1370.5</ele>
        <time>2026-05-16T12:43:53Z</time>
      </trkpt>
      <trkpt lat="43.82562" lon="6.90265">
        <ele>1370.3</ele>
        <time>2026-05-16T12:43:54Z</time>
      </trkpt>
      <trkpt lat="43.82552" lon="6.90242">
        <ele>1370.1</ele>
        <time>2026-05-16T12:43:55Z</time>
      </trkpt>
      <trkpt lat="43.82541" lon="6.90219">
        <ele>1369.7</ele>
        <time>2026-05-16T12:43:56Z</time>
      </trkpt>
      <trkpt lat="43.82529" lon="6.90197">
        <ele>1369</ele>
        <time>2026-05-16T12:43:57Z</time>
      </trkpt>
      <trkpt lat="43.82518" lon="6.90174">
        <ele>1369.1</ele>
        <time>2026-05-16T12:43:58Z</time>
      </trkpt>
      <trkpt lat="43.82507" lon="6.90152">
        <ele>1368.6</ele>
        <time>2026-05-16T12:43:59Z</time>
      </trkpt>
      <trkpt lat="43.82497" lon="6.90129">
        <ele>1368</ele>
        <time>2026-05-16T12:44:00Z</time>
      </trkpt>
      <trkpt lat="43.82487" lon="6.90105">
        <ele>1367.2</ele>
        <time>2026-05-16T12:44:01Z</time>
      </trkpt>
      <trkpt lat="43.82477" lon="6.90081">
        <ele>1366.3</ele>
        <time>2026-05-16T12:44:02Z</time>
      </trkpt>
      <trkpt lat="43.82468" lon="6.90057">
        <ele>1365</ele>
        <time>2026-05-16T12:44:03Z</time>
      </trkpt>
      <trkpt lat="43.82458" lon="6.90033">
        <ele>1364.6</ele>
        <time>2026-05-16T12:44:04Z</time>
      </trkpt>
      <trkpt lat="43.82448" lon="6.90008">
        <ele>1363.5</ele>
        <time>2026-05-16T12:44:05Z</time>
      </trkpt>
      <trkpt lat="43.82438" lon="6.89983">
        <ele>1362</ele>
        <time>2026-05-16T12:44:06Z</time>
      </trkpt>
      <trkpt lat="43.82428" lon="6.89959">
        <ele>1359.7</ele>
        <time>2026-05-16T12:44:07Z</time>
      </trkpt>
      <trkpt lat="43.82418" lon="6.89935">
        <ele>1357.3</ele>
        <time>2026-05-16T12:44:08Z</time>
      </trkpt>
      <trkpt lat="43.82409" lon="6.89911">
        <ele>1355.3</ele>
        <time>2026-05-16T12:44:09Z</time>
      </trkpt>
      <trkpt lat="43.82399" lon="6.89887">
        <ele>1353.6</ele>
        <time>2026-05-16T12:44:10Z</time>
      </trkpt>
      <trkpt lat="43.8239" lon="6.89863">
        <ele>1352.2</ele>
        <time>2026-05-16T12:44:11Z</time>
      </trkpt>
      <trkpt lat="43.82382" lon="6.89838">
        <ele>1350</ele>
        <time>2026-05-16T12:44:12Z</time>
      </trkpt>
      <trkpt lat="43.82375" lon="6.89812">
        <ele>1348</ele>
        <time>2026-05-16T12:44:13Z</time>
      </trkpt>
      <trkpt lat="43.82369" lon="6.89788">
        <ele>1346.7</ele>
        <time>2026-05-16T12:44:14Z</time>
      </trkpt>
      <trkpt lat="43.82363" lon="6.89766">
        <ele>1345.5</ele>
        <time>2026-05-16T12:44:15Z</time>
      </trkpt>
      <trkpt lat="43.82358" lon="6.89748">
        <ele>1344.4</ele>
        <time>2026-05-16T12:44:16Z</time>
      </trkpt>
      <trkpt lat="43.82352" lon="6.89729">
        <ele>1344.2</ele>
        <time>2026-05-16T12:44:17Z</time>
      </trkpt>
      <trkpt lat="43.82345" lon="6.89711">
        <ele>1344</ele>
        <time>2026-05-16T12:44:18Z</time>
      </trkpt>
      <trkpt lat="43.82337" lon="6.89694">
        <ele>1342.5</ele>
        <time>2026-05-16T12:44:19Z</time>
      </trkpt>
      <trkpt lat="43.82328" lon="6.89678">
        <ele>1340.7</ele>
        <time>2026-05-16T12:44:20Z</time>
      </trkpt>
      <trkpt lat="43.82319" lon="6.89661">
        <ele>1339.3</ele>
        <time>2026-05-16T12:44:21Z</time>
      </trkpt>
      <trkpt lat="43.8231" lon="6.89645">
        <ele>1337.8</ele>
        <time>2026-05-16T12:44:22Z</time>
      </trkpt>
      <trkpt lat="43.82301" lon="6.89628">
        <ele>1336.8</ele>
        <time>2026-05-16T12:44:23Z</time>
      </trkpt>
      <trkpt lat="43.82292" lon="6.8961">
        <ele>1336.1</ele>
        <time>2026-05-16T12:44:24Z</time>
      </trkpt>
      <trkpt lat="43.82282" lon="6.89592">
        <ele>1334.7</ele>
        <time>2026-05-16T12:44:25Z</time>
      </trkpt>
      <trkpt lat="43.82274" lon="6.89573">
        <ele>1333.6</ele>
        <time>2026-05-16T12:44:26Z</time>
      </trkpt>
      <trkpt lat="43.82266" lon="6.89553">
        <ele>1332.4</ele>
        <time>2026-05-16T12:44:27Z</time>
      </trkpt>
      <trkpt lat="43.82258" lon="6.89533">
        <ele>1330.1</ele>
        <time>2026-05-16T12:44:28Z</time>
      </trkpt>
      <trkpt lat="43.82252" lon="6.89512">
        <ele>1328.5</ele>
        <time>2026-05-16T12:44:29Z</time>
      </trkpt>
      <trkpt lat="43.82246" lon="6.89493">
        <ele>1327.4</ele>
        <time>2026-05-16T12:44:30Z</time>
      </trkpt>
      <trkpt lat="43.82241" lon="6.89476">
        <ele>1326.6</ele>
        <time>2026-05-16T12:44:31Z</time>
      </trkpt>
      <trkpt lat="43.82237" lon="6.89463">
        <ele>1325.7</ele>
        <time>2026-05-16T12:44:32Z</time>
      </trkpt>
      <trkpt lat="43.82233" lon="6.8945">
        <ele>1324.7</ele>
        <time>2026-05-16T12:44:33Z</time>
      </trkpt>
      <trkpt lat="43.8223" lon="6.89438">
        <ele>1324</ele>
        <time>2026-05-16T12:44:34Z</time>
      </trkpt>
      <trkpt lat="43.82227" lon="6.89427">
        <ele>1323.3</ele>
        <time>2026-05-16T12:44:35Z</time>
      </trkpt>
      <trkpt lat="43.82226" lon="6.89419">
        <ele>1323.1</ele>
        <time>2026-05-16T12:44:36Z</time>
      </trkpt>
      <trkpt lat="43.82225" lon="6.89412">
        <ele>1323.2</ele>
        <time>2026-05-16T12:44:37Z</time>
      </trkpt>
      <trkpt lat="43.82223" lon="6.89404">
        <ele>1323.1</ele>
        <time>2026-05-16T12:44:38Z</time>
      </trkpt>
      <trkpt lat="43.82222" lon="6.89396">
        <ele>1323.4</ele>
        <time>2026-05-16T12:44:39Z</time>
      </trkpt>
      <trkpt lat="43.82218" lon="6.89389">
        <ele>1322.9</ele>
        <time>2026-05-16T12:44:40Z</time>
      </trkpt>
      <trkpt lat="43.82214" lon="6.89384">
        <ele>1322.5</ele>
        <time>2026-05-16T12:44:41Z</time>
      </trkpt>
      <trkpt lat="43.82208" lon="6.89382">
        <ele>1321.2</ele>
        <time>2026-05-16T12:44:42Z</time>
      </trkpt>
      <trkpt lat="43.82202" lon="6.89383">
        <ele>1319.5</ele>
        <time>2026-05-16T12:44:43Z</time>
      </trkpt>
      <trkpt lat="43.82196" lon="6.89387">
        <ele>1317.6</ele>
        <time>2026-05-16T12:44:44Z</time>
      </trkpt>
      <trkpt lat="43.82192" lon="6.89395">
        <ele>1316.2</ele>
        <time>2026-05-16T12:44:45Z</time>
      </trkpt>
      <trkpt lat="43.82191" lon="6.89406">
        <ele>1315.5</ele>
        <time>2026-05-16T12:44:46Z</time>
      </trkpt>
      <trkpt lat="43.82193" lon="6.89418">
        <ele>1315.6</ele>
        <time>2026-05-16T12:44:47Z</time>
      </trkpt>
      <trkpt lat="43.82195" lon="6.89432">
        <ele>1315.6</ele>
        <time>2026-05-16T12:44:48Z</time>
      </trkpt>
      <trkpt lat="43.82196" lon="6.89448">
        <ele>1315.3</ele>
        <time>2026-05-16T12:44:49Z</time>
      </trkpt>
      <trkpt lat="43.82196" lon="6.89466">
        <ele>1314.7</ele>
        <time>2026-05-16T12:44:50Z</time>
      </trkpt>
      <trkpt lat="43.82193" lon="6.89485">
        <ele>1313.6</ele>
        <time>2026-05-16T12:44:51Z</time>
      </trkpt>
      <trkpt lat="43.8219" lon="6.89504">
        <ele>1312.7</ele>
        <time>2026-05-16T12:44:52Z</time>
      </trkpt>
      <trkpt lat="43.82187" lon="6.89524">
        <ele>1311.9</ele>
        <time>2026-05-16T12:44:53Z</time>
      </trkpt>
      <trkpt lat="43.82185" lon="6.89546">
        <ele>1310.6</ele>
        <time>2026-05-16T12:44:54Z</time>
      </trkpt>
      <trkpt lat="43.82185" lon="6.89568">
        <ele>1309.8</ele>
        <time>2026-05-16T12:44:55Z</time>
      </trkpt>
      <trkpt lat="43.82185" lon="6.8959">
        <ele>1308.6</ele>
        <time>2026-05-16T12:44:56Z</time>
      </trkpt>
      <trkpt lat="43.82185" lon="6.89611">
        <ele>1306.6</ele>
        <time>2026-05-16T12:44:57Z</time>
      </trkpt>
      <trkpt lat="43.82185" lon="6.89633">
        <ele>1304.3</ele>
        <time>2026-05-16T12:44:58Z</time>
      </trkpt>
      <trkpt lat="43.82186" lon="6.89654">
        <ele>1302.6</ele>
        <time>2026-05-16T12:44:59Z</time>
      </trkpt>
      <trkpt lat="43.82186" lon="6.89675">
        <ele>1301</ele>
        <time>2026-05-16T12:45:00Z</time>
      </trkpt>
      <trkpt lat="43.82189" lon="6.89694">
        <ele>1300.5</ele>
        <time>2026-05-16T12:45:01Z</time>
      </trkpt>
      <trkpt lat="43.82192" lon="6.89711">
        <ele>1300.2</ele>
        <time>2026-05-16T12:45:02Z</time>
      </trkpt>
      <trkpt lat="43.82195" lon="6.89724">
        <ele>1300.1</ele>
        <time>2026-05-16T12:45:03Z</time>
      </trkpt>
      <trkpt lat="43.82197" lon="6.89734">
        <ele>1300.3</ele>
        <time>2026-05-16T12:45:04Z</time>
      </trkpt>
      <trkpt lat="43.82197" lon="6.89743">
        <ele>1299.9</ele>
        <time>2026-05-16T12:45:05Z</time>
      </trkpt>
      <trkpt lat="43.82194" lon="6.89751">
        <ele>1298.9</ele>
        <time>2026-05-16T12:45:06Z</time>
      </trkpt>
      <trkpt lat="43.8219" lon="6.89756">
        <ele>1297.7</ele>
        <time>2026-05-16T12:45:07Z</time>
      </trkpt>
      <trkpt lat="43.82184" lon="6.89758">
        <ele>1296.1</ele>
        <time>2026-05-16T12:45:08Z</time>
      </trkpt>
      <trkpt lat="43.82178" lon="6.89756">
        <ele>1294.6</ele>
        <time>2026-05-16T12:45:09Z</time>
      </trkpt>
      <trkpt lat="43.82172" lon="6.8975">
        <ele>1293.3</ele>
        <time>2026-05-16T12:45:10Z</time>
      </trkpt>
      <trkpt lat="43.82169" lon="6.89739">
        <ele>1293</ele>
        <time>2026-05-16T12:45:11Z</time>
      </trkpt>
      <trkpt lat="43.82167" lon="6.89725">
        <ele>1293</ele>
        <time>2026-05-16T12:45:12Z</time>
      </trkpt>
      <trkpt lat="43.82163" lon="6.8971">
        <ele>1292.6</ele>
        <time>2026-05-16T12:45:13Z</time>
      </trkpt>
      <trkpt lat="43.82157" lon="6.89693">
        <ele>1292</ele>
        <time>2026-05-16T12:45:14Z</time>
      </trkpt>
      <trkpt lat="43.8215" lon="6.89677">
        <ele>1291.3</ele>
        <time>2026-05-16T12:45:15Z</time>
      </trkpt>
      <trkpt lat="43.82141" lon="6.89661">
        <ele>1290</ele>
        <time>2026-05-16T12:45:16Z</time>
      </trkpt>
      <trkpt lat="43.82132" lon="6.89643">
        <ele>1289</ele>
        <time>2026-05-16T12:45:17Z</time>
      </trkpt>
      <trkpt lat="43.82123" lon="6.89626">
        <ele>1288.1</ele>
        <time>2026-05-16T12:45:18Z</time>
      </trkpt>
      <trkpt lat="43.82115" lon="6.89609">
        <ele>1287.3</ele>
        <time>2026-05-16T12:45:19Z</time>
      </trkpt>
      <trkpt lat="43.82107" lon="6.89592">
        <ele>1286.1</ele>
        <time>2026-05-16T12:45:20Z</time>
      </trkpt>
      <trkpt lat="43.821" lon="6.89574">
        <ele>1284.7</ele>
        <time>2026-05-16T12:45:21Z</time>
      </trkpt>
      <trkpt lat="43.82093" lon="6.89557">
        <ele>1283.1</ele>
        <time>2026-05-16T12:45:22Z</time>
      </trkpt>
      <trkpt lat="43.82086" lon="6.89539">
        <ele>1281.5</ele>
        <time>2026-05-16T12:45:23Z</time>
      </trkpt>
      <trkpt lat="43.8208" lon="6.89522">
        <ele>1280.4</ele>
        <time>2026-05-16T12:45:24Z</time>
      </trkpt>
      <trkpt lat="43.82075" lon="6.89503">
        <ele>1279.8</ele>
        <time>2026-05-16T12:45:25Z</time>
      </trkpt>
      <trkpt lat="43.82073" lon="6.89485">
        <ele>1279.4</ele>
        <time>2026-05-16T12:45:26Z</time>
      </trkpt>
      <trkpt lat="43.82073" lon="6.89469">
        <ele>1279.5</ele>
        <time>2026-05-16T12:45:27Z</time>
      </trkpt>
      <trkpt lat="43.82074" lon="6.89456">
        <ele>1280</ele>
        <time>2026-05-16T12:45:28Z</time>
      </trkpt>
      <trkpt lat="43.82073" lon="6.89445">
        <ele>1280</ele>
        <time>2026-05-16T12:45:29Z</time>
      </trkpt>
      <trkpt lat="43.82068" lon="6.89436">
        <ele>1278.9</ele>
        <time>2026-05-16T12:45:30Z</time>
      </trkpt>
      <trkpt lat="43.82062" lon="6.8943">
        <ele>1277.4</ele>
        <time>2026-05-16T12:45:31Z</time>
      </trkpt>
      <trkpt lat="43.82055" lon="6.89429">
        <ele>1275.4</ele>
        <time>2026-05-16T12:45:32Z</time>
      </trkpt>
      <trkpt lat="43.82049" lon="6.89431">
        <ele>1274.1</ele>
        <time>2026-05-16T12:45:33Z</time>
      </trkpt>
      <trkpt lat="43.82044" lon="6.89437">
        <ele>1273</ele>
        <time>2026-05-16T12:45:34Z</time>
      </trkpt>
      <trkpt lat="43.8204" lon="6.89446">
        <ele>1272.2</ele>
        <time>2026-05-16T12:45:35Z</time>
      </trkpt>
      <trkpt lat="43.82039" lon="6.89459">
        <ele>1272</ele>
        <time>2026-05-16T12:45:36Z</time>
      </trkpt>
      <trkpt lat="43.8204" lon="6.89473">
        <ele>1272.2</ele>
        <time>2026-05-16T12:45:37Z</time>
      </trkpt>
      <trkpt lat="43.82041" lon="6.8949">
        <ele>1272</ele>
        <time>2026-05-16T12:45:38Z</time>
      </trkpt>
      <trkpt lat="43.82042" lon="6.89508">
        <ele>1271.8</ele>
        <time>2026-05-16T12:45:39Z</time>
      </trkpt>
      <trkpt lat="43.82041" lon="6.89528">
        <ele>1270.8</ele>
        <time>2026-05-16T12:45:40Z</time>
      </trkpt>
      <trkpt lat="43.82039" lon="6.89549">
        <ele>1268.9</ele>
        <time>2026-05-16T12:45:41Z</time>
      </trkpt>
      <trkpt lat="43.82037" lon="6.8957">
        <ele>1267.5</ele>
        <time>2026-05-16T12:45:42Z</time>
      </trkpt>
      <trkpt lat="43.82035" lon="6.89592">
        <ele>1266.2</ele>
        <time>2026-05-16T12:45:43Z</time>
      </trkpt>
      <trkpt lat="43.82033" lon="6.89613">
        <ele>1265</ele>
        <time>2026-05-16T12:45:44Z</time>
      </trkpt>
      <trkpt lat="43.8203" lon="6.89634">
        <ele>1262.9</ele>
        <time>2026-05-16T12:45:45Z</time>
      </trkpt>
      <trkpt lat="43.82027" lon="6.89654">
        <ele>1261.9</ele>
        <time>2026-05-16T12:45:46Z</time>
      </trkpt>
      <trkpt lat="43.82022" lon="6.89674">
        <ele>1261</ele>
        <time>2026-05-16T12:45:47Z</time>
      </trkpt>
      <trkpt lat="43.82017" lon="6.89693">
        <ele>1260.1</ele>
        <time>2026-05-16T12:45:48Z</time>
      </trkpt>
      <trkpt lat="43.82011" lon="6.89712">
        <ele>1259.2</ele>
        <time>2026-05-16T12:45:49Z</time>
      </trkpt>
      <trkpt lat="43.82005" lon="6.8973">
        <ele>1258.3</ele>
        <time>2026-05-16T12:45:50Z</time>
      </trkpt>
      <trkpt lat="43.81999" lon="6.89748">
        <ele>1257.7</ele>
        <time>2026-05-16T12:45:51Z</time>
      </trkpt>
      <trkpt lat="43.81995" lon="6.89766">
        <ele>1256.4</ele>
        <time>2026-05-16T12:45:52Z</time>
      </trkpt>
      <trkpt lat="43.81994" lon="6.89784">
        <ele>1255.7</ele>
        <time>2026-05-16T12:45:53Z</time>
      </trkpt>
      <trkpt lat="43.81996" lon="6.898">
        <ele>1255.5</ele>
        <time>2026-05-16T12:45:54Z</time>
      </trkpt>
      <trkpt lat="43.81999" lon="6.89813">
        <ele>1255.6</ele>
        <time>2026-05-16T12:45:55Z</time>
      </trkpt>
      <trkpt lat="43.82001" lon="6.89824">
        <ele>1255.5</ele>
        <time>2026-05-16T12:45:56Z</time>
      </trkpt>
      <trkpt lat="43.82002" lon="6.89835">
        <ele>1255.3</ele>
        <time>2026-05-16T12:45:57Z</time>
      </trkpt>
      <trkpt lat="43.81999" lon="6.89844">
        <ele>1254.4</ele>
        <time>2026-05-16T12:45:58Z</time>
      </trkpt>
      <trkpt lat="43.81994" lon="6.8985">
        <ele>1253.3</ele>
        <time>2026-05-16T12:45:59Z</time>
      </trkpt>
      <trkpt lat="43.81986" lon="6.89852">
        <ele>1251.8</ele>
        <time>2026-05-16T12:46:00Z</time>
      </trkpt>
      <trkpt lat="43.8198" lon="6.89848">
        <ele>1250.9</ele>
        <time>2026-05-16T12:46:01Z</time>
      </trkpt>
      <trkpt lat="43.81974" lon="6.89841">
        <ele>1250</ele>
        <time>2026-05-16T12:46:02Z</time>
      </trkpt>
      <trkpt lat="43.81971" lon="6.89828">
        <ele>1249.9</ele>
        <time>2026-05-16T12:46:03Z</time>
      </trkpt>
      <trkpt lat="43.8197" lon="6.89814">
        <ele>1250.3</ele>
        <time>2026-05-16T12:46:04Z</time>
      </trkpt>
      <trkpt lat="43.81968" lon="6.89797">
        <ele>1250.5</ele>
        <time>2026-05-16T12:46:05Z</time>
      </trkpt>
      <trkpt lat="43.81964" lon="6.89779">
        <ele>1250.2</ele>
        <time>2026-05-16T12:46:06Z</time>
      </trkpt>
      <trkpt lat="43.81958" lon="6.89762">
        <ele>1248.9</ele>
        <time>2026-05-16T12:46:07Z</time>
      </trkpt>
      <trkpt lat="43.8195" lon="6.89745">
        <ele>1247.3</ele>
        <time>2026-05-16T12:46:08Z</time>
      </trkpt>
      <trkpt lat="43.81943" lon="6.89727">
        <ele>1246.6</ele>
        <time>2026-05-16T12:46:09Z</time>
      </trkpt>
      <trkpt lat="43.81935" lon="6.89708">
        <ele>1245.3</ele>
        <time>2026-05-16T12:46:10Z</time>
      </trkpt>
      <trkpt lat="43.81927" lon="6.89689">
        <ele>1244</ele>
        <time>2026-05-16T12:46:11Z</time>
      </trkpt>
      <trkpt lat="43.81918" lon="6.89668">
        <ele>1243.1</ele>
        <time>2026-05-16T12:46:12Z</time>
      </trkpt>
      <trkpt lat="43.81909" lon="6.89647">
        <ele>1241.9</ele>
        <time>2026-05-16T12:46:13Z</time>
      </trkpt>
      <trkpt lat="43.81901" lon="6.89627">
        <ele>1240.7</ele>
        <time>2026-05-16T12:46:14Z</time>
      </trkpt>
      <trkpt lat="43.81892" lon="6.89606">
        <ele>1238.8</ele>
        <time>2026-05-16T12:46:15Z</time>
      </trkpt>
      <trkpt lat="43.81883" lon="6.89585">
        <ele>1237.7</ele>
        <time>2026-05-16T12:46:16Z</time>
      </trkpt>
      <trkpt lat="43.81874" lon="6.89565">
        <ele>1236.1</ele>
        <time>2026-05-16T12:46:17Z</time>
      </trkpt>
      <trkpt lat="43.81865" lon="6.89543">
        <ele>1234.8</ele>
        <time>2026-05-16T12:46:18Z</time>
      </trkpt>
      <trkpt lat="43.81855" lon="6.8952">
        <ele>1233.1</ele>
        <time>2026-05-16T12:46:19Z</time>
      </trkpt>
      <trkpt lat="43.81846" lon="6.89497">
        <ele>1232.9</ele>
        <time>2026-05-16T12:46:20Z</time>
      </trkpt>
      <trkpt lat="43.81836" lon="6.89474">
        <ele>1231.5</ele>
        <time>2026-05-16T12:46:21Z</time>
      </trkpt>
      <trkpt lat="43.81826" lon="6.8945">
        <ele>1229.4</ele>
        <time>2026-05-16T12:46:22Z</time>
      </trkpt>
      <trkpt lat="43.81816" lon="6.89426">
        <ele>1227.7</ele>
        <time>2026-05-16T12:46:23Z</time>
      </trkpt>
      <trkpt lat="43.81805" lon="6.89403">
        <ele>1226.4</ele>
        <time>2026-05-16T12:46:24Z</time>
      </trkpt>
      <trkpt lat="43.81796" lon="6.89379">
        <ele>1225.1</ele>
        <time>2026-05-16T12:46:25Z</time>
      </trkpt>
      <trkpt lat="43.81785" lon="6.89356">
        <ele>1223.3</ele>
        <time>2026-05-16T12:46:26Z</time>
      </trkpt>
      <trkpt lat="43.81775" lon="6.89333">
        <ele>1221.5</ele>
        <time>2026-05-16T12:46:27Z</time>
      </trkpt>
      <trkpt lat="43.81765" lon="6.8931">
        <ele>1219.2</ele>
        <time>2026-05-16T12:46:28Z</time>
      </trkpt>
      <trkpt lat="43.81755" lon="6.89286">
        <ele>1218.4</ele>
        <time>2026-05-16T12:46:29Z</time>
      </trkpt>
      <trkpt lat="43.81746" lon="6.89263">
        <ele>1217.3</ele>
        <time>2026-05-16T12:46:30Z</time>
      </trkpt>
      <trkpt lat="43.81736" lon="6.89238">
        <ele>1215.3</ele>
        <time>2026-05-16T12:46:31Z</time>
      </trkpt>
      <trkpt lat="43.81728" lon="6.89215">
        <ele>1213.6</ele>
        <time>2026-05-16T12:46:32Z</time>
      </trkpt>
      <trkpt lat="43.81719" lon="6.8919">
        <ele>1211.4</ele>
        <time>2026-05-16T12:46:33Z</time>
      </trkpt>
      <trkpt lat="43.8171" lon="6.89165">
        <ele>1209.2</ele>
        <time>2026-05-16T12:46:34Z</time>
      </trkpt>
      <trkpt lat="43.81701" lon="6.89141">
        <ele>1207.9</ele>
        <time>2026-05-16T12:46:35Z</time>
      </trkpt>
      <trkpt lat="43.81692" lon="6.89116">
        <ele>1206.6</ele>
        <time>2026-05-16T12:46:36Z</time>
      </trkpt>
      <trkpt lat="43.81683" lon="6.8909">
        <ele>1204.9</ele>
        <time>2026-05-16T12:46:37Z</time>
      </trkpt>
      <trkpt lat="43.81674" lon="6.89065">
        <ele>1203.1</ele>
        <time>2026-05-16T12:46:38Z</time>
      </trkpt>
      <trkpt lat="43.81666" lon="6.8904">
        <ele>1201.4</ele>
        <time>2026-05-16T12:46:39Z</time>
      </trkpt>
      <trkpt lat="43.81657" lon="6.89015">
        <ele>1199.8</ele>
        <time>2026-05-16T12:46:40Z</time>
      </trkpt>
      <trkpt lat="43.81648" lon="6.88989">
        <ele>1198.3</ele>
        <time>2026-05-16T12:46:41Z</time>
      </trkpt>
      <trkpt lat="43.8164" lon="6.88964">
        <ele>1196.9</ele>
        <time>2026-05-16T12:46:42Z</time>
      </trkpt>
      <trkpt lat="43.81633" lon="6.88938">
        <ele>1194.9</ele>
        <time>2026-05-16T12:46:43Z</time>
      </trkpt>
      <trkpt lat="43.81625" lon="6.88912">
        <ele>1192.8</ele>
        <time>2026-05-16T12:46:44Z</time>
      </trkpt>
      <trkpt lat="43.81618" lon="6.88886">
        <ele>1190.9</ele>
        <time>2026-05-16T12:46:45Z</time>
      </trkpt>
      <trkpt lat="43.81611" lon="6.88861">
        <ele>1189</ele>
        <time>2026-05-16T12:46:46Z</time>
      </trkpt>
      <trkpt lat="43.81604" lon="6.88835">
        <ele>1187.7</ele>
        <time>2026-05-16T12:46:47Z</time>
      </trkpt>
      <trkpt lat="43.81598" lon="6.88809">
        <ele>1185.8</ele>
        <time>2026-05-16T12:46:48Z</time>
      </trkpt>
      <trkpt lat="43.81593" lon="6.88782">
        <ele>1184.4</ele>
        <time>2026-05-16T12:46:49Z</time>
      </trkpt>
      <trkpt lat="43.81587" lon="6.88755">
        <ele>1182.7</ele>
        <time>2026-05-16T12:46:50Z</time>
      </trkpt>
      <trkpt lat="43.81582" lon="6.88728">
        <ele>1180.9</ele>
        <time>2026-05-16T12:46:51Z</time>
      </trkpt>
      <trkpt lat="43.81577" lon="6.88701">
        <ele>1178.1</ele>
        <time>2026-05-16T12:46:52Z</time>
      </trkpt>
      <trkpt lat="43.81573" lon="6.88674">
        <ele>1176</ele>
        <time>2026-05-16T12:46:53Z</time>
      </trkpt>
      <trkpt lat="43.81568" lon="6.88647">
        <ele>1174</ele>
        <time>2026-05-16T12:46:54Z</time>
      </trkpt>
      <trkpt lat="43.81563" lon="6.88621">
        <ele>1172.6</ele>
        <time>2026-05-16T12:46:55Z</time>
      </trkpt>
      <trkpt lat="43.81559" lon="6.88594">
        <ele>1172.3</ele>
        <time>2026-05-16T12:46:56Z</time>
      </trkpt>
      <trkpt lat="43.81554" lon="6.88567">
        <ele>1171</ele>
        <time>2026-05-16T12:46:57Z</time>
      </trkpt>
      <trkpt lat="43.81551" lon="6.8854">
        <ele>1168.7</ele>
        <time>2026-05-16T12:46:58Z</time>
      </trkpt>
      <trkpt lat="43.81549" lon="6.88512">
        <ele>1166.8</ele>
        <time>2026-05-16T12:46:59Z</time>
      </trkpt>
      <trkpt lat="43.81547" lon="6.88485">
        <ele>1165.1</ele>
        <time>2026-05-16T12:47:00Z</time>
      </trkpt>
      <trkpt lat="43.81545" lon="6.88459">
        <ele>1163.7</ele>
        <time>2026-05-16T12:47:01Z</time>
      </trkpt>
      <trkpt lat="43.81542" lon="6.88433">
        <ele>1162.6</ele>
        <time>2026-05-16T12:47:02Z</time>
      </trkpt>
      <trkpt lat="43.8154" lon="6.88407">
        <ele>1161.7</ele>
        <time>2026-05-16T12:47:03Z</time>
      </trkpt>
      <trkpt lat="43.81539" lon="6.88382">
        <ele>1160.6</ele>
        <time>2026-05-16T12:47:04Z</time>
      </trkpt>
      <trkpt lat="43.81539" lon="6.88358">
        <ele>1159.7</ele>
        <time>2026-05-16T12:47:05Z</time>
      </trkpt>
      <trkpt lat="43.81539" lon="6.88336">
        <ele>1158.9</ele>
        <time>2026-05-16T12:47:06Z</time>
      </trkpt>
      <trkpt lat="43.81541" lon="6.88319">
        <ele>1159.1</ele>
        <time>2026-05-16T12:47:07Z</time>
      </trkpt>
      <trkpt lat="43.81543" lon="6.88302">
        <ele>1159.3</ele>
        <time>2026-05-16T12:47:08Z</time>
      </trkpt>
      <trkpt lat="43.81544" lon="6.88286">
        <ele>1159.4</ele>
        <time>2026-05-16T12:47:09Z</time>
      </trkpt>
      <trkpt lat="43.81543" lon="6.8827">
        <ele>1159.2</ele>
        <time>2026-05-16T12:47:10Z</time>
      </trkpt>
      <trkpt lat="43.8154" lon="6.88255">
        <ele>1158.7</ele>
        <time>2026-05-16T12:47:11Z</time>
      </trkpt>
      <trkpt lat="43.81535" lon="6.88242">
        <ele>1157.6</ele>
        <time>2026-05-16T12:47:12Z</time>
      </trkpt>
      <trkpt lat="43.81528" lon="6.88229">
        <ele>1155.6</ele>
        <time>2026-05-16T12:47:13Z</time>
      </trkpt>
      <trkpt lat="43.81522" lon="6.88218">
        <ele>1155.2</ele>
        <time>2026-05-16T12:47:14Z</time>
      </trkpt>
      <trkpt lat="43.81514" lon="6.88207">
        <ele>1154.5</ele>
        <time>2026-05-16T12:47:15Z</time>
      </trkpt>
      <trkpt lat="43.81506" lon="6.88199">
        <ele>1152.7</ele>
        <time>2026-05-16T12:47:16Z</time>
      </trkpt>
      <trkpt lat="43.81496" lon="6.88195">
        <ele>1150.2</ele>
        <time>2026-05-16T12:47:17Z</time>
      </trkpt>
      <trkpt lat="43.81487" lon="6.88198">
        <ele>1148.5</ele>
        <time>2026-05-16T12:47:18Z</time>
      </trkpt>
      <trkpt lat="43.81479" lon="6.88206">
        <ele>1146.7</ele>
        <time>2026-05-16T12:47:19Z</time>
      </trkpt>
      <trkpt lat="43.81471" lon="6.88218">
        <ele>1145</ele>
        <time>2026-05-16T12:47:20Z</time>
      </trkpt>
      <trkpt lat="43.81465" lon="6.88233">
        <ele>1144.2</ele>
        <time>2026-05-16T12:47:21Z</time>
      </trkpt>
      <trkpt lat="43.81457" lon="6.88249">
        <ele>1143.4</ele>
        <time>2026-05-16T12:47:22Z</time>
      </trkpt>
      <trkpt lat="43.81448" lon="6.88265">
        <ele>1142.4</ele>
        <time>2026-05-16T12:47:23Z</time>
      </trkpt>
      <trkpt lat="43.81439" lon="6.8828">
        <ele>1141.2</ele>
        <time>2026-05-16T12:47:24Z</time>
      </trkpt>
      <trkpt lat="43.81426" lon="6.88292">
        <ele>1139.7</ele>
        <time>2026-05-16T12:47:25Z</time>
      </trkpt>
      <trkpt lat="43.81411" lon="6.88298">
        <ele>1138.3</ele>
        <time>2026-05-16T12:47:26Z</time>
      </trkpt>
      <trkpt lat="43.81393" lon="6.883">
        <ele>1137.1</ele>
        <time>2026-05-16T12:47:27Z</time>
      </trkpt>
      <trkpt lat="43.81375" lon="6.88301">
        <ele>1136.3</ele>
        <time>2026-05-16T12:47:28Z</time>
      </trkpt>
      <trkpt lat="43.81355" lon="6.88302">
        <ele>1135.7</ele>
        <time>2026-05-16T12:47:29Z</time>
      </trkpt>
      <trkpt lat="43.81336" lon="6.88303">
        <ele>1135.1</ele>
        <time>2026-05-16T12:47:30Z</time>
      </trkpt>
      <trkpt lat="43.81317" lon="6.88305">
        <ele>1135</ele>
        <time>2026-05-16T12:47:31Z</time>
      </trkpt>
      <trkpt lat="43.81298" lon="6.88306">
        <ele>1135</ele>
        <time>2026-05-16T12:47:32Z</time>
      </trkpt>
      <trkpt lat="43.81278" lon="6.88308">
        <ele>1135</ele>
        <time>2026-05-16T12:47:33Z</time>
      </trkpt>
      <trkpt lat="43.81258" lon="6.88309">
        <ele>1134.9</ele>
        <time>2026-05-16T12:47:34Z</time>
      </trkpt>
      <trkpt lat="43.8124" lon="6.8831">
        <ele>1134.8</ele>
        <time>2026-05-16T12:47:35Z</time>
      </trkpt>
      <trkpt lat="43.81221" lon="6.88311">
        <ele>1134.8</ele>
        <time>2026-05-16T12:47:36Z</time>
      </trkpt>
      <trkpt lat="43.81202" lon="6.88309">
        <ele>1134.9</ele>
        <time>2026-05-16T12:47:37Z</time>
      </trkpt>
      <trkpt lat="43.81183" lon="6.88306">
        <ele>1135.4</ele>
        <time>2026-05-16T12:47:38Z</time>
      </trkpt>
      <trkpt lat="43.81164" lon="6.88301">
        <ele>1135.8</ele>
        <time>2026-05-16T12:47:39Z</time>
      </trkpt>
      <trkpt lat="43.81145" lon="6.88296">
        <ele>1135.1</ele>
        <time>2026-05-16T12:47:40Z</time>
      </trkpt>
      <trkpt lat="43.81126" lon="6.88292">
        <ele>1135</ele>
        <time>2026-05-16T12:47:41Z</time>
      </trkpt>
      <trkpt lat="43.81108" lon="6.88287">
        <ele>1135</ele>
        <time>2026-05-16T12:47:42Z</time>
      </trkpt>
      <trkpt lat="43.81088" lon="6.88283">
        <ele>1135</ele>
        <time>2026-05-16T12:47:43Z</time>
      </trkpt>
      <trkpt lat="43.8107" lon="6.88279">
        <ele>1135</ele>
        <time>2026-05-16T12:47:44Z</time>
      </trkpt>
      <trkpt lat="43.81051" lon="6.88277">
        <ele>1135</ele>
        <time>2026-05-16T12:47:45Z</time>
      </trkpt>
      <trkpt lat="43.81033" lon="6.88277">
        <ele>1135</ele>
        <time>2026-05-16T12:47:46Z</time>
      </trkpt>
      <trkpt lat="43.81016" lon="6.88278">
        <ele>1135.4</ele>
        <time>2026-05-16T12:47:47Z</time>
      </trkpt>
      <trkpt lat="43.81" lon="6.8828">
        <ele>1136</ele>
        <time>2026-05-16T12:47:48Z</time>
      </trkpt>
      <trkpt lat="43.80985" lon="6.88282">
        <ele>1136.5</ele>
        <time>2026-05-16T12:47:49Z</time>
      </trkpt>
      <trkpt lat="43.80971" lon="6.88285">
        <ele>1137</ele>
        <time>2026-05-16T12:47:50Z</time>
      </trkpt>
      <trkpt lat="43.80959" lon="6.88288">
        <ele>1137.5</ele>
        <time>2026-05-16T12:47:51Z</time>
      </trkpt>
      <trkpt lat="43.80949" lon="6.8829">
        <ele>1137.8</ele>
        <time>2026-05-16T12:47:52Z</time>
      </trkpt>
      <trkpt lat="43.80941" lon="6.88292">
        <ele>1138.2</ele>
        <time>2026-05-16T12:47:53Z</time>
      </trkpt>
      <trkpt lat="43.80933" lon="6.88294">
        <ele>1138.8</ele>
        <time>2026-05-16T12:47:54Z</time>
      </trkpt>
      <trkpt lat="43.80927" lon="6.88295">
        <ele>1139.3</ele>
        <time>2026-05-16T12:47:55Z</time>
      </trkpt>
      <trkpt lat="43.80922" lon="6.88296">
        <ele>1139.6</ele>
        <time>2026-05-16T12:47:56Z</time>
      </trkpt>
      <trkpt lat="43.80917" lon="6.88297">
        <ele>1140</ele>
        <time>2026-05-16T12:47:57Z</time>
      </trkpt>
      <trkpt lat="43.80912" lon="6.88298">
        <ele>1140.5</ele>
        <time>2026-05-16T12:47:58Z</time>
      </trkpt>
      <trkpt lat="43.80906" lon="6.88296">
        <ele>1141.2</ele>
        <time>2026-05-16T12:47:59Z</time>
      </trkpt>
      <trkpt lat="43.809" lon="6.88293">
        <ele>1141.8</ele>
        <time>2026-05-16T12:48:00Z</time>
      </trkpt>
      <trkpt lat="43.80896" lon="6.88287">
        <ele>1142.2</ele>
        <time>2026-05-16T12:48:01Z</time>
      </trkpt>
      <trkpt lat="43.80894" lon="6.88278">
        <ele>1142.4</ele>
        <time>2026-05-16T12:48:02Z</time>
      </trkpt>
      <trkpt lat="43.80894" lon="6.88267">
        <ele>1142.1</ele>
        <time>2026-05-16T12:48:03Z</time>
      </trkpt>
      <trkpt lat="43.80896" lon="6.88252">
        <ele>1141.3</ele>
        <time>2026-05-16T12:48:04Z</time>
      </trkpt>
      <trkpt lat="43.80898" lon="6.88235">
        <ele>1140.8</ele>
        <time>2026-05-16T12:48:05Z</time>
      </trkpt>
      <trkpt lat="43.809" lon="6.88218">
        <ele>1140.5</ele>
        <time>2026-05-16T12:48:06Z</time>
      </trkpt>
      <trkpt lat="43.80902" lon="6.88199">
        <ele>1140.5</ele>
        <time>2026-05-16T12:48:07Z</time>
      </trkpt>
      <trkpt lat="43.80905" lon="6.88178">
        <ele>1139.9</ele>
        <time>2026-05-16T12:48:08Z</time>
      </trkpt>
      <trkpt lat="43.80907" lon="6.88156">
        <ele>1139.3</ele>
        <time>2026-05-16T12:48:09Z</time>
      </trkpt>
      <trkpt lat="43.80908" lon="6.88133">
        <ele>1139.1</ele>
        <time>2026-05-16T12:48:10Z</time>
      </trkpt>
      <trkpt lat="43.80908" lon="6.88108">
        <ele>1139.5</ele>
        <time>2026-05-16T12:48:11Z</time>
      </trkpt>
      <trkpt lat="43.80908" lon="6.88081">
        <ele>1138.6</ele>
        <time>2026-05-16T12:48:12Z</time>
      </trkpt>
      <trkpt lat="43.80907" lon="6.88053">
        <ele>1138.8</ele>
        <time>2026-05-16T12:48:13Z</time>
      </trkpt>
      <trkpt lat="43.80906" lon="6.88024">
        <ele>1139.3</ele>
        <time>2026-05-16T12:48:14Z</time>
      </trkpt>
      <trkpt lat="43.80904" lon="6.87995">
        <ele>1139</ele>
        <time>2026-05-16T12:48:15Z</time>
      </trkpt>
      <trkpt lat="43.80903" lon="6.87965">
        <ele>1139.3</ele>
        <time>2026-05-16T12:48:16Z</time>
      </trkpt>
      <trkpt lat="43.80902" lon="6.87935">
        <ele>1140</ele>
        <time>2026-05-16T12:48:17Z</time>
      </trkpt>
      <trkpt lat="43.80901" lon="6.87905">
        <ele>1140.2</ele>
        <time>2026-05-16T12:48:18Z</time>
      </trkpt>
      <trkpt lat="43.809" lon="6.87876">
        <ele>1140.6</ele>
        <time>2026-05-16T12:48:19Z</time>
      </trkpt>
      <trkpt lat="43.80899" lon="6.87847">
        <ele>1140.6</ele>
        <time>2026-05-16T12:48:20Z</time>
      </trkpt>
      <trkpt lat="43.80898" lon="6.87817">
        <ele>1140.7</ele>
        <time>2026-05-16T12:48:21Z</time>
      </trkpt>
      <trkpt lat="43.80897" lon="6.87787">
        <ele>1140.7</ele>
        <time>2026-05-16T12:48:22Z</time>
      </trkpt>
      <trkpt lat="43.80896" lon="6.87757">
        <ele>1141.3</ele>
        <time>2026-05-16T12:48:23Z</time>
      </trkpt>
      <trkpt lat="43.80894" lon="6.87728">
        <ele>1141.8</ele>
        <time>2026-05-16T12:48:24Z</time>
      </trkpt>
      <trkpt lat="43.80892" lon="6.87699">
        <ele>1141.9</ele>
        <time>2026-05-16T12:48:25Z</time>
      </trkpt>
      <trkpt lat="43.80888" lon="6.87671">
        <ele>1142</ele>
        <time>2026-05-16T12:48:26Z</time>
      </trkpt>
      <trkpt lat="43.80883" lon="6.87643">
        <ele>1142.9</ele>
        <time>2026-05-16T12:48:27Z</time>
      </trkpt>
      <trkpt lat="43.80875" lon="6.87616">
        <ele>1143</ele>
        <time>2026-05-16T12:48:28Z</time>
      </trkpt>
      <trkpt lat="43.80866" lon="6.87591">
        <ele>1143.1</ele>
        <time>2026-05-16T12:48:29Z</time>
      </trkpt>
      <trkpt lat="43.80856" lon="6.87565">
        <ele>1143.7</ele>
        <time>2026-05-16T12:48:30Z</time>
      </trkpt>
      <trkpt lat="43.80848" lon="6.87539">
        <ele>1144.3</ele>
        <time>2026-05-16T12:48:31Z</time>
      </trkpt>
      <trkpt lat="43.80841" lon="6.87513">
        <ele>1145.3</ele>
        <time>2026-05-16T12:48:32Z</time>
      </trkpt>
      <trkpt lat="43.80836" lon="6.87486">
        <ele>1146</ele>
        <time>2026-05-16T12:48:33Z</time>
      </trkpt>
      <trkpt lat="43.80831" lon="6.87459">
        <ele>1146.4</ele>
        <time>2026-05-16T12:48:34Z</time>
      </trkpt>
      <trkpt lat="43.80827" lon="6.87433">
        <ele>1146.9</ele>
        <time>2026-05-16T12:48:35Z</time>
      </trkpt>
      <trkpt lat="43.80825" lon="6.87406">
        <ele>1146.9</ele>
        <time>2026-05-16T12:48:36Z</time>
      </trkpt>
      <trkpt lat="43.80824" lon="6.8738">
        <ele>1146.9</ele>
        <time>2026-05-16T12:48:37Z</time>
      </trkpt>
      <trkpt lat="43.80822" lon="6.87355">
        <ele>1147.4</ele>
        <time>2026-05-16T12:48:38Z</time>
      </trkpt>
      <trkpt lat="43.80821" lon="6.87329">
        <ele>1148.2</ele>
        <time>2026-05-16T12:48:39Z</time>
      </trkpt>
      <trkpt lat="43.8082" lon="6.87303">
        <ele>1148.7</ele>
        <time>2026-05-16T12:48:40Z</time>
      </trkpt>
      <trkpt lat="43.80819" lon="6.87277">
        <ele>1149.5</ele>
        <time>2026-05-16T12:48:41Z</time>
      </trkpt>
      <trkpt lat="43.80816" lon="6.87253">
        <ele>1150.7</ele>
        <time>2026-05-16T12:48:42Z</time>
      </trkpt>
      <trkpt lat="43.80812" lon="6.87229">
        <ele>1152</ele>
        <time>2026-05-16T12:48:43Z</time>
      </trkpt>
      <trkpt lat="43.80807" lon="6.87206">
        <ele>1152.6</ele>
        <time>2026-05-16T12:48:44Z</time>
      </trkpt>
      <trkpt lat="43.80804" lon="6.87183">
        <ele>1153.5</ele>
        <time>2026-05-16T12:48:45Z</time>
      </trkpt>
      <trkpt lat="43.80803" lon="6.87159">
        <ele>1154.5</ele>
        <time>2026-05-16T12:48:46Z</time>
      </trkpt>
      <trkpt lat="43.80804" lon="6.87135">
        <ele>1154.6</ele>
        <time>2026-05-16T12:48:47Z</time>
      </trkpt>
      <trkpt lat="43.80806" lon="6.87111">
        <ele>1154</ele>
        <time>2026-05-16T12:48:48Z</time>
      </trkpt>
      <trkpt lat="43.80809" lon="6.87086">
        <ele>1153.6</ele>
        <time>2026-05-16T12:48:49Z</time>
      </trkpt>
      <trkpt lat="43.80811" lon="6.87062">
        <ele>1154.4</ele>
        <time>2026-05-16T12:48:50Z</time>
      </trkpt>
      <trkpt lat="43.80814" lon="6.87038">
        <ele>1155.1</ele>
        <time>2026-05-16T12:48:51Z</time>
      </trkpt>
      <trkpt lat="43.80818" lon="6.87014">
        <ele>1155.8</ele>
        <time>2026-05-16T12:48:52Z</time>
      </trkpt>
      <trkpt lat="43.80824" lon="6.86991">
        <ele>1156.4</ele>
        <time>2026-05-16T12:48:53Z</time>
      </trkpt>
      <trkpt lat="43.80829" lon="6.86968">
        <ele>1156.5</ele>
        <time>2026-05-16T12:48:54Z</time>
      </trkpt>
      <trkpt lat="43.80833" lon="6.86945">
        <ele>1157</ele>
        <time>2026-05-16T12:48:55Z</time>
      </trkpt>
      <trkpt lat="43.80837" lon="6.86921">
        <ele>1158.1</ele>
        <time>2026-05-16T12:48:56Z</time>
      </trkpt>
      <trkpt lat="43.8084" lon="6.86899">
        <ele>1159.6</ele>
        <time>2026-05-16T12:48:57Z</time>
      </trkpt>
      <trkpt lat="43.80842" lon="6.86877">
        <ele>1160.9</ele>
        <time>2026-05-16T12:48:58Z</time>
      </trkpt>
      <trkpt lat="43.80843" lon="6.86854">
        <ele>1162</ele>
        <time>2026-05-16T12:48:59Z</time>
      </trkpt>
      <trkpt lat="43.80841" lon="6.86833">
        <ele>1162.2</ele>
        <time>2026-05-16T12:49:00Z</time>
      </trkpt>
      <trkpt lat="43.80839" lon="6.86811">
        <ele>1161.8</ele>
        <time>2026-05-16T12:49:01Z</time>
      </trkpt>
      <trkpt lat="43.80836" lon="6.86789">
        <ele>1161.5</ele>
        <time>2026-05-16T12:49:02Z</time>
      </trkpt>
      <trkpt lat="43.80834" lon="6.86766">
        <ele>1162.1</ele>
        <time>2026-05-16T12:49:03Z</time>
      </trkpt>
      <trkpt lat="43.80833" lon="6.86743">
        <ele>1162.9</ele>
        <time>2026-05-16T12:49:04Z</time>
      </trkpt>
      <trkpt lat="43.80833" lon="6.86721">
        <ele>1162.9</ele>
        <time>2026-05-16T12:49:05Z</time>
      </trkpt>
      <trkpt lat="43.80839" lon="6.86699">
        <ele>1164.7</ele>
        <time>2026-05-16T12:49:06Z</time>
      </trkpt>
      <trkpt lat="43.80846" lon="6.86677">
        <ele>1165.4</ele>
        <time>2026-05-16T12:49:07Z</time>
      </trkpt>
      <trkpt lat="43.80854" lon="6.86656">
        <ele>1165.9</ele>
        <time>2026-05-16T12:49:08Z</time>
      </trkpt>
      <trkpt lat="43.80863" lon="6.86636">
        <ele>1166.2</ele>
        <time>2026-05-16T12:49:09Z</time>
      </trkpt>
      <trkpt lat="43.80873" lon="6.86616">
        <ele>1166.6</ele>
        <time>2026-05-16T12:49:10Z</time>
      </trkpt>
      <trkpt lat="43.80882" lon="6.86599">
        <ele>1167.1</ele>
        <time>2026-05-16T12:49:11Z</time>
      </trkpt>
      <trkpt lat="43.8089" lon="6.86581">
        <ele>1167.1</ele>
        <time>2026-05-16T12:49:12Z</time>
      </trkpt>
      <trkpt lat="43.80898" lon="6.86565">
        <ele>1167.6</ele>
        <time>2026-05-16T12:49:13Z</time>
      </trkpt>
      <trkpt lat="43.80904" lon="6.86548">
        <ele>1167.7</ele>
        <time>2026-05-16T12:49:14Z</time>
      </trkpt>
      <trkpt lat="43.80907" lon="6.86533">
        <ele>1167.9</ele>
        <time>2026-05-16T12:49:15Z</time>
      </trkpt>
      <trkpt lat="43.80908" lon="6.86517">
        <ele>1168.7</ele>
        <time>2026-05-16T12:49:16Z</time>
      </trkpt>
      <trkpt lat="43.80907" lon="6.865">
        <ele>1169.7</ele>
        <time>2026-05-16T12:49:17Z</time>
      </trkpt>
      <trkpt lat="43.80905" lon="6.86482">
        <ele>1170.2</ele>
        <time>2026-05-16T12:49:18Z</time>
      </trkpt>
      <trkpt lat="43.80904" lon="6.86464">
        <ele>1170.8</ele>
        <time>2026-05-16T12:49:19Z</time>
      </trkpt>
      <trkpt lat="43.80904" lon="6.86446">
        <ele>1171.5</ele>
        <time>2026-05-16T12:49:20Z</time>
      </trkpt>
      <trkpt lat="43.80905" lon="6.86427">
        <ele>1171.3</ele>
        <time>2026-05-16T12:49:21Z</time>
      </trkpt>
      <trkpt lat="43.80907" lon="6.86408">
        <ele>1171.5</ele>
        <time>2026-05-16T12:49:22Z</time>
      </trkpt>
      <trkpt lat="43.80907" lon="6.86388">
        <ele>1172</ele>
        <time>2026-05-16T12:49:23Z</time>
      </trkpt>
      <trkpt lat="43.80907" lon="6.86368">
        <ele>1172</ele>
        <time>2026-05-16T12:49:24Z</time>
      </trkpt>
      <trkpt lat="43.80906" lon="6.86347">
        <ele>1172.7</ele>
        <time>2026-05-16T12:49:25Z</time>
      </trkpt>
      <trkpt lat="43.80903" lon="6.86326">
        <ele>1173.7</ele>
        <time>2026-05-16T12:49:26Z</time>
      </trkpt>
      <trkpt lat="43.80899" lon="6.86305">
        <ele>1174.9</ele>
        <time>2026-05-16T12:49:27Z</time>
      </trkpt>
      <trkpt lat="43.80894" lon="6.86285">
        <ele>1174.9</ele>
        <time>2026-05-16T12:49:28Z</time>
      </trkpt>
      <trkpt lat="43.80889" lon="6.86264">
        <ele>1175.5</ele>
        <time>2026-05-16T12:49:29Z</time>
      </trkpt>
      <trkpt lat="43.80884" lon="6.86242">
        <ele>1177</ele>
        <time>2026-05-16T12:49:30Z</time>
      </trkpt>
      <trkpt lat="43.8088" lon="6.86219">
        <ele>1178.4</ele>
        <time>2026-05-16T12:49:31Z</time>
      </trkpt>
      <trkpt lat="43.80876" lon="6.86198">
        <ele>1179.8</ele>
        <time>2026-05-16T12:49:32Z</time>
      </trkpt>
      <trkpt lat="43.80872" lon="6.86177">
        <ele>1180.8</ele>
        <time>2026-05-16T12:49:33Z</time>
      </trkpt>
      <trkpt lat="43.80867" lon="6.86157">
        <ele>1181.5</ele>
        <time>2026-05-16T12:49:34Z</time>
      </trkpt>
      <trkpt lat="43.80861" lon="6.86137">
        <ele>1182.1</ele>
        <time>2026-05-16T12:49:35Z</time>
      </trkpt>
      <trkpt lat="43.80855" lon="6.86118">
        <ele>1182.5</ele>
        <time>2026-05-16T12:49:36Z</time>
      </trkpt>
      <trkpt lat="43.80848" lon="6.861">
        <ele>1183.3</ele>
        <time>2026-05-16T12:49:37Z</time>
      </trkpt>
      <trkpt lat="43.80841" lon="6.86082">
        <ele>1184.4</ele>
        <time>2026-05-16T12:49:38Z</time>
      </trkpt>
      <trkpt lat="43.80835" lon="6.86064">
        <ele>1185.5</ele>
        <time>2026-05-16T12:49:39Z</time>
      </trkpt>
      <trkpt lat="43.8083" lon="6.86047">
        <ele>1186.3</ele>
        <time>2026-05-16T12:49:40Z</time>
      </trkpt>
      <trkpt lat="43.80825" lon="6.86029">
        <ele>1187</ele>
        <time>2026-05-16T12:49:41Z</time>
      </trkpt>
      <trkpt lat="43.8082" lon="6.8601">
        <ele>1187.3</ele>
        <time>2026-05-16T12:49:42Z</time>
      </trkpt>
      <trkpt lat="43.80815" lon="6.85991">
        <ele>1187.3</ele>
        <time>2026-05-16T12:49:43Z</time>
      </trkpt>
      <trkpt lat="43.8081" lon="6.85972">
        <ele>1187.2</ele>
        <time>2026-05-16T12:49:44Z</time>
      </trkpt>
      <trkpt lat="43.80803" lon="6.85953">
        <ele>1186.9</ele>
        <time>2026-05-16T12:49:45Z</time>
      </trkpt>
      <trkpt lat="43.80795" lon="6.85933">
        <ele>1186.2</ele>
        <time>2026-05-16T12:49:46Z</time>
      </trkpt>
      <trkpt lat="43.80785" lon="6.85914">
        <ele>1185.3</ele>
        <time>2026-05-16T12:49:47Z</time>
      </trkpt>
      <trkpt lat="43.80774" lon="6.85894">
        <ele>1184.9</ele>
        <time>2026-05-16T12:49:48Z</time>
      </trkpt>
      <trkpt lat="43.80763" lon="6.85874">
        <ele>1184.2</ele>
        <time>2026-05-16T12:49:49Z</time>
      </trkpt>
      <trkpt lat="43.80752" lon="6.85854">
        <ele>1183.7</ele>
        <time>2026-05-16T12:49:50Z</time>
      </trkpt>
      <trkpt lat="43.8074" lon="6.85832">
        <ele>1183</ele>
        <time>2026-05-16T12:49:51Z</time>
      </trkpt>
      <trkpt lat="43.80728" lon="6.8581">
        <ele>1182.2</ele>
        <time>2026-05-16T12:49:52Z</time>
      </trkpt>
      <trkpt lat="43.80716" lon="6.85788">
        <ele>1181.4</ele>
        <time>2026-05-16T12:49:53Z</time>
      </trkpt>
      <trkpt lat="43.80704" lon="6.85765">
        <ele>1180.5</ele>
        <time>2026-05-16T12:49:54Z</time>
      </trkpt>
      <trkpt lat="43.80692" lon="6.85741">
        <ele>1180.1</ele>
        <time>2026-05-16T12:49:55Z</time>
      </trkpt>
      <trkpt lat="43.80678" lon="6.85717">
        <ele>1179.8</ele>
        <time>2026-05-16T12:49:56Z</time>
      </trkpt>
      <trkpt lat="43.80665" lon="6.85692">
        <ele>1179.1</ele>
        <time>2026-05-16T12:49:57Z</time>
      </trkpt>
      <trkpt lat="43.80652" lon="6.85667">
        <ele>1179</ele>
        <time>2026-05-16T12:49:58Z</time>
      </trkpt>
      <trkpt lat="43.80639" lon="6.85642">
        <ele>1179</ele>
        <time>2026-05-16T12:49:59Z</time>
      </trkpt>
      <trkpt lat="43.80627" lon="6.85616">
        <ele>1178.5</ele>
        <time>2026-05-16T12:50:00Z</time>
      </trkpt>
      <trkpt lat="43.80615" lon="6.8559">
        <ele>1178.2</ele>
        <time>2026-05-16T12:50:01Z</time>
      </trkpt>
      <trkpt lat="43.80603" lon="6.85564">
        <ele>1178.3</ele>
        <time>2026-05-16T12:50:02Z</time>
      </trkpt>
      <trkpt lat="43.80592" lon="6.85538">
        <ele>1178.1</ele>
        <time>2026-05-16T12:50:03Z</time>
      </trkpt>
      <trkpt lat="43.80581" lon="6.85512">
        <ele>1177.6</ele>
        <time>2026-05-16T12:50:04Z</time>
      </trkpt>
      <trkpt lat="43.80569" lon="6.85487">
        <ele>1177.8</ele>
        <time>2026-05-16T12:50:05Z</time>
      </trkpt>
      <trkpt lat="43.80558" lon="6.85462">
        <ele>1177.5</ele>
        <time>2026-05-16T12:50:06Z</time>
      </trkpt>
      <trkpt lat="43.80546" lon="6.85437">
        <ele>1177.6</ele>
        <time>2026-05-16T12:50:07Z</time>
      </trkpt>
      <trkpt lat="43.80535" lon="6.85412">
        <ele>1177.6</ele>
        <time>2026-05-16T12:50:08Z</time>
      </trkpt>
      <trkpt lat="43.80524" lon="6.85387">
        <ele>1177.1</ele>
        <time>2026-05-16T12:50:09Z</time>
      </trkpt>
      <trkpt lat="43.80513" lon="6.85361">
        <ele>1177.5</ele>
        <time>2026-05-16T12:50:10Z</time>
      </trkpt>
      <trkpt lat="43.80501" lon="6.85336">
        <ele>1177.1</ele>
        <time>2026-05-16T12:50:11Z</time>
      </trkpt>
      <trkpt lat="43.80491" lon="6.85311">
        <ele>1177.3</ele>
        <time>2026-05-16T12:50:12Z</time>
      </trkpt>
      <trkpt lat="43.80481" lon="6.85285">
        <ele>1176.9</ele>
        <time>2026-05-16T12:50:13Z</time>
      </trkpt>
      <trkpt lat="43.80471" lon="6.85259">
        <ele>1176.4</ele>
        <time>2026-05-16T12:50:14Z</time>
      </trkpt>
      <trkpt lat="43.80463" lon="6.85234">
        <ele>1175.8</ele>
        <time>2026-05-16T12:50:15Z</time>
      </trkpt>
      <trkpt lat="43.80454" lon="6.85208">
        <ele>1174.8</ele>
        <time>2026-05-16T12:50:16Z</time>
      </trkpt>
      <trkpt lat="43.80446" lon="6.85183">
        <ele>1173.6</ele>
        <time>2026-05-16T12:50:17Z</time>
      </trkpt>
      <trkpt lat="43.80438" lon="6.85159">
        <ele>1173</ele>
        <time>2026-05-16T12:50:18Z</time>
      </trkpt>
      <trkpt lat="43.80429" lon="6.85134">
        <ele>1173</ele>
        <time>2026-05-16T12:50:19Z</time>
      </trkpt>
      <trkpt lat="43.80421" lon="6.85108">
        <ele>1172.8</ele>
        <time>2026-05-16T12:50:20Z</time>
      </trkpt>
      <trkpt lat="43.80413" lon="6.85082">
        <ele>1173.2</ele>
        <time>2026-05-16T12:50:21Z</time>
      </trkpt>
      <trkpt lat="43.80404" lon="6.85056">
        <ele>1172.9</ele>
        <time>2026-05-16T12:50:22Z</time>
      </trkpt>
      <trkpt lat="43.80396" lon="6.85029">
        <ele>1172.8</ele>
        <time>2026-05-16T12:50:23Z</time>
      </trkpt>
      <trkpt lat="43.80387" lon="6.85002">
        <ele>1172.2</ele>
        <time>2026-05-16T12:50:24Z</time>
      </trkpt>
      <trkpt lat="43.80378" lon="6.84975">
        <ele>1172.2</ele>
        <time>2026-05-16T12:50:25Z</time>
      </trkpt>
      <trkpt lat="43.80369" lon="6.84947">
        <ele>1172.2</ele>
        <time>2026-05-16T12:50:26Z</time>
      </trkpt>
      <trkpt lat="43.8036" lon="6.84919">
        <ele>1172.2</ele>
        <time>2026-05-16T12:50:27Z</time>
      </trkpt>
      <trkpt lat="43.80351" lon="6.84891">
        <ele>1171.8</ele>
        <time>2026-05-16T12:50:28Z</time>
      </trkpt>
      <trkpt lat="43.80341" lon="6.84864">
        <ele>1171.6</ele>
        <time>2026-05-16T12:50:29Z</time>
      </trkpt>
      <trkpt lat="43.80332" lon="6.84836">
        <ele>1171.2</ele>
        <time>2026-05-16T12:50:30Z</time>
      </trkpt>
      <trkpt lat="43.80322" lon="6.84808">
        <ele>1170.9</ele>
        <time>2026-05-16T12:50:31Z</time>
      </trkpt>
      <trkpt lat="43.80312" lon="6.8478">
        <ele>1169.9</ele>
        <time>2026-05-16T12:50:32Z</time>
      </trkpt>
      <trkpt lat="43.80301" lon="6.84753">
        <ele>1169.2</ele>
        <time>2026-05-16T12:50:33Z</time>
      </trkpt>
      <trkpt lat="43.80292" lon="6.84725">
        <ele>1168.1</ele>
        <time>2026-05-16T12:50:34Z</time>
      </trkpt>
      <trkpt lat="43.80283" lon="6.84697">
        <ele>1168</ele>
        <time>2026-05-16T12:50:35Z</time>
      </trkpt>
      <trkpt lat="43.80275" lon="6.8467">
        <ele>1168</ele>
        <time>2026-05-16T12:50:36Z</time>
      </trkpt>
      <trkpt lat="43.80267" lon="6.84644">
        <ele>1168</ele>
        <time>2026-05-16T12:50:37Z</time>
      </trkpt>
      <trkpt lat="43.80259" lon="6.84617">
        <ele>1168.3</ele>
        <time>2026-05-16T12:50:38Z</time>
      </trkpt>
      <trkpt lat="43.80251" lon="6.8459">
        <ele>1168.8</ele>
        <time>2026-05-16T12:50:39Z</time>
      </trkpt>
      <trkpt lat="43.80246" lon="6.84561">
        <ele>1169</ele>
        <time>2026-05-16T12:50:40Z</time>
      </trkpt>
      <trkpt lat="43.80243" lon="6.84533">
        <ele>1169.2</ele>
        <time>2026-05-16T12:50:41Z</time>
      </trkpt>
      <trkpt lat="43.80241" lon="6.84504">
        <ele>1170.5</ele>
        <time>2026-05-16T12:50:42Z</time>
      </trkpt>
      <trkpt lat="43.80238" lon="6.84475">
        <ele>1170.9</ele>
        <time>2026-05-16T12:50:43Z</time>
      </trkpt>
      <trkpt lat="43.80235" lon="6.84448">
        <ele>1171.6</ele>
        <time>2026-05-16T12:50:44Z</time>
      </trkpt>
      <trkpt lat="43.80233" lon="6.8442">
        <ele>1172.2</ele>
        <time>2026-05-16T12:50:45Z</time>
      </trkpt>
      <trkpt lat="43.8023" lon="6.84394">
        <ele>1172.4</ele>
        <time>2026-05-16T12:50:46Z</time>
      </trkpt>
      <trkpt lat="43.80228" lon="6.84368">
        <ele>1172.7</ele>
        <time>2026-05-16T12:50:47Z</time>
      </trkpt>
      <trkpt lat="43.80225" lon="6.84342">
        <ele>1172.9</ele>
        <time>2026-05-16T12:50:48Z</time>
      </trkpt>
      <trkpt lat="43.80223" lon="6.84315">
        <ele>1173</ele>
        <time>2026-05-16T12:50:49Z</time>
      </trkpt>
      <trkpt lat="43.80221" lon="6.84288">
        <ele>1173.1</ele>
        <time>2026-05-16T12:50:50Z</time>
      </trkpt>
      <trkpt lat="43.80218" lon="6.84262">
        <ele>1173.3</ele>
        <time>2026-05-16T12:50:51Z</time>
      </trkpt>
      <trkpt lat="43.80216" lon="6.84235">
        <ele>1173.4</ele>
        <time>2026-05-16T12:50:52Z</time>
      </trkpt>
      <trkpt lat="43.80213" lon="6.84208">
        <ele>1173.5</ele>
        <time>2026-05-16T12:50:53Z</time>
      </trkpt>
      <trkpt lat="43.8021" lon="6.84182">
        <ele>1173.2</ele>
        <time>2026-05-16T12:50:54Z</time>
      </trkpt>
      <trkpt lat="43.80205" lon="6.84157">
        <ele>1172.9</ele>
        <time>2026-05-16T12:50:55Z</time>
      </trkpt>
      <trkpt lat="43.80201" lon="6.84132">
        <ele>1172.3</ele>
        <time>2026-05-16T12:50:56Z</time>
      </trkpt>
      <trkpt lat="43.80195" lon="6.84109">
        <ele>1171.9</ele>
        <time>2026-05-16T12:50:57Z</time>
      </trkpt>
      <trkpt lat="43.8019" lon="6.84085">
        <ele>1171.4</ele>
        <time>2026-05-16T12:50:58Z</time>
      </trkpt>
      <trkpt lat="43.80184" lon="6.84063">
        <ele>1170.7</ele>
        <time>2026-05-16T12:50:59Z</time>
      </trkpt>
      <trkpt lat="43.80178" lon="6.84041">
        <ele>1170.1</ele>
        <time>2026-05-16T12:51:00Z</time>
      </trkpt>
      <trkpt lat="43.80172" lon="6.84021">
        <ele>1169.6</ele>
        <time>2026-05-16T12:51:01Z</time>
      </trkpt>
      <trkpt lat="43.80166" lon="6.84001">
        <ele>1169.1</ele>
        <time>2026-05-16T12:51:02Z</time>
      </trkpt>
      <trkpt lat="43.80159" lon="6.83986">
        <ele>1169.2</ele>
        <time>2026-05-16T12:51:03Z</time>
      </trkpt>
      <trkpt lat="43.80155" lon="6.83972">
        <ele>1168.8</ele>
        <time>2026-05-16T12:51:04Z</time>
      </trkpt>
      <trkpt lat="43.8015" lon="6.83959">
        <ele>1168.4</ele>
        <time>2026-05-16T12:51:05Z</time>
      </trkpt>
      <trkpt lat="43.80145" lon="6.83946">
        <ele>1167.9</ele>
        <time>2026-05-16T12:51:06Z</time>
      </trkpt>
      <trkpt lat="43.80139" lon="6.83933">
        <ele>1167.6</ele>
        <time>2026-05-16T12:51:07Z</time>
      </trkpt>
      <trkpt lat="43.80135" lon="6.83922">
        <ele>1167.6</ele>
        <time>2026-05-16T12:51:08Z</time>
      </trkpt>
      <trkpt lat="43.80129" lon="6.8391">
        <ele>1167.6</ele>
        <time>2026-05-16T12:51:09Z</time>
      </trkpt>
      <trkpt lat="43.80124" lon="6.83899">
        <ele>1167.3</ele>
        <time>2026-05-16T12:51:10Z</time>
      </trkpt>
      <trkpt lat="43.8012" lon="6.83892">
        <ele>1167.3</ele>
        <time>2026-05-16T12:51:11Z</time>
      </trkpt>
      <trkpt lat="43.80117" lon="6.83885">
        <ele>1167.1</ele>
        <time>2026-05-16T12:51:12Z</time>
      </trkpt>
      <trkpt lat="43.80114" lon="6.83878">
        <ele>1166.9</ele>
        <time>2026-05-16T12:51:13Z</time>
      </trkpt>
      <trkpt lat="43.8011" lon="6.83871">
        <ele>1166.8</ele>
        <time>2026-05-16T12:51:14Z</time>
      </trkpt>
      <trkpt lat="43.80106" lon="6.83863">
        <ele>1166.5</ele>
        <time>2026-05-16T12:51:15Z</time>
      </trkpt>
      <trkpt lat="43.80102" lon="6.83855">
        <ele>1166.1</ele>
        <time>2026-05-16T12:51:16Z</time>
      </trkpt>
      <trkpt lat="43.80096" lon="6.83847">
        <ele>1165.8</ele>
        <time>2026-05-16T12:51:17Z</time>
      </trkpt>
      <trkpt lat="43.8009" lon="6.83841">
        <ele>1165.5</ele>
        <time>2026-05-16T12:51:18Z</time>
      </trkpt>
      <trkpt lat="43.80084" lon="6.83836">
        <ele>1165.3</ele>
        <time>2026-05-16T12:51:19Z</time>
      </trkpt>
      <trkpt lat="43.80078" lon="6.83831">
        <ele>1164.7</ele>
        <time>2026-05-16T12:51:20Z</time>
      </trkpt>
      <trkpt lat="43.80072" lon="6.83826">
        <ele>1164.2</ele>
        <time>2026-05-16T12:51:21Z</time>
      </trkpt>
      <trkpt lat="43.80068" lon="6.83822">
        <ele>1163.9</ele>
        <time>2026-05-16T12:51:22Z</time>
      </trkpt>
      <trkpt lat="43.80065" lon="6.83818">
        <ele>1163.6</ele>
        <time>2026-05-16T12:51:23Z</time>
      </trkpt>
      <trkpt lat="43.80063" lon="6.83815">
        <ele>1163.4</ele>
        <time>2026-05-16T12:51:24Z</time>
      </trkpt>
      <trkpt lat="43.8006" lon="6.8381">
        <ele>1163.2</ele>
        <time>2026-05-16T12:51:25Z</time>
      </trkpt>
      <trkpt lat="43.80059" lon="6.83805">
        <ele>1163</ele>
        <time>2026-05-16T12:51:26Z</time>
      </trkpt>
      <trkpt lat="43.80058" lon="6.83799">
        <ele>1163</ele>
        <time>2026-05-16T12:51:27Z</time>
      </trkpt>
      <trkpt lat="43.80057" lon="6.83792">
        <ele>1163</ele>
        <time>2026-05-16T12:51:28Z</time>
      </trkpt>
      <trkpt lat="43.80053" lon="6.83786">
        <ele>1163.1</ele>
        <time>2026-05-16T12:51:29Z</time>
      </trkpt>
      <trkpt lat="43.80047" lon="6.83786">
        <ele>1163.4</ele>
        <time>2026-05-16T12:51:30Z</time>
      </trkpt>
      <trkpt lat="43.80042" lon="6.8379">
        <ele>1163.7</ele>
        <time>2026-05-16T12:51:31Z</time>
      </trkpt>
      <trkpt lat="43.80039" lon="6.83798">
        <ele>1164</ele>
        <time>2026-05-16T12:51:32Z</time>
      </trkpt>
      <trkpt lat="43.80035" lon="6.83811">
        <ele>1164.4</ele>
        <time>2026-05-16T12:51:33Z</time>
      </trkpt>
      <trkpt lat="43.80029" lon="6.83826">
        <ele>1164.2</ele>
        <time>2026-05-16T12:51:34Z</time>
      </trkpt>
      <trkpt lat="43.80021" lon="6.83841">
        <ele>1164</ele>
        <time>2026-05-16T12:51:35Z</time>
      </trkpt>
      <trkpt lat="43.80013" lon="6.83857">
        <ele>1163.7</ele>
        <time>2026-05-16T12:51:36Z</time>
      </trkpt>
      <trkpt lat="43.80003" lon="6.83872">
        <ele>1163.7</ele>
        <time>2026-05-16T12:51:37Z</time>
      </trkpt>
      <trkpt lat="43.7999" lon="6.83887">
        <ele>1163.8</ele>
        <time>2026-05-16T12:51:38Z</time>
      </trkpt>
      <trkpt lat="43.79977" lon="6.839">
        <ele>1164.5</ele>
        <time>2026-05-16T12:51:39Z</time>
      </trkpt>
      <trkpt lat="43.79963" lon="6.8391">
        <ele>1164.6</ele>
        <time>2026-05-16T12:51:40Z</time>
      </trkpt>
      <trkpt lat="43.79948" lon="6.83917">
        <ele>1164.9</ele>
        <time>2026-05-16T12:51:41Z</time>
      </trkpt>
      <trkpt lat="43.79931" lon="6.83921">
        <ele>1165.4</ele>
        <time>2026-05-16T12:51:42Z</time>
      </trkpt>
      <trkpt lat="43.79913" lon="6.83922">
        <ele>1165.9</ele>
        <time>2026-05-16T12:51:43Z</time>
      </trkpt>
      <trkpt lat="43.79896" lon="6.83922">
        <ele>1166.6</ele>
        <time>2026-05-16T12:51:44Z</time>
      </trkpt>
      <trkpt lat="43.79878" lon="6.8392">
        <ele>1166.9</ele>
        <time>2026-05-16T12:51:45Z</time>
      </trkpt>
      <trkpt lat="43.7986" lon="6.83919">
        <ele>1167</ele>
        <time>2026-05-16T12:51:46Z</time>
      </trkpt>
      <trkpt lat="43.79841" lon="6.83919">
        <ele>1167.6</ele>
        <time>2026-05-16T12:51:47Z</time>
      </trkpt>
      <trkpt lat="43.79822" lon="6.83918">
        <ele>1168</ele>
        <time>2026-05-16T12:51:48Z</time>
      </trkpt>
      <trkpt lat="43.79803" lon="6.83917">
        <ele>1168</ele>
        <time>2026-05-16T12:51:49Z</time>
      </trkpt>
      <trkpt lat="43.79783" lon="6.83917">
        <ele>1168</ele>
        <time>2026-05-16T12:51:50Z</time>
      </trkpt>
      <trkpt lat="43.79764" lon="6.83918">
        <ele>1168</ele>
        <time>2026-05-16T12:51:51Z</time>
      </trkpt>
      <trkpt lat="43.79745" lon="6.83922">
        <ele>1168</ele>
        <time>2026-05-16T12:51:52Z</time>
      </trkpt>
      <trkpt lat="43.79725" lon="6.83927">
        <ele>1168.5</ele>
        <time>2026-05-16T12:51:53Z</time>
      </trkpt>
      <trkpt lat="43.79706" lon="6.83933">
        <ele>1168.8</ele>
        <time>2026-05-16T12:51:54Z</time>
      </trkpt>
      <trkpt lat="43.79687" lon="6.8394">
        <ele>1169.3</ele>
        <time>2026-05-16T12:51:55Z</time>
      </trkpt>
      <trkpt lat="43.79667" lon="6.83946">
        <ele>1169.9</ele>
        <time>2026-05-16T12:51:56Z</time>
      </trkpt>
      <trkpt lat="43.79647" lon="6.83953">
        <ele>1170.4</ele>
        <time>2026-05-16T12:51:57Z</time>
      </trkpt>
      <trkpt lat="43.79627" lon="6.83961">
        <ele>1170.8</ele>
        <time>2026-05-16T12:51:58Z</time>
      </trkpt>
      <trkpt lat="43.79607" lon="6.8397">
        <ele>1171.4</ele>
        <time>2026-05-16T12:51:59Z</time>
      </trkpt>
      <trkpt lat="43.79589" lon="6.83984">
        <ele>1172.3</ele>
        <time>2026-05-16T12:52:00Z</time>
      </trkpt>
      <trkpt lat="43.79572" lon="6.84">
        <ele>1173.6</ele>
        <time>2026-05-16T12:52:01Z</time>
      </trkpt>
      <trkpt lat="43.79556" lon="6.84017">
        <ele>1174.7</ele>
        <time>2026-05-16T12:52:02Z</time>
      </trkpt>
      <trkpt lat="43.7954" lon="6.84033">
        <ele>1176.6</ele>
        <time>2026-05-16T12:52:03Z</time>
      </trkpt>
      <trkpt lat="43.79525" lon="6.8405">
        <ele>1178.9</ele>
        <time>2026-05-16T12:52:04Z</time>
      </trkpt>
      <trkpt lat="43.79513" lon="6.84071">
        <ele>1181.2</ele>
        <time>2026-05-16T12:52:05Z</time>
      </trkpt>
      <trkpt lat="43.79504" lon="6.84094">
        <ele>1182.2</ele>
        <time>2026-05-16T12:52:06Z</time>
      </trkpt>
      <trkpt lat="43.79494" lon="6.84115">
        <ele>1183.4</ele>
        <time>2026-05-16T12:52:07Z</time>
      </trkpt>
      <trkpt lat="43.79484" lon="6.84136">
        <ele>1183.8</ele>
        <time>2026-05-16T12:52:08Z</time>
      </trkpt>
      <trkpt lat="43.79471" lon="6.84154">
        <ele>1184.7</ele>
        <time>2026-05-16T12:52:09Z</time>
      </trkpt>
      <trkpt lat="43.79458" lon="6.8417">
        <ele>1186.2</ele>
        <time>2026-05-16T12:52:10Z</time>
      </trkpt>
      <trkpt lat="43.79445" lon="6.84186">
        <ele>1187.1</ele>
        <time>2026-05-16T12:52:11Z</time>
      </trkpt>
      <trkpt lat="43.79432" lon="6.842">
        <ele>1189</ele>
        <time>2026-05-16T12:52:12Z</time>
      </trkpt>
      <trkpt lat="43.7942" lon="6.84216">
        <ele>1190.1</ele>
        <time>2026-05-16T12:52:13Z</time>
      </trkpt>
      <trkpt lat="43.7941" lon="6.84233">
        <ele>1190.7</ele>
        <time>2026-05-16T12:52:14Z</time>
      </trkpt>
      <trkpt lat="43.79399" lon="6.84249">
        <ele>1191.6</ele>
        <time>2026-05-16T12:52:15Z</time>
      </trkpt>
      <trkpt lat="43.79388" lon="6.84266">
        <ele>1192.5</ele>
        <time>2026-05-16T12:52:16Z</time>
      </trkpt>
      <trkpt lat="43.79378" lon="6.84284">
        <ele>1193.1</ele>
        <time>2026-05-16T12:52:17Z</time>
      </trkpt>
      <trkpt lat="43.79367" lon="6.843">
        <ele>1194.1</ele>
        <time>2026-05-16T12:52:18Z</time>
      </trkpt>
      <trkpt lat="43.79356" lon="6.84316">
        <ele>1195.4</ele>
        <time>2026-05-16T12:52:19Z</time>
      </trkpt>
      <trkpt lat="43.79345" lon="6.84333">
        <ele>1196.1</ele>
        <time>2026-05-16T12:52:20Z</time>
      </trkpt>
      <trkpt lat="43.79333" lon="6.84349">
        <ele>1196.8</ele>
        <time>2026-05-16T12:52:21Z</time>
      </trkpt>
      <trkpt lat="43.7932" lon="6.84363">
        <ele>1198</ele>
        <time>2026-05-16T12:52:22Z</time>
      </trkpt>
      <trkpt lat="43.79305" lon="6.84375">
        <ele>1199.7</ele>
        <time>2026-05-16T12:52:23Z</time>
      </trkpt>
      <trkpt lat="43.79289" lon="6.84384">
        <ele>1202.3</ele>
        <time>2026-05-16T12:52:24Z</time>
      </trkpt>
      <trkpt lat="43.79273" lon="6.84393">
        <ele>1204.6</ele>
        <time>2026-05-16T12:52:25Z</time>
      </trkpt>
      <trkpt lat="43.79257" lon="6.84405">
        <ele>1206.8</ele>
        <time>2026-05-16T12:52:26Z</time>
      </trkpt>
      <trkpt lat="43.79243" lon="6.8442">
        <ele>1208.1</ele>
        <time>2026-05-16T12:52:27Z</time>
      </trkpt>
      <trkpt lat="43.7923" lon="6.84436">
        <ele>1209.9</ele>
        <time>2026-05-16T12:52:28Z</time>
      </trkpt>
      <trkpt lat="43.79216" lon="6.84452">
        <ele>1211.6</ele>
        <time>2026-05-16T12:52:29Z</time>
      </trkpt>
      <trkpt lat="43.79201" lon="6.84464">
        <ele>1214.4</ele>
        <time>2026-05-16T12:52:30Z</time>
      </trkpt>
      <trkpt lat="43.79187" lon="6.84478">
        <ele>1215.7</ele>
        <time>2026-05-16T12:52:31Z</time>
      </trkpt>
      <trkpt lat="43.79173" lon="6.84493">
        <ele>1216.5</ele>
        <time>2026-05-16T12:52:32Z</time>
      </trkpt>
      <trkpt lat="43.79159" lon="6.84508">
        <ele>1217.5</ele>
        <time>2026-05-16T12:52:33Z</time>
      </trkpt>
      <trkpt lat="43.79146" lon="6.84524">
        <ele>1217.6</ele>
        <time>2026-05-16T12:52:34Z</time>
      </trkpt>
      <trkpt lat="43.79134" lon="6.8454">
        <ele>1218.9</ele>
        <time>2026-05-16T12:52:35Z</time>
      </trkpt>
      <trkpt lat="43.79122" lon="6.84557">
        <ele>1221.2</ele>
        <time>2026-05-16T12:52:36Z</time>
      </trkpt>
      <trkpt lat="43.79111" lon="6.84575">
        <ele>1222.2</ele>
        <time>2026-05-16T12:52:37Z</time>
      </trkpt>
      <trkpt lat="43.79101" lon="6.84594">
        <ele>1223.4</ele>
        <time>2026-05-16T12:52:38Z</time>
      </trkpt>
      <trkpt lat="43.79093" lon="6.84613">
        <ele>1222.2</ele>
        <time>2026-05-16T12:52:39Z</time>
      </trkpt>
      <trkpt lat="43.79086" lon="6.84629">
        <ele>1220.8</ele>
        <time>2026-05-16T12:52:40Z</time>
      </trkpt>
      <trkpt lat="43.79077" lon="6.84641">
        <ele>1221.3</ele>
        <time>2026-05-16T12:52:41Z</time>
      </trkpt>
      <trkpt lat="43.79067" lon="6.8465">
        <ele>1222.8</ele>
        <time>2026-05-16T12:52:42Z</time>
      </trkpt>
      <trkpt lat="43.79056" lon="6.84657">
        <ele>1225.3</ele>
        <time>2026-05-16T12:52:43Z</time>
      </trkpt>
      <trkpt lat="43.79046" lon="6.84665">
        <ele>1225.7</ele>
        <time>2026-05-16T12:52:44Z</time>
      </trkpt>
      <trkpt lat="43.79036" lon="6.84672">
        <ele>1226.7</ele>
        <time>2026-05-16T12:52:45Z</time>
      </trkpt>
      <trkpt lat="43.79025" lon="6.8468">
        <ele>1228.2</ele>
        <time>2026-05-16T12:52:46Z</time>
      </trkpt>
      <trkpt lat="43.79014" lon="6.84687">
        <ele>1230.1</ele>
        <time>2026-05-16T12:52:47Z</time>
      </trkpt>
      <trkpt lat="43.79003" lon="6.84695">
        <ele>1231.7</ele>
        <time>2026-05-16T12:52:48Z</time>
      </trkpt>
      <trkpt lat="43.78992" lon="6.84703">
        <ele>1232.4</ele>
        <time>2026-05-16T12:52:49Z</time>
      </trkpt>
      <trkpt lat="43.78981" lon="6.84713">
        <ele>1232</ele>
        <time>2026-05-16T12:52:50Z</time>
      </trkpt>
      <trkpt lat="43.78971" lon="6.84723">
        <ele>1231.1</ele>
        <time>2026-05-16T12:52:51Z</time>
      </trkpt>
      <trkpt lat="43.7896" lon="6.84731">
        <ele>1232</ele>
        <time>2026-05-16T12:52:52Z</time>
      </trkpt>
      <trkpt lat="43.78948" lon="6.84738">
        <ele>1233.2</ele>
        <time>2026-05-16T12:52:53Z</time>
      </trkpt>
      <trkpt lat="43.78937" lon="6.84743">
        <ele>1234.1</ele>
        <time>2026-05-16T12:52:54Z</time>
      </trkpt>
      <trkpt lat="43.78925" lon="6.84748">
        <ele>1234.9</ele>
        <time>2026-05-16T12:52:55Z</time>
      </trkpt>
      <trkpt lat="43.78912" lon="6.84751">
        <ele>1236</ele>
        <time>2026-05-16T12:52:56Z</time>
      </trkpt>
      <trkpt lat="43.789" lon="6.84753">
        <ele>1236.2</ele>
        <time>2026-05-16T12:52:57Z</time>
      </trkpt>
      <trkpt lat="43.78886" lon="6.84753">
        <ele>1237</ele>
        <time>2026-05-16T12:52:58Z</time>
      </trkpt>
      <trkpt lat="43.78873" lon="6.8475">
        <ele>1238.6</ele>
        <time>2026-05-16T12:52:59Z</time>
      </trkpt>
      <trkpt lat="43.7886" lon="6.84746">
        <ele>1240.2</ele>
        <time>2026-05-16T12:53:00Z</time>
      </trkpt>
      <trkpt lat="43.78847" lon="6.84741">
        <ele>1240.4</ele>
        <time>2026-05-16T12:53:01Z</time>
      </trkpt>
      <trkpt lat="43.78835" lon="6.84733">
        <ele>1241.7</ele>
        <time>2026-05-16T12:53:02Z</time>
      </trkpt>
      <trkpt lat="43.78824" lon="6.84724">
        <ele>1243.1</ele>
        <time>2026-05-16T12:53:03Z</time>
      </trkpt>
      <trkpt lat="43.78814" lon="6.84716">
        <ele>1244</ele>
        <time>2026-05-16T12:53:04Z</time>
      </trkpt>
      <trkpt lat="43.78803" lon="6.84709">
        <ele>1244.5</ele>
        <time>2026-05-16T12:53:05Z</time>
      </trkpt>
      <trkpt lat="43.78794" lon="6.84703">
        <ele>1245</ele>
        <time>2026-05-16T12:53:06Z</time>
      </trkpt>
      <trkpt lat="43.78786" lon="6.84698">
        <ele>1245.3</ele>
        <time>2026-05-16T12:53:07Z</time>
      </trkpt>
      <trkpt lat="43.78779" lon="6.84692">
        <ele>1245.6</ele>
        <time>2026-05-16T12:53:08Z</time>
      </trkpt>
      <trkpt lat="43.78774" lon="6.84684">
        <ele>1246.4</ele>
        <time>2026-05-16T12:53:09Z</time>
      </trkpt>
      <trkpt lat="43.78769" lon="6.84673">
        <ele>1247.7</ele>
        <time>2026-05-16T12:53:10Z</time>
      </trkpt>
      <trkpt lat="43.78767" lon="6.84661">
        <ele>1248.6</ele>
        <time>2026-05-16T12:53:11Z</time>
      </trkpt>
      <trkpt lat="43.78766" lon="6.84649">
        <ele>1248.7</ele>
        <time>2026-05-16T12:53:12Z</time>
      </trkpt>
      <trkpt lat="43.78767" lon="6.84636">
        <ele>1248.9</ele>
        <time>2026-05-16T12:53:13Z</time>
      </trkpt>
      <trkpt lat="43.78771" lon="6.84623">
        <ele>1248.9</ele>
        <time>2026-05-16T12:53:14Z</time>
      </trkpt>
      <trkpt lat="43.78777" lon="6.8461">
        <ele>1249.7</ele>
        <time>2026-05-16T12:53:15Z</time>
      </trkpt>
      <trkpt lat="43.78784" lon="6.84595">
        <ele>1250.1</ele>
        <time>2026-05-16T12:53:16Z</time>
      </trkpt>
      <trkpt lat="43.78791" lon="6.84577">
        <ele>1250.8</ele>
        <time>2026-05-16T12:53:17Z</time>
      </trkpt>
      <trkpt lat="43.78796" lon="6.84557">
        <ele>1251.3</ele>
        <time>2026-05-16T12:53:18Z</time>
      </trkpt>
      <trkpt lat="43.78801" lon="6.84539">
        <ele>1252</ele>
        <time>2026-05-16T12:53:19Z</time>
      </trkpt>
      <trkpt lat="43.78805" lon="6.8452">
        <ele>1252.2</ele>
        <time>2026-05-16T12:53:20Z</time>
      </trkpt>
      <trkpt lat="43.78807" lon="6.84502">
        <ele>1251.8</ele>
        <time>2026-05-16T12:53:21Z</time>
      </trkpt>
      <trkpt lat="43.78808" lon="6.84484">
        <ele>1251.5</ele>
        <time>2026-05-16T12:53:22Z</time>
      </trkpt>
      <trkpt lat="43.78808" lon="6.84466">
        <ele>1250.6</ele>
        <time>2026-05-16T12:53:23Z</time>
      </trkpt>
      <trkpt lat="43.78808" lon="6.84449">
        <ele>1249.5</ele>
        <time>2026-05-16T12:53:24Z</time>
      </trkpt>
      <trkpt lat="43.78808" lon="6.84432">
        <ele>1248.7</ele>
        <time>2026-05-16T12:53:25Z</time>
      </trkpt>
      <trkpt lat="43.78809" lon="6.84415">
        <ele>1248.7</ele>
        <time>2026-05-16T12:53:26Z</time>
      </trkpt>
      <trkpt lat="43.78809" lon="6.84399">
        <ele>1248.7</ele>
        <time>2026-05-16T12:53:27Z</time>
      </trkpt>
      <trkpt lat="43.7881" lon="6.84383">
        <ele>1249</ele>
        <time>2026-05-16T12:53:28Z</time>
      </trkpt>
      <trkpt lat="43.7881" lon="6.84368">
        <ele>1249</ele>
        <time>2026-05-16T12:53:29Z</time>
      </trkpt>
      <trkpt lat="43.7881" lon="6.84353">
        <ele>1248.6</ele>
        <time>2026-05-16T12:53:30Z</time>
      </trkpt>
      <trkpt lat="43.78811" lon="6.84339">
        <ele>1248.6</ele>
        <time>2026-05-16T12:53:31Z</time>
      </trkpt>
      <trkpt lat="43.78811" lon="6.84324">
        <ele>1248</ele>
        <time>2026-05-16T12:53:32Z</time>
      </trkpt>
      <trkpt lat="43.78811" lon="6.8431">
        <ele>1247.5</ele>
        <time>2026-05-16T12:53:33Z</time>
      </trkpt>
      <trkpt lat="43.78811" lon="6.84296">
        <ele>1247</ele>
        <time>2026-05-16T12:53:34Z</time>
      </trkpt>
      <trkpt lat="43.78811" lon="6.84282">
        <ele>1246.5</ele>
        <time>2026-05-16T12:53:35Z</time>
      </trkpt>
      <trkpt lat="43.7881" lon="6.84268">
        <ele>1246.2</ele>
        <time>2026-05-16T12:53:36Z</time>
      </trkpt>
      <trkpt lat="43.78808" lon="6.84254">
        <ele>1245.8</ele>
        <time>2026-05-16T12:53:37Z</time>
      </trkpt>
      <trkpt lat="43.78806" lon="6.8424">
        <ele>1245.5</ele>
        <time>2026-05-16T12:53:38Z</time>
      </trkpt>
      <trkpt lat="43.78802" lon="6.84224">
        <ele>1245.3</ele>
        <time>2026-05-16T12:53:39Z</time>
      </trkpt>
      <trkpt lat="43.78798" lon="6.8421">
        <ele>1245.6</ele>
        <time>2026-05-16T12:53:40Z</time>
      </trkpt>
      <trkpt lat="43.78792" lon="6.84196">
        <ele>1245.9</ele>
        <time>2026-05-16T12:53:41Z</time>
      </trkpt>
      <trkpt lat="43.78787" lon="6.84183">
        <ele>1245.7</ele>
        <time>2026-05-16T12:53:42Z</time>
      </trkpt>
      <trkpt lat="43.78782" lon="6.84169">
        <ele>1245.5</ele>
        <time>2026-05-16T12:53:43Z</time>
      </trkpt>
      <trkpt lat="43.78779" lon="6.84155">
        <ele>1244.4</ele>
        <time>2026-05-16T12:53:44Z</time>
      </trkpt>
      <trkpt lat="43.78776" lon="6.84139">
        <ele>1242.5</ele>
        <time>2026-05-16T12:53:45Z</time>
      </trkpt>
      <trkpt lat="43.78775" lon="6.84123">
        <ele>1240.7</ele>
        <time>2026-05-16T12:53:46Z</time>
      </trkpt>
      <trkpt lat="43.78774" lon="6.84108">
        <ele>1238.8</ele>
        <time>2026-05-16T12:53:47Z</time>
      </trkpt>
      <trkpt lat="43.78773" lon="6.84092">
        <ele>1237.4</ele>
        <time>2026-05-16T12:53:48Z</time>
      </trkpt>
      <trkpt lat="43.78772" lon="6.84077">
        <ele>1236.3</ele>
        <time>2026-05-16T12:53:49Z</time>
      </trkpt>
      <trkpt lat="43.7877" lon="6.84062">
        <ele>1235.2</ele>
        <time>2026-05-16T12:53:50Z</time>
      </trkpt>
      <trkpt lat="43.78769" lon="6.84048">
        <ele>1234.5</ele>
        <time>2026-05-16T12:53:51Z</time>
      </trkpt>
      <trkpt lat="43.78769" lon="6.84035">
        <ele>1234.4</ele>
        <time>2026-05-16T12:53:52Z</time>
      </trkpt>
      <trkpt lat="43.78771" lon="6.84023">
        <ele>1234.8</ele>
        <time>2026-05-16T12:53:53Z</time>
      </trkpt>
      <trkpt lat="43.78773" lon="6.8401">
        <ele>1234.5</ele>
        <time>2026-05-16T12:53:54Z</time>
      </trkpt>
      <trkpt lat="43.78776" lon="6.83998">
        <ele>1234.9</ele>
        <time>2026-05-16T12:53:55Z</time>
      </trkpt>
      <trkpt lat="43.78778" lon="6.83984">
        <ele>1234.9</ele>
        <time>2026-05-16T12:53:56Z</time>
      </trkpt>
      <trkpt lat="43.7878" lon="6.83968">
        <ele>1234.9</ele>
        <time>2026-05-16T12:53:57Z</time>
      </trkpt>
      <trkpt lat="43.7878" lon="6.83951">
        <ele>1234.3</ele>
        <time>2026-05-16T12:53:58Z</time>
      </trkpt>
      <trkpt lat="43.78779" lon="6.83933">
        <ele>1233.6</ele>
        <time>2026-05-16T12:53:59Z</time>
      </trkpt>
      <trkpt lat="43.78779" lon="6.83912">
        <ele>1233.5</ele>
        <time>2026-05-16T12:54:00Z</time>
      </trkpt>
      <trkpt lat="43.78778" lon="6.8389">
        <ele>1232.2</ele>
        <time>2026-05-16T12:54:01Z</time>
      </trkpt>
      <trkpt lat="43.78777" lon="6.83868">
        <ele>1231.6</ele>
        <time>2026-05-16T12:54:02Z</time>
      </trkpt>
      <trkpt lat="43.78776" lon="6.83845">
        <ele>1231</ele>
        <time>2026-05-16T12:54:03Z</time>
      </trkpt>
      <trkpt lat="43.78774" lon="6.83823">
        <ele>1230</ele>
        <time>2026-05-16T12:54:04Z</time>
      </trkpt>
      <trkpt lat="43.78771" lon="6.83801">
        <ele>1229</ele>
        <time>2026-05-16T12:54:05Z</time>
      </trkpt>
      <trkpt lat="43.78766" lon="6.8378">
        <ele>1228</ele>
        <time>2026-05-16T12:54:06Z</time>
      </trkpt>
      <trkpt lat="43.78759" lon="6.8376">
        <ele>1226.3</ele>
        <time>2026-05-16T12:54:07Z</time>
      </trkpt>
      <trkpt lat="43.78752" lon="6.83741">
        <ele>1224.8</ele>
        <time>2026-05-16T12:54:08Z</time>
      </trkpt>
      <trkpt lat="43.78745" lon="6.83722">
        <ele>1223.8</ele>
        <time>2026-05-16T12:54:09Z</time>
      </trkpt>
      <trkpt lat="43.78741" lon="6.83702">
        <ele>1223.4</ele>
        <time>2026-05-16T12:54:10Z</time>
      </trkpt>
      <trkpt lat="43.78738" lon="6.83682">
        <ele>1222.7</ele>
        <time>2026-05-16T12:54:11Z</time>
      </trkpt>
      <trkpt lat="43.78735" lon="6.83661">
        <ele>1221.4</ele>
        <time>2026-05-16T12:54:12Z</time>
      </trkpt>
      <trkpt lat="43.78732" lon="6.8364">
        <ele>1220</ele>
        <time>2026-05-16T12:54:13Z</time>
      </trkpt>
      <trkpt lat="43.78729" lon="6.83619">
        <ele>1218.6</ele>
        <time>2026-05-16T12:54:14Z</time>
      </trkpt>
      <trkpt lat="43.78725" lon="6.83598">
        <ele>1216.4</ele>
        <time>2026-05-16T12:54:15Z</time>
      </trkpt>
      <trkpt lat="43.78721" lon="6.83578">
        <ele>1214.8</ele>
        <time>2026-05-16T12:54:16Z</time>
      </trkpt>
      <trkpt lat="43.78716" lon="6.83558">
        <ele>1213.7</ele>
        <time>2026-05-16T12:54:17Z</time>
      </trkpt>
      <trkpt lat="43.7871" lon="6.83538">
        <ele>1212.8</ele>
        <time>2026-05-16T12:54:18Z</time>
      </trkpt>
      <trkpt lat="43.78704" lon="6.83518">
        <ele>1212.3</ele>
        <time>2026-05-16T12:54:19Z</time>
      </trkpt>
      <trkpt lat="43.78698" lon="6.835">
        <ele>1211.4</ele>
        <time>2026-05-16T12:54:20Z</time>
      </trkpt>
      <trkpt lat="43.78692" lon="6.83484">
        <ele>1219.4</ele>
        <time>2026-05-16T12:54:21Z</time>
      </trkpt>
      <trkpt lat="43.78684" lon="6.83471">
        <ele>1222.2</ele>
        <time>2026-05-16T12:54:22Z</time>
      </trkpt>
      <trkpt lat="43.78673" lon="6.83462">
        <ele>1217.6</ele>
        <time>2026-05-16T12:54:23Z</time>
      </trkpt>
      <trkpt lat="43.78661" lon="6.83454">
        <ele>1213</ele>
        <time>2026-05-16T12:54:24Z</time>
      </trkpt>
      <trkpt lat="43.78646" lon="6.83449">
        <ele>1210.2</ele>
        <time>2026-05-16T12:54:25Z</time>
      </trkpt>
      <trkpt lat="43.78632" lon="6.83444">
        <ele>1209</ele>
        <time>2026-05-16T12:54:26Z</time>
      </trkpt>
      <trkpt lat="43.78617" lon="6.83438">
        <ele>1208.6</ele>
        <time>2026-05-16T12:54:27Z</time>
      </trkpt>
      <trkpt lat="43.78602" lon="6.83432">
        <ele>1207.1</ele>
        <time>2026-05-16T12:54:28Z</time>
      </trkpt>
      <trkpt lat="43.78585" lon="6.83426">
        <ele>1204.1</ele>
        <time>2026-05-16T12:54:29Z</time>
      </trkpt>
      <trkpt lat="43.78569" lon="6.83419">
        <ele>1202.9</ele>
        <time>2026-05-16T12:54:30Z</time>
      </trkpt>
      <trkpt lat="43.78553" lon="6.83413">
        <ele>1201.4</ele>
        <time>2026-05-16T12:54:31Z</time>
      </trkpt>
      <trkpt lat="43.78538" lon="6.83405">
        <ele>1200.5</ele>
        <time>2026-05-16T12:54:32Z</time>
      </trkpt>
      <trkpt lat="43.78525" lon="6.83397">
        <ele>1199.4</ele>
        <time>2026-05-16T12:54:33Z</time>
      </trkpt>
      <trkpt lat="43.78513" lon="6.83386">
        <ele>1198.9</ele>
        <time>2026-05-16T12:54:34Z</time>
      </trkpt>
      <trkpt lat="43.78501" lon="6.83373">
        <ele>1198.5</ele>
        <time>2026-05-16T12:54:35Z</time>
      </trkpt>
      <trkpt lat="43.7849" lon="6.8336">
        <ele>1198.4</ele>
        <time>2026-05-16T12:54:36Z</time>
      </trkpt>
      <trkpt lat="43.78478" lon="6.83345">
        <ele>1198</ele>
        <time>2026-05-16T12:54:37Z</time>
      </trkpt>
      <trkpt lat="43.78465" lon="6.83329">
        <ele>1196.1</ele>
        <time>2026-05-16T12:54:38Z</time>
      </trkpt>
      <trkpt lat="43.78451" lon="6.83312">
        <ele>1194.6</ele>
        <time>2026-05-16T12:54:39Z</time>
      </trkpt>
      <trkpt lat="43.78437" lon="6.83295">
        <ele>1193.3</ele>
        <time>2026-05-16T12:54:40Z</time>
      </trkpt>
      <trkpt lat="43.78423" lon="6.83278">
        <ele>1192</ele>
        <time>2026-05-16T12:54:41Z</time>
      </trkpt>
      <trkpt lat="43.78409" lon="6.8326">
        <ele>1191</ele>
        <time>2026-05-16T12:54:42Z</time>
      </trkpt>
      <trkpt lat="43.78395" lon="6.83241">
        <ele>1190.2</ele>
        <time>2026-05-16T12:54:43Z</time>
      </trkpt>
      <trkpt lat="43.78382" lon="6.83223">
        <ele>1188.7</ele>
        <time>2026-05-16T12:54:44Z</time>
      </trkpt>
      <trkpt lat="43.78369" lon="6.83206">
        <ele>1187.5</ele>
        <time>2026-05-16T12:54:45Z</time>
      </trkpt>
      <trkpt lat="43.78355" lon="6.83189">
        <ele>1186</ele>
        <time>2026-05-16T12:54:46Z</time>
      </trkpt>
      <trkpt lat="43.78343" lon="6.83172">
        <ele>1185.7</ele>
        <time>2026-05-16T12:54:47Z</time>
      </trkpt>
      <trkpt lat="43.7833" lon="6.83156">
        <ele>1185</ele>
        <time>2026-05-16T12:54:48Z</time>
      </trkpt>
      <trkpt lat="43.78317" lon="6.8314">
        <ele>1184.1</ele>
        <time>2026-05-16T12:54:49Z</time>
      </trkpt>
      <trkpt lat="43.78304" lon="6.83125">
        <ele>1183</ele>
        <time>2026-05-16T12:54:50Z</time>
      </trkpt>
      <trkpt lat="43.78292" lon="6.83109">
        <ele>1181.9</ele>
        <time>2026-05-16T12:54:51Z</time>
      </trkpt>
      <trkpt lat="43.78282" lon="6.83092">
        <ele>1181</ele>
        <time>2026-05-16T12:54:52Z</time>
      </trkpt>
      <trkpt lat="43.78274" lon="6.83073">
        <ele>1180.6</ele>
        <time>2026-05-16T12:54:53Z</time>
      </trkpt>
      <trkpt lat="43.78268" lon="6.83057">
        <ele>1180.1</ele>
        <time>2026-05-16T12:54:54Z</time>
      </trkpt>
      <trkpt lat="43.78262" lon="6.83046">
        <ele>1180.2</ele>
        <time>2026-05-16T12:54:55Z</time>
      </trkpt>
      <trkpt lat="43.78254" lon="6.83037">
        <ele>1179.5</ele>
        <time>2026-05-16T12:54:56Z</time>
      </trkpt>
      <trkpt lat="43.78245" lon="6.83031">
        <ele>1178.5</ele>
        <time>2026-05-16T12:54:57Z</time>
      </trkpt>
      <trkpt lat="43.78235" lon="6.83027">
        <ele>1177.6</ele>
        <time>2026-05-16T12:54:58Z</time>
      </trkpt>
      <trkpt lat="43.78224" lon="6.83024">
        <ele>1176.5</ele>
        <time>2026-05-16T12:54:59Z</time>
      </trkpt>
      <trkpt lat="43.78213" lon="6.83019">
        <ele>1175.9</ele>
        <time>2026-05-16T12:55:00Z</time>
      </trkpt>
      <trkpt lat="43.78201" lon="6.83012">
        <ele>1175</ele>
        <time>2026-05-16T12:55:01Z</time>
      </trkpt>
      <trkpt lat="43.7819" lon="6.83002">
        <ele>1174.8</ele>
        <time>2026-05-16T12:55:02Z</time>
      </trkpt>
      <trkpt lat="43.78181" lon="6.82988">
        <ele>1174.9</ele>
        <time>2026-05-16T12:55:03Z</time>
      </trkpt>
      <trkpt lat="43.78174" lon="6.82972">
        <ele>1174.4</ele>
        <time>2026-05-16T12:55:04Z</time>
      </trkpt>
      <trkpt lat="43.78169" lon="6.82953">
        <ele>1174.3</ele>
        <time>2026-05-16T12:55:05Z</time>
      </trkpt>
      <trkpt lat="43.78166" lon="6.82933">
        <ele>1174.2</ele>
        <time>2026-05-16T12:55:06Z</time>
      </trkpt>
      <trkpt lat="43.78163" lon="6.82913">
        <ele>1173.5</ele>
        <time>2026-05-16T12:55:07Z</time>
      </trkpt>
      <trkpt lat="43.78161" lon="6.82893">
        <ele>1172.6</ele>
        <time>2026-05-16T12:55:08Z</time>
      </trkpt>
      <trkpt lat="43.78159" lon="6.82872">
        <ele>1172.4</ele>
        <time>2026-05-16T12:55:09Z</time>
      </trkpt>
      <trkpt lat="43.78156" lon="6.82852">
        <ele>1171.6</ele>
        <time>2026-05-16T12:55:10Z</time>
      </trkpt>
      <trkpt lat="43.78154" lon="6.82832">
        <ele>1171.2</ele>
        <time>2026-05-16T12:55:11Z</time>
      </trkpt>
      <trkpt lat="43.78152" lon="6.82812">
        <ele>1171.3</ele>
        <time>2026-05-16T12:55:12Z</time>
      </trkpt>
      <trkpt lat="43.78148" lon="6.82794">
        <ele>1170.8</ele>
        <time>2026-05-16T12:55:13Z</time>
      </trkpt>
      <trkpt lat="43.7814" lon="6.82778">
        <ele>1169.4</ele>
        <time>2026-05-16T12:55:14Z</time>
      </trkpt>
      <trkpt lat="43.7813" lon="6.82766">
        <ele>1167.8</ele>
        <time>2026-05-16T12:55:15Z</time>
      </trkpt>
      <trkpt lat="43.78119" lon="6.82755">
        <ele>1165.8</ele>
        <time>2026-05-16T12:55:16Z</time>
      </trkpt>
      <trkpt lat="43.78108" lon="6.82745">
        <ele>1163.9</ele>
        <time>2026-05-16T12:55:17Z</time>
      </trkpt>
      <trkpt lat="43.78098" lon="6.82734">
        <ele>1162.7</ele>
        <time>2026-05-16T12:55:18Z</time>
      </trkpt>
      <trkpt lat="43.78089" lon="6.82721">
        <ele>1161.7</ele>
        <time>2026-05-16T12:55:19Z</time>
      </trkpt>
      <trkpt lat="43.78083" lon="6.82705">
        <ele>1161.1</ele>
        <time>2026-05-16T12:55:20Z</time>
      </trkpt>
      <trkpt lat="43.78078" lon="6.82687">
        <ele>1160.6</ele>
        <time>2026-05-16T12:55:21Z</time>
      </trkpt>
      <trkpt lat="43.78074" lon="6.82669">
        <ele>1160.5</ele>
        <time>2026-05-16T12:55:22Z</time>
      </trkpt>
      <trkpt lat="43.78069" lon="6.82651">
        <ele>1160.8</ele>
        <time>2026-05-16T12:55:23Z</time>
      </trkpt>
      <trkpt lat="43.78062" lon="6.82633">
        <ele>1160.4</ele>
        <time>2026-05-16T12:55:24Z</time>
      </trkpt>
      <trkpt lat="43.78053" lon="6.82616">
        <ele>1159.4</ele>
        <time>2026-05-16T12:55:25Z</time>
      </trkpt>
      <trkpt lat="43.78043" lon="6.82599">
        <ele>1158.5</ele>
        <time>2026-05-16T12:55:26Z</time>
      </trkpt>
      <trkpt lat="43.78032" lon="6.82582">
        <ele>1156.8</ele>
        <time>2026-05-16T12:55:27Z</time>
      </trkpt>
      <trkpt lat="43.78022" lon="6.82564">
        <ele>1155.4</ele>
        <time>2026-05-16T12:55:28Z</time>
      </trkpt>
      <trkpt lat="43.78013" lon="6.82545">
        <ele>1154.7</ele>
        <time>2026-05-16T12:55:29Z</time>
      </trkpt>
      <trkpt lat="43.78006" lon="6.82524">
        <ele>1154.1</ele>
        <time>2026-05-16T12:55:30Z</time>
      </trkpt>
      <trkpt lat="43.78001" lon="6.82502">
        <ele>1153.3</ele>
        <time>2026-05-16T12:55:31Z</time>
      </trkpt>
      <trkpt lat="43.77997" lon="6.8248">
        <ele>1152.4</ele>
        <time>2026-05-16T12:55:32Z</time>
      </trkpt>
      <trkpt lat="43.77994" lon="6.82458">
        <ele>1151.7</ele>
        <time>2026-05-16T12:55:33Z</time>
      </trkpt>
      <trkpt lat="43.77989" lon="6.82437">
        <ele>1150.6</ele>
        <time>2026-05-16T12:55:34Z</time>
      </trkpt>
      <trkpt lat="43.77984" lon="6.82417">
        <ele>1149.5</ele>
        <time>2026-05-16T12:55:35Z</time>
      </trkpt>
      <trkpt lat="43.77978" lon="6.82397">
        <ele>1149.3</ele>
        <time>2026-05-16T12:55:36Z</time>
      </trkpt>
      <trkpt lat="43.77973" lon="6.82378">
        <ele>1148.6</ele>
        <time>2026-05-16T12:55:37Z</time>
      </trkpt>
      <trkpt lat="43.77967" lon="6.82359">
        <ele>1148</ele>
        <time>2026-05-16T12:55:38Z</time>
      </trkpt>
      <trkpt lat="43.77962" lon="6.82341">
        <ele>1147.8</ele>
        <time>2026-05-16T12:55:39Z</time>
      </trkpt>
      <trkpt lat="43.77955" lon="6.82325">
        <ele>1147.8</ele>
        <time>2026-05-16T12:55:40Z</time>
      </trkpt>
      <trkpt lat="43.77946" lon="6.82312">
        <ele>1147.6</ele>
        <time>2026-05-16T12:55:41Z</time>
      </trkpt>
      <trkpt lat="43.77935" lon="6.82304">
        <ele>1146.9</ele>
        <time>2026-05-16T12:55:42Z</time>
      </trkpt>
      <trkpt lat="43.77923" lon="6.823">
        <ele>1146</ele>
        <time>2026-05-16T12:55:43Z</time>
      </trkpt>
      <trkpt lat="43.77909" lon="6.823">
        <ele>1144.9</ele>
        <time>2026-05-16T12:55:44Z</time>
      </trkpt>
      <trkpt lat="43.77896" lon="6.82305">
        <ele>1143.4</ele>
        <time>2026-05-16T12:55:45Z</time>
      </trkpt>
      <trkpt lat="43.77881" lon="6.82312">
        <ele>1141.8</ele>
        <time>2026-05-16T12:55:46Z</time>
      </trkpt>
      <trkpt lat="43.77866" lon="6.8232">
        <ele>1140.4</ele>
        <time>2026-05-16T12:55:47Z</time>
      </trkpt>
      <trkpt lat="43.7785" lon="6.82327">
        <ele>1139.4</ele>
        <time>2026-05-16T12:55:48Z</time>
      </trkpt>
      <trkpt lat="43.77834" lon="6.82334">
        <ele>1138.9</ele>
        <time>2026-05-16T12:55:49Z</time>
      </trkpt>
      <trkpt lat="43.77819" lon="6.82341">
        <ele>1138</ele>
        <time>2026-05-16T12:55:50Z</time>
      </trkpt>
      <trkpt lat="43.77805" lon="6.82347">
        <ele>1137.5</ele>
        <time>2026-05-16T12:55:51Z</time>
      </trkpt>
      <trkpt lat="43.77792" lon="6.82348">
        <ele>1136.4</ele>
        <time>2026-05-16T12:55:52Z</time>
      </trkpt>
      <trkpt lat="43.7778" lon="6.82342">
        <ele>1136.2</ele>
        <time>2026-05-16T12:55:53Z</time>
      </trkpt>
      <trkpt lat="43.77771" lon="6.8233">
        <ele>1136</ele>
        <time>2026-05-16T12:55:54Z</time>
      </trkpt>
      <trkpt lat="43.77765" lon="6.82315">
        <ele>1135.7</ele>
        <time>2026-05-16T12:55:55Z</time>
      </trkpt>
      <trkpt lat="43.77761" lon="6.82299">
        <ele>1135.6</ele>
        <time>2026-05-16T12:55:56Z</time>
      </trkpt>
      <trkpt lat="43.77758" lon="6.8228">
        <ele>1135.3</ele>
        <time>2026-05-16T12:55:57Z</time>
      </trkpt>
      <trkpt lat="43.77757" lon="6.8226">
        <ele>1135.2</ele>
        <time>2026-05-16T12:55:58Z</time>
      </trkpt>
      <trkpt lat="43.77756" lon="6.8224">
        <ele>1134.7</ele>
        <time>2026-05-16T12:55:59Z</time>
      </trkpt>
      <trkpt lat="43.77755" lon="6.82219">
        <ele>1133.7</ele>
        <time>2026-05-16T12:56:00Z</time>
      </trkpt>
      <trkpt lat="43.77754" lon="6.82199">
        <ele>1132.6</ele>
        <time>2026-05-16T12:56:01Z</time>
      </trkpt>
      <trkpt lat="43.77753" lon="6.82179">
        <ele>1131</ele>
        <time>2026-05-16T12:56:02Z</time>
      </trkpt>
      <trkpt lat="43.77752" lon="6.82159">
        <ele>1129.2</ele>
        <time>2026-05-16T12:56:03Z</time>
      </trkpt>
      <trkpt lat="43.77752" lon="6.8214">
        <ele>1127.9</ele>
        <time>2026-05-16T12:56:04Z</time>
      </trkpt>
      <trkpt lat="43.77753" lon="6.82121">
        <ele>1126.3</ele>
        <time>2026-05-16T12:56:05Z</time>
      </trkpt>
      <trkpt lat="43.77757" lon="6.82102">
        <ele>1126.4</ele>
        <time>2026-05-16T12:56:06Z</time>
      </trkpt>
      <trkpt lat="43.77761" lon="6.82084">
        <ele>1126.8</ele>
        <time>2026-05-16T12:56:07Z</time>
      </trkpt>
      <trkpt lat="43.77763" lon="6.82066">
        <ele>1127</ele>
        <time>2026-05-16T12:56:08Z</time>
      </trkpt>
      <trkpt lat="43.77762" lon="6.82048">
        <ele>1126.3</ele>
        <time>2026-05-16T12:56:09Z</time>
      </trkpt>
      <trkpt lat="43.77758" lon="6.82032">
        <ele>1125.1</ele>
        <time>2026-05-16T12:56:10Z</time>
      </trkpt>
      <trkpt lat="43.7775" lon="6.82018">
        <ele>1123.1</ele>
        <time>2026-05-16T12:56:11Z</time>
      </trkpt>
      <trkpt lat="43.7774" lon="6.82006">
        <ele>1121.4</ele>
        <time>2026-05-16T12:56:12Z</time>
      </trkpt>
      <trkpt lat="43.77729" lon="6.81994">
        <ele>1119.8</ele>
        <time>2026-05-16T12:56:13Z</time>
      </trkpt>
      <trkpt lat="43.77719" lon="6.81981">
        <ele>1118.8</ele>
        <time>2026-05-16T12:56:14Z</time>
      </trkpt>
      <trkpt lat="43.77708" lon="6.81969">
        <ele>1117.3</ele>
        <time>2026-05-16T12:56:15Z</time>
      </trkpt>
      <trkpt lat="43.77698" lon="6.81956">
        <ele>1116.3</ele>
        <time>2026-05-16T12:56:16Z</time>
      </trkpt>
      <trkpt lat="43.77687" lon="6.81946">
        <ele>1115.2</ele>
        <time>2026-05-16T12:56:17Z</time>
      </trkpt>
      <trkpt lat="43.77675" lon="6.81936">
        <ele>1113.7</ele>
        <time>2026-05-16T12:56:18Z</time>
      </trkpt>
      <trkpt lat="43.77665" lon="6.81925">
        <ele>1112.7</ele>
        <time>2026-05-16T12:56:19Z</time>
      </trkpt>
      <trkpt lat="43.77655" lon="6.81913">
        <ele>1111.4</ele>
        <time>2026-05-16T12:56:20Z</time>
      </trkpt>
      <trkpt lat="43.77648" lon="6.81899">
        <ele>1111</ele>
        <time>2026-05-16T12:56:21Z</time>
      </trkpt>
      <trkpt lat="43.77641" lon="6.81887">
        <ele>1110.7</ele>
        <time>2026-05-16T12:56:22Z</time>
      </trkpt>
      <trkpt lat="43.77631" lon="6.81878">
        <ele>1110</ele>
        <time>2026-05-16T12:56:23Z</time>
      </trkpt>
      <trkpt lat="43.77621" lon="6.81871">
        <ele>1109.5</ele>
        <time>2026-05-16T12:56:24Z</time>
      </trkpt>
      <trkpt lat="43.77611" lon="6.81864">
        <ele>1109.5</ele>
        <time>2026-05-16T12:56:25Z</time>
      </trkpt>
      <trkpt lat="43.776" lon="6.81861">
        <ele>1108.8</ele>
        <time>2026-05-16T12:56:26Z</time>
      </trkpt>
      <trkpt lat="43.77589" lon="6.81861">
        <ele>1107.6</ele>
        <time>2026-05-16T12:56:27Z</time>
      </trkpt>
      <trkpt lat="43.77578" lon="6.81864">
        <ele>1106</ele>
        <time>2026-05-16T12:56:28Z</time>
      </trkpt>
      <trkpt lat="43.77567" lon="6.81869">
        <ele>1104</ele>
        <time>2026-05-16T12:56:29Z</time>
      </trkpt>
      <trkpt lat="43.77557" lon="6.81876">
        <ele>1101.4</ele>
        <time>2026-05-16T12:56:30Z</time>
      </trkpt>
      <trkpt lat="43.77546" lon="6.81882">
        <ele>1098.4</ele>
        <time>2026-05-16T12:56:31Z</time>
      </trkpt>
      <trkpt lat="43.77534" lon="6.81884">
        <ele>1096.3</ele>
        <time>2026-05-16T12:56:32Z</time>
      </trkpt>
      <trkpt lat="43.77523" lon="6.81881">
        <ele>1095.2</ele>
        <time>2026-05-16T12:56:33Z</time>
      </trkpt>
      <trkpt lat="43.77512" lon="6.81872">
        <ele>1095.5</ele>
        <time>2026-05-16T12:56:34Z</time>
      </trkpt>
      <trkpt lat="43.77502" lon="6.81862">
        <ele>1096.2</ele>
        <time>2026-05-16T12:56:35Z</time>
      </trkpt>
      <trkpt lat="43.7749" lon="6.81851">
        <ele>1095.9</ele>
        <time>2026-05-16T12:56:36Z</time>
      </trkpt>
      <trkpt lat="43.77479" lon="6.81837">
        <ele>1096.2</ele>
        <time>2026-05-16T12:56:37Z</time>
      </trkpt>
      <trkpt lat="43.77466" lon="6.81824">
        <ele>1095.8</ele>
        <time>2026-05-16T12:56:38Z</time>
      </trkpt>
      <trkpt lat="43.77453" lon="6.81811">
        <ele>1095.3</ele>
        <time>2026-05-16T12:56:39Z</time>
      </trkpt>
      <trkpt lat="43.77439" lon="6.81799">
        <ele>1094.3</ele>
        <time>2026-05-16T12:56:40Z</time>
      </trkpt>
      <trkpt lat="43.77425" lon="6.8179">
        <ele>1092.9</ele>
        <time>2026-05-16T12:56:41Z</time>
      </trkpt>
      <trkpt lat="43.77411" lon="6.81781">
        <ele>1091.8</ele>
        <time>2026-05-16T12:56:42Z</time>
      </trkpt>
      <trkpt lat="43.77397" lon="6.81772">
        <ele>1091.6</ele>
        <time>2026-05-16T12:56:43Z</time>
      </trkpt>
      <trkpt lat="43.77383" lon="6.81762">
        <ele>1092.1</ele>
        <time>2026-05-16T12:56:44Z</time>
      </trkpt>
      <trkpt lat="43.77369" lon="6.81758">
        <ele>1090.8</ele>
        <time>2026-05-16T12:56:45Z</time>
      </trkpt>
      <trkpt lat="43.77356" lon="6.81756">
        <ele>1089.5</ele>
        <time>2026-05-16T12:56:46Z</time>
      </trkpt>
      <trkpt lat="43.77342" lon="6.81762">
        <ele>1085.8</ele>
        <time>2026-05-16T12:56:47Z</time>
      </trkpt>
      <trkpt lat="43.77328" lon="6.81762">
        <ele>1083.8</ele>
        <time>2026-05-16T12:56:48Z</time>
      </trkpt>
      <trkpt lat="43.77314" lon="6.81759">
        <ele>1082.5</ele>
        <time>2026-05-16T12:56:49Z</time>
      </trkpt>
      <trkpt lat="43.77301" lon="6.81756">
        <ele>1081</ele>
        <time>2026-05-16T12:56:50Z</time>
      </trkpt>
      <trkpt lat="43.77287" lon="6.81751">
        <ele>1079.6</ele>
        <time>2026-05-16T12:56:51Z</time>
      </trkpt>
      <trkpt lat="43.77275" lon="6.81745">
        <ele>1079.2</ele>
        <time>2026-05-16T12:56:52Z</time>
      </trkpt>
      <trkpt lat="43.77266" lon="6.81734">
        <ele>1080.7</ele>
        <time>2026-05-16T12:56:53Z</time>
      </trkpt>
      <trkpt lat="43.77256" lon="6.81725">
        <ele>1080.9</ele>
        <time>2026-05-16T12:56:54Z</time>
      </trkpt>
      <trkpt lat="43.77246" lon="6.81721">
        <ele>1079.7</ele>
        <time>2026-05-16T12:56:55Z</time>
      </trkpt>
      <trkpt lat="43.77236" lon="6.81718">
        <ele>1078.9</ele>
        <time>2026-05-16T12:56:56Z</time>
      </trkpt>
      <trkpt lat="43.77228" lon="6.81718">
        <ele>1077.1</ele>
        <time>2026-05-16T12:56:57Z</time>
      </trkpt>
      <trkpt lat="43.77222" lon="6.81719">
        <ele>1075.4</ele>
        <time>2026-05-16T12:56:58Z</time>
      </trkpt>
      <trkpt lat="43.77216" lon="6.81719">
        <ele>1074.4</ele>
        <time>2026-05-16T12:56:59Z</time>
      </trkpt>
      <trkpt lat="43.7721" lon="6.81721">
        <ele>1072.7</ele>
        <time>2026-05-16T12:57:00Z</time>
      </trkpt>
      <trkpt lat="43.77204" lon="6.81721">
        <ele>1071.8</ele>
        <time>2026-05-16T12:57:01Z</time>
      </trkpt>
      <trkpt lat="43.77196" lon="6.81723">
        <ele>1070</ele>
        <time>2026-05-16T12:57:02Z</time>
      </trkpt>
      <trkpt lat="43.77189" lon="6.81725">
        <ele>1068.6</ele>
        <time>2026-05-16T12:57:03Z</time>
      </trkpt>
      <trkpt lat="43.77183" lon="6.81724">
        <ele>1068</ele>
        <time>2026-05-16T12:57:04Z</time>
      </trkpt>
      <trkpt lat="43.77177" lon="6.81725">
        <ele>1067</ele>
        <time>2026-05-16T12:57:05Z</time>
      </trkpt>
      <trkpt lat="43.77171" lon="6.81724">
        <ele>1066.4</ele>
        <time>2026-05-16T12:57:06Z</time>
      </trkpt>
      <trkpt lat="43.77165" lon="6.81724">
        <ele>1065.8</ele>
        <time>2026-05-16T12:57:07Z</time>
      </trkpt>
      <trkpt lat="43.77156" lon="6.81721">
        <ele>1065.9</ele>
        <time>2026-05-16T12:57:08Z</time>
      </trkpt>
      <trkpt lat="43.77147" lon="6.81714">
        <ele>1066.8</ele>
        <time>2026-05-16T12:57:09Z</time>
      </trkpt>
      <trkpt lat="43.77138" lon="6.81705">
        <ele>1067.4</ele>
        <time>2026-05-16T12:57:10Z</time>
      </trkpt>
      <trkpt lat="43.77129" lon="6.81695">
        <ele>1067.9</ele>
        <time>2026-05-16T12:57:11Z</time>
      </trkpt>
      <trkpt lat="43.7712" lon="6.81682">
        <ele>1069.2</ele>
        <time>2026-05-16T12:57:12Z</time>
      </trkpt>
      <trkpt lat="43.77111" lon="6.81669">
        <ele>1069.7</ele>
        <time>2026-05-16T12:57:13Z</time>
      </trkpt>
      <trkpt lat="43.77102" lon="6.81658">
        <ele>1070.1</ele>
        <time>2026-05-16T12:57:14Z</time>
      </trkpt>
      <trkpt lat="43.77092" lon="6.8165">
        <ele>1069.5</ele>
        <time>2026-05-16T12:57:15Z</time>
      </trkpt>
      <trkpt lat="43.7708" lon="6.81646">
        <ele>1068.3</ele>
        <time>2026-05-16T12:57:16Z</time>
      </trkpt>
      <trkpt lat="43.7707" lon="6.81646">
        <ele>1067.8</ele>
        <time>2026-05-16T12:57:17Z</time>
      </trkpt>
      <trkpt lat="43.77061" lon="6.81652">
        <ele>1067.2</ele>
        <time>2026-05-16T12:57:18Z</time>
      </trkpt>
      <trkpt lat="43.77054" lon="6.81662">
        <ele>1067.1</ele>
        <time>2026-05-16T12:57:19Z</time>
      </trkpt>
      <trkpt lat="43.77048" lon="6.81674">
        <ele>1068.6</ele>
        <time>2026-05-16T12:57:20Z</time>
      </trkpt>
      <trkpt lat="43.77047" lon="6.81689">
        <ele>1070.3</ele>
        <time>2026-05-16T12:57:21Z</time>
      </trkpt>
      <trkpt lat="43.77047" lon="6.81704">
        <ele>1072.4</ele>
        <time>2026-05-16T12:57:22Z</time>
      </trkpt>
      <trkpt lat="43.77051" lon="6.81719">
        <ele>1073.8</ele>
        <time>2026-05-16T12:57:23Z</time>
      </trkpt>
      <trkpt lat="43.77066" lon="6.81731">
        <ele>1073</ele>
        <time>2026-05-16T12:57:24Z</time>
      </trkpt>
      <trkpt lat="43.77077" lon="6.81744">
        <ele>1072.8</ele>
        <time>2026-05-16T12:57:25Z</time>
      </trkpt>
      <trkpt lat="43.77089" lon="6.81758">
        <ele>1072.8</ele>
        <time>2026-05-16T12:57:26Z</time>
      </trkpt>
      <trkpt lat="43.77101" lon="6.81773">
        <ele>1073</ele>
        <time>2026-05-16T12:57:27Z</time>
      </trkpt>
      <trkpt lat="43.77113" lon="6.81789">
        <ele>1073.4</ele>
        <time>2026-05-16T12:57:28Z</time>
      </trkpt>
      <trkpt lat="43.77126" lon="6.81806">
        <ele>1074.4</ele>
        <time>2026-05-16T12:57:29Z</time>
      </trkpt>
      <trkpt lat="43.7714" lon="6.81822">
        <ele>1075.5</ele>
        <time>2026-05-16T12:57:30Z</time>
      </trkpt>
      <trkpt lat="43.77152" lon="6.81837">
        <ele>1078</ele>
        <time>2026-05-16T12:57:31Z</time>
      </trkpt>
      <trkpt lat="43.77165" lon="6.81849">
        <ele>1080.5</ele>
        <time>2026-05-16T12:57:32Z</time>
      </trkpt>
      <trkpt lat="43.77181" lon="6.81858">
        <ele>1081.7</ele>
        <time>2026-05-16T12:57:33Z</time>
      </trkpt>
      <trkpt lat="43.77196" lon="6.81861">
        <ele>1080.5</ele>
        <time>2026-05-16T12:57:34Z</time>
      </trkpt>
      <trkpt lat="43.7721" lon="6.8187">
        <ele>1080.5</ele>
        <time>2026-05-16T12:57:35Z</time>
      </trkpt>
      <trkpt lat="43.77222" lon="6.81881">
        <ele>1081.7</ele>
        <time>2026-05-16T12:57:36Z</time>
      </trkpt>
      <trkpt lat="43.77236" lon="6.81895">
        <ele>1081.2</ele>
        <time>2026-05-16T12:57:37Z</time>
      </trkpt>
      <trkpt lat="43.7725" lon="6.81909">
        <ele>1080</ele>
        <time>2026-05-16T12:57:38Z</time>
      </trkpt>
      <trkpt lat="43.77263" lon="6.81923">
        <ele>1078.6</ele>
        <time>2026-05-16T12:57:39Z</time>
      </trkpt>
      <trkpt lat="43.77277" lon="6.81938">
        <ele>1076.9</ele>
        <time>2026-05-16T12:57:40Z</time>
      </trkpt>
      <trkpt lat="43.77289" lon="6.81955">
        <ele>1077</ele>
        <time>2026-05-16T12:57:41Z</time>
      </trkpt>
      <trkpt lat="43.77301" lon="6.81973">
        <ele>1076.7</ele>
        <time>2026-05-16T12:57:42Z</time>
      </trkpt>
      <trkpt lat="43.77313" lon="6.81991">
        <ele>1075.9</ele>
        <time>2026-05-16T12:57:43Z</time>
      </trkpt>
      <trkpt lat="43.77324" lon="6.8201">
        <ele>1076.2</ele>
        <time>2026-05-16T12:57:44Z</time>
      </trkpt>
      <trkpt lat="43.77332" lon="6.82029">
        <ele>1077.9</ele>
        <time>2026-05-16T12:57:45Z</time>
      </trkpt>
      <trkpt lat="43.77338" lon="6.82048">
        <ele>1079.1</ele>
        <time>2026-05-16T12:57:46Z</time>
      </trkpt>
      <trkpt lat="43.7734" lon="6.82067">
        <ele>1081.1</ele>
        <time>2026-05-16T12:57:47Z</time>
      </trkpt>
      <trkpt lat="43.77342" lon="6.82088">
        <ele>1082.3</ele>
        <time>2026-05-16T12:57:48Z</time>
      </trkpt>
      <trkpt lat="43.77342" lon="6.8211">
        <ele>1083.9</ele>
        <time>2026-05-16T12:57:49Z</time>
      </trkpt>
      <trkpt lat="43.77342" lon="6.82132">
        <ele>1086</ele>
        <time>2026-05-16T12:57:50Z</time>
      </trkpt>
      <trkpt lat="43.77342" lon="6.82155">
        <ele>1087.9</ele>
        <time>2026-05-16T12:57:51Z</time>
      </trkpt>
      <trkpt lat="43.77342" lon="6.82179">
        <ele>1089.6</ele>
        <time>2026-05-16T12:57:52Z</time>
      </trkpt>
      <trkpt lat="43.77342" lon="6.82203">
        <ele>1091.3</ele>
        <time>2026-05-16T12:57:53Z</time>
      </trkpt>
      <trkpt lat="43.77344" lon="6.82226">
        <ele>1091.8</ele>
        <time>2026-05-16T12:57:54Z</time>
      </trkpt>
      <trkpt lat="43.77345" lon="6.8225">
        <ele>1093.3</ele>
        <time>2026-05-16T12:57:55Z</time>
      </trkpt>
      <trkpt lat="43.77346" lon="6.82274">
        <ele>1094.4</ele>
        <time>2026-05-16T12:57:56Z</time>
      </trkpt>
      <trkpt lat="43.77347" lon="6.82299">
        <ele>1095.3</ele>
        <time>2026-05-16T12:57:57Z</time>
      </trkpt>
      <trkpt lat="43.77348" lon="6.82325">
        <ele>1096.1</ele>
        <time>2026-05-16T12:57:58Z</time>
      </trkpt>
      <trkpt lat="43.77349" lon="6.8235">
        <ele>1097.2</ele>
        <time>2026-05-16T12:57:59Z</time>
      </trkpt>
      <trkpt lat="43.7735" lon="6.82376">
        <ele>1098.3</ele>
        <time>2026-05-16T12:58:00Z</time>
      </trkpt>
      <trkpt lat="43.77351" lon="6.82401">
        <ele>1099.3</ele>
        <time>2026-05-16T12:58:01Z</time>
      </trkpt>
      <trkpt lat="43.77352" lon="6.82425">
        <ele>1100.2</ele>
        <time>2026-05-16T12:58:02Z</time>
      </trkpt>
      <trkpt lat="43.77352" lon="6.8245">
        <ele>1100.9</ele>
        <time>2026-05-16T12:58:03Z</time>
      </trkpt>
      <trkpt lat="43.7735" lon="6.82474">
        <ele>1101.4</ele>
        <time>2026-05-16T12:58:04Z</time>
      </trkpt>
      <trkpt lat="43.77345" lon="6.82496">
        <ele>1101.9</ele>
        <time>2026-05-16T12:58:05Z</time>
      </trkpt>
      <trkpt lat="43.77339" lon="6.82517">
        <ele>1103.7</ele>
        <time>2026-05-16T12:58:06Z</time>
      </trkpt>
      <trkpt lat="43.77337" lon="6.82536">
        <ele>1104.9</ele>
        <time>2026-05-16T12:58:07Z</time>
      </trkpt>
      <trkpt lat="43.77339" lon="6.82555">
        <ele>1105.3</ele>
        <time>2026-05-16T12:58:08Z</time>
      </trkpt>
      <trkpt lat="43.77345" lon="6.82574">
        <ele>1105.6</ele>
        <time>2026-05-16T12:58:09Z</time>
      </trkpt>
      <trkpt lat="43.77353" lon="6.82593">
        <ele>1104.5</ele>
        <time>2026-05-16T12:58:10Z</time>
      </trkpt>
      <trkpt lat="43.77359" lon="6.82615">
        <ele>1104.5</ele>
        <time>2026-05-16T12:58:11Z</time>
      </trkpt>
      <trkpt lat="43.77363" lon="6.82639">
        <ele>1104.7</ele>
        <time>2026-05-16T12:58:12Z</time>
      </trkpt>
      <trkpt lat="43.77367" lon="6.82663">
        <ele>1103.7</ele>
        <time>2026-05-16T12:58:13Z</time>
      </trkpt>
      <trkpt lat="43.7737" lon="6.8269">
        <ele>1103</ele>
        <time>2026-05-16T12:58:14Z</time>
      </trkpt>
      <trkpt lat="43.77372" lon="6.82716">
        <ele>1103</ele>
        <time>2026-05-16T12:58:15Z</time>
      </trkpt>
      <trkpt lat="43.77375" lon="6.82742">
        <ele>1102.9</ele>
        <time>2026-05-16T12:58:16Z</time>
      </trkpt>
      <trkpt lat="43.77378" lon="6.82769">
        <ele>1103</ele>
        <time>2026-05-16T12:58:17Z</time>
      </trkpt>
      <trkpt lat="43.77381" lon="6.82795">
        <ele>1102.6</ele>
        <time>2026-05-16T12:58:18Z</time>
      </trkpt>
      <trkpt lat="43.77384" lon="6.82822">
        <ele>1102.5</ele>
        <time>2026-05-16T12:58:19Z</time>
      </trkpt>
      <trkpt lat="43.77386" lon="6.8285">
        <ele>1103.5</ele>
        <time>2026-05-16T12:58:20Z</time>
      </trkpt>
      <trkpt lat="43.77388" lon="6.82878">
        <ele>1104.6</ele>
        <time>2026-05-16T12:58:21Z</time>
      </trkpt>
      <trkpt lat="43.7739" lon="6.82907">
        <ele>1105.6</ele>
        <time>2026-05-16T12:58:22Z</time>
      </trkpt>
      <trkpt lat="43.77391" lon="6.82935">
        <ele>1106.5</ele>
        <time>2026-05-16T12:58:23Z</time>
      </trkpt>
      <trkpt lat="43.77393" lon="6.82964">
        <ele>1106.6</ele>
        <time>2026-05-16T12:58:24Z</time>
      </trkpt>
      <trkpt lat="43.77395" lon="6.82993">
        <ele>1106.8</ele>
        <time>2026-05-16T12:58:25Z</time>
      </trkpt>
      <trkpt lat="43.77397" lon="6.83022">
        <ele>1107.8</ele>
        <time>2026-05-16T12:58:26Z</time>
      </trkpt>
      <trkpt lat="43.77399" lon="6.83052">
        <ele>1109.9</ele>
        <time>2026-05-16T12:58:27Z</time>
      </trkpt>
      <trkpt lat="43.77402" lon="6.83081">
        <ele>1111.1</ele>
        <time>2026-05-16T12:58:28Z</time>
      </trkpt>
      <trkpt lat="43.77406" lon="6.83112">
        <ele>1110.7</ele>
        <time>2026-05-16T12:58:29Z</time>
      </trkpt>
      <trkpt lat="43.7741" lon="6.83142">
        <ele>1110.9</ele>
        <time>2026-05-16T12:58:30Z</time>
      </trkpt>
      <trkpt lat="43.77415" lon="6.83172">
        <ele>1111.9</ele>
        <time>2026-05-16T12:58:31Z</time>
      </trkpt>
      <trkpt lat="43.77419" lon="6.83202">
        <ele>1112.1</ele>
        <time>2026-05-16T12:58:32Z</time>
      </trkpt>
      <trkpt lat="43.77422" lon="6.83233">
        <ele>1112.3</ele>
        <time>2026-05-16T12:58:33Z</time>
      </trkpt>
      <trkpt lat="43.77425" lon="6.83263">
        <ele>1112.8</ele>
        <time>2026-05-16T12:58:34Z</time>
      </trkpt>
      <trkpt lat="43.77428" lon="6.83294">
        <ele>1113.7</ele>
        <time>2026-05-16T12:58:35Z</time>
      </trkpt>
      <trkpt lat="43.7743" lon="6.83325">
        <ele>1114.8</ele>
        <time>2026-05-16T12:58:36Z</time>
      </trkpt>
      <trkpt lat="43.77433" lon="6.83357">
        <ele>1115.8</ele>
        <time>2026-05-16T12:58:37Z</time>
      </trkpt>
      <trkpt lat="43.77435" lon="6.83388">
        <ele>1117</ele>
        <time>2026-05-16T12:58:38Z</time>
      </trkpt>
      <trkpt lat="43.77437" lon="6.83421">
        <ele>1117.4</ele>
        <time>2026-05-16T12:58:39Z</time>
      </trkpt>
      <trkpt lat="43.7744" lon="6.83452">
        <ele>1116.7</ele>
        <time>2026-05-16T12:58:40Z</time>
      </trkpt>
      <trkpt lat="43.77442" lon="6.83484">
        <ele>1116.8</ele>
        <time>2026-05-16T12:58:41Z</time>
      </trkpt>
      <trkpt lat="43.77444" lon="6.83514">
        <ele>1116.6</ele>
        <time>2026-05-16T12:58:42Z</time>
      </trkpt>
      <trkpt lat="43.77444" lon="6.83544">
        <ele>1117.7</ele>
        <time>2026-05-16T12:58:43Z</time>
      </trkpt>
      <trkpt lat="43.77445" lon="6.83572">
        <ele>1117.8</ele>
        <time>2026-05-16T12:58:44Z</time>
      </trkpt>
      <trkpt lat="43.77446" lon="6.836">
        <ele>1117.9</ele>
        <time>2026-05-16T12:58:45Z</time>
      </trkpt>
      <trkpt lat="43.77448" lon="6.83626">
        <ele>1118.1</ele>
        <time>2026-05-16T12:58:46Z</time>
      </trkpt>
      <trkpt lat="43.77449" lon="6.83649">
        <ele>1118.6</ele>
        <time>2026-05-16T12:58:47Z</time>
      </trkpt>
      <trkpt lat="43.77448" lon="6.8367">
        <ele>1119.5</ele>
        <time>2026-05-16T12:58:48Z</time>
      </trkpt>
      <trkpt lat="43.77445" lon="6.83688">
        <ele>1120</ele>
        <time>2026-05-16T12:58:49Z</time>
      </trkpt>
      <trkpt lat="43.77438" lon="6.83703">
        <ele>1121.1</ele>
        <time>2026-05-16T12:58:50Z</time>
      </trkpt>
      <trkpt lat="43.77428" lon="6.83714">
        <ele>1122.8</ele>
        <time>2026-05-16T12:58:51Z</time>
      </trkpt>
      <trkpt lat="43.77415" lon="6.83719">
        <ele>1125.3</ele>
        <time>2026-05-16T12:58:52Z</time>
      </trkpt>
      <trkpt lat="43.77401" lon="6.83723">
        <ele>1126.7</ele>
        <time>2026-05-16T12:58:53Z</time>
      </trkpt>
      <trkpt lat="43.77387" lon="6.83725">
        <ele>1127.9</ele>
        <time>2026-05-16T12:58:54Z</time>
      </trkpt>
      <trkpt lat="43.77373" lon="6.83728">
        <ele>1128.7</ele>
        <time>2026-05-16T12:58:55Z</time>
      </trkpt>
      <trkpt lat="43.77362" lon="6.83732">
        <ele>1129.2</ele>
        <time>2026-05-16T12:58:56Z</time>
      </trkpt>
      <trkpt lat="43.77354" lon="6.83738">
        <ele>1129.3</ele>
        <time>2026-05-16T12:58:57Z</time>
      </trkpt>
      <trkpt lat="43.77347" lon="6.83749">
        <ele>1129.1</ele>
        <time>2026-05-16T12:58:58Z</time>
      </trkpt>
      <trkpt lat="43.77343" lon="6.83762">
        <ele>1129</ele>
        <time>2026-05-16T12:58:59Z</time>
      </trkpt>
      <trkpt lat="43.77343" lon="6.83775">
        <ele>1128.7</ele>
        <time>2026-05-16T12:59:00Z</time>
      </trkpt>
      <trkpt lat="43.77347" lon="6.83788">
        <ele>1128.6</ele>
        <time>2026-05-16T12:59:01Z</time>
      </trkpt>
      <trkpt lat="43.77353" lon="6.83802">
        <ele>1128.3</ele>
        <time>2026-05-16T12:59:02Z</time>
      </trkpt>
      <trkpt lat="43.7736" lon="6.83816">
        <ele>1128.3</ele>
        <time>2026-05-16T12:59:03Z</time>
      </trkpt>
      <trkpt lat="43.77368" lon="6.83832">
        <ele>1128.6</ele>
        <time>2026-05-16T12:59:04Z</time>
      </trkpt>
      <trkpt lat="43.77378" lon="6.83846">
        <ele>1128.8</ele>
        <time>2026-05-16T12:59:05Z</time>
      </trkpt>
      <trkpt lat="43.77391" lon="6.83859">
        <ele>1128.3</ele>
        <time>2026-05-16T12:59:06Z</time>
      </trkpt>
      <trkpt lat="43.77405" lon="6.8387">
        <ele>1127.3</ele>
        <time>2026-05-16T12:59:07Z</time>
      </trkpt>
      <trkpt lat="43.77418" lon="6.83881">
        <ele>1127.1</ele>
        <time>2026-05-16T12:59:08Z</time>
      </trkpt>
      <trkpt lat="43.77431" lon="6.83893">
        <ele>1127.8</ele>
        <time>2026-05-16T12:59:09Z</time>
      </trkpt>
      <trkpt lat="43.77443" lon="6.83906">
        <ele>1128.9</ele>
        <time>2026-05-16T12:59:10Z</time>
      </trkpt>
      <trkpt lat="43.77453" lon="6.83922">
        <ele>1129.3</ele>
        <time>2026-05-16T12:59:11Z</time>
      </trkpt>
      <trkpt lat="43.77463" lon="6.8394">
        <ele>1128.6</ele>
        <time>2026-05-16T12:59:12Z</time>
      </trkpt>
      <trkpt lat="43.77472" lon="6.83959">
        <ele>1128.1</ele>
        <time>2026-05-16T12:59:13Z</time>
      </trkpt>
      <trkpt lat="43.77481" lon="6.83977">
        <ele>1127.3</ele>
        <time>2026-05-16T12:59:14Z</time>
      </trkpt>
      <trkpt lat="43.7749" lon="6.83995">
        <ele>1126.5</ele>
        <time>2026-05-16T12:59:15Z</time>
      </trkpt>
      <trkpt lat="43.77498" lon="6.84014">
        <ele>1125.9</ele>
        <time>2026-05-16T12:59:16Z</time>
      </trkpt>
      <trkpt lat="43.77503" lon="6.84033">
        <ele>1125.6</ele>
        <time>2026-05-16T12:59:17Z</time>
      </trkpt>
      <trkpt lat="43.77506" lon="6.84054">
        <ele>1125.3</ele>
        <time>2026-05-16T12:59:18Z</time>
      </trkpt>
      <trkpt lat="43.77507" lon="6.84076">
        <ele>1125.1</ele>
        <time>2026-05-16T12:59:19Z</time>
      </trkpt>
      <trkpt lat="43.77504" lon="6.84098">
        <ele>1124.9</ele>
        <time>2026-05-16T12:59:20Z</time>
      </trkpt>
      <trkpt lat="43.775" lon="6.84119">
        <ele>1125</ele>
        <time>2026-05-16T12:59:21Z</time>
      </trkpt>
      <trkpt lat="43.77496" lon="6.8414">
        <ele>1125.8</ele>
        <time>2026-05-16T12:59:22Z</time>
      </trkpt>
      <trkpt lat="43.77493" lon="6.8416">
        <ele>1125.6</ele>
        <time>2026-05-16T12:59:23Z</time>
      </trkpt>
      <trkpt lat="43.77489" lon="6.84178">
        <ele>1125.3</ele>
        <time>2026-05-16T12:59:24Z</time>
      </trkpt>
      <trkpt lat="43.77486" lon="6.84197">
        <ele>1125</ele>
        <time>2026-05-16T12:59:25Z</time>
      </trkpt>
      <trkpt lat="43.77487" lon="6.84215">
        <ele>1124.9</ele>
        <time>2026-05-16T12:59:26Z</time>
      </trkpt>
      <trkpt lat="43.77491" lon="6.84232">
        <ele>1124.9</ele>
        <time>2026-05-16T12:59:27Z</time>
      </trkpt>
      <trkpt lat="43.775" lon="6.84245">
        <ele>1124.6</ele>
        <time>2026-05-16T12:59:28Z</time>
      </trkpt>
      <trkpt lat="43.77511" lon="6.84253">
        <ele>1125.1</ele>
        <time>2026-05-16T12:59:29Z</time>
      </trkpt>
      <trkpt lat="43.77522" lon="6.84257">
        <ele>1125.4</ele>
        <time>2026-05-16T12:59:30Z</time>
      </trkpt>
      <trkpt lat="43.77537" lon="6.84255">
        <ele>1124.6</ele>
        <time>2026-05-16T12:59:31Z</time>
      </trkpt>
      <trkpt lat="43.77552" lon="6.84255">
        <ele>1124</ele>
        <time>2026-05-16T12:59:32Z</time>
      </trkpt>
      <trkpt lat="43.77566" lon="6.84256">
        <ele>1123.2</ele>
        <time>2026-05-16T12:59:33Z</time>
      </trkpt>
      <trkpt lat="43.77578" lon="6.84258">
        <ele>1122.6</ele>
        <time>2026-05-16T12:59:34Z</time>
      </trkpt>
      <trkpt lat="43.7759" lon="6.84264">
        <ele>1121.9</ele>
        <time>2026-05-16T12:59:35Z</time>
      </trkpt>
      <trkpt lat="43.776" lon="6.84274">
        <ele>1122</ele>
        <time>2026-05-16T12:59:36Z</time>
      </trkpt>
      <trkpt lat="43.77609" lon="6.84288">
        <ele>1122</ele>
        <time>2026-05-16T12:59:37Z</time>
      </trkpt>
      <trkpt lat="43.77616" lon="6.84304">
        <ele>1121.6</ele>
        <time>2026-05-16T12:59:38Z</time>
      </trkpt>
      <trkpt lat="43.77621" lon="6.84323">
        <ele>1121.6</ele>
        <time>2026-05-16T12:59:39Z</time>
      </trkpt>
      <trkpt lat="43.77627" lon="6.84343">
        <ele>1121.5</ele>
        <time>2026-05-16T12:59:40Z</time>
      </trkpt>
      <trkpt lat="43.77632" lon="6.84364">
        <ele>1121.4</ele>
        <time>2026-05-16T12:59:41Z</time>
      </trkpt>
      <trkpt lat="43.77637" lon="6.84385">
        <ele>1122</ele>
        <time>2026-05-16T12:59:42Z</time>
      </trkpt>
      <trkpt lat="43.77642" lon="6.84406">
        <ele>1122.1</ele>
        <time>2026-05-16T12:59:43Z</time>
      </trkpt>
      <trkpt lat="43.77647" lon="6.84425">
        <ele>1122.1</ele>
        <time>2026-05-16T12:59:44Z</time>
      </trkpt>
      <trkpt lat="43.77654" lon="6.84444">
        <ele>1122.2</ele>
        <time>2026-05-16T12:59:45Z</time>
      </trkpt>
      <trkpt lat="43.77662" lon="6.84462">
        <ele>1122.1</ele>
        <time>2026-05-16T12:59:46Z</time>
      </trkpt>
      <trkpt lat="43.77672" lon="6.8448">
        <ele>1121.3</ele>
        <time>2026-05-16T12:59:47Z</time>
      </trkpt>
      <trkpt lat="43.77682" lon="6.84496">
        <ele>1120.3</ele>
        <time>2026-05-16T12:59:48Z</time>
      </trkpt>
      <trkpt lat="43.7769" lon="6.84514">
        <ele>1120</ele>
        <time>2026-05-16T12:59:49Z</time>
      </trkpt>
      <trkpt lat="43.77696" lon="6.84532">
        <ele>1119.8</ele>
        <time>2026-05-16T12:59:50Z</time>
      </trkpt>
      <trkpt lat="43.77699" lon="6.84552">
        <ele>1120.3</ele>
        <time>2026-05-16T12:59:51Z</time>
      </trkpt>
      <trkpt lat="43.77701" lon="6.84573">
        <ele>1120</ele>
        <time>2026-05-16T12:59:52Z</time>
      </trkpt>
      <trkpt lat="43.77703" lon="6.84595">
        <ele>1119.4</ele>
        <time>2026-05-16T12:59:53Z</time>
      </trkpt>
      <trkpt lat="43.77706" lon="6.84615">
        <ele>1118.7</ele>
        <time>2026-05-16T12:59:54Z</time>
      </trkpt>
      <trkpt lat="43.77709" lon="6.84636">
        <ele>1119.2</ele>
        <time>2026-05-16T12:59:55Z</time>
      </trkpt>
      <trkpt lat="43.77712" lon="6.84657">
        <ele>1119.5</ele>
        <time>2026-05-16T12:59:56Z</time>
      </trkpt>
      <trkpt lat="43.77715" lon="6.84677">
        <ele>1119.7</ele>
        <time>2026-05-16T12:59:57Z</time>
      </trkpt>
      <trkpt lat="43.77718" lon="6.84697">
        <ele>1119.8</ele>
        <time>2026-05-16T12:59:58Z</time>
      </trkpt>
      <trkpt lat="43.77721" lon="6.84716">
        <ele>1120</ele>
        <time>2026-05-16T12:59:59Z</time>
      </trkpt>
      <trkpt lat="43.77723" lon="6.84734">
        <ele>1119.8</ele>
        <time>2026-05-16T13:00:00Z</time>
      </trkpt>
      <trkpt lat="43.77726" lon="6.84753">
        <ele>1119.2</ele>
        <time>2026-05-16T13:00:01Z</time>
      </trkpt>
      <trkpt lat="43.77728" lon="6.84772">
        <ele>1118.9</ele>
        <time>2026-05-16T13:00:02Z</time>
      </trkpt>
      <trkpt lat="43.77731" lon="6.84792">
        <ele>1118.9</ele>
        <time>2026-05-16T13:00:03Z</time>
      </trkpt>
      <trkpt lat="43.77733" lon="6.84812">
        <ele>1119.1</ele>
        <time>2026-05-16T13:00:04Z</time>
      </trkpt>
      <trkpt lat="43.77734" lon="6.84833">
        <ele>1118.9</ele>
        <time>2026-05-16T13:00:05Z</time>
      </trkpt>
      <trkpt lat="43.77733" lon="6.84855">
        <ele>1118.6</ele>
        <time>2026-05-16T13:00:06Z</time>
      </trkpt>
      <trkpt lat="43.77731" lon="6.84875">
        <ele>1118.4</ele>
        <time>2026-05-16T13:00:07Z</time>
      </trkpt>
      <trkpt lat="43.77726" lon="6.84894">
        <ele>1118.4</ele>
        <time>2026-05-16T13:00:08Z</time>
      </trkpt>
      <trkpt lat="43.77722" lon="6.84912">
        <ele>1118.2</ele>
        <time>2026-05-16T13:00:09Z</time>
      </trkpt>
      <trkpt lat="43.77718" lon="6.84931">
        <ele>1118.4</ele>
        <time>2026-05-16T13:00:10Z</time>
      </trkpt>
      <trkpt lat="43.77715" lon="6.84949">
        <ele>1118.4</ele>
        <time>2026-05-16T13:00:11Z</time>
      </trkpt>
      <trkpt lat="43.7771" lon="6.84966">
        <ele>1118.4</ele>
        <time>2026-05-16T13:00:12Z</time>
      </trkpt>
      <trkpt lat="43.77704" lon="6.84981">
        <ele>1118.7</ele>
        <time>2026-05-16T13:00:13Z</time>
      </trkpt>
      <trkpt lat="43.77696" lon="6.84995">
        <ele>1119</ele>
        <time>2026-05-16T13:00:14Z</time>
      </trkpt>
      <trkpt lat="43.77687" lon="6.85008">
        <ele>1119.2</ele>
        <time>2026-05-16T13:00:15Z</time>
      </trkpt>
      <trkpt lat="43.77678" lon="6.8502">
        <ele>1119.3</ele>
        <time>2026-05-16T13:00:16Z</time>
      </trkpt>
      <trkpt lat="43.77669" lon="6.85034">
        <ele>1119.5</ele>
        <time>2026-05-16T13:00:17Z</time>
      </trkpt>
      <trkpt lat="43.77662" lon="6.85051">
        <ele>1119.8</ele>
        <time>2026-05-16T13:00:18Z</time>
      </trkpt>
      <trkpt lat="43.77657" lon="6.85069">
        <ele>1119.6</ele>
        <time>2026-05-16T13:00:19Z</time>
      </trkpt>
      <trkpt lat="43.77651" lon="6.85088">
        <ele>1119.5</ele>
        <time>2026-05-16T13:00:20Z</time>
      </trkpt>
      <trkpt lat="43.77644" lon="6.85106">
        <ele>1119.4</ele>
        <time>2026-05-16T13:00:21Z</time>
      </trkpt>
      <trkpt lat="43.77636" lon="6.85123">
        <ele>1119.3</ele>
        <time>2026-05-16T13:00:22Z</time>
      </trkpt>
      <trkpt lat="43.77627" lon="6.85139">
        <ele>1119.6</ele>
        <time>2026-05-16T13:00:23Z</time>
      </trkpt>
      <trkpt lat="43.7762" lon="6.85157">
        <ele>1119.6</ele>
        <time>2026-05-16T13:00:24Z</time>
      </trkpt>
      <trkpt lat="43.77616" lon="6.85175">
        <ele>1119.7</ele>
        <time>2026-05-16T13:00:25Z</time>
      </trkpt>
      <trkpt lat="43.77614" lon="6.85194">
        <ele>1120.1</ele>
        <time>2026-05-16T13:00:26Z</time>
      </trkpt>
      <trkpt lat="43.77612" lon="6.85213">
        <ele>1119.4</ele>
        <time>2026-05-16T13:00:27Z</time>
      </trkpt>
      <trkpt lat="43.77609" lon="6.85233">
        <ele>1118.8</ele>
        <time>2026-05-16T13:00:28Z</time>
      </trkpt>
      <trkpt lat="43.77605" lon="6.85252">
        <ele>1118.6</ele>
        <time>2026-05-16T13:00:29Z</time>
      </trkpt>
      <trkpt lat="43.77599" lon="6.85271">
        <ele>1118.3</ele>
        <time>2026-05-16T13:00:30Z</time>
      </trkpt>
      <trkpt lat="43.7759" lon="6.85288">
        <ele>1117.9</ele>
        <time>2026-05-16T13:00:31Z</time>
      </trkpt>
      <trkpt lat="43.77578" lon="6.85301">
        <ele>1117.8</ele>
        <time>2026-05-16T13:00:32Z</time>
      </trkpt>
      <trkpt lat="43.77565" lon="6.85311">
        <ele>1117.7</ele>
        <time>2026-05-16T13:00:33Z</time>
      </trkpt>
      <trkpt lat="43.77551" lon="6.85319">
        <ele>1118.2</ele>
        <time>2026-05-16T13:00:34Z</time>
      </trkpt>
      <trkpt lat="43.77538" lon="6.8533">
        <ele>1118.3</ele>
        <time>2026-05-16T13:00:35Z</time>
      </trkpt>
      <trkpt lat="43.77526" lon="6.85343">
        <ele>1118.2</ele>
        <time>2026-05-16T13:00:36Z</time>
      </trkpt>
      <trkpt lat="43.77515" lon="6.85357">
        <ele>1118.6</ele>
        <time>2026-05-16T13:00:37Z</time>
      </trkpt>
      <trkpt lat="43.77504" lon="6.85372">
        <ele>1118.9</ele>
        <time>2026-05-16T13:00:38Z</time>
      </trkpt>
      <trkpt lat="43.77493" lon="6.85386">
        <ele>1119</ele>
        <time>2026-05-16T13:00:39Z</time>
      </trkpt>
      <trkpt lat="43.77483" lon="6.854">
        <ele>1119.1</ele>
        <time>2026-05-16T13:00:40Z</time>
      </trkpt>
      <trkpt lat="43.77474" lon="6.85415">
        <ele>1118.8</ele>
        <time>2026-05-16T13:00:41Z</time>
      </trkpt>
      <trkpt lat="43.77465" lon="6.85431">
        <ele>1118.9</ele>
        <time>2026-05-16T13:00:42Z</time>
      </trkpt>
      <trkpt lat="43.77458" lon="6.85449">
        <ele>1117.9</ele>
        <time>2026-05-16T13:00:43Z</time>
      </trkpt>
      <trkpt lat="43.7745" lon="6.85466">
        <ele>1117.9</ele>
        <time>2026-05-16T13:00:44Z</time>
      </trkpt>
      <trkpt lat="43.77442" lon="6.85484">
        <ele>1118.1</ele>
        <time>2026-05-16T13:00:45Z</time>
      </trkpt>
      <trkpt lat="43.77434" lon="6.85501">
        <ele>1118.2</ele>
        <time>2026-05-16T13:00:46Z</time>
      </trkpt>
      <trkpt lat="43.77424" lon="6.85517">
        <ele>1118.1</ele>
        <time>2026-05-16T13:00:47Z</time>
      </trkpt>
      <trkpt lat="43.77415" lon="6.85531">
        <ele>1117.4</ele>
        <time>2026-05-16T13:00:48Z</time>
      </trkpt>
      <trkpt lat="43.77403" lon="6.85542">
        <ele>1116.4</ele>
        <time>2026-05-16T13:00:49Z</time>
      </trkpt>
      <trkpt lat="43.77391" lon="6.85551">
        <ele>1115.9</ele>
        <time>2026-05-16T13:00:50Z</time>
      </trkpt>
      <trkpt lat="43.77377" lon="6.85554">
        <ele>1115.5</ele>
        <time>2026-05-16T13:00:51Z</time>
      </trkpt>
      <trkpt lat="43.77362" lon="6.85553">
        <ele>1115.8</ele>
        <time>2026-05-16T13:00:52Z</time>
      </trkpt>
      <trkpt lat="43.77348" lon="6.8555">
        <ele>1116.2</ele>
        <time>2026-05-16T13:00:53Z</time>
      </trkpt>
      <trkpt lat="43.77333" lon="6.85546">
        <ele>1116.7</ele>
        <time>2026-05-16T13:00:54Z</time>
      </trkpt>
      <trkpt lat="43.77317" lon="6.8554">
        <ele>1117</ele>
        <time>2026-05-16T13:00:55Z</time>
      </trkpt>
      <trkpt lat="43.77301" lon="6.85533">
        <ele>1117.4</ele>
        <time>2026-05-16T13:00:56Z</time>
      </trkpt>
      <trkpt lat="43.77284" lon="6.85527">
        <ele>1117.7</ele>
        <time>2026-05-16T13:00:57Z</time>
      </trkpt>
      <trkpt lat="43.77267" lon="6.85523">
        <ele>1117.9</ele>
        <time>2026-05-16T13:00:58Z</time>
      </trkpt>
      <trkpt lat="43.77249" lon="6.85522">
        <ele>1117.7</ele>
        <time>2026-05-16T13:00:59Z</time>
      </trkpt>
      <trkpt lat="43.7723" lon="6.85524">
        <ele>1117.2</ele>
        <time>2026-05-16T13:01:00Z</time>
      </trkpt>
      <trkpt lat="43.77211" lon="6.85529">
        <ele>1116.8</ele>
        <time>2026-05-16T13:01:01Z</time>
      </trkpt>
      <trkpt lat="43.77191" lon="6.85535">
        <ele>1117</ele>
        <time>2026-05-16T13:01:02Z</time>
      </trkpt>
      <trkpt lat="43.77171" lon="6.8554">
        <ele>1117.2</ele>
        <time>2026-05-16T13:01:03Z</time>
      </trkpt>
      <trkpt lat="43.77151" lon="6.85544">
        <ele>1117.3</ele>
        <time>2026-05-16T13:01:04Z</time>
      </trkpt>
      <trkpt lat="43.7713" lon="6.85548">
        <ele>1117.4</ele>
        <time>2026-05-16T13:01:05Z</time>
      </trkpt>
      <trkpt lat="43.77111" lon="6.85553">
        <ele>1116.9</ele>
        <time>2026-05-16T13:01:06Z</time>
      </trkpt>
      <trkpt lat="43.77091" lon="6.85559">
        <ele>1116.3</ele>
        <time>2026-05-16T13:01:07Z</time>
      </trkpt>
      <trkpt lat="43.77071" lon="6.85565">
        <ele>1116</ele>
        <time>2026-05-16T13:01:08Z</time>
      </trkpt>
      <trkpt lat="43.7705" lon="6.85572">
        <ele>1115.9</ele>
        <time>2026-05-16T13:01:09Z</time>
      </trkpt>
      <trkpt lat="43.7703" lon="6.85579">
        <ele>1116</ele>
        <time>2026-05-16T13:01:10Z</time>
      </trkpt>
      <trkpt lat="43.77009" lon="6.85587">
        <ele>1115.5</ele>
        <time>2026-05-16T13:01:11Z</time>
      </trkpt>
      <trkpt lat="43.76988" lon="6.85596">
        <ele>1115.8</ele>
        <time>2026-05-16T13:01:12Z</time>
      </trkpt>
      <trkpt lat="43.76967" lon="6.85604">
        <ele>1116.2</ele>
        <time>2026-05-16T13:01:13Z</time>
      </trkpt>
      <trkpt lat="43.76946" lon="6.85612">
        <ele>1115.7</ele>
        <time>2026-05-16T13:01:14Z</time>
      </trkpt>
      <trkpt lat="43.76923" lon="6.85621">
        <ele>1115.5</ele>
        <time>2026-05-16T13:01:15Z</time>
      </trkpt>
      <trkpt lat="43.76901" lon="6.8563">
        <ele>1115.3</ele>
        <time>2026-05-16T13:01:16Z</time>
      </trkpt>
      <trkpt lat="43.76879" lon="6.85638">
        <ele>1115.3</ele>
        <time>2026-05-16T13:01:17Z</time>
      </trkpt>
      <trkpt lat="43.76856" lon="6.85645">
        <ele>1115.6</ele>
        <time>2026-05-16T13:01:18Z</time>
      </trkpt>
      <trkpt lat="43.76833" lon="6.85653">
        <ele>1114.5</ele>
        <time>2026-05-16T13:01:19Z</time>
      </trkpt>
      <trkpt lat="43.76811" lon="6.8566">
        <ele>1114</ele>
        <time>2026-05-16T13:01:20Z</time>
      </trkpt>
      <trkpt lat="43.7679" lon="6.85666">
        <ele>1113.4</ele>
        <time>2026-05-16T13:01:21Z</time>
      </trkpt>
      <trkpt lat="43.76769" lon="6.85671">
        <ele>1113</ele>
        <time>2026-05-16T13:01:22Z</time>
      </trkpt>
      <trkpt lat="43.76748" lon="6.85672">
        <ele>1113.2</ele>
        <time>2026-05-16T13:01:23Z</time>
      </trkpt>
      <trkpt lat="43.76728" lon="6.85669">
        <ele>1113.5</ele>
        <time>2026-05-16T13:01:24Z</time>
      </trkpt>
      <trkpt lat="43.76707" lon="6.85663">
        <ele>1113</ele>
        <time>2026-05-16T13:01:25Z</time>
      </trkpt>
      <trkpt lat="43.76687" lon="6.85654">
        <ele>1112.9</ele>
        <time>2026-05-16T13:01:26Z</time>
      </trkpt>
      <trkpt lat="43.76666" lon="6.85643">
        <ele>1112.7</ele>
        <time>2026-05-16T13:01:27Z</time>
      </trkpt>
      <trkpt lat="43.76645" lon="6.85631">
        <ele>1113.2</ele>
        <time>2026-05-16T13:01:28Z</time>
      </trkpt>
      <trkpt lat="43.76624" lon="6.85619">
        <ele>1113.2</ele>
        <time>2026-05-16T13:01:29Z</time>
      </trkpt>
      <trkpt lat="43.76603" lon="6.85607">
        <ele>1113.4</ele>
        <time>2026-05-16T13:01:30Z</time>
      </trkpt>
      <trkpt lat="43.7658" lon="6.85597">
        <ele>1113.2</ele>
        <time>2026-05-16T13:01:31Z</time>
      </trkpt>
      <trkpt lat="43.76557" lon="6.85588">
        <ele>1113</ele>
        <time>2026-05-16T13:01:32Z</time>
      </trkpt>
      <trkpt lat="43.76535" lon="6.8558">
        <ele>1113.5</ele>
        <time>2026-05-16T13:01:33Z</time>
      </trkpt>
      <trkpt lat="43.76512" lon="6.85577">
        <ele>1113.1</ele>
        <time>2026-05-16T13:01:34Z</time>
      </trkpt>
      <trkpt lat="43.76491" lon="6.85575">
        <ele>1113.4</ele>
        <time>2026-05-16T13:01:35Z</time>
      </trkpt>
      <trkpt lat="43.7647" lon="6.85577">
        <ele>1113.8</ele>
        <time>2026-05-16T13:01:36Z</time>
      </trkpt>
      <trkpt lat="43.76451" lon="6.85584">
        <ele>1113.4</ele>
        <time>2026-05-16T13:01:37Z</time>
      </trkpt>
      <trkpt lat="43.76433" lon="6.85595">
        <ele>1113.1</ele>
        <time>2026-05-16T13:01:38Z</time>
      </trkpt>
      <trkpt lat="43.76415" lon="6.85605">
        <ele>1113.6</ele>
        <time>2026-05-16T13:01:39Z</time>
      </trkpt>
      <trkpt lat="43.76397" lon="6.85613">
        <ele>1115.1</ele>
        <time>2026-05-16T13:01:40Z</time>
      </trkpt>
      <trkpt lat="43.7638" lon="6.85625">
        <ele>1116.2</ele>
        <time>2026-05-16T13:01:41Z</time>
      </trkpt>
      <trkpt lat="43.76364" lon="6.85642">
        <ele>1116.5</ele>
        <time>2026-05-16T13:01:42Z</time>
      </trkpt>
      <trkpt lat="43.7635" lon="6.85661">
        <ele>1116</ele>
        <time>2026-05-16T13:01:43Z</time>
      </trkpt>
      <trkpt lat="43.76337" lon="6.85683">
        <ele>1114.7</ele>
        <time>2026-05-16T13:01:44Z</time>
      </trkpt>
      <trkpt lat="43.76324" lon="6.85706">
        <ele>1113.6</ele>
        <time>2026-05-16T13:01:45Z</time>
      </trkpt>
      <trkpt lat="43.76311" lon="6.85729">
        <ele>1113.2</ele>
        <time>2026-05-16T13:01:46Z</time>
      </trkpt>
      <trkpt lat="43.76299" lon="6.85751">
        <ele>1112.6</ele>
        <time>2026-05-16T13:01:47Z</time>
      </trkpt>
      <trkpt lat="43.76288" lon="6.85772">
        <ele>1112</ele>
        <time>2026-05-16T13:01:48Z</time>
      </trkpt>
      <trkpt lat="43.76276" lon="6.85792">
        <ele>1111</ele>
        <time>2026-05-16T13:01:49Z</time>
      </trkpt>
      <trkpt lat="43.76263" lon="6.85806">
        <ele>1110.1</ele>
        <time>2026-05-16T13:01:50Z</time>
      </trkpt>
      <trkpt lat="43.7625" lon="6.85814">
        <ele>1111</ele>
        <time>2026-05-16T13:01:51Z</time>
      </trkpt>
      <trkpt lat="43.76234" lon="6.85819">
        <ele>1111.5</ele>
        <time>2026-05-16T13:01:52Z</time>
      </trkpt>
      <trkpt lat="43.76219" lon="6.85824">
        <ele>1111.7</ele>
        <time>2026-05-16T13:01:53Z</time>
      </trkpt>
      <trkpt lat="43.76202" lon="6.85827">
        <ele>1112.9</ele>
        <time>2026-05-16T13:01:54Z</time>
      </trkpt>
      <trkpt lat="43.76186" lon="6.85833">
        <ele>1113.6</ele>
        <time>2026-05-16T13:01:55Z</time>
      </trkpt>
      <trkpt lat="43.76172" lon="6.85843">
        <ele>1113.9</ele>
        <time>2026-05-16T13:01:56Z</time>
      </trkpt>
      <trkpt lat="43.76162" lon="6.85857">
        <ele>1112.4</ele>
        <time>2026-05-16T13:01:57Z</time>
      </trkpt>
      <trkpt lat="43.76155" lon="6.85875">
        <ele>1109.8</ele>
        <time>2026-05-16T13:01:58Z</time>
      </trkpt>
      <trkpt lat="43.76148" lon="6.85894">
        <ele>1107.7</ele>
        <time>2026-05-16T13:01:59Z</time>
      </trkpt>
      <trkpt lat="43.7614" lon="6.85914">
        <ele>1107.9</ele>
        <time>2026-05-16T13:02:00Z</time>
      </trkpt>
      <trkpt lat="43.76133" lon="6.85934">
        <ele>1107.9</ele>
        <time>2026-05-16T13:02:01Z</time>
      </trkpt>
      <trkpt lat="43.76125" lon="6.85954">
        <ele>1108.3</ele>
        <time>2026-05-16T13:02:02Z</time>
      </trkpt>
      <trkpt lat="43.76116" lon="6.85973">
        <ele>1108.9</ele>
        <time>2026-05-16T13:02:03Z</time>
      </trkpt>
      <trkpt lat="43.76105" lon="6.85987">
        <ele>1109.1</ele>
        <time>2026-05-16T13:02:04Z</time>
      </trkpt>
      <trkpt lat="43.76094" lon="6.85993">
        <ele>1108.8</ele>
        <time>2026-05-16T13:02:05Z</time>
      </trkpt>
      <trkpt lat="43.76083" lon="6.85992">
        <ele>1109.1</ele>
        <time>2026-05-16T13:02:06Z</time>
      </trkpt>
      <trkpt lat="43.76073" lon="6.85987">
        <ele>1109</ele>
        <time>2026-05-16T13:02:07Z</time>
      </trkpt>
      <trkpt lat="43.76062" lon="6.85978">
        <ele>1109</ele>
        <time>2026-05-16T13:02:08Z</time>
      </trkpt>
      <trkpt lat="43.76051" lon="6.85968">
        <ele>1109.6</ele>
        <time>2026-05-16T13:02:09Z</time>
      </trkpt>
      <trkpt lat="43.76039" lon="6.85959">
        <ele>1110.5</ele>
        <time>2026-05-16T13:02:10Z</time>
      </trkpt>
      <trkpt lat="43.76026" lon="6.85953">
        <ele>1110.9</ele>
        <time>2026-05-16T13:02:11Z</time>
      </trkpt>
      <trkpt lat="43.76013" lon="6.85952">
        <ele>1111.8</ele>
        <time>2026-05-16T13:02:12Z</time>
      </trkpt>
      <trkpt lat="43.76" lon="6.85955">
        <ele>1112.1</ele>
        <time>2026-05-16T13:02:13Z</time>
      </trkpt>
      <trkpt lat="43.75988" lon="6.85962">
        <ele>1112.7</ele>
        <time>2026-05-16T13:02:14Z</time>
      </trkpt>
      <trkpt lat="43.75978" lon="6.85973">
        <ele>1112</ele>
        <time>2026-05-16T13:02:15Z</time>
      </trkpt>
      <trkpt lat="43.75969" lon="6.85984">
        <ele>1111.3</ele>
        <time>2026-05-16T13:02:16Z</time>
      </trkpt>
      <trkpt lat="43.75963" lon="6.86001">
        <ele>1109.2</ele>
        <time>2026-05-16T13:02:17Z</time>
      </trkpt>
      <trkpt lat="43.75958" lon="6.86019">
        <ele>1107.8</ele>
        <time>2026-05-16T13:02:18Z</time>
      </trkpt>
      <trkpt lat="43.75955" lon="6.86038">
        <ele>1107.1</ele>
        <time>2026-05-16T13:02:19Z</time>
      </trkpt>
      <trkpt lat="43.75953" lon="6.86057">
        <ele>1107.4</ele>
        <time>2026-05-16T13:02:20Z</time>
      </trkpt>
      <trkpt lat="43.75952" lon="6.86078">
        <ele>1107.1</ele>
        <time>2026-05-16T13:02:21Z</time>
      </trkpt>
      <trkpt lat="43.7595" lon="6.86099">
        <ele>1106.9</ele>
        <time>2026-05-16T13:02:22Z</time>
      </trkpt>
      <trkpt lat="43.75946" lon="6.86119">
        <ele>1106.9</ele>
        <time>2026-05-16T13:02:23Z</time>
      </trkpt>
      <trkpt lat="43.7594" lon="6.86138">
        <ele>1106.2</ele>
        <time>2026-05-16T13:02:24Z</time>
      </trkpt>
      <trkpt lat="43.75934" lon="6.86156">
        <ele>1105.7</ele>
        <time>2026-05-16T13:02:25Z</time>
      </trkpt>
      <trkpt lat="43.75926" lon="6.86175">
        <ele>1105.4</ele>
        <time>2026-05-16T13:02:26Z</time>
      </trkpt>
      <trkpt lat="43.75919" lon="6.86194">
        <ele>1105.5</ele>
        <time>2026-05-16T13:02:27Z</time>
      </trkpt>
      <trkpt lat="43.75913" lon="6.86215">
        <ele>1106</ele>
        <time>2026-05-16T13:02:28Z</time>
      </trkpt>
      <trkpt lat="43.75908" lon="6.86237">
        <ele>1106.3</ele>
        <time>2026-05-16T13:02:29Z</time>
      </trkpt>
      <trkpt lat="43.75904" lon="6.86261">
        <ele>1107</ele>
        <time>2026-05-16T13:02:30Z</time>
      </trkpt>
      <trkpt lat="43.75898" lon="6.86284">
        <ele>1106.6</ele>
        <time>2026-05-16T13:02:31Z</time>
      </trkpt>
      <trkpt lat="43.75891" lon="6.86306">
        <ele>1106</ele>
        <time>2026-05-16T13:02:32Z</time>
      </trkpt>
      <trkpt lat="43.75882" lon="6.86327">
        <ele>1106.4</ele>
        <time>2026-05-16T13:02:33Z</time>
      </trkpt>
      <trkpt lat="43.7587" lon="6.86347">
        <ele>1106.5</ele>
        <time>2026-05-16T13:02:34Z</time>
      </trkpt>
      <trkpt lat="43.75856" lon="6.86364">
        <ele>1106.2</ele>
        <time>2026-05-16T13:02:35Z</time>
      </trkpt>
      <trkpt lat="43.75842" lon="6.86382">
        <ele>1106</ele>
        <time>2026-05-16T13:02:36Z</time>
      </trkpt>
      <trkpt lat="43.75829" lon="6.86398">
        <ele>1105.7</ele>
        <time>2026-05-16T13:02:37Z</time>
      </trkpt>
      <trkpt lat="43.75815" lon="6.86414">
        <ele>1105.1</ele>
        <time>2026-05-16T13:02:38Z</time>
      </trkpt>
      <trkpt lat="43.758" lon="6.86429">
        <ele>1104.4</ele>
        <time>2026-05-16T13:02:39Z</time>
      </trkpt>
      <trkpt lat="43.75785" lon="6.86442">
        <ele>1103.4</ele>
        <time>2026-05-16T13:02:40Z</time>
      </trkpt>
      <trkpt lat="43.75771" lon="6.86455">
        <ele>1102.3</ele>
        <time>2026-05-16T13:02:41Z</time>
      </trkpt>
      <trkpt lat="43.75758" lon="6.86468">
        <ele>1101.4</ele>
        <time>2026-05-16T13:02:42Z</time>
      </trkpt>
      <trkpt lat="43.75745" lon="6.86483">
        <ele>1100.3</ele>
        <time>2026-05-16T13:02:43Z</time>
      </trkpt>
      <trkpt lat="43.75735" lon="6.865">
        <ele>1099.6</ele>
        <time>2026-05-16T13:02:44Z</time>
      </trkpt>
      <trkpt lat="43.75727" lon="6.86518">
        <ele>1099.3</ele>
        <time>2026-05-16T13:02:45Z</time>
      </trkpt>
      <trkpt lat="43.7572" lon="6.86537">
        <ele>1099.3</ele>
        <time>2026-05-16T13:02:46Z</time>
      </trkpt>
      <trkpt lat="43.75712" lon="6.86557">
        <ele>1098.9</ele>
        <time>2026-05-16T13:02:47Z</time>
      </trkpt>
      <trkpt lat="43.75703" lon="6.86575">
        <ele>1099.1</ele>
        <time>2026-05-16T13:02:48Z</time>
      </trkpt>
      <trkpt lat="43.75693" lon="6.86594">
        <ele>1099.1</ele>
        <time>2026-05-16T13:02:49Z</time>
      </trkpt>
      <trkpt lat="43.75682" lon="6.8661">
        <ele>1097.8</ele>
        <time>2026-05-16T13:02:50Z</time>
      </trkpt>
      <trkpt lat="43.75671" lon="6.86627">
        <ele>1097.4</ele>
        <time>2026-05-16T13:02:51Z</time>
      </trkpt>
      <trkpt lat="43.7566" lon="6.86643">
        <ele>1096.9</ele>
        <time>2026-05-16T13:02:52Z</time>
      </trkpt>
      <trkpt lat="43.7565" lon="6.86658">
        <ele>1096.9</ele>
        <time>2026-05-16T13:02:53Z</time>
      </trkpt>
      <trkpt lat="43.7564" lon="6.86673">
        <ele>1096.7</ele>
        <time>2026-05-16T13:02:54Z</time>
      </trkpt>
      <trkpt lat="43.75629" lon="6.86687">
        <ele>1097</ele>
        <time>2026-05-16T13:02:55Z</time>
      </trkpt>
      <trkpt lat="43.75617" lon="6.86699">
        <ele>1096.5</ele>
        <time>2026-05-16T13:02:56Z</time>
      </trkpt>
      <trkpt lat="43.75604" lon="6.86709">
        <ele>1096</ele>
        <time>2026-05-16T13:02:57Z</time>
      </trkpt>
      <trkpt lat="43.75592" lon="6.86718">
        <ele>1095.8</ele>
        <time>2026-05-16T13:02:58Z</time>
      </trkpt>
      <trkpt lat="43.75579" lon="6.86727">
        <ele>1095.2</ele>
        <time>2026-05-16T13:02:59Z</time>
      </trkpt>
      <trkpt lat="43.75566" lon="6.86736">
        <ele>1095</ele>
        <time>2026-05-16T13:03:00Z</time>
      </trkpt>
      <trkpt lat="43.75554" lon="6.86746">
        <ele>1095</ele>
        <time>2026-05-16T13:03:01Z</time>
      </trkpt>
      <trkpt lat="43.75544" lon="6.86759">
        <ele>1094.3</ele>
        <time>2026-05-16T13:03:02Z</time>
      </trkpt>
      <trkpt lat="43.75534" lon="6.86775">
        <ele>1093.3</ele>
        <time>2026-05-16T13:03:03Z</time>
      </trkpt>
      <trkpt lat="43.75527" lon="6.86794">
        <ele>1092.9</ele>
        <time>2026-05-16T13:03:04Z</time>
      </trkpt>
      <trkpt lat="43.7552" lon="6.86814">
        <ele>1092.1</ele>
        <time>2026-05-16T13:03:05Z</time>
      </trkpt>
      <trkpt lat="43.75513" lon="6.86834">
        <ele>1091.3</ele>
        <time>2026-05-16T13:03:06Z</time>
      </trkpt>
      <trkpt lat="43.75506" lon="6.86855">
        <ele>1090.8</ele>
        <time>2026-05-16T13:03:07Z</time>
      </trkpt>
      <trkpt lat="43.75498" lon="6.86874">
        <ele>1090.8</ele>
        <time>2026-05-16T13:03:08Z</time>
      </trkpt>
      <trkpt lat="43.75487" lon="6.8689">
        <ele>1090.5</ele>
        <time>2026-05-16T13:03:09Z</time>
      </trkpt>
      <trkpt lat="43.75476" lon="6.86905">
        <ele>1090.1</ele>
        <time>2026-05-16T13:03:10Z</time>
      </trkpt>
      <trkpt lat="43.75465" lon="6.86919">
        <ele>1089.7</ele>
        <time>2026-05-16T13:03:11Z</time>
      </trkpt>
      <trkpt lat="43.75455" lon="6.86933">
        <ele>1089.8</ele>
        <time>2026-05-16T13:03:12Z</time>
      </trkpt>
      <trkpt lat="43.75443" lon="6.86947">
        <ele>1089</ele>
        <time>2026-05-16T13:03:13Z</time>
      </trkpt>
      <trkpt lat="43.75432" lon="6.86961">
        <ele>1088.4</ele>
        <time>2026-05-16T13:03:14Z</time>
      </trkpt>
      <trkpt lat="43.7542" lon="6.86973">
        <ele>1087.2</ele>
        <time>2026-05-16T13:03:15Z</time>
      </trkpt>
      <trkpt lat="43.75408" lon="6.86984">
        <ele>1087</ele>
        <time>2026-05-16T13:03:16Z</time>
      </trkpt>
      <trkpt lat="43.75395" lon="6.86994">
        <ele>1086.2</ele>
        <time>2026-05-16T13:03:17Z</time>
      </trkpt>
      <trkpt lat="43.75382" lon="6.87001">
        <ele>1085.5</ele>
        <time>2026-05-16T13:03:18Z</time>
      </trkpt>
      <trkpt lat="43.75368" lon="6.87004">
        <ele>1084.6</ele>
        <time>2026-05-16T13:03:19Z</time>
      </trkpt>
      <trkpt lat="43.75354" lon="6.87004">
        <ele>1083.8</ele>
        <time>2026-05-16T13:03:20Z</time>
      </trkpt>
      <trkpt lat="43.75339" lon="6.87002">
        <ele>1083.4</ele>
        <time>2026-05-16T13:03:21Z</time>
      </trkpt>
      <trkpt lat="43.75325" lon="6.87002">
        <ele>1082.8</ele>
        <time>2026-05-16T13:03:22Z</time>
      </trkpt>
      <trkpt lat="43.75309" lon="6.87005">
        <ele>1082.1</ele>
        <time>2026-05-16T13:03:23Z</time>
      </trkpt>
      <trkpt lat="43.75295" lon="6.87011">
        <ele>1081.8</ele>
        <time>2026-05-16T13:03:24Z</time>
      </trkpt>
      <trkpt lat="43.7528" lon="6.87017">
        <ele>1081.3</ele>
        <time>2026-05-16T13:03:25Z</time>
      </trkpt>
      <trkpt lat="43.75266" lon="6.87022">
        <ele>1080.9</ele>
        <time>2026-05-16T13:03:26Z</time>
      </trkpt>
      <trkpt lat="43.75251" lon="6.87025">
        <ele>1079.8</ele>
        <time>2026-05-16T13:03:27Z</time>
      </trkpt>
      <trkpt lat="43.75236" lon="6.87028">
        <ele>1079.5</ele>
        <time>2026-05-16T13:03:28Z</time>
      </trkpt>
      <trkpt lat="43.75222" lon="6.87032">
        <ele>1079.5</ele>
        <time>2026-05-16T13:03:29Z</time>
      </trkpt>
      <trkpt lat="43.75209" lon="6.87038">
        <ele>1077.2</ele>
        <time>2026-05-16T13:03:30Z</time>
      </trkpt>
      <trkpt lat="43.75197" lon="6.87049">
        <ele>1076.9</ele>
        <time>2026-05-16T13:03:31Z</time>
      </trkpt>
      <trkpt lat="43.75189" lon="6.87064">
        <ele>1075.8</ele>
        <time>2026-05-16T13:03:32Z</time>
      </trkpt>
      <trkpt lat="43.75181" lon="6.87081">
        <ele>1074.7</ele>
        <time>2026-05-16T13:03:33Z</time>
      </trkpt>
      <trkpt lat="43.75174" lon="6.871">
        <ele>1075</ele>
        <time>2026-05-16T13:03:34Z</time>
      </trkpt>
      <trkpt lat="43.75165" lon="6.87117">
        <ele>1074.4</ele>
        <time>2026-05-16T13:03:35Z</time>
      </trkpt>
      <trkpt lat="43.75156" lon="6.87134">
        <ele>1073.8</ele>
        <time>2026-05-16T13:03:36Z</time>
      </trkpt>
      <trkpt lat="43.75147" lon="6.87151">
        <ele>1074.2</ele>
        <time>2026-05-16T13:03:37Z</time>
      </trkpt>
      <trkpt lat="43.75137" lon="6.87166">
        <ele>1073.9</ele>
        <time>2026-05-16T13:03:38Z</time>
      </trkpt>
      <trkpt lat="43.75127" lon="6.87181">
        <ele>1072.8</ele>
        <time>2026-05-16T13:03:39Z</time>
      </trkpt>
      <trkpt lat="43.75117" lon="6.87195">
        <ele>1071.1</ele>
        <time>2026-05-16T13:03:40Z</time>
      </trkpt>
      <trkpt lat="43.75109" lon="6.8721">
        <ele>1071.9</ele>
        <time>2026-05-16T13:03:41Z</time>
      </trkpt>
      <trkpt lat="43.75102" lon="6.87225">
        <ele>1072.9</ele>
        <time>2026-05-16T13:03:42Z</time>
      </trkpt>
      <trkpt lat="43.75096" lon="6.87239">
        <ele>1073</ele>
        <time>2026-05-16T13:03:43Z</time>
      </trkpt>
      <trkpt lat="43.75091" lon="6.8725">
        <ele>1072.6</ele>
        <time>2026-05-16T13:03:44Z</time>
      </trkpt>
      <trkpt lat="43.75086" lon="6.87257">
        <ele>1071.8</ele>
        <time>2026-05-16T13:03:45Z</time>
      </trkpt>
      <trkpt lat="43.75079" lon="6.87259">
        <ele>1070.5</ele>
        <time>2026-05-16T13:03:46Z</time>
      </trkpt>
      <trkpt lat="43.75072" lon="6.87256">
        <ele>1069.4</ele>
        <time>2026-05-16T13:03:47Z</time>
      </trkpt>
      <trkpt lat="43.75065" lon="6.87248">
        <ele>1068.3</ele>
        <time>2026-05-16T13:03:48Z</time>
      </trkpt>
      <trkpt lat="43.75061" lon="6.87238">
        <ele>1068.6</ele>
        <time>2026-05-16T13:03:49Z</time>
      </trkpt>
      <trkpt lat="43.7506" lon="6.87226">
        <ele>1069.1</ele>
        <time>2026-05-16T13:03:50Z</time>
      </trkpt>
      <trkpt lat="43.75066" lon="6.87207">
        <ele>1068.6</ele>
        <time>2026-05-16T13:03:51Z</time>
      </trkpt>
      <trkpt lat="43.75071" lon="6.87189">
        <ele>1067.8</ele>
        <time>2026-05-16T13:03:52Z</time>
      </trkpt>
      <trkpt lat="43.75076" lon="6.87169">
        <ele>1067.3</ele>
        <time>2026-05-16T13:03:53Z</time>
      </trkpt>
      <trkpt lat="43.75081" lon="6.87149">
        <ele>1067.7</ele>
        <time>2026-05-16T13:03:54Z</time>
      </trkpt>
      <trkpt lat="43.75087" lon="6.87128">
        <ele>1067.7</ele>
        <time>2026-05-16T13:03:55Z</time>
      </trkpt>
      <trkpt lat="43.75093" lon="6.87106">
        <ele>1067.4</ele>
        <time>2026-05-16T13:03:56Z</time>
      </trkpt>
      <trkpt lat="43.75098" lon="6.87084">
        <ele>1068.2</ele>
        <time>2026-05-16T13:03:57Z</time>
      </trkpt>
      <trkpt lat="43.75104" lon="6.87062">
        <ele>1068</ele>
        <time>2026-05-16T13:03:58Z</time>
      </trkpt>
      <trkpt lat="43.7511" lon="6.87041">
        <ele>1067.4</ele>
        <time>2026-05-16T13:03:59Z</time>
      </trkpt>
      <trkpt lat="43.75114" lon="6.8702">
        <ele>1067.8</ele>
        <time>2026-05-16T13:04:00Z</time>
      </trkpt>
      <trkpt lat="43.75118" lon="6.87">
        <ele>1068.5</ele>
        <time>2026-05-16T13:04:01Z</time>
      </trkpt>
      <trkpt lat="43.7512" lon="6.86981">
        <ele>1068.5</ele>
        <time>2026-05-16T13:04:02Z</time>
      </trkpt>
      <trkpt lat="43.75119" lon="6.86962">
        <ele>1068.6</ele>
        <time>2026-05-16T13:04:03Z</time>
      </trkpt>
      <trkpt lat="43.75113" lon="6.86947">
        <ele>1068.9</ele>
        <time>2026-05-16T13:04:04Z</time>
      </trkpt>
      <trkpt lat="43.75105" lon="6.86932">
        <ele>1068.5</ele>
        <time>2026-05-16T13:04:05Z</time>
      </trkpt>
      <trkpt lat="43.75096" lon="6.86919">
        <ele>1067.3</ele>
        <time>2026-05-16T13:04:06Z</time>
      </trkpt>
      <trkpt lat="43.7508" lon="6.86917">
        <ele>1066.7</ele>
        <time>2026-05-16T13:04:07Z</time>
      </trkpt>
      <trkpt lat="43.75066" lon="6.86919">
        <ele>1065.7</ele>
        <time>2026-05-16T13:04:08Z</time>
      </trkpt>
      <trkpt lat="43.75052" lon="6.86925">
        <ele>1065.5</ele>
        <time>2026-05-16T13:04:09Z</time>
      </trkpt>
      <trkpt lat="43.75037" lon="6.86935">
        <ele>1065.3</ele>
        <time>2026-05-16T13:04:10Z</time>
      </trkpt>
      <trkpt lat="43.75023" lon="6.86946">
        <ele>1065</ele>
        <time>2026-05-16T13:04:11Z</time>
      </trkpt>
      <trkpt lat="43.75008" lon="6.86959">
        <ele>1064.3</ele>
        <time>2026-05-16T13:04:12Z</time>
      </trkpt>
      <trkpt lat="43.74995" lon="6.86973">
        <ele>1064</ele>
        <time>2026-05-16T13:04:13Z</time>
      </trkpt>
      <trkpt lat="43.74983" lon="6.86988">
        <ele>1063.3</ele>
        <time>2026-05-16T13:04:14Z</time>
      </trkpt>
      <trkpt lat="43.74971" lon="6.87004">
        <ele>1063.6</ele>
        <time>2026-05-16T13:04:15Z</time>
      </trkpt>
      <trkpt lat="43.74959" lon="6.87019">
        <ele>1062.6</ele>
        <time>2026-05-16T13:04:16Z</time>
      </trkpt>
      <trkpt lat="43.74947" lon="6.87033">
        <ele>1061.8</ele>
        <time>2026-05-16T13:04:17Z</time>
      </trkpt>
      <trkpt lat="43.74935" lon="6.87045">
        <ele>1061.9</ele>
        <time>2026-05-16T13:04:18Z</time>
      </trkpt>
      <trkpt lat="43.74922" lon="6.87055">
        <ele>1062.1</ele>
        <time>2026-05-16T13:04:19Z</time>
      </trkpt>
      <trkpt lat="43.74909" lon="6.8706">
        <ele>1061.9</ele>
        <time>2026-05-16T13:04:20Z</time>
      </trkpt>
      <trkpt lat="43.74894" lon="6.87059">
        <ele>1059.9</ele>
        <time>2026-05-16T13:04:21Z</time>
      </trkpt>
      <trkpt lat="43.74878" lon="6.87057">
        <ele>1058.6</ele>
        <time>2026-05-16T13:04:22Z</time>
      </trkpt>
      <trkpt lat="43.74863" lon="6.87055">
        <ele>1057.8</ele>
        <time>2026-05-16T13:04:23Z</time>
      </trkpt>
      <trkpt lat="43.74847" lon="6.87053">
        <ele>1056.9</ele>
        <time>2026-05-16T13:04:24Z</time>
      </trkpt>
      <trkpt lat="43.74832" lon="6.87054">
        <ele>1057.3</ele>
        <time>2026-05-16T13:04:25Z</time>
      </trkpt>
      <trkpt lat="43.74817" lon="6.87056">
        <ele>1057.6</ele>
        <time>2026-05-16T13:04:26Z</time>
      </trkpt>
      <trkpt lat="43.74803" lon="6.87059">
        <ele>1058.1</ele>
        <time>2026-05-16T13:04:27Z</time>
      </trkpt>
      <trkpt lat="43.74789" lon="6.87063">
        <ele>1058</ele>
        <time>2026-05-16T13:04:28Z</time>
      </trkpt>
      <trkpt lat="43.74775" lon="6.87068">
        <ele>1058.1</ele>
        <time>2026-05-16T13:04:29Z</time>
      </trkpt>
      <trkpt lat="43.74762" lon="6.87072">
        <ele>1057.9</ele>
        <time>2026-05-16T13:04:30Z</time>
      </trkpt>
      <trkpt lat="43.74749" lon="6.87075">
        <ele>1057.3</ele>
        <time>2026-05-16T13:04:31Z</time>
      </trkpt>
      <trkpt lat="43.74736" lon="6.87073">
        <ele>1056.1</ele>
        <time>2026-05-16T13:04:32Z</time>
      </trkpt>
      <trkpt lat="43.74724" lon="6.87072">
        <ele>1055.4</ele>
        <time>2026-05-16T13:04:33Z</time>
      </trkpt>
      <trkpt lat="43.7471" lon="6.87068">
        <ele>1053.8</ele>
        <time>2026-05-16T13:04:34Z</time>
      </trkpt>
      <trkpt lat="43.74696" lon="6.87067">
        <ele>1053.2</ele>
        <time>2026-05-16T13:04:35Z</time>
      </trkpt>
      <trkpt lat="43.74684" lon="6.87072">
        <ele>1054.5</ele>
        <time>2026-05-16T13:04:36Z</time>
      </trkpt>
      <trkpt lat="43.74671" lon="6.87075">
        <ele>1055.2</ele>
        <time>2026-05-16T13:04:37Z</time>
      </trkpt>
      <trkpt lat="43.74658" lon="6.87076">
        <ele>1055.1</ele>
        <time>2026-05-16T13:04:38Z</time>
      </trkpt>
      <trkpt lat="43.74644" lon="6.87075">
        <ele>1054.4</ele>
        <time>2026-05-16T13:04:39Z</time>
      </trkpt>
      <trkpt lat="43.74631" lon="6.8707">
        <ele>1053.2</ele>
        <time>2026-05-16T13:04:40Z</time>
      </trkpt>
      <trkpt lat="43.74618" lon="6.87062">
        <ele>1051.6</ele>
        <time>2026-05-16T13:04:41Z</time>
      </trkpt>
      <trkpt lat="43.74607" lon="6.87052">
        <ele>1049.2</ele>
        <time>2026-05-16T13:04:42Z</time>
      </trkpt>
      <trkpt lat="43.74596" lon="6.87041">
        <ele>1046.9</ele>
        <time>2026-05-16T13:04:43Z</time>
      </trkpt>
      <trkpt lat="43.74585" lon="6.87033">
        <ele>1046</ele>
        <time>2026-05-16T13:04:44Z</time>
      </trkpt>
      <trkpt lat="43.74575" lon="6.87026">
        <ele>1044.9</ele>
        <time>2026-05-16T13:04:45Z</time>
      </trkpt>
      <trkpt lat="43.74566" lon="6.8702">
        <ele>1044</ele>
        <time>2026-05-16T13:04:46Z</time>
      </trkpt>
      <trkpt lat="43.74556" lon="6.87016">
        <ele>1043.9</ele>
        <time>2026-05-16T13:04:47Z</time>
      </trkpt>
      <trkpt lat="43.74545" lon="6.87016">
        <ele>1043.3</ele>
        <time>2026-05-16T13:04:48Z</time>
      </trkpt>
      <trkpt lat="43.74534" lon="6.8702">
        <ele>1043.6</ele>
        <time>2026-05-16T13:04:49Z</time>
      </trkpt>
      <trkpt lat="43.74522" lon="6.87024">
        <ele>1043.5</ele>
        <time>2026-05-16T13:04:50Z</time>
      </trkpt>
      <trkpt lat="43.74509" lon="6.87028">
        <ele>1043</ele>
        <time>2026-05-16T13:04:51Z</time>
      </trkpt>
      <trkpt lat="43.74496" lon="6.87034">
        <ele>1043</ele>
        <time>2026-05-16T13:04:52Z</time>
      </trkpt>
      <trkpt lat="43.74484" lon="6.87039">
        <ele>1042</ele>
        <time>2026-05-16T13:04:53Z</time>
      </trkpt>
      <trkpt lat="43.74472" lon="6.87044">
        <ele>1041.2</ele>
        <time>2026-05-16T13:04:54Z</time>
      </trkpt>
      <trkpt lat="43.74461" lon="6.87053">
        <ele>1040.9</ele>
        <time>2026-05-16T13:04:55Z</time>
      </trkpt>
      <trkpt lat="43.74452" lon="6.87065">
        <ele>1042.1</ele>
        <time>2026-05-16T13:04:56Z</time>
      </trkpt>
      <trkpt lat="43.74443" lon="6.87078">
        <ele>1043.9</ele>
        <time>2026-05-16T13:04:57Z</time>
      </trkpt>
      <trkpt lat="43.74433" lon="6.87091">
        <ele>1045</ele>
        <time>2026-05-16T13:04:58Z</time>
      </trkpt>
      <trkpt lat="43.74422" lon="6.87101">
        <ele>1045.1</ele>
        <time>2026-05-16T13:04:59Z</time>
      </trkpt>
      <trkpt lat="43.74408" lon="6.87107">
        <ele>1044.1</ele>
        <time>2026-05-16T13:05:00Z</time>
      </trkpt>
      <trkpt lat="43.74394" lon="6.87114">
        <ele>1044</ele>
        <time>2026-05-16T13:05:01Z</time>
      </trkpt>
      <trkpt lat="43.74379" lon="6.8712">
        <ele>1043.1</ele>
        <time>2026-05-16T13:05:02Z</time>
      </trkpt>
      <trkpt lat="43.74365" lon="6.87126">
        <ele>1042.2</ele>
        <time>2026-05-16T13:05:03Z</time>
      </trkpt>
      <trkpt lat="43.74351" lon="6.87135">
        <ele>1042.4</ele>
        <time>2026-05-16T13:05:04Z</time>
      </trkpt>
      <trkpt lat="43.74337" lon="6.87144">
        <ele>1042.6</ele>
        <time>2026-05-16T13:05:05Z</time>
      </trkpt>
      <trkpt lat="43.74324" lon="6.87151">
        <ele>1042.8</ele>
        <time>2026-05-16T13:05:06Z</time>
      </trkpt>
      <trkpt lat="43.74309" lon="6.87156">
        <ele>1042.3</ele>
        <time>2026-05-16T13:05:07Z</time>
      </trkpt>
      <trkpt lat="43.74296" lon="6.87159">
        <ele>1042.2</ele>
        <time>2026-05-16T13:05:08Z</time>
      </trkpt>
      <trkpt lat="43.74282" lon="6.87159">
        <ele>1041</ele>
        <time>2026-05-16T13:05:09Z</time>
      </trkpt>
      <trkpt lat="43.74268" lon="6.87161">
        <ele>1040.5</ele>
        <time>2026-05-16T13:05:10Z</time>
      </trkpt>
      <trkpt lat="43.74255" lon="6.87163">
        <ele>1040</ele>
        <time>2026-05-16T13:05:11Z</time>
      </trkpt>
      <trkpt lat="43.74243" lon="6.87167">
        <ele>1039.6</ele>
        <time>2026-05-16T13:05:12Z</time>
      </trkpt>
      <trkpt lat="43.74231" lon="6.87173">
        <ele>1039.2</ele>
        <time>2026-05-16T13:05:13Z</time>
      </trkpt>
      <trkpt lat="43.74222" lon="6.87182">
        <ele>1039.9</ele>
        <time>2026-05-16T13:05:14Z</time>
      </trkpt>
      <trkpt lat="43.74214" lon="6.87195">
        <ele>1040</ele>
        <time>2026-05-16T13:05:15Z</time>
      </trkpt>
      <trkpt lat="43.74206" lon="6.8721">
        <ele>1039.4</ele>
        <time>2026-05-16T13:05:16Z</time>
      </trkpt>
      <trkpt lat="43.74198" lon="6.87226">
        <ele>1038.6</ele>
        <time>2026-05-16T13:05:17Z</time>
      </trkpt>
      <trkpt lat="43.7419" lon="6.87243">
        <ele>1037.7</ele>
        <time>2026-05-16T13:05:18Z</time>
      </trkpt>
      <trkpt lat="43.7418" lon="6.8726">
        <ele>1037.5</ele>
        <time>2026-05-16T13:05:19Z</time>
      </trkpt>
      <trkpt lat="43.74172" lon="6.87276">
        <ele>1038.6</ele>
        <time>2026-05-16T13:05:20Z</time>
      </trkpt>
      <trkpt lat="43.74163" lon="6.87292">
        <ele>1038</ele>
        <time>2026-05-16T13:05:21Z</time>
      </trkpt>
      <trkpt lat="43.74154" lon="6.87307">
        <ele>1037.1</ele>
        <time>2026-05-16T13:05:22Z</time>
      </trkpt>
      <trkpt lat="43.74145" lon="6.87322">
        <ele>1037.6</ele>
        <time>2026-05-16T13:05:23Z</time>
      </trkpt>
      <trkpt lat="43.74136" lon="6.87336">
        <ele>1038.3</ele>
        <time>2026-05-16T13:05:24Z</time>
      </trkpt>
      <trkpt lat="43.74128" lon="6.87349">
        <ele>1038.5</ele>
        <time>2026-05-16T13:05:25Z</time>
      </trkpt>
      <trkpt lat="43.74119" lon="6.87362">
        <ele>1039.1</ele>
        <time>2026-05-16T13:05:26Z</time>
      </trkpt>
      <trkpt lat="43.7411" lon="6.87374">
        <ele>1038.6</ele>
        <time>2026-05-16T13:05:27Z</time>
      </trkpt>
      <trkpt lat="43.74102" lon="6.87386">
        <ele>1037</ele>
        <time>2026-05-16T13:05:28Z</time>
      </trkpt>
      <trkpt lat="43.74095" lon="6.87399">
        <ele>1036.1</ele>
        <time>2026-05-16T13:05:29Z</time>
      </trkpt>
      <trkpt lat="43.74089" lon="6.87411">
        <ele>1035.2</ele>
        <time>2026-05-16T13:05:30Z</time>
      </trkpt>
      <trkpt lat="43.74085" lon="6.87424">
        <ele>1035.3</ele>
        <time>2026-05-16T13:05:31Z</time>
      </trkpt>
      <trkpt lat="43.7408" lon="6.87436">
        <ele>1035.5</ele>
        <time>2026-05-16T13:05:32Z</time>
      </trkpt>
      <trkpt lat="43.74072" lon="6.87445">
        <ele>1035.3</ele>
        <time>2026-05-16T13:05:33Z</time>
      </trkpt>
      <trkpt lat="43.74063" lon="6.87452">
        <ele>1035.6</ele>
        <time>2026-05-16T13:05:34Z</time>
      </trkpt>
      <trkpt lat="43.74053" lon="6.87456">
        <ele>1035.6</ele>
        <time>2026-05-16T13:05:35Z</time>
      </trkpt>
      <trkpt lat="43.74041" lon="6.87457">
        <ele>1035.9</ele>
        <time>2026-05-16T13:05:36Z</time>
      </trkpt>
      <trkpt lat="43.74029" lon="6.87457">
        <ele>1035.9</ele>
        <time>2026-05-16T13:05:37Z</time>
      </trkpt>
      <trkpt lat="43.74015" lon="6.87456">
        <ele>1035.1</ele>
        <time>2026-05-16T13:05:38Z</time>
      </trkpt>
      <trkpt lat="43.74002" lon="6.87457">
        <ele>1035.4</ele>
        <time>2026-05-16T13:05:39Z</time>
      </trkpt>
      <trkpt lat="43.73988" lon="6.87458">
        <ele>1035</ele>
        <time>2026-05-16T13:05:40Z</time>
      </trkpt>
      <trkpt lat="43.73974" lon="6.87462">
        <ele>1036</ele>
        <time>2026-05-16T13:05:41Z</time>
      </trkpt>
      <trkpt lat="43.73961" lon="6.87467">
        <ele>1035.9</ele>
        <time>2026-05-16T13:05:42Z</time>
      </trkpt>
      <trkpt lat="43.73948" lon="6.87475">
        <ele>1037.6</ele>
        <time>2026-05-16T13:05:43Z</time>
      </trkpt>
      <trkpt lat="43.73936" lon="6.87482">
        <ele>1038.1</ele>
        <time>2026-05-16T13:05:44Z</time>
      </trkpt>
      <trkpt lat="43.73923" lon="6.87491">
        <ele>1037.6</ele>
        <time>2026-05-16T13:05:45Z</time>
      </trkpt>
      <trkpt lat="43.73912" lon="6.87502">
        <ele>1037.6</ele>
        <time>2026-05-16T13:05:46Z</time>
      </trkpt>
      <trkpt lat="43.73901" lon="6.87515">
        <ele>1037.3</ele>
        <time>2026-05-16T13:05:47Z</time>
      </trkpt>
      <trkpt lat="43.73891" lon="6.87529">
        <ele>1037.5</ele>
        <time>2026-05-16T13:05:48Z</time>
      </trkpt>
      <trkpt lat="43.73882" lon="6.87543">
        <ele>1037.8</ele>
        <time>2026-05-16T13:05:49Z</time>
      </trkpt>
      <trkpt lat="43.73871" lon="6.87557">
        <ele>1037.8</ele>
        <time>2026-05-16T13:05:50Z</time>
      </trkpt>
      <trkpt lat="43.7386" lon="6.87569">
        <ele>1037.9</ele>
        <time>2026-05-16T13:05:51Z</time>
      </trkpt>
      <trkpt lat="43.73848" lon="6.87582">
        <ele>1038.3</ele>
        <time>2026-05-16T13:05:52Z</time>
      </trkpt>
      <trkpt lat="43.73836" lon="6.87592">
        <ele>1037.8</ele>
        <time>2026-05-16T13:05:53Z</time>
      </trkpt>
      <trkpt lat="43.73824" lon="6.87602">
        <ele>1038.7</ele>
        <time>2026-05-16T13:05:54Z</time>
      </trkpt>
      <trkpt lat="43.7381" lon="6.87609">
        <ele>1038.2</ele>
        <time>2026-05-16T13:05:55Z</time>
      </trkpt>
      <trkpt lat="43.73796" lon="6.87614">
        <ele>1038.7</ele>
        <time>2026-05-16T13:05:56Z</time>
      </trkpt>
      <trkpt lat="43.73783" lon="6.87616">
        <ele>1038.7</ele>
        <time>2026-05-16T13:05:57Z</time>
      </trkpt>
      <trkpt lat="43.73769" lon="6.87617">
        <ele>1039.1</ele>
        <time>2026-05-16T13:05:58Z</time>
      </trkpt>
      <trkpt lat="43.73755" lon="6.87615">
        <ele>1038.8</ele>
        <time>2026-05-16T13:05:59Z</time>
      </trkpt>
      <trkpt lat="43.73741" lon="6.87614">
        <ele>1039.4</ele>
        <time>2026-05-16T13:06:00Z</time>
      </trkpt>
      <trkpt lat="43.73726" lon="6.87611">
        <ele>1039.5</ele>
        <time>2026-05-16T13:06:01Z</time>
      </trkpt>
      <trkpt lat="43.7371" lon="6.87607">
        <ele>1039.4</ele>
        <time>2026-05-16T13:06:02Z</time>
      </trkpt>
      <trkpt lat="43.73694" lon="6.87603">
        <ele>1039.3</ele>
        <time>2026-05-16T13:06:03Z</time>
      </trkpt>
      <trkpt lat="43.73678" lon="6.876">
        <ele>1039.6</ele>
        <time>2026-05-16T13:06:04Z</time>
      </trkpt>
      <trkpt lat="43.73663" lon="6.87597">
        <ele>1039.8</ele>
        <time>2026-05-16T13:06:05Z</time>
      </trkpt>
      <trkpt lat="43.73646" lon="6.87593">
        <ele>1039.8</ele>
        <time>2026-05-16T13:06:06Z</time>
      </trkpt>
      <trkpt lat="43.7363" lon="6.8759">
        <ele>1039.8</ele>
        <time>2026-05-16T13:06:07Z</time>
      </trkpt>
      <trkpt lat="43.73613" lon="6.87587">
        <ele>1039.7</ele>
        <time>2026-05-16T13:06:08Z</time>
      </trkpt>
      <trkpt lat="43.73597" lon="6.87583">
        <ele>1039.4</ele>
        <time>2026-05-16T13:06:09Z</time>
      </trkpt>
      <trkpt lat="43.7358" lon="6.87581">
        <ele>1040</ele>
        <time>2026-05-16T13:06:10Z</time>
      </trkpt>
      <trkpt lat="43.73563" lon="6.87579">
        <ele>1039.8</ele>
        <time>2026-05-16T13:06:11Z</time>
      </trkpt>
      <trkpt lat="43.73546" lon="6.87578">
        <ele>1040</ele>
        <time>2026-05-16T13:06:12Z</time>
      </trkpt>
      <trkpt lat="43.73529" lon="6.87579">
        <ele>1040.9</ele>
        <time>2026-05-16T13:06:13Z</time>
      </trkpt>
      <trkpt lat="43.73512" lon="6.87582">
        <ele>1041.3</ele>
        <time>2026-05-16T13:06:14Z</time>
      </trkpt>
      <trkpt lat="43.73496" lon="6.87585">
        <ele>1041.8</ele>
        <time>2026-05-16T13:06:15Z</time>
      </trkpt>
      <trkpt lat="43.7348" lon="6.87589">
        <ele>1043.5</ele>
        <time>2026-05-16T13:06:16Z</time>
      </trkpt>
      <trkpt lat="43.73464" lon="6.87593">
        <ele>1044.9</ele>
        <time>2026-05-16T13:06:17Z</time>
      </trkpt>
      <trkpt lat="43.73447" lon="6.87595">
        <ele>1045.1</ele>
        <time>2026-05-16T13:06:18Z</time>
      </trkpt>
      <trkpt lat="43.7343" lon="6.87595">
        <ele>1045.6</ele>
        <time>2026-05-16T13:06:19Z</time>
      </trkpt>
      <trkpt lat="43.73413" lon="6.87592">
        <ele>1045.4</ele>
        <time>2026-05-16T13:06:20Z</time>
      </trkpt>
      <trkpt lat="43.73396" lon="6.87588">
        <ele>1045.3</ele>
        <time>2026-05-16T13:06:21Z</time>
      </trkpt>
      <trkpt lat="43.73379" lon="6.87583">
        <ele>1044.9</ele>
        <time>2026-05-16T13:06:22Z</time>
      </trkpt>
      <trkpt lat="43.73361" lon="6.87577">
        <ele>1044.5</ele>
        <time>2026-05-16T13:06:23Z</time>
      </trkpt>
      <trkpt lat="43.73342" lon="6.87573">
        <ele>1044.5</ele>
        <time>2026-05-16T13:06:24Z</time>
      </trkpt>
      <trkpt lat="43.73324" lon="6.87569">
        <ele>1044.8</ele>
        <time>2026-05-16T13:06:25Z</time>
      </trkpt>
      <trkpt lat="43.73305" lon="6.87562">
        <ele>1044.4</ele>
        <time>2026-05-16T13:06:26Z</time>
      </trkpt>
      <trkpt lat="43.73287" lon="6.87555">
        <ele>1044.5</ele>
        <time>2026-05-16T13:06:27Z</time>
      </trkpt>
      <trkpt lat="43.7327" lon="6.87548">
        <ele>1044.7</ele>
        <time>2026-05-16T13:06:28Z</time>
      </trkpt>
      <trkpt lat="43.73251" lon="6.87537">
        <ele>1043.8</ele>
        <time>2026-05-16T13:06:29Z</time>
      </trkpt>
      <trkpt lat="43.73232" lon="6.87528">
        <ele>1045</ele>
        <time>2026-05-16T13:06:30Z</time>
      </trkpt>
      <trkpt lat="43.73215" lon="6.87517">
        <ele>1045.2</ele>
        <time>2026-05-16T13:06:31Z</time>
      </trkpt>
      <trkpt lat="43.73198" lon="6.87503">
        <ele>1044.3</ele>
        <time>2026-05-16T13:06:32Z</time>
      </trkpt>
      <trkpt lat="43.73181" lon="6.87488">
        <ele>1043.8</ele>
        <time>2026-05-16T13:06:33Z</time>
      </trkpt>
      <trkpt lat="43.73164" lon="6.87474">
        <ele>1043.4</ele>
        <time>2026-05-16T13:06:34Z</time>
      </trkpt>
      <trkpt lat="43.73147" lon="6.8746">
        <ele>1043.8</ele>
        <time>2026-05-16T13:06:35Z</time>
      </trkpt>
      <trkpt lat="43.7313" lon="6.87446">
        <ele>1044.1</ele>
        <time>2026-05-16T13:06:36Z</time>
      </trkpt>
      <trkpt lat="43.73112" lon="6.87432">
        <ele>1044.3</ele>
        <time>2026-05-16T13:06:37Z</time>
      </trkpt>
      <trkpt lat="43.73095" lon="6.87418">
        <ele>1044.2</ele>
        <time>2026-05-16T13:06:38Z</time>
      </trkpt>
      <trkpt lat="43.73077" lon="6.87404">
        <ele>1044.4</ele>
        <time>2026-05-16T13:06:39Z</time>
      </trkpt>
      <trkpt lat="43.7306" lon="6.87391">
        <ele>1044.5</ele>
        <time>2026-05-16T13:06:40Z</time>
      </trkpt>
      <trkpt lat="43.73042" lon="6.87377">
        <ele>1044.8</ele>
        <time>2026-05-16T13:06:41Z</time>
      </trkpt>
      <trkpt lat="43.73024" lon="6.87364">
        <ele>1045</ele>
        <time>2026-05-16T13:06:42Z</time>
      </trkpt>
      <trkpt lat="43.73005" lon="6.87351">
        <ele>1045.5</ele>
        <time>2026-05-16T13:06:43Z</time>
      </trkpt>
      <trkpt lat="43.72987" lon="6.87338">
        <ele>1045.9</ele>
        <time>2026-05-16T13:06:44Z</time>
      </trkpt>
      <trkpt lat="43.72967" lon="6.87326">
        <ele>1047.3</ele>
        <time>2026-05-16T13:06:45Z</time>
      </trkpt>
      <trkpt lat="43.72949" lon="6.87313">
        <ele>1048.2</ele>
        <time>2026-05-16T13:06:46Z</time>
      </trkpt>
      <trkpt lat="43.72929" lon="6.87301">
        <ele>1049.6</ele>
        <time>2026-05-16T13:06:47Z</time>
      </trkpt>
      <trkpt lat="43.7291" lon="6.87287">
        <ele>1050.5</ele>
        <time>2026-05-16T13:06:48Z</time>
      </trkpt>
      <trkpt lat="43.72891" lon="6.87272">
        <ele>1050.8</ele>
        <time>2026-05-16T13:06:49Z</time>
      </trkpt>
      <trkpt lat="43.72874" lon="6.87257">
        <ele>1051.4</ele>
        <time>2026-05-16T13:06:50Z</time>
      </trkpt>
      <trkpt lat="43.72856" lon="6.8724">
        <ele>1051.6</ele>
        <time>2026-05-16T13:06:51Z</time>
      </trkpt>
      <trkpt lat="43.72839" lon="6.87223">
        <ele>1050.8</ele>
        <time>2026-05-16T13:06:52Z</time>
      </trkpt>
      <trkpt lat="43.72823" lon="6.87205">
        <ele>1051.3</ele>
        <time>2026-05-16T13:06:53Z</time>
      </trkpt>
      <trkpt lat="43.72806" lon="6.87187">
        <ele>1052.2</ele>
        <time>2026-05-16T13:06:54Z</time>
      </trkpt>
      <trkpt lat="43.72792" lon="6.87167">
        <ele>1053.4</ele>
        <time>2026-05-16T13:06:55Z</time>
      </trkpt>
      <trkpt lat="43.72777" lon="6.87147">
        <ele>1054.4</ele>
        <time>2026-05-16T13:06:56Z</time>
      </trkpt>
      <trkpt lat="43.72764" lon="6.87129">
        <ele>1055.3</ele>
        <time>2026-05-16T13:06:57Z</time>
      </trkpt>
      <trkpt lat="43.72752" lon="6.87109">
        <ele>1054.7</ele>
        <time>2026-05-16T13:06:58Z</time>
      </trkpt>
      <trkpt lat="43.72741" lon="6.87089">
        <ele>1054.6</ele>
        <time>2026-05-16T13:06:59Z</time>
      </trkpt>
      <trkpt lat="43.7273" lon="6.87071">
        <ele>1055.4</ele>
        <time>2026-05-16T13:07:00Z</time>
      </trkpt>
      <trkpt lat="43.72722" lon="6.87056">
        <ele>1055.2</ele>
        <time>2026-05-16T13:07:01Z</time>
      </trkpt>
      <trkpt lat="43.72716" lon="6.87042">
        <ele>1055.1</ele>
        <time>2026-05-16T13:07:02Z</time>
      </trkpt>
      <trkpt lat="43.72709" lon="6.8703">
        <ele>1055.7</ele>
        <time>2026-05-16T13:07:03Z</time>
      </trkpt>
      <trkpt lat="43.72704" lon="6.87017">
        <ele>1055.7</ele>
        <time>2026-05-16T13:07:04Z</time>
      </trkpt>
      <trkpt lat="43.72699" lon="6.87004">
        <ele>1055.7</ele>
        <time>2026-05-16T13:07:05Z</time>
      </trkpt>
      <trkpt lat="43.72696" lon="6.86992">
        <ele>1054.9</ele>
        <time>2026-05-16T13:07:06Z</time>
      </trkpt>
      <trkpt lat="43.72692" lon="6.8698">
        <ele>1054.5</ele>
        <time>2026-05-16T13:07:07Z</time>
      </trkpt>
      <trkpt lat="43.72688" lon="6.86969">
        <ele>1054.3</ele>
        <time>2026-05-16T13:07:08Z</time>
      </trkpt>
      <trkpt lat="43.72685" lon="6.86962">
        <ele>1054.4</ele>
        <time>2026-05-16T13:07:09Z</time>
      </trkpt>
      <trkpt lat="43.72683" lon="6.86956">
        <ele>1054.1</ele>
        <time>2026-05-16T13:07:10Z</time>
      </trkpt>
      <trkpt lat="43.72681" lon="6.86951">
        <ele>1054</ele>
        <time>2026-05-16T13:07:11Z</time>
      </trkpt>
      <trkpt lat="43.7268" lon="6.86946">
        <ele>1053.5</ele>
        <time>2026-05-16T13:07:12Z</time>
      </trkpt>
      <trkpt lat="43.72678" lon="6.86943">
        <ele>1053.7</ele>
        <time>2026-05-16T13:07:13Z</time>
      </trkpt>
      <trkpt lat="43.72677" lon="6.86938">
        <ele>1053.1</ele>
        <time>2026-05-16T13:07:14Z</time>
      </trkpt>
      <trkpt lat="43.72675" lon="6.86933">
        <ele>1052.9</ele>
        <time>2026-05-16T13:07:15Z</time>
      </trkpt>
      <trkpt lat="43.72674" lon="6.86929">
        <ele>1052.6</ele>
        <time>2026-05-16T13:07:16Z</time>
      </trkpt>
      <trkpt lat="43.72671" lon="6.86925">
        <ele>1052.9</ele>
        <time>2026-05-16T13:07:17Z</time>
      </trkpt>
      <trkpt lat="43.72669" lon="6.86921">
        <ele>1052.9</ele>
        <time>2026-05-16T13:07:18Z</time>
      </trkpt>
      <trkpt lat="43.72665" lon="6.86918">
        <ele>1053.7</ele>
        <time>2026-05-16T13:07:19Z</time>
      </trkpt>
      <trkpt lat="43.72662" lon="6.86917">
        <ele>1054.2</ele>
        <time>2026-05-16T13:07:20Z</time>
      </trkpt>
      <trkpt lat="43.72659" lon="6.8692">
        <ele>1055.6</ele>
        <time>2026-05-16T13:07:21Z</time>
      </trkpt>
      <trkpt lat="43.72658" lon="6.86925">
        <ele>1057</ele>
        <time>2026-05-16T13:07:22Z</time>
      </trkpt>
      <trkpt lat="43.72662" lon="6.86935">
        <ele>1057.8</ele>
        <time>2026-05-16T13:07:23Z</time>
      </trkpt>
      <trkpt lat="43.72666" lon="6.86944">
        <ele>1058.2</ele>
        <time>2026-05-16T13:07:24Z</time>
      </trkpt>
      <trkpt lat="43.7267" lon="6.86953">
        <ele>1058.6</ele>
        <time>2026-05-16T13:07:25Z</time>
      </trkpt>
      <trkpt lat="43.72675" lon="6.86965">
        <ele>1059</ele>
        <time>2026-05-16T13:07:26Z</time>
      </trkpt>
      <trkpt lat="43.7268" lon="6.86978">
        <ele>1059.3</ele>
        <time>2026-05-16T13:07:27Z</time>
      </trkpt>
      <trkpt lat="43.72685" lon="6.86994">
        <ele>1060</ele>
        <time>2026-05-16T13:07:28Z</time>
      </trkpt>
      <trkpt lat="43.72691" lon="6.87012">
        <ele>1060.7</ele>
        <time>2026-05-16T13:07:29Z</time>
      </trkpt>
      <trkpt lat="43.72696" lon="6.8703">
        <ele>1061.8</ele>
        <time>2026-05-16T13:07:30Z</time>
      </trkpt>
      <trkpt lat="43.72702" lon="6.87049">
        <ele>1063.6</ele>
        <time>2026-05-16T13:07:31Z</time>
      </trkpt>
      <trkpt lat="43.7271" lon="6.87069">
        <ele>1064.3</ele>
        <time>2026-05-16T13:07:32Z</time>
      </trkpt>
      <trkpt lat="43.72718" lon="6.87089">
        <ele>1065.4</ele>
        <time>2026-05-16T13:07:33Z</time>
      </trkpt>
      <trkpt lat="43.72727" lon="6.8711">
        <ele>1066.5</ele>
        <time>2026-05-16T13:07:34Z</time>
      </trkpt>
      <trkpt lat="43.72737" lon="6.87129">
        <ele>1066.9</ele>
        <time>2026-05-16T13:07:35Z</time>
      </trkpt>
      <trkpt lat="43.72747" lon="6.87149">
        <ele>1067.8</ele>
        <time>2026-05-16T13:07:36Z</time>
      </trkpt>
      <trkpt lat="43.72758" lon="6.87169">
        <ele>1068.2</ele>
        <time>2026-05-16T13:07:37Z</time>
      </trkpt>
      <trkpt lat="43.7277" lon="6.87189">
        <ele>1068.2</ele>
        <time>2026-05-16T13:07:38Z</time>
      </trkpt>
      <trkpt lat="43.72782" lon="6.87208">
        <ele>1068.6</ele>
        <time>2026-05-16T13:07:39Z</time>
      </trkpt>
      <trkpt lat="43.72794" lon="6.87226">
        <ele>1069.3</ele>
        <time>2026-05-16T13:07:40Z</time>
      </trkpt>
      <trkpt lat="43.72806" lon="6.87245">
        <ele>1071</ele>
        <time>2026-05-16T13:07:41Z</time>
      </trkpt>
      <trkpt lat="43.72819" lon="6.87262">
        <ele>1072</ele>
        <time>2026-05-16T13:07:42Z</time>
      </trkpt>
      <trkpt lat="43.72833" lon="6.87279">
        <ele>1072.6</ele>
        <time>2026-05-16T13:07:43Z</time>
      </trkpt>
      <trkpt lat="43.72847" lon="6.87295">
        <ele>1073.3</ele>
        <time>2026-05-16T13:07:44Z</time>
      </trkpt>
      <trkpt lat="43.72862" lon="6.87309">
        <ele>1073.1</ele>
        <time>2026-05-16T13:07:45Z</time>
      </trkpt>
      <trkpt lat="43.72877" lon="6.87325">
        <ele>1074.6</ele>
        <time>2026-05-16T13:07:46Z</time>
      </trkpt>
      <trkpt lat="43.72893" lon="6.8734">
        <ele>1075.3</ele>
        <time>2026-05-16T13:07:47Z</time>
      </trkpt>
      <trkpt lat="43.72909" lon="6.87354">
        <ele>1075.7</ele>
        <time>2026-05-16T13:07:48Z</time>
      </trkpt>
      <trkpt lat="43.72925" lon="6.87368">
        <ele>1076</ele>
        <time>2026-05-16T13:07:49Z</time>
      </trkpt>
      <trkpt lat="43.7294" lon="6.87382">
        <ele>1076.7</ele>
        <time>2026-05-16T13:07:50Z</time>
      </trkpt>
      <trkpt lat="43.72957" lon="6.87396">
        <ele>1077.6</ele>
        <time>2026-05-16T13:07:51Z</time>
      </trkpt>
      <trkpt lat="43.72972" lon="6.8741">
        <ele>1079.2</ele>
        <time>2026-05-16T13:07:52Z</time>
      </trkpt>
      <trkpt lat="43.72989" lon="6.87424">
        <ele>1079.9</ele>
        <time>2026-05-16T13:07:53Z</time>
      </trkpt>
      <trkpt lat="43.73004" lon="6.87439">
        <ele>1082.2</ele>
        <time>2026-05-16T13:07:54Z</time>
      </trkpt>
      <trkpt lat="43.73019" lon="6.87453">
        <ele>1083.5</ele>
        <time>2026-05-16T13:07:55Z</time>
      </trkpt>
      <trkpt lat="43.73035" lon="6.87468">
        <ele>1084.8</ele>
        <time>2026-05-16T13:07:56Z</time>
      </trkpt>
      <trkpt lat="43.7305" lon="6.87483">
        <ele>1086.1</ele>
        <time>2026-05-16T13:07:57Z</time>
      </trkpt>
      <trkpt lat="43.73064" lon="6.87496">
        <ele>1086.7</ele>
        <time>2026-05-16T13:07:58Z</time>
      </trkpt>
      <trkpt lat="43.73078" lon="6.8751">
        <ele>1087.3</ele>
        <time>2026-05-16T13:07:59Z</time>
      </trkpt>
      <trkpt lat="43.73092" lon="6.87523">
        <ele>1087.4</ele>
        <time>2026-05-16T13:08:00Z</time>
      </trkpt>
      <trkpt lat="43.73107" lon="6.87537">
        <ele>1087.7</ele>
        <time>2026-05-16T13:08:01Z</time>
      </trkpt>
      <trkpt lat="43.73121" lon="6.87551">
        <ele>1088.2</ele>
        <time>2026-05-16T13:08:02Z</time>
      </trkpt>
      <trkpt lat="43.73135" lon="6.87565">
        <ele>1089</ele>
        <time>2026-05-16T13:08:03Z</time>
      </trkpt>
      <trkpt lat="43.7315" lon="6.8758">
        <ele>1090.1</ele>
        <time>2026-05-16T13:08:04Z</time>
      </trkpt>
      <trkpt lat="43.73165" lon="6.87592">
        <ele>1090</ele>
        <time>2026-05-16T13:08:05Z</time>
      </trkpt>
      <trkpt lat="43.7318" lon="6.87606">
        <ele>1091</ele>
        <time>2026-05-16T13:08:06Z</time>
      </trkpt>
      <trkpt lat="43.73194" lon="6.87618">
        <ele>1092.1</ele>
        <time>2026-05-16T13:08:07Z</time>
      </trkpt>
      <trkpt lat="43.73209" lon="6.8763">
        <ele>1093.5</ele>
        <time>2026-05-16T13:08:08Z</time>
      </trkpt>
      <trkpt lat="43.73225" lon="6.8764">
        <ele>1093.9</ele>
        <time>2026-05-16T13:08:09Z</time>
      </trkpt>
      <trkpt lat="43.73241" lon="6.87649">
        <ele>1094.7</ele>
        <time>2026-05-16T13:08:10Z</time>
      </trkpt>
      <trkpt lat="43.73258" lon="6.87658">
        <ele>1095.5</ele>
        <time>2026-05-16T13:08:11Z</time>
      </trkpt>
      <trkpt lat="43.73275" lon="6.87666">
        <ele>1096.2</ele>
        <time>2026-05-16T13:08:12Z</time>
      </trkpt>
      <trkpt lat="43.73293" lon="6.87673">
        <ele>1096.8</ele>
        <time>2026-05-16T13:08:13Z</time>
      </trkpt>
      <trkpt lat="43.7331" lon="6.8768">
        <ele>1097.6</ele>
        <time>2026-05-16T13:08:14Z</time>
      </trkpt>
      <trkpt lat="43.73328" lon="6.87688">
        <ele>1098.8</ele>
        <time>2026-05-16T13:08:15Z</time>
      </trkpt>
      <trkpt lat="43.73346" lon="6.87696">
        <ele>1100.4</ele>
        <time>2026-05-16T13:08:16Z</time>
      </trkpt>
      <trkpt lat="43.73364" lon="6.87703">
        <ele>1101.6</ele>
        <time>2026-05-16T13:08:17Z</time>
      </trkpt>
      <trkpt lat="43.73382" lon="6.87711">
        <ele>1102.7</ele>
        <time>2026-05-16T13:08:18Z</time>
      </trkpt>
      <trkpt lat="43.73399" lon="6.87717">
        <ele>1103.2</ele>
        <time>2026-05-16T13:08:19Z</time>
      </trkpt>
      <trkpt lat="43.73416" lon="6.87724">
        <ele>1103.9</ele>
        <time>2026-05-16T13:08:20Z</time>
      </trkpt>
      <trkpt lat="43.73433" lon="6.87729">
        <ele>1106.2</ele>
        <time>2026-05-16T13:08:21Z</time>
      </trkpt>
      <trkpt lat="43.7345" lon="6.87733">
        <ele>1108.5</ele>
        <time>2026-05-16T13:08:22Z</time>
      </trkpt>
      <trkpt lat="43.73468" lon="6.87736">
        <ele>1111.6</ele>
        <time>2026-05-16T13:08:23Z</time>
      </trkpt>
      <trkpt lat="43.73484" lon="6.87734">
        <ele>1113.2</ele>
        <time>2026-05-16T13:08:24Z</time>
      </trkpt>
      <trkpt lat="43.73499" lon="6.87725">
        <ele>1111.3</ele>
        <time>2026-05-16T13:08:25Z</time>
      </trkpt>
      <trkpt lat="43.73514" lon="6.87719">
        <ele>1110.8</ele>
        <time>2026-05-16T13:08:26Z</time>
      </trkpt>
      <trkpt lat="43.73528" lon="6.87717">
        <ele>1112</ele>
        <time>2026-05-16T13:08:27Z</time>
      </trkpt>
      <trkpt lat="43.73543" lon="6.87716">
        <ele>1111.5</ele>
        <time>2026-05-16T13:08:28Z</time>
      </trkpt>
      <trkpt lat="43.73558" lon="6.87717">
        <ele>1112</ele>
        <time>2026-05-16T13:08:29Z</time>
      </trkpt>
      <trkpt lat="43.73573" lon="6.8772">
        <ele>1112.5</ele>
        <time>2026-05-16T13:08:30Z</time>
      </trkpt>
      <trkpt lat="43.73587" lon="6.87724">
        <ele>1113.8</ele>
        <time>2026-05-16T13:08:31Z</time>
      </trkpt>
      <trkpt lat="43.73602" lon="6.87727">
        <ele>1114</ele>
        <time>2026-05-16T13:08:32Z</time>
      </trkpt>
      <trkpt lat="43.73617" lon="6.8773">
        <ele>1114.1</ele>
        <time>2026-05-16T13:08:33Z</time>
      </trkpt>
      <trkpt lat="43.73632" lon="6.87733">
        <ele>1114</ele>
        <time>2026-05-16T13:08:34Z</time>
      </trkpt>
      <trkpt lat="43.73647" lon="6.87737">
        <ele>1114.6</ele>
        <time>2026-05-16T13:08:35Z</time>
      </trkpt>
      <trkpt lat="43.73662" lon="6.87742">
        <ele>1115.9</ele>
        <time>2026-05-16T13:08:36Z</time>
      </trkpt>
      <trkpt lat="43.73676" lon="6.87747">
        <ele>1116.6</ele>
        <time>2026-05-16T13:08:37Z</time>
      </trkpt>
      <trkpt lat="43.73691" lon="6.87752">
        <ele>1116.6</ele>
        <time>2026-05-16T13:08:38Z</time>
      </trkpt>
      <trkpt lat="43.73706" lon="6.87757">
        <ele>1116</ele>
        <time>2026-05-16T13:08:39Z</time>
      </trkpt>
      <trkpt lat="43.7372" lon="6.87762">
        <ele>1115.2</ele>
        <time>2026-05-16T13:08:40Z</time>
      </trkpt>
      <trkpt lat="43.73735" lon="6.87767">
        <ele>1114.9</ele>
        <time>2026-05-16T13:08:41Z</time>
      </trkpt>
      <trkpt lat="43.7375" lon="6.87771">
        <ele>1114.3</ele>
        <time>2026-05-16T13:08:42Z</time>
      </trkpt>
      <trkpt lat="43.73765" lon="6.87776">
        <ele>1114.7</ele>
        <time>2026-05-16T13:08:43Z</time>
      </trkpt>
      <trkpt lat="43.7378" lon="6.87781">
        <ele>1114.7</ele>
        <time>2026-05-16T13:08:44Z</time>
      </trkpt>
      <trkpt lat="43.73794" lon="6.87785">
        <ele>1114.9</ele>
        <time>2026-05-16T13:08:45Z</time>
      </trkpt>
      <trkpt lat="43.73809" lon="6.87789">
        <ele>1115</ele>
        <time>2026-05-16T13:08:46Z</time>
      </trkpt>
      <trkpt lat="43.73823" lon="6.87794">
        <ele>1115.6</ele>
        <time>2026-05-16T13:08:47Z</time>
      </trkpt>
      <trkpt lat="43.73837" lon="6.87799">
        <ele>1116.4</ele>
        <time>2026-05-16T13:08:48Z</time>
      </trkpt>
      <trkpt lat="43.7385" lon="6.87805">
        <ele>1118.1</ele>
        <time>2026-05-16T13:08:49Z</time>
      </trkpt>
      <trkpt lat="43.73863" lon="6.87813">
        <ele>1119.2</ele>
        <time>2026-05-16T13:08:50Z</time>
      </trkpt>
      <trkpt lat="43.73877" lon="6.87822">
        <ele>1120.4</ele>
        <time>2026-05-16T13:08:51Z</time>
      </trkpt>
      <trkpt lat="43.73892" lon="6.87831">
        <ele>1121.2</ele>
        <time>2026-05-16T13:08:52Z</time>
      </trkpt>
      <trkpt lat="43.73905" lon="6.87841">
        <ele>1121.2</ele>
        <time>2026-05-16T13:08:53Z</time>
      </trkpt>
      <trkpt lat="43.73919" lon="6.87853">
        <ele>1121.3</ele>
        <time>2026-05-16T13:08:54Z</time>
      </trkpt>
      <trkpt lat="43.73931" lon="6.87867">
        <ele>1120.7</ele>
        <time>2026-05-16T13:08:55Z</time>
      </trkpt>
      <trkpt lat="43.73944" lon="6.87879">
        <ele>1120.3</ele>
        <time>2026-05-16T13:08:56Z</time>
      </trkpt>
      <trkpt lat="43.73956" lon="6.87895">
        <ele>1120.3</ele>
        <time>2026-05-16T13:08:57Z</time>
      </trkpt>
      <trkpt lat="43.73967" lon="6.8791">
        <ele>1120.7</ele>
        <time>2026-05-16T13:08:58Z</time>
      </trkpt>
      <trkpt lat="43.73977" lon="6.87927">
        <ele>1121</ele>
        <time>2026-05-16T13:08:59Z</time>
      </trkpt>
      <trkpt lat="43.73988" lon="6.87944">
        <ele>1121.2</ele>
        <time>2026-05-16T13:09:00Z</time>
      </trkpt>
      <trkpt lat="43.73999" lon="6.87963">
        <ele>1121.9</ele>
        <time>2026-05-16T13:09:01Z</time>
      </trkpt>
      <trkpt lat="43.74009" lon="6.8798">
        <ele>1123.1</ele>
        <time>2026-05-16T13:09:02Z</time>
      </trkpt>
      <trkpt lat="43.74019" lon="6.87999">
        <ele>1124.4</ele>
        <time>2026-05-16T13:09:03Z</time>
      </trkpt>
      <trkpt lat="43.74029" lon="6.88017">
        <ele>1126.2</ele>
        <time>2026-05-16T13:09:04Z</time>
      </trkpt>
      <trkpt lat="43.74039" lon="6.88034">
        <ele>1127.7</ele>
        <time>2026-05-16T13:09:05Z</time>
      </trkpt>
      <trkpt lat="43.74048" lon="6.88051">
        <ele>1128.5</ele>
        <time>2026-05-16T13:09:06Z</time>
      </trkpt>
      <trkpt lat="43.74057" lon="6.88067">
        <ele>1129.1</ele>
        <time>2026-05-16T13:09:07Z</time>
      </trkpt>
      <trkpt lat="43.74067" lon="6.88081">
        <ele>1129.4</ele>
        <time>2026-05-16T13:09:08Z</time>
      </trkpt>
      <trkpt lat="43.74078" lon="6.88093">
        <ele>1129.9</ele>
        <time>2026-05-16T13:09:09Z</time>
      </trkpt>
      <trkpt lat="43.74091" lon="6.88103">
        <ele>1130.4</ele>
        <time>2026-05-16T13:09:10Z</time>
      </trkpt>
      <trkpt lat="43.74104" lon="6.88113">
        <ele>1130.7</ele>
        <time>2026-05-16T13:09:11Z</time>
      </trkpt>
      <trkpt lat="43.74117" lon="6.88125">
        <ele>1130.7</ele>
        <time>2026-05-16T13:09:12Z</time>
      </trkpt>
      <trkpt lat="43.74131" lon="6.88136">
        <ele>1130.3</ele>
        <time>2026-05-16T13:09:13Z</time>
      </trkpt>
      <trkpt lat="43.74146" lon="6.88149">
        <ele>1130.2</ele>
        <time>2026-05-16T13:09:14Z</time>
      </trkpt>
      <trkpt lat="43.7416" lon="6.88161">
        <ele>1130.2</ele>
        <time>2026-05-16T13:09:15Z</time>
      </trkpt>
      <trkpt lat="43.74175" lon="6.88175">
        <ele>1130</ele>
        <time>2026-05-16T13:09:16Z</time>
      </trkpt>
      <trkpt lat="43.74189" lon="6.88189">
        <ele>1130</ele>
        <time>2026-05-16T13:09:17Z</time>
      </trkpt>
      <trkpt lat="43.74203" lon="6.88205">
        <ele>1131</ele>
        <time>2026-05-16T13:09:18Z</time>
      </trkpt>
      <trkpt lat="43.74215" lon="6.88222">
        <ele>1132</ele>
        <time>2026-05-16T13:09:19Z</time>
      </trkpt>
      <trkpt lat="43.74226" lon="6.88239">
        <ele>1133.3</ele>
        <time>2026-05-16T13:09:20Z</time>
      </trkpt>
      <trkpt lat="43.74236" lon="6.88258">
        <ele>1134.3</ele>
        <time>2026-05-16T13:09:21Z</time>
      </trkpt>
      <trkpt lat="43.74245" lon="6.88278">
        <ele>1135</ele>
        <time>2026-05-16T13:09:22Z</time>
      </trkpt>
      <trkpt lat="43.74252" lon="6.88299">
        <ele>1135.8</ele>
        <time>2026-05-16T13:09:23Z</time>
      </trkpt>
      <trkpt lat="43.74259" lon="6.88321">
        <ele>1136.9</ele>
        <time>2026-05-16T13:09:24Z</time>
      </trkpt>
      <trkpt lat="43.74265" lon="6.88343">
        <ele>1137.9</ele>
        <time>2026-05-16T13:09:25Z</time>
      </trkpt>
      <trkpt lat="43.74269" lon="6.88366">
        <ele>1138.9</ele>
        <time>2026-05-16T13:09:26Z</time>
      </trkpt>
      <trkpt lat="43.74272" lon="6.88389">
        <ele>1139.8</ele>
        <time>2026-05-16T13:09:27Z</time>
      </trkpt>
      <trkpt lat="43.74273" lon="6.88412">
        <ele>1140.7</ele>
        <time>2026-05-16T13:09:28Z</time>
      </trkpt>
      <trkpt lat="43.74273" lon="6.88435">
        <ele>1140.9</ele>
        <time>2026-05-16T13:09:29Z</time>
      </trkpt>
      <trkpt lat="43.74272" lon="6.88458">
        <ele>1141.5</ele>
        <time>2026-05-16T13:09:30Z</time>
      </trkpt>
      <trkpt lat="43.7427" lon="6.88481">
        <ele>1142.3</ele>
        <time>2026-05-16T13:09:31Z</time>
      </trkpt>
      <trkpt lat="43.74266" lon="6.88504">
        <ele>1143.2</ele>
        <time>2026-05-16T13:09:32Z</time>
      </trkpt>
      <trkpt lat="43.74261" lon="6.88526">
        <ele>1144.3</ele>
        <time>2026-05-16T13:09:33Z</time>
      </trkpt>
      <trkpt lat="43.74255" lon="6.88548">
        <ele>1144.2</ele>
        <time>2026-05-16T13:09:34Z</time>
      </trkpt>
      <trkpt lat="43.74249" lon="6.88571">
        <ele>1143.5</ele>
        <time>2026-05-16T13:09:35Z</time>
      </trkpt>
      <trkpt lat="43.74245" lon="6.88594">
        <ele>1142.8</ele>
        <time>2026-05-16T13:09:36Z</time>
      </trkpt>
      <trkpt lat="43.74243" lon="6.88618">
        <ele>1141.8</ele>
        <time>2026-05-16T13:09:37Z</time>
      </trkpt>
      <trkpt lat="43.74243" lon="6.88642">
        <ele>1140.4</ele>
        <time>2026-05-16T13:09:38Z</time>
      </trkpt>
      <trkpt lat="43.74245" lon="6.88665">
        <ele>1139.4</ele>
        <time>2026-05-16T13:09:39Z</time>
      </trkpt>
      <trkpt lat="43.74246" lon="6.88688">
        <ele>1138.5</ele>
        <time>2026-05-16T13:09:40Z</time>
      </trkpt>
      <trkpt lat="43.74248" lon="6.88711">
        <ele>1137</ele>
        <time>2026-05-16T13:09:41Z</time>
      </trkpt>
      <trkpt lat="43.74246" lon="6.88734">
        <ele>1135.6</ele>
        <time>2026-05-16T13:09:42Z</time>
      </trkpt>
      <trkpt lat="43.74242" lon="6.88757">
        <ele>1134.4</ele>
        <time>2026-05-16T13:09:43Z</time>
      </trkpt>
      <trkpt lat="43.74235" lon="6.8878">
        <ele>1133.5</ele>
        <time>2026-05-16T13:09:44Z</time>
      </trkpt>
      <trkpt lat="43.74227" lon="6.88802">
        <ele>1132.9</ele>
        <time>2026-05-16T13:09:45Z</time>
      </trkpt>
      <trkpt lat="43.74218" lon="6.88825">
        <ele>1132.2</ele>
        <time>2026-05-16T13:09:46Z</time>
      </trkpt>
      <trkpt lat="43.74208" lon="6.88849">
        <ele>1131.9</ele>
        <time>2026-05-16T13:09:47Z</time>
      </trkpt>
      <trkpt lat="43.74199" lon="6.88872">
        <ele>1131</ele>
        <time>2026-05-16T13:09:48Z</time>
      </trkpt>
      <trkpt lat="43.74189" lon="6.88896">
        <ele>1130.2</ele>
        <time>2026-05-16T13:09:49Z</time>
      </trkpt>
      <trkpt lat="43.7418" lon="6.88921">
        <ele>1129.3</ele>
        <time>2026-05-16T13:09:50Z</time>
      </trkpt>
      <trkpt lat="43.74172" lon="6.88945">
        <ele>1128.6</ele>
        <time>2026-05-16T13:09:51Z</time>
      </trkpt>
      <trkpt lat="43.74165" lon="6.88971">
        <ele>1127.4</ele>
        <time>2026-05-16T13:09:52Z</time>
      </trkpt>
      <trkpt lat="43.7416" lon="6.88996">
        <ele>1127.1</ele>
        <time>2026-05-16T13:09:53Z</time>
      </trkpt>
      <trkpt lat="43.74155" lon="6.89021">
        <ele>1126.9</ele>
        <time>2026-05-16T13:09:54Z</time>
      </trkpt>
      <trkpt lat="43.74149" lon="6.89046">
        <ele>1126.2</ele>
        <time>2026-05-16T13:09:55Z</time>
      </trkpt>
      <trkpt lat="43.74143" lon="6.8907">
        <ele>1125.4</ele>
        <time>2026-05-16T13:09:56Z</time>
      </trkpt>
      <trkpt lat="43.74135" lon="6.89095">
        <ele>1124.5</ele>
        <time>2026-05-16T13:09:57Z</time>
      </trkpt>
      <trkpt lat="43.74127" lon="6.89118">
        <ele>1124</ele>
        <time>2026-05-16T13:09:58Z</time>
      </trkpt>
      <trkpt lat="43.74119" lon="6.89142">
        <ele>1123.2</ele>
        <time>2026-05-16T13:09:59Z</time>
      </trkpt>
      <trkpt lat="43.74111" lon="6.89167">
        <ele>1121</ele>
        <time>2026-05-16T13:10:00Z</time>
      </trkpt>
      <trkpt lat="43.74103" lon="6.89191">
        <ele>1121</ele>
        <time>2026-05-16T13:10:01Z</time>
      </trkpt>
      <trkpt lat="43.74096" lon="6.89216">
        <ele>1120.6</ele>
        <time>2026-05-16T13:10:02Z</time>
      </trkpt>
      <trkpt lat="43.74091" lon="6.89241">
        <ele>1119.9</ele>
        <time>2026-05-16T13:10:03Z</time>
      </trkpt>
      <trkpt lat="43.74088" lon="6.89268">
        <ele>1118.6</ele>
        <time>2026-05-16T13:10:04Z</time>
      </trkpt>
      <trkpt lat="43.74087" lon="6.89295">
        <ele>1117.4</ele>
        <time>2026-05-16T13:10:05Z</time>
      </trkpt>
      <trkpt lat="43.74086" lon="6.89322">
        <ele>1115.8</ele>
        <time>2026-05-16T13:10:06Z</time>
      </trkpt>
      <trkpt lat="43.74085" lon="6.8935">
        <ele>1114.5</ele>
        <time>2026-05-16T13:10:07Z</time>
      </trkpt>
      <trkpt lat="43.74084" lon="6.89379">
        <ele>1114</ele>
        <time>2026-05-16T13:10:08Z</time>
      </trkpt>
      <trkpt lat="43.74084" lon="6.89407">
        <ele>1113.3</ele>
        <time>2026-05-16T13:10:09Z</time>
      </trkpt>
      <trkpt lat="43.74085" lon="6.89436">
        <ele>1112.9</ele>
        <time>2026-05-16T13:10:10Z</time>
      </trkpt>
      <trkpt lat="43.74087" lon="6.89464">
        <ele>1112</ele>
        <time>2026-05-16T13:10:11Z</time>
      </trkpt>
      <trkpt lat="43.74091" lon="6.8949">
        <ele>1111.3</ele>
        <time>2026-05-16T13:10:12Z</time>
      </trkpt>
      <trkpt lat="43.74095" lon="6.89517">
        <ele>1110.2</ele>
        <time>2026-05-16T13:10:13Z</time>
      </trkpt>
      <trkpt lat="43.741" lon="6.89542">
        <ele>1108.5</ele>
        <time>2026-05-16T13:10:14Z</time>
      </trkpt>
      <trkpt lat="43.74105" lon="6.89566">
        <ele>1107.2</ele>
        <time>2026-05-16T13:10:15Z</time>
      </trkpt>
      <trkpt lat="43.7411" lon="6.8959">
        <ele>1106.2</ele>
        <time>2026-05-16T13:10:16Z</time>
      </trkpt>
      <trkpt lat="43.74115" lon="6.89613">
        <ele>1105.7</ele>
        <time>2026-05-16T13:10:17Z</time>
      </trkpt>
      <trkpt lat="43.74121" lon="6.89635">
        <ele>1106.3</ele>
        <time>2026-05-16T13:10:18Z</time>
      </trkpt>
      <trkpt lat="43.74126" lon="6.89656">
        <ele>1106.5</ele>
        <time>2026-05-16T13:10:19Z</time>
      </trkpt>
      <trkpt lat="43.74129" lon="6.89678">
        <ele>1106.3</ele>
        <time>2026-05-16T13:10:20Z</time>
      </trkpt>
      <trkpt lat="43.7413" lon="6.89699">
        <ele>1105.8</ele>
        <time>2026-05-16T13:10:21Z</time>
      </trkpt>
      <trkpt lat="43.74129" lon="6.8972">
        <ele>1105.1</ele>
        <time>2026-05-16T13:10:22Z</time>
      </trkpt>
      <trkpt lat="43.74129" lon="6.8974">
        <ele>1104.4</ele>
        <time>2026-05-16T13:10:23Z</time>
      </trkpt>
      <trkpt lat="43.74128" lon="6.89759">
        <ele>1104</ele>
        <time>2026-05-16T13:10:24Z</time>
      </trkpt>
      <trkpt lat="43.74128" lon="6.89773">
        <ele>1103.9</ele>
        <time>2026-05-16T13:10:25Z</time>
      </trkpt>
      <trkpt lat="43.74127" lon="6.89787">
        <ele>1103.9</ele>
        <time>2026-05-16T13:10:26Z</time>
      </trkpt>
      <trkpt lat="43.74127" lon="6.89801">
        <ele>1103.9</ele>
        <time>2026-05-16T13:10:27Z</time>
      </trkpt>
      <trkpt lat="43.74126" lon="6.89814">
        <ele>1103.6</ele>
        <time>2026-05-16T13:10:28Z</time>
      </trkpt>
      <trkpt lat="43.74126" lon="6.89827">
        <ele>1103.2</ele>
        <time>2026-05-16T13:10:29Z</time>
      </trkpt>
      <trkpt lat="43.74126" lon="6.8984">
        <ele>1102.7</ele>
        <time>2026-05-16T13:10:30Z</time>
      </trkpt>
      <trkpt lat="43.74125" lon="6.89852">
        <ele>1102.3</ele>
        <time>2026-05-16T13:10:31Z</time>
      </trkpt>
      <trkpt lat="43.74125" lon="6.89862">
        <ele>1102</ele>
        <time>2026-05-16T13:10:32Z</time>
      </trkpt>
      <trkpt lat="43.74125" lon="6.89871">
        <ele>1102</ele>
        <time>2026-05-16T13:10:33Z</time>
      </trkpt>
      <trkpt lat="43.74126" lon="6.89879">
        <ele>1101.9</ele>
        <time>2026-05-16T13:10:34Z</time>
      </trkpt>
      <trkpt lat="43.74126" lon="6.89887">
        <ele>1101.9</ele>
        <time>2026-05-16T13:10:35Z</time>
      </trkpt>
      <trkpt lat="43.74127" lon="6.89896">
        <ele>1101.7</ele>
        <time>2026-05-16T13:10:36Z</time>
      </trkpt>
      <trkpt lat="43.7413" lon="6.89904">
        <ele>1101.3</ele>
        <time>2026-05-16T13:10:37Z</time>
      </trkpt>
      <trkpt lat="43.74133" lon="6.89913">
        <ele>1100.7</ele>
        <time>2026-05-16T13:10:38Z</time>
      </trkpt>
      <trkpt lat="43.74136" lon="6.89923">
        <ele>1100.3</ele>
        <time>2026-05-16T13:10:39Z</time>
      </trkpt>
      <trkpt lat="43.74139" lon="6.89933">
        <ele>1100</ele>
        <time>2026-05-16T13:10:40Z</time>
      </trkpt>
      <trkpt lat="43.74141" lon="6.89943">
        <ele>1099.9</ele>
        <time>2026-05-16T13:10:41Z</time>
      </trkpt>
      <trkpt lat="43.74143" lon="6.89952">
        <ele>1099.8</ele>
        <time>2026-05-16T13:10:42Z</time>
      </trkpt>
      <trkpt lat="43.74145" lon="6.89961">
        <ele>1099.6</ele>
        <time>2026-05-16T13:10:43Z</time>
      </trkpt>
      <trkpt lat="43.74148" lon="6.8997">
        <ele>1099.4</ele>
        <time>2026-05-16T13:10:44Z</time>
      </trkpt>
      <trkpt lat="43.74149" lon="6.89977">
        <ele>1099.3</ele>
        <time>2026-05-16T13:10:45Z</time>
      </trkpt>
      <trkpt lat="43.74151" lon="6.89984">
        <ele>1099.1</ele>
        <time>2026-05-16T13:10:46Z</time>
      </trkpt>
      <trkpt lat="43.74153" lon="6.89991">
        <ele>1099</ele>
        <time>2026-05-16T13:10:47Z</time>
      </trkpt>
      <trkpt lat="43.74156" lon="6.89998">
        <ele>1098.8</ele>
        <time>2026-05-16T13:10:48Z</time>
      </trkpt>
      <trkpt lat="43.7416" lon="6.90005">
        <ele>1098.4</ele>
        <time>2026-05-16T13:10:49Z</time>
      </trkpt>
      <trkpt lat="43.74164" lon="6.90013">
        <ele>1098.1</ele>
        <time>2026-05-16T13:10:50Z</time>
      </trkpt>
      <trkpt lat="43.74167" lon="6.90021">
        <ele>1098</ele>
        <time>2026-05-16T13:10:51Z</time>
      </trkpt>
      <trkpt lat="43.74169" lon="6.90031">
        <ele>1097.8</ele>
        <time>2026-05-16T13:10:52Z</time>
      </trkpt>
      <trkpt lat="43.7417" lon="6.90041">
        <ele>1097.4</ele>
        <time>2026-05-16T13:10:53Z</time>
      </trkpt>
      <trkpt lat="43.74172" lon="6.90051">
        <ele>1097</ele>
        <time>2026-05-16T13:10:54Z</time>
      </trkpt>
      <trkpt lat="43.74173" lon="6.90062">
        <ele>1096.7</ele>
        <time>2026-05-16T13:10:55Z</time>
      </trkpt>
      <trkpt lat="43.74174" lon="6.90074">
        <ele>1096.6</ele>
        <time>2026-05-16T13:10:56Z</time>
      </trkpt>
      <trkpt lat="43.74175" lon="6.90087">
        <ele>1096.3</ele>
        <time>2026-05-16T13:10:57Z</time>
      </trkpt>
      <trkpt lat="43.74176" lon="6.90101">
        <ele>1095.9</ele>
        <time>2026-05-16T13:10:58Z</time>
      </trkpt>
      <trkpt lat="43.74176" lon="6.90115">
        <ele>1095.5</ele>
        <time>2026-05-16T13:10:59Z</time>
      </trkpt>
      <trkpt lat="43.74177" lon="6.90131">
        <ele>1094.9</ele>
        <time>2026-05-16T13:11:00Z</time>
      </trkpt>
      <trkpt lat="43.74179" lon="6.90147">
        <ele>1094.3</ele>
        <time>2026-05-16T13:11:01Z</time>
      </trkpt>
      <trkpt lat="43.74181" lon="6.90163">
        <ele>1093.6</ele>
        <time>2026-05-16T13:11:02Z</time>
      </trkpt>
      <trkpt lat="43.74182" lon="6.90179">
        <ele>1092.6</ele>
        <time>2026-05-16T13:11:03Z</time>
      </trkpt>
      <trkpt lat="43.74182" lon="6.90196">
        <ele>1091.4</ele>
        <time>2026-05-16T13:11:04Z</time>
      </trkpt>
      <trkpt lat="43.74182" lon="6.90212">
        <ele>1090.8</ele>
        <time>2026-05-16T13:11:05Z</time>
      </trkpt>
      <trkpt lat="43.74183" lon="6.90229">
        <ele>1090.4</ele>
        <time>2026-05-16T13:11:06Z</time>
      </trkpt>
      <trkpt lat="43.74185" lon="6.90245">
        <ele>1090.3</ele>
        <time>2026-05-16T13:11:07Z</time>
      </trkpt>
      <trkpt lat="43.74187" lon="6.90261">
        <ele>1090</ele>
        <time>2026-05-16T13:11:08Z</time>
      </trkpt>
      <trkpt lat="43.74189" lon="6.90278">
        <ele>1089.4</ele>
        <time>2026-05-16T13:11:09Z</time>
      </trkpt>
      <trkpt lat="43.7419" lon="6.90295">
        <ele>1089.3</ele>
        <time>2026-05-16T13:11:10Z</time>
      </trkpt>
      <trkpt lat="43.74192" lon="6.90312">
        <ele>1089.2</ele>
        <time>2026-05-16T13:11:11Z</time>
      </trkpt>
      <trkpt lat="43.74194" lon="6.90328">
        <ele>1089</ele>
        <time>2026-05-16T13:11:12Z</time>
      </trkpt>
      <trkpt lat="43.74196" lon="6.90345">
        <ele>1088.9</ele>
        <time>2026-05-16T13:11:13Z</time>
      </trkpt>
      <trkpt lat="43.74198" lon="6.90362">
        <ele>1088.9</ele>
        <time>2026-05-16T13:11:14Z</time>
      </trkpt>
      <trkpt lat="43.74199" lon="6.90379">
        <ele>1088.8</ele>
        <time>2026-05-16T13:11:15Z</time>
      </trkpt>
      <trkpt lat="43.74201" lon="6.90397">
        <ele>1088.7</ele>
        <time>2026-05-16T13:11:16Z</time>
      </trkpt>
      <trkpt lat="43.74204" lon="6.90415">
        <ele>1088.3</ele>
        <time>2026-05-16T13:11:17Z</time>
      </trkpt>
      <trkpt lat="43.74207" lon="6.90433">
        <ele>1088.1</ele>
        <time>2026-05-16T13:11:18Z</time>
      </trkpt>
      <trkpt lat="43.7421" lon="6.90449">
        <ele>1087.7</ele>
        <time>2026-05-16T13:11:19Z</time>
      </trkpt>
      <trkpt lat="43.74213" lon="6.90461">
        <ele>1087.1</ele>
        <time>2026-05-16T13:11:20Z</time>
      </trkpt>
      <trkpt lat="43.74217" lon="6.90471">
        <ele>1086.4</ele>
        <time>2026-05-16T13:11:21Z</time>
      </trkpt>
      <trkpt lat="43.74221" lon="6.90483">
        <ele>1086.1</ele>
        <time>2026-05-16T13:11:22Z</time>
      </trkpt>
      <trkpt lat="43.74226" lon="6.90495">
        <ele>1086</ele>
        <time>2026-05-16T13:11:23Z</time>
      </trkpt>
      <trkpt lat="43.74231" lon="6.90509">
        <ele>1085.7</ele>
        <time>2026-05-16T13:11:24Z</time>
      </trkpt>
      <trkpt lat="43.74237" lon="6.90523">
        <ele>1085.2</ele>
        <time>2026-05-16T13:11:25Z</time>
      </trkpt>
      <trkpt lat="43.74243" lon="6.9054">
        <ele>1085</ele>
        <time>2026-05-16T13:11:26Z</time>
      </trkpt>
      <trkpt lat="43.74249" lon="6.90557">
        <ele>1085</ele>
        <time>2026-05-16T13:11:27Z</time>
      </trkpt>
      <trkpt lat="43.74256" lon="6.90575">
        <ele>1085</ele>
        <time>2026-05-16T13:11:28Z</time>
      </trkpt>
      <trkpt lat="43.74264" lon="6.90593">
        <ele>1084.7</ele>
        <time>2026-05-16T13:11:29Z</time>
      </trkpt>
      <trkpt lat="43.74273" lon="6.90611">
        <ele>1084</ele>
        <time>2026-05-16T13:11:30Z</time>
      </trkpt>
      <trkpt lat="43.74283" lon="6.90628">
        <ele>1084</ele>
        <time>2026-05-16T13:11:31Z</time>
      </trkpt>
      <trkpt lat="43.74293" lon="6.90645">
        <ele>1084.1</ele>
        <time>2026-05-16T13:11:32Z</time>
      </trkpt>
      <trkpt lat="43.74303" lon="6.90662">
        <ele>1084.8</ele>
        <time>2026-05-16T13:11:33Z</time>
      </trkpt>
      <trkpt lat="43.74311" lon="6.9068">
        <ele>1085.3</ele>
        <time>2026-05-16T13:11:34Z</time>
      </trkpt>
      <trkpt lat="43.74316" lon="6.90701">
        <ele>1084.9</ele>
        <time>2026-05-16T13:11:35Z</time>
      </trkpt>
      <trkpt lat="43.7432" lon="6.90721">
        <ele>1083.6</ele>
        <time>2026-05-16T13:11:36Z</time>
      </trkpt>
      <trkpt lat="43.74324" lon="6.90743">
        <ele>1082.9</ele>
        <time>2026-05-16T13:11:37Z</time>
      </trkpt>
      <trkpt lat="43.74328" lon="6.90765">
        <ele>1081.8</ele>
        <time>2026-05-16T13:11:38Z</time>
      </trkpt>
      <trkpt lat="43.74334" lon="6.90786">
        <ele>1081</ele>
        <time>2026-05-16T13:11:39Z</time>
      </trkpt>
      <trkpt lat="43.74341" lon="6.90805">
        <ele>1081.3</ele>
        <time>2026-05-16T13:11:40Z</time>
      </trkpt>
      <trkpt lat="43.74349" lon="6.90824">
        <ele>1081.6</ele>
        <time>2026-05-16T13:11:41Z</time>
      </trkpt>
      <trkpt lat="43.74358" lon="6.90842">
        <ele>1081.6</ele>
        <time>2026-05-16T13:11:42Z</time>
      </trkpt>
      <trkpt lat="43.7437" lon="6.90857">
        <ele>1081.5</ele>
        <time>2026-05-16T13:11:43Z</time>
      </trkpt>
      <trkpt lat="43.74383" lon="6.90869">
        <ele>1081.5</ele>
        <time>2026-05-16T13:11:44Z</time>
      </trkpt>
      <trkpt lat="43.74397" lon="6.90881">
        <ele>1081.5</ele>
        <time>2026-05-16T13:11:45Z</time>
      </trkpt>
      <trkpt lat="43.74412" lon="6.90894">
        <ele>1081.6</ele>
        <time>2026-05-16T13:11:46Z</time>
      </trkpt>
      <trkpt lat="43.74427" lon="6.90906">
        <ele>1081.6</ele>
        <time>2026-05-16T13:11:47Z</time>
      </trkpt>
      <trkpt lat="43.74442" lon="6.90918">
        <ele>1081.9</ele>
        <time>2026-05-16T13:11:48Z</time>
      </trkpt>
      <trkpt lat="43.74456" lon="6.90932">
        <ele>1081.9</ele>
        <time>2026-05-16T13:11:49Z</time>
      </trkpt>
      <trkpt lat="43.74468" lon="6.9095">
        <ele>1081.8</ele>
        <time>2026-05-16T13:11:50Z</time>
      </trkpt>
      <trkpt lat="43.74478" lon="6.9097">
        <ele>1082.2</ele>
        <time>2026-05-16T13:11:51Z</time>
      </trkpt>
      <trkpt lat="43.74485" lon="6.90991">
        <ele>1082.5</ele>
        <time>2026-05-16T13:11:52Z</time>
      </trkpt>
      <trkpt lat="43.74492" lon="6.91013">
        <ele>1082.7</ele>
        <time>2026-05-16T13:11:53Z</time>
      </trkpt>
      <trkpt lat="43.74499" lon="6.91036">
        <ele>1083</ele>
        <time>2026-05-16T13:11:54Z</time>
      </trkpt>
      <trkpt lat="43.74505" lon="6.91057">
        <ele>1083.4</ele>
        <time>2026-05-16T13:11:55Z</time>
      </trkpt>
      <trkpt lat="43.74509" lon="6.91076">
        <ele>1084.4</ele>
        <time>2026-05-16T13:11:56Z</time>
      </trkpt>
      <trkpt lat="43.74509" lon="6.91094">
        <ele>1084.8</ele>
        <time>2026-05-16T13:11:57Z</time>
      </trkpt>
      <trkpt lat="43.74505" lon="6.9111">
        <ele>1084.5</ele>
        <time>2026-05-16T13:11:58Z</time>
      </trkpt>
      <trkpt lat="43.74498" lon="6.91125">
        <ele>1083.3</ele>
        <time>2026-05-16T13:11:59Z</time>
      </trkpt>
      <trkpt lat="43.74486" lon="6.91137">
        <ele>1082</ele>
        <time>2026-05-16T13:12:00Z</time>
      </trkpt>
      <trkpt lat="43.74473" lon="6.91147">
        <ele>1080.8</ele>
        <time>2026-05-16T13:12:01Z</time>
      </trkpt>
      <trkpt lat="43.74458" lon="6.91157">
        <ele>1079.8</ele>
        <time>2026-05-16T13:12:02Z</time>
      </trkpt>
      <trkpt lat="43.74442" lon="6.91167">
        <ele>1079</ele>
        <time>2026-05-16T13:12:03Z</time>
      </trkpt>
      <trkpt lat="43.74426" lon="6.91179">
        <ele>1078.7</ele>
        <time>2026-05-16T13:12:04Z</time>
      </trkpt>
      <trkpt lat="43.74411" lon="6.91192">
        <ele>1078.1</ele>
        <time>2026-05-16T13:12:05Z</time>
      </trkpt>
      <trkpt lat="43.74396" lon="6.91208">
        <ele>1078</ele>
        <time>2026-05-16T13:12:06Z</time>
      </trkpt>
      <trkpt lat="43.74382" lon="6.91225">
        <ele>1077.7</ele>
        <time>2026-05-16T13:12:07Z</time>
      </trkpt>
      <trkpt lat="43.74367" lon="6.91243">
        <ele>1076.5</ele>
        <time>2026-05-16T13:12:08Z</time>
      </trkpt>
      <trkpt lat="43.74351" lon="6.91261">
        <ele>1075.9</ele>
        <time>2026-05-16T13:12:09Z</time>
      </trkpt>
      <trkpt lat="43.74336" lon="6.9128">
        <ele>1075.1</ele>
        <time>2026-05-16T13:12:10Z</time>
      </trkpt>
      <trkpt lat="43.7432" lon="6.91299">
        <ele>1075</ele>
        <time>2026-05-16T13:12:11Z</time>
      </trkpt>
      <trkpt lat="43.74304" lon="6.91317">
        <ele>1075</ele>
        <time>2026-05-16T13:12:12Z</time>
      </trkpt>
      <trkpt lat="43.74288" lon="6.91335">
        <ele>1075</ele>
        <time>2026-05-16T13:12:13Z</time>
      </trkpt>
      <trkpt lat="43.74273" lon="6.91355">
        <ele>1074.8</ele>
        <time>2026-05-16T13:12:14Z</time>
      </trkpt>
      <trkpt lat="43.74259" lon="6.91376">
        <ele>1074.3</ele>
        <time>2026-05-16T13:12:15Z</time>
      </trkpt>
      <trkpt lat="43.74245" lon="6.91398">
        <ele>1073.8</ele>
        <time>2026-05-16T13:12:16Z</time>
      </trkpt>
      <trkpt lat="43.74232" lon="6.91422">
        <ele>1073.5</ele>
        <time>2026-05-16T13:12:17Z</time>
      </trkpt>
      <trkpt lat="43.74219" lon="6.91446">
        <ele>1073.9</ele>
        <time>2026-05-16T13:12:18Z</time>
      </trkpt>
      <trkpt lat="43.74208" lon="6.91469">
        <ele>1073.5</ele>
        <time>2026-05-16T13:12:19Z</time>
      </trkpt>
      <trkpt lat="43.74197" lon="6.91493">
        <ele>1072.3</ele>
        <time>2026-05-16T13:12:20Z</time>
      </trkpt>
      <trkpt lat="43.74188" lon="6.91516">
        <ele>1072.6</ele>
        <time>2026-05-16T13:12:21Z</time>
      </trkpt>
      <trkpt lat="43.7418" lon="6.9154">
        <ele>1073.2</ele>
        <time>2026-05-16T13:12:22Z</time>
      </trkpt>
      <trkpt lat="43.74175" lon="6.91564">
        <ele>1073.7</ele>
        <time>2026-05-16T13:12:23Z</time>
      </trkpt>
      <trkpt lat="43.74173" lon="6.91589">
        <ele>1073.8</ele>
        <time>2026-05-16T13:12:24Z</time>
      </trkpt>
      <trkpt lat="43.74172" lon="6.91615">
        <ele>1073.8</ele>
        <time>2026-05-16T13:12:25Z</time>
      </trkpt>
      <trkpt lat="43.74172" lon="6.91641">
        <ele>1073.9</ele>
        <time>2026-05-16T13:12:26Z</time>
      </trkpt>
      <trkpt lat="43.74173" lon="6.91667">
        <ele>1074.6</ele>
        <time>2026-05-16T13:12:27Z</time>
      </trkpt>
      <trkpt lat="43.74174" lon="6.91694">
        <ele>1075.5</ele>
        <time>2026-05-16T13:12:28Z</time>
      </trkpt>
      <trkpt lat="43.74177" lon="6.91721">
        <ele>1075.9</ele>
        <time>2026-05-16T13:12:29Z</time>
      </trkpt>
      <trkpt lat="43.74181" lon="6.91748">
        <ele>1076.4</ele>
        <time>2026-05-16T13:12:30Z</time>
      </trkpt>
      <trkpt lat="43.74184" lon="6.91775">
        <ele>1076.1</ele>
        <time>2026-05-16T13:12:31Z</time>
      </trkpt>
      <trkpt lat="43.74188" lon="6.91802">
        <ele>1075.9</ele>
        <time>2026-05-16T13:12:32Z</time>
      </trkpt>
      <trkpt lat="43.74191" lon="6.9183">
        <ele>1076.3</ele>
        <time>2026-05-16T13:12:33Z</time>
      </trkpt>
      <trkpt lat="43.74192" lon="6.91858">
        <ele>1076.3</ele>
        <time>2026-05-16T13:12:34Z</time>
      </trkpt>
      <trkpt lat="43.74194" lon="6.91887">
        <ele>1076.1</ele>
        <time>2026-05-16T13:12:35Z</time>
      </trkpt>
      <trkpt lat="43.74195" lon="6.91915">
        <ele>1076</ele>
        <time>2026-05-16T13:12:36Z</time>
      </trkpt>
      <trkpt lat="43.74196" lon="6.91944">
        <ele>1076.8</ele>
        <time>2026-05-16T13:12:37Z</time>
      </trkpt>
      <trkpt lat="43.74197" lon="6.91973">
        <ele>1076.8</ele>
        <time>2026-05-16T13:12:38Z</time>
      </trkpt>
      <trkpt lat="43.74198" lon="6.92003">
        <ele>1076.7</ele>
        <time>2026-05-16T13:12:39Z</time>
      </trkpt>
      <trkpt lat="43.74199" lon="6.92032">
        <ele>1076.7</ele>
        <time>2026-05-16T13:12:40Z</time>
      </trkpt>
      <trkpt lat="43.742" lon="6.92061">
        <ele>1076.6</ele>
        <time>2026-05-16T13:12:41Z</time>
      </trkpt>
      <trkpt lat="43.74202" lon="6.92091">
        <ele>1076.7</ele>
        <time>2026-05-16T13:12:42Z</time>
      </trkpt>
      <trkpt lat="43.74203" lon="6.9212">
        <ele>1077.1</ele>
        <time>2026-05-16T13:12:43Z</time>
      </trkpt>
      <trkpt lat="43.74204" lon="6.92149">
        <ele>1077.3</ele>
        <time>2026-05-16T13:12:44Z</time>
      </trkpt>
      <trkpt lat="43.74205" lon="6.92177">
        <ele>1077.6</ele>
        <time>2026-05-16T13:12:45Z</time>
      </trkpt>
      <trkpt lat="43.74206" lon="6.92206">
        <ele>1077.4</ele>
        <time>2026-05-16T13:12:46Z</time>
      </trkpt>
      <trkpt lat="43.74208" lon="6.92234">
        <ele>1077.7</ele>
        <time>2026-05-16T13:12:47Z</time>
      </trkpt>
      <trkpt lat="43.74209" lon="6.92262">
        <ele>1078.2</ele>
        <time>2026-05-16T13:12:48Z</time>
      </trkpt>
      <trkpt lat="43.74211" lon="6.9229">
        <ele>1078.2</ele>
        <time>2026-05-16T13:12:49Z</time>
      </trkpt>
      <trkpt lat="43.74213" lon="6.92318">
        <ele>1078</ele>
        <time>2026-05-16T13:12:50Z</time>
      </trkpt>
      <trkpt lat="43.74215" lon="6.92343">
        <ele>1077.8</ele>
        <time>2026-05-16T13:12:51Z</time>
      </trkpt>
      <trkpt lat="43.74215" lon="6.92365">
        <ele>1077.8</ele>
        <time>2026-05-16T13:12:52Z</time>
      </trkpt>
      <trkpt lat="43.74214" lon="6.92386">
        <ele>1077.9</ele>
        <time>2026-05-16T13:12:53Z</time>
      </trkpt>
      <trkpt lat="43.7421" lon="6.92406">
        <ele>1078</ele>
        <time>2026-05-16T13:12:54Z</time>
      </trkpt>
      <trkpt lat="43.74202" lon="6.92422">
        <ele>1078.2</ele>
        <time>2026-05-16T13:12:55Z</time>
      </trkpt>
      <trkpt lat="43.74192" lon="6.92433">
        <ele>1078</ele>
        <time>2026-05-16T13:12:56Z</time>
      </trkpt>
      <trkpt lat="43.7418" lon="6.92444">
        <ele>1078.1</ele>
        <time>2026-05-16T13:12:57Z</time>
      </trkpt>
      <trkpt lat="43.7417" lon="6.92457">
        <ele>1078.4</ele>
        <time>2026-05-16T13:12:58Z</time>
      </trkpt>
      <trkpt lat="43.74162" lon="6.92474">
        <ele>1078.2</ele>
        <time>2026-05-16T13:12:59Z</time>
      </trkpt>
      <trkpt lat="43.74157" lon="6.92494">
        <ele>1078.9</ele>
        <time>2026-05-16T13:13:00Z</time>
      </trkpt>
      <trkpt lat="43.74156" lon="6.92515">
        <ele>1079.4</ele>
        <time>2026-05-16T13:13:01Z</time>
      </trkpt>
      <trkpt lat="43.74156" lon="6.92538">
        <ele>1079.5</ele>
        <time>2026-05-16T13:13:02Z</time>
      </trkpt>
      <trkpt lat="43.74157" lon="6.9256">
        <ele>1079.4</ele>
        <time>2026-05-16T13:13:03Z</time>
      </trkpt>
      <trkpt lat="43.7416" lon="6.92584">
        <ele>1079.5</ele>
        <time>2026-05-16T13:13:04Z</time>
      </trkpt>
      <trkpt lat="43.74163" lon="6.92608">
        <ele>1079.5</ele>
        <time>2026-05-16T13:13:05Z</time>
      </trkpt>
      <trkpt lat="43.74168" lon="6.92632">
        <ele>1079.7</ele>
        <time>2026-05-16T13:13:06Z</time>
      </trkpt>
      <trkpt lat="43.74175" lon="6.92655">
        <ele>1080.4</ele>
        <time>2026-05-16T13:13:07Z</time>
      </trkpt>
      <trkpt lat="43.74184" lon="6.92677">
        <ele>1080.8</ele>
        <time>2026-05-16T13:13:08Z</time>
      </trkpt>
      <trkpt lat="43.74194" lon="6.92698">
        <ele>1080.3</ele>
        <time>2026-05-16T13:13:09Z</time>
      </trkpt>
      <trkpt lat="43.74203" lon="6.92719">
        <ele>1080.9</ele>
        <time>2026-05-16T13:13:10Z</time>
      </trkpt>
      <trkpt lat="43.7421" lon="6.92742">
        <ele>1080.6</ele>
        <time>2026-05-16T13:13:11Z</time>
      </trkpt>
      <trkpt lat="43.74215" lon="6.92766">
        <ele>1080.6</ele>
        <time>2026-05-16T13:13:12Z</time>
      </trkpt>
      <trkpt lat="43.74218" lon="6.92792">
        <ele>1080.6</ele>
        <time>2026-05-16T13:13:13Z</time>
      </trkpt>
      <trkpt lat="43.74219" lon="6.92818">
        <ele>1080.5</ele>
        <time>2026-05-16T13:13:14Z</time>
      </trkpt>
      <trkpt lat="43.74219" lon="6.92846">
        <ele>1080.9</ele>
        <time>2026-05-16T13:13:15Z</time>
      </trkpt>
      <trkpt lat="43.7422" lon="6.92873">
        <ele>1081.3</ele>
        <time>2026-05-16T13:13:16Z</time>
      </trkpt>
      <trkpt lat="43.7422" lon="6.92901">
        <ele>1081.3</ele>
        <time>2026-05-16T13:13:17Z</time>
      </trkpt>
      <trkpt lat="43.74219" lon="6.92929">
        <ele>1081.5</ele>
        <time>2026-05-16T13:13:18Z</time>
      </trkpt>
      <trkpt lat="43.74219" lon="6.92956">
        <ele>1081.9</ele>
        <time>2026-05-16T13:13:19Z</time>
      </trkpt>
      <trkpt lat="43.74219" lon="6.92982">
        <ele>1082.5</ele>
        <time>2026-05-16T13:13:20Z</time>
      </trkpt>
      <trkpt lat="43.7422" lon="6.93009">
        <ele>1082.3</ele>
        <time>2026-05-16T13:13:21Z</time>
      </trkpt>
      <trkpt lat="43.74221" lon="6.93035">
        <ele>1082.5</ele>
        <time>2026-05-16T13:13:22Z</time>
      </trkpt>
      <trkpt lat="43.74223" lon="6.93061">
        <ele>1083</ele>
        <time>2026-05-16T13:13:23Z</time>
      </trkpt>
      <trkpt lat="43.74227" lon="6.93087">
        <ele>1082.8</ele>
        <time>2026-05-16T13:13:24Z</time>
      </trkpt>
      <trkpt lat="43.74232" lon="6.93112">
        <ele>1082.7</ele>
        <time>2026-05-16T13:13:25Z</time>
      </trkpt>
      <trkpt lat="43.74239" lon="6.93137">
        <ele>1083.3</ele>
        <time>2026-05-16T13:13:26Z</time>
      </trkpt>
      <trkpt lat="43.74247" lon="6.93161">
        <ele>1084.1</ele>
        <time>2026-05-16T13:13:27Z</time>
      </trkpt>
      <trkpt lat="43.74255" lon="6.93186">
        <ele>1084.4</ele>
        <time>2026-05-16T13:13:28Z</time>
      </trkpt>
      <trkpt lat="43.74261" lon="6.93211">
        <ele>1083.8</ele>
        <time>2026-05-16T13:13:29Z</time>
      </trkpt>
      <trkpt lat="43.74267" lon="6.93237">
        <ele>1084</ele>
        <time>2026-05-16T13:13:30Z</time>
      </trkpt>
      <trkpt lat="43.74272" lon="6.93263">
        <ele>1085.2</ele>
        <time>2026-05-16T13:13:31Z</time>
      </trkpt>
      <trkpt lat="43.74275" lon="6.93288">
        <ele>1086.1</ele>
        <time>2026-05-16T13:13:32Z</time>
      </trkpt>
      <trkpt lat="43.74278" lon="6.93314">
        <ele>1087.3</ele>
        <time>2026-05-16T13:13:33Z</time>
      </trkpt>
      <trkpt lat="43.74279" lon="6.93339">
        <ele>1088.3</ele>
        <time>2026-05-16T13:13:34Z</time>
      </trkpt>
      <trkpt lat="43.74281" lon="6.93364">
        <ele>1089.7</ele>
        <time>2026-05-16T13:13:35Z</time>
      </trkpt>
      <trkpt lat="43.74284" lon="6.93388">
        <ele>1089.8</ele>
        <time>2026-05-16T13:13:36Z</time>
      </trkpt>
      <trkpt lat="43.74287" lon="6.93412">
        <ele>1089.9</ele>
        <time>2026-05-16T13:13:37Z</time>
      </trkpt>
      <trkpt lat="43.7429" lon="6.93436">
        <ele>1090.3</ele>
        <time>2026-05-16T13:13:38Z</time>
      </trkpt>
      <trkpt lat="43.74294" lon="6.9346">
        <ele>1091.1</ele>
        <time>2026-05-16T13:13:39Z</time>
      </trkpt>
      <trkpt lat="43.74296" lon="6.93483">
        <ele>1091.7</ele>
        <time>2026-05-16T13:13:40Z</time>
      </trkpt>
      <trkpt lat="43.74299" lon="6.93506">
        <ele>1091.8</ele>
        <time>2026-05-16T13:13:41Z</time>
      </trkpt>
      <trkpt lat="43.74302" lon="6.93527">
        <ele>1092</ele>
        <time>2026-05-16T13:13:42Z</time>
      </trkpt>
      <trkpt lat="43.74304" lon="6.93549">
        <ele>1092.8</ele>
        <time>2026-05-16T13:13:43Z</time>
      </trkpt>
      <trkpt lat="43.74305" lon="6.93571">
        <ele>1093</ele>
        <time>2026-05-16T13:13:44Z</time>
      </trkpt>
      <trkpt lat="43.74305" lon="6.93592">
        <ele>1093</ele>
        <time>2026-05-16T13:13:45Z</time>
      </trkpt>
      <trkpt lat="43.74305" lon="6.93612">
        <ele>1093</ele>
        <time>2026-05-16T13:13:46Z</time>
      </trkpt>
      <trkpt lat="43.74304" lon="6.93632">
        <ele>1093</ele>
        <time>2026-05-16T13:13:47Z</time>
      </trkpt>
      <trkpt lat="43.74305" lon="6.93651">
        <ele>1093</ele>
        <time>2026-05-16T13:13:48Z</time>
      </trkpt>
      <trkpt lat="43.74306" lon="6.9367">
        <ele>1092.9</ele>
        <time>2026-05-16T13:13:49Z</time>
      </trkpt>
      <trkpt lat="43.74308" lon="6.93689">
        <ele>1092.7</ele>
        <time>2026-05-16T13:13:50Z</time>
      </trkpt>
      <trkpt lat="43.7431" lon="6.93709">
        <ele>1092</ele>
        <time>2026-05-16T13:13:51Z</time>
      </trkpt>
      <trkpt lat="43.74312" lon="6.93728">
        <ele>1091.1</ele>
        <time>2026-05-16T13:13:52Z</time>
      </trkpt>
      <trkpt lat="43.74312" lon="6.93748">
        <ele>1090.6</ele>
        <time>2026-05-16T13:13:53Z</time>
      </trkpt>
      <trkpt lat="43.74313" lon="6.93768">
        <ele>1090.2</ele>
        <time>2026-05-16T13:13:54Z</time>
      </trkpt>
      <trkpt lat="43.74313" lon="6.93788">
        <ele>1090.4</ele>
        <time>2026-05-16T13:13:55Z</time>
      </trkpt>
      <trkpt lat="43.74313" lon="6.93807">
        <ele>1091.1</ele>
        <time>2026-05-16T13:13:56Z</time>
      </trkpt>
      <trkpt lat="43.74313" lon="6.93825">
        <ele>1091.7</ele>
        <time>2026-05-16T13:13:57Z</time>
      </trkpt>
      <trkpt lat="43.74313" lon="6.93841">
        <ele>1092.2</ele>
        <time>2026-05-16T13:13:58Z</time>
      </trkpt>
      <trkpt lat="43.74314" lon="6.93857">
        <ele>1092.6</ele>
        <time>2026-05-16T13:13:59Z</time>
      </trkpt>
      <trkpt lat="43.74316" lon="6.93873">
        <ele>1092.6</ele>
        <time>2026-05-16T13:14:00Z</time>
      </trkpt>
      <trkpt lat="43.74317" lon="6.93888">
        <ele>1092.6</ele>
        <time>2026-05-16T13:14:01Z</time>
      </trkpt>
      <trkpt lat="43.74319" lon="6.93904">
        <ele>1092.8</ele>
        <time>2026-05-16T13:14:02Z</time>
      </trkpt>
      <trkpt lat="43.74321" lon="6.9392">
        <ele>1093</ele>
        <time>2026-05-16T13:14:03Z</time>
      </trkpt>
      <trkpt lat="43.74323" lon="6.93936">
        <ele>1093.4</ele>
        <time>2026-05-16T13:14:04Z</time>
      </trkpt>
      <trkpt lat="43.74325" lon="6.93953">
        <ele>1093.3</ele>
        <time>2026-05-16T13:14:05Z</time>
      </trkpt>
      <trkpt lat="43.74328" lon="6.9397">
        <ele>1092.5</ele>
        <time>2026-05-16T13:14:06Z</time>
      </trkpt>
      <trkpt lat="43.7433" lon="6.93989">
        <ele>1092.2</ele>
        <time>2026-05-16T13:14:07Z</time>
      </trkpt>
      <trkpt lat="43.74331" lon="6.94008">
        <ele>1092.1</ele>
        <time>2026-05-16T13:14:08Z</time>
      </trkpt>
      <trkpt lat="43.74333" lon="6.94028">
        <ele>1092</ele>
        <time>2026-05-16T13:14:09Z</time>
      </trkpt>
      <trkpt lat="43.74335" lon="6.94047">
        <ele>1092</ele>
        <time>2026-05-16T13:14:10Z</time>
      </trkpt>
      <trkpt lat="43.74337" lon="6.94066">
        <ele>1092.4</ele>
        <time>2026-05-16T13:14:11Z</time>
      </trkpt>
      <trkpt lat="43.74339" lon="6.94084">
        <ele>1093</ele>
        <time>2026-05-16T13:14:12Z</time>
      </trkpt>
      <trkpt lat="43.7434" lon="6.94102">
        <ele>1093.7</ele>
        <time>2026-05-16T13:14:13Z</time>
      </trkpt>
      <trkpt lat="43.74342" lon="6.9412">
        <ele>1094.2</ele>
        <time>2026-05-16T13:14:14Z</time>
      </trkpt>
      <trkpt lat="43.74343" lon="6.94137">
        <ele>1094.6</ele>
        <time>2026-05-16T13:14:15Z</time>
      </trkpt>
      <trkpt lat="43.74345" lon="6.94155">
        <ele>1095.2</ele>
        <time>2026-05-16T13:14:16Z</time>
      </trkpt>
      <trkpt lat="43.74346" lon="6.94174">
        <ele>1095.7</ele>
        <time>2026-05-16T13:14:17Z</time>
      </trkpt>
      <trkpt lat="43.74348" lon="6.94192">
        <ele>1095.9</ele>
        <time>2026-05-16T13:14:18Z</time>
      </trkpt>
      <trkpt lat="43.7435" lon="6.94211">
        <ele>1096.4</ele>
        <time>2026-05-16T13:14:19Z</time>
      </trkpt>
      <trkpt lat="43.74352" lon="6.94231">
        <ele>1096.7</ele>
        <time>2026-05-16T13:14:20Z</time>
      </trkpt>
      <trkpt lat="43.74354" lon="6.94251">
        <ele>1096.5</ele>
        <time>2026-05-16T13:14:21Z</time>
      </trkpt>
      <trkpt lat="43.74355" lon="6.94272">
        <ele>1097.1</ele>
        <time>2026-05-16T13:14:22Z</time>
      </trkpt>
      <trkpt lat="43.74357" lon="6.94292">
        <ele>1097.6</ele>
        <time>2026-05-16T13:14:23Z</time>
      </trkpt>
      <trkpt lat="43.74359" lon="6.94314">
        <ele>1098.3</ele>
        <time>2026-05-16T13:14:24Z</time>
      </trkpt>
      <trkpt lat="43.74361" lon="6.94336">
        <ele>1099</ele>
        <time>2026-05-16T13:14:25Z</time>
      </trkpt>
      <trkpt lat="43.74363" lon="6.94358">
        <ele>1098.9</ele>
        <time>2026-05-16T13:14:26Z</time>
      </trkpt>
      <trkpt lat="43.74365" lon="6.9438">
        <ele>1099.3</ele>
        <time>2026-05-16T13:14:27Z</time>
      </trkpt>
      <trkpt lat="43.74367" lon="6.94401">
        <ele>1099.5</ele>
        <time>2026-05-16T13:14:28Z</time>
      </trkpt>
      <trkpt lat="43.74371" lon="6.94421">
        <ele>1099.5</ele>
        <time>2026-05-16T13:14:29Z</time>
      </trkpt>
      <trkpt lat="43.74376" lon="6.94441">
        <ele>1100.3</ele>
        <time>2026-05-16T13:14:30Z</time>
      </trkpt>
      <trkpt lat="43.74384" lon="6.94459">
        <ele>1101</ele>
        <time>2026-05-16T13:14:31Z</time>
      </trkpt>
      <trkpt lat="43.74393" lon="6.94477">
        <ele>1101.9</ele>
        <time>2026-05-16T13:14:32Z</time>
      </trkpt>
      <trkpt lat="43.744" lon="6.94494">
        <ele>1102.3</ele>
        <time>2026-05-16T13:14:33Z</time>
      </trkpt>
      <trkpt lat="43.74406" lon="6.94512">
        <ele>1102.7</ele>
        <time>2026-05-16T13:14:34Z</time>
      </trkpt>
      <trkpt lat="43.74411" lon="6.94529">
        <ele>1103</ele>
        <time>2026-05-16T13:14:35Z</time>
      </trkpt>
      <trkpt lat="43.74415" lon="6.94546">
        <ele>1103.6</ele>
        <time>2026-05-16T13:14:36Z</time>
      </trkpt>
      <trkpt lat="43.74419" lon="6.94561">
        <ele>1104</ele>
        <time>2026-05-16T13:14:37Z</time>
      </trkpt>
      <trkpt lat="43.74421" lon="6.94576">
        <ele>1104.4</ele>
        <time>2026-05-16T13:14:38Z</time>
      </trkpt>
      <trkpt lat="43.74422" lon="6.9459">
        <ele>1104.9</ele>
        <time>2026-05-16T13:14:39Z</time>
      </trkpt>
      <trkpt lat="43.7442" lon="6.94603">
        <ele>1105.5</ele>
        <time>2026-05-16T13:14:40Z</time>
      </trkpt>
      <trkpt lat="43.74417" lon="6.94614">
        <ele>1106</ele>
        <time>2026-05-16T13:14:41Z</time>
      </trkpt>
      <trkpt lat="43.74411" lon="6.94623">
        <ele>1105.8</ele>
        <time>2026-05-16T13:14:42Z</time>
      </trkpt>
      <trkpt lat="43.74403" lon="6.9463">
        <ele>1105.7</ele>
        <time>2026-05-16T13:14:43Z</time>
      </trkpt>
      <trkpt lat="43.74394" lon="6.94633">
        <ele>1105.7</ele>
        <time>2026-05-16T13:14:44Z</time>
      </trkpt>
      <trkpt lat="43.74384" lon="6.94633">
        <ele>1106.1</ele>
        <time>2026-05-16T13:14:45Z</time>
      </trkpt>
      <trkpt lat="43.74374" lon="6.94629">
        <ele>1106.9</ele>
        <time>2026-05-16T13:14:46Z</time>
      </trkpt>
      <trkpt lat="43.74365" lon="6.9462">
        <ele>1107.2</ele>
        <time>2026-05-16T13:14:47Z</time>
      </trkpt>
      <trkpt lat="43.74358" lon="6.94608">
        <ele>1107.3</ele>
        <time>2026-05-16T13:14:48Z</time>
      </trkpt>
      <trkpt lat="43.74351" lon="6.94594">
        <ele>1107.6</ele>
        <time>2026-05-16T13:14:49Z</time>
      </trkpt>
      <trkpt lat="43.74342" lon="6.9458">
        <ele>1108.2</ele>
        <time>2026-05-16T13:14:50Z</time>
      </trkpt>
      <trkpt lat="43.74332" lon="6.94567">
        <ele>1109</ele>
        <time>2026-05-16T13:14:51Z</time>
      </trkpt>
      <trkpt lat="43.74322" lon="6.94558">
        <ele>1109.8</ele>
        <time>2026-05-16T13:14:52Z</time>
      </trkpt>
      <trkpt lat="43.74309" lon="6.94553">
        <ele>1111.4</ele>
        <time>2026-05-16T13:14:53Z</time>
      </trkpt>
      <trkpt lat="43.74296" lon="6.94551">
        <ele>1112.9</ele>
        <time>2026-05-16T13:14:54Z</time>
      </trkpt>
      <trkpt lat="43.74282" lon="6.9455">
        <ele>1114.3</ele>
        <time>2026-05-16T13:14:55Z</time>
      </trkpt>
      <trkpt lat="43.74267" lon="6.94551">
        <ele>1115.3</ele>
        <time>2026-05-16T13:14:56Z</time>
      </trkpt>
      <trkpt lat="43.74253" lon="6.94554">
        <ele>1115.9</ele>
        <time>2026-05-16T13:14:57Z</time>
      </trkpt>
      <trkpt lat="43.74237" lon="6.94558">
        <ele>1117</ele>
        <time>2026-05-16T13:14:58Z</time>
      </trkpt>
      <trkpt lat="43.74221" lon="6.94562">
        <ele>1118</ele>
        <time>2026-05-16T13:14:59Z</time>
      </trkpt>
      <trkpt lat="43.74206" lon="6.94566">
        <ele>1118.4</ele>
        <time>2026-05-16T13:15:00Z</time>
      </trkpt>
      <trkpt lat="43.7419" lon="6.9457">
        <ele>1118.5</ele>
        <time>2026-05-16T13:15:01Z</time>
      </trkpt>
      <trkpt lat="43.74174" lon="6.94573">
        <ele>1118.4</ele>
        <time>2026-05-16T13:15:02Z</time>
      </trkpt>
      <trkpt lat="43.74159" lon="6.94577">
        <ele>1117.7</ele>
        <time>2026-05-16T13:15:03Z</time>
      </trkpt>
      <trkpt lat="43.74143" lon="6.94581">
        <ele>1116.4</ele>
        <time>2026-05-16T13:15:04Z</time>
      </trkpt>
      <trkpt lat="43.74127" lon="6.94585">
        <ele>1115.2</ele>
        <time>2026-05-16T13:15:05Z</time>
      </trkpt>
      <trkpt lat="43.74111" lon="6.94586">
        <ele>1114.1</ele>
        <time>2026-05-16T13:15:06Z</time>
      </trkpt>
      <trkpt lat="43.74094" lon="6.94585">
        <ele>1112.8</ele>
        <time>2026-05-16T13:15:07Z</time>
      </trkpt>
      <trkpt lat="43.74077" lon="6.94586">
        <ele>1111.6</ele>
        <time>2026-05-16T13:15:08Z</time>
      </trkpt>
      <trkpt lat="43.74061" lon="6.94591">
        <ele>1110.7</ele>
        <time>2026-05-16T13:15:09Z</time>
      </trkpt>
      <trkpt lat="43.74046" lon="6.94593">
        <ele>1109.6</ele>
        <time>2026-05-16T13:15:10Z</time>
      </trkpt>
      <trkpt lat="43.74031" lon="6.94595">
        <ele>1108.5</ele>
        <time>2026-05-16T13:15:11Z</time>
      </trkpt>
      <trkpt lat="43.74019" lon="6.94596">
        <ele>1107.4</ele>
        <time>2026-05-16T13:15:12Z</time>
      </trkpt>
      <trkpt lat="43.74009" lon="6.94599">
        <ele>1106.7</ele>
        <time>2026-05-16T13:15:13Z</time>
      </trkpt>
      <trkpt lat="43.74" lon="6.94606">
        <ele>1106.4</ele>
        <time>2026-05-16T13:15:14Z</time>
      </trkpt>
      <trkpt lat="43.73992" lon="6.94615">
        <ele>1105.7</ele>
        <time>2026-05-16T13:15:15Z</time>
      </trkpt>
      <trkpt lat="43.73985" lon="6.94624">
        <ele>1105.2</ele>
        <time>2026-05-16T13:15:16Z</time>
      </trkpt>
      <trkpt lat="43.73979" lon="6.94634">
        <ele>1104.9</ele>
        <time>2026-05-16T13:15:17Z</time>
      </trkpt>
      <trkpt lat="43.73976" lon="6.94642">
        <ele>1105</ele>
        <time>2026-05-16T13:15:18Z</time>
      </trkpt>
      <trkpt lat="43.73974" lon="6.94648">
        <ele>1105</ele>
        <time>2026-05-16T13:15:19Z</time>
      </trkpt>
      <trkpt lat="43.73971" lon="6.94652">
        <ele>1104.7</ele>
        <time>2026-05-16T13:15:20Z</time>
      </trkpt>
      <trkpt lat="43.73968" lon="6.94655">
        <ele>1104.4</ele>
        <time>2026-05-16T13:15:21Z</time>
      </trkpt>
      <trkpt lat="43.73964" lon="6.94655">
        <ele>1103.7</ele>
        <time>2026-05-16T13:15:22Z</time>
      </trkpt>
      <trkpt lat="43.7396" lon="6.94651">
        <ele>1102.6</ele>
        <time>2026-05-16T13:15:23Z</time>
      </trkpt>
      <trkpt lat="43.73959" lon="6.94645">
        <ele>1101.8</ele>
        <time>2026-05-16T13:15:24Z</time>
      </trkpt>
      <trkpt lat="43.73962" lon="6.94636">
        <ele>1101.4</ele>
        <time>2026-05-16T13:15:25Z</time>
      </trkpt>
      <trkpt lat="43.73966" lon="6.94627">
        <ele>1101.3</ele>
        <time>2026-05-16T13:15:26Z</time>
      </trkpt>
      <trkpt lat="43.73971" lon="6.94616">
        <ele>1101.2</ele>
        <time>2026-05-16T13:15:27Z</time>
      </trkpt>
      <trkpt lat="43.73976" lon="6.94604">
        <ele>1101.3</ele>
        <time>2026-05-16T13:15:28Z</time>
      </trkpt>
      <trkpt lat="43.7398" lon="6.94592">
        <ele>1101.1</ele>
        <time>2026-05-16T13:15:29Z</time>
      </trkpt>
      <trkpt lat="43.73982" lon="6.94578">
        <ele>1100.9</ele>
        <time>2026-05-16T13:15:30Z</time>
      </trkpt>
      <trkpt lat="43.73979" lon="6.94567">
        <ele>1100.5</ele>
        <time>2026-05-16T13:15:31Z</time>
      </trkpt>
      <trkpt lat="43.73973" lon="6.94557">
        <ele>1099.2</ele>
        <time>2026-05-16T13:15:32Z</time>
      </trkpt>
      <trkpt lat="43.73966" lon="6.94548">
        <ele>1097.9</ele>
        <time>2026-05-16T13:15:33Z</time>
      </trkpt>
      <trkpt lat="43.73957" lon="6.94541">
        <ele>1096.5</ele>
        <time>2026-05-16T13:15:34Z</time>
      </trkpt>
      <trkpt lat="43.73946" lon="6.94539">
        <ele>1094.8</ele>
        <time>2026-05-16T13:15:35Z</time>
      </trkpt>
      <trkpt lat="43.73935" lon="6.94536">
        <ele>1094.1</ele>
        <time>2026-05-16T13:15:36Z</time>
      </trkpt>
      <trkpt lat="43.73923" lon="6.94538">
        <ele>1093</ele>
        <time>2026-05-16T13:15:37Z</time>
      </trkpt>
      <trkpt lat="43.73911" lon="6.94538">
        <ele>1092</ele>
        <time>2026-05-16T13:15:38Z</time>
      </trkpt>
      <trkpt lat="43.739" lon="6.94539">
        <ele>1090.9</ele>
        <time>2026-05-16T13:15:39Z</time>
      </trkpt>
      <trkpt lat="43.73888" lon="6.9454">
        <ele>1089.7</ele>
        <time>2026-05-16T13:15:40Z</time>
      </trkpt>
      <trkpt lat="43.73877" lon="6.94538">
        <ele>1088.3</ele>
        <time>2026-05-16T13:15:41Z</time>
      </trkpt>
      <trkpt lat="43.73867" lon="6.94533">
        <ele>1087.8</ele>
        <time>2026-05-16T13:15:42Z</time>
      </trkpt>
      <trkpt lat="43.73857" lon="6.94527">
        <ele>1087.4</ele>
        <time>2026-05-16T13:15:43Z</time>
      </trkpt>
      <trkpt lat="43.73848" lon="6.94518">
        <ele>1087.6</ele>
        <time>2026-05-16T13:15:44Z</time>
      </trkpt>
      <trkpt lat="43.73838" lon="6.94511">
        <ele>1087.4</ele>
        <time>2026-05-16T13:15:45Z</time>
      </trkpt>
      <trkpt lat="43.73827" lon="6.94507">
        <ele>1086.7</ele>
        <time>2026-05-16T13:15:46Z</time>
      </trkpt>
      <trkpt lat="43.73816" lon="6.94505">
        <ele>1085.8</ele>
        <time>2026-05-16T13:15:47Z</time>
      </trkpt>
      <trkpt lat="43.73805" lon="6.94502">
        <ele>1085.4</ele>
        <time>2026-05-16T13:15:48Z</time>
      </trkpt>
      <trkpt lat="43.73794" lon="6.94498">
        <ele>1085.7</ele>
        <time>2026-05-16T13:15:49Z</time>
      </trkpt>
      <trkpt lat="43.73784" lon="6.94496">
        <ele>1085.5</ele>
        <time>2026-05-16T13:15:50Z</time>
      </trkpt>
      <trkpt lat="43.73773" lon="6.94497">
        <ele>1084.9</ele>
        <time>2026-05-16T13:15:51Z</time>
      </trkpt>
      <trkpt lat="43.73762" lon="6.945">
        <ele>1084</ele>
        <time>2026-05-16T13:15:52Z</time>
      </trkpt>
      <trkpt lat="43.73751" lon="6.94505">
        <ele>1082.7</ele>
        <time>2026-05-16T13:15:53Z</time>
      </trkpt>
      <trkpt lat="43.73741" lon="6.94511">
        <ele>1082</ele>
        <time>2026-05-16T13:15:54Z</time>
      </trkpt>
      <trkpt lat="43.73731" lon="6.94518">
        <ele>1081.3</ele>
        <time>2026-05-16T13:15:55Z</time>
      </trkpt>
      <trkpt lat="43.73723" lon="6.94528">
        <ele>1079.9</ele>
        <time>2026-05-16T13:15:56Z</time>
      </trkpt>
      <trkpt lat="43.73717" lon="6.94539">
        <ele>1080.3</ele>
        <time>2026-05-16T13:15:57Z</time>
      </trkpt>
      <trkpt lat="43.73713" lon="6.94551">
        <ele>1080.5</ele>
        <time>2026-05-16T13:15:58Z</time>
      </trkpt>
      <trkpt lat="43.73715" lon="6.94565">
        <ele>1080.2</ele>
        <time>2026-05-16T13:15:59Z</time>
      </trkpt>
      <trkpt lat="43.73719" lon="6.9458">
        <ele>1079.7</ele>
        <time>2026-05-16T13:16:00Z</time>
      </trkpt>
      <trkpt lat="43.73731" lon="6.94591">
        <ele>1076.8</ele>
        <time>2026-05-16T13:16:01Z</time>
      </trkpt>
      <trkpt lat="43.73736" lon="6.94605">
        <ele>1075.5</ele>
        <time>2026-05-16T13:16:02Z</time>
      </trkpt>
      <trkpt lat="43.73737" lon="6.9462">
        <ele>1075</ele>
        <time>2026-05-16T13:16:03Z</time>
      </trkpt>
      <trkpt lat="43.73738" lon="6.94636">
        <ele>1074.1</ele>
        <time>2026-05-16T13:16:04Z</time>
      </trkpt>
      <trkpt lat="43.73738" lon="6.94651">
        <ele>1073</ele>
        <time>2026-05-16T13:16:05Z</time>
      </trkpt>
      <trkpt lat="43.73729" lon="6.94666">
        <ele>1073.6</ele>
        <time>2026-05-16T13:16:06Z</time>
      </trkpt>
      <trkpt lat="43.73722" lon="6.9468">
        <ele>1072.7</ele>
        <time>2026-05-16T13:16:07Z</time>
      </trkpt>
      <trkpt lat="43.73713" lon="6.94695">
        <ele>1071.9</ele>
        <time>2026-05-16T13:16:08Z</time>
      </trkpt>
      <trkpt lat="43.73704" lon="6.94711">
        <ele>1069.8</ele>
        <time>2026-05-16T13:16:09Z</time>
      </trkpt>
      <trkpt lat="43.73695" lon="6.94726">
        <ele>1067.8</ele>
        <time>2026-05-16T13:16:10Z</time>
      </trkpt>
      <trkpt lat="43.73686" lon="6.94741">
        <ele>1066.1</ele>
        <time>2026-05-16T13:16:11Z</time>
      </trkpt>
      <trkpt lat="43.73677" lon="6.94756">
        <ele>1065.1</ele>
        <time>2026-05-16T13:16:12Z</time>
      </trkpt>
      <trkpt lat="43.73668" lon="6.94772">
        <ele>1064</ele>
        <time>2026-05-16T13:16:13Z</time>
      </trkpt>
      <trkpt lat="43.73658" lon="6.94787">
        <ele>1062.8</ele>
        <time>2026-05-16T13:16:14Z</time>
      </trkpt>
      <trkpt lat="43.7365" lon="6.94803">
        <ele>1061.3</ele>
        <time>2026-05-16T13:16:15Z</time>
      </trkpt>
      <trkpt lat="43.73641" lon="6.94819">
        <ele>1060</ele>
        <time>2026-05-16T13:16:16Z</time>
      </trkpt>
      <trkpt lat="43.73632" lon="6.94833">
        <ele>1058.8</ele>
        <time>2026-05-16T13:16:17Z</time>
      </trkpt>
      <trkpt lat="43.73623" lon="6.94848">
        <ele>1057.8</ele>
        <time>2026-05-16T13:16:18Z</time>
      </trkpt>
      <trkpt lat="43.73613" lon="6.94861">
        <ele>1057.5</ele>
        <time>2026-05-16T13:16:19Z</time>
      </trkpt>
      <trkpt lat="43.73602" lon="6.94872">
        <ele>1056.2</ele>
        <time>2026-05-16T13:16:20Z</time>
      </trkpt>
      <trkpt lat="43.7359" lon="6.94882">
        <ele>1055</ele>
        <time>2026-05-16T13:16:21Z</time>
      </trkpt>
      <trkpt lat="43.73578" lon="6.94889">
        <ele>1054.3</ele>
        <time>2026-05-16T13:16:22Z</time>
      </trkpt>
      <trkpt lat="43.73565" lon="6.94895">
        <ele>1053.1</ele>
        <time>2026-05-16T13:16:23Z</time>
      </trkpt>
      <trkpt lat="43.73552" lon="6.949">
        <ele>1052.3</ele>
        <time>2026-05-16T13:16:24Z</time>
      </trkpt>
      <trkpt lat="43.73539" lon="6.94905">
        <ele>1051.6</ele>
        <time>2026-05-16T13:16:25Z</time>
      </trkpt>
      <trkpt lat="43.73527" lon="6.94911">
        <ele>1050.3</ele>
        <time>2026-05-16T13:16:26Z</time>
      </trkpt>
      <trkpt lat="43.73514" lon="6.94916">
        <ele>1049.7</ele>
        <time>2026-05-16T13:16:27Z</time>
      </trkpt>
      <trkpt lat="43.73502" lon="6.9492">
        <ele>1049.2</ele>
        <time>2026-05-16T13:16:28Z</time>
      </trkpt>
      <trkpt lat="43.73489" lon="6.94923">
        <ele>1048.1</ele>
        <time>2026-05-16T13:16:29Z</time>
      </trkpt>
      <trkpt lat="43.73477" lon="6.94925">
        <ele>1047.3</ele>
        <time>2026-05-16T13:16:30Z</time>
      </trkpt>
      <trkpt lat="43.73464" lon="6.94927">
        <ele>1046.6</ele>
        <time>2026-05-16T13:16:31Z</time>
      </trkpt>
      <trkpt lat="43.73451" lon="6.94928">
        <ele>1046.4</ele>
        <time>2026-05-16T13:16:32Z</time>
      </trkpt>
      <trkpt lat="43.73439" lon="6.94929">
        <ele>1045.7</ele>
        <time>2026-05-16T13:16:33Z</time>
      </trkpt>
      <trkpt lat="43.73426" lon="6.94929">
        <ele>1044.8</ele>
        <time>2026-05-16T13:16:34Z</time>
      </trkpt>
      <trkpt lat="43.73413" lon="6.94929">
        <ele>1044</ele>
        <time>2026-05-16T13:16:35Z</time>
      </trkpt>
      <trkpt lat="43.734" lon="6.94929">
        <ele>1043.4</ele>
        <time>2026-05-16T13:16:36Z</time>
      </trkpt>
      <trkpt lat="43.73387" lon="6.9493">
        <ele>1042.7</ele>
        <time>2026-05-16T13:16:37Z</time>
      </trkpt>
      <trkpt lat="43.73373" lon="6.94933">
        <ele>1041.8</ele>
        <time>2026-05-16T13:16:38Z</time>
      </trkpt>
      <trkpt lat="43.7336" lon="6.9494">
        <ele>1040.2</ele>
        <time>2026-05-16T13:16:39Z</time>
      </trkpt>
      <trkpt lat="43.73348" lon="6.94949">
        <ele>1039.3</ele>
        <time>2026-05-16T13:16:40Z</time>
      </trkpt>
      <trkpt lat="43.73336" lon="6.9496">
        <ele>1038.2</ele>
        <time>2026-05-16T13:16:41Z</time>
      </trkpt>
      <trkpt lat="43.73324" lon="6.94973">
        <ele>1036.8</ele>
        <time>2026-05-16T13:16:42Z</time>
      </trkpt>
      <trkpt lat="43.73313" lon="6.94987">
        <ele>1035.3</ele>
        <time>2026-05-16T13:16:43Z</time>
      </trkpt>
      <trkpt lat="43.73302" lon="6.95">
        <ele>1034.6</ele>
        <time>2026-05-16T13:16:44Z</time>
      </trkpt>
      <trkpt lat="43.7329" lon="6.95013">
        <ele>1034</ele>
        <time>2026-05-16T13:16:45Z</time>
      </trkpt>
      <trkpt lat="43.73278" lon="6.95026">
        <ele>1033.3</ele>
        <time>2026-05-16T13:16:46Z</time>
      </trkpt>
      <trkpt lat="43.73266" lon="6.95039">
        <ele>1031.8</ele>
        <time>2026-05-16T13:16:47Z</time>
      </trkpt>
      <trkpt lat="43.73253" lon="6.95051">
        <ele>1030.7</ele>
        <time>2026-05-16T13:16:48Z</time>
      </trkpt>
      <trkpt lat="43.7324" lon="6.9506">
        <ele>1029.6</ele>
        <time>2026-05-16T13:16:49Z</time>
      </trkpt>
      <trkpt lat="43.73226" lon="6.95068">
        <ele>1028.6</ele>
        <time>2026-05-16T13:16:50Z</time>
      </trkpt>
      <trkpt lat="43.73212" lon="6.95074">
        <ele>1027.7</ele>
        <time>2026-05-16T13:16:51Z</time>
      </trkpt>
      <trkpt lat="43.73198" lon="6.95079">
        <ele>1027</ele>
        <time>2026-05-16T13:16:52Z</time>
      </trkpt>
      <trkpt lat="43.73184" lon="6.95082">
        <ele>1026</ele>
        <time>2026-05-16T13:16:53Z</time>
      </trkpt>
      <trkpt lat="43.7317" lon="6.95082">
        <ele>1025.5</ele>
        <time>2026-05-16T13:16:54Z</time>
      </trkpt>
      <trkpt lat="43.73155" lon="6.9508">
        <ele>1024.9</ele>
        <time>2026-05-16T13:16:55Z</time>
      </trkpt>
      <trkpt lat="43.73142" lon="6.9508">
        <ele>1024</ele>
        <time>2026-05-16T13:16:56Z</time>
      </trkpt>
      <trkpt lat="43.73131" lon="6.95084">
        <ele>1022.9</ele>
        <time>2026-05-16T13:16:57Z</time>
      </trkpt>
      <trkpt lat="43.73122" lon="6.95093">
        <ele>1022.2</ele>
        <time>2026-05-16T13:16:58Z</time>
      </trkpt>
      <trkpt lat="43.73115" lon="6.95102">
        <ele>1022</ele>
        <time>2026-05-16T13:16:59Z</time>
      </trkpt>
      <trkpt lat="43.73115" lon="6.95118">
        <ele>1021.2</ele>
        <time>2026-05-16T13:17:00Z</time>
      </trkpt>
      <trkpt lat="43.73117" lon="6.95133">
        <ele>1020.1</ele>
        <time>2026-05-16T13:17:01Z</time>
      </trkpt>
      <trkpt lat="43.73121" lon="6.95151">
        <ele>1018.7</ele>
        <time>2026-05-16T13:17:02Z</time>
      </trkpt>
      <trkpt lat="43.73124" lon="6.95169">
        <ele>1017.7</ele>
        <time>2026-05-16T13:17:03Z</time>
      </trkpt>
      <trkpt lat="43.73127" lon="6.95188">
        <ele>1016.2</ele>
        <time>2026-05-16T13:17:04Z</time>
      </trkpt>
      <trkpt lat="43.73129" lon="6.95207">
        <ele>1014.9</ele>
        <time>2026-05-16T13:17:05Z</time>
      </trkpt>
      <trkpt lat="43.73131" lon="6.95225">
        <ele>1013.7</ele>
        <time>2026-05-16T13:17:06Z</time>
      </trkpt>
      <trkpt lat="43.73131" lon="6.95243">
        <ele>1013.5</ele>
        <time>2026-05-16T13:17:07Z</time>
      </trkpt>
      <trkpt lat="43.73129" lon="6.95261">
        <ele>1013.2</ele>
        <time>2026-05-16T13:17:08Z</time>
      </trkpt>
      <trkpt lat="43.73125" lon="6.95278">
        <ele>1013</ele>
        <time>2026-05-16T13:17:09Z</time>
      </trkpt>
      <trkpt lat="43.7312" lon="6.95294">
        <ele>1012</ele>
        <time>2026-05-16T13:17:10Z</time>
      </trkpt>
      <trkpt lat="43.73114" lon="6.95308">
        <ele>1011.3</ele>
        <time>2026-05-16T13:17:11Z</time>
      </trkpt>
      <trkpt lat="43.7311" lon="6.95318">
        <ele>1010.8</ele>
        <time>2026-05-16T13:17:12Z</time>
      </trkpt>
      <trkpt lat="43.73109" lon="6.95326">
        <ele>1010.1</ele>
        <time>2026-05-16T13:17:13Z</time>
      </trkpt>
      <trkpt lat="43.73109" lon="6.95335">
        <ele>1009.1</ele>
        <time>2026-05-16T13:17:14Z</time>
      </trkpt>
      <trkpt lat="43.73113" lon="6.95342">
        <ele>1007.5</ele>
        <time>2026-05-16T13:17:15Z</time>
      </trkpt>
      <trkpt lat="43.7312" lon="6.95345">
        <ele>1006</ele>
        <time>2026-05-16T13:17:16Z</time>
      </trkpt>
      <trkpt lat="43.73128" lon="6.95343">
        <ele>1005.2</ele>
        <time>2026-05-16T13:17:17Z</time>
      </trkpt>
      <trkpt lat="43.73135" lon="6.95337">
        <ele>1005</ele>
        <time>2026-05-16T13:17:18Z</time>
      </trkpt>
      <trkpt lat="43.73141" lon="6.95327">
        <ele>1005.3</ele>
        <time>2026-05-16T13:17:19Z</time>
      </trkpt>
      <trkpt lat="43.73148" lon="6.95314">
        <ele>1005.4</ele>
        <time>2026-05-16T13:17:20Z</time>
      </trkpt>
      <trkpt lat="43.73154" lon="6.95303">
        <ele>1005.5</ele>
        <time>2026-05-16T13:17:21Z</time>
      </trkpt>
      <trkpt lat="43.73161" lon="6.95291">
        <ele>1004.8</ele>
        <time>2026-05-16T13:17:22Z</time>
      </trkpt>
      <trkpt lat="43.73165" lon="6.95278">
        <ele>1004.4</ele>
        <time>2026-05-16T13:17:23Z</time>
      </trkpt>
      <trkpt lat="43.73168" lon="6.95263">
        <ele>1003.5</ele>
        <time>2026-05-16T13:17:24Z</time>
      </trkpt>
      <trkpt lat="43.73169" lon="6.95247">
        <ele>1003</ele>
        <time>2026-05-16T13:17:25Z</time>
      </trkpt>
      <trkpt lat="43.73169" lon="6.95232">
        <ele>1002.4</ele>
        <time>2026-05-16T13:17:26Z</time>
      </trkpt>
      <trkpt lat="43.7317" lon="6.95218">
        <ele>1001.7</ele>
        <time>2026-05-16T13:17:27Z</time>
      </trkpt>
      <trkpt lat="43.73172" lon="6.95205">
        <ele>1001.1</ele>
        <time>2026-05-16T13:17:28Z</time>
      </trkpt>
      <trkpt lat="43.73176" lon="6.95193">
        <ele>1000.1</ele>
        <time>2026-05-16T13:17:29Z</time>
      </trkpt>
      <trkpt lat="43.73183" lon="6.95184">
        <ele>998.8</ele>
        <time>2026-05-16T13:17:30Z</time>
      </trkpt>
      <trkpt lat="43.73191" lon="6.95178">
        <ele>997.7</ele>
        <time>2026-05-16T13:17:31Z</time>
      </trkpt>
      <trkpt lat="43.73201" lon="6.95177">
        <ele>996.9</ele>
        <time>2026-05-16T13:17:32Z</time>
      </trkpt>
      <trkpt lat="43.73212" lon="6.95178">
        <ele>996.2</ele>
        <time>2026-05-16T13:17:33Z</time>
      </trkpt>
      <trkpt lat="43.73224" lon="6.95181">
        <ele>994.7</ele>
        <time>2026-05-16T13:17:34Z</time>
      </trkpt>
      <trkpt lat="43.73236" lon="6.95183">
        <ele>993.2</ele>
        <time>2026-05-16T13:17:35Z</time>
      </trkpt>
      <trkpt lat="43.73248" lon="6.95185">
        <ele>991.6</ele>
        <time>2026-05-16T13:17:36Z</time>
      </trkpt>
      <trkpt lat="43.7326" lon="6.95187">
        <ele>990.7</ele>
        <time>2026-05-16T13:17:37Z</time>
      </trkpt>
      <trkpt lat="43.73271" lon="6.95189">
        <ele>990</ele>
        <time>2026-05-16T13:17:38Z</time>
      </trkpt>
      <trkpt lat="43.73283" lon="6.95191">
        <ele>989</ele>
        <time>2026-05-16T13:17:39Z</time>
      </trkpt>
      <trkpt lat="43.73294" lon="6.9519">
        <ele>988.7</ele>
        <time>2026-05-16T13:17:40Z</time>
      </trkpt>
      <trkpt lat="43.73306" lon="6.95188">
        <ele>988.5</ele>
        <time>2026-05-16T13:17:41Z</time>
      </trkpt>
      <trkpt lat="43.73317" lon="6.95184">
        <ele>986.7</ele>
        <time>2026-05-16T13:17:42Z</time>
      </trkpt>
      <trkpt lat="43.73329" lon="6.95176">
        <ele>985.7</ele>
        <time>2026-05-16T13:17:43Z</time>
      </trkpt>
      <trkpt lat="43.7334" lon="6.95168">
        <ele>984.3</ele>
        <time>2026-05-16T13:17:44Z</time>
      </trkpt>
      <trkpt lat="43.73349" lon="6.95158">
        <ele>983.4</ele>
        <time>2026-05-16T13:17:45Z</time>
      </trkpt>
      <trkpt lat="43.73358" lon="6.95146">
        <ele>982.7</ele>
        <time>2026-05-16T13:17:46Z</time>
      </trkpt>
      <trkpt lat="43.73366" lon="6.95134">
        <ele>981.9</ele>
        <time>2026-05-16T13:17:47Z</time>
      </trkpt>
      <trkpt lat="43.73373" lon="6.95121">
        <ele>981.7</ele>
        <time>2026-05-16T13:17:48Z</time>
      </trkpt>
      <trkpt lat="43.73381" lon="6.95108">
        <ele>981.3</ele>
        <time>2026-05-16T13:17:49Z</time>
      </trkpt>
      <trkpt lat="43.7339" lon="6.95097">
        <ele>980.9</ele>
        <time>2026-05-16T13:17:50Z</time>
      </trkpt>
      <trkpt lat="43.734" lon="6.9509">
        <ele>981.3</ele>
        <time>2026-05-16T13:17:51Z</time>
      </trkpt>
      <trkpt lat="43.73411" lon="6.95089">
        <ele>979.9</ele>
        <time>2026-05-16T13:17:52Z</time>
      </trkpt>
      <trkpt lat="43.73421" lon="6.95094">
        <ele>977.7</ele>
        <time>2026-05-16T13:17:53Z</time>
      </trkpt>
      <trkpt lat="43.73431" lon="6.951">
        <ele>976.8</ele>
        <time>2026-05-16T13:17:54Z</time>
      </trkpt>
      <trkpt lat="43.73441" lon="6.95106">
        <ele>975.6</ele>
        <time>2026-05-16T13:17:55Z</time>
      </trkpt>
      <trkpt lat="43.73452" lon="6.9511">
        <ele>974.4</ele>
        <time>2026-05-16T13:17:56Z</time>
      </trkpt>
      <trkpt lat="43.73464" lon="6.95111">
        <ele>974</ele>
        <time>2026-05-16T13:17:57Z</time>
      </trkpt>
      <trkpt lat="43.73476" lon="6.95111">
        <ele>973.8</ele>
        <time>2026-05-16T13:17:58Z</time>
      </trkpt>
      <trkpt lat="43.73488" lon="6.95111">
        <ele>972.9</ele>
        <time>2026-05-16T13:17:59Z</time>
      </trkpt>
      <trkpt lat="43.73501" lon="6.95111">
        <ele>972</ele>
        <time>2026-05-16T13:18:00Z</time>
      </trkpt>
      <trkpt lat="43.73514" lon="6.95111">
        <ele>971</ele>
        <time>2026-05-16T13:18:01Z</time>
      </trkpt>
      <trkpt lat="43.73527" lon="6.95111">
        <ele>970.1</ele>
        <time>2026-05-16T13:18:02Z</time>
      </trkpt>
      <trkpt lat="43.7354" lon="6.95111">
        <ele>968.7</ele>
        <time>2026-05-16T13:18:03Z</time>
      </trkpt>
      <trkpt lat="43.73552" lon="6.95111">
        <ele>967.4</ele>
        <time>2026-05-16T13:18:04Z</time>
      </trkpt>
      <trkpt lat="43.73565" lon="6.95111">
        <ele>966.7</ele>
        <time>2026-05-16T13:18:05Z</time>
      </trkpt>
      <trkpt lat="43.73577" lon="6.95112">
        <ele>966</ele>
        <time>2026-05-16T13:18:06Z</time>
      </trkpt>
      <trkpt lat="43.73589" lon="6.95112">
        <ele>966.2</ele>
        <time>2026-05-16T13:18:07Z</time>
      </trkpt>
      <trkpt lat="43.73599" lon="6.95113">
        <ele>966.8</ele>
        <time>2026-05-16T13:18:08Z</time>
      </trkpt>
      <trkpt lat="43.73607" lon="6.95118">
        <ele>966.6</ele>
        <time>2026-05-16T13:18:09Z</time>
      </trkpt>
      <trkpt lat="43.73612" lon="6.95127">
        <ele>965.8</ele>
        <time>2026-05-16T13:18:10Z</time>
      </trkpt>
      <trkpt lat="43.73612" lon="6.95138">
        <ele>964.3</ele>
        <time>2026-05-16T13:18:11Z</time>
      </trkpt>
      <trkpt lat="43.73608" lon="6.95149">
        <ele>964.9</ele>
        <time>2026-05-16T13:18:12Z</time>
      </trkpt>
      <trkpt lat="43.736" lon="6.95158">
        <ele>964.3</ele>
        <time>2026-05-16T13:18:13Z</time>
      </trkpt>
      <trkpt lat="43.73591" lon="6.95166">
        <ele>962.9</ele>
        <time>2026-05-16T13:18:14Z</time>
      </trkpt>
      <trkpt lat="43.73579" lon="6.95176">
        <ele>961.6</ele>
        <time>2026-05-16T13:18:15Z</time>
      </trkpt>
      <trkpt lat="43.73567" lon="6.95187">
        <ele>959.7</ele>
        <time>2026-05-16T13:18:16Z</time>
      </trkpt>
      <trkpt lat="43.73556" lon="6.95199">
        <ele>958.3</ele>
        <time>2026-05-16T13:18:17Z</time>
      </trkpt>
      <trkpt lat="43.73546" lon="6.95214">
        <ele>957.9</ele>
        <time>2026-05-16T13:18:18Z</time>
      </trkpt>
      <trkpt lat="43.73535" lon="6.95229">
        <ele>956.8</ele>
        <time>2026-05-16T13:18:19Z</time>
      </trkpt>
      <trkpt lat="43.73524" lon="6.95244">
        <ele>956</ele>
        <time>2026-05-16T13:18:20Z</time>
      </trkpt>
      <trkpt lat="43.73514" lon="6.95259">
        <ele>955.7</ele>
        <time>2026-05-16T13:18:21Z</time>
      </trkpt>
      <trkpt lat="43.73504" lon="6.95274">
        <ele>954.9</ele>
        <time>2026-05-16T13:18:22Z</time>
      </trkpt>
      <trkpt lat="43.73493" lon="6.95289">
        <ele>952.9</ele>
        <time>2026-05-16T13:18:23Z</time>
      </trkpt>
      <trkpt lat="43.73483" lon="6.95306">
        <ele>951.9</ele>
        <time>2026-05-16T13:18:24Z</time>
      </trkpt>
      <trkpt lat="43.73475" lon="6.95324">
        <ele>951.1</ele>
        <time>2026-05-16T13:18:25Z</time>
      </trkpt>
      <trkpt lat="43.73468" lon="6.95343">
        <ele>949.7</ele>
        <time>2026-05-16T13:18:26Z</time>
      </trkpt>
      <trkpt lat="43.73463" lon="6.95364">
        <ele>948.4</ele>
        <time>2026-05-16T13:18:27Z</time>
      </trkpt>
      <trkpt lat="43.7346" lon="6.95386">
        <ele>947.3</ele>
        <time>2026-05-16T13:18:28Z</time>
      </trkpt>
      <trkpt lat="43.73459" lon="6.95408">
        <ele>946.2</ele>
        <time>2026-05-16T13:18:29Z</time>
      </trkpt>
      <trkpt lat="43.73459" lon="6.95431">
        <ele>945.3</ele>
        <time>2026-05-16T13:18:30Z</time>
      </trkpt>
      <trkpt lat="43.73459" lon="6.95454">
        <ele>944.3</ele>
        <time>2026-05-16T13:18:31Z</time>
      </trkpt>
      <trkpt lat="43.73459" lon="6.95477">
        <ele>943.3</ele>
        <time>2026-05-16T13:18:32Z</time>
      </trkpt>
      <trkpt lat="43.73458" lon="6.95499">
        <ele>942.3</ele>
        <time>2026-05-16T13:18:33Z</time>
      </trkpt>
      <trkpt lat="43.73458" lon="6.95521">
        <ele>941.2</ele>
        <time>2026-05-16T13:18:34Z</time>
      </trkpt>
      <trkpt lat="43.73458" lon="6.95541">
        <ele>939.6</ele>
        <time>2026-05-16T13:18:35Z</time>
      </trkpt>
      <trkpt lat="43.73457" lon="6.95557">
        <ele>938</ele>
        <time>2026-05-16T13:18:36Z</time>
      </trkpt>
      <trkpt lat="43.73453" lon="6.95573">
        <ele>937.9</ele>
        <time>2026-05-16T13:18:37Z</time>
      </trkpt>
      <trkpt lat="43.73446" lon="6.95586">
        <ele>937.3</ele>
        <time>2026-05-16T13:18:38Z</time>
      </trkpt>
      <trkpt lat="43.73436" lon="6.95597">
        <ele>936.9</ele>
        <time>2026-05-16T13:18:39Z</time>
      </trkpt>
      <trkpt lat="43.73426" lon="6.95607">
        <ele>935.7</ele>
        <time>2026-05-16T13:18:40Z</time>
      </trkpt>
      <trkpt lat="43.73415" lon="6.95619">
        <ele>934.4</ele>
        <time>2026-05-16T13:18:41Z</time>
      </trkpt>
      <trkpt lat="43.73406" lon="6.95633">
        <ele>934.2</ele>
        <time>2026-05-16T13:18:42Z</time>
      </trkpt>
      <trkpt lat="43.73398" lon="6.95647">
        <ele>933</ele>
        <time>2026-05-16T13:18:43Z</time>
      </trkpt>
      <trkpt lat="43.73391" lon="6.95662">
        <ele>931.5</ele>
        <time>2026-05-16T13:18:44Z</time>
      </trkpt>
      <trkpt lat="43.73385" lon="6.95677">
        <ele>930.3</ele>
        <time>2026-05-16T13:18:45Z</time>
      </trkpt>
      <trkpt lat="43.7338" lon="6.95691">
        <ele>929.5</ele>
        <time>2026-05-16T13:18:46Z</time>
      </trkpt>
      <trkpt lat="43.73378" lon="6.95704">
        <ele>928.4</ele>
        <time>2026-05-16T13:18:47Z</time>
      </trkpt>
      <trkpt lat="43.73379" lon="6.95717">
        <ele>927.8</ele>
        <time>2026-05-16T13:18:48Z</time>
      </trkpt>
      <trkpt lat="43.73381" lon="6.9573">
        <ele>926.7</ele>
        <time>2026-05-16T13:18:49Z</time>
      </trkpt>
      <trkpt lat="43.73386" lon="6.95741">
        <ele>926.5</ele>
        <time>2026-05-16T13:18:50Z</time>
      </trkpt>
      <trkpt lat="43.7339" lon="6.95752">
        <ele>926.2</ele>
        <time>2026-05-16T13:18:51Z</time>
      </trkpt>
      <trkpt lat="43.73395" lon="6.95763">
        <ele>926.4</ele>
        <time>2026-05-16T13:18:52Z</time>
      </trkpt>
      <trkpt lat="43.73397" lon="6.95774">
        <ele>925</ele>
        <time>2026-05-16T13:18:53Z</time>
      </trkpt>
      <trkpt lat="43.73395" lon="6.95786">
        <ele>923.9</ele>
        <time>2026-05-16T13:18:54Z</time>
      </trkpt>
      <trkpt lat="43.73392" lon="6.95797">
        <ele>923.7</ele>
        <time>2026-05-16T13:18:55Z</time>
      </trkpt>
      <trkpt lat="43.73386" lon="6.95806">
        <ele>923.9</ele>
        <time>2026-05-16T13:18:56Z</time>
      </trkpt>
      <trkpt lat="43.73377" lon="6.95812">
        <ele>925.9</ele>
        <time>2026-05-16T13:18:57Z</time>
      </trkpt>
      <trkpt lat="43.73367" lon="6.95813">
        <ele>925.5</ele>
        <time>2026-05-16T13:18:58Z</time>
      </trkpt>
      <trkpt lat="43.73357" lon="6.95811">
        <ele>923.8</ele>
        <time>2026-05-16T13:18:59Z</time>
      </trkpt>
      <trkpt lat="43.73347" lon="6.9581">
        <ele>923</ele>
        <time>2026-05-16T13:19:00Z</time>
      </trkpt>
      <trkpt lat="43.73338" lon="6.95808">
        <ele>921.6</ele>
        <time>2026-05-16T13:19:01Z</time>
      </trkpt>
      <trkpt lat="43.73328" lon="6.95806">
        <ele>920.2</ele>
        <time>2026-05-16T13:19:02Z</time>
      </trkpt>
      <trkpt lat="43.73318" lon="6.95805">
        <ele>919.8</ele>
        <time>2026-05-16T13:19:03Z</time>
      </trkpt>
      <trkpt lat="43.73308" lon="6.95803">
        <ele>919</ele>
        <time>2026-05-16T13:19:04Z</time>
      </trkpt>
      <trkpt lat="43.73298" lon="6.95802">
        <ele>918.1</ele>
        <time>2026-05-16T13:19:05Z</time>
      </trkpt>
      <trkpt lat="43.73287" lon="6.95802">
        <ele>917.4</ele>
        <time>2026-05-16T13:19:06Z</time>
      </trkpt>
      <trkpt lat="43.73275" lon="6.95804">
        <ele>916.9</ele>
        <time>2026-05-16T13:19:07Z</time>
      </trkpt>
      <trkpt lat="43.73263" lon="6.95809">
        <ele>915.9</ele>
        <time>2026-05-16T13:19:08Z</time>
      </trkpt>
      <trkpt lat="43.73252" lon="6.95817">
        <ele>915.4</ele>
        <time>2026-05-16T13:19:09Z</time>
      </trkpt>
      <trkpt lat="43.73241" lon="6.95828">
        <ele>914.1</ele>
        <time>2026-05-16T13:19:10Z</time>
      </trkpt>
      <trkpt lat="43.7323" lon="6.95841">
        <ele>913.4</ele>
        <time>2026-05-16T13:19:11Z</time>
      </trkpt>
      <trkpt lat="43.73218" lon="6.95855">
        <ele>912.4</ele>
        <time>2026-05-16T13:19:12Z</time>
      </trkpt>
      <trkpt lat="43.73206" lon="6.9587">
        <ele>911.9</ele>
        <time>2026-05-16T13:19:13Z</time>
      </trkpt>
      <trkpt lat="43.73193" lon="6.95883">
        <ele>910.6</ele>
        <time>2026-05-16T13:19:14Z</time>
      </trkpt>
      <trkpt lat="43.7318" lon="6.95895">
        <ele>909.7</ele>
        <time>2026-05-16T13:19:15Z</time>
      </trkpt>
      <trkpt lat="43.73165" lon="6.95905">
        <ele>907.2</ele>
        <time>2026-05-16T13:19:16Z</time>
      </trkpt>
      <trkpt lat="43.73151" lon="6.95915">
        <ele>906.5</ele>
        <time>2026-05-16T13:19:17Z</time>
      </trkpt>
      <trkpt lat="43.73137" lon="6.95924">
        <ele>906.3</ele>
        <time>2026-05-16T13:19:18Z</time>
      </trkpt>
      <trkpt lat="43.73123" lon="6.95934">
        <ele>905.7</ele>
        <time>2026-05-16T13:19:19Z</time>
      </trkpt>
      <trkpt lat="43.73109" lon="6.95943">
        <ele>904.7</ele>
        <time>2026-05-16T13:19:20Z</time>
      </trkpt>
      <trkpt lat="43.73095" lon="6.95953">
        <ele>903.5</ele>
        <time>2026-05-16T13:19:21Z</time>
      </trkpt>
      <trkpt lat="43.73081" lon="6.95962">
        <ele>901.6</ele>
        <time>2026-05-16T13:19:22Z</time>
      </trkpt>
      <trkpt lat="43.73067" lon="6.95969">
        <ele>900.1</ele>
        <time>2026-05-16T13:19:23Z</time>
      </trkpt>
      <trkpt lat="43.73053" lon="6.95974">
        <ele>898.1</ele>
        <time>2026-05-16T13:19:24Z</time>
      </trkpt>
      <trkpt lat="43.73038" lon="6.95978">
        <ele>897.3</ele>
        <time>2026-05-16T13:19:25Z</time>
      </trkpt>
      <trkpt lat="43.73023" lon="6.95981">
        <ele>896.4</ele>
        <time>2026-05-16T13:19:26Z</time>
      </trkpt>
      <trkpt lat="43.73008" lon="6.95986">
        <ele>895.8</ele>
        <time>2026-05-16T13:19:27Z</time>
      </trkpt>
      <trkpt lat="43.72994" lon="6.95992">
        <ele>895</ele>
        <time>2026-05-16T13:19:28Z</time>
      </trkpt>
      <trkpt lat="43.7298" lon="6.96">
        <ele>893.5</ele>
        <time>2026-05-16T13:19:29Z</time>
      </trkpt>
      <trkpt lat="43.72966" lon="6.96008">
        <ele>892.6</ele>
        <time>2026-05-16T13:19:30Z</time>
      </trkpt>
      <trkpt lat="43.72952" lon="6.96016">
        <ele>891.7</ele>
        <time>2026-05-16T13:19:31Z</time>
      </trkpt>
      <trkpt lat="43.72939" lon="6.96024">
        <ele>891.1</ele>
        <time>2026-05-16T13:19:32Z</time>
      </trkpt>
      <trkpt lat="43.72926" lon="6.96032">
        <ele>890.9</ele>
        <time>2026-05-16T13:19:33Z</time>
      </trkpt>
      <trkpt lat="43.72915" lon="6.96038">
        <ele>889.8</ele>
        <time>2026-05-16T13:19:34Z</time>
      </trkpt>
      <trkpt lat="43.72904" lon="6.96045">
        <ele>888.5</ele>
        <time>2026-05-16T13:19:35Z</time>
      </trkpt>
      <trkpt lat="43.72893" lon="6.96051">
        <ele>886.9</ele>
        <time>2026-05-16T13:19:36Z</time>
      </trkpt>
      <trkpt lat="43.72882" lon="6.96058">
        <ele>885.9</ele>
        <time>2026-05-16T13:19:37Z</time>
      </trkpt>
      <trkpt lat="43.72871" lon="6.96064">
        <ele>885.3</ele>
        <time>2026-05-16T13:19:38Z</time>
      </trkpt>
      <trkpt lat="43.72861" lon="6.96071">
        <ele>885.6</ele>
        <time>2026-05-16T13:19:39Z</time>
      </trkpt>
      <trkpt lat="43.7285" lon="6.96077">
        <ele>884.8</ele>
        <time>2026-05-16T13:19:40Z</time>
      </trkpt>
      <trkpt lat="43.7284" lon="6.96083">
        <ele>884</ele>
        <time>2026-05-16T13:19:41Z</time>
      </trkpt>
      <trkpt lat="43.72829" lon="6.9609">
        <ele>883.1</ele>
        <time>2026-05-16T13:19:42Z</time>
      </trkpt>
      <trkpt lat="43.72819" lon="6.96097">
        <ele>882.3</ele>
        <time>2026-05-16T13:19:43Z</time>
      </trkpt>
      <trkpt lat="43.72809" lon="6.96105">
        <ele>881.8</ele>
        <time>2026-05-16T13:19:44Z</time>
      </trkpt>
      <trkpt lat="43.72799" lon="6.96114">
        <ele>880.9</ele>
        <time>2026-05-16T13:19:45Z</time>
      </trkpt>
      <trkpt lat="43.7279" lon="6.96123">
        <ele>879.6</ele>
        <time>2026-05-16T13:19:46Z</time>
      </trkpt>
      <trkpt lat="43.72781" lon="6.96133">
        <ele>878.6</ele>
        <time>2026-05-16T13:19:47Z</time>
      </trkpt>
      <trkpt lat="43.72774" lon="6.96144">
        <ele>878.4</ele>
        <time>2026-05-16T13:19:48Z</time>
      </trkpt>
      <trkpt lat="43.72767" lon="6.96154">
        <ele>877.3</ele>
        <time>2026-05-16T13:19:49Z</time>
      </trkpt>
      <trkpt lat="43.72762" lon="6.96163">
        <ele>876.9</ele>
        <time>2026-05-16T13:19:50Z</time>
      </trkpt>
      <trkpt lat="43.72758" lon="6.96171">
        <ele>876.6</ele>
        <time>2026-05-16T13:19:51Z</time>
      </trkpt>
      <trkpt lat="43.72753" lon="6.96178">
        <ele>875.2</ele>
        <time>2026-05-16T13:19:52Z</time>
      </trkpt>
      <trkpt lat="43.72749" lon="6.96187">
        <ele>874.8</ele>
        <time>2026-05-16T13:19:53Z</time>
      </trkpt>
      <trkpt lat="43.72746" lon="6.96196">
        <ele>874.8</ele>
        <time>2026-05-16T13:19:54Z</time>
      </trkpt>
      <trkpt lat="43.72743" lon="6.96205">
        <ele>874.5</ele>
        <time>2026-05-16T13:19:55Z</time>
      </trkpt>
      <trkpt lat="43.7274" lon="6.96214">
        <ele>874.1</ele>
        <time>2026-05-16T13:19:56Z</time>
      </trkpt>
      <trkpt lat="43.72737" lon="6.96224">
        <ele>873.8</ele>
        <time>2026-05-16T13:19:57Z</time>
      </trkpt>
      <trkpt lat="43.72733" lon="6.96236">
        <ele>872.5</ele>
        <time>2026-05-16T13:19:58Z</time>
      </trkpt>
      <trkpt lat="43.7273" lon="6.96249">
        <ele>871.9</ele>
        <time>2026-05-16T13:19:59Z</time>
      </trkpt>
      <trkpt lat="43.72728" lon="6.96264">
        <ele>871</ele>
        <time>2026-05-16T13:20:00Z</time>
      </trkpt>
      <trkpt lat="43.72728" lon="6.96278">
        <ele>871.1</ele>
        <time>2026-05-16T13:20:01Z</time>
      </trkpt>
      <trkpt lat="43.72728" lon="6.96294">
        <ele>870.1</ele>
        <time>2026-05-16T13:20:02Z</time>
      </trkpt>
      <trkpt lat="43.72728" lon="6.9631">
        <ele>869.1</ele>
        <time>2026-05-16T13:20:03Z</time>
      </trkpt>
      <trkpt lat="43.72729" lon="6.96328">
        <ele>868.9</ele>
        <time>2026-05-16T13:20:04Z</time>
      </trkpt>
      <trkpt lat="43.7273" lon="6.96347">
        <ele>868.2</ele>
        <time>2026-05-16T13:20:05Z</time>
      </trkpt>
      <trkpt lat="43.7273" lon="6.96366">
        <ele>866.8</ele>
        <time>2026-05-16T13:20:06Z</time>
      </trkpt>
      <trkpt lat="43.72731" lon="6.96386">
        <ele>866.2</ele>
        <time>2026-05-16T13:20:07Z</time>
      </trkpt>
      <trkpt lat="43.72731" lon="6.96407">
        <ele>865.2</ele>
        <time>2026-05-16T13:20:08Z</time>
      </trkpt>
      <trkpt lat="43.72731" lon="6.96428">
        <ele>863.5</ele>
        <time>2026-05-16T13:20:09Z</time>
      </trkpt>
      <trkpt lat="43.72732" lon="6.96449">
        <ele>862.1</ele>
        <time>2026-05-16T13:20:10Z</time>
      </trkpt>
      <trkpt lat="43.72732" lon="6.9647">
        <ele>861.3</ele>
        <time>2026-05-16T13:20:11Z</time>
      </trkpt>
      <trkpt lat="43.72733" lon="6.96492">
        <ele>859.4</ele>
        <time>2026-05-16T13:20:12Z</time>
      </trkpt>
      <trkpt lat="43.72733" lon="6.96513">
        <ele>857.4</ele>
        <time>2026-05-16T13:20:13Z</time>
      </trkpt>
      <trkpt lat="43.72734" lon="6.96534">
        <ele>855.8</ele>
        <time>2026-05-16T13:20:14Z</time>
      </trkpt>
      <trkpt lat="43.72734" lon="6.96555">
        <ele>854</ele>
        <time>2026-05-16T13:20:15Z</time>
      </trkpt>
      <trkpt lat="43.72733" lon="6.96575">
        <ele>853.3</ele>
        <time>2026-05-16T13:20:16Z</time>
      </trkpt>
      <trkpt lat="43.72732" lon="6.96596">
        <ele>853.8</ele>
        <time>2026-05-16T13:20:17Z</time>
      </trkpt>
      <trkpt lat="43.7273" lon="6.96616">
        <ele>853.9</ele>
        <time>2026-05-16T13:20:18Z</time>
      </trkpt>
      <trkpt lat="43.72729" lon="6.96636">
        <ele>853.2</ele>
        <time>2026-05-16T13:20:19Z</time>
      </trkpt>
      <trkpt lat="43.72727" lon="6.96655">
        <ele>852.2</ele>
        <time>2026-05-16T13:20:20Z</time>
      </trkpt>
      <trkpt lat="43.72725" lon="6.96674">
        <ele>851.3</ele>
        <time>2026-05-16T13:20:21Z</time>
      </trkpt>
      <trkpt lat="43.72722" lon="6.96693">
        <ele>849.9</ele>
        <time>2026-05-16T13:20:22Z</time>
      </trkpt>
      <trkpt lat="43.72719" lon="6.96712">
        <ele>849.5</ele>
        <time>2026-05-16T13:20:23Z</time>
      </trkpt>
      <trkpt lat="43.72717" lon="6.96731">
        <ele>849.2</ele>
        <time>2026-05-16T13:20:24Z</time>
      </trkpt>
      <trkpt lat="43.72714" lon="6.9675">
        <ele>848.3</ele>
        <time>2026-05-16T13:20:25Z</time>
      </trkpt>
      <trkpt lat="43.7271" lon="6.96768">
        <ele>846.7</ele>
        <time>2026-05-16T13:20:26Z</time>
      </trkpt>
      <trkpt lat="43.72705" lon="6.96786">
        <ele>845.1</ele>
        <time>2026-05-16T13:20:27Z</time>
      </trkpt>
      <trkpt lat="43.72699" lon="6.96802">
        <ele>843.9</ele>
        <time>2026-05-16T13:20:28Z</time>
      </trkpt>
      <trkpt lat="43.72692" lon="6.96818">
        <ele>843</ele>
        <time>2026-05-16T13:20:29Z</time>
      </trkpt>
      <trkpt lat="43.72685" lon="6.96833">
        <ele>842.6</ele>
        <time>2026-05-16T13:20:30Z</time>
      </trkpt>
      <trkpt lat="43.72678" lon="6.96849">
        <ele>842.8</ele>
        <time>2026-05-16T13:20:31Z</time>
      </trkpt>
      <trkpt lat="43.72671" lon="6.96864">
        <ele>842.7</ele>
        <time>2026-05-16T13:20:32Z</time>
      </trkpt>
      <trkpt lat="43.72664" lon="6.96879">
        <ele>841.5</ele>
        <time>2026-05-16T13:20:33Z</time>
      </trkpt>
      <trkpt lat="43.72657" lon="6.96895">
        <ele>839.9</ele>
        <time>2026-05-16T13:20:34Z</time>
      </trkpt>
      <trkpt lat="43.7265" lon="6.9691">
        <ele>838.4</ele>
        <time>2026-05-16T13:20:35Z</time>
      </trkpt>
      <trkpt lat="43.72643" lon="6.96926">
        <ele>836.6</ele>
        <time>2026-05-16T13:20:36Z</time>
      </trkpt>
      <trkpt lat="43.72637" lon="6.96942">
        <ele>834.7</ele>
        <time>2026-05-16T13:20:37Z</time>
      </trkpt>
      <trkpt lat="43.7263" lon="6.96957">
        <ele>833.4</ele>
        <time>2026-05-16T13:20:38Z</time>
      </trkpt>
      <trkpt lat="43.72622" lon="6.96972">
        <ele>832</ele>
        <time>2026-05-16T13:20:39Z</time>
      </trkpt>
      <trkpt lat="43.72615" lon="6.96987">
        <ele>831.8</ele>
        <time>2026-05-16T13:20:40Z</time>
      </trkpt>
      <trkpt lat="43.72608" lon="6.97001">
        <ele>831.3</ele>
        <time>2026-05-16T13:20:41Z</time>
      </trkpt>
      <trkpt lat="43.72599" lon="6.97016">
        <ele>830.4</ele>
        <time>2026-05-16T13:20:42Z</time>
      </trkpt>
      <trkpt lat="43.72591" lon="6.9703">
        <ele>829.8</ele>
        <time>2026-05-16T13:20:43Z</time>
      </trkpt>
      <trkpt lat="43.72582" lon="6.97044">
        <ele>828.8</ele>
        <time>2026-05-16T13:20:44Z</time>
      </trkpt>
      <trkpt lat="43.72572" lon="6.97057">
        <ele>827.3</ele>
        <time>2026-05-16T13:20:45Z</time>
      </trkpt>
      <trkpt lat="43.72563" lon="6.97072">
        <ele>826.7</ele>
        <time>2026-05-16T13:20:46Z</time>
      </trkpt>
      <trkpt lat="43.72553" lon="6.97086">
        <ele>825.6</ele>
        <time>2026-05-16T13:20:47Z</time>
      </trkpt>
      <trkpt lat="43.72544" lon="6.97101">
        <ele>824.7</ele>
        <time>2026-05-16T13:20:48Z</time>
      </trkpt>
      <trkpt lat="43.72534" lon="6.97116">
        <ele>823.3</ele>
        <time>2026-05-16T13:20:49Z</time>
      </trkpt>
      <trkpt lat="43.72524" lon="6.9713">
        <ele>822.3</ele>
        <time>2026-05-16T13:20:50Z</time>
      </trkpt>
      <trkpt lat="43.72515" lon="6.97145">
        <ele>822.2</ele>
        <time>2026-05-16T13:20:51Z</time>
      </trkpt>
      <trkpt lat="43.72506" lon="6.97157">
        <ele>822</ele>
        <time>2026-05-16T13:20:52Z</time>
      </trkpt>
      <trkpt lat="43.72497" lon="6.97167">
        <ele>821.6</ele>
        <time>2026-05-16T13:20:53Z</time>
      </trkpt>
      <trkpt lat="43.72487" lon="6.97171">
        <ele>820.8</ele>
        <time>2026-05-16T13:20:54Z</time>
      </trkpt>
      <trkpt lat="43.72478" lon="6.9717">
        <ele>819.4</ele>
        <time>2026-05-16T13:20:55Z</time>
      </trkpt>
      <trkpt lat="43.7247" lon="6.97163">
        <ele>818.2</ele>
        <time>2026-05-16T13:20:56Z</time>
      </trkpt>
      <trkpt lat="43.72465" lon="6.97151">
        <ele>818.6</ele>
        <time>2026-05-16T13:20:57Z</time>
      </trkpt>
      <trkpt lat="43.72464" lon="6.97137">
        <ele>818.1</ele>
        <time>2026-05-16T13:20:58Z</time>
      </trkpt>
      <trkpt lat="43.72469" lon="6.97121">
        <ele>816.8</ele>
        <time>2026-05-16T13:20:59Z</time>
      </trkpt>
      <trkpt lat="43.72476" lon="6.97107">
        <ele>816</ele>
        <time>2026-05-16T13:21:00Z</time>
      </trkpt>
      <trkpt lat="43.72483" lon="6.97091">
        <ele>815.7</ele>
        <time>2026-05-16T13:21:01Z</time>
      </trkpt>
      <trkpt lat="43.72488" lon="6.97074">
        <ele>814.9</ele>
        <time>2026-05-16T13:21:02Z</time>
      </trkpt>
      <trkpt lat="43.7249" lon="6.97057">
        <ele>813.5</ele>
        <time>2026-05-16T13:21:03Z</time>
      </trkpt>
      <trkpt lat="43.72489" lon="6.97041">
        <ele>812.1</ele>
        <time>2026-05-16T13:21:04Z</time>
      </trkpt>
      <trkpt lat="43.72485" lon="6.97025">
        <ele>810.8</ele>
        <time>2026-05-16T13:21:05Z</time>
      </trkpt>
      <trkpt lat="43.72477" lon="6.97012">
        <ele>809.6</ele>
        <time>2026-05-16T13:21:06Z</time>
      </trkpt>
      <trkpt lat="43.72467" lon="6.97002">
        <ele>808.5</ele>
        <time>2026-05-16T13:21:07Z</time>
      </trkpt>
      <trkpt lat="43.72456" lon="6.96996">
        <ele>807.8</ele>
        <time>2026-05-16T13:21:08Z</time>
      </trkpt>
      <trkpt lat="43.72444" lon="6.96989">
        <ele>806.7</ele>
        <time>2026-05-16T13:21:09Z</time>
      </trkpt>
      <trkpt lat="43.72434" lon="6.9698">
        <ele>806.9</ele>
        <time>2026-05-16T13:21:10Z</time>
      </trkpt>
      <trkpt lat="43.72425" lon="6.9697">
        <ele>806.7</ele>
        <time>2026-05-16T13:21:11Z</time>
      </trkpt>
      <trkpt lat="43.72417" lon="6.96957">
        <ele>805.6</ele>
        <time>2026-05-16T13:21:12Z</time>
      </trkpt>
      <trkpt lat="43.7241" lon="6.96941">
        <ele>804.4</ele>
        <time>2026-05-16T13:21:13Z</time>
      </trkpt>
      <trkpt lat="43.72404" lon="6.96926">
        <ele>803.4</ele>
        <time>2026-05-16T13:21:14Z</time>
      </trkpt>
      <trkpt lat="43.72398" lon="6.9691">
        <ele>802.7</ele>
        <time>2026-05-16T13:21:15Z</time>
      </trkpt>
      <trkpt lat="43.72392" lon="6.96895">
        <ele>802.2</ele>
        <time>2026-05-16T13:21:16Z</time>
      </trkpt>
      <trkpt lat="43.72387" lon="6.96879">
        <ele>801.2</ele>
        <time>2026-05-16T13:21:17Z</time>
      </trkpt>
      <trkpt lat="43.72382" lon="6.96864">
        <ele>800.6</ele>
        <time>2026-05-16T13:21:18Z</time>
      </trkpt>
      <trkpt lat="43.72377" lon="6.96848">
        <ele>800.2</ele>
        <time>2026-05-16T13:21:19Z</time>
      </trkpt>
      <trkpt lat="43.72374" lon="6.96832">
        <ele>799.2</ele>
        <time>2026-05-16T13:21:20Z</time>
      </trkpt>
      <trkpt lat="43.7237" lon="6.96816">
        <ele>798.5</ele>
        <time>2026-05-16T13:21:21Z</time>
      </trkpt>
      <trkpt lat="43.72365" lon="6.96801">
        <ele>798.1</ele>
        <time>2026-05-16T13:21:22Z</time>
      </trkpt>
      <trkpt lat="43.72361" lon="6.96786">
        <ele>797.2</ele>
        <time>2026-05-16T13:21:23Z</time>
      </trkpt>
      <trkpt lat="43.72356" lon="6.96772">
        <ele>796.1</ele>
        <time>2026-05-16T13:21:24Z</time>
      </trkpt>
      <trkpt lat="43.72348" lon="6.9676">
        <ele>795.2</ele>
        <time>2026-05-16T13:21:25Z</time>
      </trkpt>
      <trkpt lat="43.72339" lon="6.96751">
        <ele>794.9</ele>
        <time>2026-05-16T13:21:26Z</time>
      </trkpt>
      <trkpt lat="43.72328" lon="6.96746">
        <ele>794.2</ele>
        <time>2026-05-16T13:21:27Z</time>
      </trkpt>
      <trkpt lat="43.72318" lon="6.96744">
        <ele>793.1</ele>
        <time>2026-05-16T13:21:28Z</time>
      </trkpt>
      <trkpt lat="43.72307" lon="6.96746">
        <ele>793.5</ele>
        <time>2026-05-16T13:21:29Z</time>
      </trkpt>
      <trkpt lat="43.72297" lon="6.96749">
        <ele>792.2</ele>
        <time>2026-05-16T13:21:30Z</time>
      </trkpt>
      <trkpt lat="43.72288" lon="6.96757">
        <ele>791.2</ele>
        <time>2026-05-16T13:21:31Z</time>
      </trkpt>
      <trkpt lat="43.72281" lon="6.96768">
        <ele>790.2</ele>
        <time>2026-05-16T13:21:32Z</time>
      </trkpt>
      <trkpt lat="43.72276" lon="6.96782">
        <ele>788.7</ele>
        <time>2026-05-16T13:21:33Z</time>
      </trkpt>
      <trkpt lat="43.72275" lon="6.96798">
        <ele>787.4</ele>
        <time>2026-05-16T13:21:34Z</time>
      </trkpt>
      <trkpt lat="43.72276" lon="6.96816">
        <ele>786.7</ele>
        <time>2026-05-16T13:21:35Z</time>
      </trkpt>
      <trkpt lat="43.72278" lon="6.96833">
        <ele>786.2</ele>
        <time>2026-05-16T13:21:36Z</time>
      </trkpt>
      <trkpt lat="43.7228" lon="6.9685">
        <ele>785.5</ele>
        <time>2026-05-16T13:21:37Z</time>
      </trkpt>
      <trkpt lat="43.72283" lon="6.96866">
        <ele>785.7</ele>
        <time>2026-05-16T13:21:38Z</time>
      </trkpt>
      <trkpt lat="43.72285" lon="6.96884">
        <ele>785.5</ele>
        <time>2026-05-16T13:21:39Z</time>
      </trkpt>
      <trkpt lat="43.72286" lon="6.96901">
        <ele>785</ele>
        <time>2026-05-16T13:21:40Z</time>
      </trkpt>
      <trkpt lat="43.72286" lon="6.9692">
        <ele>784</ele>
        <time>2026-05-16T13:21:41Z</time>
      </trkpt>
      <trkpt lat="43.72286" lon="6.96939">
        <ele>783.3</ele>
        <time>2026-05-16T13:21:42Z</time>
      </trkpt>
      <trkpt lat="43.72286" lon="6.96958">
        <ele>782.5</ele>
        <time>2026-05-16T13:21:43Z</time>
      </trkpt>
      <trkpt lat="43.72287" lon="6.96977">
        <ele>782</ele>
        <time>2026-05-16T13:21:44Z</time>
      </trkpt>
      <trkpt lat="43.72289" lon="6.96996">
        <ele>781.9</ele>
        <time>2026-05-16T13:21:45Z</time>
      </trkpt>
      <trkpt lat="43.7229" lon="6.97014">
        <ele>781.1</ele>
        <time>2026-05-16T13:21:46Z</time>
      </trkpt>
      <trkpt lat="43.72292" lon="6.97032">
        <ele>780.9</ele>
        <time>2026-05-16T13:21:47Z</time>
      </trkpt>
      <trkpt lat="43.72293" lon="6.9705">
        <ele>779.9</ele>
        <time>2026-05-16T13:21:48Z</time>
      </trkpt>
      <trkpt lat="43.72294" lon="6.97068">
        <ele>779.1</ele>
        <time>2026-05-16T13:21:49Z</time>
      </trkpt>
      <trkpt lat="43.72295" lon="6.97085">
        <ele>778.4</ele>
        <time>2026-05-16T13:21:50Z</time>
      </trkpt>
      <trkpt lat="43.72296" lon="6.97103">
        <ele>778</ele>
        <time>2026-05-16T13:21:51Z</time>
      </trkpt>
      <trkpt lat="43.72296" lon="6.9712">
        <ele>777.5</ele>
        <time>2026-05-16T13:21:52Z</time>
      </trkpt>
      <trkpt lat="43.72294" lon="6.97138">
        <ele>776.3</ele>
        <time>2026-05-16T13:21:53Z</time>
      </trkpt>
      <trkpt lat="43.72292" lon="6.97155">
        <ele>775.5</ele>
        <time>2026-05-16T13:21:54Z</time>
      </trkpt>
      <trkpt lat="43.72288" lon="6.97172">
        <ele>773.7</ele>
        <time>2026-05-16T13:21:55Z</time>
      </trkpt>
      <trkpt lat="43.72283" lon="6.9719">
        <ele>771.7</ele>
        <time>2026-05-16T13:21:56Z</time>
      </trkpt>
      <trkpt lat="43.72279" lon="6.97207">
        <ele>770.5</ele>
        <time>2026-05-16T13:21:57Z</time>
      </trkpt>
      <trkpt lat="43.72276" lon="6.97224">
        <ele>770.1</ele>
        <time>2026-05-16T13:21:58Z</time>
      </trkpt>
      <trkpt lat="43.72277" lon="6.97242">
        <ele>769.3</ele>
        <time>2026-05-16T13:21:59Z</time>
      </trkpt>
      <trkpt lat="43.72279" lon="6.97259">
        <ele>768.9</ele>
        <time>2026-05-16T13:22:00Z</time>
      </trkpt>
      <trkpt lat="43.7228" lon="6.97277">
        <ele>767.9</ele>
        <time>2026-05-16T13:22:01Z</time>
      </trkpt>
      <trkpt lat="43.72282" lon="6.97293">
        <ele>768.1</ele>
        <time>2026-05-16T13:22:02Z</time>
      </trkpt>
      <trkpt lat="43.72281" lon="6.97308">
        <ele>767.4</ele>
        <time>2026-05-16T13:22:03Z</time>
      </trkpt>
      <trkpt lat="43.72279" lon="6.97322">
        <ele>767</ele>
        <time>2026-05-16T13:22:04Z</time>
      </trkpt>
      <trkpt lat="43.72276" lon="6.97335">
        <ele>766.5</ele>
        <time>2026-05-16T13:22:05Z</time>
      </trkpt>
      <trkpt lat="43.72272" lon="6.97348">
        <ele>765.9</ele>
        <time>2026-05-16T13:22:06Z</time>
      </trkpt>
      <trkpt lat="43.72267" lon="6.9736">
        <ele>765.2</ele>
        <time>2026-05-16T13:22:07Z</time>
      </trkpt>
      <trkpt lat="43.7226" lon="6.97369">
        <ele>765.3</ele>
        <time>2026-05-16T13:22:08Z</time>
      </trkpt>
      <trkpt lat="43.72252" lon="6.97375">
        <ele>764.9</ele>
        <time>2026-05-16T13:22:09Z</time>
      </trkpt>
      <trkpt lat="43.72242" lon="6.97381">
        <ele>764.4</ele>
        <time>2026-05-16T13:22:10Z</time>
      </trkpt>
      <trkpt lat="43.72232" lon="6.97386">
        <ele>763.5</ele>
        <time>2026-05-16T13:22:11Z</time>
      </trkpt>
      <trkpt lat="43.72221" lon="6.97391">
        <ele>762.3</ele>
        <time>2026-05-16T13:22:12Z</time>
      </trkpt>
      <trkpt lat="43.7221" lon="6.97395">
        <ele>761.5</ele>
        <time>2026-05-16T13:22:13Z</time>
      </trkpt>
      <trkpt lat="43.722" lon="6.974">
        <ele>760.6</ele>
        <time>2026-05-16T13:22:14Z</time>
      </trkpt>
      <trkpt lat="43.72189" lon="6.97405">
        <ele>759.6</ele>
        <time>2026-05-16T13:22:15Z</time>
      </trkpt>
      <trkpt lat="43.72179" lon="6.97409">
        <ele>759.1</ele>
        <time>2026-05-16T13:22:16Z</time>
      </trkpt>
      <trkpt lat="43.72169" lon="6.97413">
        <ele>758.6</ele>
        <time>2026-05-16T13:22:17Z</time>
      </trkpt>
      <trkpt lat="43.7216" lon="6.97418">
        <ele>758.4</ele>
        <time>2026-05-16T13:22:18Z</time>
      </trkpt>
      <trkpt lat="43.72152" lon="6.97425">
        <ele>757.9</ele>
        <time>2026-05-16T13:22:19Z</time>
      </trkpt>
      <trkpt lat="43.72145" lon="6.97435">
        <ele>757.5</ele>
        <time>2026-05-16T13:22:20Z</time>
      </trkpt>
      <trkpt lat="43.7214" lon="6.97446">
        <ele>757</ele>
        <time>2026-05-16T13:22:21Z</time>
      </trkpt>
      <trkpt lat="43.72138" lon="6.97458">
        <ele>755.4</ele>
        <time>2026-05-16T13:22:22Z</time>
      </trkpt>
      <trkpt lat="43.72142" lon="6.97471">
        <ele>754.7</ele>
        <time>2026-05-16T13:22:23Z</time>
      </trkpt>
      <trkpt lat="43.72146" lon="6.97483">
        <ele>753.3</ele>
        <time>2026-05-16T13:22:24Z</time>
      </trkpt>
      <trkpt lat="43.72151" lon="6.97495">
        <ele>752.7</ele>
        <time>2026-05-16T13:22:25Z</time>
      </trkpt>
      <trkpt lat="43.72156" lon="6.97506">
        <ele>752.1</ele>
        <time>2026-05-16T13:22:26Z</time>
      </trkpt>
      <trkpt lat="43.7216" lon="6.97518">
        <ele>750.6</ele>
        <time>2026-05-16T13:22:27Z</time>
      </trkpt>
      <trkpt lat="43.72165" lon="6.97529">
        <ele>750.3</ele>
        <time>2026-05-16T13:22:28Z</time>
      </trkpt>
      <trkpt lat="43.72168" lon="6.97538">
        <ele>750.8</ele>
        <time>2026-05-16T13:22:29Z</time>
      </trkpt>
      <trkpt lat="43.72171" lon="6.97547">
        <ele>751.3</ele>
        <time>2026-05-16T13:22:30Z</time>
      </trkpt>
      <trkpt lat="43.72174" lon="6.97558">
        <ele>751.6</ele>
        <time>2026-05-16T13:22:31Z</time>
      </trkpt>
      <trkpt lat="43.72176" lon="6.97569">
        <ele>751.2</ele>
        <time>2026-05-16T13:22:32Z</time>
      </trkpt>
      <trkpt lat="43.72178" lon="6.9758">
        <ele>750.8</ele>
        <time>2026-05-16T13:22:33Z</time>
      </trkpt>
      <trkpt lat="43.72177" lon="6.97592">
        <ele>749.4</ele>
        <time>2026-05-16T13:22:34Z</time>
      </trkpt>
      <trkpt lat="43.72177" lon="6.97602">
        <ele>748.7</ele>
        <time>2026-05-16T13:22:35Z</time>
      </trkpt>
      <trkpt lat="43.72176" lon="6.97608">
        <ele>747.9</ele>
        <time>2026-05-16T13:22:36Z</time>
      </trkpt>
      <trkpt lat="43.72175" lon="6.97613">
        <ele>747.3</ele>
        <time>2026-05-16T13:22:37Z</time>
      </trkpt>
      <trkpt lat="43.72174" lon="6.97617">
        <ele>746.7</ele>
        <time>2026-05-16T13:22:38Z</time>
      </trkpt>
      <trkpt lat="43.72173" lon="6.9762">
        <ele>746.3</ele>
        <time>2026-05-16T13:22:39Z</time>
      </trkpt>
      <trkpt lat="43.72172" lon="6.97623">
        <ele>745.9</ele>
        <time>2026-05-16T13:22:40Z</time>
      </trkpt>
      <trkpt lat="43.72171" lon="6.97626">
        <ele>745.5</ele>
        <time>2026-05-16T13:22:41Z</time>
      </trkpt>
      <trkpt lat="43.72171" lon="6.97629">
        <ele>745.3</ele>
        <time>2026-05-16T13:22:42Z</time>
      </trkpt>
      <trkpt lat="43.7217" lon="6.97633">
        <ele>744.9</ele>
        <time>2026-05-16T13:22:43Z</time>
      </trkpt>
      <trkpt lat="43.72168" lon="6.97636">
        <ele>744.4</ele>
        <time>2026-05-16T13:22:44Z</time>
      </trkpt>
      <trkpt lat="43.72166" lon="6.9764">
        <ele>743.8</ele>
        <time>2026-05-16T13:22:45Z</time>
      </trkpt>
      <trkpt lat="43.72164" lon="6.97644">
        <ele>743.4</ele>
        <time>2026-05-16T13:22:46Z</time>
      </trkpt>
      <trkpt lat="43.72162" lon="6.97648">
        <ele>742.9</ele>
        <time>2026-05-16T13:22:47Z</time>
      </trkpt>
      <trkpt lat="43.7216" lon="6.97653">
        <ele>742.4</ele>
        <time>2026-05-16T13:22:48Z</time>
      </trkpt>
      <trkpt lat="43.72159" lon="6.97656">
        <ele>742.1</ele>
        <time>2026-05-16T13:22:49Z</time>
      </trkpt>
      <trkpt lat="43.72157" lon="6.9766">
        <ele>741.7</ele>
        <time>2026-05-16T13:22:50Z</time>
      </trkpt>
      <trkpt lat="43.72155" lon="6.97664">
        <ele>741.3</ele>
        <time>2026-05-16T13:22:51Z</time>
      </trkpt>
      <trkpt lat="43.72153" lon="6.97668">
        <ele>740.9</ele>
        <time>2026-05-16T13:22:52Z</time>
      </trkpt>
      <trkpt lat="43.72151" lon="6.97672">
        <ele>740.6</ele>
        <time>2026-05-16T13:22:53Z</time>
      </trkpt>
      <trkpt lat="43.72149" lon="6.97675">
        <ele>740.3</ele>
        <time>2026-05-16T13:22:54Z</time>
      </trkpt>
      <trkpt lat="43.72147" lon="6.97679">
        <ele>740</ele>
        <time>2026-05-16T13:22:55Z</time>
      </trkpt>
      <trkpt lat="43.72145" lon="6.97683">
        <ele>739.7</ele>
        <time>2026-05-16T13:22:56Z</time>
      </trkpt>
      <trkpt lat="43.72143" lon="6.97687">
        <ele>739.5</ele>
        <time>2026-05-16T13:22:57Z</time>
      </trkpt>
      <trkpt lat="43.72138" lon="6.97692">
        <ele>739.1</ele>
        <time>2026-05-16T13:22:58Z</time>
      </trkpt>
      <trkpt lat="43.72133" lon="6.97694">
        <ele>739.2</ele>
        <time>2026-05-16T13:22:59Z</time>
      </trkpt>
      <trkpt lat="43.72128" lon="6.97696">
        <ele>739.4</ele>
        <time>2026-05-16T13:23:00Z</time>
      </trkpt>
      <trkpt lat="43.72125" lon="6.977">
        <ele>739.6</ele>
        <time>2026-05-16T13:23:01Z</time>
      </trkpt>
      <trkpt lat="43.72124" lon="6.97704">
        <ele>739.7</ele>
        <time>2026-05-16T13:23:02Z</time>
      </trkpt>
      <trkpt lat="43.72126" lon="6.97708">
        <ele>739.7</ele>
        <time>2026-05-16T13:23:03Z</time>
      </trkpt>
      <trkpt lat="43.7213" lon="6.97711">
        <ele>739.5</ele>
        <time>2026-05-16T13:23:04Z</time>
      </trkpt>
      <trkpt lat="43.72135" lon="6.97715">
        <ele>739.2</ele>
        <time>2026-05-16T13:23:05Z</time>
      </trkpt>
      <trkpt lat="43.72141" lon="6.97719">
        <ele>739.1</ele>
        <time>2026-05-16T13:23:06Z</time>
      </trkpt>
      <trkpt lat="43.72147" lon="6.97725">
        <ele>739.3</ele>
        <time>2026-05-16T13:23:07Z</time>
      </trkpt>
      <trkpt lat="43.72152" lon="6.9773">
        <ele>739.3</ele>
        <time>2026-05-16T13:23:08Z</time>
      </trkpt>
      <trkpt lat="43.72158" lon="6.97737">
        <ele>739.3</ele>
        <time>2026-05-16T13:23:09Z</time>
      </trkpt>
      <trkpt lat="43.72163" lon="6.97743">
        <ele>739.2</ele>
        <time>2026-05-16T13:23:10Z</time>
      </trkpt>
      <trkpt lat="43.72168" lon="6.97749">
        <ele>739.1</ele>
        <time>2026-05-16T13:23:11Z</time>
      </trkpt>
      <trkpt lat="43.72173" lon="6.97756">
        <ele>739.2</ele>
        <time>2026-05-16T13:23:12Z</time>
      </trkpt>
      <trkpt lat="43.72177" lon="6.97762">
        <ele>739.3</ele>
        <time>2026-05-16T13:23:13Z</time>
      </trkpt>
      <trkpt lat="43.72182" lon="6.97767">
        <ele>739.5</ele>
        <time>2026-05-16T13:23:14Z</time>
      </trkpt>
      <trkpt lat="43.72186" lon="6.97773">
        <ele>739.6</ele>
        <time>2026-05-16T13:23:15Z</time>
      </trkpt>
      <trkpt lat="43.72192" lon="6.97779">
        <ele>739.7</ele>
        <time>2026-05-16T13:23:16Z</time>
      </trkpt>
      <trkpt lat="43.72198" lon="6.97786">
        <ele>739.8</ele>
        <time>2026-05-16T13:23:17Z</time>
      </trkpt>
      <trkpt lat="43.72204" lon="6.97795">
        <ele>739.8</ele>
        <time>2026-05-16T13:23:18Z</time>
      </trkpt>
      <trkpt lat="43.72212" lon="6.97804">
        <ele>740</ele>
        <time>2026-05-16T13:23:19Z</time>
      </trkpt>
      <trkpt lat="43.72219" lon="6.97816">
        <ele>739.9</ele>
        <time>2026-05-16T13:23:20Z</time>
      </trkpt>
      <trkpt lat="43.72225" lon="6.97827">
        <ele>739.9</ele>
        <time>2026-05-16T13:23:21Z</time>
      </trkpt>
      <trkpt lat="43.7223" lon="6.97841">
        <ele>740.2</ele>
        <time>2026-05-16T13:23:22Z</time>
      </trkpt>
      <trkpt lat="43.72234" lon="6.97856">
        <ele>740.6</ele>
        <time>2026-05-16T13:23:23Z</time>
      </trkpt>
      <trkpt lat="43.72237" lon="6.97872">
        <ele>740.8</ele>
        <time>2026-05-16T13:23:24Z</time>
      </trkpt>
      <trkpt lat="43.72239" lon="6.9789">
        <ele>740.6</ele>
        <time>2026-05-16T13:23:25Z</time>
      </trkpt>
      <trkpt lat="43.72241" lon="6.97908">
        <ele>740.1</ele>
        <time>2026-05-16T13:23:26Z</time>
      </trkpt>
      <trkpt lat="43.72245" lon="6.97925">
        <ele>740.3</ele>
        <time>2026-05-16T13:23:27Z</time>
      </trkpt>
      <trkpt lat="43.7225" lon="6.97944">
        <ele>741</ele>
        <time>2026-05-16T13:23:28Z</time>
      </trkpt>
      <trkpt lat="43.72258" lon="6.97962">
        <ele>740.5</ele>
        <time>2026-05-16T13:23:29Z</time>
      </trkpt>
      <trkpt lat="43.72266" lon="6.9798">
        <ele>740.2</ele>
        <time>2026-05-16T13:23:30Z</time>
      </trkpt>
      <trkpt lat="43.72276" lon="6.97999">
        <ele>740.7</ele>
        <time>2026-05-16T13:23:31Z</time>
      </trkpt>
      <trkpt lat="43.72286" lon="6.98015">
        <ele>740.6</ele>
        <time>2026-05-16T13:23:32Z</time>
      </trkpt>
      <trkpt lat="43.72298" lon="6.98031">
        <ele>740.3</ele>
        <time>2026-05-16T13:23:33Z</time>
      </trkpt>
      <trkpt lat="43.7231" lon="6.98047">
        <ele>739.9</ele>
        <time>2026-05-16T13:23:34Z</time>
      </trkpt>
      <trkpt lat="43.72322" lon="6.98063">
        <ele>739.5</ele>
        <time>2026-05-16T13:23:35Z</time>
      </trkpt>
      <trkpt lat="43.72335" lon="6.98079">
        <ele>739.5</ele>
        <time>2026-05-16T13:23:36Z</time>
      </trkpt>
      <trkpt lat="43.72347" lon="6.98094">
        <ele>739.5</ele>
        <time>2026-05-16T13:23:37Z</time>
      </trkpt>
      <trkpt lat="43.7236" lon="6.98109">
        <ele>740</ele>
        <time>2026-05-16T13:23:38Z</time>
      </trkpt>
      <trkpt lat="43.72372" lon="6.98124">
        <ele>740.6</ele>
        <time>2026-05-16T13:23:39Z</time>
      </trkpt>
      <trkpt lat="43.72383" lon="6.98138">
        <ele>741.2</ele>
        <time>2026-05-16T13:23:40Z</time>
      </trkpt>
      <trkpt lat="43.72394" lon="6.98152">
        <ele>741.3</ele>
        <time>2026-05-16T13:23:41Z</time>
      </trkpt>
      <trkpt lat="43.72405" lon="6.98166">
        <ele>741.4</ele>
        <time>2026-05-16T13:23:42Z</time>
      </trkpt>
      <trkpt lat="43.72415" lon="6.98178">
        <ele>742.3</ele>
        <time>2026-05-16T13:23:43Z</time>
      </trkpt>
      <trkpt lat="43.72425" lon="6.98191">
        <ele>743.7</ele>
        <time>2026-05-16T13:23:44Z</time>
      </trkpt>
      <trkpt lat="43.72434" lon="6.98203">
        <ele>744.3</ele>
        <time>2026-05-16T13:23:45Z</time>
      </trkpt>
      <trkpt lat="43.72443" lon="6.98215">
        <ele>744.6</ele>
        <time>2026-05-16T13:23:46Z</time>
      </trkpt>
      <trkpt lat="43.72453" lon="6.98227">
        <ele>745.3</ele>
        <time>2026-05-16T13:23:47Z</time>
      </trkpt>
      <trkpt lat="43.72463" lon="6.9824">
        <ele>745.8</ele>
        <time>2026-05-16T13:23:48Z</time>
      </trkpt>
      <trkpt lat="43.72473" lon="6.98252">
        <ele>745.9</ele>
        <time>2026-05-16T13:23:49Z</time>
      </trkpt>
      <trkpt lat="43.72485" lon="6.98262">
        <ele>746.4</ele>
        <time>2026-05-16T13:23:50Z</time>
      </trkpt>
      <trkpt lat="43.72499" lon="6.9827">
        <ele>746.6</ele>
        <time>2026-05-16T13:23:51Z</time>
      </trkpt>
      <trkpt lat="43.72512" lon="6.98278">
        <ele>746.3</ele>
        <time>2026-05-16T13:23:52Z</time>
      </trkpt>
      <trkpt lat="43.72525" lon="6.98286">
        <ele>746</ele>
        <time>2026-05-16T13:23:53Z</time>
      </trkpt>
      <trkpt lat="43.72536" lon="6.98297">
        <ele>745.6</ele>
        <time>2026-05-16T13:23:54Z</time>
      </trkpt>
      <trkpt lat="43.72546" lon="6.98311">
        <ele>745.2</ele>
        <time>2026-05-16T13:23:55Z</time>
      </trkpt>
      <trkpt lat="43.72557" lon="6.98325">
        <ele>745.6</ele>
        <time>2026-05-16T13:23:56Z</time>
      </trkpt>
      <trkpt lat="43.72567" lon="6.9834">
        <ele>746.1</ele>
        <time>2026-05-16T13:23:57Z</time>
      </trkpt>
      <trkpt lat="43.72574" lon="6.98358">
        <ele>745.4</ele>
        <time>2026-05-16T13:23:58Z</time>
      </trkpt>
      <trkpt lat="43.72579" lon="6.98377">
        <ele>745</ele>
        <time>2026-05-16T13:23:59Z</time>
      </trkpt>
      <trkpt lat="43.72582" lon="6.98398">
        <ele>744.1</ele>
        <time>2026-05-16T13:24:00Z</time>
      </trkpt>
      <trkpt lat="43.72585" lon="6.9842">
        <ele>742.9</ele>
        <time>2026-05-16T13:24:01Z</time>
      </trkpt>
      <trkpt lat="43.72587" lon="6.98441">
        <ele>741.8</ele>
        <time>2026-05-16T13:24:02Z</time>
      </trkpt>
      <trkpt lat="43.7259" lon="6.98463">
        <ele>740.6</ele>
        <time>2026-05-16T13:24:03Z</time>
      </trkpt>
      <trkpt lat="43.72593" lon="6.98483">
        <ele>739.6</ele>
        <time>2026-05-16T13:24:04Z</time>
      </trkpt>
      <trkpt lat="43.72596" lon="6.98502">
        <ele>739</ele>
        <time>2026-05-16T13:24:05Z</time>
      </trkpt>
      <trkpt lat="43.72599" lon="6.98521">
        <ele>737.9</ele>
        <time>2026-05-16T13:24:06Z</time>
      </trkpt>
      <trkpt lat="43.72604" lon="6.98536">
        <ele>737.8</ele>
        <time>2026-05-16T13:24:07Z</time>
      </trkpt>
      <trkpt lat="43.72612" lon="6.98551">
        <ele>738.9</ele>
        <time>2026-05-16T13:24:08Z</time>
      </trkpt>
      <trkpt lat="43.72623" lon="6.98561">
        <ele>739.3</ele>
        <time>2026-05-16T13:24:09Z</time>
      </trkpt>
      <trkpt lat="43.72635" lon="6.9857">
        <ele>739.8</ele>
        <time>2026-05-16T13:24:10Z</time>
      </trkpt>
      <trkpt lat="43.72647" lon="6.9858">
        <ele>740.2</ele>
        <time>2026-05-16T13:24:11Z</time>
      </trkpt>
      <trkpt lat="43.7266" lon="6.9859">
        <ele>741.1</ele>
        <time>2026-05-16T13:24:12Z</time>
      </trkpt>
      <trkpt lat="43.72671" lon="6.98599">
        <ele>741.8</ele>
        <time>2026-05-16T13:24:13Z</time>
      </trkpt>
      <trkpt lat="43.72681" lon="6.98609">
        <ele>742.7</ele>
        <time>2026-05-16T13:24:14Z</time>
      </trkpt>
      <trkpt lat="43.72689" lon="6.98622">
        <ele>742.2</ele>
        <time>2026-05-16T13:24:15Z</time>
      </trkpt>
      <trkpt lat="43.72695" lon="6.98636">
        <ele>740.9</ele>
        <time>2026-05-16T13:24:16Z</time>
      </trkpt>
      <trkpt lat="43.72701" lon="6.98651">
        <ele>739.4</ele>
        <time>2026-05-16T13:24:17Z</time>
      </trkpt>
      <trkpt lat="43.72707" lon="6.98665">
        <ele>738.4</ele>
        <time>2026-05-16T13:24:18Z</time>
      </trkpt>
      <trkpt lat="43.72714" lon="6.98678">
        <ele>738.4</ele>
        <time>2026-05-16T13:24:19Z</time>
      </trkpt>
      <trkpt lat="43.72722" lon="6.98689">
        <ele>739.1</ele>
        <time>2026-05-16T13:24:20Z</time>
      </trkpt>
      <trkpt lat="43.72731" lon="6.98698">
        <ele>738</ele>
        <time>2026-05-16T13:24:21Z</time>
      </trkpt>
      <trkpt lat="43.72741" lon="6.98704">
        <ele>737.4</ele>
        <time>2026-05-16T13:24:22Z</time>
      </trkpt>
      <trkpt lat="43.72751" lon="6.98711">
        <ele>736.4</ele>
        <time>2026-05-16T13:24:23Z</time>
      </trkpt>
      <trkpt lat="43.72761" lon="6.98716">
        <ele>736.8</ele>
        <time>2026-05-16T13:24:24Z</time>
      </trkpt>
      <trkpt lat="43.72772" lon="6.98721">
        <ele>737.3</ele>
        <time>2026-05-16T13:24:25Z</time>
      </trkpt>
      <trkpt lat="43.72784" lon="6.98726">
        <ele>737.8</ele>
        <time>2026-05-16T13:24:26Z</time>
      </trkpt>
      <trkpt lat="43.72795" lon="6.98732">
        <ele>737.6</ele>
        <time>2026-05-16T13:24:27Z</time>
      </trkpt>
      <trkpt lat="43.72807" lon="6.98739">
        <ele>737.6</ele>
        <time>2026-05-16T13:24:28Z</time>
      </trkpt>
      <trkpt lat="43.7282" lon="6.98749">
        <ele>736.8</ele>
        <time>2026-05-16T13:24:29Z</time>
      </trkpt>
      <trkpt lat="43.72832" lon="6.98758">
        <ele>736.1</ele>
        <time>2026-05-16T13:24:30Z</time>
      </trkpt>
      <trkpt lat="43.72844" lon="6.98766">
        <ele>734.9</ele>
        <time>2026-05-16T13:24:31Z</time>
      </trkpt>
      <trkpt lat="43.72857" lon="6.98771">
        <ele>734.3</ele>
        <time>2026-05-16T13:24:32Z</time>
      </trkpt>
      <trkpt lat="43.72871" lon="6.98771">
        <ele>734.5</ele>
        <time>2026-05-16T13:24:33Z</time>
      </trkpt>
      <trkpt lat="43.72885" lon="6.9877">
        <ele>734.7</ele>
        <time>2026-05-16T13:24:34Z</time>
      </trkpt>
      <trkpt lat="43.72899" lon="6.9877">
        <ele>734.3</ele>
        <time>2026-05-16T13:24:35Z</time>
      </trkpt>
      <trkpt lat="43.72913" lon="6.98771">
        <ele>733.6</ele>
        <time>2026-05-16T13:24:36Z</time>
      </trkpt>
      <trkpt lat="43.72927" lon="6.98775">
        <ele>732.2</ele>
        <time>2026-05-16T13:24:37Z</time>
      </trkpt>
      <trkpt lat="43.72941" lon="6.9878">
        <ele>730.6</ele>
        <time>2026-05-16T13:24:38Z</time>
      </trkpt>
      <trkpt lat="43.72956" lon="6.98786">
        <ele>728.5</ele>
        <time>2026-05-16T13:24:39Z</time>
      </trkpt>
      <trkpt lat="43.72971" lon="6.98791">
        <ele>726.7</ele>
        <time>2026-05-16T13:24:40Z</time>
      </trkpt>
      <trkpt lat="43.72985" lon="6.98794">
        <ele>725.5</ele>
        <time>2026-05-16T13:24:41Z</time>
      </trkpt>
      <trkpt lat="43.72999" lon="6.98796">
        <ele>724.4</ele>
        <time>2026-05-16T13:24:42Z</time>
      </trkpt>
      <trkpt lat="43.73013" lon="6.98795">
        <ele>724.7</ele>
        <time>2026-05-16T13:24:43Z</time>
      </trkpt>
      <trkpt lat="43.73028" lon="6.98794">
        <ele>724.9</ele>
        <time>2026-05-16T13:24:44Z</time>
      </trkpt>
      <trkpt lat="43.73042" lon="6.98793">
        <ele>725.7</ele>
        <time>2026-05-16T13:24:45Z</time>
      </trkpt>
      <trkpt lat="43.73057" lon="6.98794">
        <ele>726</ele>
        <time>2026-05-16T13:24:46Z</time>
      </trkpt>
      <trkpt lat="43.73072" lon="6.98798">
        <ele>724.8</ele>
        <time>2026-05-16T13:24:47Z</time>
      </trkpt>
      <trkpt lat="43.73087" lon="6.98804">
        <ele>723.8</ele>
        <time>2026-05-16T13:24:48Z</time>
      </trkpt>
      <trkpt lat="43.73102" lon="6.9881">
        <ele>724.4</ele>
        <time>2026-05-16T13:24:49Z</time>
      </trkpt>
      <trkpt lat="43.73117" lon="6.98817">
        <ele>724.2</ele>
        <time>2026-05-16T13:24:50Z</time>
      </trkpt>
      <trkpt lat="43.73131" lon="6.98825">
        <ele>723.3</ele>
        <time>2026-05-16T13:24:51Z</time>
      </trkpt>
      <trkpt lat="43.73146" lon="6.98835">
        <ele>722</ele>
        <time>2026-05-16T13:24:52Z</time>
      </trkpt>
      <trkpt lat="43.7316" lon="6.98845">
        <ele>720.6</ele>
        <time>2026-05-16T13:24:53Z</time>
      </trkpt>
      <trkpt lat="43.73175" lon="6.98857">
        <ele>720.5</ele>
        <time>2026-05-16T13:24:54Z</time>
      </trkpt>
      <trkpt lat="43.73189" lon="6.9887">
        <ele>719.8</ele>
        <time>2026-05-16T13:24:55Z</time>
      </trkpt>
      <trkpt lat="43.73202" lon="6.98885">
        <ele>719.7</ele>
        <time>2026-05-16T13:24:56Z</time>
      </trkpt>
      <trkpt lat="43.73214" lon="6.98901">
        <ele>719.9</ele>
        <time>2026-05-16T13:24:57Z</time>
      </trkpt>
      <trkpt lat="43.73224" lon="6.9892">
        <ele>719.9</ele>
        <time>2026-05-16T13:24:58Z</time>
      </trkpt>
      <trkpt lat="43.73233" lon="6.98939">
        <ele>719.7</ele>
        <time>2026-05-16T13:24:59Z</time>
      </trkpt>
      <trkpt lat="43.73242" lon="6.98959">
        <ele>719.5</ele>
        <time>2026-05-16T13:25:00Z</time>
      </trkpt>
      <trkpt lat="43.73251" lon="6.98979">
        <ele>719.3</ele>
        <time>2026-05-16T13:25:01Z</time>
      </trkpt>
      <trkpt lat="43.7326" lon="6.98998">
        <ele>718</ele>
        <time>2026-05-16T13:25:02Z</time>
      </trkpt>
      <trkpt lat="43.73271" lon="6.99015">
        <ele>717.5</ele>
        <time>2026-05-16T13:25:03Z</time>
      </trkpt>
      <trkpt lat="43.73282" lon="6.99031">
        <ele>716.8</ele>
        <time>2026-05-16T13:25:04Z</time>
      </trkpt>
      <trkpt lat="43.73293" lon="6.99046">
        <ele>716.9</ele>
        <time>2026-05-16T13:25:05Z</time>
      </trkpt>
      <trkpt lat="43.733" lon="6.99064">
        <ele>715.3</ele>
        <time>2026-05-16T13:25:06Z</time>
      </trkpt>
      <trkpt lat="43.73307" lon="6.99083">
        <ele>714.9</ele>
        <time>2026-05-16T13:25:07Z</time>
      </trkpt>
      <trkpt lat="43.73315" lon="6.99101">
        <ele>715.2</ele>
        <time>2026-05-16T13:25:08Z</time>
      </trkpt>
      <trkpt lat="43.73323" lon="6.99119">
        <ele>715</ele>
        <time>2026-05-16T13:25:09Z</time>
      </trkpt>
      <trkpt lat="43.73332" lon="6.99137">
        <ele>714.9</ele>
        <time>2026-05-16T13:25:10Z</time>
      </trkpt>
      <trkpt lat="43.73341" lon="6.99155">
        <ele>715.7</ele>
        <time>2026-05-16T13:25:11Z</time>
      </trkpt>
      <trkpt lat="43.73348" lon="6.99173">
        <ele>716.1</ele>
        <time>2026-05-16T13:25:12Z</time>
      </trkpt>
      <trkpt lat="43.73352" lon="6.99193">
        <ele>715.3</ele>
        <time>2026-05-16T13:25:13Z</time>
      </trkpt>
      <trkpt lat="43.73353" lon="6.99213">
        <ele>713.9</ele>
        <time>2026-05-16T13:25:14Z</time>
      </trkpt>
      <trkpt lat="43.73352" lon="6.99232">
        <ele>712.6</ele>
        <time>2026-05-16T13:25:15Z</time>
      </trkpt>
      <trkpt lat="43.73351" lon="6.99252">
        <ele>712.1</ele>
        <time>2026-05-16T13:25:16Z</time>
      </trkpt>
      <trkpt lat="43.73351" lon="6.99272">
        <ele>712.2</ele>
        <time>2026-05-16T13:25:17Z</time>
      </trkpt>
      <trkpt lat="43.73352" lon="6.9929">
        <ele>711.6</ele>
        <time>2026-05-16T13:25:18Z</time>
      </trkpt>
      <trkpt lat="43.73357" lon="6.99308">
        <ele>710.6</ele>
        <time>2026-05-16T13:25:19Z</time>
      </trkpt>
      <trkpt lat="43.73365" lon="6.99321">
        <ele>709.5</ele>
        <time>2026-05-16T13:25:20Z</time>
      </trkpt>
      <trkpt lat="43.73376" lon="6.99332">
        <ele>708.7</ele>
        <time>2026-05-16T13:25:21Z</time>
      </trkpt>
      <trkpt lat="43.73389" lon="6.99338">
        <ele>708.7</ele>
        <time>2026-05-16T13:25:22Z</time>
      </trkpt>
      <trkpt lat="43.73403" lon="6.99343">
        <ele>707.8</ele>
        <time>2026-05-16T13:25:23Z</time>
      </trkpt>
      <trkpt lat="43.73418" lon="6.99344">
        <ele>707</ele>
        <time>2026-05-16T13:25:24Z</time>
      </trkpt>
      <trkpt lat="43.73433" lon="6.99342">
        <ele>706.9</ele>
        <time>2026-05-16T13:25:25Z</time>
      </trkpt>
      <trkpt lat="43.73449" lon="6.99338">
        <ele>706.7</ele>
        <time>2026-05-16T13:25:26Z</time>
      </trkpt>
      <trkpt lat="43.73464" lon="6.99334">
        <ele>705.8</ele>
        <time>2026-05-16T13:25:27Z</time>
      </trkpt>
      <trkpt lat="43.7348" lon="6.99331">
        <ele>704.9</ele>
        <time>2026-05-16T13:25:28Z</time>
      </trkpt>
      <trkpt lat="43.73496" lon="6.99329">
        <ele>703.8</ele>
        <time>2026-05-16T13:25:29Z</time>
      </trkpt>
      <trkpt lat="43.73512" lon="6.9933">
        <ele>702.3</ele>
        <time>2026-05-16T13:25:30Z</time>
      </trkpt>
      <trkpt lat="43.73527" lon="6.99331">
        <ele>700.9</ele>
        <time>2026-05-16T13:25:31Z</time>
      </trkpt>
      <trkpt lat="43.73542" lon="6.99332">
        <ele>701</ele>
        <time>2026-05-16T13:25:32Z</time>
      </trkpt>
      <trkpt lat="43.73557" lon="6.99334">
        <ele>700.8</ele>
        <time>2026-05-16T13:25:33Z</time>
      </trkpt>
      <trkpt lat="43.73572" lon="6.99338">
        <ele>700.1</ele>
        <time>2026-05-16T13:25:34Z</time>
      </trkpt>
      <trkpt lat="43.73586" lon="6.99342">
        <ele>699.1</ele>
        <time>2026-05-16T13:25:35Z</time>
      </trkpt>
      <trkpt lat="43.73602" lon="6.99345">
        <ele>697.3</ele>
        <time>2026-05-16T13:25:36Z</time>
      </trkpt>
      <trkpt lat="43.73616" lon="6.99347">
        <ele>695.8</ele>
        <time>2026-05-16T13:25:37Z</time>
      </trkpt>
      <trkpt lat="43.73631" lon="6.99347">
        <ele>695</ele>
        <time>2026-05-16T13:25:38Z</time>
      </trkpt>
      <trkpt lat="43.73646" lon="6.99346">
        <ele>694.3</ele>
        <time>2026-05-16T13:25:39Z</time>
      </trkpt>
      <trkpt lat="43.73661" lon="6.99346">
        <ele>693</ele>
        <time>2026-05-16T13:25:40Z</time>
      </trkpt>
      <trkpt lat="43.73675" lon="6.99345">
        <ele>692.6</ele>
        <time>2026-05-16T13:25:41Z</time>
      </trkpt>
      <trkpt lat="43.7369" lon="6.99346">
        <ele>692</ele>
        <time>2026-05-16T13:25:42Z</time>
      </trkpt>
      <trkpt lat="43.73705" lon="6.99348">
        <ele>690.7</ele>
        <time>2026-05-16T13:25:43Z</time>
      </trkpt>
      <trkpt lat="43.73719" lon="6.99351">
        <ele>689.1</ele>
        <time>2026-05-16T13:25:44Z</time>
      </trkpt>
      <trkpt lat="43.73734" lon="6.99353">
        <ele>687.8</ele>
        <time>2026-05-16T13:25:45Z</time>
      </trkpt>
      <trkpt lat="43.73748" lon="6.99355">
        <ele>686.6</ele>
        <time>2026-05-16T13:25:46Z</time>
      </trkpt>
      <trkpt lat="43.73763" lon="6.99356">
        <ele>685.7</ele>
        <time>2026-05-16T13:25:47Z</time>
      </trkpt>
      <trkpt lat="43.73778" lon="6.99357">
        <ele>684.9</ele>
        <time>2026-05-16T13:25:48Z</time>
      </trkpt>
      <trkpt lat="43.73793" lon="6.99358">
        <ele>684.7</ele>
        <time>2026-05-16T13:25:49Z</time>
      </trkpt>
      <trkpt lat="43.73807" lon="6.99359">
        <ele>684.5</ele>
        <time>2026-05-16T13:25:50Z</time>
      </trkpt>
      <trkpt lat="43.73822" lon="6.99361">
        <ele>683.4</ele>
        <time>2026-05-16T13:25:51Z</time>
      </trkpt>
      <trkpt lat="43.73835" lon="6.99362">
        <ele>682.5</ele>
        <time>2026-05-16T13:25:52Z</time>
      </trkpt>
      <trkpt lat="43.73848" lon="6.99358">
        <ele>682.1</ele>
        <time>2026-05-16T13:25:53Z</time>
      </trkpt>
      <trkpt lat="43.73861" lon="6.99353">
        <ele>681.8</ele>
        <time>2026-05-16T13:25:54Z</time>
      </trkpt>
      <trkpt lat="43.73873" lon="6.99347">
        <ele>681.3</ele>
        <time>2026-05-16T13:25:55Z</time>
      </trkpt>
      <trkpt lat="43.73885" lon="6.99342">
        <ele>680.7</ele>
        <time>2026-05-16T13:25:56Z</time>
      </trkpt>
      <trkpt lat="43.73898" lon="6.99339">
        <ele>679</ele>
        <time>2026-05-16T13:25:57Z</time>
      </trkpt>
      <trkpt lat="43.7391" lon="6.99336">
        <ele>677.5</ele>
        <time>2026-05-16T13:25:58Z</time>
      </trkpt>
      <trkpt lat="43.7392" lon="6.99334">
        <ele>676.3</ele>
        <time>2026-05-16T13:25:59Z</time>
      </trkpt>
      <trkpt lat="43.73928" lon="6.99331">
        <ele>675.7</ele>
        <time>2026-05-16T13:26:00Z</time>
      </trkpt>
      <trkpt lat="43.73936" lon="6.99326">
        <ele>675.5</ele>
        <time>2026-05-16T13:26:01Z</time>
      </trkpt>
      <trkpt lat="43.73943" lon="6.99321">
        <ele>675.4</ele>
        <time>2026-05-16T13:26:02Z</time>
      </trkpt>
      <trkpt lat="43.73949" lon="6.99314">
        <ele>675.8</ele>
        <time>2026-05-16T13:26:03Z</time>
      </trkpt>
      <trkpt lat="43.73953" lon="6.99306">
        <ele>676.7</ele>
        <time>2026-05-16T13:26:04Z</time>
      </trkpt>
      <trkpt lat="43.73957" lon="6.99297">
        <ele>677.1</ele>
        <time>2026-05-16T13:26:05Z</time>
      </trkpt>
      <trkpt lat="43.73959" lon="6.9929">
        <ele>677.6</ele>
        <time>2026-05-16T13:26:06Z</time>
      </trkpt>
      <trkpt lat="43.73964" lon="6.99284">
        <ele>677.5</ele>
        <time>2026-05-16T13:26:07Z</time>
      </trkpt>
      <trkpt lat="43.7397" lon="6.99282">
        <ele>676.9</ele>
        <time>2026-05-16T13:26:08Z</time>
      </trkpt>
      <trkpt lat="43.73975" lon="6.99285">
        <ele>675.7</ele>
        <time>2026-05-16T13:26:09Z</time>
      </trkpt>
      <trkpt lat="43.73978" lon="6.99292">
        <ele>674.1</ele>
        <time>2026-05-16T13:26:10Z</time>
      </trkpt>
      <trkpt lat="43.73978" lon="6.993">
        <ele>672.8</ele>
        <time>2026-05-16T13:26:11Z</time>
      </trkpt>
      <trkpt lat="43.73973" lon="6.99308">
        <ele>673.3</ele>
        <time>2026-05-16T13:26:12Z</time>
      </trkpt>
      <trkpt lat="43.73966" lon="6.99314">
        <ele>673.4</ele>
        <time>2026-05-16T13:26:13Z</time>
      </trkpt>
      <trkpt lat="43.73957" lon="6.99322">
        <ele>673.2</ele>
        <time>2026-05-16T13:26:14Z</time>
      </trkpt>
      <trkpt lat="43.73947" lon="6.9933">
        <ele>673.2</ele>
        <time>2026-05-16T13:26:15Z</time>
      </trkpt>
      <trkpt lat="43.73936" lon="6.9934">
        <ele>672.8</ele>
        <time>2026-05-16T13:26:16Z</time>
      </trkpt>
      <trkpt lat="43.73924" lon="6.99349">
        <ele>671.9</ele>
        <time>2026-05-16T13:26:17Z</time>
      </trkpt>
      <trkpt lat="43.73913" lon="6.99359">
        <ele>670.5</ele>
        <time>2026-05-16T13:26:18Z</time>
      </trkpt>
      <trkpt lat="43.739" lon="6.99369">
        <ele>670.3</ele>
        <time>2026-05-16T13:26:19Z</time>
      </trkpt>
      <trkpt lat="43.73885" lon="6.99377">
        <ele>670.2</ele>
        <time>2026-05-16T13:26:20Z</time>
      </trkpt>
      <trkpt lat="43.73871" lon="6.99385">
        <ele>668.6</ele>
        <time>2026-05-16T13:26:21Z</time>
      </trkpt>
      <trkpt lat="43.73858" lon="6.99392">
        <ele>666.9</ele>
        <time>2026-05-16T13:26:22Z</time>
      </trkpt>
      <trkpt lat="43.73844" lon="6.99399">
        <ele>665.6</ele>
        <time>2026-05-16T13:26:23Z</time>
      </trkpt>
      <trkpt lat="43.7383" lon="6.99405">
        <ele>664.5</ele>
        <time>2026-05-16T13:26:24Z</time>
      </trkpt>
      <trkpt lat="43.73816" lon="6.99407">
        <ele>663.7</ele>
        <time>2026-05-16T13:26:25Z</time>
      </trkpt>
      <trkpt lat="43.73802" lon="6.99407">
        <ele>663.7</ele>
        <time>2026-05-16T13:26:26Z</time>
      </trkpt>
      <trkpt lat="43.73788" lon="6.99406">
        <ele>663.7</ele>
        <time>2026-05-16T13:26:27Z</time>
      </trkpt>
      <trkpt lat="43.73775" lon="6.99406">
        <ele>663.5</ele>
        <time>2026-05-16T13:26:28Z</time>
      </trkpt>
      <trkpt lat="43.73761" lon="6.99408">
        <ele>663.4</ele>
        <time>2026-05-16T13:26:29Z</time>
      </trkpt>
      <trkpt lat="43.73748" lon="6.99411">
        <ele>662.8</ele>
        <time>2026-05-16T13:26:30Z</time>
      </trkpt>
      <trkpt lat="43.73735" lon="6.99416">
        <ele>661.4</ele>
        <time>2026-05-16T13:26:31Z</time>
      </trkpt>
      <trkpt lat="43.73723" lon="6.99421">
        <ele>660.7</ele>
        <time>2026-05-16T13:26:32Z</time>
      </trkpt>
      <trkpt lat="43.7371" lon="6.99426">
        <ele>660.5</ele>
        <time>2026-05-16T13:26:33Z</time>
      </trkpt>
      <trkpt lat="43.73699" lon="6.99435">
        <ele>659.5</ele>
        <time>2026-05-16T13:26:34Z</time>
      </trkpt>
      <trkpt lat="43.73689" lon="6.99446">
        <ele>658.8</ele>
        <time>2026-05-16T13:26:35Z</time>
      </trkpt>
      <trkpt lat="43.7368" lon="6.99458">
        <ele>659.1</ele>
        <time>2026-05-16T13:26:36Z</time>
      </trkpt>
      <trkpt lat="43.73673" lon="6.99469">
        <ele>659.2</ele>
        <time>2026-05-16T13:26:37Z</time>
      </trkpt>
      <trkpt lat="43.73668" lon="6.99477">
        <ele>659.3</ele>
        <time>2026-05-16T13:26:38Z</time>
      </trkpt>
      <trkpt lat="43.73664" lon="6.99485">
        <ele>659</ele>
        <time>2026-05-16T13:26:39Z</time>
      </trkpt>
      <trkpt lat="43.73659" lon="6.99493">
        <ele>659.1</ele>
        <time>2026-05-16T13:26:40Z</time>
      </trkpt>
      <trkpt lat="43.73656" lon="6.99501">
        <ele>658.8</ele>
        <time>2026-05-16T13:26:41Z</time>
      </trkpt>
      <trkpt lat="43.73653" lon="6.9951">
        <ele>658.4</ele>
        <time>2026-05-16T13:26:42Z</time>
      </trkpt>
      <trkpt lat="43.73653" lon="6.99517">
        <ele>657.6</ele>
        <time>2026-05-16T13:26:43Z</time>
      </trkpt>
      <trkpt lat="43.73655" lon="6.99523">
        <ele>656.6</ele>
        <time>2026-05-16T13:26:44Z</time>
      </trkpt>
      <trkpt lat="43.73659" lon="6.99528">
        <ele>655.3</ele>
        <time>2026-05-16T13:26:45Z</time>
      </trkpt>
      <trkpt lat="43.73665" lon="6.99531">
        <ele>653.2</ele>
        <time>2026-05-16T13:26:46Z</time>
      </trkpt>
      <trkpt lat="43.73672" lon="6.9953">
        <ele>652.6</ele>
        <time>2026-05-16T13:26:47Z</time>
      </trkpt>
      <trkpt lat="43.73681" lon="6.99525">
        <ele>652.2</ele>
        <time>2026-05-16T13:26:48Z</time>
      </trkpt>
      <trkpt lat="43.7369" lon="6.99516">
        <ele>651.9</ele>
        <time>2026-05-16T13:26:49Z</time>
      </trkpt>
      <trkpt lat="43.73699" lon="6.99508">
        <ele>651.2</ele>
        <time>2026-05-16T13:26:50Z</time>
      </trkpt>
      <trkpt lat="43.73708" lon="6.995">
        <ele>650.1</ele>
        <time>2026-05-16T13:26:51Z</time>
      </trkpt>
      <trkpt lat="43.73718" lon="6.99492">
        <ele>649</ele>
        <time>2026-05-16T13:26:52Z</time>
      </trkpt>
      <trkpt lat="43.73729" lon="6.99483">
        <ele>648.6</ele>
        <time>2026-05-16T13:26:53Z</time>
      </trkpt>
      <trkpt lat="43.73739" lon="6.99474">
        <ele>648.4</ele>
        <time>2026-05-16T13:26:54Z</time>
      </trkpt>
      <trkpt lat="43.7375" lon="6.99466">
        <ele>647.7</ele>
        <time>2026-05-16T13:26:55Z</time>
      </trkpt>
      <trkpt lat="43.7376" lon="6.99458">
        <ele>647.5</ele>
        <time>2026-05-16T13:26:56Z</time>
      </trkpt>
      <trkpt lat="43.7377" lon="6.99451">
        <ele>647.1</ele>
        <time>2026-05-16T13:26:57Z</time>
      </trkpt>
      <trkpt lat="43.73782" lon="6.99449">
        <ele>646.4</ele>
        <time>2026-05-16T13:26:58Z</time>
      </trkpt>
      <trkpt lat="43.73795" lon="6.99451">
        <ele>645.9</ele>
        <time>2026-05-16T13:26:59Z</time>
      </trkpt>
      <trkpt lat="43.73807" lon="6.99456">
        <ele>644.5</ele>
        <time>2026-05-16T13:27:00Z</time>
      </trkpt>
      <trkpt lat="43.7382" lon="6.99459">
        <ele>644.1</ele>
        <time>2026-05-16T13:27:01Z</time>
      </trkpt>
      <trkpt lat="43.73832" lon="6.9946">
        <ele>644.1</ele>
        <time>2026-05-16T13:27:02Z</time>
      </trkpt>
      <trkpt lat="43.73844" lon="6.99455">
        <ele>642.8</ele>
        <time>2026-05-16T13:27:03Z</time>
      </trkpt>
      <trkpt lat="43.73855" lon="6.99448">
        <ele>641.7</ele>
        <time>2026-05-16T13:27:04Z</time>
      </trkpt>
      <trkpt lat="43.73867" lon="6.99443">
        <ele>640.4</ele>
        <time>2026-05-16T13:27:05Z</time>
      </trkpt>
      <trkpt lat="43.73879" lon="6.99441">
        <ele>638.9</ele>
        <time>2026-05-16T13:27:06Z</time>
      </trkpt>
      <trkpt lat="43.73891" lon="6.99439">
        <ele>637.8</ele>
        <time>2026-05-16T13:27:07Z</time>
      </trkpt>
      <trkpt lat="43.73903" lon="6.99438">
        <ele>637.2</ele>
        <time>2026-05-16T13:27:08Z</time>
      </trkpt>
      <trkpt lat="43.73915" lon="6.99437">
        <ele>636.6</ele>
        <time>2026-05-16T13:27:09Z</time>
      </trkpt>
      <trkpt lat="43.73927" lon="6.99437">
        <ele>635.3</ele>
        <time>2026-05-16T13:27:10Z</time>
      </trkpt>
      <trkpt lat="43.73939" lon="6.99437">
        <ele>633.9</ele>
        <time>2026-05-16T13:27:11Z</time>
      </trkpt>
      <trkpt lat="43.73951" lon="6.99436">
        <ele>633.1</ele>
        <time>2026-05-16T13:27:12Z</time>
      </trkpt>
      <trkpt lat="43.73963" lon="6.99435">
        <ele>632.5</ele>
        <time>2026-05-16T13:27:13Z</time>
      </trkpt>
      <trkpt lat="43.73975" lon="6.99434">
        <ele>631.9</ele>
        <time>2026-05-16T13:27:14Z</time>
      </trkpt>
      <trkpt lat="43.73987" lon="6.99433">
        <ele>631</ele>
        <time>2026-05-16T13:27:15Z</time>
      </trkpt>
      <trkpt lat="43.73998" lon="6.99431">
        <ele>630.6</ele>
        <time>2026-05-16T13:27:16Z</time>
      </trkpt>
      <trkpt lat="43.7401" lon="6.99428">
        <ele>629</ele>
        <time>2026-05-16T13:27:17Z</time>
      </trkpt>
      <trkpt lat="43.74021" lon="6.99423">
        <ele>627.8</ele>
        <time>2026-05-16T13:27:18Z</time>
      </trkpt>
      <trkpt lat="43.74032" lon="6.99416">
        <ele>627.1</ele>
        <time>2026-05-16T13:27:19Z</time>
      </trkpt>
      <trkpt lat="43.7404" lon="6.99406">
        <ele>627.9</ele>
        <time>2026-05-16T13:27:20Z</time>
      </trkpt>
      <trkpt lat="43.74047" lon="6.99393">
        <ele>629.1</ele>
        <time>2026-05-16T13:27:21Z</time>
      </trkpt>
      <trkpt lat="43.74051" lon="6.9938">
        <ele>630</ele>
        <time>2026-05-16T13:27:22Z</time>
      </trkpt>
      <trkpt lat="43.74053" lon="6.99369">
        <ele>630.9</ele>
        <time>2026-05-16T13:27:23Z</time>
      </trkpt>
      <trkpt lat="43.74055" lon="6.99362">
        <ele>631.1</ele>
        <time>2026-05-16T13:27:24Z</time>
      </trkpt>
      <trkpt lat="43.74057" lon="6.99355">
        <ele>630.6</ele>
        <time>2026-05-16T13:27:25Z</time>
      </trkpt>
      <trkpt lat="43.74061" lon="6.99351">
        <ele>629.8</ele>
        <time>2026-05-16T13:27:26Z</time>
      </trkpt>
      <trkpt lat="43.74066" lon="6.99352">
        <ele>629</ele>
        <time>2026-05-16T13:27:27Z</time>
      </trkpt>
      <trkpt lat="43.7407" lon="6.99357">
        <ele>628.7</ele>
        <time>2026-05-16T13:27:28Z</time>
      </trkpt>
      <trkpt lat="43.74071" lon="6.99366">
        <ele>628.1</ele>
        <time>2026-05-16T13:27:29Z</time>
      </trkpt>
      <trkpt lat="43.74065" lon="6.99379">
        <ele>627.1</ele>
        <time>2026-05-16T13:27:30Z</time>
      </trkpt>
      <trkpt lat="43.74062" lon="6.9939">
        <ele>625.8</ele>
        <time>2026-05-16T13:27:31Z</time>
      </trkpt>
      <trkpt lat="43.74057" lon="6.99403">
        <ele>623.7</ele>
        <time>2026-05-16T13:27:32Z</time>
      </trkpt>
      <trkpt lat="43.74051" lon="6.99415">
        <ele>622.5</ele>
        <time>2026-05-16T13:27:33Z</time>
      </trkpt>
      <trkpt lat="43.74045" lon="6.99425">
        <ele>620.9</ele>
        <time>2026-05-16T13:27:34Z</time>
      </trkpt>
      <trkpt lat="43.74038" lon="6.99434">
        <ele>620</ele>
        <time>2026-05-16T13:27:35Z</time>
      </trkpt>
      <trkpt lat="43.7403" lon="6.99441">
        <ele>620.3</ele>
        <time>2026-05-16T13:27:36Z</time>
      </trkpt>
      <trkpt lat="43.74021" lon="6.99448">
        <ele>620</ele>
        <time>2026-05-16T13:27:37Z</time>
      </trkpt>
      <trkpt lat="43.74012" lon="6.99454">
        <ele>619.5</ele>
        <time>2026-05-16T13:27:38Z</time>
      </trkpt>
      <trkpt lat="43.74003" lon="6.9946">
        <ele>619.1</ele>
        <time>2026-05-16T13:27:39Z</time>
      </trkpt>
      <trkpt lat="43.73994" lon="6.99464">
        <ele>618.5</ele>
        <time>2026-05-16T13:27:40Z</time>
      </trkpt>
      <trkpt lat="43.73983" lon="6.99466">
        <ele>618.2</ele>
        <time>2026-05-16T13:27:41Z</time>
      </trkpt>
      <trkpt lat="43.73972" lon="6.99466">
        <ele>618.7</ele>
        <time>2026-05-16T13:27:42Z</time>
      </trkpt>
      <trkpt lat="43.73962" lon="6.99466">
        <ele>619.1</ele>
        <time>2026-05-16T13:27:43Z</time>
      </trkpt>
      <trkpt lat="43.73952" lon="6.99468">
        <ele>618.7</ele>
        <time>2026-05-16T13:27:44Z</time>
      </trkpt>
      <trkpt lat="43.73942" lon="6.9947">
        <ele>618.2</ele>
        <time>2026-05-16T13:27:45Z</time>
      </trkpt>
      <trkpt lat="43.73932" lon="6.99472">
        <ele>618</ele>
        <time>2026-05-16T13:27:46Z</time>
      </trkpt>
      <trkpt lat="43.73922" lon="6.99475">
        <ele>618.3</ele>
        <time>2026-05-16T13:27:47Z</time>
      </trkpt>
      <trkpt lat="43.73914" lon="6.99479">
        <ele>618.7</ele>
        <time>2026-05-16T13:27:48Z</time>
      </trkpt>
      <trkpt lat="43.73906" lon="6.99484">
        <ele>619.4</ele>
        <time>2026-05-16T13:27:49Z</time>
      </trkpt>
      <trkpt lat="43.73902" lon="6.99496">
        <ele>619</ele>
        <time>2026-05-16T13:27:50Z</time>
      </trkpt>
      <trkpt lat="43.73899" lon="6.99509">
        <ele>620.3</ele>
        <time>2026-05-16T13:27:51Z</time>
      </trkpt>
      <trkpt lat="43.739" lon="6.99521">
        <ele>621.4</ele>
        <time>2026-05-16T13:27:52Z</time>
      </trkpt>
      <trkpt lat="43.73903" lon="6.99534">
        <ele>620.7</ele>
        <time>2026-05-16T13:27:53Z</time>
      </trkpt>
      <trkpt lat="43.73909" lon="6.99547">
        <ele>617.6</ele>
        <time>2026-05-16T13:27:54Z</time>
      </trkpt>
      <trkpt lat="43.73916" lon="6.99559">
        <ele>614.3</ele>
        <time>2026-05-16T13:27:55Z</time>
      </trkpt>
      <trkpt lat="43.73924" lon="6.99569">
        <ele>613.7</ele>
        <time>2026-05-16T13:27:56Z</time>
      </trkpt>
      <trkpt lat="43.73932" lon="6.99577">
        <ele>613.1</ele>
        <time>2026-05-16T13:27:57Z</time>
      </trkpt>
      <trkpt lat="43.73941" lon="6.99585">
        <ele>612.3</ele>
        <time>2026-05-16T13:27:58Z</time>
      </trkpt>
      <trkpt lat="43.7395" lon="6.99591">
        <ele>612.8</ele>
        <time>2026-05-16T13:27:59Z</time>
      </trkpt>
      <trkpt lat="43.73959" lon="6.99596">
        <ele>613.6</ele>
        <time>2026-05-16T13:28:00Z</time>
      </trkpt>
      <trkpt lat="43.73967" lon="6.99599">
        <ele>614.1</ele>
        <time>2026-05-16T13:28:01Z</time>
      </trkpt>
      <trkpt lat="43.73974" lon="6.99593">
        <ele>614.5</ele>
        <time>2026-05-16T13:28:02Z</time>
      </trkpt>
      <trkpt lat="43.73978" lon="6.99582">
        <ele>614.3</ele>
        <time>2026-05-16T13:28:03Z</time>
      </trkpt>
      <trkpt lat="43.73976" lon="6.99568">
        <ele>613.8</ele>
        <time>2026-05-16T13:28:04Z</time>
      </trkpt>
      <trkpt lat="43.73972" lon="6.99551">
        <ele>613.5</ele>
        <time>2026-05-16T13:28:05Z</time>
      </trkpt>
      <trkpt lat="43.73966" lon="6.99542">
        <ele>612.9</ele>
        <time>2026-05-16T13:28:06Z</time>
      </trkpt>
      <trkpt lat="43.7396" lon="6.99534">
        <ele>612.7</ele>
        <time>2026-05-16T13:28:07Z</time>
      </trkpt>
      <trkpt lat="43.73955" lon="6.99525">
        <ele>612.7</ele>
        <time>2026-05-16T13:28:08Z</time>
      </trkpt>
      <trkpt lat="43.73953" lon="6.99518">
        <ele>612.4</ele>
        <time>2026-05-16T13:28:09Z</time>
      </trkpt>
      <trkpt lat="43.73954" lon="6.9951">
        <ele>611.7</ele>
        <time>2026-05-16T13:28:10Z</time>
      </trkpt>
      <trkpt lat="43.73958" lon="6.99504">
        <ele>610.8</ele>
        <time>2026-05-16T13:28:11Z</time>
      </trkpt>
      <trkpt lat="43.73963" lon="6.995">
        <ele>610</ele>
        <time>2026-05-16T13:28:12Z</time>
      </trkpt>
      <trkpt lat="43.7397" lon="6.99501">
        <ele>609.3</ele>
        <time>2026-05-16T13:28:13Z</time>
      </trkpt>
      <trkpt lat="43.73978" lon="6.99502">
        <ele>608.4</ele>
        <time>2026-05-16T13:28:14Z</time>
      </trkpt>
      <trkpt lat="43.73988" lon="6.99504">
        <ele>607.2</ele>
        <time>2026-05-16T13:28:15Z</time>
      </trkpt>
      <trkpt lat="43.73997" lon="6.99504">
        <ele>606</ele>
        <time>2026-05-16T13:28:16Z</time>
      </trkpt>
      <trkpt lat="43.74006" lon="6.99501">
        <ele>605.2</ele>
        <time>2026-05-16T13:28:17Z</time>
      </trkpt>
      <trkpt lat="43.74016" lon="6.99496">
        <ele>605.2</ele>
        <time>2026-05-16T13:28:18Z</time>
      </trkpt>
      <trkpt lat="43.74028" lon="6.99489">
        <ele>604.9</ele>
        <time>2026-05-16T13:28:19Z</time>
      </trkpt>
      <trkpt lat="43.7404" lon="6.99482">
        <ele>602.9</ele>
        <time>2026-05-16T13:28:20Z</time>
      </trkpt>
      <trkpt lat="43.74051" lon="6.99474">
        <ele>601.7</ele>
        <time>2026-05-16T13:28:21Z</time>
      </trkpt>
      <trkpt lat="43.74063" lon="6.99467">
        <ele>601.2</ele>
        <time>2026-05-16T13:28:22Z</time>
      </trkpt>
      <trkpt lat="43.74075" lon="6.9946">
        <ele>600.9</ele>
        <time>2026-05-16T13:28:23Z</time>
      </trkpt>
      <trkpt lat="43.74086" lon="6.99453">
        <ele>600.7</ele>
        <time>2026-05-16T13:28:24Z</time>
      </trkpt>
      <trkpt lat="43.74098" lon="6.99446">
        <ele>600.9</ele>
        <time>2026-05-16T13:28:25Z</time>
      </trkpt>
      <trkpt lat="43.7411" lon="6.9944">
        <ele>600.8</ele>
        <time>2026-05-16T13:28:26Z</time>
      </trkpt>
      <trkpt lat="43.74122" lon="6.99434">
        <ele>600.4</ele>
        <time>2026-05-16T13:28:27Z</time>
      </trkpt>
      <trkpt lat="43.74133" lon="6.99429">
        <ele>599.3</ele>
        <time>2026-05-16T13:28:28Z</time>
      </trkpt>
      <trkpt lat="43.74145" lon="6.99424">
        <ele>597.9</ele>
        <time>2026-05-16T13:28:29Z</time>
      </trkpt>
      <trkpt lat="43.74158" lon="6.99419">
        <ele>596.4</ele>
        <time>2026-05-16T13:28:30Z</time>
      </trkpt>
      <trkpt lat="43.74171" lon="6.99413">
        <ele>595.5</ele>
        <time>2026-05-16T13:28:31Z</time>
      </trkpt>
      <trkpt lat="43.74184" lon="6.99407">
        <ele>595.1</ele>
        <time>2026-05-16T13:28:32Z</time>
      </trkpt>
      <trkpt lat="43.74197" lon="6.99401">
        <ele>594.6</ele>
        <time>2026-05-16T13:28:33Z</time>
      </trkpt>
      <trkpt lat="43.7421" lon="6.99395">
        <ele>594</ele>
        <time>2026-05-16T13:28:34Z</time>
      </trkpt>
      <trkpt lat="43.74224" lon="6.99388">
        <ele>592.9</ele>
        <time>2026-05-16T13:28:35Z</time>
      </trkpt>
      <trkpt lat="43.74237" lon="6.99382">
        <ele>591.9</ele>
        <time>2026-05-16T13:28:36Z</time>
      </trkpt>
      <trkpt lat="43.7425" lon="6.99376">
        <ele>590.7</ele>
        <time>2026-05-16T13:28:37Z</time>
      </trkpt>
      <trkpt lat="43.74263" lon="6.99369">
        <ele>590.4</ele>
        <time>2026-05-16T13:28:38Z</time>
      </trkpt>
      <trkpt lat="43.74276" lon="6.99364">
        <ele>589.5</ele>
        <time>2026-05-16T13:28:39Z</time>
      </trkpt>
      <trkpt lat="43.7429" lon="6.9936">
        <ele>589.1</ele>
        <time>2026-05-16T13:28:40Z</time>
      </trkpt>
      <trkpt lat="43.74304" lon="6.99355">
        <ele>589.6</ele>
        <time>2026-05-16T13:28:41Z</time>
      </trkpt>
      <trkpt lat="43.74318" lon="6.99351">
        <ele>588.4</ele>
        <time>2026-05-16T13:28:42Z</time>
      </trkpt>
      <trkpt lat="43.74332" lon="6.99347">
        <ele>586.9</ele>
        <time>2026-05-16T13:28:43Z</time>
      </trkpt>
      <trkpt lat="43.74346" lon="6.9934">
        <ele>585.8</ele>
        <time>2026-05-16T13:28:44Z</time>
      </trkpt>
      <trkpt lat="43.7436" lon="6.9933">
        <ele>585.4</ele>
        <time>2026-05-16T13:28:45Z</time>
      </trkpt>
      <trkpt lat="43.74372" lon="6.99321">
        <ele>584.3</ele>
        <time>2026-05-16T13:28:46Z</time>
      </trkpt>
      <trkpt lat="43.74385" lon="6.99311">
        <ele>582.8</ele>
        <time>2026-05-16T13:28:47Z</time>
      </trkpt>
      <trkpt lat="43.74396" lon="6.99301">
        <ele>583.1</ele>
        <time>2026-05-16T13:28:48Z</time>
      </trkpt>
      <trkpt lat="43.74409" lon="6.99292">
        <ele>583.2</ele>
        <time>2026-05-16T13:28:49Z</time>
      </trkpt>
      <trkpt lat="43.74421" lon="6.99284">
        <ele>583</ele>
        <time>2026-05-16T13:28:50Z</time>
      </trkpt>
      <trkpt lat="43.74434" lon="6.99277">
        <ele>581.9</ele>
        <time>2026-05-16T13:28:51Z</time>
      </trkpt>
      <trkpt lat="43.74446" lon="6.9927">
        <ele>581.1</ele>
        <time>2026-05-16T13:28:52Z</time>
      </trkpt>
      <trkpt lat="43.74459" lon="6.99264">
        <ele>579.5</ele>
        <time>2026-05-16T13:28:53Z</time>
      </trkpt>
      <trkpt lat="43.74472" lon="6.99257">
        <ele>578</ele>
        <time>2026-05-16T13:28:54Z</time>
      </trkpt>
      <trkpt lat="43.74484" lon="6.9925">
        <ele>577.5</ele>
        <time>2026-05-16T13:28:55Z</time>
      </trkpt>
      <trkpt lat="43.74496" lon="6.99241">
        <ele>577</ele>
        <time>2026-05-16T13:28:56Z</time>
      </trkpt>
      <trkpt lat="43.74505" lon="6.99229">
        <ele>576.7</ele>
        <time>2026-05-16T13:28:57Z</time>
      </trkpt>
      <trkpt lat="43.74513" lon="6.99213">
        <ele>575.9</ele>
        <time>2026-05-16T13:28:58Z</time>
      </trkpt>
      <trkpt lat="43.7452" lon="6.99197">
        <ele>574.4</ele>
        <time>2026-05-16T13:28:59Z</time>
      </trkpt>
      <trkpt lat="43.74525" lon="6.99179">
        <ele>573</ele>
        <time>2026-05-16T13:29:00Z</time>
      </trkpt>
      <trkpt lat="43.74526" lon="6.99159">
        <ele>573.8</ele>
        <time>2026-05-16T13:29:01Z</time>
      </trkpt>
      <trkpt lat="43.74531" lon="6.99143">
        <ele>573.8</ele>
        <time>2026-05-16T13:29:02Z</time>
      </trkpt>
      <trkpt lat="43.74539" lon="6.99128">
        <ele>573.8</ele>
        <time>2026-05-16T13:29:03Z</time>
      </trkpt>
      <trkpt lat="43.74548" lon="6.99118">
        <ele>573.8</ele>
        <time>2026-05-16T13:29:04Z</time>
      </trkpt>
      <trkpt lat="43.74559" lon="6.99116">
        <ele>573.1</ele>
        <time>2026-05-16T13:29:05Z</time>
      </trkpt>
      <trkpt lat="43.74569" lon="6.99119">
        <ele>572.6</ele>
        <time>2026-05-16T13:29:06Z</time>
      </trkpt>
      <trkpt lat="43.74578" lon="6.99128">
        <ele>571</ele>
        <time>2026-05-16T13:29:07Z</time>
      </trkpt>
      <trkpt lat="43.74589" lon="6.99138">
        <ele>569.6</ele>
        <time>2026-05-16T13:29:08Z</time>
      </trkpt>
      <trkpt lat="43.74601" lon="6.99147">
        <ele>568.9</ele>
        <time>2026-05-16T13:29:09Z</time>
      </trkpt>
      <trkpt lat="43.74613" lon="6.99157">
        <ele>567.9</ele>
        <time>2026-05-16T13:29:10Z</time>
      </trkpt>
      <trkpt lat="43.74628" lon="6.99167">
        <ele>566.6</ele>
        <time>2026-05-16T13:29:11Z</time>
      </trkpt>
      <trkpt lat="43.74641" lon="6.99175">
        <ele>566.1</ele>
        <time>2026-05-16T13:29:12Z</time>
      </trkpt>
      <trkpt lat="43.74656" lon="6.99181">
        <ele>564.8</ele>
        <time>2026-05-16T13:29:13Z</time>
      </trkpt>
      <trkpt lat="43.74673" lon="6.99182">
        <ele>563.5</ele>
        <time>2026-05-16T13:29:14Z</time>
      </trkpt>
      <trkpt lat="43.74688" lon="6.99183">
        <ele>561.5</ele>
        <time>2026-05-16T13:29:15Z</time>
      </trkpt>
      <trkpt lat="43.74704" lon="6.99181">
        <ele>560</ele>
        <time>2026-05-16T13:29:16Z</time>
      </trkpt>
      <trkpt lat="43.74719" lon="6.99179">
        <ele>558.6</ele>
        <time>2026-05-16T13:29:17Z</time>
      </trkpt>
      <trkpt lat="43.74734" lon="6.99176">
        <ele>557.6</ele>
        <time>2026-05-16T13:29:18Z</time>
      </trkpt>
      <trkpt lat="43.7475" lon="6.99169">
        <ele>557.3</ele>
        <time>2026-05-16T13:29:19Z</time>
      </trkpt>
      <trkpt lat="43.74764" lon="6.99159">
        <ele>557</ele>
        <time>2026-05-16T13:29:20Z</time>
      </trkpt>
      <trkpt lat="43.74776" lon="6.99147">
        <ele>557.2</ele>
        <time>2026-05-16T13:29:21Z</time>
      </trkpt>
      <trkpt lat="43.74788" lon="6.99134">
        <ele>557.5</ele>
        <time>2026-05-16T13:29:22Z</time>
      </trkpt>
      <trkpt lat="43.748" lon="6.9912">
        <ele>557.1</ele>
        <time>2026-05-16T13:29:23Z</time>
      </trkpt>
      <trkpt lat="43.7481" lon="6.99105">
        <ele>556.5</ele>
        <time>2026-05-16T13:29:24Z</time>
      </trkpt>
      <trkpt lat="43.74821" lon="6.99091">
        <ele>555.3</ele>
        <time>2026-05-16T13:29:25Z</time>
      </trkpt>
      <trkpt lat="43.74831" lon="6.99078">
        <ele>554.1</ele>
        <time>2026-05-16T13:29:26Z</time>
      </trkpt>
      <trkpt lat="43.74843" lon="6.99067">
        <ele>553.6</ele>
        <time>2026-05-16T13:29:27Z</time>
      </trkpt>
      <trkpt lat="43.74856" lon="6.99058">
        <ele>553.2</ele>
        <time>2026-05-16T13:29:28Z</time>
      </trkpt>
      <trkpt lat="43.74868" lon="6.99051">
        <ele>552.6</ele>
        <time>2026-05-16T13:29:29Z</time>
      </trkpt>
      <trkpt lat="43.74881" lon="6.99044">
        <ele>552</ele>
        <time>2026-05-16T13:29:30Z</time>
      </trkpt>
      <trkpt lat="43.74894" lon="6.9904">
        <ele>551.7</ele>
        <time>2026-05-16T13:29:31Z</time>
      </trkpt>
      <trkpt lat="43.74907" lon="6.99041">
        <ele>551.3</ele>
        <time>2026-05-16T13:29:32Z</time>
      </trkpt>
      <trkpt lat="43.74919" lon="6.99047">
        <ele>550</ele>
        <time>2026-05-16T13:29:33Z</time>
      </trkpt>
      <trkpt lat="43.7493" lon="6.99055">
        <ele>550</ele>
        <time>2026-05-16T13:29:34Z</time>
      </trkpt>
      <trkpt lat="43.74939" lon="6.99067">
        <ele>548.2</ele>
        <time>2026-05-16T13:29:35Z</time>
      </trkpt>
      <trkpt lat="43.74948" lon="6.99079">
        <ele>546</ele>
        <time>2026-05-16T13:29:36Z</time>
      </trkpt>
      <trkpt lat="43.74958" lon="6.99089">
        <ele>544.8</ele>
        <time>2026-05-16T13:29:37Z</time>
      </trkpt>
      <trkpt lat="43.74968" lon="6.99097">
        <ele>544.3</ele>
        <time>2026-05-16T13:29:38Z</time>
      </trkpt>
      <trkpt lat="43.7498" lon="6.99103">
        <ele>543.8</ele>
        <time>2026-05-16T13:29:39Z</time>
      </trkpt>
      <trkpt lat="43.74991" lon="6.99109">
        <ele>542.4</ele>
        <time>2026-05-16T13:29:40Z</time>
      </trkpt>
      <trkpt lat="43.75003" lon="6.99114">
        <ele>541.1</ele>
        <time>2026-05-16T13:29:41Z</time>
      </trkpt>
      <trkpt lat="43.75015" lon="6.99118">
        <ele>539.6</ele>
        <time>2026-05-16T13:29:42Z</time>
      </trkpt>
      <trkpt lat="43.75027" lon="6.99121">
        <ele>538.4</ele>
        <time>2026-05-16T13:29:43Z</time>
      </trkpt>
      <trkpt lat="43.75039" lon="6.99123">
        <ele>537.4</ele>
        <time>2026-05-16T13:29:44Z</time>
      </trkpt>
      <trkpt lat="43.75051" lon="6.99125">
        <ele>536.6</ele>
        <time>2026-05-16T13:29:45Z</time>
      </trkpt>
      <trkpt lat="43.75063" lon="6.99123">
        <ele>536</ele>
        <time>2026-05-16T13:29:46Z</time>
      </trkpt>
      <trkpt lat="43.75073" lon="6.99117">
        <ele>536.1</ele>
        <time>2026-05-16T13:29:47Z</time>
      </trkpt>
      <trkpt lat="43.75083" lon="6.99108">
        <ele>536.8</ele>
        <time>2026-05-16T13:29:48Z</time>
      </trkpt>
      <trkpt lat="43.75093" lon="6.99097">
        <ele>536.6</ele>
        <time>2026-05-16T13:29:49Z</time>
      </trkpt>
      <trkpt lat="43.75103" lon="6.99085">
        <ele>536.3</ele>
        <time>2026-05-16T13:29:50Z</time>
      </trkpt>
      <trkpt lat="43.75112" lon="6.99072">
        <ele>536.2</ele>
        <time>2026-05-16T13:29:51Z</time>
      </trkpt>
      <trkpt lat="43.75122" lon="6.9906">
        <ele>535.6</ele>
        <time>2026-05-16T13:29:52Z</time>
      </trkpt>
      <trkpt lat="43.75132" lon="6.99051">
        <ele>534.3</ele>
        <time>2026-05-16T13:29:53Z</time>
      </trkpt>
      <trkpt lat="43.75142" lon="6.99044">
        <ele>533.8</ele>
        <time>2026-05-16T13:29:54Z</time>
      </trkpt>
      <trkpt lat="43.75154" lon="6.99043">
        <ele>533.6</ele>
        <time>2026-05-16T13:29:55Z</time>
      </trkpt>
      <trkpt lat="43.75166" lon="6.99045">
        <ele>532.7</ele>
        <time>2026-05-16T13:29:56Z</time>
      </trkpt>
      <trkpt lat="43.75179" lon="6.99046">
        <ele>530.9</ele>
        <time>2026-05-16T13:29:57Z</time>
      </trkpt>
      <trkpt lat="43.75192" lon="6.99047">
        <ele>529.1</ele>
        <time>2026-05-16T13:29:58Z</time>
      </trkpt>
      <trkpt lat="43.75205" lon="6.99048">
        <ele>527.3</ele>
        <time>2026-05-16T13:29:59Z</time>
      </trkpt>
      <trkpt lat="43.75218" lon="6.99045">
        <ele>526.9</ele>
        <time>2026-05-16T13:30:00Z</time>
      </trkpt>
      <trkpt lat="43.75231" lon="6.99039">
        <ele>526</ele>
        <time>2026-05-16T13:30:01Z</time>
      </trkpt>
      <trkpt lat="43.75242" lon="6.99032">
        <ele>525.5</ele>
        <time>2026-05-16T13:30:02Z</time>
      </trkpt>
      <trkpt lat="43.75253" lon="6.99025">
        <ele>525</ele>
        <time>2026-05-16T13:30:03Z</time>
      </trkpt>
      <trkpt lat="43.75263" lon="6.99017">
        <ele>524.7</ele>
        <time>2026-05-16T13:30:04Z</time>
      </trkpt>
      <trkpt lat="43.75274" lon="6.99009">
        <ele>524.2</ele>
        <time>2026-05-16T13:30:05Z</time>
      </trkpt>
      <trkpt lat="43.75284" lon="6.99001">
        <ele>524.3</ele>
        <time>2026-05-16T13:30:06Z</time>
      </trkpt>
      <trkpt lat="43.75294" lon="6.98993">
        <ele>524.6</ele>
        <time>2026-05-16T13:30:07Z</time>
      </trkpt>
      <trkpt lat="43.75305" lon="6.98987">
        <ele>523.9</ele>
        <time>2026-05-16T13:30:08Z</time>
      </trkpt>
      <trkpt lat="43.75316" lon="6.98982">
        <ele>523.1</ele>
        <time>2026-05-16T13:30:09Z</time>
      </trkpt>
      <trkpt lat="43.75327" lon="6.98984">
        <ele>520.3</ele>
        <time>2026-05-16T13:30:10Z</time>
      </trkpt>
      <trkpt lat="43.75339" lon="6.98983">
        <ele>518.1</ele>
        <time>2026-05-16T13:30:11Z</time>
      </trkpt>
      <trkpt lat="43.75349" lon="6.98978">
        <ele>517.5</ele>
        <time>2026-05-16T13:30:12Z</time>
      </trkpt>
      <trkpt lat="43.75359" lon="6.9897">
        <ele>518</ele>
        <time>2026-05-16T13:30:13Z</time>
      </trkpt>
      <trkpt lat="43.75369" lon="6.98961">
        <ele>518.5</ele>
        <time>2026-05-16T13:30:14Z</time>
      </trkpt>
      <trkpt lat="43.75379" lon="6.98953">
        <ele>518.9</ele>
        <time>2026-05-16T13:30:15Z</time>
      </trkpt>
      <trkpt lat="43.7539" lon="6.98949">
        <ele>518.2</ele>
        <time>2026-05-16T13:30:16Z</time>
      </trkpt>
      <trkpt lat="43.75401" lon="6.98949">
        <ele>516.6</ele>
        <time>2026-05-16T13:30:17Z</time>
      </trkpt>
      <trkpt lat="43.75414" lon="6.98949">
        <ele>514.7</ele>
        <time>2026-05-16T13:30:18Z</time>
      </trkpt>
      <trkpt lat="43.75427" lon="6.98948">
        <ele>513.6</ele>
        <time>2026-05-16T13:30:19Z</time>
      </trkpt>
      <trkpt lat="43.7544" lon="6.98946">
        <ele>512.9</ele>
        <time>2026-05-16T13:30:20Z</time>
      </trkpt>
      <trkpt lat="43.75453" lon="6.98943">
        <ele>512.3</ele>
        <time>2026-05-16T13:30:21Z</time>
      </trkpt>
      <trkpt lat="43.75465" lon="6.9894">
        <ele>511.8</ele>
        <time>2026-05-16T13:30:22Z</time>
      </trkpt>
      <trkpt lat="43.75478" lon="6.98938">
        <ele>510.9</ele>
        <time>2026-05-16T13:30:23Z</time>
      </trkpt>
      <trkpt lat="43.7549" lon="6.98934">
        <ele>511</ele>
        <time>2026-05-16T13:30:24Z</time>
      </trkpt>
      <trkpt lat="43.75503" lon="6.98931">
        <ele>510.6</ele>
        <time>2026-05-16T13:30:25Z</time>
      </trkpt>
      <trkpt lat="43.75515" lon="6.98928">
        <ele>510.6</ele>
        <time>2026-05-16T13:30:26Z</time>
      </trkpt>
      <trkpt lat="43.75527" lon="6.98927">
        <ele>510</ele>
        <time>2026-05-16T13:30:27Z</time>
      </trkpt>
      <trkpt lat="43.7554" lon="6.98927">
        <ele>509.4</ele>
        <time>2026-05-16T13:30:28Z</time>
      </trkpt>
      <trkpt lat="43.75552" lon="6.98928">
        <ele>508.4</ele>
        <time>2026-05-16T13:30:29Z</time>
      </trkpt>
      <trkpt lat="43.75564" lon="6.98929">
        <ele>507.5</ele>
        <time>2026-05-16T13:30:30Z</time>
      </trkpt>
      <trkpt lat="43.75576" lon="6.98929">
        <ele>507</ele>
        <time>2026-05-16T13:30:31Z</time>
      </trkpt>
      <trkpt lat="43.75587" lon="6.98931">
        <ele>505.3</ele>
        <time>2026-05-16T13:30:32Z</time>
      </trkpt>
      <trkpt lat="43.75599" lon="6.98931">
        <ele>503.8</ele>
        <time>2026-05-16T13:30:33Z</time>
      </trkpt>
      <trkpt lat="43.75611" lon="6.98929">
        <ele>503.2</ele>
        <time>2026-05-16T13:30:34Z</time>
      </trkpt>
      <trkpt lat="43.75624" lon="6.98928">
        <ele>503.7</ele>
        <time>2026-05-16T13:30:35Z</time>
      </trkpt>
      <trkpt lat="43.75636" lon="6.98927">
        <ele>504.2</ele>
        <time>2026-05-16T13:30:36Z</time>
      </trkpt>
      <trkpt lat="43.75649" lon="6.98929">
        <ele>503.7</ele>
        <time>2026-05-16T13:30:37Z</time>
      </trkpt>
      <trkpt lat="43.75661" lon="6.98932">
        <ele>502.5</ele>
        <time>2026-05-16T13:30:38Z</time>
      </trkpt>
      <trkpt lat="43.75674" lon="6.98938">
        <ele>500.1</ele>
        <time>2026-05-16T13:30:39Z</time>
      </trkpt>
      <trkpt lat="43.75687" lon="6.98944">
        <ele>498.2</ele>
        <time>2026-05-16T13:30:40Z</time>
      </trkpt>
      <trkpt lat="43.75699" lon="6.98948">
        <ele>497.7</ele>
        <time>2026-05-16T13:30:41Z</time>
      </trkpt>
      <trkpt lat="43.75712" lon="6.9895">
        <ele>497.8</ele>
        <time>2026-05-16T13:30:42Z</time>
      </trkpt>
      <trkpt lat="43.75726" lon="6.98951">
        <ele>498.5</ele>
        <time>2026-05-16T13:30:43Z</time>
      </trkpt>
      <trkpt lat="43.7574" lon="6.98954">
        <ele>497.8</ele>
        <time>2026-05-16T13:30:44Z</time>
      </trkpt>
      <trkpt lat="43.75754" lon="6.98957">
        <ele>497.6</ele>
        <time>2026-05-16T13:30:45Z</time>
      </trkpt>
      <trkpt lat="43.75767" lon="6.98961">
        <ele>498</ele>
        <time>2026-05-16T13:30:46Z</time>
      </trkpt>
      <trkpt lat="43.75781" lon="6.98965">
        <ele>498.4</ele>
        <time>2026-05-16T13:30:47Z</time>
      </trkpt>
      <trkpt lat="43.75793" lon="6.9897">
        <ele>497.4</ele>
        <time>2026-05-16T13:30:48Z</time>
      </trkpt>
      <trkpt lat="43.75805" lon="6.98976">
        <ele>495.5</ele>
        <time>2026-05-16T13:30:49Z</time>
      </trkpt>
      <trkpt lat="43.75817" lon="6.98982">
        <ele>493</ele>
        <time>2026-05-16T13:30:50Z</time>
      </trkpt>
      <trkpt lat="43.75828" lon="6.98987">
        <ele>490.8</ele>
        <time>2026-05-16T13:30:51Z</time>
      </trkpt>
      <trkpt lat="43.7584" lon="6.98989">
        <ele>490.1</ele>
        <time>2026-05-16T13:30:52Z</time>
      </trkpt>
      <trkpt lat="43.75853" lon="6.98989">
        <ele>490.3</ele>
        <time>2026-05-16T13:30:53Z</time>
      </trkpt>
      <trkpt lat="43.75866" lon="6.98989">
        <ele>490.4</ele>
        <time>2026-05-16T13:30:54Z</time>
      </trkpt>
      <trkpt lat="43.75879" lon="6.98988">
        <ele>490.7</ele>
        <time>2026-05-16T13:30:55Z</time>
      </trkpt>
      <trkpt lat="43.75893" lon="6.9899">
        <ele>489.1</ele>
        <time>2026-05-16T13:30:56Z</time>
      </trkpt>
      <trkpt lat="43.75906" lon="6.98992">
        <ele>487.7</ele>
        <time>2026-05-16T13:30:57Z</time>
      </trkpt>
      <trkpt lat="43.7592" lon="6.98995">
        <ele>485.9</ele>
        <time>2026-05-16T13:30:58Z</time>
      </trkpt>
      <trkpt lat="43.75933" lon="6.98997">
        <ele>484.9</ele>
        <time>2026-05-16T13:30:59Z</time>
      </trkpt>
      <trkpt lat="43.75946" lon="6.98998">
        <ele>484.4</ele>
        <time>2026-05-16T13:31:00Z</time>
      </trkpt>
      <trkpt lat="43.75959" lon="6.99">
        <ele>483</ele>
        <time>2026-05-16T13:31:01Z</time>
      </trkpt>
      <trkpt lat="43.75971" lon="6.99004">
        <ele>481</ele>
        <time>2026-05-16T13:31:02Z</time>
      </trkpt>
      <trkpt lat="43.75984" lon="6.99005">
        <ele>480.1</ele>
        <time>2026-05-16T13:31:03Z</time>
      </trkpt>
      <trkpt lat="43.75995" lon="6.99003">
        <ele>480.8</ele>
        <time>2026-05-16T13:31:04Z</time>
      </trkpt>
      <trkpt lat="43.76006" lon="6.98999">
        <ele>481.5</ele>
        <time>2026-05-16T13:31:05Z</time>
      </trkpt>
      <trkpt lat="43.76018" lon="6.98995">
        <ele>481.3</ele>
        <time>2026-05-16T13:31:06Z</time>
      </trkpt>
      <trkpt lat="43.76029" lon="6.98991">
        <ele>480.8</ele>
        <time>2026-05-16T13:31:07Z</time>
      </trkpt>
      <trkpt lat="43.7604" lon="6.98986">
        <ele>478.9</ele>
        <time>2026-05-16T13:31:08Z</time>
      </trkpt>
      <trkpt lat="43.7605" lon="6.98979">
        <ele>477.4</ele>
        <time>2026-05-16T13:31:09Z</time>
      </trkpt>
      <trkpt lat="43.76061" lon="6.98971">
        <ele>475.1</ele>
        <time>2026-05-16T13:31:10Z</time>
      </trkpt>
      <trkpt lat="43.76069" lon="6.98962">
        <ele>473.8</ele>
        <time>2026-05-16T13:31:11Z</time>
      </trkpt>
      <trkpt lat="43.76071" lon="6.98953">
        <ele>474.9</ele>
        <time>2026-05-16T13:31:12Z</time>
      </trkpt>
      <trkpt lat="43.76073" lon="6.98944">
        <ele>475.6</ele>
        <time>2026-05-16T13:31:13Z</time>
      </trkpt>
      <trkpt lat="43.76073" lon="6.9894">
        <ele>476.7</ele>
        <time>2026-05-16T13:31:14Z</time>
      </trkpt>
      <trkpt lat="43.76073" lon="6.98936">
        <ele>477.9</ele>
        <time>2026-05-16T13:31:15Z</time>
      </trkpt>
      <trkpt lat="43.76075" lon="6.98936">
        <ele>476.4</ele>
        <time>2026-05-16T13:31:16Z</time>
      </trkpt>
      <trkpt lat="43.76077" lon="6.98935">
        <ele>475.2</ele>
        <time>2026-05-16T13:31:17Z</time>
      </trkpt>
      <trkpt lat="43.76079" lon="6.98937">
        <ele>473.1</ele>
        <time>2026-05-16T13:31:18Z</time>
      </trkpt>
      <trkpt lat="43.76079" lon="6.98937">
        <ele>473.1</ele>
        <time>2026-05-16T13:31:19Z</time>
      </trkpt>
      <trkpt lat="43.76078" lon="6.9894">
        <ele>473.1</ele>
        <time>2026-05-16T13:31:20Z</time>
      </trkpt>
      <trkpt lat="43.76077" lon="6.98945">
        <ele>472.5</ele>
        <time>2026-05-16T13:31:21Z</time>
      </trkpt>
      <trkpt lat="43.76074" lon="6.98954">
        <ele>472.8</ele>
        <time>2026-05-16T13:31:22Z</time>
      </trkpt>
      <trkpt lat="43.76069" lon="6.98964">
        <ele>473.3</ele>
        <time>2026-05-16T13:31:23Z</time>
      </trkpt>
      <trkpt lat="43.76064" lon="6.98974">
        <ele>473</ele>
        <time>2026-05-16T13:31:24Z</time>
      </trkpt>
      <trkpt lat="43.76055" lon="6.98985">
        <ele>473.5</ele>
        <time>2026-05-16T13:31:25Z</time>
      </trkpt>
      <trkpt lat="43.76045" lon="6.98993">
        <ele>474.5</ele>
        <time>2026-05-16T13:31:26Z</time>
      </trkpt>
      <trkpt lat="43.76034" lon="6.99001">
        <ele>474.9</ele>
        <time>2026-05-16T13:31:27Z</time>
      </trkpt>
      <trkpt lat="43.76023" lon="6.99008">
        <ele>474.6</ele>
        <time>2026-05-16T13:31:28Z</time>
      </trkpt>
      <trkpt lat="43.76011" lon="6.99014">
        <ele>473.9</ele>
        <time>2026-05-16T13:31:29Z</time>
      </trkpt>
      <trkpt lat="43.75998" lon="6.99019">
        <ele>473.1</ele>
        <time>2026-05-16T13:31:30Z</time>
      </trkpt>
      <trkpt lat="43.75983" lon="6.99022">
        <ele>471.8</ele>
        <time>2026-05-16T13:31:31Z</time>
      </trkpt>
      <trkpt lat="43.75969" lon="6.99021">
        <ele>472.4</ele>
        <time>2026-05-16T13:31:32Z</time>
      </trkpt>
      <trkpt lat="43.75953" lon="6.99019">
        <ele>473.4</ele>
        <time>2026-05-16T13:31:33Z</time>
      </trkpt>
      <trkpt lat="43.75937" lon="6.99017">
        <ele>474.3</ele>
        <time>2026-05-16T13:31:34Z</time>
      </trkpt>
      <trkpt lat="43.75919" lon="6.99017">
        <ele>473.9</ele>
        <time>2026-05-16T13:31:35Z</time>
      </trkpt>
      <trkpt lat="43.75902" lon="6.99017">
        <ele>473.8</ele>
        <time>2026-05-16T13:31:36Z</time>
      </trkpt>
      <trkpt lat="43.75887" lon="6.99017">
        <ele>473.8</ele>
        <time>2026-05-16T13:31:37Z</time>
      </trkpt>
      <trkpt lat="43.75871" lon="6.99016">
        <ele>474.4</ele>
        <time>2026-05-16T13:31:38Z</time>
      </trkpt>
      <trkpt lat="43.75855" lon="6.99016">
        <ele>474.1</ele>
        <time>2026-05-16T13:31:39Z</time>
      </trkpt>
      <trkpt lat="43.75839" lon="6.99016">
        <ele>473.6</ele>
        <time>2026-05-16T13:31:40Z</time>
      </trkpt>
      <trkpt lat="43.75824" lon="6.99015">
        <ele>473.2</ele>
        <time>2026-05-16T13:31:41Z</time>
      </trkpt>
      <trkpt lat="43.75809" lon="6.99013">
        <ele>473.2</ele>
        <time>2026-05-16T13:31:42Z</time>
      </trkpt>
      <trkpt lat="43.75794" lon="6.99011">
        <ele>473.1</ele>
        <time>2026-05-16T13:31:43Z</time>
      </trkpt>
      <trkpt lat="43.7578" lon="6.99009">
        <ele>473</ele>
        <time>2026-05-16T13:31:44Z</time>
      </trkpt>
      <trkpt lat="43.75767" lon="6.99007">
        <ele>472.4</ele>
        <time>2026-05-16T13:31:45Z</time>
      </trkpt>
      <trkpt lat="43.75753" lon="6.99007">
        <ele>470.6</ele>
        <time>2026-05-16T13:31:46Z</time>
      </trkpt>
      <trkpt lat="43.7574" lon="6.99006">
        <ele>470</ele>
        <time>2026-05-16T13:31:47Z</time>
      </trkpt>
      <trkpt lat="43.75726" lon="6.99005">
        <ele>469.4</ele>
        <time>2026-05-16T13:31:48Z</time>
      </trkpt>
      <trkpt lat="43.75712" lon="6.99004">
        <ele>469.2</ele>
        <time>2026-05-16T13:31:49Z</time>
      </trkpt>
      <trkpt lat="43.75698" lon="6.99003">
        <ele>469.1</ele>
        <time>2026-05-16T13:31:50Z</time>
      </trkpt>
      <trkpt lat="43.75683" lon="6.99002">
        <ele>469.3</ele>
        <time>2026-05-16T13:31:51Z</time>
      </trkpt>
      <trkpt lat="43.75667" lon="6.99003">
        <ele>468.9</ele>
        <time>2026-05-16T13:31:52Z</time>
      </trkpt>
      <trkpt lat="43.75651" lon="6.99005">
        <ele>468.2</ele>
        <time>2026-05-16T13:31:53Z</time>
      </trkpt>
      <trkpt lat="43.75636" lon="6.99007">
        <ele>467.5</ele>
        <time>2026-05-16T13:31:54Z</time>
      </trkpt>
      <trkpt lat="43.7562" lon="6.9901">
        <ele>466.6</ele>
        <time>2026-05-16T13:31:55Z</time>
      </trkpt>
      <trkpt lat="43.75605" lon="6.99013">
        <ele>465.8</ele>
        <time>2026-05-16T13:31:56Z</time>
      </trkpt>
      <trkpt lat="43.7559" lon="6.99018">
        <ele>464.7</ele>
        <time>2026-05-16T13:31:57Z</time>
      </trkpt>
      <trkpt lat="43.75575" lon="6.99024">
        <ele>464.4</ele>
        <time>2026-05-16T13:31:58Z</time>
      </trkpt>
      <trkpt lat="43.75562" lon="6.99033">
        <ele>464.1</ele>
        <time>2026-05-16T13:31:59Z</time>
      </trkpt>
      <trkpt lat="43.75549" lon="6.99046">
        <ele>462.7</ele>
        <time>2026-05-16T13:32:00Z</time>
      </trkpt>
      <trkpt lat="43.75537" lon="6.9906">
        <ele>461.8</ele>
        <time>2026-05-16T13:32:01Z</time>
      </trkpt>
      <trkpt lat="43.75526" lon="6.99073">
        <ele>460.9</ele>
        <time>2026-05-16T13:32:02Z</time>
      </trkpt>
      <trkpt lat="43.75512" lon="6.99083">
        <ele>460.9</ele>
        <time>2026-05-16T13:32:03Z</time>
      </trkpt>
      <trkpt lat="43.75498" lon="6.99093">
        <ele>461.4</ele>
        <time>2026-05-16T13:32:04Z</time>
      </trkpt>
      <trkpt lat="43.75483" lon="6.991">
        <ele>461.2</ele>
        <time>2026-05-16T13:32:05Z</time>
      </trkpt>
      <trkpt lat="43.75466" lon="6.99101">
        <ele>462</ele>
        <time>2026-05-16T13:32:06Z</time>
      </trkpt>
      <trkpt lat="43.75451" lon="6.99097">
        <ele>463.3</ele>
        <time>2026-05-16T13:32:07Z</time>
      </trkpt>
      <trkpt lat="43.75435" lon="6.99096">
        <ele>464.4</ele>
        <time>2026-05-16T13:32:08Z</time>
      </trkpt>
      <trkpt lat="43.7542" lon="6.99096">
        <ele>465.5</ele>
        <time>2026-05-16T13:32:09Z</time>
      </trkpt>
      <trkpt lat="43.75406" lon="6.99101">
        <ele>466.1</ele>
        <time>2026-05-16T13:32:10Z</time>
      </trkpt>
      <trkpt lat="43.75392" lon="6.99108">
        <ele>466.3</ele>
        <time>2026-05-16T13:32:11Z</time>
      </trkpt>
      <trkpt lat="43.75379" lon="6.99119">
        <ele>465.5</ele>
        <time>2026-05-16T13:32:12Z</time>
      </trkpt>
      <trkpt lat="43.75366" lon="6.99129">
        <ele>464.4</ele>
        <time>2026-05-16T13:32:13Z</time>
      </trkpt>
      <trkpt lat="43.75353" lon="6.99138">
        <ele>463.1</ele>
        <time>2026-05-16T13:32:14Z</time>
      </trkpt>
      <trkpt lat="43.75341" lon="6.99148">
        <ele>461.7</ele>
        <time>2026-05-16T13:32:15Z</time>
      </trkpt>
      <trkpt lat="43.75329" lon="6.99157">
        <ele>460.4</ele>
        <time>2026-05-16T13:32:16Z</time>
      </trkpt>
      <trkpt lat="43.75316" lon="6.99166">
        <ele>459.7</ele>
        <time>2026-05-16T13:32:17Z</time>
      </trkpt>
      <trkpt lat="43.75303" lon="6.99175">
        <ele>460</ele>
        <time>2026-05-16T13:32:18Z</time>
      </trkpt>
      <trkpt lat="43.75292" lon="6.99186">
        <ele>461.2</ele>
        <time>2026-05-16T13:32:19Z</time>
      </trkpt>
      <trkpt lat="43.75282" lon="6.992">
        <ele>461.1</ele>
        <time>2026-05-16T13:32:20Z</time>
      </trkpt>
      <trkpt lat="43.75272" lon="6.99216">
        <ele>460.4</ele>
        <time>2026-05-16T13:32:21Z</time>
      </trkpt>
      <trkpt lat="43.75262" lon="6.99231">
        <ele>459.7</ele>
        <time>2026-05-16T13:32:22Z</time>
      </trkpt>
      <trkpt lat="43.75252" lon="6.99247">
        <ele>456.8</ele>
        <time>2026-05-16T13:32:23Z</time>
      </trkpt>
      <trkpt lat="43.75243" lon="6.99262">
        <ele>455.6</ele>
        <time>2026-05-16T13:32:24Z</time>
      </trkpt>
      <trkpt lat="43.75234" lon="6.99278">
        <ele>454.9</ele>
        <time>2026-05-16T13:32:25Z</time>
      </trkpt>
      <trkpt lat="43.75227" lon="6.99294">
        <ele>455.5</ele>
        <time>2026-05-16T13:32:26Z</time>
      </trkpt>
      <trkpt lat="43.75222" lon="6.99312">
        <ele>453.7</ele>
        <time>2026-05-16T13:32:27Z</time>
      </trkpt>
      <trkpt lat="43.75215" lon="6.99326">
        <ele>453</ele>
        <time>2026-05-16T13:32:28Z</time>
      </trkpt>
      <trkpt lat="43.75207" lon="6.99336">
        <ele>453.9</ele>
        <time>2026-05-16T13:32:29Z</time>
      </trkpt>
      <trkpt lat="43.75199" lon="6.99345">
        <ele>454.3</ele>
        <time>2026-05-16T13:32:30Z</time>
      </trkpt>
      <trkpt lat="43.75188" lon="6.99346">
        <ele>454.7</ele>
        <time>2026-05-16T13:32:31Z</time>
      </trkpt>
      <trkpt lat="43.75176" lon="6.99346">
        <ele>453.4</ele>
        <time>2026-05-16T13:32:32Z</time>
      </trkpt>
      <trkpt lat="43.75165" lon="6.99346">
        <ele>452.2</ele>
        <time>2026-05-16T13:32:33Z</time>
      </trkpt>
      <trkpt lat="43.75152" lon="6.99345">
        <ele>450.5</ele>
        <time>2026-05-16T13:32:34Z</time>
      </trkpt>
      <trkpt lat="43.7514" lon="6.99343">
        <ele>449.3</ele>
        <time>2026-05-16T13:32:35Z</time>
      </trkpt>
      <trkpt lat="43.75128" lon="6.99342">
        <ele>448.9</ele>
        <time>2026-05-16T13:32:36Z</time>
      </trkpt>
      <trkpt lat="43.75116" lon="6.99342">
        <ele>448.2</ele>
        <time>2026-05-16T13:32:37Z</time>
      </trkpt>
      <trkpt lat="43.75104" lon="6.99342">
        <ele>449.1</ele>
        <time>2026-05-16T13:32:38Z</time>
      </trkpt>
      <trkpt lat="43.75093" lon="6.99346">
        <ele>449.4</ele>
        <time>2026-05-16T13:32:39Z</time>
      </trkpt>
      <trkpt lat="43.75082" lon="6.99354">
        <ele>448.4</ele>
        <time>2026-05-16T13:32:40Z</time>
      </trkpt>
      <trkpt lat="43.75074" lon="6.99364">
        <ele>448.6</ele>
        <time>2026-05-16T13:32:41Z</time>
      </trkpt>
      <trkpt lat="43.75066" lon="6.99377">
        <ele>449.1</ele>
        <time>2026-05-16T13:32:42Z</time>
      </trkpt>
      <trkpt lat="43.75059" lon="6.99391">
        <ele>448.9</ele>
        <time>2026-05-16T13:32:43Z</time>
      </trkpt>
      <trkpt lat="43.75055" lon="6.99405">
        <ele>447.2</ele>
        <time>2026-05-16T13:32:44Z</time>
      </trkpt>
      <trkpt lat="43.75055" lon="6.99423">
        <ele>443.3</ele>
        <time>2026-05-16T13:32:45Z</time>
      </trkpt>
      <trkpt lat="43.75053" lon="6.99439">
        <ele>441.9</ele>
        <time>2026-05-16T13:32:46Z</time>
      </trkpt>
      <trkpt lat="43.7505" lon="6.99456">
        <ele>442.6</ele>
        <time>2026-05-16T13:32:47Z</time>
      </trkpt>
      <trkpt lat="43.75047" lon="6.99473">
        <ele>444.3</ele>
        <time>2026-05-16T13:32:48Z</time>
      </trkpt>
      <trkpt lat="43.75047" lon="6.99491">
        <ele>445.2</ele>
        <time>2026-05-16T13:32:49Z</time>
      </trkpt>
      <trkpt lat="43.75049" lon="6.99508">
        <ele>445.6</ele>
        <time>2026-05-16T13:32:50Z</time>
      </trkpt>
      <trkpt lat="43.75054" lon="6.99526">
        <ele>446.3</ele>
        <time>2026-05-16T13:32:51Z</time>
      </trkpt>
      <trkpt lat="43.75061" lon="6.99542">
        <ele>444</ele>
        <time>2026-05-16T13:32:52Z</time>
      </trkpt>
      <trkpt lat="43.75066" lon="6.99558">
        <ele>441.5</ele>
        <time>2026-05-16T13:32:53Z</time>
      </trkpt>
      <trkpt lat="43.75071" lon="6.99575">
        <ele>438.4</ele>
        <time>2026-05-16T13:32:54Z</time>
      </trkpt>
      <trkpt lat="43.75075" lon="6.99591">
        <ele>435.4</ele>
        <time>2026-05-16T13:32:55Z</time>
      </trkpt>
      <trkpt lat="43.75069" lon="6.99606">
        <ele>434.5</ele>
        <time>2026-05-16T13:32:56Z</time>
      </trkpt>
      <trkpt lat="43.7506" lon="6.9962">
        <ele>432.9</ele>
        <time>2026-05-16T13:32:57Z</time>
      </trkpt>
      <trkpt lat="43.75049" lon="6.9963">
        <ele>430.8</ele>
        <time>2026-05-16T13:32:58Z</time>
      </trkpt>
      <trkpt lat="43.75036" lon="6.99636">
        <ele>430.1</ele>
        <time>2026-05-16T13:32:59Z</time>
      </trkpt>
      <trkpt lat="43.75022" lon="6.99639">
        <ele>430.2</ele>
        <time>2026-05-16T13:33:00Z</time>
      </trkpt>
      <trkpt lat="43.75006" lon="6.99642">
        <ele>430</ele>
        <time>2026-05-16T13:33:01Z</time>
      </trkpt>
      <trkpt lat="43.74991" lon="6.99645">
        <ele>429.2</ele>
        <time>2026-05-16T13:33:02Z</time>
      </trkpt>
      <trkpt lat="43.74975" lon="6.99648">
        <ele>428.1</ele>
        <time>2026-05-16T13:33:03Z</time>
      </trkpt>
      <trkpt lat="43.7496" lon="6.99651">
        <ele>427.7</ele>
        <time>2026-05-16T13:33:04Z</time>
      </trkpt>
      <trkpt lat="43.74945" lon="6.99653">
        <ele>427.9</ele>
        <time>2026-05-16T13:33:05Z</time>
      </trkpt>
      <trkpt lat="43.7493" lon="6.99653">
        <ele>427.2</ele>
        <time>2026-05-16T13:33:06Z</time>
      </trkpt>
      <trkpt lat="43.74916" lon="6.99652">
        <ele>426.6</ele>
        <time>2026-05-16T13:33:07Z</time>
      </trkpt>
      <trkpt lat="43.74902" lon="6.99648">
        <ele>427.2</ele>
        <time>2026-05-16T13:33:08Z</time>
      </trkpt>
      <trkpt lat="43.74887" lon="6.99645">
        <ele>427.9</ele>
        <time>2026-05-16T13:33:09Z</time>
      </trkpt>
      <trkpt lat="43.74872" lon="6.9964">
        <ele>428.4</ele>
        <time>2026-05-16T13:33:10Z</time>
      </trkpt>
      <trkpt lat="43.74857" lon="6.99637">
        <ele>429.1</ele>
        <time>2026-05-16T13:33:11Z</time>
      </trkpt>
      <trkpt lat="43.74844" lon="6.99636">
        <ele>430.1</ele>
        <time>2026-05-16T13:33:12Z</time>
      </trkpt>
      <trkpt lat="43.7483" lon="6.9964">
        <ele>428.9</ele>
        <time>2026-05-16T13:33:13Z</time>
      </trkpt>
      <trkpt lat="43.74819" lon="6.99649">
        <ele>426.4</ele>
        <time>2026-05-16T13:33:14Z</time>
      </trkpt>
      <trkpt lat="43.74814" lon="6.99664">
        <ele>420.9</ele>
        <time>2026-05-16T13:33:15Z</time>
      </trkpt>
      <trkpt lat="43.74807" lon="6.99676">
        <ele>418.1</ele>
        <time>2026-05-16T13:33:16Z</time>
      </trkpt>
      <trkpt lat="43.74801" lon="6.9969">
        <ele>415.2</ele>
        <time>2026-05-16T13:33:17Z</time>
      </trkpt>
      <trkpt lat="43.748" lon="6.99708">
        <ele>412.5</ele>
        <time>2026-05-16T13:33:18Z</time>
      </trkpt>
      <trkpt lat="43.74798" lon="6.99722">
        <ele>411.1</ele>
        <time>2026-05-16T13:33:19Z</time>
      </trkpt>
      <trkpt lat="43.74794" lon="6.99736">
        <ele>409.1</ele>
        <time>2026-05-16T13:33:20Z</time>
      </trkpt>
      <trkpt lat="43.7479" lon="6.99747">
        <ele>407.9</ele>
        <time>2026-05-16T13:33:21Z</time>
      </trkpt>
      <trkpt lat="43.74783" lon="6.99756">
        <ele>408.3</ele>
        <time>2026-05-16T13:33:22Z</time>
      </trkpt>
      <trkpt lat="43.74778" lon="6.99764">
        <ele>408.4</ele>
        <time>2026-05-16T13:33:23Z</time>
      </trkpt>
      <trkpt lat="43.74771" lon="6.9977">
        <ele>409.1</ele>
        <time>2026-05-16T13:33:24Z</time>
      </trkpt>
      <trkpt lat="43.74764" lon="6.99776">
        <ele>409.7</ele>
        <time>2026-05-16T13:33:25Z</time>
      </trkpt>
      <trkpt lat="43.74755" lon="6.99782">
        <ele>410.5</ele>
        <time>2026-05-16T13:33:26Z</time>
      </trkpt>
      <trkpt lat="43.74748" lon="6.99788">
        <ele>411.6</ele>
        <time>2026-05-16T13:33:27Z</time>
      </trkpt>
      <trkpt lat="43.7474" lon="6.99792">
        <ele>415</ele>
        <time>2026-05-16T13:33:28Z</time>
      </trkpt>
      <trkpt lat="43.74733" lon="6.99796">
        <ele>417.8</ele>
        <time>2026-05-16T13:33:29Z</time>
      </trkpt>
      <trkpt lat="43.7468" lon="6.99825">
        <ele>424.5</ele>
        <time>2026-05-16T13:33:34Z</time>
      </trkpt>
      <trkpt lat="43.74667" lon="6.99835">
        <ele>422</ele>
        <time>2026-05-16T13:33:35Z</time>
      </trkpt>
      <trkpt lat="43.74653" lon="6.99839">
        <ele>418.8</ele>
        <time>2026-05-16T13:33:36Z</time>
      </trkpt>
      <trkpt lat="43.74641" lon="6.99839">
        <ele>420.1</ele>
        <time>2026-05-16T13:33:37Z</time>
      </trkpt>
      <trkpt lat="43.74627" lon="6.99849">
        <ele>411.4</ele>
        <time>2026-05-16T13:33:38Z</time>
      </trkpt>
      <trkpt lat="43.74617" lon="6.9986">
        <ele>404.2</ele>
        <time>2026-05-16T13:33:39Z</time>
      </trkpt>
      <trkpt lat="43.74607" lon="6.99869">
        <ele>400.3</ele>
        <time>2026-05-16T13:33:40Z</time>
      </trkpt>
      <trkpt lat="43.74596" lon="6.99874">
        <ele>399.7</ele>
        <time>2026-05-16T13:33:41Z</time>
      </trkpt>
      <trkpt lat="43.74582" lon="6.99877">
        <ele>400.6</ele>
        <time>2026-05-16T13:33:42Z</time>
      </trkpt>
      <trkpt lat="43.7457" lon="6.9988">
        <ele>399.8</ele>
        <time>2026-05-16T13:33:43Z</time>
      </trkpt>
      <trkpt lat="43.74558" lon="6.99882">
        <ele>399.6</ele>
        <time>2026-05-16T13:33:44Z</time>
      </trkpt>
      <trkpt lat="43.74544" lon="6.99884">
        <ele>399.3</ele>
        <time>2026-05-16T13:33:45Z</time>
      </trkpt>
      <trkpt lat="43.74531" lon="6.99889">
        <ele>395.7</ele>
        <time>2026-05-16T13:33:46Z</time>
      </trkpt>
      <trkpt lat="43.74517" lon="6.99894">
        <ele>393.8</ele>
        <time>2026-05-16T13:33:47Z</time>
      </trkpt>
      <trkpt lat="43.74504" lon="6.999">
        <ele>390.3</ele>
        <time>2026-05-16T13:33:48Z</time>
      </trkpt>
      <trkpt lat="43.7449" lon="6.99905">
        <ele>388.5</ele>
        <time>2026-05-16T13:33:49Z</time>
      </trkpt>
      <trkpt lat="43.74476" lon="6.99908">
        <ele>388.6</ele>
        <time>2026-05-16T13:33:50Z</time>
      </trkpt>
      <trkpt lat="43.74462" lon="6.99909">
        <ele>389.5</ele>
        <time>2026-05-16T13:33:51Z</time>
      </trkpt>
      <trkpt lat="43.74448" lon="6.99909">
        <ele>391.4</ele>
        <time>2026-05-16T13:33:52Z</time>
      </trkpt>
      <trkpt lat="43.74434" lon="6.99911">
        <ele>388.7</ele>
        <time>2026-05-16T13:33:53Z</time>
      </trkpt>
      <trkpt lat="43.74421" lon="6.99915">
        <ele>383.8</ele>
        <time>2026-05-16T13:33:54Z</time>
      </trkpt>
      <trkpt lat="43.74408" lon="6.99917">
        <ele>381.9</ele>
        <time>2026-05-16T13:33:55Z</time>
      </trkpt>
      <trkpt lat="43.74396" lon="6.99915">
        <ele>383.3</ele>
        <time>2026-05-16T13:33:56Z</time>
      </trkpt>
      <trkpt lat="43.74384" lon="6.99909">
        <ele>386.5</ele>
        <time>2026-05-16T13:33:57Z</time>
      </trkpt>
      <trkpt lat="43.74372" lon="6.99904">
        <ele>388.3</ele>
        <time>2026-05-16T13:33:58Z</time>
      </trkpt>
      <trkpt lat="43.7436" lon="6.999">
        <ele>389.9</ele>
        <time>2026-05-16T13:33:59Z</time>
      </trkpt>
      <trkpt lat="43.74348" lon="6.99899">
        <ele>390</ele>
        <time>2026-05-16T13:34:00Z</time>
      </trkpt>
      <trkpt lat="43.74338" lon="6.99906">
        <ele>382.9</ele>
        <time>2026-05-16T13:34:01Z</time>
      </trkpt>
      <trkpt lat="43.74329" lon="6.99909">
        <ele>380.9</ele>
        <time>2026-05-16T13:34:02Z</time>
      </trkpt>
      <trkpt lat="43.7432" lon="6.99909">
        <ele>382.9</ele>
        <time>2026-05-16T13:34:03Z</time>
      </trkpt>
      <trkpt lat="43.74311" lon="6.99908">
        <ele>385.9</ele>
        <time>2026-05-16T13:34:04Z</time>
      </trkpt>
      <trkpt lat="43.74302" lon="6.99907">
        <ele>390.1</ele>
        <time>2026-05-16T13:34:05Z</time>
      </trkpt>
      <trkpt lat="43.74293" lon="6.99908">
        <ele>394.5</ele>
        <time>2026-05-16T13:34:06Z</time>
      </trkpt>
      <trkpt lat="43.74284" lon="6.99912">
        <ele>396.3</ele>
        <time>2026-05-16T13:34:07Z</time>
      </trkpt>
      <trkpt lat="43.74279" lon="6.99921">
        <ele>390.1</ele>
        <time>2026-05-16T13:34:08Z</time>
      </trkpt>
      <trkpt lat="43.74274" lon="6.99931">
        <ele>381</ele>
        <time>2026-05-16T13:34:09Z</time>
      </trkpt>
      <trkpt lat="43.7427" lon="6.99943">
        <ele>369.6</ele>
        <time>2026-05-16T13:34:10Z</time>
      </trkpt>
      <trkpt lat="43.74266" lon="6.99955">
        <ele>373.9</ele>
        <time>2026-05-16T13:34:11Z</time>
      </trkpt>
      <trkpt lat="43.74261" lon="6.99965">
        <ele>374.6</ele>
        <time>2026-05-16T13:34:12Z</time>
      </trkpt>
      <trkpt lat="43.74253" lon="6.99972">
        <ele>367.7</ele>
        <time>2026-05-16T13:34:13Z</time>
      </trkpt>
      <trkpt lat="43.74245" lon="6.99979">
        <ele>372.3</ele>
        <time>2026-05-16T13:34:14Z</time>
      </trkpt>
      <trkpt lat="43.74235" lon="6.99984">
        <ele>375.6</ele>
        <time>2026-05-16T13:34:15Z</time>
      </trkpt>
      <trkpt lat="43.74225" lon="6.99988">
        <ele>376.8</ele>
        <time>2026-05-16T13:34:16Z</time>
      </trkpt>
      <trkpt lat="43.74215" lon="6.99994">
        <ele>377.4</ele>
        <time>2026-05-16T13:34:17Z</time>
      </trkpt>
      <trkpt lat="43.74206" lon="7.00001">
        <ele>376.7</ele>
        <time>2026-05-16T13:34:18Z</time>
      </trkpt>
      <trkpt lat="43.74198" lon="7.00009">
        <ele>380.8</ele>
        <time>2026-05-16T13:34:19Z</time>
      </trkpt>
      <trkpt lat="43.74191" lon="7.00016">
        <ele>383.8</ele>
        <time>2026-05-16T13:34:20Z</time>
      </trkpt>
      <trkpt lat="43.74183" lon="7.00024">
        <ele>386.5</ele>
        <time>2026-05-16T13:34:21Z</time>
      </trkpt>
      <trkpt lat="43.74176" lon="7.00036">
        <ele>396.1</ele>
        <time>2026-05-16T13:34:22Z</time>
      </trkpt>
      <trkpt lat="43.74167" lon="7.00042">
        <ele>400.2</ele>
        <time>2026-05-16T13:34:23Z</time>
      </trkpt>
      <trkpt lat="43.74157" lon="7.00045">
        <ele>401.5</ele>
        <time>2026-05-16T13:34:24Z</time>
      </trkpt>
      <trkpt lat="43.74148" lon="7.00048">
        <ele>403.3</ele>
        <time>2026-05-16T13:34:25Z</time>
      </trkpt>
      <trkpt lat="43.74138" lon="7.00051">
        <ele>404.9</ele>
        <time>2026-05-16T13:34:26Z</time>
      </trkpt>
      <trkpt lat="43.7413" lon="7.00052">
        <ele>402.9</ele>
        <time>2026-05-16T13:34:27Z</time>
      </trkpt>
      <trkpt lat="43.74122" lon="7.00055">
        <ele>403.7</ele>
        <time>2026-05-16T13:34:28Z</time>
      </trkpt>
      <trkpt lat="43.74114" lon="7.00058">
        <ele>404.1</ele>
        <time>2026-05-16T13:34:29Z</time>
      </trkpt>
      <trkpt lat="43.74106" lon="7.00061">
        <ele>404.9</ele>
        <time>2026-05-16T13:34:30Z</time>
      </trkpt>
      <trkpt lat="43.74098" lon="7.00065">
        <ele>407.6</ele>
        <time>2026-05-16T13:34:31Z</time>
      </trkpt>
      <trkpt lat="43.74089" lon="7.00068">
        <ele>408.5</ele>
        <time>2026-05-16T13:34:32Z</time>
      </trkpt>
      <trkpt lat="43.7408" lon="7.00066">
        <ele>402</ele>
        <time>2026-05-16T13:34:33Z</time>
      </trkpt>
      <trkpt lat="43.7407" lon="7.00062">
        <ele>392.6</ele>
        <time>2026-05-16T13:34:34Z</time>
      </trkpt>
      <trkpt lat="43.7406" lon="7.00058">
        <ele>383.2</ele>
        <time>2026-05-16T13:34:35Z</time>
      </trkpt>
      <trkpt lat="43.74049" lon="7.00057">
        <ele>378.7</ele>
        <time>2026-05-16T13:34:36Z</time>
      </trkpt>
      <trkpt lat="43.74038" lon="7.00059">
        <ele>379</ele>
        <time>2026-05-16T13:34:37Z</time>
      </trkpt>
      <trkpt lat="43.74025" lon="7.00059">
        <ele>375.6</ele>
        <time>2026-05-16T13:34:38Z</time>
      </trkpt>
      <trkpt lat="43.74011" lon="7.0006">
        <ele>373.6</ele>
        <time>2026-05-16T13:34:39Z</time>
      </trkpt>
      <trkpt lat="43.73997" lon="7.00061">
        <ele>371.5</ele>
        <time>2026-05-16T13:34:40Z</time>
      </trkpt>
      <trkpt lat="43.73984" lon="7.00066">
        <ele>375.4</ele>
        <time>2026-05-16T13:34:41Z</time>
      </trkpt>
      <trkpt lat="43.7397" lon="7.0007">
        <ele>377.8</ele>
        <time>2026-05-16T13:34:42Z</time>
      </trkpt>
      <trkpt lat="43.73956" lon="7.00073">
        <ele>382.4</ele>
        <time>2026-05-16T13:34:43Z</time>
      </trkpt>
      <trkpt lat="43.73942" lon="7.00073">
        <ele>383.8</ele>
        <time>2026-05-16T13:34:44Z</time>
      </trkpt>
      <trkpt lat="43.7393" lon="7.00066">
        <ele>377.4</ele>
        <time>2026-05-16T13:34:45Z</time>
      </trkpt>
      <trkpt lat="43.73916" lon="7.00064">
        <ele>377.4</ele>
        <time>2026-05-16T13:34:46Z</time>
      </trkpt>
      <trkpt lat="43.73904" lon="7.00059">
        <ele>373.2</ele>
        <time>2026-05-16T13:34:47Z</time>
      </trkpt>
      <trkpt lat="43.73892" lon="7.00057">
        <ele>372.9</ele>
        <time>2026-05-16T13:34:48Z</time>
      </trkpt>
      <trkpt lat="43.7388" lon="7.00052">
        <ele>372.1</ele>
        <time>2026-05-16T13:34:49Z</time>
      </trkpt>
      <trkpt lat="43.73867" lon="7.0005">
        <ele>374.5</ele>
        <time>2026-05-16T13:34:50Z</time>
      </trkpt>
      <trkpt lat="43.73855" lon="7.00048">
        <ele>379.2</ele>
        <time>2026-05-16T13:34:51Z</time>
      </trkpt>
      <trkpt lat="43.73844" lon="7.00045">
        <ele>385.1</ele>
        <time>2026-05-16T13:34:52Z</time>
      </trkpt>
      <trkpt lat="43.73558" lon="6.99888">
        <ele>331.1</ele>
        <time>2026-05-16T13:35:13Z</time>
      </trkpt>
      <trkpt lat="43.73549" lon="6.99883">
        <ele>329</ele>
        <time>2026-05-16T13:35:14Z</time>
      </trkpt>
      <trkpt lat="43.7354" lon="6.9988">
        <ele>327.9</ele>
        <time>2026-05-16T13:35:15Z</time>
      </trkpt>
      <trkpt lat="43.73531" lon="6.99879">
        <ele>327.9</ele>
        <time>2026-05-16T13:35:16Z</time>
      </trkpt>
      <trkpt lat="43.7352" lon="6.99886">
        <ele>328.6</ele>
        <time>2026-05-16T13:35:17Z</time>
      </trkpt>
      <trkpt lat="43.7351" lon="6.9989">
        <ele>327.7</ele>
        <time>2026-05-16T13:35:18Z</time>
      </trkpt>
      <trkpt lat="43.735" lon="6.99894">
        <ele>328.2</ele>
        <time>2026-05-16T13:35:19Z</time>
      </trkpt>
      <trkpt lat="43.7349" lon="6.99898">
        <ele>331.2</ele>
        <time>2026-05-16T13:35:20Z</time>
      </trkpt>
      <trkpt lat="43.73479" lon="6.99901">
        <ele>333.5</ele>
        <time>2026-05-16T13:35:21Z</time>
      </trkpt>
      <trkpt lat="43.73469" lon="6.99904">
        <ele>335.6</ele>
        <time>2026-05-16T13:35:22Z</time>
      </trkpt>
      <trkpt lat="43.73458" lon="6.99905">
        <ele>334.4</ele>
        <time>2026-05-16T13:35:23Z</time>
      </trkpt>
      <trkpt lat="43.73447" lon="6.99904">
        <ele>331.7</ele>
        <time>2026-05-16T13:35:24Z</time>
      </trkpt>
      <trkpt lat="43.73436" lon="6.99905">
        <ele>329.6</ele>
        <time>2026-05-16T13:35:25Z</time>
      </trkpt>
      <trkpt lat="43.73426" lon="6.99905">
        <ele>326.9</ele>
        <time>2026-05-16T13:35:26Z</time>
      </trkpt>
      <trkpt lat="43.73416" lon="6.99904">
        <ele>323.8</ele>
        <time>2026-05-16T13:35:27Z</time>
      </trkpt>
      <trkpt lat="43.73405" lon="6.999">
        <ele>321.5</ele>
        <time>2026-05-16T13:35:28Z</time>
      </trkpt>
      <trkpt lat="43.73395" lon="6.99897">
        <ele>319.4</ele>
        <time>2026-05-16T13:35:29Z</time>
      </trkpt>
      <trkpt lat="43.73385" lon="6.99897">
        <ele>319.1</ele>
        <time>2026-05-16T13:35:30Z</time>
      </trkpt>
      <trkpt lat="43.73375" lon="6.99899">
        <ele>319.8</ele>
        <time>2026-05-16T13:35:31Z</time>
      </trkpt>
      <trkpt lat="43.73365" lon="6.99902">
        <ele>321.3</ele>
        <time>2026-05-16T13:35:32Z</time>
      </trkpt>
      <trkpt lat="43.73353" lon="6.99904">
        <ele>321.6</ele>
        <time>2026-05-16T13:35:33Z</time>
      </trkpt>
      <trkpt lat="43.73341" lon="6.99905">
        <ele>321.1</ele>
        <time>2026-05-16T13:35:34Z</time>
      </trkpt>
      <trkpt lat="43.73327" lon="6.99904">
        <ele>320</ele>
        <time>2026-05-16T13:35:35Z</time>
      </trkpt>
      <trkpt lat="43.73314" lon="6.99903">
        <ele>319.9</ele>
        <time>2026-05-16T13:35:36Z</time>
      </trkpt>
      <trkpt lat="43.73301" lon="6.99901">
        <ele>319.5</ele>
        <time>2026-05-16T13:35:37Z</time>
      </trkpt>
      <trkpt lat="43.73288" lon="6.99898">
        <ele>319.6</ele>
        <time>2026-05-16T13:35:38Z</time>
      </trkpt>
      <trkpt lat="43.73275" lon="6.99896">
        <ele>320</ele>
        <time>2026-05-16T13:35:39Z</time>
      </trkpt>
      <trkpt lat="43.73262" lon="6.99892">
        <ele>318.1</ele>
        <time>2026-05-16T13:35:40Z</time>
      </trkpt>
      <trkpt lat="43.73249" lon="6.99889">
        <ele>317.3</ele>
        <time>2026-05-16T13:35:41Z</time>
      </trkpt>
      <trkpt lat="43.73236" lon="6.99883">
        <ele>315.6</ele>
        <time>2026-05-16T13:35:42Z</time>
      </trkpt>
      <trkpt lat="43.73224" lon="6.99877">
        <ele>313.2</ele>
        <time>2026-05-16T13:35:43Z</time>
      </trkpt>
      <trkpt lat="43.73212" lon="6.9987">
        <ele>311.4</ele>
        <time>2026-05-16T13:35:44Z</time>
      </trkpt>
      <trkpt lat="43.73199" lon="6.99864">
        <ele>311.3</ele>
        <time>2026-05-16T13:35:45Z</time>
      </trkpt>
      <trkpt lat="43.73189" lon="6.99857">
        <ele>310.7</ele>
        <time>2026-05-16T13:35:46Z</time>
      </trkpt>
      <trkpt lat="43.7318" lon="6.99853">
        <ele>311.4</ele>
        <time>2026-05-16T13:35:47Z</time>
      </trkpt>
      <trkpt lat="43.73172" lon="6.99849">
        <ele>311.5</ele>
        <time>2026-05-16T13:35:48Z</time>
      </trkpt>
      <trkpt lat="43.73164" lon="6.99848">
        <ele>313.2</ele>
        <time>2026-05-16T13:35:49Z</time>
      </trkpt>
      <trkpt lat="43.73156" lon="6.99846">
        <ele>313.3</ele>
        <time>2026-05-16T13:35:50Z</time>
      </trkpt>
      <trkpt lat="43.73148" lon="6.99846">
        <ele>315</ele>
        <time>2026-05-16T13:35:51Z</time>
      </trkpt>
      <trkpt lat="43.73141" lon="6.99844">
        <ele>314.6</ele>
        <time>2026-05-16T13:35:52Z</time>
      </trkpt>
      <trkpt lat="43.73136" lon="6.99839">
        <ele>310.9</ele>
        <time>2026-05-16T13:35:53Z</time>
      </trkpt>
      <trkpt lat="43.73131" lon="6.99836">
        <ele>309.3</ele>
        <time>2026-05-16T13:35:54Z</time>
      </trkpt>
      <trkpt lat="43.73126" lon="6.99833">
        <ele>308.1</ele>
        <time>2026-05-16T13:35:55Z</time>
      </trkpt>
      <trkpt lat="43.7312" lon="6.99829">
        <ele>307.5</ele>
        <time>2026-05-16T13:35:56Z</time>
      </trkpt>
      <trkpt lat="43.73114" lon="6.99824">
        <ele>306.8</ele>
        <time>2026-05-16T13:35:57Z</time>
      </trkpt>
      <trkpt lat="43.73106" lon="6.9982">
        <ele>306.6</ele>
        <time>2026-05-16T13:35:58Z</time>
      </trkpt>
      <trkpt lat="43.73097" lon="6.99813">
        <ele>304.7</ele>
        <time>2026-05-16T13:35:59Z</time>
      </trkpt>
      <trkpt lat="43.73088" lon="6.99806">
        <ele>302.5</ele>
        <time>2026-05-16T13:36:00Z</time>
      </trkpt>
      <trkpt lat="43.73077" lon="6.99798">
        <ele>302.1</ele>
        <time>2026-05-16T13:36:01Z</time>
      </trkpt>
      <trkpt lat="43.73067" lon="6.99789">
        <ele>301.3</ele>
        <time>2026-05-16T13:36:02Z</time>
      </trkpt>
      <trkpt lat="43.73057" lon="6.9978">
        <ele>299.7</ele>
        <time>2026-05-16T13:36:03Z</time>
      </trkpt>
      <trkpt lat="43.73048" lon="6.99771">
        <ele>297.5</ele>
        <time>2026-05-16T13:36:04Z</time>
      </trkpt>
      <trkpt lat="43.73037" lon="6.99764">
        <ele>295.9</ele>
        <time>2026-05-16T13:36:05Z</time>
      </trkpt>
      <trkpt lat="43.73026" lon="6.99759">
        <ele>294.9</ele>
        <time>2026-05-16T13:36:06Z</time>
      </trkpt>
      <trkpt lat="43.73014" lon="6.99755">
        <ele>294.6</ele>
        <time>2026-05-16T13:36:07Z</time>
      </trkpt>
      <trkpt lat="43.73001" lon="6.9975">
        <ele>292.8</ele>
        <time>2026-05-16T13:36:08Z</time>
      </trkpt>
      <trkpt lat="43.72988" lon="6.99746">
        <ele>291.8</ele>
        <time>2026-05-16T13:36:09Z</time>
      </trkpt>
      <trkpt lat="43.72974" lon="6.99742">
        <ele>291.2</ele>
        <time>2026-05-16T13:36:10Z</time>
      </trkpt>
      <trkpt lat="43.7296" lon="6.99737">
        <ele>291.6</ele>
        <time>2026-05-16T13:36:11Z</time>
      </trkpt>
      <trkpt lat="43.72945" lon="6.99731">
        <ele>291.6</ele>
        <time>2026-05-16T13:36:12Z</time>
      </trkpt>
      <trkpt lat="43.7293" lon="6.99724">
        <ele>289.9</ele>
        <time>2026-05-16T13:36:13Z</time>
      </trkpt>
      <trkpt lat="43.72916" lon="6.99717">
        <ele>289.2</ele>
        <time>2026-05-16T13:36:14Z</time>
      </trkpt>
      <trkpt lat="43.72902" lon="6.99712">
        <ele>288.7</ele>
        <time>2026-05-16T13:36:15Z</time>
      </trkpt>
      <trkpt lat="43.72888" lon="6.99708">
        <ele>290.4</ele>
        <time>2026-05-16T13:36:16Z</time>
      </trkpt>
      <trkpt lat="43.72873" lon="6.99705">
        <ele>290.2</ele>
        <time>2026-05-16T13:36:17Z</time>
      </trkpt>
      <trkpt lat="43.72857" lon="6.99704">
        <ele>290.8</ele>
        <time>2026-05-16T13:36:18Z</time>
      </trkpt>
      <trkpt lat="43.72842" lon="6.99701">
        <ele>286.9</ele>
        <time>2026-05-16T13:36:19Z</time>
      </trkpt>
      <trkpt lat="43.72827" lon="6.997">
        <ele>285.3</ele>
        <time>2026-05-16T13:36:20Z</time>
      </trkpt>
      <trkpt lat="43.72812" lon="6.99698">
        <ele>284.2</ele>
        <time>2026-05-16T13:36:21Z</time>
      </trkpt>
      <trkpt lat="43.72798" lon="6.99696">
        <ele>282.4</ele>
        <time>2026-05-16T13:36:22Z</time>
      </trkpt>
      <trkpt lat="43.72783" lon="6.9969">
        <ele>278.9</ele>
        <time>2026-05-16T13:36:23Z</time>
      </trkpt>
      <trkpt lat="43.72771" lon="6.99693">
        <ele>278.1</ele>
        <time>2026-05-16T13:36:24Z</time>
      </trkpt>
      <trkpt lat="43.72758" lon="6.99699">
        <ele>277.6</ele>
        <time>2026-05-16T13:36:25Z</time>
      </trkpt>
      <trkpt lat="43.72749" lon="6.99709">
        <ele>278.9</ele>
        <time>2026-05-16T13:36:26Z</time>
      </trkpt>
      <trkpt lat="43.72741" lon="6.99721">
        <ele>279.7</ele>
        <time>2026-05-16T13:36:27Z</time>
      </trkpt>
      <trkpt lat="43.72732" lon="6.99731">
        <ele>282.2</ele>
        <time>2026-05-16T13:36:28Z</time>
      </trkpt>
      <trkpt lat="43.72723" lon="6.99737">
        <ele>282</ele>
        <time>2026-05-16T13:36:29Z</time>
      </trkpt>
      <trkpt lat="43.72712" lon="6.99738">
        <ele>282</ele>
        <time>2026-05-16T13:36:30Z</time>
      </trkpt>
      <trkpt lat="43.72702" lon="6.99734">
        <ele>279.4</ele>
        <time>2026-05-16T13:36:31Z</time>
      </trkpt>
      <trkpt lat="43.72692" lon="6.99726">
        <ele>275.8</ele>
        <time>2026-05-16T13:36:32Z</time>
      </trkpt>
      <trkpt lat="43.72682" lon="6.99718">
        <ele>276.2</ele>
        <time>2026-05-16T13:36:33Z</time>
      </trkpt>
      <trkpt lat="43.72671" lon="6.99712">
        <ele>277.9</ele>
        <time>2026-05-16T13:36:34Z</time>
      </trkpt>
      <trkpt lat="43.7266" lon="6.99708">
        <ele>278.1</ele>
        <time>2026-05-16T13:36:35Z</time>
      </trkpt>
      <trkpt lat="43.72647" lon="6.99709">
        <ele>278.9</ele>
        <time>2026-05-16T13:36:36Z</time>
      </trkpt>
      <trkpt lat="43.72635" lon="6.99706">
        <ele>278.2</ele>
        <time>2026-05-16T13:36:37Z</time>
      </trkpt>
      <trkpt lat="43.72623" lon="6.99701">
        <ele>276.4</ele>
        <time>2026-05-16T13:36:38Z</time>
      </trkpt>
      <trkpt lat="43.72611" lon="6.99695">
        <ele>274.2</ele>
        <time>2026-05-16T13:36:39Z</time>
      </trkpt>
      <trkpt lat="43.72599" lon="6.99689">
        <ele>272.8</ele>
        <time>2026-05-16T13:36:40Z</time>
      </trkpt>
      <trkpt lat="43.72587" lon="6.9968">
        <ele>271.1</ele>
        <time>2026-05-16T13:36:41Z</time>
      </trkpt>
      <trkpt lat="43.72575" lon="6.99672">
        <ele>271.6</ele>
        <time>2026-05-16T13:36:42Z</time>
      </trkpt>
      <trkpt lat="43.72564" lon="6.99661">
        <ele>271.1</ele>
        <time>2026-05-16T13:36:43Z</time>
      </trkpt>
      <trkpt lat="43.72553" lon="6.99648">
        <ele>269.7</ele>
        <time>2026-05-16T13:36:44Z</time>
      </trkpt>
      <trkpt lat="43.72544" lon="6.99635">
        <ele>268.6</ele>
        <time>2026-05-16T13:36:45Z</time>
      </trkpt>
      <trkpt lat="43.72535" lon="6.99621">
        <ele>267.5</ele>
        <time>2026-05-16T13:36:46Z</time>
      </trkpt>
      <trkpt lat="43.72526" lon="6.99608">
        <ele>266.6</ele>
        <time>2026-05-16T13:36:47Z</time>
      </trkpt>
      <trkpt lat="43.72517" lon="6.99594">
        <ele>265.2</ele>
        <time>2026-05-16T13:36:48Z</time>
      </trkpt>
      <trkpt lat="43.72507" lon="6.99582">
        <ele>264.6</ele>
        <time>2026-05-16T13:36:49Z</time>
      </trkpt>
      <trkpt lat="43.72496" lon="6.99571">
        <ele>264.5</ele>
        <time>2026-05-16T13:36:50Z</time>
      </trkpt>
      <trkpt lat="43.72486" lon="6.9956">
        <ele>263.9</ele>
        <time>2026-05-16T13:36:51Z</time>
      </trkpt>
      <trkpt lat="43.72475" lon="6.99549">
        <ele>263.2</ele>
        <time>2026-05-16T13:36:52Z</time>
      </trkpt>
      <trkpt lat="43.72464" lon="6.99539">
        <ele>263.8</ele>
        <time>2026-05-16T13:36:53Z</time>
      </trkpt>
      <trkpt lat="43.72453" lon="6.99528">
        <ele>264</ele>
        <time>2026-05-16T13:36:54Z</time>
      </trkpt>
      <trkpt lat="43.72442" lon="6.99517">
        <ele>263.2</ele>
        <time>2026-05-16T13:36:55Z</time>
      </trkpt>
      <trkpt lat="43.72432" lon="6.99504">
        <ele>260.8</ele>
        <time>2026-05-16T13:36:56Z</time>
      </trkpt>
      <trkpt lat="43.72423" lon="6.9949">
        <ele>257.6</ele>
        <time>2026-05-16T13:36:57Z</time>
      </trkpt>
      <trkpt lat="43.72413" lon="6.99479">
        <ele>255.7</ele>
        <time>2026-05-16T13:36:58Z</time>
      </trkpt>
      <trkpt lat="43.72402" lon="6.9947">
        <ele>253.8</ele>
        <time>2026-05-16T13:36:59Z</time>
      </trkpt>
      <trkpt lat="43.72391" lon="6.99464">
        <ele>253.7</ele>
        <time>2026-05-16T13:37:00Z</time>
      </trkpt>
      <trkpt lat="43.72376" lon="6.99465">
        <ele>254.5</ele>
        <time>2026-05-16T13:37:01Z</time>
      </trkpt>
      <trkpt lat="43.72361" lon="6.99467">
        <ele>255.5</ele>
        <time>2026-05-16T13:37:02Z</time>
      </trkpt>
      <trkpt lat="43.72346" lon="6.99469">
        <ele>253.2</ele>
        <time>2026-05-16T13:37:03Z</time>
      </trkpt>
      <trkpt lat="43.72331" lon="6.9947">
        <ele>250.9</ele>
        <time>2026-05-16T13:37:04Z</time>
      </trkpt>
      <trkpt lat="43.72317" lon="6.9947">
        <ele>251.1</ele>
        <time>2026-05-16T13:37:05Z</time>
      </trkpt>
      <trkpt lat="43.72303" lon="6.99467">
        <ele>250.9</ele>
        <time>2026-05-16T13:37:06Z</time>
      </trkpt>
      <trkpt lat="43.72289" lon="6.99462">
        <ele>253.5</ele>
        <time>2026-05-16T13:37:07Z</time>
      </trkpt>
      <trkpt lat="43.72276" lon="6.99453">
        <ele>254.1</ele>
        <time>2026-05-16T13:37:08Z</time>
      </trkpt>
      <trkpt lat="43.72265" lon="6.99445">
        <ele>255.3</ele>
        <time>2026-05-16T13:37:09Z</time>
      </trkpt>
      <trkpt lat="43.72253" lon="6.99435">
        <ele>255.9</ele>
        <time>2026-05-16T13:37:10Z</time>
      </trkpt>
      <trkpt lat="43.72243" lon="6.99426">
        <ele>254.9</ele>
        <time>2026-05-16T13:37:11Z</time>
      </trkpt>
      <trkpt lat="43.72233" lon="6.99416">
        <ele>253</ele>
        <time>2026-05-16T13:37:12Z</time>
      </trkpt>
      <trkpt lat="43.72221" lon="6.99407">
        <ele>252</ele>
        <time>2026-05-16T13:37:13Z</time>
      </trkpt>
      <trkpt lat="43.7221" lon="6.99398">
        <ele>250.1</ele>
        <time>2026-05-16T13:37:14Z</time>
      </trkpt>
      <trkpt lat="43.72198" lon="6.99389">
        <ele>248.4</ele>
        <time>2026-05-16T13:37:15Z</time>
      </trkpt>
      <trkpt lat="43.72187" lon="6.99381">
        <ele>247.3</ele>
        <time>2026-05-16T13:37:16Z</time>
      </trkpt>
      <trkpt lat="43.72177" lon="6.99373">
        <ele>245.8</ele>
        <time>2026-05-16T13:37:17Z</time>
      </trkpt>
      <trkpt lat="43.72166" lon="6.99364">
        <ele>243.4</ele>
        <time>2026-05-16T13:37:18Z</time>
      </trkpt>
      <trkpt lat="43.72156" lon="6.99357">
        <ele>240.9</ele>
        <time>2026-05-16T13:37:19Z</time>
      </trkpt>
      <trkpt lat="43.72145" lon="6.9935">
        <ele>238.1</ele>
        <time>2026-05-16T13:37:20Z</time>
      </trkpt>
      <trkpt lat="43.72133" lon="6.99347">
        <ele>235.5</ele>
        <time>2026-05-16T13:37:21Z</time>
      </trkpt>
      <trkpt lat="43.72121" lon="6.99349">
        <ele>233.7</ele>
        <time>2026-05-16T13:37:22Z</time>
      </trkpt>
      <trkpt lat="43.72111" lon="6.99355">
        <ele>234.1</ele>
        <time>2026-05-16T13:37:23Z</time>
      </trkpt>
      <trkpt lat="43.72101" lon="6.99366">
        <ele>234</ele>
        <time>2026-05-16T13:37:24Z</time>
      </trkpt>
      <trkpt lat="43.72092" lon="6.99378">
        <ele>234.2</ele>
        <time>2026-05-16T13:37:25Z</time>
      </trkpt>
      <trkpt lat="43.72084" lon="6.99389">
        <ele>234.4</ele>
        <time>2026-05-16T13:37:26Z</time>
      </trkpt>
      <trkpt lat="43.72077" lon="6.994">
        <ele>234.4</ele>
        <time>2026-05-16T13:37:27Z</time>
      </trkpt>
      <trkpt lat="43.72068" lon="6.99411">
        <ele>232.8</ele>
        <time>2026-05-16T13:37:28Z</time>
      </trkpt>
      <trkpt lat="43.72061" lon="6.99422">
        <ele>232</ele>
        <time>2026-05-16T13:37:29Z</time>
      </trkpt>
      <trkpt lat="43.72054" lon="6.99433">
        <ele>231.3</ele>
        <time>2026-05-16T13:37:30Z</time>
      </trkpt>
      <trkpt lat="43.72047" lon="6.99442">
        <ele>231.9</ele>
        <time>2026-05-16T13:37:31Z</time>
      </trkpt>
      <trkpt lat="43.72041" lon="6.99448">
        <ele>231.9</ele>
        <time>2026-05-16T13:37:32Z</time>
      </trkpt>
      <trkpt lat="43.72034" lon="6.99453">
        <ele>231.2</ele>
        <time>2026-05-16T13:37:33Z</time>
      </trkpt>
      <trkpt lat="43.72028" lon="6.99453">
        <ele>229.2</ele>
        <time>2026-05-16T13:37:34Z</time>
      </trkpt>
      <trkpt lat="43.72021" lon="6.99445">
        <ele>230.3</ele>
        <time>2026-05-16T13:37:35Z</time>
      </trkpt>
      <trkpt lat="43.72015" lon="6.99434">
        <ele>231.1</ele>
        <time>2026-05-16T13:37:36Z</time>
      </trkpt>
      <trkpt lat="43.72012" lon="6.99419">
        <ele>229.8</ele>
        <time>2026-05-16T13:37:37Z</time>
      </trkpt>
      <trkpt lat="43.72014" lon="6.99404">
        <ele>225.7</ele>
        <time>2026-05-16T13:37:38Z</time>
      </trkpt>
      <trkpt lat="43.72021" lon="6.99385">
        <ele>219.5</ele>
        <time>2026-05-16T13:37:39Z</time>
      </trkpt>
      <trkpt lat="43.72023" lon="6.9937">
        <ele>216.5</ele>
        <time>2026-05-16T13:37:40Z</time>
      </trkpt>
      <trkpt lat="43.72024" lon="6.99359">
        <ele>214.5</ele>
        <time>2026-05-16T13:37:41Z</time>
      </trkpt>
      <trkpt lat="43.72023" lon="6.99349">
        <ele>213.4</ele>
        <time>2026-05-16T13:37:42Z</time>
      </trkpt>
      <trkpt lat="43.72018" lon="6.9934">
        <ele>212.8</ele>
        <time>2026-05-16T13:37:43Z</time>
      </trkpt>
      <trkpt lat="43.72015" lon="6.99333">
        <ele>211.8</ele>
        <time>2026-05-16T13:37:44Z</time>
      </trkpt>
      <trkpt lat="43.72007" lon="6.99332">
        <ele>212.1</ele>
        <time>2026-05-16T13:37:45Z</time>
      </trkpt>
      <trkpt lat="43.71999" lon="6.9933">
        <ele>211.9</ele>
        <time>2026-05-16T13:37:46Z</time>
      </trkpt>
      <trkpt lat="43.71988" lon="6.99335">
        <ele>213.5</ele>
        <time>2026-05-16T13:37:47Z</time>
      </trkpt>
      <trkpt lat="43.71979" lon="6.99338">
        <ele>214.8</ele>
        <time>2026-05-16T13:37:48Z</time>
      </trkpt>
      <trkpt lat="43.71969" lon="6.99337">
        <ele>214.6</ele>
        <time>2026-05-16T13:37:49Z</time>
      </trkpt>
      <trkpt lat="43.7196" lon="6.99332">
        <ele>212.4</ele>
        <time>2026-05-16T13:37:50Z</time>
      </trkpt>
      <trkpt lat="43.71951" lon="6.99326">
        <ele>209.8</ele>
        <time>2026-05-16T13:37:51Z</time>
      </trkpt>
      <trkpt lat="43.71941" lon="6.99324">
        <ele>208.9</ele>
        <time>2026-05-16T13:37:52Z</time>
      </trkpt>
      <trkpt lat="43.71931" lon="6.99324">
        <ele>208.6</ele>
        <time>2026-05-16T13:37:53Z</time>
      </trkpt>
      <trkpt lat="43.71917" lon="6.99324">
        <ele>208.3</ele>
        <time>2026-05-16T13:37:54Z</time>
      </trkpt>
      <trkpt lat="43.71905" lon="6.99324">
        <ele>207.9</ele>
        <time>2026-05-16T13:37:55Z</time>
      </trkpt>
      <trkpt lat="43.71893" lon="6.99325">
        <ele>207.8</ele>
        <time>2026-05-16T13:37:56Z</time>
      </trkpt>
      <trkpt lat="43.71882" lon="6.99322">
        <ele>207.1</ele>
        <time>2026-05-16T13:37:57Z</time>
      </trkpt>
      <trkpt lat="43.71871" lon="6.99315">
        <ele>205.8</ele>
        <time>2026-05-16T13:37:58Z</time>
      </trkpt>
      <trkpt lat="43.71861" lon="6.99308">
        <ele>204.6</ele>
        <time>2026-05-16T13:37:59Z</time>
      </trkpt>
      <trkpt lat="43.71852" lon="6.99299">
        <ele>203.2</ele>
        <time>2026-05-16T13:38:00Z</time>
      </trkpt>
      <trkpt lat="43.71844" lon="6.99289">
        <ele>201.8</ele>
        <time>2026-05-16T13:38:01Z</time>
      </trkpt>
      <trkpt lat="43.71839" lon="6.99282">
        <ele>201</ele>
        <time>2026-05-16T13:38:02Z</time>
      </trkpt>
      <trkpt lat="43.71834" lon="6.99277">
        <ele>200.8</ele>
        <time>2026-05-16T13:38:03Z</time>
      </trkpt>
      <trkpt lat="43.7183" lon="6.99273">
        <ele>200.7</ele>
        <time>2026-05-16T13:38:04Z</time>
      </trkpt>
      <trkpt lat="43.71826" lon="6.99268">
        <ele>200.4</ele>
        <time>2026-05-16T13:38:05Z</time>
      </trkpt>
      <trkpt lat="43.71822" lon="6.99263">
        <ele>200.1</ele>
        <time>2026-05-16T13:38:06Z</time>
      </trkpt>
      <trkpt lat="43.71818" lon="6.99258">
        <ele>199.8</ele>
        <time>2026-05-16T13:38:07Z</time>
      </trkpt>
      <trkpt lat="43.71813" lon="6.99253">
        <ele>199.6</ele>
        <time>2026-05-16T13:38:08Z</time>
      </trkpt>
      <trkpt lat="43.71808" lon="6.99247">
        <ele>199.3</ele>
        <time>2026-05-16T13:38:09Z</time>
      </trkpt>
      <trkpt lat="43.71803" lon="6.99242">
        <ele>198.9</ele>
        <time>2026-05-16T13:38:10Z</time>
      </trkpt>
      <trkpt lat="43.71798" lon="6.99236">
        <ele>198.3</ele>
        <time>2026-05-16T13:38:11Z</time>
      </trkpt>
      <trkpt lat="43.71794" lon="6.99233">
        <ele>198</ele>
        <time>2026-05-16T13:38:12Z</time>
      </trkpt>
      <trkpt lat="43.71789" lon="6.99231">
        <ele>197.9</ele>
        <time>2026-05-16T13:38:13Z</time>
      </trkpt>
      <trkpt lat="43.71785" lon="6.9923">
        <ele>197.9</ele>
        <time>2026-05-16T13:38:14Z</time>
      </trkpt>
      <trkpt lat="43.71781" lon="6.9923">
        <ele>198</ele>
        <time>2026-05-16T13:38:15Z</time>
      </trkpt>
      <trkpt lat="43.71778" lon="6.9923">
        <ele>198.1</ele>
        <time>2026-05-16T13:38:16Z</time>
      </trkpt>
      <trkpt lat="43.71775" lon="6.9923">
        <ele>198.3</ele>
        <time>2026-05-16T13:38:17Z</time>
      </trkpt>
      <trkpt lat="43.71771" lon="6.9923">
        <ele>198.5</ele>
        <time>2026-05-16T13:38:18Z</time>
      </trkpt>
      <trkpt lat="43.71768" lon="6.9923">
        <ele>198.7</ele>
        <time>2026-05-16T13:38:19Z</time>
      </trkpt>
      <trkpt lat="43.71764" lon="6.99227">
        <ele>198.4</ele>
        <time>2026-05-16T13:38:20Z</time>
      </trkpt>
      <trkpt lat="43.7176" lon="6.99224">
        <ele>198</ele>
        <time>2026-05-16T13:38:21Z</time>
      </trkpt>
      <trkpt lat="43.71758" lon="6.99219">
        <ele>197.2</ele>
        <time>2026-05-16T13:38:22Z</time>
      </trkpt>
      <trkpt lat="43.71756" lon="6.99213">
        <ele>196.2</ele>
        <time>2026-05-16T13:38:23Z</time>
      </trkpt>
      <trkpt lat="43.71752" lon="6.99205">
        <ele>194.9</ele>
        <time>2026-05-16T13:38:24Z</time>
      </trkpt>
      <trkpt lat="43.71748" lon="6.99199">
        <ele>193.9</ele>
        <time>2026-05-16T13:38:25Z</time>
      </trkpt>
      <trkpt lat="43.71743" lon="6.99194">
        <ele>193.2</ele>
        <time>2026-05-16T13:38:26Z</time>
      </trkpt>
      <trkpt lat="43.71736" lon="6.9919">
        <ele>192.7</ele>
        <time>2026-05-16T13:38:27Z</time>
      </trkpt>
      <trkpt lat="43.71726" lon="6.99187">
        <ele>192.3</ele>
        <time>2026-05-16T13:38:28Z</time>
      </trkpt>
      <trkpt lat="43.71714" lon="6.99188">
        <ele>192.1</ele>
        <time>2026-05-16T13:38:29Z</time>
      </trkpt>
      <trkpt lat="43.71704" lon="6.99192">
        <ele>192.2</ele>
        <time>2026-05-16T13:38:30Z</time>
      </trkpt>
      <trkpt lat="43.71694" lon="6.99199">
        <ele>192.4</ele>
        <time>2026-05-16T13:38:31Z</time>
      </trkpt>
      <trkpt lat="43.71684" lon="6.99208">
        <ele>192.3</ele>
        <time>2026-05-16T13:38:32Z</time>
      </trkpt>
      <trkpt lat="43.71673" lon="6.99218">
        <ele>192.2</ele>
        <time>2026-05-16T13:38:33Z</time>
      </trkpt>
      <trkpt lat="43.71662" lon="6.99228">
        <ele>192.3</ele>
        <time>2026-05-16T13:38:34Z</time>
      </trkpt>
      <trkpt lat="43.7165" lon="6.99237">
        <ele>192.3</ele>
        <time>2026-05-16T13:38:35Z</time>
      </trkpt>
      <trkpt lat="43.71637" lon="6.99243">
        <ele>192</ele>
        <time>2026-05-16T13:38:36Z</time>
      </trkpt>
      <trkpt lat="43.71624" lon="6.99246">
        <ele>192.3</ele>
        <time>2026-05-16T13:38:37Z</time>
      </trkpt>
      <trkpt lat="43.71611" lon="6.99245">
        <ele>191.9</ele>
        <time>2026-05-16T13:38:38Z</time>
      </trkpt>
      <trkpt lat="43.71599" lon="6.99242">
        <ele>192.2</ele>
        <time>2026-05-16T13:38:39Z</time>
      </trkpt>
      <trkpt lat="43.71588" lon="6.99236">
        <ele>191.2</ele>
        <time>2026-05-16T13:38:40Z</time>
      </trkpt>
      <trkpt lat="43.71577" lon="6.9923">
        <ele>190</ele>
        <time>2026-05-16T13:38:41Z</time>
      </trkpt>
      <trkpt lat="43.71565" lon="6.99226">
        <ele>189.5</ele>
        <time>2026-05-16T13:38:42Z</time>
      </trkpt>
      <trkpt lat="43.71553" lon="6.99226">
        <ele>190.5</ele>
        <time>2026-05-16T13:38:43Z</time>
      </trkpt>
      <trkpt lat="43.71541" lon="6.99225">
        <ele>191.4</ele>
        <time>2026-05-16T13:38:44Z</time>
      </trkpt>
      <trkpt lat="43.71528" lon="6.99223">
        <ele>192.2</ele>
        <time>2026-05-16T13:38:45Z</time>
      </trkpt>
      <trkpt lat="43.71516" lon="6.99219">
        <ele>192.9</ele>
        <time>2026-05-16T13:38:46Z</time>
      </trkpt>
      <trkpt lat="43.71506" lon="6.99212">
        <ele>192.8</ele>
        <time>2026-05-16T13:38:47Z</time>
      </trkpt>
      <trkpt lat="43.71497" lon="6.99203">
        <ele>192.3</ele>
        <time>2026-05-16T13:38:48Z</time>
      </trkpt>
      <trkpt lat="43.71489" lon="6.99195">
        <ele>191.7</ele>
        <time>2026-05-16T13:38:49Z</time>
      </trkpt>
      <trkpt lat="43.71481" lon="6.99187">
        <ele>190.1</ele>
        <time>2026-05-16T13:38:50Z</time>
      </trkpt>
      <trkpt lat="43.71472" lon="6.99182">
        <ele>189.5</ele>
        <time>2026-05-16T13:38:51Z</time>
      </trkpt>
      <trkpt lat="43.71462" lon="6.99179">
        <ele>187.9</ele>
        <time>2026-05-16T13:38:52Z</time>
      </trkpt>
      <trkpt lat="43.71452" lon="6.9918">
        <ele>187.7</ele>
        <time>2026-05-16T13:38:53Z</time>
      </trkpt>
      <trkpt lat="43.71441" lon="6.99184">
        <ele>187.9</ele>
        <time>2026-05-16T13:38:54Z</time>
      </trkpt>
      <trkpt lat="43.7143" lon="6.99193">
        <ele>188.4</ele>
        <time>2026-05-16T13:38:55Z</time>
      </trkpt>
      <trkpt lat="43.71422" lon="6.99204">
        <ele>189.7</ele>
        <time>2026-05-16T13:38:56Z</time>
      </trkpt>
      <trkpt lat="43.71413" lon="6.99217">
        <ele>190.5</ele>
        <time>2026-05-16T13:38:57Z</time>
      </trkpt>
      <trkpt lat="43.71405" lon="6.99232">
        <ele>191</ele>
        <time>2026-05-16T13:38:58Z</time>
      </trkpt>
      <trkpt lat="43.71398" lon="6.99248">
        <ele>191.3</ele>
        <time>2026-05-16T13:38:59Z</time>
      </trkpt>
      <trkpt lat="43.71391" lon="6.99264">
        <ele>190.9</ele>
        <time>2026-05-16T13:39:00Z</time>
      </trkpt>
      <trkpt lat="43.71383" lon="6.99278">
        <ele>190.1</ele>
        <time>2026-05-16T13:39:01Z</time>
      </trkpt>
      <trkpt lat="43.71373" lon="6.99291">
        <ele>189.9</ele>
        <time>2026-05-16T13:39:02Z</time>
      </trkpt>
      <trkpt lat="43.71362" lon="6.99302">
        <ele>188.5</ele>
        <time>2026-05-16T13:39:03Z</time>
      </trkpt>
      <trkpt lat="43.71351" lon="6.99313">
        <ele>189.4</ele>
        <time>2026-05-16T13:39:04Z</time>
      </trkpt>
      <trkpt lat="43.71338" lon="6.9932">
        <ele>188.8</ele>
        <time>2026-05-16T13:39:05Z</time>
      </trkpt>
      <trkpt lat="43.71324" lon="6.99327">
        <ele>187.9</ele>
        <time>2026-05-16T13:39:06Z</time>
      </trkpt>
      <trkpt lat="43.71312" lon="6.99333">
        <ele>187.3</ele>
        <time>2026-05-16T13:39:07Z</time>
      </trkpt>
      <trkpt lat="43.71299" lon="6.99339">
        <ele>186.4</ele>
        <time>2026-05-16T13:39:08Z</time>
      </trkpt>
      <trkpt lat="43.71286" lon="6.99342">
        <ele>184.6</ele>
        <time>2026-05-16T13:39:09Z</time>
      </trkpt>
      <trkpt lat="43.71274" lon="6.99346">
        <ele>183.2</ele>
        <time>2026-05-16T13:39:10Z</time>
      </trkpt>
      <trkpt lat="43.71262" lon="6.99351">
        <ele>182</ele>
        <time>2026-05-16T13:39:11Z</time>
      </trkpt>
      <trkpt lat="43.71251" lon="6.99359">
        <ele>181.6</ele>
        <time>2026-05-16T13:39:12Z</time>
      </trkpt>
      <trkpt lat="43.7124" lon="6.99367">
        <ele>181.5</ele>
        <time>2026-05-16T13:39:13Z</time>
      </trkpt>
      <trkpt lat="43.71229" lon="6.99376">
        <ele>181.3</ele>
        <time>2026-05-16T13:39:14Z</time>
      </trkpt>
      <trkpt lat="43.71218" lon="6.99383">
        <ele>180.8</ele>
        <time>2026-05-16T13:39:15Z</time>
      </trkpt>
      <trkpt lat="43.71206" lon="6.99389">
        <ele>180.1</ele>
        <time>2026-05-16T13:39:16Z</time>
      </trkpt>
      <trkpt lat="43.71194" lon="6.99392">
        <ele>178.9</ele>
        <time>2026-05-16T13:39:17Z</time>
      </trkpt>
      <trkpt lat="43.71182" lon="6.99395">
        <ele>178.1</ele>
        <time>2026-05-16T13:39:18Z</time>
      </trkpt>
      <trkpt lat="43.71169" lon="6.99396">
        <ele>176.4</ele>
        <time>2026-05-16T13:39:19Z</time>
      </trkpt>
      <trkpt lat="43.71156" lon="6.99397">
        <ele>175.2</ele>
        <time>2026-05-16T13:39:20Z</time>
      </trkpt>
      <trkpt lat="43.71143" lon="6.99399">
        <ele>174.4</ele>
        <time>2026-05-16T13:39:21Z</time>
      </trkpt>
      <trkpt lat="43.7113" lon="6.994">
        <ele>173.9</ele>
        <time>2026-05-16T13:39:22Z</time>
      </trkpt>
      <trkpt lat="43.71118" lon="6.994">
        <ele>173.4</ele>
        <time>2026-05-16T13:39:23Z</time>
      </trkpt>
      <trkpt lat="43.71106" lon="6.994">
        <ele>173.1</ele>
        <time>2026-05-16T13:39:24Z</time>
      </trkpt>
      <trkpt lat="43.71094" lon="6.99398">
        <ele>172.2</ele>
        <time>2026-05-16T13:39:25Z</time>
      </trkpt>
      <trkpt lat="43.71082" lon="6.99397">
        <ele>171.7</ele>
        <time>2026-05-16T13:39:26Z</time>
      </trkpt>
      <trkpt lat="43.7107" lon="6.99396">
        <ele>170.9</ele>
        <time>2026-05-16T13:39:27Z</time>
      </trkpt>
      <trkpt lat="43.71058" lon="6.99396">
        <ele>170.4</ele>
        <time>2026-05-16T13:39:28Z</time>
      </trkpt>
      <trkpt lat="43.71045" lon="6.99397">
        <ele>170.2</ele>
        <time>2026-05-16T13:39:29Z</time>
      </trkpt>
      <trkpt lat="43.71032" lon="6.994">
        <ele>170.5</ele>
        <time>2026-05-16T13:39:30Z</time>
      </trkpt>
      <trkpt lat="43.71019" lon="6.99405">
        <ele>170.7</ele>
        <time>2026-05-16T13:39:31Z</time>
      </trkpt>
      <trkpt lat="43.71006" lon="6.99413">
        <ele>171.5</ele>
        <time>2026-05-16T13:39:32Z</time>
      </trkpt>
      <trkpt lat="43.70995" lon="6.99422">
        <ele>171.9</ele>
        <time>2026-05-16T13:39:33Z</time>
      </trkpt>
      <trkpt lat="43.70983" lon="6.99432">
        <ele>171</ele>
        <time>2026-05-16T13:39:34Z</time>
      </trkpt>
      <trkpt lat="43.70972" lon="6.99444">
        <ele>170.8</ele>
        <time>2026-05-16T13:39:35Z</time>
      </trkpt>
      <trkpt lat="43.70962" lon="6.99456">
        <ele>169.4</ele>
        <time>2026-05-16T13:39:36Z</time>
      </trkpt>
      <trkpt lat="43.70954" lon="6.99472">
        <ele>169.4</ele>
        <time>2026-05-16T13:39:37Z</time>
      </trkpt>
      <trkpt lat="43.70949" lon="6.99489">
        <ele>168.7</ele>
        <time>2026-05-16T13:39:38Z</time>
      </trkpt>
      <trkpt lat="43.70945" lon="6.99508">
        <ele>168.7</ele>
        <time>2026-05-16T13:39:39Z</time>
      </trkpt>
      <trkpt lat="43.7094" lon="6.99526">
        <ele>168.1</ele>
        <time>2026-05-16T13:39:40Z</time>
      </trkpt>
      <trkpt lat="43.70932" lon="6.99541">
        <ele>167.1</ele>
        <time>2026-05-16T13:39:41Z</time>
      </trkpt>
      <trkpt lat="43.70921" lon="6.99554">
        <ele>165.9</ele>
        <time>2026-05-16T13:39:42Z</time>
      </trkpt>
      <trkpt lat="43.7091" lon="6.99565">
        <ele>164.4</ele>
        <time>2026-05-16T13:39:43Z</time>
      </trkpt>
      <trkpt lat="43.70898" lon="6.99579">
        <ele>163.1</ele>
        <time>2026-05-16T13:39:44Z</time>
      </trkpt>
      <trkpt lat="43.70887" lon="6.99595">
        <ele>162.9</ele>
        <time>2026-05-16T13:39:45Z</time>
      </trkpt>
      <trkpt lat="43.70878" lon="6.99612">
        <ele>163.6</ele>
        <time>2026-05-16T13:39:46Z</time>
      </trkpt>
      <trkpt lat="43.70867" lon="6.99628">
        <ele>163.4</ele>
        <time>2026-05-16T13:39:47Z</time>
      </trkpt>
      <trkpt lat="43.70857" lon="6.99643">
        <ele>164</ele>
        <time>2026-05-16T13:39:48Z</time>
      </trkpt>
      <trkpt lat="43.70846" lon="6.99656">
        <ele>164.5</ele>
        <time>2026-05-16T13:39:49Z</time>
      </trkpt>
      <trkpt lat="43.70834" lon="6.99669">
        <ele>164.8</ele>
        <time>2026-05-16T13:39:50Z</time>
      </trkpt>
      <trkpt lat="43.7082" lon="6.99681">
        <ele>164.8</ele>
        <time>2026-05-16T13:39:51Z</time>
      </trkpt>
      <trkpt lat="43.70807" lon="6.99692">
        <ele>164.7</ele>
        <time>2026-05-16T13:39:52Z</time>
      </trkpt>
      <trkpt lat="43.70794" lon="6.99703">
        <ele>165.1</ele>
        <time>2026-05-16T13:39:53Z</time>
      </trkpt>
      <trkpt lat="43.70781" lon="6.99714">
        <ele>164.7</ele>
        <time>2026-05-16T13:39:54Z</time>
      </trkpt>
      <trkpt lat="43.70769" lon="6.99728">
        <ele>164.6</ele>
        <time>2026-05-16T13:39:55Z</time>
      </trkpt>
      <trkpt lat="43.70757" lon="6.9974">
        <ele>163</ele>
        <time>2026-05-16T13:39:56Z</time>
      </trkpt>
      <trkpt lat="43.70746" lon="6.99757">
        <ele>161.7</ele>
        <time>2026-05-16T13:39:57Z</time>
      </trkpt>
      <trkpt lat="43.70738" lon="6.99776">
        <ele>161.9</ele>
        <time>2026-05-16T13:39:58Z</time>
      </trkpt>
      <trkpt lat="43.7073" lon="6.99794">
        <ele>161.1</ele>
        <time>2026-05-16T13:39:59Z</time>
      </trkpt>
      <trkpt lat="43.70722" lon="6.9981">
        <ele>160.4</ele>
        <time>2026-05-16T13:40:00Z</time>
      </trkpt>
      <trkpt lat="43.70714" lon="6.99827">
        <ele>159.7</ele>
        <time>2026-05-16T13:40:01Z</time>
      </trkpt>
      <trkpt lat="43.70708" lon="6.99845">
        <ele>159.7</ele>
        <time>2026-05-16T13:40:02Z</time>
      </trkpt>
      <trkpt lat="43.70704" lon="6.99863">
        <ele>160.3</ele>
        <time>2026-05-16T13:40:03Z</time>
      </trkpt>
      <trkpt lat="43.707" lon="6.9988">
        <ele>160.7</ele>
        <time>2026-05-16T13:40:04Z</time>
      </trkpt>
      <trkpt lat="43.70696" lon="6.99897">
        <ele>161.3</ele>
        <time>2026-05-16T13:40:05Z</time>
      </trkpt>
      <trkpt lat="43.70691" lon="6.99912">
        <ele>161.4</ele>
        <time>2026-05-16T13:40:06Z</time>
      </trkpt>
      <trkpt lat="43.70682" lon="6.99925">
        <ele>161.1</ele>
        <time>2026-05-16T13:40:07Z</time>
      </trkpt>
      <trkpt lat="43.70673" lon="6.99937">
        <ele>161</ele>
        <time>2026-05-16T13:40:08Z</time>
      </trkpt>
      <trkpt lat="43.70663" lon="6.99949">
        <ele>161.2</ele>
        <time>2026-05-16T13:40:09Z</time>
      </trkpt>
      <trkpt lat="43.70652" lon="6.9996">
        <ele>161.5</ele>
        <time>2026-05-16T13:40:10Z</time>
      </trkpt>
      <trkpt lat="43.70643" lon="6.9997">
        <ele>162.3</ele>
        <time>2026-05-16T13:40:11Z</time>
      </trkpt>
      <trkpt lat="43.70634" lon="6.99981">
        <ele>163.6</ele>
        <time>2026-05-16T13:40:12Z</time>
      </trkpt>
      <trkpt lat="43.70624" lon="6.99989">
        <ele>163.2</ele>
        <time>2026-05-16T13:40:13Z</time>
      </trkpt>
      <trkpt lat="43.70614" lon="6.99997">
        <ele>162.3</ele>
        <time>2026-05-16T13:40:14Z</time>
      </trkpt>
      <trkpt lat="43.70602" lon="7.00001">
        <ele>161.2</ele>
        <time>2026-05-16T13:40:15Z</time>
      </trkpt>
      <trkpt lat="43.70589" lon="7.00005">
        <ele>160.8</ele>
        <time>2026-05-16T13:40:16Z</time>
      </trkpt>
      <trkpt lat="43.70577" lon="7.00009">
        <ele>160.8</ele>
        <time>2026-05-16T13:40:17Z</time>
      </trkpt>
      <trkpt lat="43.70565" lon="7.00015">
        <ele>161.1</ele>
        <time>2026-05-16T13:40:18Z</time>
      </trkpt>
      <trkpt lat="43.70554" lon="7.00024">
        <ele>161.1</ele>
        <time>2026-05-16T13:40:19Z</time>
      </trkpt>
      <trkpt lat="43.70544" lon="7.00037">
        <ele>161.1</ele>
        <time>2026-05-16T13:40:20Z</time>
      </trkpt>
      <trkpt lat="43.70536" lon="7.00051">
        <ele>161</ele>
        <time>2026-05-16T13:40:21Z</time>
      </trkpt>
      <trkpt lat="43.70528" lon="7.00067">
        <ele>159.9</ele>
        <time>2026-05-16T13:40:22Z</time>
      </trkpt>
      <trkpt lat="43.70518" lon="7.0008">
        <ele>159.2</ele>
        <time>2026-05-16T13:40:23Z</time>
      </trkpt>
      <trkpt lat="43.70507" lon="7.0009">
        <ele>159.7</ele>
        <time>2026-05-16T13:40:24Z</time>
      </trkpt>
      <trkpt lat="43.70495" lon="7.00092">
        <ele>159.1</ele>
        <time>2026-05-16T13:40:25Z</time>
      </trkpt>
      <trkpt lat="43.70482" lon="7.00091">
        <ele>158.5</ele>
        <time>2026-05-16T13:40:26Z</time>
      </trkpt>
      <trkpt lat="43.7047" lon="7.00087">
        <ele>157.1</ele>
        <time>2026-05-16T13:40:27Z</time>
      </trkpt>
      <trkpt lat="43.70458" lon="7.00084">
        <ele>156.2</ele>
        <time>2026-05-16T13:40:28Z</time>
      </trkpt>
      <trkpt lat="43.70446" lon="7.00082">
        <ele>155.6</ele>
        <time>2026-05-16T13:40:29Z</time>
      </trkpt>
      <trkpt lat="43.70435" lon="7.00079">
        <ele>154.8</ele>
        <time>2026-05-16T13:40:30Z</time>
      </trkpt>
      <trkpt lat="43.70424" lon="7.00078">
        <ele>154.6</ele>
        <time>2026-05-16T13:40:31Z</time>
      </trkpt>
      <trkpt lat="43.70413" lon="7.00078">
        <ele>154.4</ele>
        <time>2026-05-16T13:40:32Z</time>
      </trkpt>
      <trkpt lat="43.70403" lon="7.0008">
        <ele>154.2</ele>
        <time>2026-05-16T13:40:33Z</time>
      </trkpt>
      <trkpt lat="43.70393" lon="7.00083">
        <ele>154.2</ele>
        <time>2026-05-16T13:40:34Z</time>
      </trkpt>
      <trkpt lat="43.70383" lon="7.00089">
        <ele>153</ele>
        <time>2026-05-16T13:40:35Z</time>
      </trkpt>
      <trkpt lat="43.70373" lon="7.00098">
        <ele>151.5</ele>
        <time>2026-05-16T13:40:36Z</time>
      </trkpt>
      <trkpt lat="43.70364" lon="7.0011">
        <ele>151.6</ele>
        <time>2026-05-16T13:40:37Z</time>
      </trkpt>
      <trkpt lat="43.70357" lon="7.00124">
        <ele>152.3</ele>
        <time>2026-05-16T13:40:38Z</time>
      </trkpt>
      <trkpt lat="43.70351" lon="7.00141">
        <ele>152.9</ele>
        <time>2026-05-16T13:40:39Z</time>
      </trkpt>
      <trkpt lat="43.70345" lon="7.00158">
        <ele>152.3</ele>
        <time>2026-05-16T13:40:40Z</time>
      </trkpt>
      <trkpt lat="43.70339" lon="7.00176">
        <ele>151.7</ele>
        <time>2026-05-16T13:40:41Z</time>
      </trkpt>
      <trkpt lat="43.70334" lon="7.00193">
        <ele>152.1</ele>
        <time>2026-05-16T13:40:42Z</time>
      </trkpt>
      <trkpt lat="43.70329" lon="7.00209">
        <ele>152</ele>
        <time>2026-05-16T13:40:43Z</time>
      </trkpt>
      <trkpt lat="43.70324" lon="7.00224">
        <ele>151.8</ele>
        <time>2026-05-16T13:40:44Z</time>
      </trkpt>
      <trkpt lat="43.70317" lon="7.00237">
        <ele>151.9</ele>
        <time>2026-05-16T13:40:45Z</time>
      </trkpt>
      <trkpt lat="43.70309" lon="7.00246">
        <ele>151.8</ele>
        <time>2026-05-16T13:40:46Z</time>
      </trkpt>
      <trkpt lat="43.70299" lon="7.00252">
        <ele>151.9</ele>
        <time>2026-05-16T13:40:47Z</time>
      </trkpt>
      <trkpt lat="43.7029" lon="7.00258">
        <ele>152.3</ele>
        <time>2026-05-16T13:40:48Z</time>
      </trkpt>
      <trkpt lat="43.70282" lon="7.00261">
        <ele>152.3</ele>
        <time>2026-05-16T13:40:49Z</time>
      </trkpt>
      <trkpt lat="43.70274" lon="7.00266">
        <ele>152.5</ele>
        <time>2026-05-16T13:40:50Z</time>
      </trkpt>
      <trkpt lat="43.70267" lon="7.00272">
        <ele>152.6</ele>
        <time>2026-05-16T13:40:51Z</time>
      </trkpt>
      <trkpt lat="43.7026" lon="7.00279">
        <ele>152.6</ele>
        <time>2026-05-16T13:40:52Z</time>
      </trkpt>
      <trkpt lat="43.70254" lon="7.00286">
        <ele>152.5</ele>
        <time>2026-05-16T13:40:53Z</time>
      </trkpt>
      <trkpt lat="43.70248" lon="7.00293">
        <ele>152.3</ele>
        <time>2026-05-16T13:40:54Z</time>
      </trkpt>
      <trkpt lat="43.70242" lon="7.00301">
        <ele>152.1</ele>
        <time>2026-05-16T13:40:55Z</time>
      </trkpt>
      <trkpt lat="43.70236" lon="7.00311">
        <ele>152.1</ele>
        <time>2026-05-16T13:40:56Z</time>
      </trkpt>
      <trkpt lat="43.70229" lon="7.00321">
        <ele>151.9</ele>
        <time>2026-05-16T13:40:57Z</time>
      </trkpt>
      <trkpt lat="43.70221" lon="7.0033">
        <ele>151.4</ele>
        <time>2026-05-16T13:40:58Z</time>
      </trkpt>
      <trkpt lat="43.70214" lon="7.00341">
        <ele>151.3</ele>
        <time>2026-05-16T13:40:59Z</time>
      </trkpt>
      <trkpt lat="43.70208" lon="7.00352">
        <ele>151.1</ele>
        <time>2026-05-16T13:41:00Z</time>
      </trkpt>
      <trkpt lat="43.70202" lon="7.00363">
        <ele>150.9</ele>
        <time>2026-05-16T13:41:01Z</time>
      </trkpt>
      <trkpt lat="43.70196" lon="7.00374">
        <ele>151.2</ele>
        <time>2026-05-16T13:41:02Z</time>
      </trkpt>
      <trkpt lat="43.70191" lon="7.00385">
        <ele>151.5</ele>
        <time>2026-05-16T13:41:03Z</time>
      </trkpt>
      <trkpt lat="43.70187" lon="7.00395">
        <ele>151.8</ele>
        <time>2026-05-16T13:41:04Z</time>
      </trkpt>
      <trkpt lat="43.70182" lon="7.00405">
        <ele>151.8</ele>
        <time>2026-05-16T13:41:05Z</time>
      </trkpt>
      <trkpt lat="43.70177" lon="7.00415">
        <ele>151.5</ele>
        <time>2026-05-16T13:41:06Z</time>
      </trkpt>
      <trkpt lat="43.70173" lon="7.00425">
        <ele>151.5</ele>
        <time>2026-05-16T13:41:07Z</time>
      </trkpt>
      <trkpt lat="43.70168" lon="7.00435">
        <ele>151.1</ele>
        <time>2026-05-16T13:41:08Z</time>
      </trkpt>
      <trkpt lat="43.70162" lon="7.00445">
        <ele>150.9</ele>
        <time>2026-05-16T13:41:09Z</time>
      </trkpt>
      <trkpt lat="43.70155" lon="7.00457">
        <ele>150.9</ele>
        <time>2026-05-16T13:41:10Z</time>
      </trkpt>
      <trkpt lat="43.70147" lon="7.00469">
        <ele>150.6</ele>
        <time>2026-05-16T13:41:11Z</time>
      </trkpt>
      <trkpt lat="43.70139" lon="7.00483">
        <ele>151.7</ele>
        <time>2026-05-16T13:41:12Z</time>
      </trkpt>
      <trkpt lat="43.70131" lon="7.00496">
        <ele>152.6</ele>
        <time>2026-05-16T13:41:13Z</time>
      </trkpt>
      <trkpt lat="43.70123" lon="7.00509">
        <ele>152.1</ele>
        <time>2026-05-16T13:41:14Z</time>
      </trkpt>
      <trkpt lat="43.70114" lon="7.00524">
        <ele>150.7</ele>
        <time>2026-05-16T13:41:15Z</time>
      </trkpt>
      <trkpt lat="43.70105" lon="7.00538">
        <ele>150.1</ele>
        <time>2026-05-16T13:41:16Z</time>
      </trkpt>
      <trkpt lat="43.70096" lon="7.00554">
        <ele>150.4</ele>
        <time>2026-05-16T13:41:17Z</time>
      </trkpt>
      <trkpt lat="43.70087" lon="7.00568">
        <ele>150.4</ele>
        <time>2026-05-16T13:41:18Z</time>
      </trkpt>
      <trkpt lat="43.70079" lon="7.00581">
        <ele>150.3</ele>
        <time>2026-05-16T13:41:19Z</time>
      </trkpt>
      <trkpt lat="43.70071" lon="7.00594">
        <ele>150.5</ele>
        <time>2026-05-16T13:41:20Z</time>
      </trkpt>
      <trkpt lat="43.70062" lon="7.00607">
        <ele>150.8</ele>
        <time>2026-05-16T13:41:21Z</time>
      </trkpt>
      <trkpt lat="43.70055" lon="7.00619">
        <ele>151.2</ele>
        <time>2026-05-16T13:41:22Z</time>
      </trkpt>
      <trkpt lat="43.70048" lon="7.00632">
        <ele>150.9</ele>
        <time>2026-05-16T13:41:23Z</time>
      </trkpt>
      <trkpt lat="43.70041" lon="7.00645">
        <ele>150.6</ele>
        <time>2026-05-16T13:41:24Z</time>
      </trkpt>
      <trkpt lat="43.70035" lon="7.00658">
        <ele>151</ele>
        <time>2026-05-16T13:41:25Z</time>
      </trkpt>
      <trkpt lat="43.70029" lon="7.00671">
        <ele>151.1</ele>
        <time>2026-05-16T13:41:26Z</time>
      </trkpt>
      <trkpt lat="43.70023" lon="7.00684">
        <ele>150.9</ele>
        <time>2026-05-16T13:41:27Z</time>
      </trkpt>
      <trkpt lat="43.70018" lon="7.00698">
        <ele>150.9</ele>
        <time>2026-05-16T13:41:28Z</time>
      </trkpt>
      <trkpt lat="43.70012" lon="7.00712">
        <ele>150.5</ele>
        <time>2026-05-16T13:41:29Z</time>
      </trkpt>
      <trkpt lat="43.70007" lon="7.00727">
        <ele>150.3</ele>
        <time>2026-05-16T13:41:30Z</time>
      </trkpt>
      <trkpt lat="43.70001" lon="7.00742">
        <ele>149.5</ele>
        <time>2026-05-16T13:41:31Z</time>
      </trkpt>
      <trkpt lat="43.69993" lon="7.00757">
        <ele>149.6</ele>
        <time>2026-05-16T13:41:32Z</time>
      </trkpt>
      <trkpt lat="43.69984" lon="7.00768">
        <ele>149.4</ele>
        <time>2026-05-16T13:41:33Z</time>
      </trkpt>
      <trkpt lat="43.69973" lon="7.00778">
        <ele>149.1</ele>
        <time>2026-05-16T13:41:34Z</time>
      </trkpt>
      <trkpt lat="43.69962" lon="7.00787">
        <ele>148.9</ele>
        <time>2026-05-16T13:41:35Z</time>
      </trkpt>
      <trkpt lat="43.69951" lon="7.00797">
        <ele>148.8</ele>
        <time>2026-05-16T13:41:36Z</time>
      </trkpt>
      <trkpt lat="43.69942" lon="7.00807">
        <ele>148.9</ele>
        <time>2026-05-16T13:41:37Z</time>
      </trkpt>
      <trkpt lat="43.69933" lon="7.00818">
        <ele>148.9</ele>
        <time>2026-05-16T13:41:38Z</time>
      </trkpt>
      <trkpt lat="43.69925" lon="7.00832">
        <ele>149.1</ele>
        <time>2026-05-16T13:41:39Z</time>
      </trkpt>
      <trkpt lat="43.69918" lon="7.00844">
        <ele>149</ele>
        <time>2026-05-16T13:41:40Z</time>
      </trkpt>
      <trkpt lat="43.69912" lon="7.00857">
        <ele>149</ele>
        <time>2026-05-16T13:41:41Z</time>
      </trkpt>
      <trkpt lat="43.69906" lon="7.00871">
        <ele>149.4</ele>
        <time>2026-05-16T13:41:42Z</time>
      </trkpt>
      <trkpt lat="43.69901" lon="7.00884">
        <ele>149.8</ele>
        <time>2026-05-16T13:41:43Z</time>
      </trkpt>
      <trkpt lat="43.69895" lon="7.00897">
        <ele>149.4</ele>
        <time>2026-05-16T13:41:44Z</time>
      </trkpt>
      <trkpt lat="43.6989" lon="7.0091">
        <ele>149</ele>
        <time>2026-05-16T13:41:45Z</time>
      </trkpt>
      <trkpt lat="43.69887" lon="7.00925">
        <ele>148.9</ele>
        <time>2026-05-16T13:41:46Z</time>
      </trkpt>
      <trkpt lat="43.69884" lon="7.0094">
        <ele>148.8</ele>
        <time>2026-05-16T13:41:47Z</time>
      </trkpt>
      <trkpt lat="43.69883" lon="7.00956">
        <ele>148.4</ele>
        <time>2026-05-16T13:41:48Z</time>
      </trkpt>
      <trkpt lat="43.69883" lon="7.00973">
        <ele>147.9</ele>
        <time>2026-05-16T13:41:49Z</time>
      </trkpt>
      <trkpt lat="43.69885" lon="7.00989">
        <ele>147.7</ele>
        <time>2026-05-16T13:41:50Z</time>
      </trkpt>
      <trkpt lat="43.69887" lon="7.01005">
        <ele>147.5</ele>
        <time>2026-05-16T13:41:51Z</time>
      </trkpt>
      <trkpt lat="43.6989" lon="7.01021">
        <ele>147.5</ele>
        <time>2026-05-16T13:41:52Z</time>
      </trkpt>
      <trkpt lat="43.69892" lon="7.01037">
        <ele>147.9</ele>
        <time>2026-05-16T13:41:53Z</time>
      </trkpt>
      <trkpt lat="43.69894" lon="7.01053">
        <ele>148.6</ele>
        <time>2026-05-16T13:41:54Z</time>
      </trkpt>
      <trkpt lat="43.69894" lon="7.01069">
        <ele>149.7</ele>
        <time>2026-05-16T13:41:55Z</time>
      </trkpt>
      <trkpt lat="43.69893" lon="7.01084">
        <ele>150.5</ele>
        <time>2026-05-16T13:41:56Z</time>
      </trkpt>
      <trkpt lat="43.6989" lon="7.011">
        <ele>150.1</ele>
        <time>2026-05-16T13:41:57Z</time>
      </trkpt>
      <trkpt lat="43.69886" lon="7.01115">
        <ele>149.2</ele>
        <time>2026-05-16T13:41:58Z</time>
      </trkpt>
      <trkpt lat="43.69883" lon="7.01131">
        <ele>148.7</ele>
        <time>2026-05-16T13:41:59Z</time>
      </trkpt>
      <trkpt lat="43.69879" lon="7.01146">
        <ele>147.8</ele>
        <time>2026-05-16T13:42:00Z</time>
      </trkpt>
      <trkpt lat="43.69876" lon="7.01161">
        <ele>147.2</ele>
        <time>2026-05-16T13:42:01Z</time>
      </trkpt>
      <trkpt lat="43.69873" lon="7.01175">
        <ele>146.6</ele>
        <time>2026-05-16T13:42:02Z</time>
      </trkpt>
      <trkpt lat="43.6987" lon="7.0119">
        <ele>145.9</ele>
        <time>2026-05-16T13:42:03Z</time>
      </trkpt>
      <trkpt lat="43.69867" lon="7.01204">
        <ele>145.5</ele>
        <time>2026-05-16T13:42:04Z</time>
      </trkpt>
      <trkpt lat="43.69864" lon="7.01218">
        <ele>145.1</ele>
        <time>2026-05-16T13:42:05Z</time>
      </trkpt>
      <trkpt lat="43.69861" lon="7.01232">
        <ele>145</ele>
        <time>2026-05-16T13:42:06Z</time>
      </trkpt>
      <trkpt lat="43.69858" lon="7.01245">
        <ele>145.3</ele>
        <time>2026-05-16T13:42:07Z</time>
      </trkpt>
      <trkpt lat="43.69855" lon="7.01256">
        <ele>145</ele>
        <time>2026-05-16T13:42:08Z</time>
      </trkpt>
      <trkpt lat="43.69853" lon="7.01267">
        <ele>144.8</ele>
        <time>2026-05-16T13:42:09Z</time>
      </trkpt>
      <trkpt lat="43.6985" lon="7.01277">
        <ele>144.2</ele>
        <time>2026-05-16T13:42:10Z</time>
      </trkpt>
      <trkpt lat="43.69848" lon="7.01287">
        <ele>143.8</ele>
        <time>2026-05-16T13:42:11Z</time>
      </trkpt>
      <trkpt lat="43.69846" lon="7.01298">
        <ele>143.5</ele>
        <time>2026-05-16T13:42:12Z</time>
      </trkpt>
      <trkpt lat="43.69844" lon="7.01309">
        <ele>143.1</ele>
        <time>2026-05-16T13:42:13Z</time>
      </trkpt>
      <trkpt lat="43.69842" lon="7.01322">
        <ele>142.5</ele>
        <time>2026-05-16T13:42:14Z</time>
      </trkpt>
      <trkpt lat="43.69841" lon="7.01336">
        <ele>142.3</ele>
        <time>2026-05-16T13:42:15Z</time>
      </trkpt>
      <trkpt lat="43.6984" lon="7.0135">
        <ele>141.7</ele>
        <time>2026-05-16T13:42:16Z</time>
      </trkpt>
      <trkpt lat="43.6984" lon="7.01365">
        <ele>141.6</ele>
        <time>2026-05-16T13:42:17Z</time>
      </trkpt>
      <trkpt lat="43.6984" lon="7.0138">
        <ele>141.3</ele>
        <time>2026-05-16T13:42:18Z</time>
      </trkpt>
      <trkpt lat="43.6984" lon="7.01394">
        <ele>141.2</ele>
        <time>2026-05-16T13:42:19Z</time>
      </trkpt>
      <trkpt lat="43.6984" lon="7.01408">
        <ele>141.2</ele>
        <time>2026-05-16T13:42:20Z</time>
      </trkpt>
      <trkpt lat="43.6984" lon="7.01422">
        <ele>141.5</ele>
        <time>2026-05-16T13:42:21Z</time>
      </trkpt>
      <trkpt lat="43.6984" lon="7.01435">
        <ele>142.3</ele>
        <time>2026-05-16T13:42:22Z</time>
      </trkpt>
      <trkpt lat="43.69838" lon="7.01447">
        <ele>142.1</ele>
        <time>2026-05-16T13:42:23Z</time>
      </trkpt>
      <trkpt lat="43.69837" lon="7.01459">
        <ele>142.2</ele>
        <time>2026-05-16T13:42:24Z</time>
      </trkpt>
      <trkpt lat="43.69836" lon="7.0147">
        <ele>142.2</ele>
        <time>2026-05-16T13:42:25Z</time>
      </trkpt>
      <trkpt lat="43.69835" lon="7.01482">
        <ele>142.2</ele>
        <time>2026-05-16T13:42:26Z</time>
      </trkpt>
      <trkpt lat="43.69833" lon="7.01495">
        <ele>141.7</ele>
        <time>2026-05-16T13:42:27Z</time>
      </trkpt>
      <trkpt lat="43.69833" lon="7.01509">
        <ele>141.8</ele>
        <time>2026-05-16T13:42:28Z</time>
      </trkpt>
      <trkpt lat="43.69831" lon="7.01524">
        <ele>140.8</ele>
        <time>2026-05-16T13:42:29Z</time>
      </trkpt>
      <trkpt lat="43.6983" lon="7.01539">
        <ele>140.2</ele>
        <time>2026-05-16T13:42:30Z</time>
      </trkpt>
      <trkpt lat="43.69829" lon="7.01554">
        <ele>139.4</ele>
        <time>2026-05-16T13:42:31Z</time>
      </trkpt>
      <trkpt lat="43.69829" lon="7.01569">
        <ele>138.9</ele>
        <time>2026-05-16T13:42:32Z</time>
      </trkpt>
      <trkpt lat="43.69828" lon="7.01585">
        <ele>137.9</ele>
        <time>2026-05-16T13:42:33Z</time>
      </trkpt>
      <trkpt lat="43.69828" lon="7.016">
        <ele>137.9</ele>
        <time>2026-05-16T13:42:34Z</time>
      </trkpt>
      <trkpt lat="43.69828" lon="7.01616">
        <ele>138.1</ele>
        <time>2026-05-16T13:42:35Z</time>
      </trkpt>
      <trkpt lat="43.69828" lon="7.01633">
        <ele>138.9</ele>
        <time>2026-05-16T13:42:36Z</time>
      </trkpt>
      <trkpt lat="43.69827" lon="7.0165">
        <ele>138.9</ele>
        <time>2026-05-16T13:42:37Z</time>
      </trkpt>
      <trkpt lat="43.69825" lon="7.01666">
        <ele>138.4</ele>
        <time>2026-05-16T13:42:38Z</time>
      </trkpt>
      <trkpt lat="43.69821" lon="7.01682">
        <ele>137.5</ele>
        <time>2026-05-16T13:42:39Z</time>
      </trkpt>
      <trkpt lat="43.69815" lon="7.01697">
        <ele>136</ele>
        <time>2026-05-16T13:42:40Z</time>
      </trkpt>
      <trkpt lat="43.69809" lon="7.0171">
        <ele>135</ele>
        <time>2026-05-16T13:42:41Z</time>
      </trkpt>
      <trkpt lat="43.69802" lon="7.01722">
        <ele>133.8</ele>
        <time>2026-05-16T13:42:42Z</time>
      </trkpt>
      <trkpt lat="43.69794" lon="7.01734">
        <ele>132.3</ele>
        <time>2026-05-16T13:42:43Z</time>
      </trkpt>
      <trkpt lat="43.69789" lon="7.01747">
        <ele>132</ele>
        <time>2026-05-16T13:42:44Z</time>
      </trkpt>
      <trkpt lat="43.69785" lon="7.01761">
        <ele>131.5</ele>
        <time>2026-05-16T13:42:45Z</time>
      </trkpt>
      <trkpt lat="43.69782" lon="7.01775">
        <ele>131.1</ele>
        <time>2026-05-16T13:42:46Z</time>
      </trkpt>
      <trkpt lat="43.6978" lon="7.01791">
        <ele>130.6</ele>
        <time>2026-05-16T13:42:47Z</time>
      </trkpt>
      <trkpt lat="43.69778" lon="7.01807">
        <ele>130</ele>
        <time>2026-05-16T13:42:48Z</time>
      </trkpt>
      <trkpt lat="43.69777" lon="7.01823">
        <ele>129.2</ele>
        <time>2026-05-16T13:42:49Z</time>
      </trkpt>
      <trkpt lat="43.69777" lon="7.01839">
        <ele>128.2</ele>
        <time>2026-05-16T13:42:50Z</time>
      </trkpt>
      <trkpt lat="43.69778" lon="7.01856">
        <ele>126.6</ele>
        <time>2026-05-16T13:42:51Z</time>
      </trkpt>
      <trkpt lat="43.6978" lon="7.01872">
        <ele>126</ele>
        <time>2026-05-16T13:42:52Z</time>
      </trkpt>
      <trkpt lat="43.69782" lon="7.01889">
        <ele>125.5</ele>
        <time>2026-05-16T13:42:53Z</time>
      </trkpt>
      <trkpt lat="43.69785" lon="7.01907">
        <ele>125.8</ele>
        <time>2026-05-16T13:42:54Z</time>
      </trkpt>
      <trkpt lat="43.69787" lon="7.01925">
        <ele>125.5</ele>
        <time>2026-05-16T13:42:55Z</time>
      </trkpt>
      <trkpt lat="43.69789" lon="7.01942">
        <ele>125.2</ele>
        <time>2026-05-16T13:42:56Z</time>
      </trkpt>
      <trkpt lat="43.69792" lon="7.0196">
        <ele>126.1</ele>
        <time>2026-05-16T13:42:57Z</time>
      </trkpt>
      <trkpt lat="43.69794" lon="7.01978">
        <ele>126.6</ele>
        <time>2026-05-16T13:42:58Z</time>
      </trkpt>
      <trkpt lat="43.69796" lon="7.01997">
        <ele>126.9</ele>
        <time>2026-05-16T13:42:59Z</time>
      </trkpt>
      <trkpt lat="43.69799" lon="7.02016">
        <ele>127.2</ele>
        <time>2026-05-16T13:43:00Z</time>
      </trkpt>
      <trkpt lat="43.69802" lon="7.02035">
        <ele>127</ele>
        <time>2026-05-16T13:43:01Z</time>
      </trkpt>
      <trkpt lat="43.69805" lon="7.02055">
        <ele>125.9</ele>
        <time>2026-05-16T13:43:02Z</time>
      </trkpt>
      <trkpt lat="43.69809" lon="7.02074">
        <ele>125.7</ele>
        <time>2026-05-16T13:43:03Z</time>
      </trkpt>
      <trkpt lat="43.69813" lon="7.02093">
        <ele>125.1</ele>
        <time>2026-05-16T13:43:04Z</time>
      </trkpt>
      <trkpt lat="43.69818" lon="7.02111">
        <ele>124.8</ele>
        <time>2026-05-16T13:43:05Z</time>
      </trkpt>
      <trkpt lat="43.69821" lon="7.0213">
        <ele>124.7</ele>
        <time>2026-05-16T13:43:06Z</time>
      </trkpt>
      <trkpt lat="43.69824" lon="7.02148">
        <ele>125.3</ele>
        <time>2026-05-16T13:43:07Z</time>
      </trkpt>
      <trkpt lat="43.69827" lon="7.02166">
        <ele>126.6</ele>
        <time>2026-05-16T13:43:08Z</time>
      </trkpt>
      <trkpt lat="43.69829" lon="7.0218">
        <ele>127.8</ele>
        <time>2026-05-16T13:43:09Z</time>
      </trkpt>
      <trkpt lat="43.69829" lon="7.02195">
        <ele>128.6</ele>
        <time>2026-05-16T13:43:10Z</time>
      </trkpt>
      <trkpt lat="43.69829" lon="7.02208">
        <ele>128.3</ele>
        <time>2026-05-16T13:43:11Z</time>
      </trkpt>
      <trkpt lat="43.6983" lon="7.02221">
        <ele>128.2</ele>
        <time>2026-05-16T13:43:12Z</time>
      </trkpt>
      <trkpt lat="43.69829" lon="7.02233">
        <ele>127.3</ele>
        <time>2026-05-16T13:43:13Z</time>
      </trkpt>
      <trkpt lat="43.69826" lon="7.02245">
        <ele>125.9</ele>
        <time>2026-05-16T13:43:14Z</time>
      </trkpt>
      <trkpt lat="43.69824" lon="7.02256">
        <ele>125.2</ele>
        <time>2026-05-16T13:43:15Z</time>
      </trkpt>
      <trkpt lat="43.69821" lon="7.02267">
        <ele>124.6</ele>
        <time>2026-05-16T13:43:16Z</time>
      </trkpt>
      <trkpt lat="43.6982" lon="7.02277">
        <ele>124.5</ele>
        <time>2026-05-16T13:43:17Z</time>
      </trkpt>
      <trkpt lat="43.69817" lon="7.02288">
        <ele>124</ele>
        <time>2026-05-16T13:43:18Z</time>
      </trkpt>
      <trkpt lat="43.69814" lon="7.023">
        <ele>123.2</ele>
        <time>2026-05-16T13:43:19Z</time>
      </trkpt>
      <trkpt lat="43.69812" lon="7.02315">
        <ele>121.9</ele>
        <time>2026-05-16T13:43:20Z</time>
      </trkpt>
      <trkpt lat="43.69812" lon="7.02331">
        <ele>120.6</ele>
        <time>2026-05-16T13:43:21Z</time>
      </trkpt>
      <trkpt lat="43.69811" lon="7.02347">
        <ele>118.4</ele>
        <time>2026-05-16T13:43:22Z</time>
      </trkpt>
      <trkpt lat="43.69813" lon="7.02364">
        <ele>117</ele>
        <time>2026-05-16T13:43:23Z</time>
      </trkpt>
      <trkpt lat="43.69816" lon="7.02381">
        <ele>116.8</ele>
        <time>2026-05-16T13:43:24Z</time>
      </trkpt>
      <trkpt lat="43.69819" lon="7.02397">
        <ele>117.1</ele>
        <time>2026-05-16T13:43:25Z</time>
      </trkpt>
      <trkpt lat="43.69824" lon="7.02413">
        <ele>118.1</ele>
        <time>2026-05-16T13:43:26Z</time>
      </trkpt>
      <trkpt lat="43.69828" lon="7.02428">
        <ele>118.7</ele>
        <time>2026-05-16T13:43:27Z</time>
      </trkpt>
      <trkpt lat="43.69832" lon="7.02442">
        <ele>118.9</ele>
        <time>2026-05-16T13:43:28Z</time>
      </trkpt>
      <trkpt lat="43.69836" lon="7.02456">
        <ele>119.5</ele>
        <time>2026-05-16T13:43:29Z</time>
      </trkpt>
      <trkpt lat="43.6984" lon="7.0247">
        <ele>120.3</ele>
        <time>2026-05-16T13:43:30Z</time>
      </trkpt>
      <trkpt lat="43.69844" lon="7.02483">
        <ele>120.4</ele>
        <time>2026-05-16T13:43:31Z</time>
      </trkpt>
      <trkpt lat="43.69847" lon="7.02496">
        <ele>119.6</ele>
        <time>2026-05-16T13:43:32Z</time>
      </trkpt>
      <trkpt lat="43.69851" lon="7.02511">
        <ele>118.7</ele>
        <time>2026-05-16T13:43:33Z</time>
      </trkpt>
      <trkpt lat="43.69856" lon="7.02525">
        <ele>118</ele>
        <time>2026-05-16T13:43:34Z</time>
      </trkpt>
      <trkpt lat="43.69861" lon="7.0254">
        <ele>117.2</ele>
        <time>2026-05-16T13:43:35Z</time>
      </trkpt>
      <trkpt lat="43.69865" lon="7.02556">
        <ele>116.6</ele>
        <time>2026-05-16T13:43:36Z</time>
      </trkpt>
      <trkpt lat="43.6987" lon="7.02571">
        <ele>116.8</ele>
        <time>2026-05-16T13:43:37Z</time>
      </trkpt>
      <trkpt lat="43.69876" lon="7.02586">
        <ele>117.1</ele>
        <time>2026-05-16T13:43:38Z</time>
      </trkpt>
      <trkpt lat="43.69882" lon="7.02601">
        <ele>117.3</ele>
        <time>2026-05-16T13:43:39Z</time>
      </trkpt>
      <trkpt lat="43.69889" lon="7.02615">
        <ele>116.5</ele>
        <time>2026-05-16T13:43:40Z</time>
      </trkpt>
      <trkpt lat="43.69896" lon="7.02628">
        <ele>117.4</ele>
        <time>2026-05-16T13:43:41Z</time>
      </trkpt>
      <trkpt lat="43.69903" lon="7.02642">
        <ele>117.7</ele>
        <time>2026-05-16T13:43:42Z</time>
      </trkpt>
      <trkpt lat="43.69911" lon="7.02654">
        <ele>117.9</ele>
        <time>2026-05-16T13:43:43Z</time>
      </trkpt>
      <trkpt lat="43.69918" lon="7.02666">
        <ele>116.6</ele>
        <time>2026-05-16T13:43:44Z</time>
      </trkpt>
      <trkpt lat="43.69926" lon="7.02676">
        <ele>117.1</ele>
        <time>2026-05-16T13:43:45Z</time>
      </trkpt>
      <trkpt lat="43.69932" lon="7.02687">
        <ele>116.5</ele>
        <time>2026-05-16T13:43:46Z</time>
      </trkpt>
      <trkpt lat="43.69941" lon="7.02696">
        <ele>116.8</ele>
        <time>2026-05-16T13:43:47Z</time>
      </trkpt>
      <trkpt lat="43.69948" lon="7.02705">
        <ele>116.5</ele>
        <time>2026-05-16T13:43:48Z</time>
      </trkpt>
      <trkpt lat="43.69956" lon="7.02714">
        <ele>116.4</ele>
        <time>2026-05-16T13:43:49Z</time>
      </trkpt>
      <trkpt lat="43.69964" lon="7.02722">
        <ele>116</ele>
        <time>2026-05-16T13:43:50Z</time>
      </trkpt>
      <trkpt lat="43.69971" lon="7.02731">
        <ele>115.6</ele>
        <time>2026-05-16T13:43:51Z</time>
      </trkpt>
      <trkpt lat="43.69979" lon="7.02738">
        <ele>115.7</ele>
        <time>2026-05-16T13:43:52Z</time>
      </trkpt>
      <trkpt lat="43.69987" lon="7.02746">
        <ele>115.4</ele>
        <time>2026-05-16T13:43:53Z</time>
      </trkpt>
      <trkpt lat="43.69994" lon="7.02755">
        <ele>114.9</ele>
        <time>2026-05-16T13:43:54Z</time>
      </trkpt>
      <trkpt lat="43.7" lon="7.02764">
        <ele>114</ele>
        <time>2026-05-16T13:43:55Z</time>
      </trkpt>
      <trkpt lat="43.70005" lon="7.02775">
        <ele>112.8</ele>
        <time>2026-05-16T13:43:56Z</time>
      </trkpt>
      <trkpt lat="43.70011" lon="7.02784">
        <ele>113.2</ele>
        <time>2026-05-16T13:43:57Z</time>
      </trkpt>
      <trkpt lat="43.70016" lon="7.02794">
        <ele>113.5</ele>
        <time>2026-05-16T13:43:58Z</time>
      </trkpt>
      <trkpt lat="43.70023" lon="7.02804">
        <ele>114.1</ele>
        <time>2026-05-16T13:43:59Z</time>
      </trkpt>
      <trkpt lat="43.70029" lon="7.02816">
        <ele>114.4</ele>
        <time>2026-05-16T13:44:00Z</time>
      </trkpt>
      <trkpt lat="43.70034" lon="7.02827">
        <ele>115.7</ele>
        <time>2026-05-16T13:44:01Z</time>
      </trkpt>
      <trkpt lat="43.70037" lon="7.02839">
        <ele>116.2</ele>
        <time>2026-05-16T13:44:02Z</time>
      </trkpt>
      <trkpt lat="43.70038" lon="7.02851">
        <ele>115.9</ele>
        <time>2026-05-16T13:44:03Z</time>
      </trkpt>
      <trkpt lat="43.70038" lon="7.02864">
        <ele>115.1</ele>
        <time>2026-05-16T13:44:04Z</time>
      </trkpt>
      <trkpt lat="43.70036" lon="7.02878">
        <ele>114</ele>
        <time>2026-05-16T13:44:05Z</time>
      </trkpt>
      <trkpt lat="43.70034" lon="7.02892">
        <ele>113</ele>
        <time>2026-05-16T13:44:06Z</time>
      </trkpt>
      <trkpt lat="43.70032" lon="7.02907">
        <ele>112.6</ele>
        <time>2026-05-16T13:44:07Z</time>
      </trkpt>
      <trkpt lat="43.70029" lon="7.02922">
        <ele>111.8</ele>
        <time>2026-05-16T13:44:08Z</time>
      </trkpt>
      <trkpt lat="43.70027" lon="7.02937">
        <ele>111.7</ele>
        <time>2026-05-16T13:44:09Z</time>
      </trkpt>
      <trkpt lat="43.70028" lon="7.02952">
        <ele>111.8</ele>
        <time>2026-05-16T13:44:10Z</time>
      </trkpt>
      <trkpt lat="43.7003" lon="7.02967">
        <ele>112.1</ele>
        <time>2026-05-16T13:44:11Z</time>
      </trkpt>
      <trkpt lat="43.70031" lon="7.02981">
        <ele>111.8</ele>
        <time>2026-05-16T13:44:12Z</time>
      </trkpt>
      <trkpt lat="43.70033" lon="7.02995">
        <ele>111.6</ele>
        <time>2026-05-16T13:44:13Z</time>
      </trkpt>
      <trkpt lat="43.70036" lon="7.03009">
        <ele>111.4</ele>
        <time>2026-05-16T13:44:14Z</time>
      </trkpt>
      <trkpt lat="43.70039" lon="7.03024">
        <ele>111.1</ele>
        <time>2026-05-16T13:44:15Z</time>
      </trkpt>
      <trkpt lat="43.70042" lon="7.03039">
        <ele>111.1</ele>
        <time>2026-05-16T13:44:16Z</time>
      </trkpt>
      <trkpt lat="43.70047" lon="7.03054">
        <ele>111.8</ele>
        <time>2026-05-16T13:44:17Z</time>
      </trkpt>
      <trkpt lat="43.70053" lon="7.03068">
        <ele>113.3</ele>
        <time>2026-05-16T13:44:18Z</time>
      </trkpt>
      <trkpt lat="43.70056" lon="7.03084">
        <ele>113.2</ele>
        <time>2026-05-16T13:44:19Z</time>
      </trkpt>
      <trkpt lat="43.70058" lon="7.03099">
        <ele>112.9</ele>
        <time>2026-05-16T13:44:20Z</time>
      </trkpt>
      <trkpt lat="43.70061" lon="7.03115">
        <ele>113.2</ele>
        <time>2026-05-16T13:44:21Z</time>
      </trkpt>
      <trkpt lat="43.70064" lon="7.03131">
        <ele>114</ele>
        <time>2026-05-16T13:44:22Z</time>
      </trkpt>
      <trkpt lat="43.70065" lon="7.03147">
        <ele>113.3</ele>
        <time>2026-05-16T13:44:23Z</time>
      </trkpt>
      <trkpt lat="43.70067" lon="7.03162">
        <ele>113.1</ele>
        <time>2026-05-16T13:44:24Z</time>
      </trkpt>
      <trkpt lat="43.7007" lon="7.03177">
        <ele>113.2</ele>
        <time>2026-05-16T13:44:25Z</time>
      </trkpt>
      <trkpt lat="43.70072" lon="7.03191">
        <ele>112.7</ele>
        <time>2026-05-16T13:44:26Z</time>
      </trkpt>
      <trkpt lat="43.70073" lon="7.03206">
        <ele>112</ele>
        <time>2026-05-16T13:44:27Z</time>
      </trkpt>
      <trkpt lat="43.70075" lon="7.0322">
        <ele>111.9</ele>
        <time>2026-05-16T13:44:28Z</time>
      </trkpt>
      <trkpt lat="43.70078" lon="7.03234">
        <ele>111.8</ele>
        <time>2026-05-16T13:44:29Z</time>
      </trkpt>
      <trkpt lat="43.70081" lon="7.03249">
        <ele>110.8</ele>
        <time>2026-05-16T13:44:30Z</time>
      </trkpt>
      <trkpt lat="43.70084" lon="7.03263">
        <ele>109.9</ele>
        <time>2026-05-16T13:44:31Z</time>
      </trkpt>
      <trkpt lat="43.70086" lon="7.03279">
        <ele>109.1</ele>
        <time>2026-05-16T13:44:32Z</time>
      </trkpt>
      <trkpt lat="43.7009" lon="7.03295">
        <ele>109.6</ele>
        <time>2026-05-16T13:44:33Z</time>
      </trkpt>
      <trkpt lat="43.70093" lon="7.03311">
        <ele>109.9</ele>
        <time>2026-05-16T13:44:34Z</time>
      </trkpt>
      <trkpt lat="43.70095" lon="7.03327">
        <ele>110.1</ele>
        <time>2026-05-16T13:44:35Z</time>
      </trkpt>
      <trkpt lat="43.70099" lon="7.03344">
        <ele>111.9</ele>
        <time>2026-05-16T13:44:36Z</time>
      </trkpt>
      <trkpt lat="43.70102" lon="7.03361">
        <ele>113.1</ele>
        <time>2026-05-16T13:44:37Z</time>
      </trkpt>
      <trkpt lat="43.70104" lon="7.03377">
        <ele>113.5</ele>
        <time>2026-05-16T13:44:38Z</time>
      </trkpt>
      <trkpt lat="43.70105" lon="7.03393">
        <ele>113.5</ele>
        <time>2026-05-16T13:44:39Z</time>
      </trkpt>
      <trkpt lat="43.70107" lon="7.03408">
        <ele>113.8</ele>
        <time>2026-05-16T13:44:40Z</time>
      </trkpt>
      <trkpt lat="43.70107" lon="7.03423">
        <ele>113.7</ele>
        <time>2026-05-16T13:44:41Z</time>
      </trkpt>
      <trkpt lat="43.70108" lon="7.03436">
        <ele>113.7</ele>
        <time>2026-05-16T13:44:42Z</time>
      </trkpt>
      <trkpt lat="43.70108" lon="7.0345">
        <ele>114.5</ele>
        <time>2026-05-16T13:44:43Z</time>
      </trkpt>
      <trkpt lat="43.70108" lon="7.03463">
        <ele>116.4</ele>
        <time>2026-05-16T13:44:44Z</time>
      </trkpt>
      <trkpt lat="43.70107" lon="7.03478">
        <ele>117.6</ele>
        <time>2026-05-16T13:44:45Z</time>
      </trkpt>
      <trkpt lat="43.70106" lon="7.03493">
        <ele>117.5</ele>
        <time>2026-05-16T13:44:46Z</time>
      </trkpt>
      <trkpt lat="43.70103" lon="7.03508">
        <ele>116.3</ele>
        <time>2026-05-16T13:44:47Z</time>
      </trkpt>
      <trkpt lat="43.70099" lon="7.03523">
        <ele>114.2</ele>
        <time>2026-05-16T13:44:48Z</time>
      </trkpt>
      <trkpt lat="43.70094" lon="7.03537">
        <ele>111.8</ele>
        <time>2026-05-16T13:44:49Z</time>
      </trkpt>
      <trkpt lat="43.70089" lon="7.03552">
        <ele>110.8</ele>
        <time>2026-05-16T13:44:50Z</time>
      </trkpt>
      <trkpt lat="43.70083" lon="7.03564">
        <ele>109.4</ele>
        <time>2026-05-16T13:44:51Z</time>
      </trkpt>
      <trkpt lat="43.70075" lon="7.03576">
        <ele>108.3</ele>
        <time>2026-05-16T13:44:52Z</time>
      </trkpt>
      <trkpt lat="43.70069" lon="7.03587">
        <ele>106.7</ele>
        <time>2026-05-16T13:44:53Z</time>
      </trkpt>
      <trkpt lat="43.70065" lon="7.03599">
        <ele>106.1</ele>
        <time>2026-05-16T13:44:54Z</time>
      </trkpt>
      <trkpt lat="43.70062" lon="7.03613">
        <ele>105.6</ele>
        <time>2026-05-16T13:44:55Z</time>
      </trkpt>
      <trkpt lat="43.70065" lon="7.03626">
        <ele>106.6</ele>
        <time>2026-05-16T13:44:56Z</time>
      </trkpt>
      <trkpt lat="43.70067" lon="7.0364">
        <ele>106.8</ele>
        <time>2026-05-16T13:44:57Z</time>
      </trkpt>
      <trkpt lat="43.70072" lon="7.03654">
        <ele>107.9</ele>
        <time>2026-05-16T13:44:58Z</time>
      </trkpt>
      <trkpt lat="43.70076" lon="7.03668">
        <ele>108.5</ele>
        <time>2026-05-16T13:44:59Z</time>
      </trkpt>
      <trkpt lat="43.70079" lon="7.03682">
        <ele>109.9</ele>
        <time>2026-05-16T13:45:00Z</time>
      </trkpt>
      <trkpt lat="43.70081" lon="7.03696">
        <ele>110.7</ele>
        <time>2026-05-16T13:45:01Z</time>
      </trkpt>
      <trkpt lat="43.70082" lon="7.0371">
        <ele>111.8</ele>
        <time>2026-05-16T13:45:02Z</time>
      </trkpt>
      <trkpt lat="43.70081" lon="7.03724">
        <ele>111.6</ele>
        <time>2026-05-16T13:45:03Z</time>
      </trkpt>
      <trkpt lat="43.70079" lon="7.03738">
        <ele>110.2</ele>
        <time>2026-05-16T13:45:04Z</time>
      </trkpt>
      <trkpt lat="43.70075" lon="7.03754">
        <ele>107.9</ele>
        <time>2026-05-16T13:45:05Z</time>
      </trkpt>
      <trkpt lat="43.70071" lon="7.0377">
        <ele>106.6</ele>
        <time>2026-05-16T13:45:06Z</time>
      </trkpt>
      <trkpt lat="43.70067" lon="7.03788">
        <ele>103.9</ele>
        <time>2026-05-16T13:45:07Z</time>
      </trkpt>
      <trkpt lat="43.70063" lon="7.03806">
        <ele>100.7</ele>
        <time>2026-05-16T13:45:08Z</time>
      </trkpt>
      <trkpt lat="43.70064" lon="7.03824">
        <ele>101.7</ele>
        <time>2026-05-16T13:45:09Z</time>
      </trkpt>
      <trkpt lat="43.70063" lon="7.03842">
        <ele>101.6</ele>
        <time>2026-05-16T13:45:10Z</time>
      </trkpt>
      <trkpt lat="43.70061" lon="7.03859">
        <ele>101.5</ele>
        <time>2026-05-16T13:45:11Z</time>
      </trkpt>
      <trkpt lat="43.70058" lon="7.03876">
        <ele>102.2</ele>
        <time>2026-05-16T13:45:12Z</time>
      </trkpt>
      <trkpt lat="43.70055" lon="7.03894">
        <ele>103.8</ele>
        <time>2026-05-16T13:45:13Z</time>
      </trkpt>
      <trkpt lat="43.70052" lon="7.0391">
        <ele>105.1</ele>
        <time>2026-05-16T13:45:14Z</time>
      </trkpt>
      <trkpt lat="43.70048" lon="7.03927">
        <ele>106.1</ele>
        <time>2026-05-16T13:45:15Z</time>
      </trkpt>
      <trkpt lat="43.70043" lon="7.03941">
        <ele>106.1</ele>
        <time>2026-05-16T13:45:16Z</time>
      </trkpt>
      <trkpt lat="43.70037" lon="7.03956">
        <ele>106.2</ele>
        <time>2026-05-16T13:45:17Z</time>
      </trkpt>
      <trkpt lat="43.7003" lon="7.03969">
        <ele>105.5</ele>
        <time>2026-05-16T13:45:18Z</time>
      </trkpt>
      <trkpt lat="43.70024" lon="7.03982">
        <ele>105.8</ele>
        <time>2026-05-16T13:45:19Z</time>
      </trkpt>
      <trkpt lat="43.70018" lon="7.03995">
        <ele>105.7</ele>
        <time>2026-05-16T13:45:20Z</time>
      </trkpt>
      <trkpt lat="43.70012" lon="7.04006">
        <ele>105.2</ele>
        <time>2026-05-16T13:45:21Z</time>
      </trkpt>
      <trkpt lat="43.70006" lon="7.04016">
        <ele>104.8</ele>
        <time>2026-05-16T13:45:22Z</time>
      </trkpt>
      <trkpt lat="43.70002" lon="7.04024">
        <ele>105</ele>
        <time>2026-05-16T13:45:23Z</time>
      </trkpt>
      <trkpt lat="43.69998" lon="7.04031">
        <ele>104.9</ele>
        <time>2026-05-16T13:45:24Z</time>
      </trkpt>
      <trkpt lat="43.69993" lon="7.04039">
        <ele>104.7</ele>
        <time>2026-05-16T13:45:25Z</time>
      </trkpt>
      <trkpt lat="43.69989" lon="7.04047">
        <ele>104.8</ele>
        <time>2026-05-16T13:45:26Z</time>
      </trkpt>
      <trkpt lat="43.69985" lon="7.04056">
        <ele>105.1</ele>
        <time>2026-05-16T13:45:27Z</time>
      </trkpt>
      <trkpt lat="43.69979" lon="7.04065">
        <ele>104.6</ele>
        <time>2026-05-16T13:45:28Z</time>
      </trkpt>
      <trkpt lat="43.69973" lon="7.04075">
        <ele>104.3</ele>
        <time>2026-05-16T13:45:29Z</time>
      </trkpt>
      <trkpt lat="43.69967" lon="7.04086">
        <ele>104.1</ele>
        <time>2026-05-16T13:45:30Z</time>
      </trkpt>
      <trkpt lat="43.69962" lon="7.04097">
        <ele>102.8</ele>
        <time>2026-05-16T13:45:31Z</time>
      </trkpt>
      <trkpt lat="43.69958" lon="7.04109">
        <ele>101.2</ele>
        <time>2026-05-16T13:45:32Z</time>
      </trkpt>
      <trkpt lat="43.69954" lon="7.04122">
        <ele>98.4</ele>
        <time>2026-05-16T13:45:33Z</time>
      </trkpt>
      <trkpt lat="43.6996" lon="7.04138">
        <ele>102.1</ele>
        <time>2026-05-16T13:45:34Z</time>
      </trkpt>
      <trkpt lat="43.69962" lon="7.04153">
        <ele>100.7</ele>
        <time>2026-05-16T13:45:35Z</time>
      </trkpt>
      <trkpt lat="43.69964" lon="7.04166">
        <ele>98.8</ele>
        <time>2026-05-16T13:45:36Z</time>
      </trkpt>
      <trkpt lat="43.69967" lon="7.04179">
        <ele>97.1</ele>
        <time>2026-05-16T13:45:37Z</time>
      </trkpt>
      <trkpt lat="43.69971" lon="7.04192">
        <ele>94.6</ele>
        <time>2026-05-16T13:45:38Z</time>
      </trkpt>
      <trkpt lat="43.69974" lon="7.04205">
        <ele>93.4</ele>
        <time>2026-05-16T13:45:39Z</time>
      </trkpt>
      <trkpt lat="43.69978" lon="7.04218">
        <ele>94.2</ele>
        <time>2026-05-16T13:45:40Z</time>
      </trkpt>
      <trkpt lat="43.69982" lon="7.04232">
        <ele>97.3</ele>
        <time>2026-05-16T13:45:41Z</time>
      </trkpt>
      <trkpt lat="43.69984" lon="7.04247">
        <ele>100.1</ele>
        <time>2026-05-16T13:45:42Z</time>
      </trkpt>
      <trkpt lat="43.69984" lon="7.04264">
        <ele>102.3</ele>
        <time>2026-05-16T13:45:43Z</time>
      </trkpt>
      <trkpt lat="43.69983" lon="7.04281">
        <ele>103.4</ele>
        <time>2026-05-16T13:45:44Z</time>
      </trkpt>
      <trkpt lat="43.6998" lon="7.04298">
        <ele>102</ele>
        <time>2026-05-16T13:45:45Z</time>
      </trkpt>
      <trkpt lat="43.69978" lon="7.04314">
        <ele>101.4</ele>
        <time>2026-05-16T13:45:46Z</time>
      </trkpt>
      <trkpt lat="43.69974" lon="7.04332">
        <ele>98.8</ele>
        <time>2026-05-16T13:45:47Z</time>
      </trkpt>
      <trkpt lat="43.69971" lon="7.0435">
        <ele>99.2</ele>
        <time>2026-05-16T13:45:48Z</time>
      </trkpt>
      <trkpt lat="43.69968" lon="7.04368">
        <ele>99.1</ele>
        <time>2026-05-16T13:45:49Z</time>
      </trkpt>
      <trkpt lat="43.69965" lon="7.04385">
        <ele>97.6</ele>
        <time>2026-05-16T13:45:50Z</time>
      </trkpt>
      <trkpt lat="43.69962" lon="7.04402">
        <ele>94.8</ele>
        <time>2026-05-16T13:45:51Z</time>
      </trkpt>
      <trkpt lat="43.69959" lon="7.04418">
        <ele>92.7</ele>
        <time>2026-05-16T13:45:52Z</time>
      </trkpt>
      <trkpt lat="43.69953" lon="7.04434">
        <ele>92.6</ele>
        <time>2026-05-16T13:45:53Z</time>
      </trkpt>
      <trkpt lat="43.69946" lon="7.04448">
        <ele>93.6</ele>
        <time>2026-05-16T13:45:54Z</time>
      </trkpt>
      <trkpt lat="43.69939" lon="7.04463">
        <ele>94.6</ele>
        <time>2026-05-16T13:45:55Z</time>
      </trkpt>
      <trkpt lat="43.69931" lon="7.04477">
        <ele>93.9</ele>
        <time>2026-05-16T13:45:56Z</time>
      </trkpt>
      <trkpt lat="43.69924" lon="7.04491">
        <ele>95.1</ele>
        <time>2026-05-16T13:45:57Z</time>
      </trkpt>
      <trkpt lat="43.69917" lon="7.04504">
        <ele>96.5</ele>
        <time>2026-05-16T13:45:58Z</time>
      </trkpt>
      <trkpt lat="43.69909" lon="7.04516">
        <ele>95.7</ele>
        <time>2026-05-16T13:45:59Z</time>
      </trkpt>
      <trkpt lat="43.69903" lon="7.04526">
        <ele>94.7</ele>
        <time>2026-05-16T13:46:00Z</time>
      </trkpt>
      <trkpt lat="43.69895" lon="7.04535">
        <ele>93.1</ele>
        <time>2026-05-16T13:46:01Z</time>
      </trkpt>
      <trkpt lat="43.69889" lon="7.04544">
        <ele>93.7</ele>
        <time>2026-05-16T13:46:02Z</time>
      </trkpt>
      <trkpt lat="43.69883" lon="7.04555">
        <ele>95</ele>
        <time>2026-05-16T13:46:03Z</time>
      </trkpt>
      <trkpt lat="43.69878" lon="7.04568">
        <ele>94.3</ele>
        <time>2026-05-16T13:46:04Z</time>
      </trkpt>
      <trkpt lat="43.69875" lon="7.04582">
        <ele>94.8</ele>
        <time>2026-05-16T13:46:05Z</time>
      </trkpt>
      <trkpt lat="43.69873" lon="7.04597">
        <ele>97.6</ele>
        <time>2026-05-16T13:46:06Z</time>
      </trkpt>
      <trkpt lat="43.6987" lon="7.0461">
        <ele>99.8</ele>
        <time>2026-05-16T13:46:07Z</time>
      </trkpt>
      <trkpt lat="43.69867" lon="7.04624">
        <ele>101.5</ele>
        <time>2026-05-16T13:46:08Z</time>
      </trkpt>
      <trkpt lat="43.69862" lon="7.04637">
        <ele>101.2</ele>
        <time>2026-05-16T13:46:09Z</time>
      </trkpt>
      <trkpt lat="43.69856" lon="7.04649">
        <ele>100</ele>
        <time>2026-05-16T13:46:10Z</time>
      </trkpt>
      <trkpt lat="43.6985" lon="7.04661">
        <ele>99.2</ele>
        <time>2026-05-16T13:46:11Z</time>
      </trkpt>
      <trkpt lat="43.69845" lon="7.04672">
        <ele>98.9</ele>
        <time>2026-05-16T13:46:12Z</time>
      </trkpt>
      <trkpt lat="43.69839" lon="7.04683">
        <ele>97.8</ele>
        <time>2026-05-16T13:46:13Z</time>
      </trkpt>
      <trkpt lat="43.69834" lon="7.04694">
        <ele>97.3</ele>
        <time>2026-05-16T13:46:14Z</time>
      </trkpt>
      <trkpt lat="43.69829" lon="7.04704">
        <ele>96.2</ele>
        <time>2026-05-16T13:46:15Z</time>
      </trkpt>
      <trkpt lat="43.69823" lon="7.04715">
        <ele>94</ele>
        <time>2026-05-16T13:46:16Z</time>
      </trkpt>
      <trkpt lat="43.69818" lon="7.04727">
        <ele>92.6</ele>
        <time>2026-05-16T13:46:17Z</time>
      </trkpt>
      <trkpt lat="43.69814" lon="7.04739">
        <ele>92.9</ele>
        <time>2026-05-16T13:46:18Z</time>
      </trkpt>
      <trkpt lat="43.69811" lon="7.04752">
        <ele>94.2</ele>
        <time>2026-05-16T13:46:19Z</time>
      </trkpt>
      <trkpt lat="43.69809" lon="7.04764">
        <ele>93</ele>
        <time>2026-05-16T13:46:20Z</time>
      </trkpt>
      <trkpt lat="43.69806" lon="7.04779">
        <ele>91.3</ele>
        <time>2026-05-16T13:46:21Z</time>
      </trkpt>
      <trkpt lat="43.69804" lon="7.04793">
        <ele>90.5</ele>
        <time>2026-05-16T13:46:22Z</time>
      </trkpt>
      <trkpt lat="43.69803" lon="7.04807">
        <ele>90.1</ele>
        <time>2026-05-16T13:46:23Z</time>
      </trkpt>
      <trkpt lat="43.69802" lon="7.04821">
        <ele>89.6</ele>
        <time>2026-05-16T13:46:24Z</time>
      </trkpt>
      <trkpt lat="43.69802" lon="7.04833">
        <ele>89.6</ele>
        <time>2026-05-16T13:46:25Z</time>
      </trkpt>
      <trkpt lat="43.69801" lon="7.04844">
        <ele>89.8</ele>
        <time>2026-05-16T13:46:26Z</time>
      </trkpt>
      <trkpt lat="43.698" lon="7.04854">
        <ele>90</ele>
        <time>2026-05-16T13:46:27Z</time>
      </trkpt>
      <trkpt lat="43.69799" lon="7.04866">
        <ele>90.3</ele>
        <time>2026-05-16T13:46:28Z</time>
      </trkpt>
      <trkpt lat="43.69798" lon="7.04877">
        <ele>90.7</ele>
        <time>2026-05-16T13:46:29Z</time>
      </trkpt>
      <trkpt lat="43.69797" lon="7.04889">
        <ele>91.1</ele>
        <time>2026-05-16T13:46:30Z</time>
      </trkpt>
      <trkpt lat="43.69796" lon="7.04901">
        <ele>91.8</ele>
        <time>2026-05-16T13:46:31Z</time>
      </trkpt>
      <trkpt lat="43.69795" lon="7.04913">
        <ele>92.3</ele>
        <time>2026-05-16T13:46:32Z</time>
      </trkpt>
      <trkpt lat="43.69793" lon="7.04925">
        <ele>93.5</ele>
        <time>2026-05-16T13:46:33Z</time>
      </trkpt>
      <trkpt lat="43.69789" lon="7.04938">
        <ele>93.9</ele>
        <time>2026-05-16T13:46:34Z</time>
      </trkpt>
      <trkpt lat="43.69785" lon="7.04951">
        <ele>95.2</ele>
        <time>2026-05-16T13:46:35Z</time>
      </trkpt>
      <trkpt lat="43.69779" lon="7.04964">
        <ele>96.2</ele>
        <time>2026-05-16T13:46:36Z</time>
      </trkpt>
      <trkpt lat="43.69773" lon="7.04977">
        <ele>97.1</ele>
        <time>2026-05-16T13:46:37Z</time>
      </trkpt>
      <trkpt lat="43.69766" lon="7.0499">
        <ele>96.6</ele>
        <time>2026-05-16T13:46:38Z</time>
      </trkpt>
      <trkpt lat="43.69759" lon="7.05002">
        <ele>95.6</ele>
        <time>2026-05-16T13:46:39Z</time>
      </trkpt>
      <trkpt lat="43.69752" lon="7.05013">
        <ele>93.6</ele>
        <time>2026-05-16T13:46:40Z</time>
      </trkpt>
      <trkpt lat="43.69744" lon="7.05024">
        <ele>91.8</ele>
        <time>2026-05-16T13:46:41Z</time>
      </trkpt>
      <trkpt lat="43.69737" lon="7.05033">
        <ele>89</ele>
        <time>2026-05-16T13:46:42Z</time>
      </trkpt>
      <trkpt lat="43.6973" lon="7.05043">
        <ele>86.2</ele>
        <time>2026-05-16T13:46:43Z</time>
      </trkpt>
      <trkpt lat="43.69724" lon="7.05054">
        <ele>84.6</ele>
        <time>2026-05-16T13:46:44Z</time>
      </trkpt>
      <trkpt lat="43.69723" lon="7.05066">
        <ele>83.6</ele>
        <time>2026-05-16T13:46:45Z</time>
      </trkpt>
      <trkpt lat="43.69724" lon="7.05078">
        <ele>83.1</ele>
        <time>2026-05-16T13:46:46Z</time>
      </trkpt>
      <trkpt lat="43.69729" lon="7.05089">
        <ele>83.3</ele>
        <time>2026-05-16T13:46:47Z</time>
      </trkpt>
      <trkpt lat="43.69735" lon="7.05097">
        <ele>83.5</ele>
        <time>2026-05-16T13:46:48Z</time>
      </trkpt>
      <trkpt lat="43.69743" lon="7.05105">
        <ele>83.8</ele>
        <time>2026-05-16T13:46:49Z</time>
      </trkpt>
      <trkpt lat="43.69753" lon="7.05111">
        <ele>85</ele>
        <time>2026-05-16T13:46:50Z</time>
      </trkpt>
      <trkpt lat="43.69762" lon="7.05117">
        <ele>85.9</ele>
        <time>2026-05-16T13:46:51Z</time>
      </trkpt>
      <trkpt lat="43.69773" lon="7.05123">
        <ele>86.3</ele>
        <time>2026-05-16T13:46:52Z</time>
      </trkpt>
      <trkpt lat="43.69783" lon="7.0513">
        <ele>86.7</ele>
        <time>2026-05-16T13:46:53Z</time>
      </trkpt>
      <trkpt lat="43.69791" lon="7.05138">
        <ele>87</ele>
        <time>2026-05-16T13:46:54Z</time>
      </trkpt>
      <trkpt lat="43.69799" lon="7.05148">
        <ele>88.2</ele>
        <time>2026-05-16T13:46:55Z</time>
      </trkpt>
      <trkpt lat="43.69805" lon="7.05158">
        <ele>87.6</ele>
        <time>2026-05-16T13:46:56Z</time>
      </trkpt>
      <trkpt lat="43.69811" lon="7.0517">
        <ele>88.3</ele>
        <time>2026-05-16T13:46:57Z</time>
      </trkpt>
      <trkpt lat="43.69814" lon="7.05182">
        <ele>88.2</ele>
        <time>2026-05-16T13:46:58Z</time>
      </trkpt>
      <trkpt lat="43.69817" lon="7.05196">
        <ele>87.9</ele>
        <time>2026-05-16T13:46:59Z</time>
      </trkpt>
      <trkpt lat="43.69818" lon="7.05211">
        <ele>89.4</ele>
        <time>2026-05-16T13:47:00Z</time>
      </trkpt>
      <trkpt lat="43.69818" lon="7.05225">
        <ele>90.7</ele>
        <time>2026-05-16T13:47:01Z</time>
      </trkpt>
      <trkpt lat="43.69815" lon="7.05237">
        <ele>91.7</ele>
        <time>2026-05-16T13:47:02Z</time>
      </trkpt>
      <trkpt lat="43.69812" lon="7.05246">
        <ele>91.8</ele>
        <time>2026-05-16T13:47:03Z</time>
      </trkpt>
      <trkpt lat="43.69809" lon="7.05253">
        <ele>91.7</ele>
        <time>2026-05-16T13:47:04Z</time>
      </trkpt>
      <trkpt lat="43.69807" lon="7.0526">
        <ele>92.7</ele>
        <time>2026-05-16T13:47:05Z</time>
      </trkpt>
      <trkpt lat="43.69805" lon="7.05265">
        <ele>93.1</ele>
        <time>2026-05-16T13:47:06Z</time>
      </trkpt>
      <trkpt lat="43.69803" lon="7.0527">
        <ele>93.8</ele>
        <time>2026-05-16T13:47:07Z</time>
      </trkpt>
      <trkpt lat="43.69802" lon="7.05275">
        <ele>94.9</ele>
        <time>2026-05-16T13:47:08Z</time>
      </trkpt>
      <trkpt lat="43.69801" lon="7.05279">
        <ele>95.7</ele>
        <time>2026-05-16T13:47:09Z</time>
      </trkpt>
      <trkpt lat="43.69798" lon="7.05283">
        <ele>95.5</ele>
        <time>2026-05-16T13:47:10Z</time>
      </trkpt>
      <trkpt lat="43.69795" lon="7.05287">
        <ele>95.4</ele>
        <time>2026-05-16T13:47:11Z</time>
      </trkpt>
      <trkpt lat="43.69792" lon="7.05292">
        <ele>95.8</ele>
        <time>2026-05-16T13:47:12Z</time>
      </trkpt>
      <trkpt lat="43.69788" lon="7.05295">
        <ele>95</ele>
        <time>2026-05-16T13:47:13Z</time>
      </trkpt>
      <trkpt lat="43.69784" lon="7.05299">
        <ele>94.8</ele>
        <time>2026-05-16T13:47:14Z</time>
      </trkpt>
      <trkpt lat="43.69779" lon="7.05304">
        <ele>94.8</ele>
        <time>2026-05-16T13:47:15Z</time>
      </trkpt>
      <trkpt lat="43.69775" lon="7.05307">
        <ele>94.6</ele>
        <time>2026-05-16T13:47:16Z</time>
      </trkpt>
      <trkpt lat="43.6977" lon="7.0531">
        <ele>94.2</ele>
        <time>2026-05-16T13:47:17Z</time>
      </trkpt>
      <trkpt lat="43.69766" lon="7.05311">
        <ele>93.2</ele>
        <time>2026-05-16T13:47:18Z</time>
      </trkpt>
      <trkpt lat="43.69762" lon="7.05312">
        <ele>92.2</ele>
        <time>2026-05-16T13:47:19Z</time>
      </trkpt>
      <trkpt lat="43.69758" lon="7.05314">
        <ele>91.7</ele>
        <time>2026-05-16T13:47:20Z</time>
      </trkpt>
      <trkpt lat="43.69755" lon="7.05316">
        <ele>91.6</ele>
        <time>2026-05-16T13:47:21Z</time>
      </trkpt>
      <trkpt lat="43.69753" lon="7.05319">
        <ele>92.3</ele>
        <time>2026-05-16T13:47:22Z</time>
      </trkpt>
      <trkpt lat="43.6975" lon="7.05322">
        <ele>92.7</ele>
        <time>2026-05-16T13:47:23Z</time>
      </trkpt>
      <trkpt lat="43.69747" lon="7.05326">
        <ele>93.9</ele>
        <time>2026-05-16T13:47:24Z</time>
      </trkpt>
      <trkpt lat="43.6974" lon="7.05329">
        <ele>93.8</ele>
        <time>2026-05-16T13:47:25Z</time>
      </trkpt>
      <trkpt lat="43.6973" lon="7.05329">
        <ele>91.5</ele>
        <time>2026-05-16T13:47:26Z</time>
      </trkpt>
      <trkpt lat="43.69722" lon="7.05331">
        <ele>90.8</ele>
        <time>2026-05-16T13:47:27Z</time>
      </trkpt>
      <trkpt lat="43.69716" lon="7.05331">
        <ele>90.4</ele>
        <time>2026-05-16T13:47:28Z</time>
      </trkpt>
      <trkpt lat="43.69709" lon="7.05332">
        <ele>90.4</ele>
        <time>2026-05-16T13:47:29Z</time>
      </trkpt>
      <trkpt lat="43.69702" lon="7.0533">
        <ele>89</ele>
        <time>2026-05-16T13:47:30Z</time>
      </trkpt>
      <trkpt lat="43.69695" lon="7.05328">
        <ele>87.5</ele>
        <time>2026-05-16T13:47:31Z</time>
      </trkpt>
      <trkpt lat="43.69689" lon="7.05326">
        <ele>86</ele>
        <time>2026-05-16T13:47:32Z</time>
      </trkpt>
      <trkpt lat="43.69682" lon="7.05323">
        <ele>84</ele>
        <time>2026-05-16T13:47:33Z</time>
      </trkpt>
      <trkpt lat="43.69675" lon="7.05319">
        <ele>81.9</ele>
        <time>2026-05-16T13:47:34Z</time>
      </trkpt>
      <trkpt lat="43.69668" lon="7.05318">
        <ele>81.1</ele>
        <time>2026-05-16T13:47:35Z</time>
      </trkpt>
      <trkpt lat="43.69661" lon="7.05318">
        <ele>79.7</ele>
        <time>2026-05-16T13:47:36Z</time>
      </trkpt>
      <trkpt lat="43.69654" lon="7.05322">
        <ele>78.8</ele>
        <time>2026-05-16T13:47:37Z</time>
      </trkpt>
      <trkpt lat="43.69649" lon="7.05328">
        <ele>78.3</ele>
        <time>2026-05-16T13:47:38Z</time>
      </trkpt>
      <trkpt lat="43.69649" lon="7.05337">
        <ele>79</ele>
        <time>2026-05-16T13:47:39Z</time>
      </trkpt>
      <trkpt lat="43.69649" lon="7.05347">
        <ele>78.9</ele>
        <time>2026-05-16T13:47:40Z</time>
      </trkpt>
      <trkpt lat="43.69653" lon="7.05359">
        <ele>80.6</ele>
        <time>2026-05-16T13:47:41Z</time>
      </trkpt>
      <trkpt lat="43.69657" lon="7.0537">
        <ele>81.2</ele>
        <time>2026-05-16T13:47:42Z</time>
      </trkpt>
      <trkpt lat="43.69663" lon="7.05381">
        <ele>81.6</ele>
        <time>2026-05-16T13:47:43Z</time>
      </trkpt>
      <trkpt lat="43.6967" lon="7.05394">
        <ele>81.6</ele>
        <time>2026-05-16T13:47:44Z</time>
      </trkpt>
      <trkpt lat="43.69677" lon="7.05408">
        <ele>81.8</ele>
        <time>2026-05-16T13:47:45Z</time>
      </trkpt>
      <trkpt lat="43.69685" lon="7.05422">
        <ele>83.1</ele>
        <time>2026-05-16T13:47:46Z</time>
      </trkpt>
      <trkpt lat="43.69692" lon="7.05436">
        <ele>82.3</ele>
        <time>2026-05-16T13:47:47Z</time>
      </trkpt>
      <trkpt lat="43.69699" lon="7.05451">
        <ele>81.4</ele>
        <time>2026-05-16T13:47:48Z</time>
      </trkpt>
      <trkpt lat="43.69706" lon="7.05466">
        <ele>82.1</ele>
        <time>2026-05-16T13:47:49Z</time>
      </trkpt>
      <trkpt lat="43.69711" lon="7.05481">
        <ele>82.5</ele>
        <time>2026-05-16T13:47:50Z</time>
      </trkpt>
      <trkpt lat="43.69716" lon="7.05496">
        <ele>82.4</ele>
        <time>2026-05-16T13:47:51Z</time>
      </trkpt>
      <trkpt lat="43.6972" lon="7.0551">
        <ele>80.9</ele>
        <time>2026-05-16T13:47:52Z</time>
      </trkpt>
      <trkpt lat="43.69725" lon="7.05523">
        <ele>80.2</ele>
        <time>2026-05-16T13:47:53Z</time>
      </trkpt>
      <trkpt lat="43.6973" lon="7.05535">
        <ele>81</ele>
        <time>2026-05-16T13:47:54Z</time>
      </trkpt>
      <trkpt lat="43.69734" lon="7.05547">
        <ele>81</ele>
        <time>2026-05-16T13:47:55Z</time>
      </trkpt>
      <trkpt lat="43.69739" lon="7.05558">
        <ele>82.1</ele>
        <time>2026-05-16T13:47:56Z</time>
      </trkpt>
      <trkpt lat="43.69743" lon="7.05569">
        <ele>82.3</ele>
        <time>2026-05-16T13:47:57Z</time>
      </trkpt>
      <trkpt lat="43.69748" lon="7.05581">
        <ele>81.2</ele>
        <time>2026-05-16T13:47:58Z</time>
      </trkpt>
      <trkpt lat="43.69753" lon="7.05592">
        <ele>81</ele>
        <time>2026-05-16T13:47:59Z</time>
      </trkpt>
      <trkpt lat="43.69758" lon="7.05603">
        <ele>82.2</ele>
        <time>2026-05-16T13:48:00Z</time>
      </trkpt>
      <trkpt lat="43.69763" lon="7.05614">
        <ele>83.8</ele>
        <time>2026-05-16T13:48:01Z</time>
      </trkpt>
      <trkpt lat="43.69767" lon="7.05626">
        <ele>85.4</ele>
        <time>2026-05-16T13:48:02Z</time>
      </trkpt>
      <trkpt lat="43.6977" lon="7.05638">
        <ele>86</ele>
        <time>2026-05-16T13:48:03Z</time>
      </trkpt>
      <trkpt lat="43.69771" lon="7.05652">
        <ele>85.3</ele>
        <time>2026-05-16T13:48:04Z</time>
      </trkpt>
      <trkpt lat="43.69771" lon="7.05666">
        <ele>83.9</ele>
        <time>2026-05-16T13:48:05Z</time>
      </trkpt>
      <trkpt lat="43.69772" lon="7.05681">
        <ele>84.6</ele>
        <time>2026-05-16T13:48:06Z</time>
      </trkpt>
      <trkpt lat="43.69772" lon="7.05696">
        <ele>84.7</ele>
        <time>2026-05-16T13:48:07Z</time>
      </trkpt>
      <trkpt lat="43.69771" lon="7.05712">
        <ele>85</ele>
        <time>2026-05-16T13:48:08Z</time>
      </trkpt>
      <trkpt lat="43.69769" lon="7.05727">
        <ele>84.8</ele>
        <time>2026-05-16T13:48:09Z</time>
      </trkpt>
      <trkpt lat="43.69765" lon="7.05741">
        <ele>84.5</ele>
        <time>2026-05-16T13:48:10Z</time>
      </trkpt>
      <trkpt lat="43.6976" lon="7.05754">
        <ele>84.3</ele>
        <time>2026-05-16T13:48:11Z</time>
      </trkpt>
      <trkpt lat="43.69755" lon="7.05767">
        <ele>85</ele>
        <time>2026-05-16T13:48:12Z</time>
      </trkpt>
      <trkpt lat="43.69748" lon="7.05779">
        <ele>84.5</ele>
        <time>2026-05-16T13:48:13Z</time>
      </trkpt>
      <trkpt lat="43.69741" lon="7.05791">
        <ele>84.9</ele>
        <time>2026-05-16T13:48:14Z</time>
      </trkpt>
      <trkpt lat="43.69736" lon="7.05803">
        <ele>86.2</ele>
        <time>2026-05-16T13:48:15Z</time>
      </trkpt>
      <trkpt lat="43.6973" lon="7.05814">
        <ele>86.3</ele>
        <time>2026-05-16T13:48:16Z</time>
      </trkpt>
      <trkpt lat="43.69724" lon="7.05825">
        <ele>85.9</ele>
        <time>2026-05-16T13:48:17Z</time>
      </trkpt>
      <trkpt lat="43.69719" lon="7.05836">
        <ele>86.1</ele>
        <time>2026-05-16T13:48:18Z</time>
      </trkpt>
      <trkpt lat="43.69713" lon="7.05848">
        <ele>86.2</ele>
        <time>2026-05-16T13:48:19Z</time>
      </trkpt>
      <trkpt lat="43.69709" lon="7.05859">
        <ele>86.8</ele>
        <time>2026-05-16T13:48:20Z</time>
      </trkpt>
      <trkpt lat="43.69703" lon="7.0587">
        <ele>85.6</ele>
        <time>2026-05-16T13:48:21Z</time>
      </trkpt>
      <trkpt lat="43.69698" lon="7.05882">
        <ele>84.4</ele>
        <time>2026-05-16T13:48:22Z</time>
      </trkpt>
      <trkpt lat="43.69693" lon="7.05895">
        <ele>83.4</ele>
        <time>2026-05-16T13:48:23Z</time>
      </trkpt>
      <trkpt lat="43.69689" lon="7.05909">
        <ele>83.8</ele>
        <time>2026-05-16T13:48:24Z</time>
      </trkpt>
      <trkpt lat="43.69685" lon="7.05922">
        <ele>83.5</ele>
        <time>2026-05-16T13:48:25Z</time>
      </trkpt>
      <trkpt lat="43.69681" lon="7.05935">
        <ele>82.7</ele>
        <time>2026-05-16T13:48:26Z</time>
      </trkpt>
      <trkpt lat="43.69677" lon="7.05947">
        <ele>81.4</ele>
        <time>2026-05-16T13:48:27Z</time>
      </trkpt>
      <trkpt lat="43.69675" lon="7.0596">
        <ele>79.6</ele>
        <time>2026-05-16T13:48:28Z</time>
      </trkpt>
      <trkpt lat="43.69673" lon="7.05971">
        <ele>78</ele>
        <time>2026-05-16T13:48:29Z</time>
      </trkpt>
      <trkpt lat="43.69676" lon="7.05983">
        <ele>76.4</ele>
        <time>2026-05-16T13:48:30Z</time>
      </trkpt>
      <trkpt lat="43.69679" lon="7.05994">
        <ele>74.6</ele>
        <time>2026-05-16T13:48:31Z</time>
      </trkpt>
      <trkpt lat="43.69684" lon="7.06001">
        <ele>74.7</ele>
        <time>2026-05-16T13:48:32Z</time>
      </trkpt>
      <trkpt lat="43.69694" lon="7.06007">
        <ele>76.1</ele>
        <time>2026-05-16T13:48:33Z</time>
      </trkpt>
      <trkpt lat="43.69706" lon="7.06013">
        <ele>78.3</ele>
        <time>2026-05-16T13:48:34Z</time>
      </trkpt>
      <trkpt lat="43.69718" lon="7.06022">
        <ele>78.4</ele>
        <time>2026-05-16T13:48:35Z</time>
      </trkpt>
      <trkpt lat="43.69733" lon="7.0603">
        <ele>80.9</ele>
        <time>2026-05-16T13:48:36Z</time>
      </trkpt>
      <trkpt lat="43.69744" lon="7.06046">
        <ele>80</ele>
        <time>2026-05-16T13:48:37Z</time>
      </trkpt>
      <trkpt lat="43.69752" lon="7.06062">
        <ele>79.2</ele>
        <time>2026-05-16T13:48:38Z</time>
      </trkpt>
      <trkpt lat="43.69761" lon="7.0608">
        <ele>82.4</ele>
        <time>2026-05-16T13:48:39Z</time>
      </trkpt>
      <trkpt lat="43.69769" lon="7.06099">
        <ele>84.8</ele>
        <time>2026-05-16T13:48:40Z</time>
      </trkpt>
      <trkpt lat="43.69772" lon="7.06119">
        <ele>83</ele>
        <time>2026-05-16T13:48:41Z</time>
      </trkpt>
      <trkpt lat="43.69775" lon="7.0614">
        <ele>81.5</ele>
        <time>2026-05-16T13:48:42Z</time>
      </trkpt>
      <trkpt lat="43.69776" lon="7.06161">
        <ele>81.3</ele>
        <time>2026-05-16T13:48:43Z</time>
      </trkpt>
      <trkpt lat="43.69775" lon="7.06182">
        <ele>81.2</ele>
        <time>2026-05-16T13:48:44Z</time>
      </trkpt>
      <trkpt lat="43.6977" lon="7.06203">
        <ele>80.9</ele>
        <time>2026-05-16T13:48:45Z</time>
      </trkpt>
      <trkpt lat="43.69764" lon="7.06223">
        <ele>82.3</ele>
        <time>2026-05-16T13:48:46Z</time>
      </trkpt>
      <trkpt lat="43.69757" lon="7.06242">
        <ele>82.8</ele>
        <time>2026-05-16T13:48:47Z</time>
      </trkpt>
      <trkpt lat="43.69748" lon="7.0626">
        <ele>81.3</ele>
        <time>2026-05-16T13:48:48Z</time>
      </trkpt>
      <trkpt lat="43.69739" lon="7.06277">
        <ele>80.7</ele>
        <time>2026-05-16T13:48:49Z</time>
      </trkpt>
      <trkpt lat="43.69729" lon="7.06292">
        <ele>79.1</ele>
        <time>2026-05-16T13:48:50Z</time>
      </trkpt>
      <trkpt lat="43.69718" lon="7.06306">
        <ele>76.9</ele>
        <time>2026-05-16T13:48:51Z</time>
      </trkpt>
      <trkpt lat="43.69707" lon="7.06319">
        <ele>77.4</ele>
        <time>2026-05-16T13:48:52Z</time>
      </trkpt>
      <trkpt lat="43.69696" lon="7.0633">
        <ele>76.7</ele>
        <time>2026-05-16T13:48:53Z</time>
      </trkpt>
      <trkpt lat="43.69683" lon="7.06337">
        <ele>76.9</ele>
        <time>2026-05-16T13:48:54Z</time>
      </trkpt>
      <trkpt lat="43.6967" lon="7.06339">
        <ele>76.3</ele>
        <time>2026-05-16T13:48:55Z</time>
      </trkpt>
      <trkpt lat="43.69657" lon="7.0634">
        <ele>76.3</ele>
        <time>2026-05-16T13:48:56Z</time>
      </trkpt>
      <trkpt lat="43.69645" lon="7.06342">
        <ele>77.1</ele>
        <time>2026-05-16T13:48:57Z</time>
      </trkpt>
      <trkpt lat="43.69632" lon="7.06342">
        <ele>76.9</ele>
        <time>2026-05-16T13:48:58Z</time>
      </trkpt>
      <trkpt lat="43.6962" lon="7.06343">
        <ele>77.1</ele>
        <time>2026-05-16T13:48:59Z</time>
      </trkpt>
      <trkpt lat="43.69609" lon="7.06343">
        <ele>76.8</ele>
        <time>2026-05-16T13:49:00Z</time>
      </trkpt>
      <trkpt lat="43.69597" lon="7.06344">
        <ele>77.1</ele>
        <time>2026-05-16T13:49:01Z</time>
      </trkpt>
      <trkpt lat="43.69588" lon="7.06345">
        <ele>77.4</ele>
        <time>2026-05-16T13:49:02Z</time>
      </trkpt>
      <trkpt lat="43.6958" lon="7.06346">
        <ele>78.1</ele>
        <time>2026-05-16T13:49:03Z</time>
      </trkpt>
      <trkpt lat="43.69573" lon="7.06346">
        <ele>78.6</ele>
        <time>2026-05-16T13:49:04Z</time>
      </trkpt>
      <trkpt lat="43.69565" lon="7.06347">
        <ele>79.7</ele>
        <time>2026-05-16T13:49:05Z</time>
      </trkpt>
      <trkpt lat="43.69558" lon="7.06346">
        <ele>79.7</ele>
        <time>2026-05-16T13:49:06Z</time>
      </trkpt>
      <trkpt lat="43.69552" lon="7.06346">
        <ele>80.7</ele>
        <time>2026-05-16T13:49:07Z</time>
      </trkpt>
      <trkpt lat="43.69546" lon="7.06344">
        <ele>81</ele>
        <time>2026-05-16T13:49:08Z</time>
      </trkpt>
      <trkpt lat="43.69539" lon="7.06343">
        <ele>82</ele>
        <time>2026-05-16T13:49:09Z</time>
      </trkpt>
      <trkpt lat="43.69532" lon="7.06341">
        <ele>82.5</ele>
        <time>2026-05-16T13:49:10Z</time>
      </trkpt>
      <trkpt lat="43.69525" lon="7.06338">
        <ele>82.7</ele>
        <time>2026-05-16T13:49:11Z</time>
      </trkpt>
      <trkpt lat="43.69518" lon="7.06335">
        <ele>83.5</ele>
        <time>2026-05-16T13:49:12Z</time>
      </trkpt>
      <trkpt lat="43.69511" lon="7.06332">
        <ele>84.4</ele>
        <time>2026-05-16T13:49:13Z</time>
      </trkpt>
      <trkpt lat="43.69504" lon="7.06329">
        <ele>85.5</ele>
        <time>2026-05-16T13:49:14Z</time>
      </trkpt>
      <trkpt lat="43.69498" lon="7.06326">
        <ele>86.6</ele>
        <time>2026-05-16T13:49:15Z</time>
      </trkpt>
      <trkpt lat="43.69492" lon="7.06322">
        <ele>88</ele>
        <time>2026-05-16T13:49:16Z</time>
      </trkpt>
      <trkpt lat="43.69487" lon="7.06317">
        <ele>88.8</ele>
        <time>2026-05-16T13:49:17Z</time>
      </trkpt>
      <trkpt lat="43.69483" lon="7.0631">
        <ele>88.6</ele>
        <time>2026-05-16T13:49:18Z</time>
      </trkpt>
      <trkpt lat="43.6948" lon="7.06302">
        <ele>87.8</ele>
        <time>2026-05-16T13:49:19Z</time>
      </trkpt>
      <trkpt lat="43.69477" lon="7.06294">
        <ele>87.3</ele>
        <time>2026-05-16T13:49:20Z</time>
      </trkpt>
      <trkpt lat="43.69475" lon="7.06285">
        <ele>86</ele>
        <time>2026-05-16T13:49:21Z</time>
      </trkpt>
      <trkpt lat="43.69472" lon="7.06275">
        <ele>85.3</ele>
        <time>2026-05-16T13:49:22Z</time>
      </trkpt>
      <trkpt lat="43.6947" lon="7.06266">
        <ele>83.7</ele>
        <time>2026-05-16T13:49:23Z</time>
      </trkpt>
      <trkpt lat="43.69467" lon="7.06257">
        <ele>82.7</ele>
        <time>2026-05-16T13:49:24Z</time>
      </trkpt>
      <trkpt lat="43.69466" lon="7.06247">
        <ele>80.9</ele>
        <time>2026-05-16T13:49:25Z</time>
      </trkpt>
      <trkpt lat="43.69465" lon="7.06237">
        <ele>79.8</ele>
        <time>2026-05-16T13:49:26Z</time>
      </trkpt>
      <trkpt lat="43.69465" lon="7.06225">
        <ele>77.8</ele>
        <time>2026-05-16T13:49:27Z</time>
      </trkpt>
      <trkpt lat="43.69465" lon="7.06213">
        <ele>76.4</ele>
        <time>2026-05-16T13:49:28Z</time>
      </trkpt>
      <trkpt lat="43.69463" lon="7.06202">
        <ele>75.9</ele>
        <time>2026-05-16T13:49:29Z</time>
      </trkpt>
      <trkpt lat="43.6946" lon="7.06192">
        <ele>75.5</ele>
        <time>2026-05-16T13:49:30Z</time>
      </trkpt>
      <trkpt lat="43.69454" lon="7.06185">
        <ele>76.2</ele>
        <time>2026-05-16T13:49:31Z</time>
      </trkpt>
      <trkpt lat="43.69446" lon="7.0618">
        <ele>77.9</ele>
        <time>2026-05-16T13:49:32Z</time>
      </trkpt>
      <trkpt lat="43.69436" lon="7.06178">
        <ele>77.5</ele>
        <time>2026-05-16T13:49:33Z</time>
      </trkpt>
      <trkpt lat="43.69425" lon="7.06182">
        <ele>77.3</ele>
        <time>2026-05-16T13:49:34Z</time>
      </trkpt>
      <trkpt lat="43.69418" lon="7.06191">
        <ele>77.8</ele>
        <time>2026-05-16T13:49:35Z</time>
      </trkpt>
      <trkpt lat="43.69411" lon="7.06202">
        <ele>76.6</ele>
        <time>2026-05-16T13:49:36Z</time>
      </trkpt>
      <trkpt lat="43.69405" lon="7.06214">
        <ele>74.7</ele>
        <time>2026-05-16T13:49:37Z</time>
      </trkpt>
      <trkpt lat="43.69401" lon="7.06228">
        <ele>73.3</ele>
        <time>2026-05-16T13:49:38Z</time>
      </trkpt>
      <trkpt lat="43.69402" lon="7.06248">
        <ele>74.4</ele>
        <time>2026-05-16T13:49:39Z</time>
      </trkpt>
      <trkpt lat="43.69399" lon="7.06264">
        <ele>72.4</ele>
        <time>2026-05-16T13:49:40Z</time>
      </trkpt>
      <trkpt lat="43.69398" lon="7.06281">
        <ele>71.6</ele>
        <time>2026-05-16T13:49:41Z</time>
      </trkpt>
      <trkpt lat="43.69398" lon="7.06297">
        <ele>71.8</ele>
        <time>2026-05-16T13:49:42Z</time>
      </trkpt>
      <trkpt lat="43.69398" lon="7.06314">
        <ele>71.9</ele>
        <time>2026-05-16T13:49:43Z</time>
      </trkpt>
      <trkpt lat="43.694" lon="7.0633">
        <ele>73.4</ele>
        <time>2026-05-16T13:49:44Z</time>
      </trkpt>
      <trkpt lat="43.69401" lon="7.06345">
        <ele>74.2</ele>
        <time>2026-05-16T13:49:45Z</time>
      </trkpt>
      <trkpt lat="43.69401" lon="7.0636">
        <ele>74.2</ele>
        <time>2026-05-16T13:49:46Z</time>
      </trkpt>
      <trkpt lat="43.69401" lon="7.06375">
        <ele>73.4</ele>
        <time>2026-05-16T13:49:47Z</time>
      </trkpt>
      <trkpt lat="43.69401" lon="7.06389">
        <ele>72.7</ele>
        <time>2026-05-16T13:49:48Z</time>
      </trkpt>
      <trkpt lat="43.69402" lon="7.06404">
        <ele>72.9</ele>
        <time>2026-05-16T13:49:49Z</time>
      </trkpt>
      <trkpt lat="43.69404" lon="7.06418">
        <ele>73.8</ele>
        <time>2026-05-16T13:49:50Z</time>
      </trkpt>
      <trkpt lat="43.69405" lon="7.06431">
        <ele>74.1</ele>
        <time>2026-05-16T13:49:51Z</time>
      </trkpt>
      <trkpt lat="43.69404" lon="7.06444">
        <ele>72.9</ele>
        <time>2026-05-16T13:49:52Z</time>
      </trkpt>
      <trkpt lat="43.69404" lon="7.06455">
        <ele>72.5</ele>
        <time>2026-05-16T13:49:53Z</time>
      </trkpt>
      <trkpt lat="43.69404" lon="7.06466">
        <ele>72.1</ele>
        <time>2026-05-16T13:49:54Z</time>
      </trkpt>
      <trkpt lat="43.69403" lon="7.06477">
        <ele>71</ele>
        <time>2026-05-16T13:49:55Z</time>
      </trkpt>
      <trkpt lat="43.69402" lon="7.06487">
        <ele>69.9</ele>
        <time>2026-05-16T13:49:56Z</time>
      </trkpt>
      <trkpt lat="43.69402" lon="7.06497">
        <ele>69.6</ele>
        <time>2026-05-16T13:49:57Z</time>
      </trkpt>
      <trkpt lat="43.69401" lon="7.06507">
        <ele>69.1</ele>
        <time>2026-05-16T13:49:58Z</time>
      </trkpt>
      <trkpt lat="43.694" lon="7.06518">
        <ele>68.8</ele>
        <time>2026-05-16T13:49:59Z</time>
      </trkpt>
      <trkpt lat="43.69399" lon="7.06528">
        <ele>68.6</ele>
        <time>2026-05-16T13:50:00Z</time>
      </trkpt>
      <trkpt lat="43.69397" lon="7.0654">
        <ele>68.3</ele>
        <time>2026-05-16T13:50:01Z</time>
      </trkpt>
      <trkpt lat="43.69394" lon="7.06551">
        <ele>67.1</ele>
        <time>2026-05-16T13:50:02Z</time>
      </trkpt>
      <trkpt lat="43.69392" lon="7.06563">
        <ele>67.6</ele>
        <time>2026-05-16T13:50:03Z</time>
      </trkpt>
      <trkpt lat="43.6939" lon="7.06575">
        <ele>68.3</ele>
        <time>2026-05-16T13:50:04Z</time>
      </trkpt>
      <trkpt lat="43.69387" lon="7.06586">
        <ele>69.2</ele>
        <time>2026-05-16T13:50:05Z</time>
      </trkpt>
      <trkpt lat="43.69385" lon="7.06597">
        <ele>72.4</ele>
        <time>2026-05-16T13:50:06Z</time>
      </trkpt>
      <trkpt lat="43.69381" lon="7.06606">
        <ele>73.6</ele>
        <time>2026-05-16T13:50:07Z</time>
      </trkpt>
      <trkpt lat="43.69376" lon="7.06615">
        <ele>74.8</ele>
        <time>2026-05-16T13:50:08Z</time>
      </trkpt>
      <trkpt lat="43.69369" lon="7.06623">
        <ele>75.6</ele>
        <time>2026-05-16T13:50:09Z</time>
      </trkpt>
      <trkpt lat="43.6936" lon="7.06628">
        <ele>74.1</ele>
        <time>2026-05-16T13:50:10Z</time>
      </trkpt>
      <trkpt lat="43.69351" lon="7.06632">
        <ele>74.3</ele>
        <time>2026-05-16T13:50:11Z</time>
      </trkpt>
      <trkpt lat="43.69341" lon="7.06634">
        <ele>73.1</ele>
        <time>2026-05-16T13:50:12Z</time>
      </trkpt>
      <trkpt lat="43.69331" lon="7.06638">
        <ele>73.1</ele>
        <time>2026-05-16T13:50:13Z</time>
      </trkpt>
      <trkpt lat="43.69321" lon="7.06643">
        <ele>75.1</ele>
        <time>2026-05-16T13:50:14Z</time>
      </trkpt>
      <trkpt lat="43.69311" lon="7.06645">
        <ele>74.6</ele>
        <time>2026-05-16T13:50:15Z</time>
      </trkpt>
      <trkpt lat="43.69301" lon="7.06645">
        <ele>73.1</ele>
        <time>2026-05-16T13:50:16Z</time>
      </trkpt>
      <trkpt lat="43.69292" lon="7.06643">
        <ele>71</ele>
        <time>2026-05-16T13:50:17Z</time>
      </trkpt>
      <trkpt lat="43.69283" lon="7.0664">
        <ele>68.2</ele>
        <time>2026-05-16T13:50:18Z</time>
      </trkpt>
      <trkpt lat="43.69275" lon="7.06635">
        <ele>65.3</ele>
        <time>2026-05-16T13:50:19Z</time>
      </trkpt>
      <trkpt lat="43.69265" lon="7.06634">
        <ele>64.9</ele>
        <time>2026-05-16T13:50:20Z</time>
      </trkpt>
      <trkpt lat="43.69255" lon="7.06635">
        <ele>65.3</ele>
        <time>2026-05-16T13:50:21Z</time>
      </trkpt>
      <trkpt lat="43.69245" lon="7.06638">
        <ele>66.4</ele>
        <time>2026-05-16T13:50:22Z</time>
      </trkpt>
      <trkpt lat="43.69234" lon="7.0664">
        <ele>67.2</ele>
        <time>2026-05-16T13:50:23Z</time>
      </trkpt>
      <trkpt lat="43.69222" lon="7.06641">
        <ele>67.4</ele>
        <time>2026-05-16T13:50:24Z</time>
      </trkpt>
      <trkpt lat="43.6921" lon="7.06643">
        <ele>67.7</ele>
        <time>2026-05-16T13:50:25Z</time>
      </trkpt>
      <trkpt lat="43.69199" lon="7.06644">
        <ele>67.3</ele>
        <time>2026-05-16T13:50:26Z</time>
      </trkpt>
      <trkpt lat="43.69187" lon="7.06646">
        <ele>67.4</ele>
        <time>2026-05-16T13:50:27Z</time>
      </trkpt>
      <trkpt lat="43.69177" lon="7.06648">
        <ele>67.6</ele>
        <time>2026-05-16T13:50:28Z</time>
      </trkpt>
      <trkpt lat="43.69166" lon="7.06649">
        <ele>67</ele>
        <time>2026-05-16T13:50:29Z</time>
      </trkpt>
      <trkpt lat="43.69156" lon="7.06651">
        <ele>66.8</ele>
        <time>2026-05-16T13:50:30Z</time>
      </trkpt>
      <trkpt lat="43.69145" lon="7.06653">
        <ele>66.4</ele>
        <time>2026-05-16T13:50:31Z</time>
      </trkpt>
      <trkpt lat="43.69136" lon="7.06654">
        <ele>65.8</ele>
        <time>2026-05-16T13:50:32Z</time>
      </trkpt>
      <trkpt lat="43.69126" lon="7.06657">
        <ele>66.2</ele>
        <time>2026-05-16T13:50:33Z</time>
      </trkpt>
      <trkpt lat="43.69117" lon="7.06659">
        <ele>66.3</ele>
        <time>2026-05-16T13:50:34Z</time>
      </trkpt>
      <trkpt lat="43.69109" lon="7.06662">
        <ele>66.8</ele>
        <time>2026-05-16T13:50:35Z</time>
      </trkpt>
      <trkpt lat="43.691" lon="7.06663">
        <ele>66.7</ele>
        <time>2026-05-16T13:50:36Z</time>
      </trkpt>
      <trkpt lat="43.69092" lon="7.06665">
        <ele>66.9</ele>
        <time>2026-05-16T13:50:37Z</time>
      </trkpt>
      <trkpt lat="43.69084" lon="7.06667">
        <ele>67.3</ele>
        <time>2026-05-16T13:50:38Z</time>
      </trkpt>
      <trkpt lat="43.69075" lon="7.06668">
        <ele>66.9</ele>
        <time>2026-05-16T13:50:39Z</time>
      </trkpt>
      <trkpt lat="43.69068" lon="7.06668">
        <ele>66.2</ele>
        <time>2026-05-16T13:50:40Z</time>
      </trkpt>
      <trkpt lat="43.69062" lon="7.0667">
        <ele>66.8</ele>
        <time>2026-05-16T13:50:41Z</time>
      </trkpt>
      <trkpt lat="43.69055" lon="7.0667">
        <ele>66</ele>
        <time>2026-05-16T13:50:42Z</time>
      </trkpt>
      <trkpt lat="43.69049" lon="7.06671">
        <ele>66.3</ele>
        <time>2026-05-16T13:50:43Z</time>
      </trkpt>
      <trkpt lat="43.69042" lon="7.06672">
        <ele>66.5</ele>
        <time>2026-05-16T13:50:44Z</time>
      </trkpt>
      <trkpt lat="43.69035" lon="7.06672">
        <ele>66.1</ele>
        <time>2026-05-16T13:50:45Z</time>
      </trkpt>
      <trkpt lat="43.69027" lon="7.06672">
        <ele>65.6</ele>
        <time>2026-05-16T13:50:46Z</time>
      </trkpt>
      <trkpt lat="43.69019" lon="7.0667">
        <ele>64.2</ele>
        <time>2026-05-16T13:50:47Z</time>
      </trkpt>
      <trkpt lat="43.6901" lon="7.06666">
        <ele>62.1</ele>
        <time>2026-05-16T13:50:48Z</time>
      </trkpt>
      <trkpt lat="43.69001" lon="7.06663">
        <ele>60.8</ele>
        <time>2026-05-16T13:50:49Z</time>
      </trkpt>
      <trkpt lat="43.68992" lon="7.06663">
        <ele>59.8</ele>
        <time>2026-05-16T13:50:50Z</time>
      </trkpt>
      <trkpt lat="43.68984" lon="7.06666">
        <ele>59.5</ele>
        <time>2026-05-16T13:50:51Z</time>
      </trkpt>
      <trkpt lat="43.68976" lon="7.06672">
        <ele>59.3</ele>
        <time>2026-05-16T13:50:52Z</time>
      </trkpt>
      <trkpt lat="43.6897" lon="7.06681">
        <ele>58.9</ele>
        <time>2026-05-16T13:50:53Z</time>
      </trkpt>
      <trkpt lat="43.68969" lon="7.06695">
        <ele>59.9</ele>
        <time>2026-05-16T13:50:54Z</time>
      </trkpt>
      <trkpt lat="43.6897" lon="7.06709">
        <ele>59.6</ele>
        <time>2026-05-16T13:50:55Z</time>
      </trkpt>
      <trkpt lat="43.68973" lon="7.06723">
        <ele>60.3</ele>
        <time>2026-05-16T13:50:56Z</time>
      </trkpt>
      <trkpt lat="43.6898" lon="7.06736">
        <ele>62.2</ele>
        <time>2026-05-16T13:50:57Z</time>
      </trkpt>
      <trkpt lat="43.68987" lon="7.06748">
        <ele>65</ele>
        <time>2026-05-16T13:50:58Z</time>
      </trkpt>
      <trkpt lat="43.68992" lon="7.06762">
        <ele>66.5</ele>
        <time>2026-05-16T13:50:59Z</time>
      </trkpt>
      <trkpt lat="43.68994" lon="7.06778">
        <ele>65.3</ele>
        <time>2026-05-16T13:51:00Z</time>
      </trkpt>
      <trkpt lat="43.68993" lon="7.06795">
        <ele>65.2</ele>
        <time>2026-05-16T13:51:01Z</time>
      </trkpt>
      <trkpt lat="43.6899" lon="7.06812">
        <ele>64.8</ele>
        <time>2026-05-16T13:51:02Z</time>
      </trkpt>
      <trkpt lat="43.68984" lon="7.06828">
        <ele>64</ele>
        <time>2026-05-16T13:51:03Z</time>
      </trkpt>
      <trkpt lat="43.68977" lon="7.06846">
        <ele>62.6</ele>
        <time>2026-05-16T13:51:04Z</time>
      </trkpt>
      <trkpt lat="43.68971" lon="7.06863">
        <ele>61.7</ele>
        <time>2026-05-16T13:51:05Z</time>
      </trkpt>
      <trkpt lat="43.68966" lon="7.06881">
        <ele>61.8</ele>
        <time>2026-05-16T13:51:06Z</time>
      </trkpt>
      <trkpt lat="43.6896" lon="7.06897">
        <ele>60.4</ele>
        <time>2026-05-16T13:51:07Z</time>
      </trkpt>
      <trkpt lat="43.68955" lon="7.06913">
        <ele>59.1</ele>
        <time>2026-05-16T13:51:08Z</time>
      </trkpt>
      <trkpt lat="43.68951" lon="7.06926">
        <ele>57.9</ele>
        <time>2026-05-16T13:51:09Z</time>
      </trkpt>
      <trkpt lat="43.6895" lon="7.06939">
        <ele>58.2</ele>
        <time>2026-05-16T13:51:10Z</time>
      </trkpt>
      <trkpt lat="43.68948" lon="7.0695">
        <ele>57.6</ele>
        <time>2026-05-16T13:51:11Z</time>
      </trkpt>
      <trkpt lat="43.68949" lon="7.06962">
        <ele>58</ele>
        <time>2026-05-16T13:51:12Z</time>
      </trkpt>
      <trkpt lat="43.68948" lon="7.06974">
        <ele>57.5</ele>
        <time>2026-05-16T13:51:13Z</time>
      </trkpt>
      <trkpt lat="43.68948" lon="7.06986">
        <ele>57.5</ele>
        <time>2026-05-16T13:51:14Z</time>
      </trkpt>
      <trkpt lat="43.68949" lon="7.06999">
        <ele>57.8</ele>
        <time>2026-05-16T13:51:15Z</time>
      </trkpt>
      <trkpt lat="43.6895" lon="7.07013">
        <ele>58.1</ele>
        <time>2026-05-16T13:51:16Z</time>
      </trkpt>
      <trkpt lat="43.6895" lon="7.07027">
        <ele>58</ele>
        <time>2026-05-16T13:51:17Z</time>
      </trkpt>
      <trkpt lat="43.6895" lon="7.07042">
        <ele>58</ele>
        <time>2026-05-16T13:51:18Z</time>
      </trkpt>
      <trkpt lat="43.6895" lon="7.07056">
        <ele>58</ele>
        <time>2026-05-16T13:51:19Z</time>
      </trkpt>
      <trkpt lat="43.68951" lon="7.07071">
        <ele>58.5</ele>
        <time>2026-05-16T13:51:20Z</time>
      </trkpt>
      <trkpt lat="43.68953" lon="7.07087">
        <ele>59.3</ele>
        <time>2026-05-16T13:51:21Z</time>
      </trkpt>
      <trkpt lat="43.68954" lon="7.07102">
        <ele>59.3</ele>
        <time>2026-05-16T13:51:22Z</time>
      </trkpt>
      <trkpt lat="43.68954" lon="7.07117">
        <ele>58.7</ele>
        <time>2026-05-16T13:51:23Z</time>
      </trkpt>
      <trkpt lat="43.68956" lon="7.07133">
        <ele>58.4</ele>
        <time>2026-05-16T13:51:24Z</time>
      </trkpt>
      <trkpt lat="43.68957" lon="7.07147">
        <ele>57.8</ele>
        <time>2026-05-16T13:51:25Z</time>
      </trkpt>
      <trkpt lat="43.68959" lon="7.07162">
        <ele>57.7</ele>
        <time>2026-05-16T13:51:26Z</time>
      </trkpt>
      <trkpt lat="43.68961" lon="7.07176">
        <ele>57.9</ele>
        <time>2026-05-16T13:51:27Z</time>
      </trkpt>
      <trkpt lat="43.68961" lon="7.0719">
        <ele>57.2</ele>
        <time>2026-05-16T13:51:28Z</time>
      </trkpt>
      <trkpt lat="43.68961" lon="7.07202">
        <ele>57.3</ele>
        <time>2026-05-16T13:51:29Z</time>
      </trkpt>
      <trkpt lat="43.68961" lon="7.07213">
        <ele>57.7</ele>
        <time>2026-05-16T13:51:30Z</time>
      </trkpt>
      <trkpt lat="43.6896" lon="7.07226">
        <ele>57.8</ele>
        <time>2026-05-16T13:51:31Z</time>
      </trkpt>
      <trkpt lat="43.68959" lon="7.07238">
        <ele>58.1</ele>
        <time>2026-05-16T13:51:32Z</time>
      </trkpt>
      <trkpt lat="43.68957" lon="7.07251">
        <ele>57.7</ele>
        <time>2026-05-16T13:51:33Z</time>
      </trkpt>
      <trkpt lat="43.68953" lon="7.07264">
        <ele>55.9</ele>
        <time>2026-05-16T13:51:34Z</time>
      </trkpt>
      <trkpt lat="43.68949" lon="7.07277">
        <ele>54.1</ele>
        <time>2026-05-16T13:51:35Z</time>
      </trkpt>
      <trkpt lat="43.68944" lon="7.0729">
        <ele>50.9</ele>
        <time>2026-05-16T13:51:36Z</time>
      </trkpt>
      <trkpt lat="43.68936" lon="7.07301">
        <ele>48.5</ele>
        <time>2026-05-16T13:51:37Z</time>
      </trkpt>
      <trkpt lat="43.68926" lon="7.07309">
        <ele>45.8</ele>
        <time>2026-05-16T13:51:38Z</time>
      </trkpt>
      <trkpt lat="43.68916" lon="7.07313">
        <ele>44</ele>
        <time>2026-05-16T13:51:39Z</time>
      </trkpt>
      <trkpt lat="43.68904" lon="7.07313">
        <ele>48.2</ele>
        <time>2026-05-16T13:51:40Z</time>
      </trkpt>
      <trkpt lat="43.68892" lon="7.07308">
        <ele>50.8</ele>
        <time>2026-05-16T13:51:41Z</time>
      </trkpt>
      <trkpt lat="43.68881" lon="7.073">
        <ele>51.8</ele>
        <time>2026-05-16T13:51:42Z</time>
      </trkpt>
      <trkpt lat="43.68873" lon="7.07292">
        <ele>51</ele>
        <time>2026-05-16T13:51:43Z</time>
      </trkpt>
      <trkpt lat="43.68863" lon="7.07282">
        <ele>48.8</ele>
        <time>2026-05-16T13:51:44Z</time>
      </trkpt>
      <trkpt lat="43.68853" lon="7.07275">
        <ele>48.4</ele>
        <time>2026-05-16T13:51:45Z</time>
      </trkpt>
      <trkpt lat="43.68842" lon="7.07269">
        <ele>49.3</ele>
        <time>2026-05-16T13:51:46Z</time>
      </trkpt>
      <trkpt lat="43.68831" lon="7.07266">
        <ele>50.4</ele>
        <time>2026-05-16T13:51:47Z</time>
      </trkpt>
      <trkpt lat="43.68822" lon="7.07262">
        <ele>49</ele>
        <time>2026-05-16T13:51:48Z</time>
      </trkpt>
      <trkpt lat="43.68813" lon="7.07259">
        <ele>48.3</ele>
        <time>2026-05-16T13:51:49Z</time>
      </trkpt>
      <trkpt lat="43.68802" lon="7.07257">
        <ele>47.7</ele>
        <time>2026-05-16T13:51:50Z</time>
      </trkpt>
      <trkpt lat="43.68791" lon="7.07254">
        <ele>45.9</ele>
        <time>2026-05-16T13:51:51Z</time>
      </trkpt>
      <trkpt lat="43.6878" lon="7.07251">
        <ele>44.3</ele>
        <time>2026-05-16T13:51:52Z</time>
      </trkpt>
      <trkpt lat="43.68767" lon="7.07248">
        <ele>43.1</ele>
        <time>2026-05-16T13:51:53Z</time>
      </trkpt>
      <trkpt lat="43.68756" lon="7.07244">
        <ele>42.3</ele>
        <time>2026-05-16T13:51:54Z</time>
      </trkpt>
      <trkpt lat="43.68744" lon="7.07241">
        <ele>41.9</ele>
        <time>2026-05-16T13:51:55Z</time>
      </trkpt>
      <trkpt lat="43.68732" lon="7.07237">
        <ele>41.7</ele>
        <time>2026-05-16T13:51:56Z</time>
      </trkpt>
      <trkpt lat="43.68721" lon="7.07234">
        <ele>41.5</ele>
        <time>2026-05-16T13:51:57Z</time>
      </trkpt>
      <trkpt lat="43.68711" lon="7.07231">
        <ele>41.3</ele>
        <time>2026-05-16T13:51:58Z</time>
      </trkpt>
      <trkpt lat="43.68701" lon="7.07228">
        <ele>41</ele>
        <time>2026-05-16T13:51:59Z</time>
      </trkpt>
      <trkpt lat="43.6869" lon="7.07225">
        <ele>40.8</ele>
        <time>2026-05-16T13:52:00Z</time>
      </trkpt>
      <trkpt lat="43.6868" lon="7.07222">
        <ele>40.5</ele>
        <time>2026-05-16T13:52:01Z</time>
      </trkpt>
      <trkpt lat="43.68669" lon="7.07219">
        <ele>40.1</ele>
        <time>2026-05-16T13:52:02Z</time>
      </trkpt>
      <trkpt lat="43.68659" lon="7.07216">
        <ele>40</ele>
        <time>2026-05-16T13:52:03Z</time>
      </trkpt>
      <trkpt lat="43.68649" lon="7.07213">
        <ele>40</ele>
        <time>2026-05-16T13:52:04Z</time>
      </trkpt>
      <trkpt lat="43.6864" lon="7.0721">
        <ele>40</ele>
        <time>2026-05-16T13:52:05Z</time>
      </trkpt>
      <trkpt lat="43.68631" lon="7.07207">
        <ele>39.4</ele>
        <time>2026-05-16T13:52:06Z</time>
      </trkpt>
      <trkpt lat="43.68621" lon="7.07204">
        <ele>38.5</ele>
        <time>2026-05-16T13:52:07Z</time>
      </trkpt>
      <trkpt lat="43.68612" lon="7.07201">
        <ele>37.6</ele>
        <time>2026-05-16T13:52:08Z</time>
      </trkpt>
      <trkpt lat="43.68602" lon="7.07198">
        <ele>37</ele>
        <time>2026-05-16T13:52:09Z</time>
      </trkpt>
      <trkpt lat="43.68591" lon="7.07195">
        <ele>37</ele>
        <time>2026-05-16T13:52:10Z</time>
      </trkpt>
      <trkpt lat="43.6858" lon="7.07192">
        <ele>39.4</ele>
        <time>2026-05-16T13:52:11Z</time>
      </trkpt>
      <trkpt lat="43.6857" lon="7.07189">
        <ele>44.1</ele>
        <time>2026-05-16T13:52:12Z</time>
      </trkpt>
      <trkpt lat="43.68559" lon="7.0719">
        <ele>47.3</ele>
        <time>2026-05-16T13:52:13Z</time>
      </trkpt>
      <trkpt lat="43.6855" lon="7.07193">
        <ele>48.1</ele>
        <time>2026-05-16T13:52:14Z</time>
      </trkpt>
      <trkpt lat="43.6854" lon="7.07196">
        <ele>48.3</ele>
        <time>2026-05-16T13:52:15Z</time>
      </trkpt>
      <trkpt lat="43.68533" lon="7.07202">
        <ele>47.3</ele>
        <time>2026-05-16T13:52:16Z</time>
      </trkpt>
      <trkpt lat="43.68526" lon="7.07207">
        <ele>46.7</ele>
        <time>2026-05-16T13:52:17Z</time>
      </trkpt>
      <trkpt lat="43.68519" lon="7.07212">
        <ele>46.3</ele>
        <time>2026-05-16T13:52:18Z</time>
      </trkpt>
      <trkpt lat="43.68513" lon="7.07216">
        <ele>46</ele>
        <time>2026-05-16T13:52:19Z</time>
      </trkpt>
      <trkpt lat="43.68508" lon="7.0722">
        <ele>45.5</ele>
        <time>2026-05-16T13:52:20Z</time>
      </trkpt>
      <trkpt lat="43.68505" lon="7.07224">
        <ele>45</ele>
        <time>2026-05-16T13:52:21Z</time>
      </trkpt>
      <trkpt lat="43.68501" lon="7.07227">
        <ele>45</ele>
        <time>2026-05-16T13:52:22Z</time>
      </trkpt>
      <trkpt lat="43.68497" lon="7.0723">
        <ele>45.1</ele>
        <time>2026-05-16T13:52:23Z</time>
      </trkpt>
      <trkpt lat="43.68493" lon="7.07233">
        <ele>45.2</ele>
        <time>2026-05-16T13:52:24Z</time>
      </trkpt>
      <trkpt lat="43.68489" lon="7.07235">
        <ele>45.5</ele>
        <time>2026-05-16T13:52:25Z</time>
      </trkpt>
      <trkpt lat="43.68486" lon="7.07238">
        <ele>45.4</ele>
        <time>2026-05-16T13:52:26Z</time>
      </trkpt>
      <trkpt lat="43.68482" lon="7.07241">
        <ele>45.4</ele>
        <time>2026-05-16T13:52:27Z</time>
      </trkpt>
      <trkpt lat="43.68477" lon="7.07245">
        <ele>45.4</ele>
        <time>2026-05-16T13:52:28Z</time>
      </trkpt>
      <trkpt lat="43.68471" lon="7.0725">
        <ele>45.3</ele>
        <time>2026-05-16T13:52:29Z</time>
      </trkpt>
      <trkpt lat="43.68466" lon="7.07255">
        <ele>45.5</ele>
        <time>2026-05-16T13:52:30Z</time>
      </trkpt>
      <trkpt lat="43.68459" lon="7.0726">
        <ele>46.1</ele>
        <time>2026-05-16T13:52:31Z</time>
      </trkpt>
      <trkpt lat="43.68453" lon="7.07267">
        <ele>45.9</ele>
        <time>2026-05-16T13:52:32Z</time>
      </trkpt>
      <trkpt lat="43.68447" lon="7.07273">
        <ele>45.6</ele>
        <time>2026-05-16T13:52:33Z</time>
      </trkpt>
      <trkpt lat="43.68441" lon="7.07277">
        <ele>45.8</ele>
        <time>2026-05-16T13:52:34Z</time>
      </trkpt>
      <trkpt lat="43.68435" lon="7.07283">
        <ele>45.7</ele>
        <time>2026-05-16T13:52:35Z</time>
      </trkpt>
      <trkpt lat="43.68431" lon="7.07288">
        <ele>45.4</ele>
        <time>2026-05-16T13:52:36Z</time>
      </trkpt>
      <trkpt lat="43.68427" lon="7.07292">
        <ele>45.3</ele>
        <time>2026-05-16T13:52:37Z</time>
      </trkpt>
      <trkpt lat="43.68424" lon="7.07296">
        <ele>44.9</ele>
        <time>2026-05-16T13:52:38Z</time>
      </trkpt>
      <trkpt lat="43.68421" lon="7.07301">
        <ele>44.3</ele>
        <time>2026-05-16T13:52:39Z</time>
      </trkpt>
      <trkpt lat="43.68417" lon="7.07305">
        <ele>44.1</ele>
        <time>2026-05-16T13:52:40Z</time>
      </trkpt>
      <trkpt lat="43.68414" lon="7.07309">
        <ele>43.9</ele>
        <time>2026-05-16T13:52:41Z</time>
      </trkpt>
      <trkpt lat="43.68412" lon="7.07312">
        <ele>43.7</ele>
        <time>2026-05-16T13:52:42Z</time>
      </trkpt>
      <trkpt lat="43.68409" lon="7.07314">
        <ele>43.8</ele>
        <time>2026-05-16T13:52:43Z</time>
      </trkpt>
      <trkpt lat="43.68407" lon="7.07316">
        <ele>43.8</ele>
        <time>2026-05-16T13:52:44Z</time>
      </trkpt>
      <trkpt lat="43.68405" lon="7.07318">
        <ele>43.7</ele>
        <time>2026-05-16T13:52:45Z</time>
      </trkpt>
      <trkpt lat="43.68404" lon="7.07321">
        <ele>43.3</ele>
        <time>2026-05-16T13:52:46Z</time>
      </trkpt>
      <trkpt lat="43.68403" lon="7.07322">
        <ele>43.3</ele>
        <time>2026-05-16T13:52:47Z</time>
      </trkpt>
      <trkpt lat="43.68403" lon="7.07323">
        <ele>43.1</ele>
        <time>2026-05-16T13:52:48Z</time>
      </trkpt>
      <trkpt lat="43.68403" lon="7.07323">
        <ele>43.1</ele>
        <time>2026-05-16T13:52:49Z</time>
      </trkpt>
      <trkpt lat="43.68403" lon="7.07323">
        <ele>43.1</ele>
        <time>2026-05-16T13:52:50Z</time>
      </trkpt>
      <trkpt lat="43.68403" lon="7.07323">
        <ele>43.1</ele>
        <time>2026-05-16T13:52:51Z</time>
      </trkpt>
      <trkpt lat="43.68403" lon="7.07324">
        <ele>43</ele>
        <time>2026-05-16T13:52:52Z</time>
      </trkpt>
      <trkpt lat="43.68403" lon="7.07324">
        <ele>43</ele>
        <time>2026-05-16T13:52:53Z</time>
      </trkpt>
      <trkpt lat="43.68402" lon="7.07324">
        <ele>43.1</ele>
        <time>2026-05-16T13:52:54Z</time>
      </trkpt>
      <trkpt lat="43.68402" lon="7.07324">
        <ele>43.1</ele>
        <time>2026-05-16T13:52:55Z</time>
      </trkpt>
      <trkpt lat="43.68402" lon="7.07324">
        <ele>43.1</ele>
        <time>2026-05-16T13:52:56Z</time>
      </trkpt>
      <trkpt lat="43.68402" lon="7.07325">
        <ele>42.9</ele>
        <time>2026-05-16T13:52:57Z</time>
      </trkpt>
      <trkpt lat="43.68403" lon="7.07325">
        <ele>42.8</ele>
        <time>2026-05-16T13:52:58Z</time>
      </trkpt>
      <trkpt lat="43.68403" lon="7.07325">
        <ele>42.8</ele>
        <time>2026-05-16T13:52:59Z</time>
      </trkpt>
      <trkpt lat="43.68403" lon="7.07325">
        <ele>42.8</ele>
        <time>2026-05-16T13:53:00Z</time>
      </trkpt>
      <trkpt lat="43.68403" lon="7.07325">
        <ele>42.8</ele>
        <time>2026-05-16T13:53:01Z</time>
      </trkpt>
      <trkpt lat="43.68403" lon="7.07325">
        <ele>42.8</ele>
        <time>2026-05-16T13:53:02Z</time>
      </trkpt>
      <trkpt lat="43.68403" lon="7.07325">
        <ele>42.8</ele>
        <time>2026-05-16T13:53:03Z</time>
      </trkpt>
      <trkpt lat="43.68403" lon="7.07325">
        <ele>42.8</ele>
        <time>2026-05-16T13:53:04Z</time>
      </trkpt>
      <trkpt lat="43.68403" lon="7.07325">
        <ele>42.8</ele>
        <time>2026-05-16T13:53:05Z</time>
      </trkpt>
      <trkpt lat="43.68402" lon="7.07325">
        <ele>42.9</ele>
        <time>2026-05-16T13:53:06Z</time>
      </trkpt>
      <trkpt lat="43.68401" lon="7.07327">
        <ele>42.7</ele>
        <time>2026-05-16T13:53:07Z</time>
      </trkpt>
      <trkpt lat="43.68399" lon="7.07329">
        <ele>42.6</ele>
        <time>2026-05-16T13:53:08Z</time>
      </trkpt>
      <trkpt lat="43.68397" lon="7.0733">
        <ele>42.7</ele>
        <time>2026-05-16T13:53:09Z</time>
      </trkpt>
      <trkpt lat="43.68396" lon="7.07331">
        <ele>42.6</ele>
        <time>2026-05-16T13:53:10Z</time>
      </trkpt>
      <trkpt lat="43.68394" lon="7.07332">
        <ele>42.7</ele>
        <time>2026-05-16T13:53:11Z</time>
      </trkpt>
      <trkpt lat="43.68392" lon="7.07334">
        <ele>42.6</ele>
        <time>2026-05-16T13:53:12Z</time>
      </trkpt>
      <trkpt lat="43.68389" lon="7.07335">
        <ele>42.7</ele>
        <time>2026-05-16T13:53:13Z</time>
      </trkpt>
      <trkpt lat="43.68387" lon="7.07337">
        <ele>42.8</ele>
        <time>2026-05-16T13:53:14Z</time>
      </trkpt>
      <trkpt lat="43.68384" lon="7.07339">
        <ele>43.1</ele>
        <time>2026-05-16T13:53:15Z</time>
      </trkpt>
      <trkpt lat="43.68381" lon="7.07341">
        <ele>43.4</ele>
        <time>2026-05-16T13:53:16Z</time>
      </trkpt>
      <trkpt lat="43.68378" lon="7.07344">
        <ele>43.6</ele>
        <time>2026-05-16T13:53:17Z</time>
      </trkpt>
      <trkpt lat="43.68374" lon="7.07347">
        <ele>44</ele>
        <time>2026-05-16T13:53:18Z</time>
      </trkpt>
      <trkpt lat="43.6837" lon="7.07353">
        <ele>44</ele>
        <time>2026-05-16T13:53:19Z</time>
      </trkpt>
      <trkpt lat="43.68366" lon="7.07358">
        <ele>44.3</ele>
        <time>2026-05-16T13:53:20Z</time>
      </trkpt>
      <trkpt lat="43.68362" lon="7.0736">
        <ele>44.9</ele>
        <time>2026-05-16T13:53:21Z</time>
      </trkpt>
      <trkpt lat="43.68359" lon="7.07362">
        <ele>45.7</ele>
        <time>2026-05-16T13:53:22Z</time>
      </trkpt>
      <trkpt lat="43.68356" lon="7.07361">
        <ele>47</ele>
        <time>2026-05-16T13:53:23Z</time>
      </trkpt>
      <trkpt lat="43.68355" lon="7.07358">
        <ele>47.7</ele>
        <time>2026-05-16T13:53:24Z</time>
      </trkpt>
      <trkpt lat="43.68353" lon="7.07354">
        <ele>48.9</ele>
        <time>2026-05-16T13:53:25Z</time>
      </trkpt>
      <trkpt lat="43.68355" lon="7.07349">
        <ele>48.6</ele>
        <time>2026-05-16T13:53:26Z</time>
      </trkpt>
      <trkpt lat="43.68357" lon="7.07343">
        <ele>48.5</ele>
        <time>2026-05-16T13:53:27Z</time>
      </trkpt>
      <trkpt lat="43.68364" lon="7.07336">
        <ele>47.2</ele>
        <time>2026-05-16T13:53:28Z</time>
      </trkpt>
      <trkpt lat="43.68372" lon="7.07329">
        <ele>46.6</ele>
        <time>2026-05-16T13:53:29Z</time>
      </trkpt>
      <trkpt lat="43.6838" lon="7.07323">
        <ele>46.2</ele>
        <time>2026-05-16T13:53:30Z</time>
      </trkpt>
      <trkpt lat="43.6839" lon="7.07314">
        <ele>46.3</ele>
        <time>2026-05-16T13:53:31Z</time>
      </trkpt>
      <trkpt lat="43.684" lon="7.07302">
        <ele>47.2</ele>
        <time>2026-05-16T13:53:32Z</time>
      </trkpt>
      <trkpt lat="43.68408" lon="7.0729">
        <ele>48.8</ele>
        <time>2026-05-16T13:53:33Z</time>
      </trkpt>
      <trkpt lat="43.68415" lon="7.07276">
        <ele>50.8</ele>
        <time>2026-05-16T13:53:34Z</time>
      </trkpt>
      <trkpt lat="43.68423" lon="7.0726">
        <ele>53.7</ele>
        <time>2026-05-16T13:53:35Z</time>
      </trkpt>
      <trkpt lat="43.6843" lon="7.07244">
        <ele>56.2</ele>
        <time>2026-05-16T13:53:36Z</time>
      </trkpt>
      <trkpt lat="43.68439" lon="7.07229">
        <ele>57.2</ele>
        <time>2026-05-16T13:53:37Z</time>
      </trkpt>
      <trkpt lat="43.68449" lon="7.07215">
        <ele>57.9</ele>
        <time>2026-05-16T13:53:38Z</time>
      </trkpt>
      <trkpt lat="43.68458" lon="7.07201">
        <ele>60.2</ele>
        <time>2026-05-16T13:53:39Z</time>
      </trkpt>
      <trkpt lat="43.6847" lon="7.07189">
        <ele>62.6</ele>
        <time>2026-05-16T13:53:40Z</time>
      </trkpt>
      <trkpt lat="43.68481" lon="7.07177">
        <ele>66</ele>
        <time>2026-05-16T13:53:41Z</time>
      </trkpt>
      <trkpt lat="43.68493" lon="7.07164">
        <ele>69.6</ele>
        <time>2026-05-16T13:53:42Z</time>
      </trkpt>
      <trkpt lat="43.68505" lon="7.07152">
        <ele>73</ele>
        <time>2026-05-16T13:53:43Z</time>
      </trkpt>
      <trkpt lat="43.68517" lon="7.0714">
        <ele>75.6</ele>
        <time>2026-05-16T13:53:44Z</time>
      </trkpt>
      <trkpt lat="43.6853" lon="7.07129">
        <ele>77.9</ele>
        <time>2026-05-16T13:53:45Z</time>
      </trkpt>
      <trkpt lat="43.68544" lon="7.07121">
        <ele>79.4</ele>
        <time>2026-05-16T13:53:46Z</time>
      </trkpt>
      <trkpt lat="43.68559" lon="7.07117">
        <ele>78.4</ele>
        <time>2026-05-16T13:53:47Z</time>
      </trkpt>
      <trkpt lat="43.68574" lon="7.07114">
        <ele>77.2</ele>
        <time>2026-05-16T13:53:48Z</time>
      </trkpt>
      <trkpt lat="43.68589" lon="7.0711">
        <ele>76.3</ele>
        <time>2026-05-16T13:53:49Z</time>
      </trkpt>
      <trkpt lat="43.68602" lon="7.07104">
        <ele>77</ele>
        <time>2026-05-16T13:53:50Z</time>
      </trkpt>
      <trkpt lat="43.68616" lon="7.07097">
        <ele>78.2</ele>
        <time>2026-05-16T13:53:51Z</time>
      </trkpt>
      <trkpt lat="43.68629" lon="7.0709">
        <ele>79.3</ele>
        <time>2026-05-16T13:53:52Z</time>
      </trkpt>
      <trkpt lat="43.68641" lon="7.07081">
        <ele>81.8</ele>
        <time>2026-05-16T13:53:53Z</time>
      </trkpt>
      <trkpt lat="43.68652" lon="7.07072">
        <ele>83.8</ele>
        <time>2026-05-16T13:53:54Z</time>
      </trkpt>
      <trkpt lat="43.68664" lon="7.07064">
        <ele>85.1</ele>
        <time>2026-05-16T13:53:55Z</time>
      </trkpt>
      <trkpt lat="43.68676" lon="7.07058">
        <ele>86</ele>
        <time>2026-05-16T13:53:56Z</time>
      </trkpt>
      <trkpt lat="43.68691" lon="7.07052">
        <ele>86.4</ele>
        <time>2026-05-16T13:53:57Z</time>
      </trkpt>
      <trkpt lat="43.68704" lon="7.07047">
        <ele>87.8</ele>
        <time>2026-05-16T13:53:58Z</time>
      </trkpt>
      <trkpt lat="43.68717" lon="7.07042">
        <ele>89.1</ele>
        <time>2026-05-16T13:53:59Z</time>
      </trkpt>
      <trkpt lat="43.6873" lon="7.07038">
        <ele>89.9</ele>
        <time>2026-05-16T13:54:00Z</time>
      </trkpt>
      <trkpt lat="43.68742" lon="7.07035">
        <ele>90.3</ele>
        <time>2026-05-16T13:54:01Z</time>
      </trkpt>
      <trkpt lat="43.68754" lon="7.07031">
        <ele>90.9</ele>
        <time>2026-05-16T13:54:02Z</time>
      </trkpt>
      <trkpt lat="43.68765" lon="7.07027">
        <ele>91.2</ele>
        <time>2026-05-16T13:54:03Z</time>
      </trkpt>
      <trkpt lat="43.68776" lon="7.07022">
        <ele>91.6</ele>
        <time>2026-05-16T13:54:04Z</time>
      </trkpt>
      <trkpt lat="43.68784" lon="7.07016">
        <ele>91.3</ele>
        <time>2026-05-16T13:54:05Z</time>
      </trkpt>
      <trkpt lat="43.68791" lon="7.07006">
        <ele>91.6</ele>
        <time>2026-05-16T13:54:06Z</time>
      </trkpt>
      <trkpt lat="43.68794" lon="7.06993">
        <ele>93.4</ele>
        <time>2026-05-16T13:54:07Z</time>
      </trkpt>
      <trkpt lat="43.68797" lon="7.06979">
        <ele>94.5</ele>
        <time>2026-05-16T13:54:08Z</time>
      </trkpt>
      <trkpt lat="43.68795" lon="7.06961">
        <ele>99.3</ele>
        <time>2026-05-16T13:54:09Z</time>
      </trkpt>
      <trkpt lat="43.68798" lon="7.06943">
        <ele>100.3</ele>
        <time>2026-05-16T13:54:10Z</time>
      </trkpt>
      <trkpt lat="43.68803" lon="7.06927">
        <ele>100.4</ele>
        <time>2026-05-16T13:54:11Z</time>
      </trkpt>
      <trkpt lat="43.68808" lon="7.06911">
        <ele>100.7</ele>
        <time>2026-05-16T13:54:12Z</time>
      </trkpt>
      <trkpt lat="43.68811" lon="7.06895">
        <ele>102.4</ele>
        <time>2026-05-16T13:54:13Z</time>
      </trkpt>
      <trkpt lat="43.68813" lon="7.06877">
        <ele>103.5</ele>
        <time>2026-05-16T13:54:14Z</time>
      </trkpt>
      <trkpt lat="43.68815" lon="7.0686">
        <ele>103.6</ele>
        <time>2026-05-16T13:54:15Z</time>
      </trkpt>
      <trkpt lat="43.68817" lon="7.06843">
        <ele>103.4</ele>
        <time>2026-05-16T13:54:16Z</time>
      </trkpt>
      <trkpt lat="43.6882" lon="7.06827">
        <ele>102.9</ele>
        <time>2026-05-16T13:54:17Z</time>
      </trkpt>
      <trkpt lat="43.68822" lon="7.06812">
        <ele>103.4</ele>
        <time>2026-05-16T13:54:18Z</time>
      </trkpt>
      <trkpt lat="43.68825" lon="7.06799">
        <ele>102.1</ele>
        <time>2026-05-16T13:54:19Z</time>
      </trkpt>
      <trkpt lat="43.68826" lon="7.06788">
        <ele>100.8</ele>
        <time>2026-05-16T13:54:20Z</time>
      </trkpt>
      <trkpt lat="43.68824" lon="7.06779">
        <ele>101.1</ele>
        <time>2026-05-16T13:54:21Z</time>
      </trkpt>
      <trkpt lat="43.6882" lon="7.06772">
        <ele>100.7</ele>
        <time>2026-05-16T13:54:22Z</time>
      </trkpt>
      <trkpt lat="43.68813" lon="7.06769">
        <ele>102.8</ele>
        <time>2026-05-16T13:54:23Z</time>
      </trkpt>
      <trkpt lat="43.68805" lon="7.0677">
        <ele>106.7</ele>
        <time>2026-05-16T13:54:24Z</time>
      </trkpt>
      <trkpt lat="43.68796" lon="7.06775">
        <ele>111.3</ele>
        <time>2026-05-16T13:54:25Z</time>
      </trkpt>
      <trkpt lat="43.68786" lon="7.06776">
        <ele>114.9</ele>
        <time>2026-05-16T13:54:26Z</time>
      </trkpt>
      <trkpt lat="43.68776" lon="7.06773">
        <ele>117.7</ele>
        <time>2026-05-16T13:54:27Z</time>
      </trkpt>
      <trkpt lat="43.68765" lon="7.06768">
        <ele>122.3</ele>
        <time>2026-05-16T13:54:28Z</time>
      </trkpt>
      <trkpt lat="43.68755" lon="7.0676">
        <ele>125.3</ele>
        <time>2026-05-16T13:54:29Z</time>
      </trkpt>
      <trkpt lat="43.68748" lon="7.06748">
        <ele>125.9</ele>
        <time>2026-05-16T13:54:30Z</time>
      </trkpt>
      <trkpt lat="43.68745" lon="7.06733">
        <ele>124.9</ele>
        <time>2026-05-16T13:54:31Z</time>
      </trkpt>
      <trkpt lat="43.68742" lon="7.06716">
        <ele>123.6</ele>
        <time>2026-05-16T13:54:32Z</time>
      </trkpt>
      <trkpt lat="43.68736" lon="7.06701">
        <ele>124.6</ele>
        <time>2026-05-16T13:54:33Z</time>
      </trkpt>
      <trkpt lat="43.68728" lon="7.06686">
        <ele>126.4</ele>
        <time>2026-05-16T13:54:34Z</time>
      </trkpt>
      <trkpt lat="43.6872" lon="7.06669">
        <ele>127.4</ele>
        <time>2026-05-16T13:54:35Z</time>
      </trkpt>
      <trkpt lat="43.68713" lon="7.06652">
        <ele>127.9</ele>
        <time>2026-05-16T13:54:36Z</time>
      </trkpt>
      <trkpt lat="43.68707" lon="7.06632">
        <ele>127.3</ele>
        <time>2026-05-16T13:54:37Z</time>
      </trkpt>
      <trkpt lat="43.68701" lon="7.06613">
        <ele>126.8</ele>
        <time>2026-05-16T13:54:38Z</time>
      </trkpt>
      <trkpt lat="43.68695" lon="7.06595">
        <ele>125.7</ele>
        <time>2026-05-16T13:54:39Z</time>
      </trkpt>
      <trkpt lat="43.68688" lon="7.06581">
        <ele>124.7</ele>
        <time>2026-05-16T13:54:40Z</time>
      </trkpt>
      <trkpt lat="43.68678" lon="7.06572">
        <ele>125.9</ele>
        <time>2026-05-16T13:54:41Z</time>
      </trkpt>
      <trkpt lat="43.68667" lon="7.06566">
        <ele>128.5</ele>
        <time>2026-05-16T13:54:42Z</time>
      </trkpt>
      <trkpt lat="43.68655" lon="7.06557">
        <ele>130.5</ele>
        <time>2026-05-16T13:54:43Z</time>
      </trkpt>
      <trkpt lat="43.68645" lon="7.06545">
        <ele>131</ele>
        <time>2026-05-16T13:54:44Z</time>
      </trkpt>
      <trkpt lat="43.68638" lon="7.06531">
        <ele>130.1</ele>
        <time>2026-05-16T13:54:45Z</time>
      </trkpt>
      <trkpt lat="43.6863" lon="7.06518">
        <ele>129.5</ele>
        <time>2026-05-16T13:54:46Z</time>
      </trkpt>
      <trkpt lat="43.6862" lon="7.06507">
        <ele>130.3</ele>
        <time>2026-05-16T13:54:47Z</time>
      </trkpt>
      <trkpt lat="43.68608" lon="7.06497">
        <ele>132.3</ele>
        <time>2026-05-16T13:54:48Z</time>
      </trkpt>
      <trkpt lat="43.68595" lon="7.06488">
        <ele>134.7</ele>
        <time>2026-05-16T13:54:49Z</time>
      </trkpt>
      <trkpt lat="43.68584" lon="7.06476">
        <ele>135.8</ele>
        <time>2026-05-16T13:54:50Z</time>
      </trkpt>
      <trkpt lat="43.68573" lon="7.06464">
        <ele>138</ele>
        <time>2026-05-16T13:54:51Z</time>
      </trkpt>
      <trkpt lat="43.68562" lon="7.0645">
        <ele>139.5</ele>
        <time>2026-05-16T13:54:52Z</time>
      </trkpt>
      <trkpt lat="43.68551" lon="7.06434">
        <ele>140.9</ele>
        <time>2026-05-16T13:54:53Z</time>
      </trkpt>
      <trkpt lat="43.68542" lon="7.06418">
        <ele>141.7</ele>
        <time>2026-05-16T13:54:54Z</time>
      </trkpt>
      <trkpt lat="43.68532" lon="7.06401">
        <ele>143.1</ele>
        <time>2026-05-16T13:54:55Z</time>
      </trkpt>
      <trkpt lat="43.68522" lon="7.06384">
        <ele>145.9</ele>
        <time>2026-05-16T13:54:56Z</time>
      </trkpt>
      <trkpt lat="43.68514" lon="7.06366">
        <ele>147.7</ele>
        <time>2026-05-16T13:54:57Z</time>
      </trkpt>
      <trkpt lat="43.68506" lon="7.06348">
        <ele>147.3</ele>
        <time>2026-05-16T13:54:58Z</time>
      </trkpt>
      <trkpt lat="43.68498" lon="7.06329">
        <ele>146.5</ele>
        <time>2026-05-16T13:54:59Z</time>
      </trkpt>
      <trkpt lat="43.68491" lon="7.0631">
        <ele>150.4</ele>
        <time>2026-05-16T13:55:00Z</time>
      </trkpt>
      <trkpt lat="43.68485" lon="7.06291">
        <ele>152</ele>
        <time>2026-05-16T13:55:01Z</time>
      </trkpt>
      <trkpt lat="43.6848" lon="7.0627">
        <ele>152.8</ele>
        <time>2026-05-16T13:55:02Z</time>
      </trkpt>
      <trkpt lat="43.68476" lon="7.06249">
        <ele>153.7</ele>
        <time>2026-05-16T13:55:03Z</time>
      </trkpt>
      <trkpt lat="43.68472" lon="7.06228">
        <ele>155.6</ele>
        <time>2026-05-16T13:55:04Z</time>
      </trkpt>
      <trkpt lat="43.68469" lon="7.06206">
        <ele>156.5</ele>
        <time>2026-05-16T13:55:05Z</time>
      </trkpt>
      <trkpt lat="43.68465" lon="7.06184">
        <ele>158.2</ele>
        <time>2026-05-16T13:55:06Z</time>
      </trkpt>
      <trkpt lat="43.68461" lon="7.06162">
        <ele>160</ele>
        <time>2026-05-16T13:55:07Z</time>
      </trkpt>
      <trkpt lat="43.68457" lon="7.0614">
        <ele>161.6</ele>
        <time>2026-05-16T13:55:08Z</time>
      </trkpt>
      <trkpt lat="43.68452" lon="7.06118">
        <ele>164.3</ele>
        <time>2026-05-16T13:55:09Z</time>
      </trkpt>
      <trkpt lat="43.68449" lon="7.06096">
        <ele>164</ele>
        <time>2026-05-16T13:55:10Z</time>
      </trkpt>
      <trkpt lat="43.68447" lon="7.06076">
        <ele>162.6</ele>
        <time>2026-05-16T13:55:11Z</time>
      </trkpt>
      <trkpt lat="43.68445" lon="7.06057">
        <ele>161.8</ele>
        <time>2026-05-16T13:55:12Z</time>
      </trkpt>
      <trkpt lat="43.68442" lon="7.0604">
        <ele>161</ele>
        <time>2026-05-16T13:55:13Z</time>
      </trkpt>
      <trkpt lat="43.68437" lon="7.06025">
        <ele>160.8</ele>
        <time>2026-05-16T13:55:14Z</time>
      </trkpt>
      <trkpt lat="43.6843" lon="7.06011">
        <ele>160.7</ele>
        <time>2026-05-16T13:55:15Z</time>
      </trkpt>
      <trkpt lat="43.6842" lon="7.05998">
        <ele>161.8</ele>
        <time>2026-05-16T13:55:16Z</time>
      </trkpt>
      <trkpt lat="43.68409" lon="7.05986">
        <ele>164.2</ele>
        <time>2026-05-16T13:55:17Z</time>
      </trkpt>
      <trkpt lat="43.68397" lon="7.05974">
        <ele>166.6</ele>
        <time>2026-05-16T13:55:18Z</time>
      </trkpt>
      <trkpt lat="43.68386" lon="7.0596">
        <ele>167.8</ele>
        <time>2026-05-16T13:55:19Z</time>
      </trkpt>
      <trkpt lat="43.68376" lon="7.05944">
        <ele>168.3</ele>
        <time>2026-05-16T13:55:20Z</time>
      </trkpt>
      <trkpt lat="43.68367" lon="7.05926">
        <ele>168.9</ele>
        <time>2026-05-16T13:55:21Z</time>
      </trkpt>
      <trkpt lat="43.68358" lon="7.05909">
        <ele>169.6</ele>
        <time>2026-05-16T13:55:22Z</time>
      </trkpt>
      <trkpt lat="43.68348" lon="7.05892">
        <ele>171.7</ele>
        <time>2026-05-16T13:55:23Z</time>
      </trkpt>
      <trkpt lat="43.68339" lon="7.05876">
        <ele>173.4</ele>
        <time>2026-05-16T13:55:24Z</time>
      </trkpt>
      <trkpt lat="43.68331" lon="7.05861">
        <ele>173.7</ele>
        <time>2026-05-16T13:55:25Z</time>
      </trkpt>
      <trkpt lat="43.68323" lon="7.05848">
        <ele>175.1</ele>
        <time>2026-05-16T13:55:26Z</time>
      </trkpt>
      <trkpt lat="43.68318" lon="7.05837">
        <ele>175.3</ele>
        <time>2026-05-16T13:55:27Z</time>
      </trkpt>
      <trkpt lat="43.68316" lon="7.05825">
        <ele>175.9</ele>
        <time>2026-05-16T13:55:28Z</time>
      </trkpt>
      <trkpt lat="43.68318" lon="7.05812">
        <ele>176.1</ele>
        <time>2026-05-16T13:55:29Z</time>
      </trkpt>
      <trkpt lat="43.68325" lon="7.058">
        <ele>175.5</ele>
        <time>2026-05-16T13:55:30Z</time>
      </trkpt>
      <trkpt lat="43.68332" lon="7.05787">
        <ele>175.8</ele>
        <time>2026-05-16T13:55:31Z</time>
      </trkpt>
      <trkpt lat="43.6834" lon="7.05772">
        <ele>176.2</ele>
        <time>2026-05-16T13:55:32Z</time>
      </trkpt>
      <trkpt lat="43.68347" lon="7.05757">
        <ele>176.8</ele>
        <time>2026-05-16T13:55:33Z</time>
      </trkpt>
      <trkpt lat="43.68351" lon="7.05741">
        <ele>177.7</ele>
        <time>2026-05-16T13:55:34Z</time>
      </trkpt>
      <trkpt lat="43.68356" lon="7.05727">
        <ele>177.5</ele>
        <time>2026-05-16T13:55:35Z</time>
      </trkpt>
      <trkpt lat="43.6836" lon="7.05713">
        <ele>176.8</ele>
        <time>2026-05-16T13:55:36Z</time>
      </trkpt>
      <trkpt lat="43.68362" lon="7.057">
        <ele>176.5</ele>
        <time>2026-05-16T13:55:37Z</time>
      </trkpt>
      <trkpt lat="43.68362" lon="7.05687">
        <ele>176.2</ele>
        <time>2026-05-16T13:55:38Z</time>
      </trkpt>
      <trkpt lat="43.68358" lon="7.05674">
        <ele>176.5</ele>
        <time>2026-05-16T13:55:39Z</time>
      </trkpt>
      <trkpt lat="43.68351" lon="7.05662">
        <ele>177.4</ele>
        <time>2026-05-16T13:55:40Z</time>
      </trkpt>
      <trkpt lat="43.68342" lon="7.05653">
        <ele>178.5</ele>
        <time>2026-05-16T13:55:41Z</time>
      </trkpt>
      <trkpt lat="43.68331" lon="7.05643">
        <ele>179.5</ele>
        <time>2026-05-16T13:55:42Z</time>
      </trkpt>
      <trkpt lat="43.68319" lon="7.05633">
        <ele>182</ele>
        <time>2026-05-16T13:55:43Z</time>
      </trkpt>
      <trkpt lat="43.68307" lon="7.05623">
        <ele>183.8</ele>
        <time>2026-05-16T13:55:44Z</time>
      </trkpt>
      <trkpt lat="43.68296" lon="7.05611">
        <ele>185.1</ele>
        <time>2026-05-16T13:55:45Z</time>
      </trkpt>
      <trkpt lat="43.68285" lon="7.05599">
        <ele>187.4</ele>
        <time>2026-05-16T13:55:46Z</time>
      </trkpt>
      <trkpt lat="43.68276" lon="7.05585">
        <ele>187.9</ele>
        <time>2026-05-16T13:55:47Z</time>
      </trkpt>
      <trkpt lat="43.68268" lon="7.05569">
        <ele>189.7</ele>
        <time>2026-05-16T13:55:48Z</time>
      </trkpt>
      <trkpt lat="43.68261" lon="7.0555">
        <ele>190.6</ele>
        <time>2026-05-16T13:55:49Z</time>
      </trkpt>
      <trkpt lat="43.6826" lon="7.05527">
        <ele>189.1</ele>
        <time>2026-05-16T13:55:50Z</time>
      </trkpt>
      <trkpt lat="43.68257" lon="7.05508">
        <ele>189.1</ele>
        <time>2026-05-16T13:55:51Z</time>
      </trkpt>
      <trkpt lat="43.68253" lon="7.05488">
        <ele>189.1</ele>
        <time>2026-05-16T13:55:52Z</time>
      </trkpt>
      <trkpt lat="43.68249" lon="7.05468">
        <ele>189.5</ele>
        <time>2026-05-16T13:55:53Z</time>
      </trkpt>
      <trkpt lat="43.68247" lon="7.05448">
        <ele>190.3</ele>
        <time>2026-05-16T13:55:54Z</time>
      </trkpt>
      <trkpt lat="43.68248" lon="7.0543">
        <ele>189.3</ele>
        <time>2026-05-16T13:55:55Z</time>
      </trkpt>
      <trkpt lat="43.68249" lon="7.05412">
        <ele>188.2</ele>
        <time>2026-05-16T13:55:56Z</time>
      </trkpt>
      <trkpt lat="43.68247" lon="7.05395">
        <ele>188.3</ele>
        <time>2026-05-16T13:55:57Z</time>
      </trkpt>
      <trkpt lat="43.68243" lon="7.05378">
        <ele>189.5</ele>
        <time>2026-05-16T13:55:58Z</time>
      </trkpt>
      <trkpt lat="43.68236" lon="7.0536">
        <ele>191</ele>
        <time>2026-05-16T13:55:59Z</time>
      </trkpt>
      <trkpt lat="43.68228" lon="7.05343">
        <ele>191</ele>
        <time>2026-05-16T13:56:00Z</time>
      </trkpt>
      <trkpt lat="43.68219" lon="7.05327">
        <ele>190.9</ele>
        <time>2026-05-16T13:56:01Z</time>
      </trkpt>
      <trkpt lat="43.68209" lon="7.05311">
        <ele>192.1</ele>
        <time>2026-05-16T13:56:02Z</time>
      </trkpt>
      <trkpt lat="43.68199" lon="7.05293">
        <ele>191.8</ele>
        <time>2026-05-16T13:56:03Z</time>
      </trkpt>
      <trkpt lat="43.68189" lon="7.05275">
        <ele>191.6</ele>
        <time>2026-05-16T13:56:04Z</time>
      </trkpt>
      <trkpt lat="43.68177" lon="7.05259">
        <ele>193.1</ele>
        <time>2026-05-16T13:56:05Z</time>
      </trkpt>
      <trkpt lat="43.68165" lon="7.05244">
        <ele>192.8</ele>
        <time>2026-05-16T13:56:06Z</time>
      </trkpt>
      <trkpt lat="43.68152" lon="7.05228">
        <ele>193.2</ele>
        <time>2026-05-16T13:56:07Z</time>
      </trkpt>
      <trkpt lat="43.68141" lon="7.05212">
        <ele>192.7</ele>
        <time>2026-05-16T13:56:08Z</time>
      </trkpt>
      <trkpt lat="43.6813" lon="7.05197">
        <ele>192.6</ele>
        <time>2026-05-16T13:56:09Z</time>
      </trkpt>
      <trkpt lat="43.68118" lon="7.05186">
        <ele>193.1</ele>
        <time>2026-05-16T13:56:10Z</time>
      </trkpt>
      <trkpt lat="43.68106" lon="7.05176">
        <ele>192.8</ele>
        <time>2026-05-16T13:56:11Z</time>
      </trkpt>
      <trkpt lat="43.68094" lon="7.05167">
        <ele>192.3</ele>
        <time>2026-05-16T13:56:12Z</time>
      </trkpt>
      <trkpt lat="43.68082" lon="7.0516">
        <ele>192.4</ele>
        <time>2026-05-16T13:56:13Z</time>
      </trkpt>
      <trkpt lat="43.6807" lon="7.05154">
        <ele>192.2</ele>
        <time>2026-05-16T13:56:14Z</time>
      </trkpt>
      <trkpt lat="43.68059" lon="7.05147">
        <ele>191.4</ele>
        <time>2026-05-16T13:56:15Z</time>
      </trkpt>
      <trkpt lat="43.68047" lon="7.05141">
        <ele>191</ele>
        <time>2026-05-16T13:56:16Z</time>
      </trkpt>
      <trkpt lat="43.68037" lon="7.05131">
        <ele>191.1</ele>
        <time>2026-05-16T13:56:17Z</time>
      </trkpt>
      <trkpt lat="43.68027" lon="7.05119">
        <ele>191.3</ele>
        <time>2026-05-16T13:56:18Z</time>
      </trkpt>
      <trkpt lat="43.68019" lon="7.05104">
        <ele>191.5</ele>
        <time>2026-05-16T13:56:19Z</time>
      </trkpt>
      <trkpt lat="43.68011" lon="7.05087">
        <ele>191.9</ele>
        <time>2026-05-16T13:56:20Z</time>
      </trkpt>
      <trkpt lat="43.68004" lon="7.05069">
        <ele>191.7</ele>
        <time>2026-05-16T13:56:21Z</time>
      </trkpt>
      <trkpt lat="43.67998" lon="7.0505">
        <ele>191.8</ele>
        <time>2026-05-16T13:56:22Z</time>
      </trkpt>
      <trkpt lat="43.67996" lon="7.05024">
        <ele>193</ele>
        <time>2026-05-16T13:56:23Z</time>
      </trkpt>
      <trkpt lat="43.67995" lon="7.05001">
        <ele>192.9</ele>
        <time>2026-05-16T13:56:24Z</time>
      </trkpt>
      <trkpt lat="43.67991" lon="7.04977">
        <ele>193.4</ele>
        <time>2026-05-16T13:56:25Z</time>
      </trkpt>
      <trkpt lat="43.67988" lon="7.04954">
        <ele>193.7</ele>
        <time>2026-05-16T13:56:26Z</time>
      </trkpt>
      <trkpt lat="43.67985" lon="7.04931">
        <ele>194.2</ele>
        <time>2026-05-16T13:56:27Z</time>
      </trkpt>
      <trkpt lat="43.67983" lon="7.04909">
        <ele>194.6</ele>
        <time>2026-05-16T13:56:28Z</time>
      </trkpt>
      <trkpt lat="43.6798" lon="7.04888">
        <ele>195.1</ele>
        <time>2026-05-16T13:56:29Z</time>
      </trkpt>
      <trkpt lat="43.67976" lon="7.0487">
        <ele>195</ele>
        <time>2026-05-16T13:56:30Z</time>
      </trkpt>
      <trkpt lat="43.6797" lon="7.04854">
        <ele>194.8</ele>
        <time>2026-05-16T13:56:31Z</time>
      </trkpt>
      <trkpt lat="43.67959" lon="7.04843">
        <ele>195.5</ele>
        <time>2026-05-16T13:56:32Z</time>
      </trkpt>
      <trkpt lat="43.67946" lon="7.04832">
        <ele>195.8</ele>
        <time>2026-05-16T13:56:33Z</time>
      </trkpt>
      <trkpt lat="43.67934" lon="7.04821">
        <ele>196.4</ele>
        <time>2026-05-16T13:56:34Z</time>
      </trkpt>
      <trkpt lat="43.6792" lon="7.0481">
        <ele>195.7</ele>
        <time>2026-05-16T13:56:35Z</time>
      </trkpt>
      <trkpt lat="43.67905" lon="7.04799">
        <ele>197</ele>
        <time>2026-05-16T13:56:36Z</time>
      </trkpt>
      <trkpt lat="43.67893" lon="7.04786">
        <ele>197.1</ele>
        <time>2026-05-16T13:56:37Z</time>
      </trkpt>
      <trkpt lat="43.67881" lon="7.04773">
        <ele>197.5</ele>
        <time>2026-05-16T13:56:38Z</time>
      </trkpt>
      <trkpt lat="43.6787" lon="7.0476">
        <ele>198.3</ele>
        <time>2026-05-16T13:56:39Z</time>
      </trkpt>
      <trkpt lat="43.67861" lon="7.04746">
        <ele>198</ele>
        <time>2026-05-16T13:56:40Z</time>
      </trkpt>
      <trkpt lat="43.67855" lon="7.04731">
        <ele>198.4</ele>
        <time>2026-05-16T13:56:41Z</time>
      </trkpt>
      <trkpt lat="43.6785" lon="7.04717">
        <ele>198.4</ele>
        <time>2026-05-16T13:56:42Z</time>
      </trkpt>
      <trkpt lat="43.67848" lon="7.04701">
        <ele>198.5</ele>
        <time>2026-05-16T13:56:43Z</time>
      </trkpt>
      <trkpt lat="43.67849" lon="7.04683">
        <ele>198.8</ele>
        <time>2026-05-16T13:56:44Z</time>
      </trkpt>
      <trkpt lat="43.67855" lon="7.04663">
        <ele>199.4</ele>
        <time>2026-05-16T13:56:45Z</time>
      </trkpt>
      <trkpt lat="43.67856" lon="7.04645">
        <ele>200.1</ele>
        <time>2026-05-16T13:56:46Z</time>
      </trkpt>
      <trkpt lat="43.67855" lon="7.04628">
        <ele>200.2</ele>
        <time>2026-05-16T13:56:47Z</time>
      </trkpt>
      <trkpt lat="43.6785" lon="7.04613">
        <ele>200.6</ele>
        <time>2026-05-16T13:56:48Z</time>
      </trkpt>
      <trkpt lat="43.67842" lon="7.04598">
        <ele>201.2</ele>
        <time>2026-05-16T13:56:49Z</time>
      </trkpt>
      <trkpt lat="43.67835" lon="7.04581">
        <ele>200.9</ele>
        <time>2026-05-16T13:56:50Z</time>
      </trkpt>
      <trkpt lat="43.67831" lon="7.04564">
        <ele>200.5</ele>
        <time>2026-05-16T13:56:51Z</time>
      </trkpt>
      <trkpt lat="43.67829" lon="7.04545">
        <ele>200.6</ele>
        <time>2026-05-16T13:56:52Z</time>
      </trkpt>
      <trkpt lat="43.67829" lon="7.04526">
        <ele>201.2</ele>
        <time>2026-05-16T13:56:53Z</time>
      </trkpt>
      <trkpt lat="43.67831" lon="7.04506">
        <ele>201.1</ele>
        <time>2026-05-16T13:56:54Z</time>
      </trkpt>
      <trkpt lat="43.67834" lon="7.04487">
        <ele>201.5</ele>
        <time>2026-05-16T13:56:55Z</time>
      </trkpt>
      <trkpt lat="43.67839" lon="7.04469">
        <ele>202.4</ele>
        <time>2026-05-16T13:56:56Z</time>
      </trkpt>
      <trkpt lat="43.67844" lon="7.0445">
        <ele>203.1</ele>
        <time>2026-05-16T13:56:57Z</time>
      </trkpt>
      <trkpt lat="43.67851" lon="7.04432">
        <ele>204</ele>
        <time>2026-05-16T13:56:58Z</time>
      </trkpt>
      <trkpt lat="43.6786" lon="7.04412">
        <ele>204</ele>
        <time>2026-05-16T13:56:59Z</time>
      </trkpt>
      <trkpt lat="43.6787" lon="7.04395">
        <ele>205.3</ele>
        <time>2026-05-16T13:57:00Z</time>
      </trkpt>
      <trkpt lat="43.67879" lon="7.0438">
        <ele>205</ele>
        <time>2026-05-16T13:57:01Z</time>
      </trkpt>
      <trkpt lat="43.67888" lon="7.04365">
        <ele>204</ele>
        <time>2026-05-16T13:57:02Z</time>
      </trkpt>
      <trkpt lat="43.67896" lon="7.04349">
        <ele>205.3</ele>
        <time>2026-05-16T13:57:03Z</time>
      </trkpt>
      <trkpt lat="43.67899" lon="7.04332">
        <ele>206.7</ele>
        <time>2026-05-16T13:57:04Z</time>
      </trkpt>
      <trkpt lat="43.67902" lon="7.04314">
        <ele>206.9</ele>
        <time>2026-05-16T13:57:05Z</time>
      </trkpt>
      <trkpt lat="43.67902" lon="7.04297">
        <ele>206.9</ele>
        <time>2026-05-16T13:57:06Z</time>
      </trkpt>
      <trkpt lat="43.67897" lon="7.04281">
        <ele>206.8</ele>
        <time>2026-05-16T13:57:07Z</time>
      </trkpt>
      <trkpt lat="43.67889" lon="7.04267">
        <ele>207</ele>
        <time>2026-05-16T13:57:08Z</time>
      </trkpt>
      <trkpt lat="43.67879" lon="7.04255">
        <ele>208.4</ele>
        <time>2026-05-16T13:57:09Z</time>
      </trkpt>
      <trkpt lat="43.67867" lon="7.04246">
        <ele>209.1</ele>
        <time>2026-05-16T13:57:10Z</time>
      </trkpt>
      <trkpt lat="43.67854" lon="7.04238">
        <ele>210.1</ele>
        <time>2026-05-16T13:57:11Z</time>
      </trkpt>
      <trkpt lat="43.67841" lon="7.04229">
        <ele>210.2</ele>
        <time>2026-05-16T13:57:12Z</time>
      </trkpt>
      <trkpt lat="43.6783" lon="7.0422">
        <ele>209.8</ele>
        <time>2026-05-16T13:57:13Z</time>
      </trkpt>
      <trkpt lat="43.67819" lon="7.04211">
        <ele>211.7</ele>
        <time>2026-05-16T13:57:14Z</time>
      </trkpt>
      <trkpt lat="43.67809" lon="7.04197">
        <ele>211.1</ele>
        <time>2026-05-16T13:57:15Z</time>
      </trkpt>
      <trkpt lat="43.67804" lon="7.04178">
        <ele>210.7</ele>
        <time>2026-05-16T13:57:16Z</time>
      </trkpt>
      <trkpt lat="43.678" lon="7.04159">
        <ele>211.3</ele>
        <time>2026-05-16T13:57:17Z</time>
      </trkpt>
      <trkpt lat="43.67801" lon="7.04139">
        <ele>211.8</ele>
        <time>2026-05-16T13:57:18Z</time>
      </trkpt>
      <trkpt lat="43.67802" lon="7.04118">
        <ele>211.6</ele>
        <time>2026-05-16T13:57:19Z</time>
      </trkpt>
      <trkpt lat="43.6781" lon="7.04101">
        <ele>210.8</ele>
        <time>2026-05-16T13:57:20Z</time>
      </trkpt>
      <trkpt lat="43.67816" lon="7.04084">
        <ele>210.6</ele>
        <time>2026-05-16T13:57:21Z</time>
      </trkpt>
      <trkpt lat="43.67821" lon="7.04067">
        <ele>210.7</ele>
        <time>2026-05-16T13:57:22Z</time>
      </trkpt>
      <trkpt lat="43.67826" lon="7.0405">
        <ele>210.7</ele>
        <time>2026-05-16T13:57:23Z</time>
      </trkpt>
      <trkpt lat="43.67829" lon="7.04034">
        <ele>211</ele>
        <time>2026-05-16T13:57:24Z</time>
      </trkpt>
      <trkpt lat="43.67833" lon="7.04018">
        <ele>211.4</ele>
        <time>2026-05-16T13:57:25Z</time>
      </trkpt>
      <trkpt lat="43.67837" lon="7.04003">
        <ele>211.9</ele>
        <time>2026-05-16T13:57:26Z</time>
      </trkpt>
      <trkpt lat="43.67842" lon="7.03989">
        <ele>212</ele>
        <time>2026-05-16T13:57:27Z</time>
      </trkpt>
      <trkpt lat="43.67847" lon="7.03975">
        <ele>212</ele>
        <time>2026-05-16T13:57:28Z</time>
      </trkpt>
      <trkpt lat="43.67852" lon="7.03962">
        <ele>212.4</ele>
        <time>2026-05-16T13:57:29Z</time>
      </trkpt>
      <trkpt lat="43.67857" lon="7.03948">
        <ele>212.9</ele>
        <time>2026-05-16T13:57:30Z</time>
      </trkpt>
      <trkpt lat="43.67861" lon="7.03935">
        <ele>213</ele>
        <time>2026-05-16T13:57:31Z</time>
      </trkpt>
      <trkpt lat="43.67865" lon="7.03922">
        <ele>213</ele>
        <time>2026-05-16T13:57:32Z</time>
      </trkpt>
      <trkpt lat="43.67869" lon="7.03911">
        <ele>213.2</ele>
        <time>2026-05-16T13:57:33Z</time>
      </trkpt>
      <trkpt lat="43.67873" lon="7.039">
        <ele>213.6</ele>
        <time>2026-05-16T13:57:34Z</time>
      </trkpt>
      <trkpt lat="43.67877" lon="7.03889">
        <ele>214</ele>
        <time>2026-05-16T13:57:35Z</time>
      </trkpt>
      <trkpt lat="43.6788" lon="7.0388">
        <ele>214</ele>
        <time>2026-05-16T13:57:36Z</time>
      </trkpt>
      <trkpt lat="43.67883" lon="7.0387">
        <ele>214</ele>
        <time>2026-05-16T13:57:37Z</time>
      </trkpt>
      <trkpt lat="43.67886" lon="7.03862">
        <ele>214</ele>
        <time>2026-05-16T13:57:38Z</time>
      </trkpt>
      <trkpt lat="43.67888" lon="7.03856">
        <ele>214.2</ele>
        <time>2026-05-16T13:57:39Z</time>
      </trkpt>
      <trkpt lat="43.6789" lon="7.03849">
        <ele>214.4</ele>
        <time>2026-05-16T13:57:40Z</time>
      </trkpt>
      <trkpt lat="43.67891" lon="7.03842">
        <ele>214.6</ele>
        <time>2026-05-16T13:57:41Z</time>
      </trkpt>
      <trkpt lat="43.67894" lon="7.03835">
        <ele>214.8</ele>
        <time>2026-05-16T13:57:42Z</time>
      </trkpt>
      <trkpt lat="43.67896" lon="7.03828">
        <ele>214.8</ele>
        <time>2026-05-16T13:57:43Z</time>
      </trkpt>
      <trkpt lat="43.67899" lon="7.0382">
        <ele>214.8</ele>
        <time>2026-05-16T13:57:44Z</time>
      </trkpt>
      <trkpt lat="43.67902" lon="7.03808">
        <ele>215</ele>
        <time>2026-05-16T13:57:45Z</time>
      </trkpt>
      <trkpt lat="43.67906" lon="7.03795">
        <ele>215.2</ele>
        <time>2026-05-16T13:57:46Z</time>
      </trkpt>
      <trkpt lat="43.6791" lon="7.03782">
        <ele>215.6</ele>
        <time>2026-05-16T13:57:47Z</time>
      </trkpt>
      <trkpt lat="43.67916" lon="7.03768">
        <ele>216</ele>
        <time>2026-05-16T13:57:48Z</time>
      </trkpt>
      <trkpt lat="43.67922" lon="7.03752">
        <ele>216</ele>
        <time>2026-05-16T13:57:49Z</time>
      </trkpt>
      <trkpt lat="43.67928" lon="7.03735">
        <ele>216.5</ele>
        <time>2026-05-16T13:57:50Z</time>
      </trkpt>
      <trkpt lat="43.67934" lon="7.03718">
        <ele>217.1</ele>
        <time>2026-05-16T13:57:51Z</time>
      </trkpt>
      <trkpt lat="43.67938" lon="7.03702">
        <ele>217.6</ele>
        <time>2026-05-16T13:57:52Z</time>
      </trkpt>
      <trkpt lat="43.67943" lon="7.03686">
        <ele>218</ele>
        <time>2026-05-16T13:57:53Z</time>
      </trkpt>
      <trkpt lat="43.67949" lon="7.03671">
        <ele>218</ele>
        <time>2026-05-16T13:57:54Z</time>
      </trkpt>
      <trkpt lat="43.67953" lon="7.03657">
        <ele>218.2</ele>
        <time>2026-05-16T13:57:55Z</time>
      </trkpt>
      <trkpt lat="43.67957" lon="7.03643">
        <ele>218.5</ele>
        <time>2026-05-16T13:57:56Z</time>
      </trkpt>
      <trkpt lat="43.67962" lon="7.0363">
        <ele>218.7</ele>
        <time>2026-05-16T13:57:57Z</time>
      </trkpt>
      <trkpt lat="43.67965" lon="7.03618">
        <ele>219</ele>
        <time>2026-05-16T13:57:58Z</time>
      </trkpt>
      <trkpt lat="43.67969" lon="7.03607">
        <ele>219.4</ele>
        <time>2026-05-16T13:57:59Z</time>
      </trkpt>
      <trkpt lat="43.67971" lon="7.03599">
        <ele>219.9</ele>
        <time>2026-05-16T13:58:00Z</time>
      </trkpt>
      <trkpt lat="43.67973" lon="7.03592">
        <ele>220.4</ele>
        <time>2026-05-16T13:58:01Z</time>
      </trkpt>
      <trkpt lat="43.67975" lon="7.03586">
        <ele>220.8</ele>
        <time>2026-05-16T13:58:02Z</time>
      </trkpt>
      <trkpt lat="43.67977" lon="7.03581">
        <ele>221.1</ele>
        <time>2026-05-16T13:58:03Z</time>
      </trkpt>
      <trkpt lat="43.67978" lon="7.03576">
        <ele>221.2</ele>
        <time>2026-05-16T13:58:04Z</time>
      </trkpt>
      <trkpt lat="43.6798" lon="7.0357">
        <ele>221.3</ele>
        <time>2026-05-16T13:58:05Z</time>
      </trkpt>
      <trkpt lat="43.67981" lon="7.03563">
        <ele>221.5</ele>
        <time>2026-05-16T13:58:06Z</time>
      </trkpt>
      <trkpt lat="43.67983" lon="7.03556">
        <ele>221.6</ele>
        <time>2026-05-16T13:58:07Z</time>
      </trkpt>
      <trkpt lat="43.67986" lon="7.03548">
        <ele>221.6</ele>
        <time>2026-05-16T13:58:08Z</time>
      </trkpt>
      <trkpt lat="43.67988" lon="7.0354">
        <ele>221.8</ele>
        <time>2026-05-16T13:58:09Z</time>
      </trkpt>
      <trkpt lat="43.6799" lon="7.03532">
        <ele>221.9</ele>
        <time>2026-05-16T13:58:10Z</time>
      </trkpt>
      <trkpt lat="43.67993" lon="7.03525">
        <ele>222.1</ele>
        <time>2026-05-16T13:58:11Z</time>
      </trkpt>
      <trkpt lat="43.67994" lon="7.0352">
        <ele>222.3</ele>
        <time>2026-05-16T13:58:12Z</time>
      </trkpt>
      <trkpt lat="43.67995" lon="7.03517">
        <ele>222.4</ele>
        <time>2026-05-16T13:58:13Z</time>
      </trkpt>
      <trkpt lat="43.67997" lon="7.03514">
        <ele>222.5</ele>
        <time>2026-05-16T13:58:14Z</time>
      </trkpt>
      <trkpt lat="43.67997" lon="7.03512">
        <ele>222.6</ele>
        <time>2026-05-16T13:58:15Z</time>
      </trkpt>
      <trkpt lat="43.67997" lon="7.03511">
        <ele>222.6</ele>
        <time>2026-05-16T13:58:16Z</time>
      </trkpt>
      <trkpt lat="43.67997" lon="7.0351">
        <ele>222.6</ele>
        <time>2026-05-16T13:58:17Z</time>
      </trkpt>
      <trkpt lat="43.67997" lon="7.0351">
        <ele>222.6</ele>
        <time>2026-05-16T13:58:18Z</time>
      </trkpt>
      <trkpt lat="43.67997" lon="7.0351">
        <ele>222.6</ele>
        <time>2026-05-16T13:58:19Z</time>
      </trkpt>
      <trkpt lat="43.67996" lon="7.0351">
        <ele>222.6</ele>
        <time>2026-05-16T13:58:20Z</time>
      </trkpt>
      <trkpt lat="43.67996" lon="7.0351">
        <ele>222.6</ele>
        <time>2026-05-16T13:58:21Z</time>
      </trkpt>
      <trkpt lat="43.67996" lon="7.0351">
        <ele>222.6</ele>
        <time>2026-05-16T13:58:22Z</time>
      </trkpt>
      <trkpt lat="43.67996" lon="7.0351">
        <ele>222.6</ele>
        <time>2026-05-16T13:58:23Z</time>
      </trkpt>
      <trkpt lat="43.67996" lon="7.0351">
        <ele>222.6</ele>
        <time>2026-05-16T13:58:24Z</time>
      </trkpt>
      <trkpt lat="43.67996" lon="7.0351">
        <ele>222.6</ele>
        <time>2026-05-16T13:58:25Z</time>
      </trkpt>
      <trkpt lat="43.67996" lon="7.0351">
        <ele>222.6</ele>
        <time>2026-05-16T13:58:26Z</time>
      </trkpt>
      <trkpt lat="43.67996" lon="7.0351">
        <ele>222.6</ele>
        <time>2026-05-16T13:58:27Z</time>
      </trkpt>
      <trkpt lat="43.67996" lon="7.0351">
        <ele>222.6</ele>
        <time>2026-05-16T13:58:28Z</time>
      </trkpt>
      <trkpt lat="43.67996" lon="7.0351">
        <ele>222.6</ele>
        <time>2026-05-16T13:58:29Z</time>
      </trkpt>
      <trkpt lat="43.67996" lon="7.0351">
        <ele>222.6</ele>
        <time>2026-05-16T13:58:30Z</time>
      </trkpt>
      <trkpt lat="43.67996" lon="7.0351">
        <ele>222.6</ele>
        <time>2026-05-16T13:58:31Z</time>
      </trkpt>
      <trkpt lat="43.67996" lon="7.0351">
        <ele>222.6</ele>
        <time>2026-05-16T13:58:32Z</time>
      </trkpt>
      <trkpt lat="43.67996" lon="7.0351">
        <ele>222.6</ele>
        <time>2026-05-16T13:58:33Z</time>
      </trkpt>
      <trkpt lat="43.67996" lon="7.0351">
        <ele>222.6</ele>
        <time>2026-05-16T13:58:34Z</time>
      </trkpt>
      <trkpt lat="43.67996" lon="7.0351">
        <ele>222.6</ele>
        <time>2026-05-16T13:58:35Z</time>
      </trkpt>
      <trkpt lat="43.67996" lon="7.0351">
        <ele>222.6</ele>
        <time>2026-05-16T13:58:36Z</time>
      </trkpt>
      <trkpt lat="43.67996" lon="7.0351">
        <ele>222.6</ele>
        <time>2026-05-16T13:58:37Z</time>
      </trkpt>
      <trkpt lat="43.67996" lon="7.0351">
        <ele>222.6</ele>
        <time>2026-05-16T13:58:38Z</time>
      </trkpt>
      <trkpt lat="43.67996" lon="7.0351">
        <ele>222.6</ele>
        <time>2026-05-16T13:58:39Z</time>
      </trkpt>
      <trkpt lat="43.67996" lon="7.0351">
        <ele>222.6</ele>
        <time>2026-05-16T13:58:40Z</time>
      </trkpt>
      <trkpt lat="43.67996" lon="7.0351">
        <ele>222.6</ele>
        <time>2026-05-16T13:58:41Z</time>
      </trkpt>
      <trkpt lat="43.67996" lon="7.0351">
        <ele>222.6</ele>
        <time>2026-05-16T13:58:42Z</time>
      </trkpt>
      <trkpt lat="43.67996" lon="7.0351">
        <ele>222.6</ele>
        <time>2026-05-16T13:58:43Z</time>
      </trkpt>
      <trkpt lat="43.67996" lon="7.0351">
        <ele>222.6</ele>
        <time>2026-05-16T13:58:44Z</time>
      </trkpt>
      <trkpt lat="43.67996" lon="7.0351">
        <ele>222.6</ele>
        <time>2026-05-16T13:58:45Z</time>
      </trkpt>
      <trkpt lat="43.67996" lon="7.0351">
        <ele>222.6</ele>
        <time>2026-05-16T13:58:46Z</time>
      </trkpt>
      <trkpt lat="43.67996" lon="7.0351">
        <ele>222.6</ele>
        <time>2026-05-16T13:58:47Z</time>
      </trkpt>
      <trkpt lat="43.67996" lon="7.0351">
        <ele>222.6</ele>
        <time>2026-05-16T13:58:48Z</time>
      </trkpt>
      <trkpt lat="43.67996" lon="7.0351">
        <ele>222.6</ele>
        <time>2026-05-16T13:58:49Z</time>
      </trkpt>
      <trkpt lat="43.67996" lon="7.0351">
        <ele>222.6</ele>
        <time>2026-05-16T13:58:50Z</time>
      </trkpt>
      <trkpt lat="43.67996" lon="7.03509">
        <ele>222.7</ele>
        <time>2026-05-16T13:58:51Z</time>
      </trkpt>
      <trkpt lat="43.67997" lon="7.03506">
        <ele>222.8</ele>
        <time>2026-05-16T13:58:52Z</time>
      </trkpt>
      <trkpt lat="43.67999" lon="7.035">
        <ele>223</ele>
        <time>2026-05-16T13:58:53Z</time>
      </trkpt>
      <trkpt lat="43.68002" lon="7.03493">
        <ele>223.3</ele>
        <time>2026-05-16T13:58:54Z</time>
      </trkpt>
      <trkpt lat="43.68004" lon="7.03487">
        <ele>223.5</ele>
        <time>2026-05-16T13:58:55Z</time>
      </trkpt>
      <trkpt lat="43.68005" lon="7.03483">
        <ele>223.6</ele>
        <time>2026-05-16T13:58:56Z</time>
      </trkpt>
      <trkpt lat="43.68006" lon="7.03478">
        <ele>223.8</ele>
        <time>2026-05-16T13:58:57Z</time>
      </trkpt>
      <trkpt lat="43.68006" lon="7.03473">
        <ele>224</ele>
        <time>2026-05-16T13:58:58Z</time>
      </trkpt>
      <trkpt lat="43.68003" lon="7.03469">
        <ele>224.1</ele>
        <time>2026-05-16T13:58:59Z</time>
      </trkpt>
      <trkpt lat="43.67999" lon="7.03467">
        <ele>224.2</ele>
        <time>2026-05-16T13:59:00Z</time>
      </trkpt>
      <trkpt lat="43.67992" lon="7.03469">
        <ele>224.1</ele>
        <time>2026-05-16T13:59:01Z</time>
      </trkpt>
      <trkpt lat="43.67983" lon="7.03472">
        <ele>224</ele>
        <time>2026-05-16T13:59:02Z</time>
      </trkpt>
      <trkpt lat="43.67974" lon="7.03475">
        <ele>223.9</ele>
        <time>2026-05-16T13:59:03Z</time>
      </trkpt>
      <trkpt lat="43.67961" lon="7.0348">
        <ele>223.3</ele>
        <time>2026-05-16T13:59:04Z</time>
      </trkpt>
      <trkpt lat="43.67949" lon="7.03483">
        <ele>222.8</ele>
        <time>2026-05-16T13:59:05Z</time>
      </trkpt>
      <trkpt lat="43.67935" lon="7.03485">
        <ele>222.5</ele>
        <time>2026-05-16T13:59:06Z</time>
      </trkpt>
      <trkpt lat="43.6792" lon="7.03485">
        <ele>222.5</ele>
        <time>2026-05-16T13:59:07Z</time>
      </trkpt>
      <trkpt lat="43.67905" lon="7.03487">
        <ele>222.5</ele>
        <time>2026-05-16T13:59:08Z</time>
      </trkpt>
      <trkpt lat="43.6789" lon="7.0349">
        <ele>222.4</ele>
        <time>2026-05-16T13:59:09Z</time>
      </trkpt>
      <trkpt lat="43.67875" lon="7.03493">
        <ele>222.8</ele>
        <time>2026-05-16T13:59:10Z</time>
      </trkpt>
      <trkpt lat="43.67861" lon="7.03496">
        <ele>223.1</ele>
        <time>2026-05-16T13:59:11Z</time>
      </trkpt>
      <trkpt lat="43.67847" lon="7.035">
        <ele>223</ele>
        <time>2026-05-16T13:59:12Z</time>
      </trkpt>
      <trkpt lat="43.67833" lon="7.03503">
        <ele>223</ele>
        <time>2026-05-16T13:59:13Z</time>
      </trkpt>
      <trkpt lat="43.67818" lon="7.03506">
        <ele>222.9</ele>
        <time>2026-05-16T13:59:14Z</time>
      </trkpt>
      <trkpt lat="43.67804" lon="7.0351">
        <ele>222.6</ele>
        <time>2026-05-16T13:59:15Z</time>
      </trkpt>
      <trkpt lat="43.6779" lon="7.03514">
        <ele>222.2</ele>
        <time>2026-05-16T13:59:16Z</time>
      </trkpt>
      <trkpt lat="43.67777" lon="7.03518">
        <ele>222</ele>
        <time>2026-05-16T13:59:17Z</time>
      </trkpt>
      <trkpt lat="43.67764" lon="7.03521">
        <ele>222</ele>
        <time>2026-05-16T13:59:18Z</time>
      </trkpt>
      <trkpt lat="43.67754" lon="7.03523">
        <ele>222</ele>
        <time>2026-05-16T13:59:19Z</time>
      </trkpt>
      <trkpt lat="43.67745" lon="7.03526">
        <ele>222</ele>
        <time>2026-05-16T13:59:20Z</time>
      </trkpt>
      <trkpt lat="43.67737" lon="7.03529">
        <ele>222</ele>
        <time>2026-05-16T13:59:21Z</time>
      </trkpt>
      <trkpt lat="43.67728" lon="7.03531">
        <ele>222</ele>
        <time>2026-05-16T13:59:22Z</time>
      </trkpt>
      <trkpt lat="43.67719" lon="7.03534">
        <ele>222</ele>
        <time>2026-05-16T13:59:23Z</time>
      </trkpt>
      <trkpt lat="43.6771" lon="7.03539">
        <ele>222.2</ele>
        <time>2026-05-16T13:59:24Z</time>
      </trkpt>
      <trkpt lat="43.67698" lon="7.03542">
        <ele>222.4</ele>
        <time>2026-05-16T13:59:25Z</time>
      </trkpt>
      <trkpt lat="43.67686" lon="7.03547">
        <ele>222.9</ele>
        <time>2026-05-16T13:59:26Z</time>
      </trkpt>
      <trkpt lat="43.67673" lon="7.03551">
        <ele>223.5</ele>
        <time>2026-05-16T13:59:27Z</time>
      </trkpt>
      <trkpt lat="43.67659" lon="7.03557">
        <ele>224.1</ele>
        <time>2026-05-16T13:59:28Z</time>
      </trkpt>
      <trkpt lat="43.67645" lon="7.03563">
        <ele>224.3</ele>
        <time>2026-05-16T13:59:29Z</time>
      </trkpt>
      <trkpt lat="43.67631" lon="7.03571">
        <ele>224</ele>
        <time>2026-05-16T13:59:30Z</time>
      </trkpt>
      <trkpt lat="43.67617" lon="7.03581">
        <ele>223.3</ele>
        <time>2026-05-16T13:59:31Z</time>
      </trkpt>
      <trkpt lat="43.67604" lon="7.03592">
        <ele>223</ele>
        <time>2026-05-16T13:59:32Z</time>
      </trkpt>
      <trkpt lat="43.6759" lon="7.03605">
        <ele>222.4</ele>
        <time>2026-05-16T13:59:33Z</time>
      </trkpt>
      <trkpt lat="43.67576" lon="7.0362">
        <ele>221.6</ele>
        <time>2026-05-16T13:59:34Z</time>
      </trkpt>
      <trkpt lat="43.67563" lon="7.03636">
        <ele>220</ele>
        <time>2026-05-16T13:59:35Z</time>
      </trkpt>
      <trkpt lat="43.67549" lon="7.03652">
        <ele>218.2</ele>
        <time>2026-05-16T13:59:36Z</time>
      </trkpt>
      <trkpt lat="43.67535" lon="7.03668">
        <ele>216.5</ele>
        <time>2026-05-16T13:59:37Z</time>
      </trkpt>
      <trkpt lat="43.67522" lon="7.03684">
        <ele>215.6</ele>
        <time>2026-05-16T13:59:38Z</time>
      </trkpt>
      <trkpt lat="43.67508" lon="7.037">
        <ele>215.4</ele>
        <time>2026-05-16T13:59:39Z</time>
      </trkpt>
      <trkpt lat="43.67496" lon="7.03716">
        <ele>214.6</ele>
        <time>2026-05-16T13:59:40Z</time>
      </trkpt>
      <trkpt lat="43.67483" lon="7.03732">
        <ele>214</ele>
        <time>2026-05-16T13:59:41Z</time>
      </trkpt>
      <trkpt lat="43.67472" lon="7.03747">
        <ele>213.2</ele>
        <time>2026-05-16T13:59:42Z</time>
      </trkpt>
      <trkpt lat="43.6746" lon="7.03763">
        <ele>212.8</ele>
        <time>2026-05-16T13:59:43Z</time>
      </trkpt>
      <trkpt lat="43.67449" lon="7.03777">
        <ele>211.4</ele>
        <time>2026-05-16T13:59:44Z</time>
      </trkpt>
      <trkpt lat="43.67436" lon="7.0379">
        <ele>210.3</ele>
        <time>2026-05-16T13:59:45Z</time>
      </trkpt>
      <trkpt lat="43.67424" lon="7.03801">
        <ele>209.4</ele>
        <time>2026-05-16T13:59:46Z</time>
      </trkpt>
      <trkpt lat="43.6741" lon="7.0381">
        <ele>208.6</ele>
        <time>2026-05-16T13:59:47Z</time>
      </trkpt>
      <trkpt lat="43.67399" lon="7.03817">
        <ele>208.2</ele>
        <time>2026-05-16T13:59:48Z</time>
      </trkpt>
      <trkpt lat="43.6739" lon="7.03823">
        <ele>208</ele>
        <time>2026-05-16T13:59:49Z</time>
      </trkpt>
      <trkpt lat="43.67382" lon="7.03829">
        <ele>207.8</ele>
        <time>2026-05-16T13:59:50Z</time>
      </trkpt>
      <trkpt lat="43.67375" lon="7.03834">
        <ele>207.5</ele>
        <time>2026-05-16T13:59:51Z</time>
      </trkpt>
      <trkpt lat="43.67368" lon="7.03838">
        <ele>207.3</ele>
        <time>2026-05-16T13:59:52Z</time>
      </trkpt>
      <trkpt lat="43.67363" lon="7.03843">
        <ele>207.1</ele>
        <time>2026-05-16T13:59:53Z</time>
      </trkpt>
      <trkpt lat="43.67356" lon="7.03848">
        <ele>206.9</ele>
        <time>2026-05-16T13:59:54Z</time>
      </trkpt>
      <trkpt lat="43.67349" lon="7.03853">
        <ele>206.7</ele>
        <time>2026-05-16T13:59:55Z</time>
      </trkpt>
      <trkpt lat="43.67341" lon="7.03858">
        <ele>206.4</ele>
        <time>2026-05-16T13:59:56Z</time>
      </trkpt>
      <trkpt lat="43.67332" lon="7.03864">
        <ele>205.9</ele>
        <time>2026-05-16T13:59:57Z</time>
      </trkpt>
      <trkpt lat="43.67323" lon="7.0387">
        <ele>206</ele>
        <time>2026-05-16T13:59:58Z</time>
      </trkpt>
      <trkpt lat="43.67316" lon="7.03875">
        <ele>205.9</ele>
        <time>2026-05-16T13:59:59Z</time>
      </trkpt>
      <trkpt lat="43.6731" lon="7.03881">
        <ele>205.6</ele>
        <time>2026-05-16T14:00:00Z</time>
      </trkpt>
      <trkpt lat="43.67305" lon="7.03887">
        <ele>205.2</ele>
        <time>2026-05-16T14:00:01Z</time>
      </trkpt>
      <trkpt lat="43.67299" lon="7.03893">
        <ele>204.9</ele>
        <time>2026-05-16T14:00:02Z</time>
      </trkpt>
      <trkpt lat="43.67292" lon="7.03899">
        <ele>204.8</ele>
        <time>2026-05-16T14:00:03Z</time>
      </trkpt>
      <trkpt lat="43.67286" lon="7.03907">
        <ele>204.4</ele>
        <time>2026-05-16T14:00:04Z</time>
      </trkpt>
      <trkpt lat="43.67278" lon="7.03915">
        <ele>204.1</ele>
        <time>2026-05-16T14:00:05Z</time>
      </trkpt>
      <trkpt lat="43.6727" lon="7.03925">
        <ele>203.6</ele>
        <time>2026-05-16T14:00:06Z</time>
      </trkpt>
      <trkpt lat="43.67262" lon="7.03936">
        <ele>202.9</ele>
        <time>2026-05-16T14:00:07Z</time>
      </trkpt>
      <trkpt lat="43.67253" lon="7.03947">
        <ele>201.9</ele>
        <time>2026-05-16T14:00:08Z</time>
      </trkpt>
      <trkpt lat="43.67246" lon="7.03956">
        <ele>201.1</ele>
        <time>2026-05-16T14:00:09Z</time>
      </trkpt>
      <trkpt lat="43.6724" lon="7.03964">
        <ele>200.5</ele>
        <time>2026-05-16T14:00:10Z</time>
      </trkpt>
      <trkpt lat="43.67235" lon="7.03971">
        <ele>200.1</ele>
        <time>2026-05-16T14:00:11Z</time>
      </trkpt>
      <trkpt lat="43.6723" lon="7.03978">
        <ele>199.9</ele>
        <time>2026-05-16T14:00:12Z</time>
      </trkpt>
      <trkpt lat="43.67225" lon="7.03984">
        <ele>200</ele>
        <time>2026-05-16T14:00:13Z</time>
      </trkpt>
      <trkpt lat="43.6722" lon="7.03992">
        <ele>199.9</ele>
        <time>2026-05-16T14:00:14Z</time>
      </trkpt>
      <trkpt lat="43.67213" lon="7.04">
        <ele>199.7</ele>
        <time>2026-05-16T14:00:15Z</time>
      </trkpt>
      <trkpt lat="43.67207" lon="7.04008">
        <ele>199.6</ele>
        <time>2026-05-16T14:00:16Z</time>
      </trkpt>
      <trkpt lat="43.67198" lon="7.04017">
        <ele>199.7</ele>
        <time>2026-05-16T14:00:17Z</time>
      </trkpt>
      <trkpt lat="43.67189" lon="7.04027">
        <ele>200</ele>
        <time>2026-05-16T14:00:18Z</time>
      </trkpt>
      <trkpt lat="43.6718" lon="7.04036">
        <ele>200.3</ele>
        <time>2026-05-16T14:00:19Z</time>
      </trkpt>
      <trkpt lat="43.6717" lon="7.04045">
        <ele>200.1</ele>
        <time>2026-05-16T14:00:20Z</time>
      </trkpt>
      <trkpt lat="43.6716" lon="7.04053">
        <ele>199.7</ele>
        <time>2026-05-16T14:00:21Z</time>
      </trkpt>
      <trkpt lat="43.6715" lon="7.04061">
        <ele>199.8</ele>
        <time>2026-05-16T14:00:22Z</time>
      </trkpt>
      <trkpt lat="43.67139" lon="7.0407">
        <ele>200</ele>
        <time>2026-05-16T14:00:23Z</time>
      </trkpt>
      <trkpt lat="43.67128" lon="7.04077">
        <ele>200.2</ele>
        <time>2026-05-16T14:00:24Z</time>
      </trkpt>
      <trkpt lat="43.67116" lon="7.04083">
        <ele>200.2</ele>
        <time>2026-05-16T14:00:25Z</time>
      </trkpt>
      <trkpt lat="43.67102" lon="7.0409">
        <ele>200.6</ele>
        <time>2026-05-16T14:00:26Z</time>
      </trkpt>
      <trkpt lat="43.67089" lon="7.04097">
        <ele>200.8</ele>
        <time>2026-05-16T14:00:27Z</time>
      </trkpt>
      <trkpt lat="43.67075" lon="7.04104">
        <ele>200.7</ele>
        <time>2026-05-16T14:00:28Z</time>
      </trkpt>
      <trkpt lat="43.67061" lon="7.04111">
        <ele>200.4</ele>
        <time>2026-05-16T14:00:29Z</time>
      </trkpt>
      <trkpt lat="43.67047" lon="7.04118">
        <ele>200.2</ele>
        <time>2026-05-16T14:00:30Z</time>
      </trkpt>
      <trkpt lat="43.67032" lon="7.04125">
        <ele>199.5</ele>
        <time>2026-05-16T14:00:31Z</time>
      </trkpt>
      <trkpt lat="43.67018" lon="7.04132">
        <ele>198.9</ele>
        <time>2026-05-16T14:00:32Z</time>
      </trkpt>
      <trkpt lat="43.67003" lon="7.04139">
        <ele>198.2</ele>
        <time>2026-05-16T14:00:33Z</time>
      </trkpt>
      <trkpt lat="43.66987" lon="7.04146">
        <ele>197.6</ele>
        <time>2026-05-16T14:00:34Z</time>
      </trkpt>
      <trkpt lat="43.66972" lon="7.04153">
        <ele>197</ele>
        <time>2026-05-16T14:00:35Z</time>
      </trkpt>
      <trkpt lat="43.66958" lon="7.0416">
        <ele>196.2</ele>
        <time>2026-05-16T14:00:36Z</time>
      </trkpt>
      <trkpt lat="43.66944" lon="7.04169">
        <ele>195.2</ele>
        <time>2026-05-16T14:00:37Z</time>
      </trkpt>
      <trkpt lat="43.66931" lon="7.04178">
        <ele>195.1</ele>
        <time>2026-05-16T14:00:38Z</time>
      </trkpt>
      <trkpt lat="43.66919" lon="7.04189">
        <ele>194.3</ele>
        <time>2026-05-16T14:00:39Z</time>
      </trkpt>
      <trkpt lat="43.66909" lon="7.042">
        <ele>194.2</ele>
        <time>2026-05-16T14:00:40Z</time>
      </trkpt>
      <trkpt lat="43.66903" lon="7.04208">
        <ele>194.3</ele>
        <time>2026-05-16T14:00:41Z</time>
      </trkpt>
      <trkpt lat="43.66898" lon="7.04215">
        <ele>194.1</ele>
        <time>2026-05-16T14:00:42Z</time>
      </trkpt>
      <trkpt lat="43.66895" lon="7.04219">
        <ele>193.8</ele>
        <time>2026-05-16T14:00:43Z</time>
      </trkpt>
      <trkpt lat="43.66892" lon="7.04223">
        <ele>193.5</ele>
        <time>2026-05-16T14:00:44Z</time>
      </trkpt>
      <trkpt lat="43.6689" lon="7.04227">
        <ele>193.3</ele>
        <time>2026-05-16T14:00:45Z</time>
      </trkpt>
      <trkpt lat="43.66888" lon="7.0423">
        <ele>193.2</ele>
        <time>2026-05-16T14:00:46Z</time>
      </trkpt>
      <trkpt lat="43.66887" lon="7.04233">
        <ele>193.3</ele>
        <time>2026-05-16T14:00:47Z</time>
      </trkpt>
      <trkpt lat="43.66886" lon="7.04234">
        <ele>193.3</ele>
        <time>2026-05-16T14:00:48Z</time>
      </trkpt>
      <trkpt lat="43.66885" lon="7.04234">
        <ele>193.2</ele>
        <time>2026-05-16T14:00:49Z</time>
      </trkpt>
      <trkpt lat="43.66885" lon="7.04235">
        <ele>193.3</ele>
        <time>2026-05-16T14:00:50Z</time>
      </trkpt>
      <trkpt lat="43.66885" lon="7.04235">
        <ele>193.3</ele>
        <time>2026-05-16T14:00:51Z</time>
      </trkpt>
      <trkpt lat="43.66884" lon="7.04236">
        <ele>193.2</ele>
        <time>2026-05-16T14:00:52Z</time>
      </trkpt>
      <trkpt lat="43.66882" lon="7.04238">
        <ele>193.2</ele>
        <time>2026-05-16T14:00:53Z</time>
      </trkpt>
      <trkpt lat="43.66879" lon="7.04242">
        <ele>193.1</ele>
        <time>2026-05-16T14:00:54Z</time>
      </trkpt>
      <trkpt lat="43.66875" lon="7.04247">
        <ele>192.9</ele>
        <time>2026-05-16T14:00:55Z</time>
      </trkpt>
      <trkpt lat="43.6687" lon="7.04253">
        <ele>192.6</ele>
        <time>2026-05-16T14:00:56Z</time>
      </trkpt>
      <trkpt lat="43.66864" lon="7.04259">
        <ele>192</ele>
        <time>2026-05-16T14:00:57Z</time>
      </trkpt>
      <trkpt lat="43.66858" lon="7.04264">
        <ele>191.7</ele>
        <time>2026-05-16T14:00:58Z</time>
      </trkpt>
      <trkpt lat="43.66853" lon="7.04267">
        <ele>191.9</ele>
        <time>2026-05-16T14:00:59Z</time>
      </trkpt>
      <trkpt lat="43.66847" lon="7.04269">
        <ele>192.2</ele>
        <time>2026-05-16T14:01:00Z</time>
      </trkpt>
      <trkpt lat="43.66841" lon="7.04267">
        <ele>192.6</ele>
        <time>2026-05-16T14:01:01Z</time>
      </trkpt>
      <trkpt lat="43.66835" lon="7.04266">
        <ele>192.9</ele>
        <time>2026-05-16T14:01:02Z</time>
      </trkpt>
      <trkpt lat="43.66829" lon="7.04266">
        <ele>193.1</ele>
        <time>2026-05-16T14:01:03Z</time>
      </trkpt>
      <trkpt lat="43.66824" lon="7.04268">
        <ele>193</ele>
        <time>2026-05-16T14:01:04Z</time>
      </trkpt>
      <trkpt lat="43.66821" lon="7.04272">
        <ele>192.7</ele>
        <time>2026-05-16T14:01:05Z</time>
      </trkpt>
      <trkpt lat="43.66819" lon="7.04274">
        <ele>192.4</ele>
        <time>2026-05-16T14:01:06Z</time>
      </trkpt>
      <trkpt lat="43.66818" lon="7.04276">
        <ele>192.1</ele>
        <time>2026-05-16T14:01:07Z</time>
      </trkpt>
      <trkpt lat="43.66817" lon="7.04278">
        <ele>191.8</ele>
        <time>2026-05-16T14:01:08Z</time>
      </trkpt>
      <trkpt lat="43.66815" lon="7.0428">
        <ele>191.6</ele>
        <time>2026-05-16T14:01:09Z</time>
      </trkpt>
      <trkpt lat="43.66814" lon="7.04283">
        <ele>191.5</ele>
        <time>2026-05-16T14:01:10Z</time>
      </trkpt>
      <trkpt lat="43.66813" lon="7.04285">
        <ele>191.4</ele>
        <time>2026-05-16T14:01:11Z</time>
      </trkpt>
      <trkpt lat="43.66812" lon="7.04287">
        <ele>191.3</ele>
        <time>2026-05-16T14:01:12Z</time>
      </trkpt>
      <trkpt lat="43.66811" lon="7.0429">
        <ele>191.2</ele>
        <time>2026-05-16T14:01:13Z</time>
      </trkpt>
      <trkpt lat="43.6681" lon="7.04293">
        <ele>191.1</ele>
        <time>2026-05-16T14:01:14Z</time>
      </trkpt>
      <trkpt lat="43.66809" lon="7.04295">
        <ele>191.1</ele>
        <time>2026-05-16T14:01:15Z</time>
      </trkpt>
      <trkpt lat="43.66808" lon="7.04297">
        <ele>191.1</ele>
        <time>2026-05-16T14:01:16Z</time>
      </trkpt>
      <trkpt lat="43.66806" lon="7.04299">
        <ele>191</ele>
        <time>2026-05-16T14:01:17Z</time>
      </trkpt>
      <trkpt lat="43.66805" lon="7.043">
        <ele>191.1</ele>
        <time>2026-05-16T14:01:18Z</time>
      </trkpt>
      <trkpt lat="43.66804" lon="7.04302">
        <ele>191.2</ele>
        <time>2026-05-16T14:01:19Z</time>
      </trkpt>
      <trkpt lat="43.66803" lon="7.04303">
        <ele>191.3</ele>
        <time>2026-05-16T14:01:20Z</time>
      </trkpt>
      <trkpt lat="43.66803" lon="7.04303">
        <ele>191.3</ele>
        <time>2026-05-16T14:01:21Z</time>
      </trkpt>
      <trkpt lat="43.66803" lon="7.04303">
        <ele>191.3</ele>
        <time>2026-05-16T14:01:22Z</time>
      </trkpt>
      <trkpt lat="43.66802" lon="7.04305">
        <ele>191.4</ele>
        <time>2026-05-16T14:01:23Z</time>
      </trkpt>
      <trkpt lat="43.66801" lon="7.04308">
        <ele>191.4</ele>
        <time>2026-05-16T14:01:24Z</time>
      </trkpt>
      <trkpt lat="43.66799" lon="7.04312">
        <ele>191.3</ele>
        <time>2026-05-16T14:01:25Z</time>
      </trkpt>
      <trkpt lat="43.66798" lon="7.04315">
        <ele>191.2</ele>
        <time>2026-05-16T14:01:26Z</time>
      </trkpt>
      <trkpt lat="43.66797" lon="7.04318">
        <ele>191.1</ele>
        <time>2026-05-16T14:01:27Z</time>
      </trkpt>
      <trkpt lat="43.66796" lon="7.0432">
        <ele>191</ele>
        <time>2026-05-16T14:01:28Z</time>
      </trkpt>
      <trkpt lat="43.66795" lon="7.04323">
        <ele>190.8</ele>
        <time>2026-05-16T14:01:29Z</time>
      </trkpt>
      <trkpt lat="43.66793" lon="7.04325">
        <ele>190.7</ele>
        <time>2026-05-16T14:01:30Z</time>
      </trkpt>
      <trkpt lat="43.6679" lon="7.04325">
        <ele>190.8</ele>
        <time>2026-05-16T14:01:31Z</time>
      </trkpt>
      <trkpt lat="43.66788" lon="7.04325">
        <ele>190.9</ele>
        <time>2026-05-16T14:01:32Z</time>
      </trkpt>
      <trkpt lat="43.66787" lon="7.04322">
        <ele>191.2</ele>
        <time>2026-05-16T14:01:33Z</time>
      </trkpt>
      <trkpt lat="43.66787" lon="7.04317">
        <ele>191.8</ele>
        <time>2026-05-16T14:01:34Z</time>
      </trkpt>
      <trkpt lat="43.66788" lon="7.04312">
        <ele>192.2</ele>
        <time>2026-05-16T14:01:35Z</time>
      </trkpt>
      <trkpt lat="43.66789" lon="7.04308">
        <ele>192.5</ele>
        <time>2026-05-16T14:01:36Z</time>
      </trkpt>
      <trkpt lat="43.66791" lon="7.04305">
        <ele>192.6</ele>
        <time>2026-05-16T14:01:37Z</time>
      </trkpt>
      <trkpt lat="43.66793" lon="7.04301">
        <ele>192.2</ele>
        <time>2026-05-16T14:01:38Z</time>
      </trkpt>
      <trkpt lat="43.66794" lon="7.04299">
        <ele>192.1</ele>
        <time>2026-05-16T14:01:39Z</time>
      </trkpt>
      <trkpt lat="43.66794" lon="7.04296">
        <ele>192</ele>
        <time>2026-05-16T14:01:40Z</time>
      </trkpt>
      <trkpt lat="43.66794" lon="7.04293">
        <ele>191.9</ele>
        <time>2026-05-16T14:01:41Z</time>
      </trkpt>
      <trkpt lat="43.66792" lon="7.04289">
        <ele>191.9</ele>
        <time>2026-05-16T14:01:42Z</time>
      </trkpt>
      <trkpt lat="43.6679" lon="7.04287">
        <ele>191.9</ele>
        <time>2026-05-16T14:01:43Z</time>
      </trkpt>
      <trkpt lat="43.66787" lon="7.04285">
        <ele>192</ele>
        <time>2026-05-16T14:01:44Z</time>
      </trkpt>
      <trkpt lat="43.66785" lon="7.04284">
        <ele>192.1</ele>
        <time>2026-05-16T14:01:45Z</time>
      </trkpt>
      <trkpt lat="43.66782" lon="7.04283">
        <ele>192.2</ele>
        <time>2026-05-16T14:01:46Z</time>
      </trkpt>
      <trkpt lat="43.6678" lon="7.04281">
        <ele>192.1</ele>
        <time>2026-05-16T14:01:47Z</time>
      </trkpt>
      <trkpt lat="43.66779" lon="7.04279">
        <ele>192</ele>
        <time>2026-05-16T14:01:48Z</time>
      </trkpt>
      <trkpt lat="43.66778" lon="7.04277">
        <ele>192.2</ele>
        <time>2026-05-16T14:01:49Z</time>
      </trkpt>
      <trkpt lat="43.66778" lon="7.04276">
        <ele>192.4</ele>
        <time>2026-05-16T14:01:50Z</time>
      </trkpt>
      <trkpt lat="43.66777" lon="7.04275">
        <ele>192.9</ele>
        <time>2026-05-16T14:01:51Z</time>
      </trkpt>
      <trkpt lat="43.66777" lon="7.04274">
        <ele>193.1</ele>
        <time>2026-05-16T14:01:52Z</time>
      </trkpt>
      <trkpt lat="43.66777" lon="7.04272">
        <ele>193.6</ele>
        <time>2026-05-16T14:01:53Z</time>
      </trkpt>
      <trkpt lat="43.66778" lon="7.04272">
        <ele>193.4</ele>
        <time>2026-05-16T14:01:54Z</time>
      </trkpt>
      <trkpt lat="43.66778" lon="7.04271">
        <ele>193.7</ele>
        <time>2026-05-16T14:01:55Z</time>
      </trkpt>
      <trkpt lat="43.66779" lon="7.04271">
        <ele>193.7</ele>
        <time>2026-05-16T14:01:56Z</time>
      </trkpt>
      <trkpt lat="43.66779" lon="7.04271">
        <ele>193.7</ele>
        <time>2026-05-16T14:01:57Z</time>
      </trkpt>
      <trkpt lat="43.66779" lon="7.04271">
        <ele>193.7</ele>
        <time>2026-05-16T14:01:58Z</time>
      </trkpt>
      <trkpt lat="43.66779" lon="7.04272">
        <ele>193.4</ele>
        <time>2026-05-16T14:01:59Z</time>
      </trkpt>
      <trkpt lat="43.66779" lon="7.04272">
        <ele>193.4</ele>
        <time>2026-05-16T14:02:00Z</time>
      </trkpt>
      <trkpt lat="43.66779" lon="7.04272">
        <ele>193.4</ele>
        <time>2026-05-16T14:02:01Z</time>
      </trkpt>
      <trkpt lat="43.66778" lon="7.04272">
        <ele>193.4</ele>
        <time>2026-05-16T14:02:02Z</time>
      </trkpt>
      <trkpt lat="43.66778" lon="7.04271">
        <ele>193.7</ele>
        <time>2026-05-16T14:02:03Z</time>
      </trkpt>
      <trkpt lat="43.66778" lon="7.04272">
        <ele>193.4</ele>
        <time>2026-05-16T14:02:04Z</time>
      </trkpt>
      <trkpt lat="43.66778" lon="7.04272">
        <ele>193.4</ele>
        <time>2026-05-16T14:02:05Z</time>
      </trkpt>
      <trkpt lat="43.66778" lon="7.04272">
        <ele>193.4</ele>
        <time>2026-05-16T14:02:06Z</time>
      </trkpt>
      <trkpt lat="43.66778" lon="7.04272">
        <ele>193.4</ele>
        <time>2026-05-16T14:02:07Z</time>
      </trkpt>
      <trkpt lat="43.66778" lon="7.04272">
        <ele>193.4</ele>
        <time>2026-05-16T14:02:08Z</time>
      </trkpt>
      <trkpt lat="43.66778" lon="7.04272">
        <ele>193.4</ele>
        <time>2026-05-16T14:02:09Z</time>
      </trkpt>
      <trkpt lat="43.66778" lon="7.04272">
        <ele>193.4</ele>
        <time>2026-05-16T14:02:10Z</time>
      </trkpt>
      <trkpt lat="43.66778" lon="7.04272">
        <ele>193.4</ele>
        <time>2026-05-16T14:02:11Z</time>
      </trkpt>
      <trkpt lat="43.66778" lon="7.04272">
        <ele>193.4</ele>
        <time>2026-05-16T14:02:12Z</time>
      </trkpt>
      <trkpt lat="43.66778" lon="7.04272">
        <ele>193.4</ele>
        <time>2026-05-16T14:02:13Z</time>
      </trkpt>
      <trkpt lat="43.66778" lon="7.04272">
        <ele>193.4</ele>
        <time>2026-05-16T14:02:14Z</time>
      </trkpt>
      <trkpt lat="43.66778" lon="7.04272">
        <ele>193.4</ele>
        <time>2026-05-16T14:02:15Z</time>
      </trkpt>
      <trkpt lat="43.66778" lon="7.04272">
        <ele>193.4</ele>
        <time>2026-05-16T14:02:16Z</time>
      </trkpt>
      <trkpt lat="43.66778" lon="7.04272">
        <ele>193.4</ele>
        <time>2026-05-16T14:02:17Z</time>
      </trkpt>
      <trkpt lat="43.66778" lon="7.04272">
        <ele>193.4</ele>
        <time>2026-05-16T14:02:18Z</time>
      </trkpt>
      <trkpt lat="43.66778" lon="7.04272">
        <ele>193.4</ele>
        <time>2026-05-16T14:02:19Z</time>
      </trkpt>
      <trkpt lat="43.66778" lon="7.04272">
        <ele>193.4</ele>
        <time>2026-05-16T14:02:20Z</time>
      </trkpt>
      <trkpt lat="43.66778" lon="7.04272">
        <ele>193.4</ele>
        <time>2026-05-16T14:02:21Z</time>
      </trkpt>
      <trkpt lat="43.66778" lon="7.04272">
        <ele>193.4</ele>
        <time>2026-05-16T14:02:22Z</time>
      </trkpt>
      <trkpt lat="43.66778" lon="7.04272">
        <ele>193.4</ele>
        <time>2026-05-16T14:02:23Z</time>
      </trkpt>
      <trkpt lat="43.66778" lon="7.04272">
        <ele>193.4</ele>
        <time>2026-05-16T14:02:24Z</time>
      </trkpt>
      <trkpt lat="43.66778" lon="7.04272">
        <ele>193.4</ele>
        <time>2026-05-16T14:02:25Z</time>
      </trkpt>
      <trkpt lat="43.66778" lon="7.04272">
        <ele>193.4</ele>
        <time>2026-05-16T14:02:26Z</time>
      </trkpt>
      <trkpt lat="43.66778" lon="7.04272">
        <ele>193.4</ele>
        <time>2026-05-16T14:02:27Z</time>
      </trkpt>
      <trkpt lat="43.66778" lon="7.04272">
        <ele>193.4</ele>
        <time>2026-05-16T14:02:28Z</time>
      </trkpt>
      <trkpt lat="43.66778" lon="7.04272">
        <ele>193.4</ele>
        <time>2026-05-16T14:02:29Z</time>
      </trkpt>
      <trkpt lat="43.66778" lon="7.04272">
        <ele>193.4</ele>
        <time>2026-05-16T14:02:30Z</time>
      </trkpt>
      <trkpt lat="43.66778" lon="7.04272">
        <ele>193.4</ele>
        <time>2026-05-16T14:02:31Z</time>
      </trkpt>
      <trkpt lat="43.66778" lon="7.04272">
        <ele>193.4</ele>
        <time>2026-05-16T14:02:32Z</time>
      </trkpt>
      <trkpt lat="43.66778" lon="7.04272">
        <ele>193.4</ele>
        <time>2026-05-16T14:02:33Z</time>
      </trkpt>
      <trkpt lat="43.66778" lon="7.04272">
        <ele>193.4</ele>
        <time>2026-05-16T14:02:34Z</time>
      </trkpt>
      <trkpt lat="43.66778" lon="7.04272">
        <ele>193.4</ele>
        <time>2026-05-16T14:02:35Z</time>
      </trkpt>
      <trkpt lat="43.66778" lon="7.04272">
        <ele>193.4</ele>
        <time>2026-05-16T14:02:36Z</time>
      </trkpt>
      <trkpt lat="43.66778" lon="7.04272">
        <ele>193.4</ele>
        <time>2026-05-16T14:02:37Z</time>
      </trkpt>
      <trkpt lat="43.66778" lon="7.04272">
        <ele>193.4</ele>
        <time>2026-05-16T14:02:38Z</time>
      </trkpt>
      <trkpt lat="43.66778" lon="7.04272">
        <ele>193.4</ele>
        <time>2026-05-16T14:02:39Z</time>
      </trkpt>
      <trkpt lat="43.66778" lon="7.04272">
        <ele>193.4</ele>
        <time>2026-05-16T14:02:40Z</time>
      </trkpt>
      <trkpt lat="43.66778" lon="7.04272">
        <ele>193.4</ele>
        <time>2026-05-16T14:02:41Z</time>
      </trkpt>
      <trkpt lat="43.66778" lon="7.04272">
        <ele>193.4</ele>
        <time>2026-05-16T14:02:42Z</time>
      </trkpt>
      <trkpt lat="43.66778" lon="7.04272">
        <ele>193.4</ele>
        <time>2026-05-16T14:02:43Z</time>
      </trkpt>
      <trkpt lat="43.66778" lon="7.04272">
        <ele>193.4</ele>
        <time>2026-05-16T14:02:44Z</time>
      </trkpt>
      <trkpt lat="43.66778" lon="7.04272">
        <ele>193.4</ele>
        <time>2026-05-16T14:02:45Z</time>
      </trkpt>
      <trkpt lat="43.66778" lon="7.04272">
        <ele>193.4</ele>
        <time>2026-05-16T14:02:46Z</time>
      </trkpt>
      <trkpt lat="43.66778" lon="7.04272">
        <ele>193.4</ele>
        <time>2026-05-16T14:02:47Z</time>
      </trkpt>
      <trkpt lat="43.66778" lon="7.04272">
        <ele>193.4</ele>
        <time>2026-05-16T14:02:48Z</time>
      </trkpt>
      <trkpt lat="43.66778" lon="7.04272">
        <ele>193.4</ele>
        <time>2026-05-16T14:02:49Z</time>
      </trkpt>
      <trkpt lat="43.66778" lon="7.04272">
        <ele>193.4</ele>
        <time>2026-05-16T14:02:50Z</time>
      </trkpt>
      <trkpt lat="43.66778" lon="7.04272">
        <ele>193.4</ele>
        <time>2026-05-16T14:02:51Z</time>
      </trkpt>
      <trkpt lat="43.66778" lon="7.04272">
        <ele>193.4</ele>
        <time>2026-05-16T14:02:52Z</time>
      </trkpt>
      <trkpt lat="43.66778" lon="7.04272">
        <ele>193.4</ele>
        <time>2026-05-16T14:02:53Z</time>
      </trkpt>
      <trkpt lat="43.66778" lon="7.04272">
        <ele>193.4</ele>
        <time>2026-05-16T14:02:54Z</time>
      </trkpt>
      <trkpt lat="43.66778" lon="7.04272">
        <ele>193.4</ele>
        <time>2026-05-16T14:02:55Z</time>
      </trkpt>
      <trkpt lat="43.66779" lon="7.04272">
        <ele>193.4</ele>
        <time>2026-05-16T14:02:56Z</time>
      </trkpt>
      <trkpt lat="43.66779" lon="7.04272">
        <ele>193.4</ele>
        <time>2026-05-16T14:02:57Z</time>
      </trkpt>
      <trkpt lat="43.66779" lon="7.04272">
        <ele>193.4</ele>
        <time>2026-05-16T14:02:58Z</time>
      </trkpt>
      <trkpt lat="43.66779" lon="7.04272">
        <ele>193.4</ele>
        <time>2026-05-16T14:02:59Z</time>
      </trkpt>
      <trkpt lat="43.66779" lon="7.04272">
        <ele>193.4</ele>
        <time>2026-05-16T14:03:00Z</time>
      </trkpt>
      <trkpt lat="43.66779" lon="7.04272">
        <ele>193.4</ele>
        <time>2026-05-16T14:03:01Z</time>
      </trkpt>
      <trkpt lat="43.66779" lon="7.04272">
        <ele>193.4</ele>
        <time>2026-05-16T14:03:02Z</time>
      </trkpt>
      <trkpt lat="43.66779" lon="7.04272">
        <ele>193.4</ele>
        <time>2026-05-16T14:03:03Z</time>
      </trkpt>
      <trkpt lat="43.66779" lon="7.04272">
        <ele>193.4</ele>
        <time>2026-05-16T14:03:04Z</time>
      </trkpt>
      <trkpt lat="43.66779" lon="7.04272">
        <ele>193.4</ele>
        <time>2026-05-16T14:03:05Z</time>
      </trkpt>
      <trkpt lat="43.66779" lon="7.04272">
        <ele>193.4</ele>
        <time>2026-05-16T14:03:06Z</time>
      </trkpt>
      <trkpt lat="43.66779" lon="7.04272">
        <ele>193.4</ele>
        <time>2026-05-16T14:03:07Z</time>
      </trkpt>
      <trkpt lat="43.66779" lon="7.04272">
        <ele>193.4</ele>
        <time>2026-05-16T14:03:08Z</time>
      </trkpt>
      <trkpt lat="43.66779" lon="7.04272">
        <ele>193.4</ele>
        <time>2026-05-16T14:03:09Z</time>
      </trkpt>
      <trkpt lat="43.66779" lon="7.04272">
        <ele>193.4</ele>
        <time>2026-05-16T14:03:10Z</time>
      </trkpt>
      <trkpt lat="43.66779" lon="7.04272">
        <ele>193.4</ele>
        <time>2026-05-16T14:03:11Z</time>
      </trkpt>
      <trkpt lat="43.66779" lon="7.04272">
        <ele>193.4</ele>
        <time>2026-05-16T14:03:12Z</time>
      </trkpt>
      <trkpt lat="43.66779" lon="7.04272">
        <ele>193.4</ele>
        <time>2026-05-16T14:03:13Z</time>
      </trkpt>
      <trkpt lat="43.66779" lon="7.04272">
        <ele>193.4</ele>
        <time>2026-05-16T14:03:14Z</time>
      </trkpt>
      <trkpt lat="43.66779" lon="7.04272">
        <ele>193.4</ele>
        <time>2026-05-16T14:03:15Z</time>
      </trkpt>
      <trkpt lat="43.66779" lon="7.04272">
        <ele>193.4</ele>
        <time>2026-05-16T14:03:16Z</time>
      </trkpt>
      <trkpt lat="43.66779" lon="7.04272">
        <ele>193.4</ele>
        <time>2026-05-16T14:03:17Z</time>
      </trkpt>
      <trkpt lat="43.66779" lon="7.04272">
        <ele>193.4</ele>
        <time>2026-05-16T14:03:18Z</time>
      </trkpt>
      <trkpt lat="43.66779" lon="7.04272">
        <ele>193.4</ele>
        <time>2026-05-16T14:03:19Z</time>
      </trkpt>
      <trkpt lat="43.66779" lon="7.04272">
        <ele>193.4</ele>
        <time>2026-05-16T14:03:20Z</time>
      </trkpt>
      <trkpt lat="43.66779" lon="7.04272">
        <ele>193.4</ele>
        <time>2026-05-16T14:03:21Z</time>
      </trkpt>
      <trkpt lat="43.66779" lon="7.04272">
        <ele>193.4</ele>
        <time>2026-05-16T14:03:22Z</time>
      </trkpt>
      <trkpt lat="43.66779" lon="7.04272">
        <ele>193.4</ele>
        <time>2026-05-16T14:03:23Z</time>
      </trkpt>
      <trkpt lat="43.66779" lon="7.04272">
        <ele>193.4</ele>
        <time>2026-05-16T14:03:24Z</time>
      </trkpt>
      <trkpt lat="43.66779" lon="7.04272">
        <ele>193.4</ele>
        <time>2026-05-16T14:03:25Z</time>
      </trkpt>
      <trkpt lat="43.66779" lon="7.04272">
        <ele>193.4</ele>
        <time>2026-05-16T14:03:53Z</time>
      </trkpt>
      <trkpt lat="43.66779" lon="7.04272">
        <ele>193.4</ele>
        <time>2026-05-16T14:03:54Z</time>
      </trkpt>
      <trkpt lat="43.66779" lon="7.04271">
        <ele>193.7</ele>
        <time>2026-05-16T14:03:55Z</time>
      </trkpt>
      <trkpt lat="43.66779" lon="7.04272">
        <ele>193.4</ele>
        <time>2026-05-16T14:03:56Z</time>
      </trkpt>
      <trkpt lat="43.66779" lon="7.04272">
        <ele>193.4</ele>
        <time>2026-05-16T14:03:57Z</time>
      </trkpt>
      <trkpt lat="43.66779" lon="7.04272">
        <ele>193.4</ele>
        <time>2026-05-16T14:03:58Z</time>
      </trkpt>
      <trkpt lat="43.66779" lon="7.04272">
        <ele>193.4</ele>
        <time>2026-05-16T14:03:59Z</time>
      </trkpt>
      <trkpt lat="43.6678" lon="7.04272">
        <ele>193.4</ele>
        <time>2026-05-16T14:04:00Z</time>
      </trkpt>
      <trkpt lat="43.6678" lon="7.04272">
        <ele>193.4</ele>
        <time>2026-05-16T14:04:01Z</time>
      </trkpt>
      <trkpt lat="43.6678" lon="7.04272">
        <ele>193.4</ele>
        <time>2026-05-16T14:04:02Z</time>
      </trkpt>
      <trkpt lat="43.6678" lon="7.04272">
        <ele>193.4</ele>
        <time>2026-05-16T14:04:03Z</time>
      </trkpt>
      <trkpt lat="43.6678" lon="7.04272">
        <ele>193.4</ele>
        <time>2026-05-16T14:04:04Z</time>
      </trkpt>
      <trkpt lat="43.6678" lon="7.04272">
        <ele>193.4</ele>
        <time>2026-05-16T14:04:05Z</time>
      </trkpt>
      <trkpt lat="43.6678" lon="7.04272">
        <ele>193.4</ele>
        <time>2026-05-16T14:04:06Z</time>
      </trkpt>
      <trkpt lat="43.66781" lon="7.04272">
        <ele>193.3</ele>
        <time>2026-05-16T14:04:07Z</time>
      </trkpt>
      <trkpt lat="43.66781" lon="7.04272">
        <ele>193.3</ele>
        <time>2026-05-16T14:04:08Z</time>
      </trkpt>
      <trkpt lat="43.66781" lon="7.04272">
        <ele>193.3</ele>
        <time>2026-05-16T14:04:09Z</time>
      </trkpt>
      <trkpt lat="43.66781" lon="7.04272">
        <ele>193.3</ele>
        <time>2026-05-16T14:04:10Z</time>
      </trkpt>
      <trkpt lat="43.66781" lon="7.04272">
        <ele>193.3</ele>
        <time>2026-05-16T14:04:11Z</time>
      </trkpt>
      <trkpt lat="43.66781" lon="7.04272">
        <ele>193.3</ele>
        <time>2026-05-16T14:04:12Z</time>
      </trkpt>
      <trkpt lat="43.66781" lon="7.04272">
        <ele>193.3</ele>
        <time>2026-05-16T14:04:13Z</time>
      </trkpt>
      <trkpt lat="43.66781" lon="7.04272">
        <ele>193.3</ele>
        <time>2026-05-16T14:04:14Z</time>
      </trkpt>
      <trkpt lat="43.66781" lon="7.04272">
        <ele>193.3</ele>
        <time>2026-05-16T14:04:15Z</time>
      </trkpt>
      <trkpt lat="43.66781" lon="7.04272">
        <ele>193.3</ele>
        <time>2026-05-16T14:04:16Z</time>
      </trkpt>
      <trkpt lat="43.66781" lon="7.04272">
        <ele>193.3</ele>
        <time>2026-05-16T14:04:17Z</time>
      </trkpt>
      <trkpt lat="43.66772" lon="7.04264">
        <ele>196.2</ele>
        <time>2026-05-16T14:07:25Z</time>
      </trkpt>
      <trkpt lat="43.66772" lon="7.04245">
        <ele>199.3</ele>
        <time>2026-05-16T14:07:26Z</time>
      </trkpt>
      <trkpt lat="43.66783" lon="7.0425">
        <ele>198.6</ele>
        <time>2026-05-16T14:07:27Z</time>
      </trkpt>
      <trkpt lat="43.66787" lon="7.04254">
        <ele>197.4</ele>
        <time>2026-05-16T14:07:28Z</time>
      </trkpt>
      <trkpt lat="43.66783" lon="7.04252">
        <ele>198.1</ele>
        <time>2026-05-16T14:07:29Z</time>
      </trkpt>
      <trkpt lat="43.66785" lon="7.04252">
        <ele>198</ele>
        <time>2026-05-16T14:07:30Z</time>
      </trkpt>
      <trkpt lat="43.66787" lon="7.04251">
        <ele>198.1</ele>
        <time>2026-05-16T14:07:31Z</time>
      </trkpt>
      <trkpt lat="43.66789" lon="7.0427">
        <ele>193.4</ele>
        <time>2026-05-16T14:07:32Z</time>
      </trkpt>
      <trkpt lat="43.66781" lon="7.04272">
        <ele>193.3</ele>
        <time>2026-05-16T14:07:33Z</time>
      </trkpt>
      <trkpt lat="43.66781" lon="7.04272">
        <ele>193.3</ele>
        <time>2026-05-16T14:07:34Z</time>
      </trkpt>
      <trkpt lat="43.66784" lon="7.04273">
        <ele>192.9</ele>
        <time>2026-05-16T14:07:35Z</time>
      </trkpt>
      <trkpt lat="43.66788" lon="7.04274">
        <ele>192.5</ele>
        <time>2026-05-16T14:07:36Z</time>
      </trkpt>
      <trkpt lat="43.66791" lon="7.04276">
        <ele>191.9</ele>
        <time>2026-05-16T14:07:37Z</time>
      </trkpt>
      <trkpt lat="43.66794" lon="7.04278">
        <ele>191.4</ele>
        <time>2026-05-16T14:07:38Z</time>
      </trkpt>
      <trkpt lat="43.66798" lon="7.04279">
        <ele>191.3</ele>
        <time>2026-05-16T14:07:39Z</time>
      </trkpt>
      <trkpt lat="43.66801" lon="7.0428">
        <ele>191.2</ele>
        <time>2026-05-16T14:07:40Z</time>
      </trkpt>
      <trkpt lat="43.66802" lon="7.0428">
        <ele>191.1</ele>
        <time>2026-05-16T14:07:41Z</time>
      </trkpt>
      <trkpt lat="43.66803" lon="7.04279">
        <ele>191.1</ele>
        <time>2026-05-16T14:07:42Z</time>
      </trkpt>
      <trkpt lat="43.66804" lon="7.04279">
        <ele>191.1</ele>
        <time>2026-05-16T14:07:43Z</time>
      </trkpt>
      <trkpt lat="43.66804" lon="7.04277">
        <ele>191.2</ele>
        <time>2026-05-16T14:07:44Z</time>
      </trkpt>
      <trkpt lat="43.66804" lon="7.04277">
        <ele>191.2</ele>
        <time>2026-05-16T14:07:45Z</time>
      </trkpt>
      <trkpt lat="43.66804" lon="7.04276">
        <ele>191.4</ele>
        <time>2026-05-16T14:07:46Z</time>
      </trkpt>
      <trkpt lat="43.66804" lon="7.04276">
        <ele>191.4</ele>
        <time>2026-05-16T14:07:47Z</time>
      </trkpt>
      <trkpt lat="43.66804" lon="7.04276">
        <ele>191.4</ele>
        <time>2026-05-16T14:07:48Z</time>
      </trkpt>
      <trkpt lat="43.66805" lon="7.04276">
        <ele>191.4</ele>
        <time>2026-05-16T14:07:49Z</time>
      </trkpt>
      <trkpt lat="43.66806" lon="7.04275">
        <ele>191.6</ele>
        <time>2026-05-16T14:07:50Z</time>
      </trkpt>
      <trkpt lat="43.66807" lon="7.04275">
        <ele>191.7</ele>
        <time>2026-05-16T14:07:51Z</time>
      </trkpt>
      <trkpt lat="43.66807" lon="7.04275">
        <ele>191.7</ele>
        <time>2026-05-16T14:07:52Z</time>
      </trkpt>
      <trkpt lat="43.66807" lon="7.04275">
        <ele>191.7</ele>
        <time>2026-05-16T14:07:53Z</time>
      </trkpt>
      <trkpt lat="43.66807" lon="7.04275">
        <ele>191.7</ele>
        <time>2026-05-16T14:07:54Z</time>
      </trkpt>
      <trkpt lat="43.66807" lon="7.04275">
        <ele>191.7</ele>
        <time>2026-05-16T14:07:55Z</time>
      </trkpt>
      <trkpt lat="43.66807" lon="7.04274">
        <ele>191.9</ele>
        <time>2026-05-16T14:07:56Z</time>
      </trkpt>
      <trkpt lat="43.66807" lon="7.04274">
        <ele>191.9</ele>
        <time>2026-05-16T14:07:57Z</time>
      </trkpt>
      <trkpt lat="43.66807" lon="7.04274">
        <ele>191.9</ele>
        <time>2026-05-16T14:07:58Z</time>
      </trkpt>
      <trkpt lat="43.66807" lon="7.04274">
        <ele>191.9</ele>
        <time>2026-05-16T14:07:59Z</time>
      </trkpt>
      <trkpt lat="43.66807" lon="7.04274">
        <ele>191.9</ele>
        <time>2026-05-16T14:08:00Z</time>
      </trkpt>
      <trkpt lat="43.66808" lon="7.04274">
        <ele>191.9</ele>
        <time>2026-05-16T14:08:01Z</time>
      </trkpt>
      <trkpt lat="43.66808" lon="7.04274">
        <ele>191.9</ele>
        <time>2026-05-16T14:08:02Z</time>
      </trkpt>
      <trkpt lat="43.66808" lon="7.04274">
        <ele>191.9</ele>
        <time>2026-05-16T14:08:03Z</time>
      </trkpt>
      <trkpt lat="43.66808" lon="7.04274">
        <ele>191.9</ele>
        <time>2026-05-16T14:08:04Z</time>
      </trkpt>
      <trkpt lat="43.66808" lon="7.04274">
        <ele>191.9</ele>
        <time>2026-05-16T14:08:05Z</time>
      </trkpt>
      <trkpt lat="43.66808" lon="7.04274">
        <ele>191.9</ele>
        <time>2026-05-16T14:08:06Z</time>
      </trkpt>
      <trkpt lat="43.66808" lon="7.04274">
        <ele>191.9</ele>
        <time>2026-05-16T14:08:07Z</time>
      </trkpt>
      <trkpt lat="43.66808" lon="7.04274">
        <ele>191.9</ele>
        <time>2026-05-16T14:08:08Z</time>
      </trkpt>
      <trkpt lat="43.66808" lon="7.04274">
        <ele>191.9</ele>
        <time>2026-05-16T14:08:09Z</time>
      </trkpt>
      <trkpt lat="43.66808" lon="7.04274">
        <ele>191.9</ele>
        <time>2026-05-16T14:08:10Z</time>
      </trkpt>
      <trkpt lat="43.66806" lon="7.04293">
        <ele>191</ele>
        <time>2026-05-16T14:08:49Z</time>
      </trkpt>
      <trkpt lat="43.66806" lon="7.04294">
        <ele>191</ele>
        <time>2026-05-16T14:08:50Z</time>
      </trkpt>
      <trkpt lat="43.66807" lon="7.04289">
        <ele>191.1</ele>
        <time>2026-05-16T14:08:51Z</time>
      </trkpt>
      <trkpt lat="43.66807" lon="7.04274">
        <ele>191.9</ele>
        <time>2026-05-16T14:08:52Z</time>
      </trkpt>
      <trkpt lat="43.66807" lon="7.04274">
        <ele>191.9</ele>
        <time>2026-05-16T14:08:53Z</time>
      </trkpt>
      <trkpt lat="43.66808" lon="7.04275">
        <ele>191.7</ele>
        <time>2026-05-16T14:08:54Z</time>
      </trkpt>
      <trkpt lat="43.66809" lon="7.04275">
        <ele>191.8</ele>
        <time>2026-05-16T14:08:55Z</time>
      </trkpt>
      <trkpt lat="43.66809" lon="7.04274">
        <ele>192</ele>
        <time>2026-05-16T14:08:56Z</time>
      </trkpt>
      <trkpt lat="43.6681" lon="7.04274">
        <ele>192</ele>
        <time>2026-05-16T14:08:57Z</time>
      </trkpt>
      <trkpt lat="43.66811" lon="7.04275">
        <ele>191.9</ele>
        <time>2026-05-16T14:08:58Z</time>
      </trkpt>
      <trkpt lat="43.66812" lon="7.04275">
        <ele>191.9</ele>
        <time>2026-05-16T14:08:59Z</time>
      </trkpt>
      <trkpt lat="43.66813" lon="7.04275">
        <ele>192</ele>
        <time>2026-05-16T14:09:00Z</time>
      </trkpt>
      <trkpt lat="43.66813" lon="7.04275">
        <ele>192</ele>
        <time>2026-05-16T14:09:01Z</time>
      </trkpt>
      <trkpt lat="43.66813" lon="7.04275">
        <ele>192</ele>
        <time>2026-05-16T14:09:02Z</time>
      </trkpt>
      <trkpt lat="43.66813" lon="7.04274">
        <ele>192.1</ele>
        <time>2026-05-16T14:09:03Z</time>
      </trkpt>
      <trkpt lat="43.66813" lon="7.04274">
        <ele>192.1</ele>
        <time>2026-05-16T14:09:04Z</time>
      </trkpt>
      <trkpt lat="43.66813" lon="7.04273">
        <ele>192.3</ele>
        <time>2026-05-16T14:09:05Z</time>
      </trkpt>
      <trkpt lat="43.66813" lon="7.04273">
        <ele>192.3</ele>
        <time>2026-05-16T14:09:06Z</time>
      </trkpt>
      <trkpt lat="43.66813" lon="7.04273">
        <ele>192.3</ele>
        <time>2026-05-16T14:09:07Z</time>
      </trkpt>
      <trkpt lat="43.66813" lon="7.04272">
        <ele>192.4</ele>
        <time>2026-05-16T14:09:08Z</time>
      </trkpt>
      <trkpt lat="43.66813" lon="7.04272">
        <ele>192.4</ele>
        <time>2026-05-16T14:09:09Z</time>
      </trkpt>
      <trkpt lat="43.66812" lon="7.04272">
        <ele>192.4</ele>
        <time>2026-05-16T14:09:10Z</time>
      </trkpt>
      <trkpt lat="43.66812" lon="7.04272">
        <ele>192.4</ele>
        <time>2026-05-16T14:09:11Z</time>
      </trkpt>
      <trkpt lat="43.66812" lon="7.04271">
        <ele>192.6</ele>
        <time>2026-05-16T14:09:12Z</time>
      </trkpt>
      <trkpt lat="43.66812" lon="7.04271">
        <ele>192.6</ele>
        <time>2026-05-16T14:09:13Z</time>
      </trkpt>
      <trkpt lat="43.66812" lon="7.04271">
        <ele>192.6</ele>
        <time>2026-05-16T14:09:14Z</time>
      </trkpt>
      <trkpt lat="43.66813" lon="7.04271">
        <ele>192.6</ele>
        <time>2026-05-16T14:09:15Z</time>
      </trkpt>
      <trkpt lat="43.66813" lon="7.04271">
        <ele>192.6</ele>
        <time>2026-05-16T14:09:16Z</time>
      </trkpt>
      <trkpt lat="43.66813" lon="7.04271">
        <ele>192.6</ele>
        <time>2026-05-16T14:09:17Z</time>
      </trkpt>
      <trkpt lat="43.66813" lon="7.04271">
        <ele>192.6</ele>
        <time>2026-05-16T14:09:18Z</time>
      </trkpt>
      <trkpt lat="43.66813" lon="7.04271">
        <ele>192.6</ele>
        <time>2026-05-16T14:09:19Z</time>
      </trkpt>
      <trkpt lat="43.66813" lon="7.04271">
        <ele>192.6</ele>
        <time>2026-05-16T14:09:20Z</time>
      </trkpt>
      <trkpt lat="43.66813" lon="7.04271">
        <ele>192.6</ele>
        <time>2026-05-16T14:09:21Z</time>
      </trkpt>
      <trkpt lat="43.66813" lon="7.04271">
        <ele>192.6</ele>
        <time>2026-05-16T14:09:22Z</time>
      </trkpt>
      <trkpt lat="43.66813" lon="7.04271">
        <ele>192.6</ele>
        <time>2026-05-16T14:09:23Z</time>
      </trkpt>
      <trkpt lat="43.66813" lon="7.04271">
        <ele>192.6</ele>
        <time>2026-05-16T14:09:24Z</time>
      </trkpt>
      <trkpt lat="43.66813" lon="7.04271">
        <ele>192.6</ele>
        <time>2026-05-16T14:09:25Z</time>
      </trkpt>
      <trkpt lat="43.66813" lon="7.04271">
        <ele>192.6</ele>
        <time>2026-05-16T14:09:26Z</time>
      </trkpt>
      <trkpt lat="43.66813" lon="7.04271">
        <ele>192.6</ele>
        <time>2026-05-16T14:09:27Z</time>
      </trkpt>
      <trkpt lat="43.66813" lon="7.04271">
        <ele>192.6</ele>
        <time>2026-05-16T14:09:28Z</time>
      </trkpt>
      <trkpt lat="43.66813" lon="7.04271">
        <ele>192.6</ele>
        <time>2026-05-16T14:09:29Z</time>
      </trkpt>
      <trkpt lat="43.66813" lon="7.04271">
        <ele>192.6</ele>
        <time>2026-05-16T14:09:30Z</time>
      </trkpt>
      <trkpt lat="43.66813" lon="7.04271">
        <ele>192.6</ele>
        <time>2026-05-16T14:09:31Z</time>
      </trkpt>
      <trkpt lat="43.66813" lon="7.04271">
        <ele>192.6</ele>
        <time>2026-05-16T14:09:32Z</time>
      </trkpt>
      <trkpt lat="43.66813" lon="7.04271">
        <ele>192.6</ele>
        <time>2026-05-16T14:09:33Z</time>
      </trkpt>
      <trkpt lat="43.66813" lon="7.04271">
        <ele>192.6</ele>
        <time>2026-05-16T14:09:34Z</time>
      </trkpt>
      <trkpt lat="43.66813" lon="7.04271">
        <ele>192.6</ele>
        <time>2026-05-16T14:09:35Z</time>
      </trkpt>
      <trkpt lat="43.66813" lon="7.04271">
        <ele>192.6</ele>
        <time>2026-05-16T14:09:36Z</time>
      </trkpt>
      <trkpt lat="43.66813" lon="7.04271">
        <ele>192.6</ele>
        <time>2026-05-16T14:09:37Z</time>
      </trkpt>
      <trkpt lat="43.66813" lon="7.04271">
        <ele>192.6</ele>
        <time>2026-05-16T14:09:38Z</time>
      </trkpt>
      <trkpt lat="43.66813" lon="7.04271">
        <ele>192.6</ele>
        <time>2026-05-16T14:09:39Z</time>
      </trkpt>
      <trkpt lat="43.66813" lon="7.04271">
        <ele>192.6</ele>
        <time>2026-05-16T14:09:40Z</time>
      </trkpt>
      <trkpt lat="43.66813" lon="7.04271">
        <ele>192.6</ele>
        <time>2026-05-16T14:09:41Z</time>
      </trkpt>
      <trkpt lat="43.66813" lon="7.04271">
        <ele>192.6</ele>
        <time>2026-05-16T14:09:42Z</time>
      </trkpt>
      <trkpt lat="43.66813" lon="7.04271">
        <ele>192.6</ele>
        <time>2026-05-16T14:09:43Z</time>
      </trkpt>
      <trkpt lat="43.66813" lon="7.04271">
        <ele>192.6</ele>
        <time>2026-05-16T14:09:44Z</time>
      </trkpt>
      <trkpt lat="43.66813" lon="7.04271">
        <ele>192.6</ele>
        <time>2026-05-16T14:09:45Z</time>
      </trkpt>
      <trkpt lat="43.66813" lon="7.04271">
        <ele>192.6</ele>
        <time>2026-05-16T14:09:46Z</time>
      </trkpt>
      <trkpt lat="43.66813" lon="7.04271">
        <ele>192.6</ele>
        <time>2026-05-16T14:09:47Z</time>
      </trkpt>
      <trkpt lat="43.66812" lon="7.04271">
        <ele>192.6</ele>
        <time>2026-05-16T14:09:48Z</time>
      </trkpt>
      <trkpt lat="43.66813" lon="7.04271">
        <ele>192.6</ele>
        <time>2026-05-16T14:09:49Z</time>
      </trkpt>
      <trkpt lat="43.66813" lon="7.04271">
        <ele>192.6</ele>
        <time>2026-05-16T14:09:50Z</time>
      </trkpt>
      <trkpt lat="43.66813" lon="7.04272">
        <ele>192.4</ele>
        <time>2026-05-16T14:09:51Z</time>
      </trkpt>
      <trkpt lat="43.66813" lon="7.04272">
        <ele>192.4</ele>
        <time>2026-05-16T14:09:52Z</time>
      </trkpt>
      <trkpt lat="43.66813" lon="7.04272">
        <ele>192.4</ele>
        <time>2026-05-16T14:09:53Z</time>
      </trkpt>
      <trkpt lat="43.66813" lon="7.04272">
        <ele>192.4</ele>
        <time>2026-05-16T14:09:54Z</time>
      </trkpt>
      <trkpt lat="43.66814" lon="7.04272">
        <ele>192.5</ele>
        <time>2026-05-16T14:09:55Z</time>
      </trkpt>
      <trkpt lat="43.66814" lon="7.04272">
        <ele>192.5</ele>
        <time>2026-05-16T14:09:56Z</time>
      </trkpt>
      <trkpt lat="43.66813" lon="7.04272">
        <ele>192.4</ele>
        <time>2026-05-16T14:09:57Z</time>
      </trkpt>
      <trkpt lat="43.66813" lon="7.04272">
        <ele>192.4</ele>
        <time>2026-05-16T14:09:58Z</time>
      </trkpt>
      <trkpt lat="43.66813" lon="7.04272">
        <ele>192.4</ele>
        <time>2026-05-16T14:09:59Z</time>
      </trkpt>
      <trkpt lat="43.66813" lon="7.04272">
        <ele>192.4</ele>
        <time>2026-05-16T14:10:00Z</time>
      </trkpt>
      <trkpt lat="43.66813" lon="7.04272">
        <ele>192.4</ele>
        <time>2026-05-16T14:10:01Z</time>
      </trkpt>
      <trkpt lat="43.66814" lon="7.04273">
        <ele>192.3</ele>
        <time>2026-05-16T14:10:02Z</time>
      </trkpt>
      <trkpt lat="43.66814" lon="7.04275">
        <ele>192</ele>
        <time>2026-05-16T14:10:03Z</time>
      </trkpt>
      <trkpt lat="43.66815" lon="7.04279">
        <ele>191.7</ele>
        <time>2026-05-16T14:10:04Z</time>
      </trkpt>
      <trkpt lat="43.66814" lon="7.04283">
        <ele>191.5</ele>
        <time>2026-05-16T14:10:05Z</time>
      </trkpt>
      <trkpt lat="43.66813" lon="7.04288">
        <ele>191.3</ele>
        <time>2026-05-16T14:10:06Z</time>
      </trkpt>
      <trkpt lat="43.66808" lon="7.04295">
        <ele>191.1</ele>
        <time>2026-05-16T14:10:07Z</time>
      </trkpt>
      <trkpt lat="43.66805" lon="7.043">
        <ele>191.1</ele>
        <time>2026-05-16T14:10:08Z</time>
      </trkpt>
      <trkpt lat="43.66802" lon="7.04305">
        <ele>191.4</ele>
        <time>2026-05-16T14:10:09Z</time>
      </trkpt>
      <trkpt lat="43.668" lon="7.0431">
        <ele>191.3</ele>
        <time>2026-05-16T14:10:10Z</time>
      </trkpt>
      <trkpt lat="43.66798" lon="7.04314">
        <ele>191.3</ele>
        <time>2026-05-16T14:10:11Z</time>
      </trkpt>
      <trkpt lat="43.66797" lon="7.04317">
        <ele>191.1</ele>
        <time>2026-05-16T14:10:12Z</time>
      </trkpt>
      <trkpt lat="43.66795" lon="7.0432">
        <ele>191</ele>
        <time>2026-05-16T14:10:13Z</time>
      </trkpt>
      <trkpt lat="43.66793" lon="7.0432">
        <ele>191.1</ele>
        <time>2026-05-16T14:10:14Z</time>
      </trkpt>
      <trkpt lat="43.6679" lon="7.04319">
        <ele>191.4</ele>
        <time>2026-05-16T14:10:15Z</time>
      </trkpt>
      <trkpt lat="43.66788" lon="7.04317">
        <ele>191.7</ele>
        <time>2026-05-16T14:10:16Z</time>
      </trkpt>
      <trkpt lat="43.66787" lon="7.04314">
        <ele>192.1</ele>
        <time>2026-05-16T14:10:17Z</time>
      </trkpt>
      <trkpt lat="43.66787" lon="7.0431">
        <ele>192.5</ele>
        <time>2026-05-16T14:10:18Z</time>
      </trkpt>
      <trkpt lat="43.66788" lon="7.04307">
        <ele>192.7</ele>
        <time>2026-05-16T14:10:19Z</time>
      </trkpt>
      <trkpt lat="43.6679" lon="7.04303">
        <ele>192.6</ele>
        <time>2026-05-16T14:10:20Z</time>
      </trkpt>
      <trkpt lat="43.66792" lon="7.04299">
        <ele>192.2</ele>
        <time>2026-05-16T14:10:21Z</time>
      </trkpt>
      <trkpt lat="43.66793" lon="7.04296">
        <ele>192</ele>
        <time>2026-05-16T14:10:22Z</time>
      </trkpt>
      <trkpt lat="43.66794" lon="7.04293">
        <ele>191.9</ele>
        <time>2026-05-16T14:10:23Z</time>
      </trkpt>
      <trkpt lat="43.66795" lon="7.0429">
        <ele>191.7</ele>
        <time>2026-05-16T14:10:24Z</time>
      </trkpt>
      <trkpt lat="43.66796" lon="7.04288">
        <ele>191.6</ele>
        <time>2026-05-16T14:10:25Z</time>
      </trkpt>
      <trkpt lat="43.66797" lon="7.04286">
        <ele>191.5</ele>
        <time>2026-05-16T14:10:26Z</time>
      </trkpt>
      <trkpt lat="43.66797" lon="7.04284">
        <ele>191.4</ele>
        <time>2026-05-16T14:10:27Z</time>
      </trkpt>
      <trkpt lat="43.66798" lon="7.04282">
        <ele>191.4</ele>
        <time>2026-05-16T14:10:28Z</time>
      </trkpt>
      <trkpt lat="43.66799" lon="7.0428">
        <ele>191.3</ele>
        <time>2026-05-16T14:10:29Z</time>
      </trkpt>
      <trkpt lat="43.66799" lon="7.04279">
        <ele>191.3</ele>
        <time>2026-05-16T14:10:30Z</time>
      </trkpt>
      <trkpt lat="43.668" lon="7.04278">
        <ele>191.2</ele>
        <time>2026-05-16T14:10:31Z</time>
      </trkpt>
      <trkpt lat="43.668" lon="7.04277">
        <ele>191.4</ele>
        <time>2026-05-16T14:10:32Z</time>
      </trkpt>
      <trkpt lat="43.668" lon="7.04278">
        <ele>191.2</ele>
        <time>2026-05-16T14:10:33Z</time>
      </trkpt>
      <trkpt lat="43.668" lon="7.04278">
        <ele>191.2</ele>
        <time>2026-05-16T14:10:34Z</time>
      </trkpt>
      <trkpt lat="43.668" lon="7.04278">
        <ele>191.2</ele>
        <time>2026-05-16T14:10:35Z</time>
      </trkpt>
      <trkpt lat="43.668" lon="7.04278">
        <ele>191.2</ele>
        <time>2026-05-16T14:10:36Z</time>
      </trkpt>
      <trkpt lat="43.668" lon="7.04279">
        <ele>191.2</ele>
        <time>2026-05-16T14:10:37Z</time>
      </trkpt>
      <trkpt lat="43.66801" lon="7.04279">
        <ele>191.2</ele>
        <time>2026-05-16T14:10:38Z</time>
      </trkpt>
      <trkpt lat="43.66801" lon="7.04279">
        <ele>191.2</ele>
        <time>2026-05-16T14:10:39Z</time>
      </trkpt>
      <trkpt lat="43.66801" lon="7.0428">
        <ele>191.2</ele>
        <time>2026-05-16T14:10:40Z</time>
      </trkpt>
      <trkpt lat="43.66801" lon="7.0428">
        <ele>191.2</ele>
        <time>2026-05-16T14:10:41Z</time>
      </trkpt>
      <trkpt lat="43.66801" lon="7.0428">
        <ele>191.2</ele>
        <time>2026-05-16T14:10:42Z</time>
      </trkpt>
      <trkpt lat="43.66801" lon="7.0428">
        <ele>191.2</ele>
        <time>2026-05-16T14:10:43Z</time>
      </trkpt>
      <trkpt lat="43.66801" lon="7.0428">
        <ele>191.2</ele>
        <time>2026-05-16T14:10:44Z</time>
      </trkpt>
      <trkpt lat="43.66801" lon="7.0428">
        <ele>191.2</ele>
        <time>2026-05-16T14:10:45Z</time>
      </trkpt>
      <trkpt lat="43.66801" lon="7.0428">
        <ele>191.2</ele>
        <time>2026-05-16T14:10:46Z</time>
      </trkpt>
      <trkpt lat="43.66801" lon="7.0428">
        <ele>191.2</ele>
        <time>2026-05-16T14:10:47Z</time>
      </trkpt>
      <trkpt lat="43.66801" lon="7.0428">
        <ele>191.2</ele>
        <time>2026-05-16T14:10:48Z</time>
      </trkpt>
      <trkpt lat="43.66801" lon="7.0428">
        <ele>191.2</ele>
        <time>2026-05-16T14:10:49Z</time>
      </trkpt>
      <trkpt lat="43.66801" lon="7.0428">
        <ele>191.2</ele>
        <time>2026-05-16T14:10:50Z</time>
      </trkpt>
      <trkpt lat="43.66801" lon="7.0428">
        <ele>191.2</ele>
        <time>2026-05-16T14:10:51Z</time>
      </trkpt>
      <trkpt lat="43.66801" lon="7.0428">
        <ele>191.2</ele>
        <time>2026-05-16T14:10:52Z</time>
      </trkpt>
      <trkpt lat="43.66801" lon="7.0428">
        <ele>191.2</ele>
        <time>2026-05-16T14:10:53Z</time>
      </trkpt>
      <trkpt lat="43.66801" lon="7.0428">
        <ele>191.2</ele>
        <time>2026-05-16T14:10:54Z</time>
      </trkpt>
      <trkpt lat="43.66801" lon="7.0428">
        <ele>191.2</ele>
        <time>2026-05-16T14:10:55Z</time>
      </trkpt>
      <trkpt lat="43.66801" lon="7.0428">
        <ele>191.2</ele>
        <time>2026-05-16T14:10:56Z</time>
      </trkpt>
      <trkpt lat="43.66801" lon="7.0428">
        <ele>191.2</ele>
        <time>2026-05-16T14:10:57Z</time>
      </trkpt>
      <trkpt lat="43.66801" lon="7.0428">
        <ele>191.2</ele>
        <time>2026-05-16T14:10:58Z</time>
      </trkpt>
      <trkpt lat="43.66801" lon="7.0428">
        <ele>191.2</ele>
        <time>2026-05-16T14:10:59Z</time>
      </trkpt>
      <trkpt lat="43.66801" lon="7.0428">
        <ele>191.2</ele>
        <time>2026-05-16T14:11:00Z</time>
      </trkpt>
      <trkpt lat="43.66801" lon="7.0428">
        <ele>191.2</ele>
        <time>2026-05-16T14:11:01Z</time>
      </trkpt>
      <trkpt lat="43.66801" lon="7.0428">
        <ele>191.2</ele>
        <time>2026-05-16T14:11:02Z</time>
      </trkpt>
      <trkpt lat="43.66801" lon="7.0428">
        <ele>191.2</ele>
        <time>2026-05-16T14:11:03Z</time>
      </trkpt>
      <trkpt lat="43.66801" lon="7.0428">
        <ele>191.2</ele>
        <time>2026-05-16T14:11:04Z</time>
      </trkpt>
      <trkpt lat="43.66801" lon="7.0428">
        <ele>191.2</ele>
        <time>2026-05-16T14:11:05Z</time>
      </trkpt>
      <trkpt lat="43.66801" lon="7.0428">
        <ele>191.2</ele>
        <time>2026-05-16T14:11:06Z</time>
      </trkpt>
      <trkpt lat="43.66801" lon="7.0428">
        <ele>191.2</ele>
        <time>2026-05-16T14:11:07Z</time>
      </trkpt>
      <trkpt lat="43.66801" lon="7.0428">
        <ele>191.2</ele>
        <time>2026-05-16T14:11:08Z</time>
      </trkpt>
      <trkpt lat="43.66802" lon="7.04278">
        <ele>191.1</ele>
        <time>2026-05-16T14:11:41Z</time>
      </trkpt>
      <trkpt lat="43.66803" lon="7.04278">
        <ele>191.1</ele>
        <time>2026-05-16T14:11:42Z</time>
      </trkpt>
      <trkpt lat="43.66801" lon="7.0428">
        <ele>191.2</ele>
        <time>2026-05-16T14:11:43Z</time>
      </trkpt>
      <trkpt lat="43.66801" lon="7.0428">
        <ele>191.2</ele>
        <time>2026-05-16T14:11:44Z</time>
      </trkpt>
      <trkpt lat="43.66801" lon="7.0428">
        <ele>191.2</ele>
        <time>2026-05-16T14:11:45Z</time>
      </trkpt>
      <trkpt lat="43.66801" lon="7.0428">
        <ele>191.2</ele>
        <time>2026-05-16T14:11:46Z</time>
      </trkpt>
      <trkpt lat="43.66801" lon="7.0428">
        <ele>191.2</ele>
        <time>2026-05-16T14:11:47Z</time>
      </trkpt>
      <trkpt lat="43.66801" lon="7.0428">
        <ele>191.2</ele>
        <time>2026-05-16T14:11:48Z</time>
      </trkpt>
      <trkpt lat="43.66801" lon="7.0428">
        <ele>191.2</ele>
        <time>2026-05-16T14:11:49Z</time>
      </trkpt>
      <trkpt lat="43.66801" lon="7.0428">
        <ele>191.2</ele>
        <time>2026-05-16T14:11:50Z</time>
      </trkpt>
      <trkpt lat="43.66801" lon="7.0428">
        <ele>191.2</ele>
        <time>2026-05-16T14:11:51Z</time>
      </trkpt>
      <trkpt lat="43.66801" lon="7.0428">
        <ele>191.2</ele>
        <time>2026-05-16T14:11:52Z</time>
      </trkpt>
      <trkpt lat="43.66801" lon="7.0428">
        <ele>191.2</ele>
        <time>2026-05-16T14:11:53Z</time>
      </trkpt>
      <trkpt lat="43.66801" lon="7.0428">
        <ele>191.2</ele>
        <time>2026-05-16T14:11:54Z</time>
      </trkpt>
      <trkpt lat="43.66801" lon="7.0428">
        <ele>191.2</ele>
        <time>2026-05-16T14:11:55Z</time>
      </trkpt>
      <trkpt lat="43.66801" lon="7.0428">
        <ele>191.2</ele>
        <time>2026-05-16T14:11:56Z</time>
      </trkpt>
      <trkpt lat="43.66801" lon="7.0428">
        <ele>191.2</ele>
        <time>2026-05-16T14:11:57Z</time>
      </trkpt>
      <trkpt lat="43.66801" lon="7.0428">
        <ele>191.2</ele>
        <time>2026-05-16T14:11:58Z</time>
      </trkpt>
      <trkpt lat="43.66801" lon="7.0428">
        <ele>191.2</ele>
        <time>2026-05-16T14:11:59Z</time>
      </trkpt>
      <trkpt lat="43.66801" lon="7.0428">
        <ele>191.2</ele>
        <time>2026-05-16T14:12:00Z</time>
      </trkpt>
      <trkpt lat="43.66801" lon="7.0428">
        <ele>191.2</ele>
        <time>2026-05-16T14:12:01Z</time>
      </trkpt>
      <trkpt lat="43.66801" lon="7.0428">
        <ele>191.2</ele>
        <time>2026-05-16T14:12:02Z</time>
      </trkpt>
      <trkpt lat="43.66801" lon="7.0428">
        <ele>191.2</ele>
        <time>2026-05-16T14:12:03Z</time>
      </trkpt>
      <trkpt lat="43.66801" lon="7.0428">
        <ele>191.2</ele>
        <time>2026-05-16T14:12:04Z</time>
      </trkpt>
      <trkpt lat="43.66801" lon="7.0428">
        <ele>191.2</ele>
        <time>2026-05-16T14:12:05Z</time>
      </trkpt>
      <trkpt lat="43.66801" lon="7.0428">
        <ele>191.2</ele>
        <time>2026-05-16T14:12:06Z</time>
      </trkpt>
      <trkpt lat="43.66801" lon="7.0428">
        <ele>191.2</ele>
        <time>2026-05-16T14:12:07Z</time>
      </trkpt>
      <trkpt lat="43.66801" lon="7.0428">
        <ele>191.2</ele>
        <time>2026-05-16T14:12:08Z</time>
      </trkpt>
      <trkpt lat="43.66801" lon="7.0428">
        <ele>191.2</ele>
        <time>2026-05-16T14:12:09Z</time>
      </trkpt>
      <trkpt lat="43.66801" lon="7.0428">
        <ele>191.2</ele>
        <time>2026-05-16T14:12:10Z</time>
      </trkpt>
      <trkpt lat="43.66801" lon="7.0428">
        <ele>191.2</ele>
        <time>2026-05-16T14:12:11Z</time>
      </trkpt>
      <trkpt lat="43.66801" lon="7.0428">
        <ele>191.2</ele>
        <time>2026-05-16T14:12:12Z</time>
      </trkpt>
      <trkpt lat="43.66801" lon="7.0428">
        <ele>191.2</ele>
        <time>2026-05-16T14:12:13Z</time>
      </trkpt>
      <trkpt lat="43.66801" lon="7.0428">
        <ele>191.2</ele>
        <time>2026-05-16T14:12:14Z</time>
      </trkpt>
      <trkpt lat="43.668" lon="7.0428">
        <ele>191.2</ele>
        <time>2026-05-16T14:12:15Z</time>
      </trkpt>
      <trkpt lat="43.668" lon="7.04281">
        <ele>191.2</ele>
        <time>2026-05-16T14:12:16Z</time>
      </trkpt>
      <trkpt lat="43.668" lon="7.04281">
        <ele>191.2</ele>
        <time>2026-05-16T14:12:17Z</time>
      </trkpt>
      <trkpt lat="43.668" lon="7.0428">
        <ele>191.2</ele>
        <time>2026-05-16T14:12:18Z</time>
      </trkpt>
      <trkpt lat="43.66801" lon="7.0428">
        <ele>191.2</ele>
        <time>2026-05-16T14:12:19Z</time>
      </trkpt>
      <trkpt lat="43.66801" lon="7.0428">
        <ele>191.2</ele>
        <time>2026-05-16T14:12:20Z</time>
      </trkpt>
      <trkpt lat="43.66801" lon="7.0428">
        <ele>191.2</ele>
        <time>2026-05-16T14:12:21Z</time>
      </trkpt>
      <trkpt lat="43.66801" lon="7.0428">
        <ele>191.2</ele>
        <time>2026-05-16T14:12:22Z</time>
      </trkpt>
      <trkpt lat="43.66802" lon="7.04279">
        <ele>191.1</ele>
        <time>2026-05-16T14:12:23Z</time>
      </trkpt>
      <trkpt lat="43.66804" lon="7.04278">
        <ele>191.1</ele>
        <time>2026-05-16T14:12:24Z</time>
      </trkpt>
      <trkpt lat="43.66806" lon="7.04276">
        <ele>191.4</ele>
        <time>2026-05-16T14:12:25Z</time>
      </trkpt>
      <trkpt lat="43.66807" lon="7.04275">
        <ele>191.7</ele>
        <time>2026-05-16T14:12:26Z</time>
      </trkpt>
      <trkpt lat="43.66809" lon="7.04275">
        <ele>191.8</ele>
        <time>2026-05-16T14:12:27Z</time>
      </trkpt>
      <trkpt lat="43.6681" lon="7.04275">
        <ele>191.8</ele>
        <time>2026-05-16T14:12:28Z</time>
      </trkpt>
      <trkpt lat="43.66811" lon="7.04275">
        <ele>191.9</ele>
        <time>2026-05-16T14:12:29Z</time>
      </trkpt>
      <trkpt lat="43.66813" lon="7.04276">
        <ele>191.8</ele>
        <time>2026-05-16T14:12:30Z</time>
      </trkpt>
      <trkpt lat="43.66814" lon="7.04277">
        <ele>191.7</ele>
        <time>2026-05-16T14:12:31Z</time>
      </trkpt>
      <trkpt lat="43.66816" lon="7.0428">
        <ele>191.7</ele>
        <time>2026-05-16T14:12:32Z</time>
      </trkpt>
      <trkpt lat="43.66818" lon="7.04285">
        <ele>191.7</ele>
        <time>2026-05-16T14:12:33Z</time>
      </trkpt>
      <trkpt lat="43.6682" lon="7.04291">
        <ele>191.5</ele>
        <time>2026-05-16T14:12:34Z</time>
      </trkpt>
      <trkpt lat="43.66822" lon="7.04296">
        <ele>191.4</ele>
        <time>2026-05-16T14:12:35Z</time>
      </trkpt>
      <trkpt lat="43.66824" lon="7.043">
        <ele>191.3</ele>
        <time>2026-05-16T14:12:36Z</time>
      </trkpt>
      <trkpt lat="43.66831" lon="7.043">
        <ele>191.4</ele>
        <time>2026-05-16T14:12:37Z</time>
      </trkpt>
      <trkpt lat="43.66837" lon="7.04298">
        <ele>191.6</ele>
        <time>2026-05-16T14:12:38Z</time>
      </trkpt>
      <trkpt lat="43.66841" lon="7.04294">
        <ele>191.8</ele>
        <time>2026-05-16T14:12:39Z</time>
      </trkpt>
      <trkpt lat="43.66844" lon="7.04287">
        <ele>192</ele>
        <time>2026-05-16T14:12:40Z</time>
      </trkpt>
      <trkpt lat="43.66849" lon="7.04279">
        <ele>191.9</ele>
        <time>2026-05-16T14:12:41Z</time>
      </trkpt>
      <trkpt lat="43.66855" lon="7.04271">
        <ele>191.6</ele>
        <time>2026-05-16T14:12:42Z</time>
      </trkpt>
      <trkpt lat="43.66862" lon="7.04263">
        <ele>191.6</ele>
        <time>2026-05-16T14:12:43Z</time>
      </trkpt>
      <trkpt lat="43.6687" lon="7.04255">
        <ele>192.6</ele>
        <time>2026-05-16T14:12:44Z</time>
      </trkpt>
      <trkpt lat="43.66878" lon="7.04247">
        <ele>193.2</ele>
        <time>2026-05-16T14:12:45Z</time>
      </trkpt>
      <trkpt lat="43.66886" lon="7.04237">
        <ele>193.4</ele>
        <time>2026-05-16T14:12:46Z</time>
      </trkpt>
      <trkpt lat="43.66894" lon="7.04226">
        <ele>193.9</ele>
        <time>2026-05-16T14:12:47Z</time>
      </trkpt>
      <trkpt lat="43.66902" lon="7.04215">
        <ele>194.5</ele>
        <time>2026-05-16T14:12:48Z</time>
      </trkpt>
      <trkpt lat="43.6691" lon="7.04204">
        <ele>194.5</ele>
        <time>2026-05-16T14:12:49Z</time>
      </trkpt>
      <trkpt lat="43.66919" lon="7.04192">
        <ele>194.3</ele>
        <time>2026-05-16T14:12:50Z</time>
      </trkpt>
      <trkpt lat="43.6693" lon="7.04183">
        <ele>195.3</ele>
        <time>2026-05-16T14:12:51Z</time>
      </trkpt>
      <trkpt lat="43.6694" lon="7.04175">
        <ele>195.6</ele>
        <time>2026-05-16T14:12:52Z</time>
      </trkpt>
      <trkpt lat="43.66952" lon="7.04168">
        <ele>196</ele>
        <time>2026-05-16T14:12:53Z</time>
      </trkpt>
      <trkpt lat="43.66963" lon="7.04162">
        <ele>196.8</ele>
        <time>2026-05-16T14:12:54Z</time>
      </trkpt>
      <trkpt lat="43.66975" lon="7.04156">
        <ele>197.4</ele>
        <time>2026-05-16T14:12:55Z</time>
      </trkpt>
      <trkpt lat="43.66987" lon="7.04151">
        <ele>197.9</ele>
        <time>2026-05-16T14:12:56Z</time>
      </trkpt>
      <trkpt lat="43.66999" lon="7.04145">
        <ele>198.4</ele>
        <time>2026-05-16T14:12:57Z</time>
      </trkpt>
      <trkpt lat="43.67012" lon="7.04138">
        <ele>198.8</ele>
        <time>2026-05-16T14:12:58Z</time>
      </trkpt>
      <trkpt lat="43.67025" lon="7.04132">
        <ele>199.3</ele>
        <time>2026-05-16T14:12:59Z</time>
      </trkpt>
      <trkpt lat="43.67038" lon="7.04126">
        <ele>200.2</ele>
        <time>2026-05-16T14:13:00Z</time>
      </trkpt>
      <trkpt lat="43.67052" lon="7.04118">
        <ele>200.7</ele>
        <time>2026-05-16T14:13:01Z</time>
      </trkpt>
      <trkpt lat="43.67066" lon="7.04111">
        <ele>200.7</ele>
        <time>2026-05-16T14:13:02Z</time>
      </trkpt>
      <trkpt lat="43.6708" lon="7.04104">
        <ele>201</ele>
        <time>2026-05-16T14:13:03Z</time>
      </trkpt>
      <trkpt lat="43.67094" lon="7.04097">
        <ele>201</ele>
        <time>2026-05-16T14:13:04Z</time>
      </trkpt>
      <trkpt lat="43.67107" lon="7.0409">
        <ele>200.8</ele>
        <time>2026-05-16T14:13:05Z</time>
      </trkpt>
      <trkpt lat="43.6712" lon="7.04082">
        <ele>200.2</ele>
        <time>2026-05-16T14:13:06Z</time>
      </trkpt>
      <trkpt lat="43.67133" lon="7.04075">
        <ele>200.2</ele>
        <time>2026-05-16T14:13:07Z</time>
      </trkpt>
      <trkpt lat="43.67146" lon="7.04066">
        <ele>200</ele>
        <time>2026-05-16T14:13:08Z</time>
      </trkpt>
      <trkpt lat="43.67159" lon="7.04056">
        <ele>199.8</ele>
        <time>2026-05-16T14:13:09Z</time>
      </trkpt>
      <trkpt lat="43.67172" lon="7.04046">
        <ele>200.3</ele>
        <time>2026-05-16T14:13:10Z</time>
      </trkpt>
      <trkpt lat="43.67184" lon="7.04035">
        <ele>200.3</ele>
        <time>2026-05-16T14:13:11Z</time>
      </trkpt>
      <trkpt lat="43.67195" lon="7.04024">
        <ele>199.9</ele>
        <time>2026-05-16T14:13:12Z</time>
      </trkpt>
      <trkpt lat="43.67205" lon="7.04013">
        <ele>199.7</ele>
        <time>2026-05-16T14:13:13Z</time>
      </trkpt>
      <trkpt lat="43.67214" lon="7.04002">
        <ele>199.7</ele>
        <time>2026-05-16T14:13:14Z</time>
      </trkpt>
      <trkpt lat="43.67222" lon="7.03993">
        <ele>200</ele>
        <time>2026-05-16T14:13:15Z</time>
      </trkpt>
      <trkpt lat="43.67228" lon="7.03985">
        <ele>199.9</ele>
        <time>2026-05-16T14:13:16Z</time>
      </trkpt>
      <trkpt lat="43.67234" lon="7.03979">
        <ele>199.9</ele>
        <time>2026-05-16T14:13:17Z</time>
      </trkpt>
      <trkpt lat="43.67239" lon="7.03972">
        <ele>200</ele>
        <time>2026-05-16T14:13:18Z</time>
      </trkpt>
      <trkpt lat="43.67244" lon="7.03965">
        <ele>200.5</ele>
        <time>2026-05-16T14:13:19Z</time>
      </trkpt>
      <trkpt lat="43.67249" lon="7.03957">
        <ele>201.1</ele>
        <time>2026-05-16T14:13:20Z</time>
      </trkpt>
      <trkpt lat="43.67255" lon="7.03948">
        <ele>201.9</ele>
        <time>2026-05-16T14:13:21Z</time>
      </trkpt>
      <trkpt lat="43.67261" lon="7.03941">
        <ele>202.6</ele>
        <time>2026-05-16T14:13:22Z</time>
      </trkpt>
      <trkpt lat="43.67269" lon="7.03932">
        <ele>203.3</ele>
        <time>2026-05-16T14:13:23Z</time>
      </trkpt>
      <trkpt lat="43.67276" lon="7.03922">
        <ele>203.8</ele>
        <time>2026-05-16T14:13:24Z</time>
      </trkpt>
      <trkpt lat="43.67284" lon="7.03913">
        <ele>204</ele>
        <time>2026-05-16T14:13:25Z</time>
      </trkpt>
      <trkpt lat="43.67292" lon="7.03904">
        <ele>204.4</ele>
        <time>2026-05-16T14:13:26Z</time>
      </trkpt>
      <trkpt lat="43.67298" lon="7.03897">
        <ele>204.7</ele>
        <time>2026-05-16T14:13:27Z</time>
      </trkpt>
      <trkpt lat="43.67305" lon="7.0389">
        <ele>204.9</ele>
        <time>2026-05-16T14:13:28Z</time>
      </trkpt>
      <trkpt lat="43.67311" lon="7.03884">
        <ele>205.3</ele>
        <time>2026-05-16T14:13:29Z</time>
      </trkpt>
      <trkpt lat="43.67316" lon="7.03878">
        <ele>205.7</ele>
        <time>2026-05-16T14:13:30Z</time>
      </trkpt>
      <trkpt lat="43.67322" lon="7.03874">
        <ele>205.7</ele>
        <time>2026-05-16T14:13:31Z</time>
      </trkpt>
      <trkpt lat="43.67329" lon="7.03868">
        <ele>205.8</ele>
        <time>2026-05-16T14:13:32Z</time>
      </trkpt>
      <trkpt lat="43.67337" lon="7.03862">
        <ele>206.1</ele>
        <time>2026-05-16T14:13:33Z</time>
      </trkpt>
      <trkpt lat="43.67346" lon="7.03857">
        <ele>206.5</ele>
        <time>2026-05-16T14:13:34Z</time>
      </trkpt>
      <trkpt lat="43.67353" lon="7.03851">
        <ele>206.8</ele>
        <time>2026-05-16T14:13:35Z</time>
      </trkpt>
      <trkpt lat="43.6736" lon="7.03846">
        <ele>207</ele>
        <time>2026-05-16T14:13:36Z</time>
      </trkpt>
      <trkpt lat="43.67366" lon="7.03842">
        <ele>207.2</ele>
        <time>2026-05-16T14:13:37Z</time>
      </trkpt>
      <trkpt lat="43.67373" lon="7.03838">
        <ele>207.5</ele>
        <time>2026-05-16T14:13:38Z</time>
      </trkpt>
      <trkpt lat="43.67379" lon="7.03832">
        <ele>207.7</ele>
        <time>2026-05-16T14:13:39Z</time>
      </trkpt>
      <trkpt lat="43.67386" lon="7.03827">
        <ele>207.9</ele>
        <time>2026-05-16T14:13:40Z</time>
      </trkpt>
      <trkpt lat="43.67394" lon="7.03822">
        <ele>208.1</ele>
        <time>2026-05-16T14:13:41Z</time>
      </trkpt>
      <trkpt lat="43.67404" lon="7.03816">
        <ele>208.3</ele>
        <time>2026-05-16T14:13:42Z</time>
      </trkpt>
      <trkpt lat="43.67413" lon="7.03808">
        <ele>208.8</ele>
        <time>2026-05-16T14:13:43Z</time>
      </trkpt>
      <trkpt lat="43.67422" lon="7.03802">
        <ele>209.3</ele>
        <time>2026-05-16T14:13:44Z</time>
      </trkpt>
      <trkpt lat="43.67431" lon="7.03795">
        <ele>209.9</ele>
        <time>2026-05-16T14:13:45Z</time>
      </trkpt>
      <trkpt lat="43.67441" lon="7.03787">
        <ele>210.5</ele>
        <time>2026-05-16T14:13:46Z</time>
      </trkpt>
      <trkpt lat="43.6745" lon="7.03777">
        <ele>211.5</ele>
        <time>2026-05-16T14:13:47Z</time>
      </trkpt>
      <trkpt lat="43.67459" lon="7.03765">
        <ele>212.7</ele>
        <time>2026-05-16T14:13:48Z</time>
      </trkpt>
      <trkpt lat="43.67468" lon="7.03753">
        <ele>213.1</ele>
        <time>2026-05-16T14:13:49Z</time>
      </trkpt>
      <trkpt lat="43.67477" lon="7.0374">
        <ele>213.7</ele>
        <time>2026-05-16T14:13:50Z</time>
      </trkpt>
      <trkpt lat="43.67487" lon="7.03727">
        <ele>214.2</ele>
        <time>2026-05-16T14:13:51Z</time>
      </trkpt>
      <trkpt lat="43.67497" lon="7.03715">
        <ele>214.6</ele>
        <time>2026-05-16T14:13:52Z</time>
      </trkpt>
      <trkpt lat="43.67508" lon="7.03703">
        <ele>215.3</ele>
        <time>2026-05-16T14:13:53Z</time>
      </trkpt>
      <trkpt lat="43.67517" lon="7.03691">
        <ele>215.5</ele>
        <time>2026-05-16T14:13:54Z</time>
      </trkpt>
      <trkpt lat="43.67527" lon="7.0368">
        <ele>215.5</ele>
        <time>2026-05-16T14:13:55Z</time>
      </trkpt>
      <trkpt lat="43.67537" lon="7.03668">
        <ele>216.6</ele>
        <time>2026-05-16T14:13:56Z</time>
      </trkpt>
      <trkpt lat="43.67547" lon="7.03657">
        <ele>217.8</ele>
        <time>2026-05-16T14:13:57Z</time>
      </trkpt>
      <trkpt lat="43.67558" lon="7.03645">
        <ele>219.1</ele>
        <time>2026-05-16T14:13:58Z</time>
      </trkpt>
      <trkpt lat="43.67567" lon="7.03633">
        <ele>220.5</ele>
        <time>2026-05-16T14:13:59Z</time>
      </trkpt>
      <trkpt lat="43.67577" lon="7.03622">
        <ele>221.6</ele>
        <time>2026-05-16T14:14:00Z</time>
      </trkpt>
      <trkpt lat="43.67587" lon="7.03611">
        <ele>222.4</ele>
        <time>2026-05-16T14:14:01Z</time>
      </trkpt>
      <trkpt lat="43.67597" lon="7.03601">
        <ele>222.9</ele>
        <time>2026-05-16T14:14:02Z</time>
      </trkpt>
      <trkpt lat="43.67608" lon="7.03591">
        <ele>223.3</ele>
        <time>2026-05-16T14:14:03Z</time>
      </trkpt>
      <trkpt lat="43.67619" lon="7.03582">
        <ele>223.5</ele>
        <time>2026-05-16T14:14:04Z</time>
      </trkpt>
      <trkpt lat="43.67631" lon="7.03575">
        <ele>224.1</ele>
        <time>2026-05-16T14:14:05Z</time>
      </trkpt>
      <trkpt lat="43.67642" lon="7.03567">
        <ele>224.4</ele>
        <time>2026-05-16T14:14:06Z</time>
      </trkpt>
      <trkpt lat="43.67655" lon="7.03561">
        <ele>224.2</ele>
        <time>2026-05-16T14:14:07Z</time>
      </trkpt>
      <trkpt lat="43.67669" lon="7.03555">
        <ele>223.9</ele>
        <time>2026-05-16T14:14:08Z</time>
      </trkpt>
      <trkpt lat="43.67683" lon="7.0355">
        <ele>223.1</ele>
        <time>2026-05-16T14:14:09Z</time>
      </trkpt>
      <trkpt lat="43.67697" lon="7.03545">
        <ele>222.6</ele>
        <time>2026-05-16T14:14:10Z</time>
      </trkpt>
      <trkpt lat="43.67712" lon="7.03541">
        <ele>222.2</ele>
        <time>2026-05-16T14:14:11Z</time>
      </trkpt>
      <trkpt lat="43.67725" lon="7.03536">
        <ele>222</ele>
        <time>2026-05-16T14:14:12Z</time>
      </trkpt>
      <trkpt lat="43.67735" lon="7.03533">
        <ele>221.9</ele>
        <time>2026-05-16T14:14:13Z</time>
      </trkpt>
      <trkpt lat="43.67742" lon="7.0353">
        <ele>221.9</ele>
        <time>2026-05-16T14:14:14Z</time>
      </trkpt>
      <trkpt lat="43.67748" lon="7.03527">
        <ele>222</ele>
        <time>2026-05-16T14:14:15Z</time>
      </trkpt>
      <trkpt lat="43.67755" lon="7.03525">
        <ele>222</ele>
        <time>2026-05-16T14:14:16Z</time>
      </trkpt>
      <trkpt lat="43.67763" lon="7.03522">
        <ele>222</ele>
        <time>2026-05-16T14:14:17Z</time>
      </trkpt>
      <trkpt lat="43.67772" lon="7.0352">
        <ele>222</ele>
        <time>2026-05-16T14:14:18Z</time>
      </trkpt>
      <trkpt lat="43.67781" lon="7.03518">
        <ele>222</ele>
        <time>2026-05-16T14:14:19Z</time>
      </trkpt>
      <trkpt lat="43.67791" lon="7.03515">
        <ele>222.2</ele>
        <time>2026-05-16T14:14:20Z</time>
      </trkpt>
      <trkpt lat="43.67802" lon="7.03513">
        <ele>222.5</ele>
        <time>2026-05-16T14:14:21Z</time>
      </trkpt>
      <trkpt lat="43.67814" lon="7.0351">
        <ele>222.7</ele>
        <time>2026-05-16T14:14:22Z</time>
      </trkpt>
      <trkpt lat="43.67825" lon="7.03508">
        <ele>222.9</ele>
        <time>2026-05-16T14:14:23Z</time>
      </trkpt>
      <trkpt lat="43.67836" lon="7.03506">
        <ele>223</ele>
        <time>2026-05-16T14:14:24Z</time>
      </trkpt>
      <trkpt lat="43.67847" lon="7.03503">
        <ele>223</ele>
        <time>2026-05-16T14:14:25Z</time>
      </trkpt>
      <trkpt lat="43.67859" lon="7.035">
        <ele>223</ele>
        <time>2026-05-16T14:14:26Z</time>
      </trkpt>
      <trkpt lat="43.67871" lon="7.03497">
        <ele>222.8</ele>
        <time>2026-05-16T14:14:27Z</time>
      </trkpt>
      <trkpt lat="43.67882" lon="7.03494">
        <ele>222.5</ele>
        <time>2026-05-16T14:14:28Z</time>
      </trkpt>
      <trkpt lat="43.67893" lon="7.03491">
        <ele>222.3</ele>
        <time>2026-05-16T14:14:29Z</time>
      </trkpt>
      <trkpt lat="43.67904" lon="7.03489">
        <ele>222.4</ele>
        <time>2026-05-16T14:14:30Z</time>
      </trkpt>
      <trkpt lat="43.67915" lon="7.03489">
        <ele>222.4</ele>
        <time>2026-05-16T14:14:31Z</time>
      </trkpt>
      <trkpt lat="43.67925" lon="7.03487">
        <ele>222.5</ele>
        <time>2026-05-16T14:14:32Z</time>
      </trkpt>
      <trkpt lat="43.67936" lon="7.03486">
        <ele>222.5</ele>
        <time>2026-05-16T14:14:33Z</time>
      </trkpt>
      <trkpt lat="43.67946" lon="7.03484">
        <ele>222.6</ele>
        <time>2026-05-16T14:14:34Z</time>
      </trkpt>
      <trkpt lat="43.67955" lon="7.03482">
        <ele>223</ele>
        <time>2026-05-16T14:14:35Z</time>
      </trkpt>
      <trkpt lat="43.67963" lon="7.0348">
        <ele>223.4</ele>
        <time>2026-05-16T14:14:36Z</time>
      </trkpt>
      <trkpt lat="43.6797" lon="7.03478">
        <ele>223.7</ele>
        <time>2026-05-16T14:14:37Z</time>
      </trkpt>
      <trkpt lat="43.67975" lon="7.03477">
        <ele>223.8</ele>
        <time>2026-05-16T14:14:38Z</time>
      </trkpt>
      <trkpt lat="43.6798" lon="7.03476">
        <ele>223.9</ele>
        <time>2026-05-16T14:14:39Z</time>
      </trkpt>
      <trkpt lat="43.67983" lon="7.03475">
        <ele>223.9</ele>
        <time>2026-05-16T14:14:40Z</time>
      </trkpt>
      <trkpt lat="43.67986" lon="7.03474">
        <ele>223.9</ele>
        <time>2026-05-16T14:14:41Z</time>
      </trkpt>
      <trkpt lat="43.67991" lon="7.03473">
        <ele>224</ele>
        <time>2026-05-16T14:14:42Z</time>
      </trkpt>
      <trkpt lat="43.67996" lon="7.03472">
        <ele>224</ele>
        <time>2026-05-16T14:14:43Z</time>
      </trkpt>
      <trkpt lat="43.68002" lon="7.0347">
        <ele>224.1</ele>
        <time>2026-05-16T14:14:44Z</time>
      </trkpt>
      <trkpt lat="43.68008" lon="7.03468">
        <ele>224.2</ele>
        <time>2026-05-16T14:14:45Z</time>
      </trkpt>
      <trkpt lat="43.68013" lon="7.03462">
        <ele>224.4</ele>
        <time>2026-05-16T14:14:46Z</time>
      </trkpt>
      <trkpt lat="43.68018" lon="7.03455">
        <ele>224.6</ele>
        <time>2026-05-16T14:14:47Z</time>
      </trkpt>
      <trkpt lat="43.68022" lon="7.03445">
        <ele>225</ele>
        <time>2026-05-16T14:14:48Z</time>
      </trkpt>
      <trkpt lat="43.68027" lon="7.03434">
        <ele>225.4</ele>
        <time>2026-05-16T14:14:49Z</time>
      </trkpt>
      <trkpt lat="43.68031" lon="7.03421">
        <ele>225.8</ele>
        <time>2026-05-16T14:14:50Z</time>
      </trkpt>
      <trkpt lat="43.68034" lon="7.03408">
        <ele>226.3</ele>
        <time>2026-05-16T14:14:51Z</time>
      </trkpt>
      <trkpt lat="43.68037" lon="7.03394">
        <ele>227</ele>
        <time>2026-05-16T14:14:52Z</time>
      </trkpt>
      <trkpt lat="43.68039" lon="7.0338">
        <ele>227.5</ele>
        <time>2026-05-16T14:14:53Z</time>
      </trkpt>
      <trkpt lat="43.6804" lon="7.03365">
        <ele>228</ele>
        <time>2026-05-16T14:14:54Z</time>
      </trkpt>
      <trkpt lat="43.68042" lon="7.03348">
        <ele>228.4</ele>
        <time>2026-05-16T14:14:55Z</time>
      </trkpt>
      <trkpt lat="43.68044" lon="7.03331">
        <ele>228.9</ele>
        <time>2026-05-16T14:14:56Z</time>
      </trkpt>
      <trkpt lat="43.68047" lon="7.03315">
        <ele>229</ele>
        <time>2026-05-16T14:14:57Z</time>
      </trkpt>
      <trkpt lat="43.68049" lon="7.03298">
        <ele>229.2</ele>
        <time>2026-05-16T14:14:58Z</time>
      </trkpt>
      <trkpt lat="43.68052" lon="7.03281">
        <ele>229.4</ele>
        <time>2026-05-16T14:14:59Z</time>
      </trkpt>
      <trkpt lat="43.68053" lon="7.03264">
        <ele>229.9</ele>
        <time>2026-05-16T14:15:00Z</time>
      </trkpt>
      <trkpt lat="43.68055" lon="7.03247">
        <ele>230.2</ele>
        <time>2026-05-16T14:15:01Z</time>
      </trkpt>
      <trkpt lat="43.68057" lon="7.03231">
        <ele>230.6</ele>
        <time>2026-05-16T14:15:02Z</time>
      </trkpt>
      <trkpt lat="43.68057" lon="7.03216">
        <ele>230.9</ele>
        <time>2026-05-16T14:15:03Z</time>
      </trkpt>
      <trkpt lat="43.68056" lon="7.03202">
        <ele>231</ele>
        <time>2026-05-16T14:15:04Z</time>
      </trkpt>
      <trkpt lat="43.68055" lon="7.03189">
        <ele>231.3</ele>
        <time>2026-05-16T14:15:05Z</time>
      </trkpt>
      <trkpt lat="43.68052" lon="7.03176">
        <ele>232.3</ele>
        <time>2026-05-16T14:15:06Z</time>
      </trkpt>
      <trkpt lat="43.68049" lon="7.03163">
        <ele>232.9</ele>
        <time>2026-05-16T14:15:07Z</time>
      </trkpt>
      <trkpt lat="43.68044" lon="7.03149">
        <ele>233.1</ele>
        <time>2026-05-16T14:15:08Z</time>
      </trkpt>
      <trkpt lat="43.68038" lon="7.03135">
        <ele>233.5</ele>
        <time>2026-05-16T14:15:09Z</time>
      </trkpt>
      <trkpt lat="43.6803" lon="7.03121">
        <ele>233.3</ele>
        <time>2026-05-16T14:15:10Z</time>
      </trkpt>
      <trkpt lat="43.68022" lon="7.03109">
        <ele>233.2</ele>
        <time>2026-05-16T14:15:11Z</time>
      </trkpt>
      <trkpt lat="43.68014" lon="7.03096">
        <ele>234.2</ele>
        <time>2026-05-16T14:15:12Z</time>
      </trkpt>
      <trkpt lat="43.68006" lon="7.03083">
        <ele>234.3</ele>
        <time>2026-05-16T14:15:13Z</time>
      </trkpt>
      <trkpt lat="43.68001" lon="7.03068">
        <ele>234.4</ele>
        <time>2026-05-16T14:15:14Z</time>
      </trkpt>
      <trkpt lat="43.67996" lon="7.03052">
        <ele>235</ele>
        <time>2026-05-16T14:15:15Z</time>
      </trkpt>
      <trkpt lat="43.67992" lon="7.03036">
        <ele>235.6</ele>
        <time>2026-05-16T14:15:16Z</time>
      </trkpt>
      <trkpt lat="43.6799" lon="7.03018">
        <ele>235.5</ele>
        <time>2026-05-16T14:15:17Z</time>
      </trkpt>
      <trkpt lat="43.67986" lon="7.03001">
        <ele>235.5</ele>
        <time>2026-05-16T14:15:18Z</time>
      </trkpt>
      <trkpt lat="43.67982" lon="7.02985">
        <ele>236.9</ele>
        <time>2026-05-16T14:15:19Z</time>
      </trkpt>
      <trkpt lat="43.67977" lon="7.0297">
        <ele>238.1</ele>
        <time>2026-05-16T14:15:20Z</time>
      </trkpt>
      <trkpt lat="43.67971" lon="7.02957">
        <ele>239.7</ele>
        <time>2026-05-16T14:15:21Z</time>
      </trkpt>
      <trkpt lat="43.67962" lon="7.02946">
        <ele>240.5</ele>
        <time>2026-05-16T14:15:22Z</time>
      </trkpt>
      <trkpt lat="43.67953" lon="7.02936">
        <ele>241.1</ele>
        <time>2026-05-16T14:15:23Z</time>
      </trkpt>
      <trkpt lat="43.67943" lon="7.02927">
        <ele>241.4</ele>
        <time>2026-05-16T14:15:24Z</time>
      </trkpt>
      <trkpt lat="43.67934" lon="7.02921">
        <ele>242.4</ele>
        <time>2026-05-16T14:15:25Z</time>
      </trkpt>
      <trkpt lat="43.67924" lon="7.02916">
        <ele>243.5</ele>
        <time>2026-05-16T14:15:26Z</time>
      </trkpt>
      <trkpt lat="43.67916" lon="7.02911">
        <ele>244.1</ele>
        <time>2026-05-16T14:15:27Z</time>
      </trkpt>
      <trkpt lat="43.6791" lon="7.02906">
        <ele>244.7</ele>
        <time>2026-05-16T14:15:28Z</time>
      </trkpt>
      <trkpt lat="43.67907" lon="7.02902">
        <ele>245.1</ele>
        <time>2026-05-16T14:15:29Z</time>
      </trkpt>
      <trkpt lat="43.67904" lon="7.02899">
        <ele>245.5</ele>
        <time>2026-05-16T14:15:30Z</time>
      </trkpt>
      <trkpt lat="43.67901" lon="7.02897">
        <ele>245.9</ele>
        <time>2026-05-16T14:15:31Z</time>
      </trkpt>
      <trkpt lat="43.67898" lon="7.02895">
        <ele>246.4</ele>
        <time>2026-05-16T14:15:32Z</time>
      </trkpt>
      <trkpt lat="43.67895" lon="7.02894">
        <ele>246.8</ele>
        <time>2026-05-16T14:15:33Z</time>
      </trkpt>
      <trkpt lat="43.67893" lon="7.02895">
        <ele>247</ele>
        <time>2026-05-16T14:15:34Z</time>
      </trkpt>
      <trkpt lat="43.67892" lon="7.02896">
        <ele>247.1</ele>
        <time>2026-05-16T14:15:35Z</time>
      </trkpt>
      <trkpt lat="43.67892" lon="7.02896">
        <ele>247.1</ele>
        <time>2026-05-16T14:15:36Z</time>
      </trkpt>
      <trkpt lat="43.67892" lon="7.02897">
        <ele>247</ele>
        <time>2026-05-16T14:15:37Z</time>
      </trkpt>
      <trkpt lat="43.67892" lon="7.02897">
        <ele>247</ele>
        <time>2026-05-16T14:15:38Z</time>
      </trkpt>
      <trkpt lat="43.67892" lon="7.02897">
        <ele>247</ele>
        <time>2026-05-16T14:15:39Z</time>
      </trkpt>
      <trkpt lat="43.67892" lon="7.02898">
        <ele>247</ele>
        <time>2026-05-16T14:15:40Z</time>
      </trkpt>
      <trkpt lat="43.67892" lon="7.02897">
        <ele>247</ele>
        <time>2026-05-16T14:15:41Z</time>
      </trkpt>
      <trkpt lat="43.67892" lon="7.02897">
        <ele>247</ele>
        <time>2026-05-16T14:15:42Z</time>
      </trkpt>
      <trkpt lat="43.67892" lon="7.02898">
        <ele>247</ele>
        <time>2026-05-16T14:15:43Z</time>
      </trkpt>
      <trkpt lat="43.67891" lon="7.02898">
        <ele>247.1</ele>
        <time>2026-05-16T14:15:44Z</time>
      </trkpt>
      <trkpt lat="43.67892" lon="7.02898">
        <ele>247</ele>
        <time>2026-05-16T14:15:45Z</time>
      </trkpt>
      <trkpt lat="43.67891" lon="7.02899">
        <ele>247</ele>
        <time>2026-05-16T14:15:46Z</time>
      </trkpt>
      <trkpt lat="43.67889" lon="7.029">
        <ele>247.2</ele>
        <time>2026-05-16T14:15:47Z</time>
      </trkpt>
      <trkpt lat="43.67888" lon="7.02902">
        <ele>247.1</ele>
        <time>2026-05-16T14:15:48Z</time>
      </trkpt>
      <trkpt lat="43.67887" lon="7.02905">
        <ele>247</ele>
        <time>2026-05-16T14:15:49Z</time>
      </trkpt>
      <trkpt lat="43.67887" lon="7.02909">
        <ele>246.7</ele>
        <time>2026-05-16T14:15:50Z</time>
      </trkpt>
      <trkpt lat="43.67887" lon="7.02912">
        <ele>246.5</ele>
        <time>2026-05-16T14:15:51Z</time>
      </trkpt>
      <trkpt lat="43.67887" lon="7.02916">
        <ele>246.2</ele>
        <time>2026-05-16T14:15:52Z</time>
      </trkpt>
      <trkpt lat="43.67888" lon="7.02918">
        <ele>246</ele>
        <time>2026-05-16T14:15:53Z</time>
      </trkpt>
      <trkpt lat="43.67889" lon="7.02919">
        <ele>245.8</ele>
        <time>2026-05-16T14:15:54Z</time>
      </trkpt>
      <trkpt lat="43.6789" lon="7.02919">
        <ele>245.8</ele>
        <time>2026-05-16T14:15:55Z</time>
      </trkpt>
      <trkpt lat="43.67891" lon="7.02919">
        <ele>245.7</ele>
        <time>2026-05-16T14:15:56Z</time>
      </trkpt>
      <trkpt lat="43.67892" lon="7.02919">
        <ele>245.6</ele>
        <time>2026-05-16T14:15:57Z</time>
      </trkpt>
      <trkpt lat="43.67892" lon="7.02918">
        <ele>245.7</ele>
        <time>2026-05-16T14:15:58Z</time>
      </trkpt>
      <trkpt lat="43.67893" lon="7.02917">
        <ele>245.7</ele>
        <time>2026-05-16T14:15:59Z</time>
      </trkpt>
      <trkpt lat="43.67894" lon="7.02915">
        <ele>245.7</ele>
        <time>2026-05-16T14:16:00Z</time>
      </trkpt>
      <trkpt lat="43.67894" lon="7.02914">
        <ele>245.8</ele>
        <time>2026-05-16T14:16:01Z</time>
      </trkpt>
      <trkpt lat="43.67894" lon="7.02913">
        <ele>245.8</ele>
        <time>2026-05-16T14:16:02Z</time>
      </trkpt>
      <trkpt lat="43.67894" lon="7.02913">
        <ele>245.8</ele>
        <time>2026-05-16T14:16:03Z</time>
      </trkpt>
      <trkpt lat="43.67894" lon="7.02913">
        <ele>245.8</ele>
        <time>2026-05-16T14:16:04Z</time>
      </trkpt>
      <trkpt lat="43.67894" lon="7.02913">
        <ele>245.8</ele>
        <time>2026-05-16T14:16:05Z</time>
      </trkpt>
      <trkpt lat="43.67894" lon="7.02912">
        <ele>245.9</ele>
        <time>2026-05-16T14:16:06Z</time>
      </trkpt>
      <trkpt lat="43.67894" lon="7.02911">
        <ele>246</ele>
        <time>2026-05-16T14:16:07Z</time>
      </trkpt>
      <trkpt lat="43.67893" lon="7.0291">
        <ele>246.1</ele>
        <time>2026-05-16T14:16:08Z</time>
      </trkpt>
      <trkpt lat="43.67892" lon="7.02908">
        <ele>246.3</ele>
        <time>2026-05-16T14:16:09Z</time>
      </trkpt>
      <trkpt lat="43.67891" lon="7.02903">
        <ele>246.8</ele>
        <time>2026-05-16T14:16:10Z</time>
      </trkpt>
      <trkpt lat="43.67891" lon="7.02898">
        <ele>247.1</ele>
        <time>2026-05-16T14:16:11Z</time>
      </trkpt>
      <trkpt lat="43.67893" lon="7.02893">
        <ele>247.2</ele>
        <time>2026-05-16T14:16:12Z</time>
      </trkpt>
      <trkpt lat="43.67897" lon="7.02883">
        <ele>247.3</ele>
        <time>2026-05-16T14:16:13Z</time>
      </trkpt>
      <trkpt lat="43.679" lon="7.02873">
        <ele>247.8</ele>
        <time>2026-05-16T14:16:14Z</time>
      </trkpt>
      <trkpt lat="43.67902" lon="7.02864">
        <ele>248.3</ele>
        <time>2026-05-16T14:16:15Z</time>
      </trkpt>
      <trkpt lat="43.67904" lon="7.02855">
        <ele>249.1</ele>
        <time>2026-05-16T14:16:16Z</time>
      </trkpt>
      <trkpt lat="43.67905" lon="7.0285">
        <ele>249.6</ele>
        <time>2026-05-16T14:16:17Z</time>
      </trkpt>
      <trkpt lat="43.67906" lon="7.02841">
        <ele>250.6</ele>
        <time>2026-05-16T14:16:18Z</time>
      </trkpt>
      <trkpt lat="43.67906" lon="7.02832">
        <ele>251.6</ele>
        <time>2026-05-16T14:16:19Z</time>
      </trkpt>
      <trkpt lat="43.67906" lon="7.02821">
        <ele>252.3</ele>
        <time>2026-05-16T14:16:20Z</time>
      </trkpt>
      <trkpt lat="43.67903" lon="7.0281">
        <ele>253.2</ele>
        <time>2026-05-16T14:16:21Z</time>
      </trkpt>
      <trkpt lat="43.67899" lon="7.02798">
        <ele>254.2</ele>
        <time>2026-05-16T14:16:22Z</time>
      </trkpt>
      <trkpt lat="43.67895" lon="7.02787">
        <ele>254.8</ele>
        <time>2026-05-16T14:16:23Z</time>
      </trkpt>
      <trkpt lat="43.6789" lon="7.02773">
        <ele>255</ele>
        <time>2026-05-16T14:16:24Z</time>
      </trkpt>
      <trkpt lat="43.67885" lon="7.02758">
        <ele>255.6</ele>
        <time>2026-05-16T14:16:25Z</time>
      </trkpt>
      <trkpt lat="43.6788" lon="7.02743">
        <ele>256.5</ele>
        <time>2026-05-16T14:16:26Z</time>
      </trkpt>
      <trkpt lat="43.67875" lon="7.02728">
        <ele>257.4</ele>
        <time>2026-05-16T14:16:27Z</time>
      </trkpt>
      <trkpt lat="43.6787" lon="7.02713">
        <ele>257.9</ele>
        <time>2026-05-16T14:16:28Z</time>
      </trkpt>
      <trkpt lat="43.67863" lon="7.02698">
        <ele>258.7</ele>
        <time>2026-05-16T14:16:29Z</time>
      </trkpt>
      <trkpt lat="43.67856" lon="7.02683">
        <ele>259.8</ele>
        <time>2026-05-16T14:16:30Z</time>
      </trkpt>
      <trkpt lat="43.67848" lon="7.02668">
        <ele>260.9</ele>
        <time>2026-05-16T14:16:31Z</time>
      </trkpt>
      <trkpt lat="43.67839" lon="7.02653">
        <ele>261.5</ele>
        <time>2026-05-16T14:16:32Z</time>
      </trkpt>
      <trkpt lat="43.67832" lon="7.02638">
        <ele>261.3</ele>
        <time>2026-05-16T14:16:33Z</time>
      </trkpt>
      <trkpt lat="43.67823" lon="7.02625">
        <ele>262.8</ele>
        <time>2026-05-16T14:16:34Z</time>
      </trkpt>
      <trkpt lat="43.67813" lon="7.0261">
        <ele>263.5</ele>
        <time>2026-05-16T14:16:35Z</time>
      </trkpt>
      <trkpt lat="43.67804" lon="7.02596">
        <ele>264.2</ele>
        <time>2026-05-16T14:16:36Z</time>
      </trkpt>
      <trkpt lat="43.67795" lon="7.02581">
        <ele>264.7</ele>
        <time>2026-05-16T14:16:37Z</time>
      </trkpt>
      <trkpt lat="43.67786" lon="7.02567">
        <ele>265</ele>
        <time>2026-05-16T14:16:38Z</time>
      </trkpt>
      <trkpt lat="43.67777" lon="7.02553">
        <ele>265.2</ele>
        <time>2026-05-16T14:16:39Z</time>
      </trkpt>
      <trkpt lat="43.67768" lon="7.0254">
        <ele>266.4</ele>
        <time>2026-05-16T14:16:40Z</time>
      </trkpt>
      <trkpt lat="43.6776" lon="7.02526">
        <ele>267.4</ele>
        <time>2026-05-16T14:16:41Z</time>
      </trkpt>
      <trkpt lat="43.67751" lon="7.02512">
        <ele>268.6</ele>
        <time>2026-05-16T14:16:42Z</time>
      </trkpt>
      <trkpt lat="43.67743" lon="7.02499">
        <ele>268.6</ele>
        <time>2026-05-16T14:16:43Z</time>
      </trkpt>
      <trkpt lat="43.67736" lon="7.02486">
        <ele>269</ele>
        <time>2026-05-16T14:16:44Z</time>
      </trkpt>
      <trkpt lat="43.67728" lon="7.02473">
        <ele>269.4</ele>
        <time>2026-05-16T14:16:45Z</time>
      </trkpt>
      <trkpt lat="43.67721" lon="7.0246">
        <ele>269.7</ele>
        <time>2026-05-16T14:16:46Z</time>
      </trkpt>
      <trkpt lat="43.67716" lon="7.02448">
        <ele>269.7</ele>
        <time>2026-05-16T14:16:47Z</time>
      </trkpt>
      <trkpt lat="43.67713" lon="7.02439">
        <ele>269.5</ele>
        <time>2026-05-16T14:16:48Z</time>
      </trkpt>
      <trkpt lat="43.67711" lon="7.02431">
        <ele>269.5</ele>
        <time>2026-05-16T14:16:49Z</time>
      </trkpt>
      <trkpt lat="43.67709" lon="7.02424">
        <ele>269.4</ele>
        <time>2026-05-16T14:16:50Z</time>
      </trkpt>
      <trkpt lat="43.67707" lon="7.02415">
        <ele>269.2</ele>
        <time>2026-05-16T14:16:51Z</time>
      </trkpt>
      <trkpt lat="43.67706" lon="7.02404">
        <ele>268.8</ele>
        <time>2026-05-16T14:16:52Z</time>
      </trkpt>
      <trkpt lat="43.67705" lon="7.02392">
        <ele>268.3</ele>
        <time>2026-05-16T14:16:53Z</time>
      </trkpt>
      <trkpt lat="43.67703" lon="7.02378">
        <ele>268</ele>
        <time>2026-05-16T14:16:54Z</time>
      </trkpt>
      <trkpt lat="43.67702" lon="7.02365">
        <ele>268</ele>
        <time>2026-05-16T14:16:55Z</time>
      </trkpt>
      <trkpt lat="43.67699" lon="7.02353">
        <ele>267.9</ele>
        <time>2026-05-16T14:16:56Z</time>
      </trkpt>
      <trkpt lat="43.67695" lon="7.0234">
        <ele>267.8</ele>
        <time>2026-05-16T14:16:57Z</time>
      </trkpt>
      <trkpt lat="43.67689" lon="7.02327">
        <ele>267.9</ele>
        <time>2026-05-16T14:16:58Z</time>
      </trkpt>
      <trkpt lat="43.67682" lon="7.02315">
        <ele>268.1</ele>
        <time>2026-05-16T14:16:59Z</time>
      </trkpt>
      <trkpt lat="43.67675" lon="7.02303">
        <ele>268.9</ele>
        <time>2026-05-16T14:17:00Z</time>
      </trkpt>
      <trkpt lat="43.67667" lon="7.02289">
        <ele>270.2</ele>
        <time>2026-05-16T14:17:01Z</time>
      </trkpt>
      <trkpt lat="43.67663" lon="7.02276">
        <ele>271.4</ele>
        <time>2026-05-16T14:17:02Z</time>
      </trkpt>
      <trkpt lat="43.67658" lon="7.02264">
        <ele>272.5</ele>
        <time>2026-05-16T14:17:03Z</time>
      </trkpt>
      <trkpt lat="43.67654" lon="7.02252">
        <ele>273.3</ele>
        <time>2026-05-16T14:17:04Z</time>
      </trkpt>
      <trkpt lat="43.67649" lon="7.02244">
        <ele>274</ele>
        <time>2026-05-16T14:17:05Z</time>
      </trkpt>
      <trkpt lat="43.67644" lon="7.02235">
        <ele>274.6</ele>
        <time>2026-05-16T14:17:06Z</time>
      </trkpt>
      <trkpt lat="43.67639" lon="7.02226">
        <ele>274.9</ele>
        <time>2026-05-16T14:17:07Z</time>
      </trkpt>
      <trkpt lat="43.67633" lon="7.02217">
        <ele>274.5</ele>
        <time>2026-05-16T14:17:08Z</time>
      </trkpt>
      <trkpt lat="43.67626" lon="7.02206">
        <ele>273.9</ele>
        <time>2026-05-16T14:17:09Z</time>
      </trkpt>
      <trkpt lat="43.67619" lon="7.02195">
        <ele>273.1</ele>
        <time>2026-05-16T14:17:10Z</time>
      </trkpt>
      <trkpt lat="43.67611" lon="7.02184">
        <ele>272.4</ele>
        <time>2026-05-16T14:17:11Z</time>
      </trkpt>
      <trkpt lat="43.67603" lon="7.02172">
        <ele>272</ele>
        <time>2026-05-16T14:17:12Z</time>
      </trkpt>
      <trkpt lat="43.67597" lon="7.02159">
        <ele>271.5</ele>
        <time>2026-05-16T14:17:13Z</time>
      </trkpt>
      <trkpt lat="43.67592" lon="7.02145">
        <ele>270.9</ele>
        <time>2026-05-16T14:17:14Z</time>
      </trkpt>
      <trkpt lat="43.67589" lon="7.02131">
        <ele>270.7</ele>
        <time>2026-05-16T14:17:15Z</time>
      </trkpt>
      <trkpt lat="43.67586" lon="7.02117">
        <ele>270.4</ele>
        <time>2026-05-16T14:17:16Z</time>
      </trkpt>
      <trkpt lat="43.67584" lon="7.02102">
        <ele>270.8</ele>
        <time>2026-05-16T14:17:17Z</time>
      </trkpt>
      <trkpt lat="43.67581" lon="7.02087">
        <ele>271.3</ele>
        <time>2026-05-16T14:17:18Z</time>
      </trkpt>
      <trkpt lat="43.67579" lon="7.02071">
        <ele>271.3</ele>
        <time>2026-05-16T14:17:19Z</time>
      </trkpt>
      <trkpt lat="43.67579" lon="7.02056">
        <ele>271.4</ele>
        <time>2026-05-16T14:17:20Z</time>
      </trkpt>
      <trkpt lat="43.6758" lon="7.02041">
        <ele>271.5</ele>
        <time>2026-05-16T14:17:21Z</time>
      </trkpt>
      <trkpt lat="43.67584" lon="7.02025">
        <ele>272.1</ele>
        <time>2026-05-16T14:17:22Z</time>
      </trkpt>
      <trkpt lat="43.67588" lon="7.0201">
        <ele>272.9</ele>
        <time>2026-05-16T14:17:23Z</time>
      </trkpt>
      <trkpt lat="43.67593" lon="7.01998">
        <ele>273.6</ele>
        <time>2026-05-16T14:17:24Z</time>
      </trkpt>
      <trkpt lat="43.67599" lon="7.01987">
        <ele>273.6</ele>
        <time>2026-05-16T14:17:25Z</time>
      </trkpt>
      <trkpt lat="43.67605" lon="7.01976">
        <ele>273.5</ele>
        <time>2026-05-16T14:17:26Z</time>
      </trkpt>
      <trkpt lat="43.67612" lon="7.01965">
        <ele>273.6</ele>
        <time>2026-05-16T14:17:27Z</time>
      </trkpt>
      <trkpt lat="43.67619" lon="7.01954">
        <ele>274</ele>
        <time>2026-05-16T14:17:28Z</time>
      </trkpt>
      <trkpt lat="43.67625" lon="7.01942">
        <ele>274.3</ele>
        <time>2026-05-16T14:17:29Z</time>
      </trkpt>
      <trkpt lat="43.67632" lon="7.0193">
        <ele>274.3</ele>
        <time>2026-05-16T14:17:30Z</time>
      </trkpt>
      <trkpt lat="43.67639" lon="7.01918">
        <ele>274.2</ele>
        <time>2026-05-16T14:17:31Z</time>
      </trkpt>
      <trkpt lat="43.67646" lon="7.01905">
        <ele>273.8</ele>
        <time>2026-05-16T14:17:32Z</time>
      </trkpt>
      <trkpt lat="43.67653" lon="7.01893">
        <ele>273.4</ele>
        <time>2026-05-16T14:17:33Z</time>
      </trkpt>
      <trkpt lat="43.6766" lon="7.01882">
        <ele>273</ele>
        <time>2026-05-16T14:17:34Z</time>
      </trkpt>
      <trkpt lat="43.67668" lon="7.01871">
        <ele>272.7</ele>
        <time>2026-05-16T14:17:35Z</time>
      </trkpt>
      <trkpt lat="43.67674" lon="7.0186">
        <ele>272.3</ele>
        <time>2026-05-16T14:17:36Z</time>
      </trkpt>
      <trkpt lat="43.6768" lon="7.01851">
        <ele>272.3</ele>
        <time>2026-05-16T14:17:37Z</time>
      </trkpt>
      <trkpt lat="43.67684" lon="7.01843">
        <ele>272.2</ele>
        <time>2026-05-16T14:17:38Z</time>
      </trkpt>
      <trkpt lat="43.67687" lon="7.01837">
        <ele>272.1</ele>
        <time>2026-05-16T14:17:39Z</time>
      </trkpt>
      <trkpt lat="43.67688" lon="7.01833">
        <ele>272</ele>
        <time>2026-05-16T14:17:40Z</time>
      </trkpt>
      <trkpt lat="43.67689" lon="7.0183">
        <ele>272</ele>
        <time>2026-05-16T14:17:41Z</time>
      </trkpt>
      <trkpt lat="43.6769" lon="7.01827">
        <ele>272</ele>
        <time>2026-05-16T14:17:42Z</time>
      </trkpt>
      <trkpt lat="43.6769" lon="7.01824">
        <ele>271.9</ele>
        <time>2026-05-16T14:17:43Z</time>
      </trkpt>
      <trkpt lat="43.67691" lon="7.01821">
        <ele>271.9</ele>
        <time>2026-05-16T14:17:44Z</time>
      </trkpt>
      <trkpt lat="43.67692" lon="7.01818">
        <ele>272</ele>
        <time>2026-05-16T14:17:45Z</time>
      </trkpt>
      <trkpt lat="43.67692" lon="7.01815">
        <ele>271.9</ele>
        <time>2026-05-16T14:17:46Z</time>
      </trkpt>
      <trkpt lat="43.67693" lon="7.01811">
        <ele>272</ele>
        <time>2026-05-16T14:17:47Z</time>
      </trkpt>
      <trkpt lat="43.67694" lon="7.01807">
        <ele>272</ele>
        <time>2026-05-16T14:17:48Z</time>
      </trkpt>
      <trkpt lat="43.67696" lon="7.01801">
        <ele>272</ele>
        <time>2026-05-16T14:17:49Z</time>
      </trkpt>
      <trkpt lat="43.67699" lon="7.01794">
        <ele>271.9</ele>
        <time>2026-05-16T14:17:50Z</time>
      </trkpt>
      <trkpt lat="43.67703" lon="7.01786">
        <ele>271.9</ele>
        <time>2026-05-16T14:17:51Z</time>
      </trkpt>
      <trkpt lat="43.67707" lon="7.01778">
        <ele>272</ele>
        <time>2026-05-16T14:17:52Z</time>
      </trkpt>
      <trkpt lat="43.6771" lon="7.01768">
        <ele>271.8</ele>
        <time>2026-05-16T14:17:53Z</time>
      </trkpt>
      <trkpt lat="43.67713" lon="7.01758">
        <ele>271.8</ele>
        <time>2026-05-16T14:17:54Z</time>
      </trkpt>
      <trkpt lat="43.67715" lon="7.01749">
        <ele>271.8</ele>
        <time>2026-05-16T14:17:55Z</time>
      </trkpt>
      <trkpt lat="43.67716" lon="7.01742">
        <ele>272</ele>
        <time>2026-05-16T14:17:56Z</time>
      </trkpt>
      <trkpt lat="43.67719" lon="7.01737">
        <ele>272.3</ele>
        <time>2026-05-16T14:17:57Z</time>
      </trkpt>
      <trkpt lat="43.67721" lon="7.01732">
        <ele>272.6</ele>
        <time>2026-05-16T14:17:58Z</time>
      </trkpt>
      <trkpt lat="43.6772" lon="7.01728">
        <ele>272.6</ele>
        <time>2026-05-16T14:17:59Z</time>
      </trkpt>
      <trkpt lat="43.67718" lon="7.01726">
        <ele>272.6</ele>
        <time>2026-05-16T14:18:00Z</time>
      </trkpt>
      <trkpt lat="43.67715" lon="7.01727">
        <ele>272.4</ele>
        <time>2026-05-16T14:18:01Z</time>
      </trkpt>
      <trkpt lat="43.67713" lon="7.01731">
        <ele>272.1</ele>
        <time>2026-05-16T14:18:02Z</time>
      </trkpt>
      <trkpt lat="43.67711" lon="7.01737">
        <ele>271.9</ele>
        <time>2026-05-16T14:18:03Z</time>
      </trkpt>
      <trkpt lat="43.6771" lon="7.01747">
        <ele>271.6</ele>
        <time>2026-05-16T14:18:04Z</time>
      </trkpt>
      <trkpt lat="43.67708" lon="7.01756">
        <ele>271.6</ele>
        <time>2026-05-16T14:18:05Z</time>
      </trkpt>
      <trkpt lat="43.67705" lon="7.01767">
        <ele>271.8</ele>
        <time>2026-05-16T14:18:06Z</time>
      </trkpt>
      <trkpt lat="43.67701" lon="7.01778">
        <ele>272</ele>
        <time>2026-05-16T14:18:07Z</time>
      </trkpt>
      <trkpt lat="43.67698" lon="7.01788">
        <ele>272</ele>
        <time>2026-05-16T14:18:08Z</time>
      </trkpt>
      <trkpt lat="43.67694" lon="7.01798">
        <ele>272</ele>
        <time>2026-05-16T14:18:09Z</time>
      </trkpt>
      <trkpt lat="43.67689" lon="7.01806">
        <ele>271.8</ele>
        <time>2026-05-16T14:18:10Z</time>
      </trkpt>
      <trkpt lat="43.67686" lon="7.01815">
        <ele>271.8</ele>
        <time>2026-05-16T14:18:11Z</time>
      </trkpt>
      <trkpt lat="43.67684" lon="7.01825">
        <ele>271.9</ele>
        <time>2026-05-16T14:18:12Z</time>
      </trkpt>
      <trkpt lat="43.67682" lon="7.01834">
        <ele>272</ele>
        <time>2026-05-16T14:18:13Z</time>
      </trkpt>
      <trkpt lat="43.67678" lon="7.01843">
        <ele>272.1</ele>
        <time>2026-05-16T14:18:14Z</time>
      </trkpt>
      <trkpt lat="43.67673" lon="7.01853">
        <ele>272.2</ele>
        <time>2026-05-16T14:18:15Z</time>
      </trkpt>
      <trkpt lat="43.67667" lon="7.01864">
        <ele>272.2</ele>
        <time>2026-05-16T14:18:16Z</time>
      </trkpt>
      <trkpt lat="43.67661" lon="7.01875">
        <ele>272.6</ele>
        <time>2026-05-16T14:18:17Z</time>
      </trkpt>
      <trkpt lat="43.67654" lon="7.01886">
        <ele>272.9</ele>
        <time>2026-05-16T14:18:18Z</time>
      </trkpt>
      <trkpt lat="43.67648" lon="7.01897">
        <ele>273.3</ele>
        <time>2026-05-16T14:18:19Z</time>
      </trkpt>
      <trkpt lat="43.67641" lon="7.01908">
        <ele>273.6</ele>
        <time>2026-05-16T14:18:20Z</time>
      </trkpt>
      <trkpt lat="43.67635" lon="7.0192">
        <ele>273.8</ele>
        <time>2026-05-16T14:18:21Z</time>
      </trkpt>
      <trkpt lat="43.67629" lon="7.01931">
        <ele>273.9</ele>
        <time>2026-05-16T14:18:22Z</time>
      </trkpt>
      <trkpt lat="43.67623" lon="7.01942">
        <ele>273.9</ele>
        <time>2026-05-16T14:18:23Z</time>
      </trkpt>
      <trkpt lat="43.67616" lon="7.01953">
        <ele>273.4</ele>
        <time>2026-05-16T14:18:24Z</time>
      </trkpt>
      <trkpt lat="43.6761" lon="7.01965">
        <ele>273.3</ele>
        <time>2026-05-16T14:18:25Z</time>
      </trkpt>
      <trkpt lat="43.67602" lon="7.01977">
        <ele>273.1</ele>
        <time>2026-05-16T14:18:26Z</time>
      </trkpt>
      <trkpt lat="43.67595" lon="7.0199">
        <ele>273.2</ele>
        <time>2026-05-16T14:18:27Z</time>
      </trkpt>
      <trkpt lat="43.67588" lon="7.02003">
        <ele>272.9</ele>
        <time>2026-05-16T14:18:28Z</time>
      </trkpt>
      <trkpt lat="43.67582" lon="7.02018">
        <ele>271.7</ele>
        <time>2026-05-16T14:18:29Z</time>
      </trkpt>
      <trkpt lat="43.67578" lon="7.02033">
        <ele>271.1</ele>
        <time>2026-05-16T14:18:30Z</time>
      </trkpt>
      <trkpt lat="43.67576" lon="7.0205">
        <ele>270.9</ele>
        <time>2026-05-16T14:18:31Z</time>
      </trkpt>
      <trkpt lat="43.67576" lon="7.02066">
        <ele>270.8</ele>
        <time>2026-05-16T14:18:32Z</time>
      </trkpt>
      <trkpt lat="43.67578" lon="7.02083">
        <ele>271</ele>
        <time>2026-05-16T14:18:33Z</time>
      </trkpt>
      <trkpt lat="43.67581" lon="7.021">
        <ele>270.5</ele>
        <time>2026-05-16T14:18:34Z</time>
      </trkpt>
      <trkpt lat="43.67584" lon="7.02117">
        <ele>270.1</ele>
        <time>2026-05-16T14:18:35Z</time>
      </trkpt>
      <trkpt lat="43.67588" lon="7.02135">
        <ele>270.5</ele>
        <time>2026-05-16T14:18:36Z</time>
      </trkpt>
      <trkpt lat="43.67592" lon="7.02152">
        <ele>270.9</ele>
        <time>2026-05-16T14:18:37Z</time>
      </trkpt>
      <trkpt lat="43.67599" lon="7.02167">
        <ele>271.7</ele>
        <time>2026-05-16T14:18:38Z</time>
      </trkpt>
      <trkpt lat="43.67608" lon="7.02182">
        <ele>272.2</ele>
        <time>2026-05-16T14:18:39Z</time>
      </trkpt>
      <trkpt lat="43.67618" lon="7.02198">
        <ele>273</ele>
        <time>2026-05-16T14:18:40Z</time>
      </trkpt>
      <trkpt lat="43.67627" lon="7.02213">
        <ele>273.9</ele>
        <time>2026-05-16T14:18:41Z</time>
      </trkpt>
      <trkpt lat="43.67636" lon="7.02226">
        <ele>274.6</ele>
        <time>2026-05-16T14:18:42Z</time>
      </trkpt>
      <trkpt lat="43.67645" lon="7.0224">
        <ele>274.3</ele>
        <time>2026-05-16T14:18:43Z</time>
      </trkpt>
      <trkpt lat="43.67652" lon="7.02256">
        <ele>273.2</ele>
        <time>2026-05-16T14:18:44Z</time>
      </trkpt>
      <trkpt lat="43.67659" lon="7.02271">
        <ele>272</ele>
        <time>2026-05-16T14:18:45Z</time>
      </trkpt>
      <trkpt lat="43.67665" lon="7.02287">
        <ele>270.5</ele>
        <time>2026-05-16T14:18:46Z</time>
      </trkpt>
      <trkpt lat="43.67673" lon="7.02303">
        <ele>269</ele>
        <time>2026-05-16T14:18:47Z</time>
      </trkpt>
      <trkpt lat="43.6768" lon="7.02318">
        <ele>268.1</ele>
        <time>2026-05-16T14:18:48Z</time>
      </trkpt>
      <trkpt lat="43.67688" lon="7.02333">
        <ele>267.8</ele>
        <time>2026-05-16T14:18:49Z</time>
      </trkpt>
      <trkpt lat="43.67694" lon="7.02348">
        <ele>267.5</ele>
        <time>2026-05-16T14:18:50Z</time>
      </trkpt>
      <trkpt lat="43.67698" lon="7.02364">
        <ele>267.4</ele>
        <time>2026-05-16T14:18:51Z</time>
      </trkpt>
      <trkpt lat="43.67701" lon="7.0238">
        <ele>267.6</ele>
        <time>2026-05-16T14:18:52Z</time>
      </trkpt>
      <trkpt lat="43.67703" lon="7.02396">
        <ele>268</ele>
        <time>2026-05-16T14:18:53Z</time>
      </trkpt>
      <trkpt lat="43.67704" lon="7.0241">
        <ele>268.6</ele>
        <time>2026-05-16T14:18:54Z</time>
      </trkpt>
      <trkpt lat="43.67705" lon="7.02419">
        <ele>268.8</ele>
        <time>2026-05-16T14:18:55Z</time>
      </trkpt>
      <trkpt lat="43.67707" lon="7.02428">
        <ele>268.9</ele>
        <time>2026-05-16T14:18:56Z</time>
      </trkpt>
      <trkpt lat="43.67709" lon="7.02437">
        <ele>268.9</ele>
        <time>2026-05-16T14:18:57Z</time>
      </trkpt>
      <trkpt lat="43.67712" lon="7.02446">
        <ele>269.1</ele>
        <time>2026-05-16T14:18:58Z</time>
      </trkpt>
      <trkpt lat="43.67717" lon="7.02456">
        <ele>269.3</ele>
        <time>2026-05-16T14:18:59Z</time>
      </trkpt>
      <trkpt lat="43.67722" lon="7.02467">
        <ele>269.3</ele>
        <time>2026-05-16T14:19:00Z</time>
      </trkpt>
      <trkpt lat="43.67729" lon="7.0248">
        <ele>268.9</ele>
        <time>2026-05-16T14:19:01Z</time>
      </trkpt>
      <trkpt lat="43.67738" lon="7.02494">
        <ele>268.6</ele>
        <time>2026-05-16T14:19:02Z</time>
      </trkpt>
      <trkpt lat="43.67746" lon="7.02508">
        <ele>268.5</ele>
        <time>2026-05-16T14:19:03Z</time>
      </trkpt>
      <trkpt lat="43.67755" lon="7.02522">
        <ele>268</ele>
        <time>2026-05-16T14:19:04Z</time>
      </trkpt>
      <trkpt lat="43.67764" lon="7.02537">
        <ele>266.8</ele>
        <time>2026-05-16T14:19:05Z</time>
      </trkpt>
      <trkpt lat="43.67774" lon="7.02553">
        <ele>265.5</ele>
        <time>2026-05-16T14:19:06Z</time>
      </trkpt>
      <trkpt lat="43.67784" lon="7.02568">
        <ele>265.1</ele>
        <time>2026-05-16T14:19:07Z</time>
      </trkpt>
      <trkpt lat="43.67795" lon="7.02584">
        <ele>264.8</ele>
        <time>2026-05-16T14:19:08Z</time>
      </trkpt>
      <trkpt lat="43.67804" lon="7.02599">
        <ele>264.2</ele>
        <time>2026-05-16T14:19:09Z</time>
      </trkpt>
      <trkpt lat="43.67814" lon="7.02614">
        <ele>263.5</ele>
        <time>2026-05-16T14:19:10Z</time>
      </trkpt>
      <trkpt lat="43.67824" lon="7.0263">
        <ele>262.7</ele>
        <time>2026-05-16T14:19:11Z</time>
      </trkpt>
      <trkpt lat="43.67834" lon="7.02645">
        <ele>261.4</ele>
        <time>2026-05-16T14:19:12Z</time>
      </trkpt>
      <trkpt lat="43.67843" lon="7.02661">
        <ele>261.4</ele>
        <time>2026-05-16T14:19:13Z</time>
      </trkpt>
      <trkpt lat="43.67851" lon="7.02678">
        <ele>260.6</ele>
        <time>2026-05-16T14:19:14Z</time>
      </trkpt>
      <trkpt lat="43.67859" lon="7.02695">
        <ele>259.4</ele>
        <time>2026-05-16T14:19:15Z</time>
      </trkpt>
      <trkpt lat="43.67866" lon="7.02712">
        <ele>258.1</ele>
        <time>2026-05-16T14:19:16Z</time>
      </trkpt>
      <trkpt lat="43.67873" lon="7.0273">
        <ele>257.5</ele>
        <time>2026-05-16T14:19:17Z</time>
      </trkpt>
      <trkpt lat="43.6788" lon="7.02749">
        <ele>256.3</ele>
        <time>2026-05-16T14:19:18Z</time>
      </trkpt>
      <trkpt lat="43.67886" lon="7.02767">
        <ele>255.5</ele>
        <time>2026-05-16T14:19:19Z</time>
      </trkpt>
      <trkpt lat="43.67892" lon="7.02785">
        <ele>254.9</ele>
        <time>2026-05-16T14:19:20Z</time>
      </trkpt>
      <trkpt lat="43.67898" lon="7.028">
        <ele>254.2</ele>
        <time>2026-05-16T14:19:21Z</time>
      </trkpt>
      <trkpt lat="43.67902" lon="7.02815">
        <ele>253.1</ele>
        <time>2026-05-16T14:19:22Z</time>
      </trkpt>
      <trkpt lat="43.67903" lon="7.02831">
        <ele>252.1</ele>
        <time>2026-05-16T14:19:23Z</time>
      </trkpt>
      <trkpt lat="43.679" lon="7.02848">
        <ele>250.5</ele>
        <time>2026-05-16T14:19:24Z</time>
      </trkpt>
      <trkpt lat="43.67897" lon="7.02863">
        <ele>249</ele>
        <time>2026-05-16T14:19:25Z</time>
      </trkpt>
      <trkpt lat="43.67895" lon="7.02878">
        <ele>248</ele>
        <time>2026-05-16T14:19:26Z</time>
      </trkpt>
      <trkpt lat="43.67897" lon="7.02892">
        <ele>246.7</ele>
        <time>2026-05-16T14:19:27Z</time>
      </trkpt>
      <trkpt lat="43.67903" lon="7.02903">
        <ele>245.5</ele>
        <time>2026-05-16T14:19:28Z</time>
      </trkpt>
      <trkpt lat="43.67912" lon="7.02912">
        <ele>244.4</ele>
        <time>2026-05-16T14:19:29Z</time>
      </trkpt>
      <trkpt lat="43.67925" lon="7.02919">
        <ele>243.2</ele>
        <time>2026-05-16T14:19:30Z</time>
      </trkpt>
      <trkpt lat="43.67937" lon="7.02927">
        <ele>241.8</ele>
        <time>2026-05-16T14:19:31Z</time>
      </trkpt>
      <trkpt lat="43.6795" lon="7.02938">
        <ele>240.8</ele>
        <time>2026-05-16T14:19:32Z</time>
      </trkpt>
      <trkpt lat="43.67961" lon="7.0295">
        <ele>240.2</ele>
        <time>2026-05-16T14:19:33Z</time>
      </trkpt>
      <trkpt lat="43.67971" lon="7.02963">
        <ele>239</ele>
        <time>2026-05-16T14:19:34Z</time>
      </trkpt>
      <trkpt lat="43.67977" lon="7.02978">
        <ele>237.5</ele>
        <time>2026-05-16T14:19:35Z</time>
      </trkpt>
      <trkpt lat="43.67981" lon="7.02994">
        <ele>236.4</ele>
        <time>2026-05-16T14:19:36Z</time>
      </trkpt>
      <trkpt lat="43.67985" lon="7.03012">
        <ele>236.1</ele>
        <time>2026-05-16T14:19:37Z</time>
      </trkpt>
      <trkpt lat="43.67989" lon="7.0303">
        <ele>236</ele>
        <time>2026-05-16T14:19:38Z</time>
      </trkpt>
      <trkpt lat="43.67993" lon="7.03049">
        <ele>235.6</ele>
        <time>2026-05-16T14:19:39Z</time>
      </trkpt>
      <trkpt lat="43.67997" lon="7.03067">
        <ele>235.1</ele>
        <time>2026-05-16T14:19:40Z</time>
      </trkpt>
      <trkpt lat="43.68003" lon="7.03084">
        <ele>234.7</ele>
        <time>2026-05-16T14:19:41Z</time>
      </trkpt>
      <trkpt lat="43.6801" lon="7.03099">
        <ele>235</ele>
        <time>2026-05-16T14:19:42Z</time>
      </trkpt>
      <trkpt lat="43.6802" lon="7.03113">
        <ele>233.9</ele>
        <time>2026-05-16T14:19:43Z</time>
      </trkpt>
      <trkpt lat="43.6803" lon="7.03127">
        <ele>234</ele>
        <time>2026-05-16T14:19:44Z</time>
      </trkpt>
      <trkpt lat="43.68038" lon="7.03141">
        <ele>233.9</ele>
        <time>2026-05-16T14:19:45Z</time>
      </trkpt>
      <trkpt lat="43.68044" lon="7.03154">
        <ele>233.4</ele>
        <time>2026-05-16T14:19:46Z</time>
      </trkpt>
      <trkpt lat="43.68048" lon="7.0317">
        <ele>233.2</ele>
        <time>2026-05-16T14:19:47Z</time>
      </trkpt>
      <trkpt lat="43.68052" lon="7.03187">
        <ele>231.9</ele>
        <time>2026-05-16T14:19:48Z</time>
      </trkpt>
      <trkpt lat="43.68054" lon="7.03203">
        <ele>231.3</ele>
        <time>2026-05-16T14:19:49Z</time>
      </trkpt>
      <trkpt lat="43.68055" lon="7.0322">
        <ele>231.1</ele>
        <time>2026-05-16T14:19:50Z</time>
      </trkpt>
      <trkpt lat="43.68054" lon="7.03237">
        <ele>230.7</ele>
        <time>2026-05-16T14:19:51Z</time>
      </trkpt>
      <trkpt lat="43.68052" lon="7.03254">
        <ele>230.4</ele>
        <time>2026-05-16T14:19:52Z</time>
      </trkpt>
      <trkpt lat="43.6805" lon="7.03272">
        <ele>230</ele>
        <time>2026-05-16T14:19:53Z</time>
      </trkpt>
      <trkpt lat="43.68048" lon="7.0329">
        <ele>229.6</ele>
        <time>2026-05-16T14:19:54Z</time>
      </trkpt>
      <trkpt lat="43.68045" lon="7.03307">
        <ele>229.5</ele>
        <time>2026-05-16T14:19:55Z</time>
      </trkpt>
      <trkpt lat="43.68043" lon="7.03324">
        <ele>229.2</ele>
        <time>2026-05-16T14:19:56Z</time>
      </trkpt>
      <trkpt lat="43.68041" lon="7.03341">
        <ele>228.8</ele>
        <time>2026-05-16T14:19:57Z</time>
      </trkpt>
      <trkpt lat="43.68039" lon="7.03358">
        <ele>228.3</ele>
        <time>2026-05-16T14:19:58Z</time>
      </trkpt>
      <trkpt lat="43.68037" lon="7.03374">
        <ele>227.9</ele>
        <time>2026-05-16T14:19:59Z</time>
      </trkpt>
      <trkpt lat="43.68035" lon="7.0339">
        <ele>227.4</ele>
        <time>2026-05-16T14:20:00Z</time>
      </trkpt>
      <trkpt lat="43.68033" lon="7.03403">
        <ele>226.7</ele>
        <time>2026-05-16T14:20:01Z</time>
      </trkpt>
      <trkpt lat="43.68031" lon="7.03411">
        <ele>226.3</ele>
        <time>2026-05-16T14:20:02Z</time>
      </trkpt>
      <trkpt lat="43.6803" lon="7.03416">
        <ele>226</ele>
        <time>2026-05-16T14:20:03Z</time>
      </trkpt>
      <trkpt lat="43.68029" lon="7.03419">
        <ele>225.9</ele>
        <time>2026-05-16T14:20:04Z</time>
      </trkpt>
      <trkpt lat="43.68028" lon="7.03421">
        <ele>225.8</ele>
        <time>2026-05-16T14:20:05Z</time>
      </trkpt>
      <trkpt lat="43.68028" lon="7.03423">
        <ele>225.8</ele>
        <time>2026-05-16T14:20:06Z</time>
      </trkpt>
      <trkpt lat="43.68028" lon="7.03423">
        <ele>225.8</ele>
        <time>2026-05-16T14:20:07Z</time>
      </trkpt>
      <trkpt lat="43.68028" lon="7.03424">
        <ele>225.7</ele>
        <time>2026-05-16T14:20:08Z</time>
      </trkpt>
      <trkpt lat="43.68027" lon="7.03424">
        <ele>225.8</ele>
        <time>2026-05-16T14:20:09Z</time>
      </trkpt>
      <trkpt lat="43.68027" lon="7.03425">
        <ele>225.7</ele>
        <time>2026-05-16T14:20:10Z</time>
      </trkpt>
      <trkpt lat="43.68027" lon="7.03426">
        <ele>225.7</ele>
        <time>2026-05-16T14:20:11Z</time>
      </trkpt>
      <trkpt lat="43.68027" lon="7.03428">
        <ele>225.6</ele>
        <time>2026-05-16T14:20:12Z</time>
      </trkpt>
      <trkpt lat="43.68026" lon="7.03434">
        <ele>225.4</ele>
        <time>2026-05-16T14:20:13Z</time>
      </trkpt>
      <trkpt lat="43.68023" lon="7.03441">
        <ele>225.1</ele>
        <time>2026-05-16T14:20:14Z</time>
      </trkpt>
      <trkpt lat="43.6802" lon="7.03448">
        <ele>224.9</ele>
        <time>2026-05-16T14:20:15Z</time>
      </trkpt>
      <trkpt lat="43.68017" lon="7.03455">
        <ele>224.6</ele>
        <time>2026-05-16T14:20:16Z</time>
      </trkpt>
      <trkpt lat="43.68013" lon="7.03462">
        <ele>224.4</ele>
        <time>2026-05-16T14:20:17Z</time>
      </trkpt>
      <trkpt lat="43.68008" lon="7.03471">
        <ele>224</ele>
        <time>2026-05-16T14:20:18Z</time>
      </trkpt>
      <trkpt lat="43.68004" lon="7.03482">
        <ele>223.6</ele>
        <time>2026-05-16T14:20:19Z</time>
      </trkpt>
      <trkpt lat="43.68001" lon="7.03493">
        <ele>223.3</ele>
        <time>2026-05-16T14:20:20Z</time>
      </trkpt>
      <trkpt lat="43.67997" lon="7.03504">
        <ele>222.9</ele>
        <time>2026-05-16T14:20:21Z</time>
      </trkpt>
      <trkpt lat="43.67993" lon="7.03516">
        <ele>222.4</ele>
        <time>2026-05-16T14:20:22Z</time>
      </trkpt>
      <trkpt lat="43.67989" lon="7.03528">
        <ele>222</ele>
        <time>2026-05-16T14:20:23Z</time>
      </trkpt>
      <trkpt lat="43.67985" lon="7.0354">
        <ele>221.8</ele>
        <time>2026-05-16T14:20:24Z</time>
      </trkpt>
      <trkpt lat="43.67982" lon="7.03552">
        <ele>221.7</ele>
        <time>2026-05-16T14:20:25Z</time>
      </trkpt>
      <trkpt lat="43.67978" lon="7.03566">
        <ele>221.5</ele>
        <time>2026-05-16T14:20:26Z</time>
      </trkpt>
      <trkpt lat="43.67973" lon="7.03579">
        <ele>221.2</ele>
        <time>2026-05-16T14:20:27Z</time>
      </trkpt>
      <trkpt lat="43.67968" lon="7.03595">
        <ele>220.1</ele>
        <time>2026-05-16T14:20:28Z</time>
      </trkpt>
      <trkpt lat="43.67965" lon="7.03612">
        <ele>219.2</ele>
        <time>2026-05-16T14:20:29Z</time>
      </trkpt>
      <trkpt lat="43.67959" lon="7.03628">
        <ele>218.9</ele>
        <time>2026-05-16T14:20:30Z</time>
      </trkpt>
      <trkpt lat="43.67955" lon="7.03643">
        <ele>218.5</ele>
        <time>2026-05-16T14:20:31Z</time>
      </trkpt>
      <trkpt lat="43.6795" lon="7.03658">
        <ele>218.2</ele>
        <time>2026-05-16T14:20:32Z</time>
      </trkpt>
      <trkpt lat="43.67945" lon="7.03672">
        <ele>218</ele>
        <time>2026-05-16T14:20:33Z</time>
      </trkpt>
      <trkpt lat="43.67941" lon="7.03686">
        <ele>217.9</ele>
        <time>2026-05-16T14:20:34Z</time>
      </trkpt>
      <trkpt lat="43.67937" lon="7.037">
        <ele>217.6</ele>
        <time>2026-05-16T14:20:35Z</time>
      </trkpt>
      <trkpt lat="43.67932" lon="7.03713">
        <ele>217.2</ele>
        <time>2026-05-16T14:20:36Z</time>
      </trkpt>
      <trkpt lat="43.67928" lon="7.03727">
        <ele>216.8</ele>
        <time>2026-05-16T14:20:37Z</time>
      </trkpt>
      <trkpt lat="43.67923" lon="7.0374">
        <ele>216.4</ele>
        <time>2026-05-16T14:20:38Z</time>
      </trkpt>
      <trkpt lat="43.6792" lon="7.03753">
        <ele>216</ele>
        <time>2026-05-16T14:20:39Z</time>
      </trkpt>
      <trkpt lat="43.67915" lon="7.03765">
        <ele>216</ele>
        <time>2026-05-16T14:20:40Z</time>
      </trkpt>
      <trkpt lat="43.67911" lon="7.03778">
        <ele>215.8</ele>
        <time>2026-05-16T14:20:41Z</time>
      </trkpt>
      <trkpt lat="43.67907" lon="7.03791">
        <ele>215.3</ele>
        <time>2026-05-16T14:20:42Z</time>
      </trkpt>
      <trkpt lat="43.67902" lon="7.03806">
        <ele>215</ele>
        <time>2026-05-16T14:20:43Z</time>
      </trkpt>
      <trkpt lat="43.67897" lon="7.0382">
        <ele>214.8</ele>
        <time>2026-05-16T14:20:44Z</time>
      </trkpt>
      <trkpt lat="43.67893" lon="7.03836">
        <ele>214.8</ele>
        <time>2026-05-16T14:20:45Z</time>
      </trkpt>
      <trkpt lat="43.67888" lon="7.03851">
        <ele>214.4</ele>
        <time>2026-05-16T14:20:46Z</time>
      </trkpt>
      <trkpt lat="43.67884" lon="7.03866">
        <ele>214</ele>
        <time>2026-05-16T14:20:47Z</time>
      </trkpt>
      <trkpt lat="43.67879" lon="7.03882">
        <ele>214</ele>
        <time>2026-05-16T14:20:48Z</time>
      </trkpt>
      <trkpt lat="43.67873" lon="7.03898">
        <ele>213.7</ele>
        <time>2026-05-16T14:20:49Z</time>
      </trkpt>
      <trkpt lat="43.67868" lon="7.03914">
        <ele>213.1</ele>
        <time>2026-05-16T14:20:50Z</time>
      </trkpt>
      <trkpt lat="43.67863" lon="7.03929">
        <ele>213</ele>
        <time>2026-05-16T14:20:51Z</time>
      </trkpt>
      <trkpt lat="43.67858" lon="7.03943">
        <ele>213</ele>
        <time>2026-05-16T14:20:52Z</time>
      </trkpt>
      <trkpt lat="43.67853" lon="7.03957">
        <ele>212.5</ele>
        <time>2026-05-16T14:20:53Z</time>
      </trkpt>
      <trkpt lat="43.67848" lon="7.03971">
        <ele>212</ele>
        <time>2026-05-16T14:20:54Z</time>
      </trkpt>
      <trkpt lat="43.67843" lon="7.03985">
        <ele>212</ele>
        <time>2026-05-16T14:20:55Z</time>
      </trkpt>
      <trkpt lat="43.67839" lon="7.04">
        <ele>212</ele>
        <time>2026-05-16T14:20:56Z</time>
      </trkpt>
      <trkpt lat="43.67834" lon="7.04016">
        <ele>211.4</ele>
        <time>2026-05-16T14:20:57Z</time>
      </trkpt>
      <trkpt lat="43.6783" lon="7.0403">
        <ele>211</ele>
        <time>2026-05-16T14:20:58Z</time>
      </trkpt>
      <trkpt lat="43.67825" lon="7.04045">
        <ele>210.9</ele>
        <time>2026-05-16T14:20:59Z</time>
      </trkpt>
      <trkpt lat="43.67821" lon="7.0406">
        <ele>210.8</ele>
        <time>2026-05-16T14:21:00Z</time>
      </trkpt>
      <trkpt lat="43.67818" lon="7.04075">
        <ele>210.7</ele>
        <time>2026-05-16T14:21:01Z</time>
      </trkpt>
      <trkpt lat="43.67815" lon="7.04091">
        <ele>210.7</ele>
        <time>2026-05-16T14:21:02Z</time>
      </trkpt>
      <trkpt lat="43.67813" lon="7.04108">
        <ele>210.7</ele>
        <time>2026-05-16T14:21:03Z</time>
      </trkpt>
      <trkpt lat="43.6781" lon="7.04124">
        <ele>210.8</ele>
        <time>2026-05-16T14:21:04Z</time>
      </trkpt>
      <trkpt lat="43.67808" lon="7.04139">
        <ele>210.9</ele>
        <time>2026-05-16T14:21:05Z</time>
      </trkpt>
      <trkpt lat="43.67806" lon="7.04154">
        <ele>210.4</ele>
        <time>2026-05-16T14:21:06Z</time>
      </trkpt>
      <trkpt lat="43.67806" lon="7.0417">
        <ele>210.1</ele>
        <time>2026-05-16T14:21:07Z</time>
      </trkpt>
      <trkpt lat="43.67808" lon="7.04184">
        <ele>210.4</ele>
        <time>2026-05-16T14:21:08Z</time>
      </trkpt>
      <trkpt lat="43.67813" lon="7.04197">
        <ele>210.6</ele>
        <time>2026-05-16T14:21:09Z</time>
      </trkpt>
      <trkpt lat="43.67819" lon="7.0421">
        <ele>211.6</ele>
        <time>2026-05-16T14:21:10Z</time>
      </trkpt>
      <trkpt lat="43.67827" lon="7.04221">
        <ele>210.7</ele>
        <time>2026-05-16T14:21:11Z</time>
      </trkpt>
      <trkpt lat="43.67836" lon="7.0423">
        <ele>211.2</ele>
        <time>2026-05-16T14:21:12Z</time>
      </trkpt>
      <trkpt lat="43.67849" lon="7.04238">
        <ele>211.1</ele>
        <time>2026-05-16T14:21:13Z</time>
      </trkpt>
      <trkpt lat="43.67859" lon="7.04244">
        <ele>209.9</ele>
        <time>2026-05-16T14:21:14Z</time>
      </trkpt>
      <trkpt lat="43.6787" lon="7.04252">
        <ele>209.3</ele>
        <time>2026-05-16T14:21:15Z</time>
      </trkpt>
      <trkpt lat="43.6788" lon="7.04261">
        <ele>208.6</ele>
        <time>2026-05-16T14:21:16Z</time>
      </trkpt>
      <trkpt lat="43.67888" lon="7.04271">
        <ele>207.2</ele>
        <time>2026-05-16T14:21:17Z</time>
      </trkpt>
      <trkpt lat="43.67894" lon="7.04286">
        <ele>207.1</ele>
        <time>2026-05-16T14:21:18Z</time>
      </trkpt>
      <trkpt lat="43.67899" lon="7.04301">
        <ele>207.2</ele>
        <time>2026-05-16T14:21:19Z</time>
      </trkpt>
      <trkpt lat="43.67901" lon="7.04318">
        <ele>206.9</ele>
        <time>2026-05-16T14:21:20Z</time>
      </trkpt>
      <trkpt lat="43.67899" lon="7.04333">
        <ele>206.6</ele>
        <time>2026-05-16T14:21:21Z</time>
      </trkpt>
      <trkpt lat="43.67895" lon="7.0435">
        <ele>205.2</ele>
        <time>2026-05-16T14:21:22Z</time>
      </trkpt>
      <trkpt lat="43.6789" lon="7.04367">
        <ele>203.9</ele>
        <time>2026-05-16T14:21:23Z</time>
      </trkpt>
      <trkpt lat="43.67881" lon="7.0438">
        <ele>204.6</ele>
        <time>2026-05-16T14:21:24Z</time>
      </trkpt>
      <trkpt lat="43.67872" lon="7.04393">
        <ele>205.2</ele>
        <time>2026-05-16T14:21:25Z</time>
      </trkpt>
      <trkpt lat="43.67864" lon="7.04406">
        <ele>204.5</ele>
        <time>2026-05-16T14:21:26Z</time>
      </trkpt>
      <trkpt lat="43.67858" lon="7.04419">
        <ele>203.7</ele>
        <time>2026-05-16T14:21:27Z</time>
      </trkpt>
      <trkpt lat="43.67851" lon="7.04433">
        <ele>203.9</ele>
        <time>2026-05-16T14:21:28Z</time>
      </trkpt>
      <trkpt lat="43.67843" lon="7.04446">
        <ele>203.3</ele>
        <time>2026-05-16T14:21:29Z</time>
      </trkpt>
      <trkpt lat="43.67837" lon="7.0446">
        <ele>202.8</ele>
        <time>2026-05-16T14:21:30Z</time>
      </trkpt>
      <trkpt lat="43.67833" lon="7.04476">
        <ele>201.9</ele>
        <time>2026-05-16T14:21:31Z</time>
      </trkpt>
      <trkpt lat="43.67829" lon="7.04492">
        <ele>201.5</ele>
        <time>2026-05-16T14:21:32Z</time>
      </trkpt>
      <trkpt lat="43.67827" lon="7.04507">
        <ele>201.2</ele>
        <time>2026-05-16T14:21:33Z</time>
      </trkpt>
      <trkpt lat="43.67826" lon="7.04523">
        <ele>201.3</ele>
        <time>2026-05-16T14:21:34Z</time>
      </trkpt>
      <trkpt lat="43.67826" lon="7.04538">
        <ele>201</ele>
        <time>2026-05-16T14:21:35Z</time>
      </trkpt>
      <trkpt lat="43.67827" lon="7.04549">
        <ele>200.6</ele>
        <time>2026-05-16T14:21:36Z</time>
      </trkpt>
      <trkpt lat="43.67826" lon="7.04556">
        <ele>200.5</ele>
        <time>2026-05-16T14:21:37Z</time>
      </trkpt>
      <trkpt lat="43.67826" lon="7.04561">
        <ele>200.8</ele>
        <time>2026-05-16T14:21:38Z</time>
      </trkpt>
      <trkpt lat="43.67823" lon="7.04563">
        <ele>201.1</ele>
        <time>2026-05-16T14:21:39Z</time>
      </trkpt>
      <trkpt lat="43.6782" lon="7.04564">
        <ele>201.4</ele>
        <time>2026-05-16T14:21:40Z</time>
      </trkpt>
      <trkpt lat="43.67815" lon="7.04565">
        <ele>201.9</ele>
        <time>2026-05-16T14:21:41Z</time>
      </trkpt>
      <trkpt lat="43.67809" lon="7.04565">
        <ele>202.4</ele>
        <time>2026-05-16T14:21:42Z</time>
      </trkpt>
      <trkpt lat="43.67803" lon="7.04564">
        <ele>202.7</ele>
        <time>2026-05-16T14:21:43Z</time>
      </trkpt>
      <trkpt lat="43.67799" lon="7.04562">
        <ele>202.7</ele>
        <time>2026-05-16T14:21:44Z</time>
      </trkpt>
      <trkpt lat="43.67796" lon="7.04563">
        <ele>202.9</ele>
        <time>2026-05-16T14:21:45Z</time>
      </trkpt>
      <trkpt lat="43.67794" lon="7.04564">
        <ele>203</ele>
        <time>2026-05-16T14:21:46Z</time>
      </trkpt>
      <trkpt lat="43.67793" lon="7.04567">
        <ele>203.3</ele>
        <time>2026-05-16T14:21:47Z</time>
      </trkpt>
      <trkpt lat="43.67794" lon="7.04568">
        <ele>203.3</ele>
        <time>2026-05-16T14:21:48Z</time>
      </trkpt>
      <trkpt lat="43.67794" lon="7.04569">
        <ele>203.4</ele>
        <time>2026-05-16T14:21:49Z</time>
      </trkpt>
      <trkpt lat="43.67795" lon="7.04568">
        <ele>203.3</ele>
        <time>2026-05-16T14:21:50Z</time>
      </trkpt>
      <trkpt lat="43.67795" lon="7.04568">
        <ele>203.3</ele>
        <time>2026-05-16T14:21:51Z</time>
      </trkpt>
      <trkpt lat="43.67795" lon="7.04568">
        <ele>203.3</ele>
        <time>2026-05-16T14:21:52Z</time>
      </trkpt>
      <trkpt lat="43.67794" lon="7.04567">
        <ele>203.2</ele>
        <time>2026-05-16T14:21:53Z</time>
      </trkpt>
      <trkpt lat="43.67794" lon="7.04567">
        <ele>203.2</ele>
        <time>2026-05-16T14:21:54Z</time>
      </trkpt>
      <trkpt lat="43.67794" lon="7.04566">
        <ele>203.2</ele>
        <time>2026-05-16T14:21:55Z</time>
      </trkpt>
      <trkpt lat="43.67794" lon="7.04566">
        <ele>203.2</ele>
        <time>2026-05-16T14:21:56Z</time>
      </trkpt>
      <trkpt lat="43.67794" lon="7.04565">
        <ele>203.1</ele>
        <time>2026-05-16T14:21:57Z</time>
      </trkpt>
      <trkpt lat="43.67795" lon="7.04566">
        <ele>203.1</ele>
        <time>2026-05-16T14:21:58Z</time>
      </trkpt>
      <trkpt lat="43.67796" lon="7.04566">
        <ele>203.1</ele>
        <time>2026-05-16T14:21:59Z</time>
      </trkpt>
      <trkpt lat="43.67798" lon="7.04567">
        <ele>203.1</ele>
        <time>2026-05-16T14:22:00Z</time>
      </trkpt>
      <trkpt lat="43.67799" lon="7.04567">
        <ele>203.1</ele>
        <time>2026-05-16T14:22:01Z</time>
      </trkpt>
      <trkpt lat="43.67799" lon="7.04567">
        <ele>203.1</ele>
        <time>2026-05-16T14:22:02Z</time>
      </trkpt>
      <trkpt lat="43.67799" lon="7.04566">
        <ele>203</ele>
        <time>2026-05-16T14:22:03Z</time>
      </trkpt>
      <trkpt lat="43.67799" lon="7.04567">
        <ele>203.1</ele>
        <time>2026-05-16T14:22:04Z</time>
      </trkpt>
      <trkpt lat="43.67799" lon="7.04567">
        <ele>203.1</ele>
        <time>2026-05-16T14:22:05Z</time>
      </trkpt>
      <trkpt lat="43.67799" lon="7.04567">
        <ele>203.1</ele>
        <time>2026-05-16T14:22:06Z</time>
      </trkpt>
      <trkpt lat="43.67799" lon="7.04567">
        <ele>203.1</ele>
        <time>2026-05-16T14:22:07Z</time>
      </trkpt>
      <trkpt lat="43.67799" lon="7.04567">
        <ele>203.1</ele>
        <time>2026-05-16T14:22:08Z</time>
      </trkpt>
      <trkpt lat="43.67799" lon="7.04566">
        <ele>203</ele>
        <time>2026-05-16T14:22:09Z</time>
      </trkpt>
      <trkpt lat="43.67799" lon="7.04566">
        <ele>203</ele>
        <time>2026-05-16T14:22:10Z</time>
      </trkpt>
      <trkpt lat="43.67799" lon="7.04566">
        <ele>203</ele>
        <time>2026-05-16T14:22:11Z</time>
      </trkpt>
      <trkpt lat="43.67799" lon="7.04566">
        <ele>203</ele>
        <time>2026-05-16T14:22:12Z</time>
      </trkpt>
      <trkpt lat="43.67799" lon="7.04566">
        <ele>203</ele>
        <time>2026-05-16T14:22:13Z</time>
      </trkpt>
      <trkpt lat="43.67799" lon="7.04566">
        <ele>203</ele>
        <time>2026-05-16T14:22:14Z</time>
      </trkpt>
      <trkpt lat="43.67799" lon="7.04566">
        <ele>203</ele>
        <time>2026-05-16T14:22:15Z</time>
      </trkpt>
      <trkpt lat="43.67799" lon="7.04566">
        <ele>203</ele>
        <time>2026-05-16T14:22:16Z</time>
      </trkpt>
      <trkpt lat="43.67799" lon="7.04566">
        <ele>203</ele>
        <time>2026-05-16T14:22:17Z</time>
      </trkpt>
      <trkpt lat="43.67799" lon="7.04566">
        <ele>203</ele>
        <time>2026-05-16T14:22:18Z</time>
      </trkpt>
      <trkpt lat="43.67799" lon="7.04566">
        <ele>203</ele>
        <time>2026-05-16T14:22:19Z</time>
      </trkpt>
      <trkpt lat="43.67799" lon="7.04566">
        <ele>203</ele>
        <time>2026-05-16T14:22:20Z</time>
      </trkpt>
      <trkpt lat="43.67799" lon="7.04566">
        <ele>203</ele>
        <time>2026-05-16T14:22:21Z</time>
      </trkpt>
      <trkpt lat="43.67799" lon="7.04566">
        <ele>203</ele>
        <time>2026-05-16T14:22:22Z</time>
      </trkpt>
      <trkpt lat="43.67799" lon="7.04566">
        <ele>203</ele>
        <time>2026-05-16T14:22:23Z</time>
      </trkpt>
      <trkpt lat="43.67799" lon="7.04566">
        <ele>203</ele>
        <time>2026-05-16T14:22:24Z</time>
      </trkpt>
      <trkpt lat="43.67799" lon="7.04566">
        <ele>203</ele>
        <time>2026-05-16T14:22:25Z</time>
      </trkpt>
      <trkpt lat="43.678" lon="7.04566">
        <ele>203</ele>
        <time>2026-05-16T14:22:26Z</time>
      </trkpt>
      <trkpt lat="43.678" lon="7.04565">
        <ele>202.9</ele>
        <time>2026-05-16T14:22:27Z</time>
      </trkpt>
      <trkpt lat="43.67801" lon="7.04565">
        <ele>202.8</ele>
        <time>2026-05-16T14:22:28Z</time>
      </trkpt>
      <trkpt lat="43.67801" lon="7.04565">
        <ele>202.8</ele>
        <time>2026-05-16T14:22:29Z</time>
      </trkpt>
      <trkpt lat="43.67801" lon="7.04565">
        <ele>202.8</ele>
        <time>2026-05-16T14:22:30Z</time>
      </trkpt>
      <trkpt lat="43.67801" lon="7.04565">
        <ele>202.8</ele>
        <time>2026-05-16T14:22:31Z</time>
      </trkpt>
      <trkpt lat="43.67801" lon="7.04565">
        <ele>202.8</ele>
        <time>2026-05-16T14:22:32Z</time>
      </trkpt>
      <trkpt lat="43.67801" lon="7.04565">
        <ele>202.8</ele>
        <time>2026-05-16T14:22:33Z</time>
      </trkpt>
      <trkpt lat="43.67801" lon="7.04565">
        <ele>202.8</ele>
        <time>2026-05-16T14:22:34Z</time>
      </trkpt>
      <trkpt lat="43.67801" lon="7.04565">
        <ele>202.8</ele>
        <time>2026-05-16T14:22:35Z</time>
      </trkpt>
      <trkpt lat="43.67801" lon="7.04565">
        <ele>202.8</ele>
        <time>2026-05-16T14:22:36Z</time>
      </trkpt>
      <trkpt lat="43.67801" lon="7.04565">
        <ele>202.8</ele>
        <time>2026-05-16T14:22:37Z</time>
      </trkpt>
      <trkpt lat="43.67802" lon="7.04565">
        <ele>202.8</ele>
        <time>2026-05-16T14:22:38Z</time>
      </trkpt>
      <trkpt lat="43.67802" lon="7.04565">
        <ele>202.8</ele>
        <time>2026-05-16T14:22:39Z</time>
      </trkpt>
      <trkpt lat="43.67802" lon="7.04565">
        <ele>202.8</ele>
        <time>2026-05-16T14:22:40Z</time>
      </trkpt>
      <trkpt lat="43.67802" lon="7.04565">
        <ele>202.8</ele>
        <time>2026-05-16T14:22:41Z</time>
      </trkpt>
      <trkpt lat="43.67802" lon="7.04565">
        <ele>202.8</ele>
        <time>2026-05-16T14:22:42Z</time>
      </trkpt>
      <trkpt lat="43.67802" lon="7.04565">
        <ele>202.8</ele>
        <time>2026-05-16T14:22:43Z</time>
      </trkpt>
      <trkpt lat="43.67802" lon="7.04565">
        <ele>202.8</ele>
        <time>2026-05-16T14:22:44Z</time>
      </trkpt>
      <trkpt lat="43.67802" lon="7.04565">
        <ele>202.8</ele>
        <time>2026-05-16T14:22:45Z</time>
      </trkpt>
      <trkpt lat="43.67802" lon="7.04565">
        <ele>202.8</ele>
        <time>2026-05-16T14:22:46Z</time>
      </trkpt>
      <trkpt lat="43.67802" lon="7.04565">
        <ele>202.8</ele>
        <time>2026-05-16T14:22:47Z</time>
      </trkpt>
      <trkpt lat="43.67802" lon="7.04565">
        <ele>202.8</ele>
        <time>2026-05-16T14:22:48Z</time>
      </trkpt>
      <trkpt lat="43.67802" lon="7.04565">
        <ele>202.8</ele>
        <time>2026-05-16T14:22:49Z</time>
      </trkpt>
      <trkpt lat="43.67802" lon="7.04565">
        <ele>202.8</ele>
        <time>2026-05-16T14:22:50Z</time>
      </trkpt>
      <trkpt lat="43.67802" lon="7.04565">
        <ele>202.8</ele>
        <time>2026-05-16T14:22:51Z</time>
      </trkpt>
      <trkpt lat="43.67802" lon="7.04565">
        <ele>202.8</ele>
        <time>2026-05-16T14:22:52Z</time>
      </trkpt>
      <trkpt lat="43.67802" lon="7.04565">
        <ele>202.8</ele>
        <time>2026-05-16T14:22:53Z</time>
      </trkpt>
      <trkpt lat="43.67802" lon="7.04565">
        <ele>202.8</ele>
        <time>2026-05-16T14:22:54Z</time>
      </trkpt>
      <trkpt lat="43.67802" lon="7.04565">
        <ele>202.8</ele>
        <time>2026-05-16T14:22:55Z</time>
      </trkpt>
      <trkpt lat="43.67802" lon="7.04565">
        <ele>202.8</ele>
        <time>2026-05-16T14:22:56Z</time>
      </trkpt>
      <trkpt lat="43.67802" lon="7.04565">
        <ele>202.8</ele>
        <time>2026-05-16T14:22:57Z</time>
      </trkpt>
      <trkpt lat="43.67802" lon="7.04565">
        <ele>202.8</ele>
        <time>2026-05-16T14:22:58Z</time>
      </trkpt>
      <trkpt lat="43.67802" lon="7.04565">
        <ele>202.8</ele>
        <time>2026-05-16T14:22:59Z</time>
      </trkpt>
      <trkpt lat="43.67802" lon="7.04565">
        <ele>202.8</ele>
        <time>2026-05-16T14:23:00Z</time>
      </trkpt>
      <trkpt lat="43.67802" lon="7.04565">
        <ele>202.8</ele>
        <time>2026-05-16T14:23:01Z</time>
      </trkpt>
      <trkpt lat="43.67802" lon="7.04565">
        <ele>202.8</ele>
        <time>2026-05-16T14:23:02Z</time>
      </trkpt>
      <trkpt lat="43.67802" lon="7.04565">
        <ele>202.8</ele>
        <time>2026-05-16T14:23:03Z</time>
      </trkpt>
      <trkpt lat="43.67802" lon="7.04565">
        <ele>202.8</ele>
        <time>2026-05-16T14:23:04Z</time>
      </trkpt>
      <trkpt lat="43.67802" lon="7.04565">
        <ele>202.8</ele>
        <time>2026-05-16T14:23:05Z</time>
      </trkpt>
      <trkpt lat="43.67802" lon="7.04565">
        <ele>202.8</ele>
        <time>2026-05-16T14:23:06Z</time>
      </trkpt>
      <trkpt lat="43.67802" lon="7.04565">
        <ele>202.8</ele>
        <time>2026-05-16T14:23:07Z</time>
      </trkpt>
      <trkpt lat="43.67802" lon="7.04565">
        <ele>202.8</ele>
        <time>2026-05-16T14:23:08Z</time>
      </trkpt>
      <trkpt lat="43.67802" lon="7.04565">
        <ele>202.8</ele>
        <time>2026-05-16T14:23:09Z</time>
      </trkpt>
      <trkpt lat="43.67802" lon="7.04565">
        <ele>202.8</ele>
        <time>2026-05-16T14:23:10Z</time>
      </trkpt>
      <trkpt lat="43.67802" lon="7.04565">
        <ele>202.8</ele>
        <time>2026-05-16T14:23:11Z</time>
      </trkpt>
      <trkpt lat="43.67802" lon="7.04565">
        <ele>202.8</ele>
        <time>2026-05-16T14:23:12Z</time>
      </trkpt>
      <trkpt lat="43.67802" lon="7.04565">
        <ele>202.8</ele>
        <time>2026-05-16T14:23:13Z</time>
      </trkpt>
      <trkpt lat="43.67802" lon="7.04565">
        <ele>202.8</ele>
        <time>2026-05-16T14:23:14Z</time>
      </trkpt>
      <trkpt lat="43.67802" lon="7.04565">
        <ele>202.8</ele>
        <time>2026-05-16T14:23:15Z</time>
      </trkpt>
      <trkpt lat="43.67802" lon="7.04565">
        <ele>202.8</ele>
        <time>2026-05-16T14:23:16Z</time>
      </trkpt>
      <trkpt lat="43.67802" lon="7.04565">
        <ele>202.8</ele>
        <time>2026-05-16T14:23:17Z</time>
      </trkpt>
      <trkpt lat="43.67802" lon="7.04565">
        <ele>202.8</ele>
        <time>2026-05-16T14:23:18Z</time>
      </trkpt>
      <trkpt lat="43.67802" lon="7.04565">
        <ele>202.8</ele>
        <time>2026-05-16T14:23:19Z</time>
      </trkpt>
      <trkpt lat="43.67802" lon="7.04565">
        <ele>202.8</ele>
        <time>2026-05-16T14:23:20Z</time>
      </trkpt>
      <trkpt lat="43.67802" lon="7.04565">
        <ele>202.8</ele>
        <time>2026-05-16T14:23:21Z</time>
      </trkpt>
      <trkpt lat="43.67802" lon="7.04565">
        <ele>202.8</ele>
        <time>2026-05-16T14:23:22Z</time>
      </trkpt>
      <trkpt lat="43.67802" lon="7.04565">
        <ele>202.8</ele>
        <time>2026-05-16T14:23:23Z</time>
      </trkpt>
      <trkpt lat="43.67802" lon="7.04565">
        <ele>202.8</ele>
        <time>2026-05-16T14:23:24Z</time>
      </trkpt>
      <trkpt lat="43.67802" lon="7.04565">
        <ele>202.8</ele>
        <time>2026-05-16T14:23:25Z</time>
      </trkpt>
      <trkpt lat="43.67802" lon="7.04565">
        <ele>202.8</ele>
        <time>2026-05-16T14:23:26Z</time>
      </trkpt>
      <trkpt lat="43.67802" lon="7.04565">
        <ele>202.8</ele>
        <time>2026-05-16T14:23:27Z</time>
      </trkpt>
      <trkpt lat="43.67802" lon="7.04565">
        <ele>202.8</ele>
        <time>2026-05-16T14:23:28Z</time>
      </trkpt>
      <trkpt lat="43.67802" lon="7.04565">
        <ele>202.8</ele>
        <time>2026-05-16T14:23:29Z</time>
      </trkpt>
      <trkpt lat="43.67802" lon="7.04565">
        <ele>202.8</ele>
        <time>2026-05-16T14:23:30Z</time>
      </trkpt>
      <trkpt lat="43.67802" lon="7.04565">
        <ele>202.8</ele>
        <time>2026-05-16T14:23:31Z</time>
      </trkpt>
      <trkpt lat="43.67802" lon="7.04565">
        <ele>202.8</ele>
        <time>2026-05-16T14:23:32Z</time>
      </trkpt>
      <trkpt lat="43.67802" lon="7.04565">
        <ele>202.8</ele>
        <time>2026-05-16T14:23:33Z</time>
      </trkpt>
      <trkpt lat="43.67802" lon="7.04565">
        <ele>202.8</ele>
        <time>2026-05-16T14:23:34Z</time>
      </trkpt>
      <trkpt lat="43.67802" lon="7.04565">
        <ele>202.8</ele>
        <time>2026-05-16T14:23:35Z</time>
      </trkpt>
      <trkpt lat="43.67802" lon="7.04565">
        <ele>202.8</ele>
        <time>2026-05-16T14:23:36Z</time>
      </trkpt>
      <trkpt lat="43.67802" lon="7.04565">
        <ele>202.8</ele>
        <time>2026-05-16T14:23:37Z</time>
      </trkpt>
      <trkpt lat="43.67802" lon="7.04565">
        <ele>202.8</ele>
        <time>2026-05-16T14:23:38Z</time>
      </trkpt>
      <trkpt lat="43.67802" lon="7.04565">
        <ele>202.8</ele>
        <time>2026-05-16T14:23:39Z</time>
      </trkpt>
      <trkpt lat="43.67802" lon="7.04565">
        <ele>202.8</ele>
        <time>2026-05-16T14:23:40Z</time>
      </trkpt>
      <trkpt lat="43.67802" lon="7.04565">
        <ele>202.8</ele>
        <time>2026-05-16T14:23:41Z</time>
      </trkpt>
      <trkpt lat="43.67802" lon="7.04565">
        <ele>202.8</ele>
        <time>2026-05-16T14:23:42Z</time>
      </trkpt>
      <trkpt lat="43.67802" lon="7.04565">
        <ele>202.8</ele>
        <time>2026-05-16T14:23:43Z</time>
      </trkpt>
      <trkpt lat="43.67802" lon="7.04565">
        <ele>202.8</ele>
        <time>2026-05-16T14:23:44Z</time>
      </trkpt>
      <trkpt lat="43.67804" lon="7.04564">
        <ele>202.7</ele>
        <time>2026-05-16T14:23:45Z</time>
      </trkpt>
      <trkpt lat="43.67811" lon="7.04562">
        <ele>202</ele>
        <time>2026-05-16T14:23:46Z</time>
      </trkpt>
      <trkpt lat="43.67817" lon="7.04562">
        <ele>201.5</ele>
        <time>2026-05-16T14:23:47Z</time>
      </trkpt>
      <trkpt lat="43.67821" lon="7.04561">
        <ele>201.2</ele>
        <time>2026-05-16T14:23:48Z</time>
      </trkpt>
      <trkpt lat="43.67825" lon="7.04561">
        <ele>200.9</ele>
        <time>2026-05-16T14:23:49Z</time>
      </trkpt>
      <trkpt lat="43.67826" lon="7.04563">
        <ele>200.9</ele>
        <time>2026-05-16T14:23:50Z</time>
      </trkpt>
      <trkpt lat="43.67825" lon="7.04562">
        <ele>200.9</ele>
        <time>2026-05-16T14:23:51Z</time>
      </trkpt>
      <trkpt lat="43.67825" lon="7.04562">
        <ele>200.9</ele>
        <time>2026-05-16T14:23:52Z</time>
      </trkpt>
      <trkpt lat="43.67825" lon="7.04562">
        <ele>200.9</ele>
        <time>2026-05-16T14:23:53Z</time>
      </trkpt>
      <trkpt lat="43.67826" lon="7.04562">
        <ele>200.8</ele>
        <time>2026-05-16T14:23:54Z</time>
      </trkpt>
      <trkpt lat="43.67826" lon="7.04562">
        <ele>200.8</ele>
        <time>2026-05-16T14:23:55Z</time>
      </trkpt>
      <trkpt lat="43.67826" lon="7.04563">
        <ele>200.9</ele>
        <time>2026-05-16T14:23:56Z</time>
      </trkpt>
      <trkpt lat="43.67826" lon="7.04563">
        <ele>200.9</ele>
        <time>2026-05-16T14:23:57Z</time>
      </trkpt>
      <trkpt lat="43.67827" lon="7.04565">
        <ele>200.9</ele>
        <time>2026-05-16T14:23:58Z</time>
      </trkpt>
      <trkpt lat="43.6783" lon="7.04569">
        <ele>200.8</ele>
        <time>2026-05-16T14:23:59Z</time>
      </trkpt>
      <trkpt lat="43.67832" lon="7.04576">
        <ele>200.9</ele>
        <time>2026-05-16T14:24:00Z</time>
      </trkpt>
      <trkpt lat="43.67835" lon="7.04587">
        <ele>201.2</ele>
        <time>2026-05-16T14:24:01Z</time>
      </trkpt>
      <trkpt lat="43.6784" lon="7.04598">
        <ele>201.4</ele>
        <time>2026-05-16T14:24:02Z</time>
      </trkpt>
      <trkpt lat="43.67846" lon="7.0461">
        <ele>201.2</ele>
        <time>2026-05-16T14:24:03Z</time>
      </trkpt>
      <trkpt lat="43.67852" lon="7.04622">
        <ele>200.4</ele>
        <time>2026-05-16T14:24:04Z</time>
      </trkpt>
      <trkpt lat="43.67854" lon="7.04636">
        <ele>200.5</ele>
        <time>2026-05-16T14:24:05Z</time>
      </trkpt>
      <trkpt lat="43.67854" lon="7.04653">
        <ele>199.9</ele>
        <time>2026-05-16T14:24:06Z</time>
      </trkpt>
      <trkpt lat="43.67853" lon="7.0467">
        <ele>199.2</ele>
        <time>2026-05-16T14:24:07Z</time>
      </trkpt>
      <trkpt lat="43.6785" lon="7.04687">
        <ele>198.7</ele>
        <time>2026-05-16T14:24:08Z</time>
      </trkpt>
      <trkpt lat="43.67849" lon="7.04704">
        <ele>198.4</ele>
        <time>2026-05-16T14:24:09Z</time>
      </trkpt>
      <trkpt lat="43.6785" lon="7.0472">
        <ele>198.4</ele>
        <time>2026-05-16T14:24:10Z</time>
      </trkpt>
      <trkpt lat="43.67853" lon="7.04733">
        <ele>198.6</ele>
        <time>2026-05-16T14:24:11Z</time>
      </trkpt>
      <trkpt lat="43.6786" lon="7.04749">
        <ele>198.2</ele>
        <time>2026-05-16T14:24:12Z</time>
      </trkpt>
      <trkpt lat="43.67869" lon="7.04763">
        <ele>198.8</ele>
        <time>2026-05-16T14:24:13Z</time>
      </trkpt>
      <trkpt lat="43.6788" lon="7.04778">
        <ele>198</ele>
        <time>2026-05-16T14:24:14Z</time>
      </trkpt>
      <trkpt lat="43.67891" lon="7.0479">
        <ele>197.6</ele>
        <time>2026-05-16T14:24:15Z</time>
      </trkpt>
      <trkpt lat="43.67904" lon="7.04802">
        <ele>197.2</ele>
        <time>2026-05-16T14:24:16Z</time>
      </trkpt>
      <trkpt lat="43.67916" lon="7.04812">
        <ele>196.3</ele>
        <time>2026-05-16T14:24:17Z</time>
      </trkpt>
      <trkpt lat="43.6793" lon="7.04822">
        <ele>196.8</ele>
        <time>2026-05-16T14:24:18Z</time>
      </trkpt>
      <trkpt lat="43.67942" lon="7.04833">
        <ele>196.3</ele>
        <time>2026-05-16T14:24:19Z</time>
      </trkpt>
      <trkpt lat="43.67954" lon="7.04842">
        <ele>196</ele>
        <time>2026-05-16T14:24:20Z</time>
      </trkpt>
      <trkpt lat="43.67965" lon="7.04853">
        <ele>195.6</ele>
        <time>2026-05-16T14:24:21Z</time>
      </trkpt>
      <trkpt lat="43.67973" lon="7.04862">
        <ele>195</ele>
        <time>2026-05-16T14:24:22Z</time>
      </trkpt>
      <trkpt lat="43.67976" lon="7.04879">
        <ele>195.3</ele>
        <time>2026-05-16T14:24:23Z</time>
      </trkpt>
      <trkpt lat="43.6798" lon="7.04896">
        <ele>195.1</ele>
        <time>2026-05-16T14:24:24Z</time>
      </trkpt>
      <trkpt lat="43.67982" lon="7.04915">
        <ele>194.6</ele>
        <time>2026-05-16T14:24:25Z</time>
      </trkpt>
      <trkpt lat="43.67984" lon="7.04934">
        <ele>194.3</ele>
        <time>2026-05-16T14:24:26Z</time>
      </trkpt>
      <trkpt lat="43.67988" lon="7.04953">
        <ele>193.7</ele>
        <time>2026-05-16T14:24:27Z</time>
      </trkpt>
      <trkpt lat="43.6799" lon="7.04972">
        <ele>193.4</ele>
        <time>2026-05-16T14:24:28Z</time>
      </trkpt>
      <trkpt lat="43.67992" lon="7.04989">
        <ele>193.3</ele>
        <time>2026-05-16T14:24:29Z</time>
      </trkpt>
      <trkpt lat="43.67995" lon="7.05003">
        <ele>192.9</ele>
        <time>2026-05-16T14:24:30Z</time>
      </trkpt>
      <trkpt lat="43.67996" lon="7.05016">
        <ele>192.9</ele>
        <time>2026-05-16T14:24:31Z</time>
      </trkpt>
      <trkpt lat="43.67998" lon="7.05028">
        <ele>192.5</ele>
        <time>2026-05-16T14:24:32Z</time>
      </trkpt>
      <trkpt lat="43.68" lon="7.05039">
        <ele>191.6</ele>
        <time>2026-05-16T14:24:33Z</time>
      </trkpt>
      <trkpt lat="43.68001" lon="7.05049">
        <ele>191.2</ele>
        <time>2026-05-16T14:24:34Z</time>
      </trkpt>
      <trkpt lat="43.68002" lon="7.05059">
        <ele>191.2</ele>
        <time>2026-05-16T14:24:35Z</time>
      </trkpt>
      <trkpt lat="43.68005" lon="7.05071">
        <ele>191.7</ele>
        <time>2026-05-16T14:24:36Z</time>
      </trkpt>
      <trkpt lat="43.68009" lon="7.05082">
        <ele>192</ele>
        <time>2026-05-16T14:24:37Z</time>
      </trkpt>
      <trkpt lat="43.68015" lon="7.05095">
        <ele>191.6</ele>
        <time>2026-05-16T14:24:38Z</time>
      </trkpt>
      <trkpt lat="43.68022" lon="7.05109">
        <ele>191.4</ele>
        <time>2026-05-16T14:24:39Z</time>
      </trkpt>
      <trkpt lat="43.68029" lon="7.05124">
        <ele>191.4</ele>
        <time>2026-05-16T14:24:40Z</time>
      </trkpt>
      <trkpt lat="43.68038" lon="7.05136">
        <ele>191.2</ele>
        <time>2026-05-16T14:24:41Z</time>
      </trkpt>
      <trkpt lat="43.68049" lon="7.05145">
        <ele>191.5</ele>
        <time>2026-05-16T14:24:42Z</time>
      </trkpt>
      <trkpt lat="43.68062" lon="7.05153">
        <ele>192.3</ele>
        <time>2026-05-16T14:24:43Z</time>
      </trkpt>
      <trkpt lat="43.68076" lon="7.0516">
        <ele>192.7</ele>
        <time>2026-05-16T14:24:44Z</time>
      </trkpt>
      <trkpt lat="43.6809" lon="7.0517">
        <ele>193.1</ele>
        <time>2026-05-16T14:24:45Z</time>
      </trkpt>
      <trkpt lat="43.68105" lon="7.0518">
        <ele>193.5</ele>
        <time>2026-05-16T14:24:46Z</time>
      </trkpt>
      <trkpt lat="43.68119" lon="7.05192">
        <ele>193.6</ele>
        <time>2026-05-16T14:24:47Z</time>
      </trkpt>
      <trkpt lat="43.68131" lon="7.05206">
        <ele>193.7</ele>
        <time>2026-05-16T14:24:48Z</time>
      </trkpt>
      <trkpt lat="43.68142" lon="7.05222">
        <ele>193.5</ele>
        <time>2026-05-16T14:24:49Z</time>
      </trkpt>
      <trkpt lat="43.68155" lon="7.05239">
        <ele>194.5</ele>
        <time>2026-05-16T14:24:50Z</time>
      </trkpt>
      <trkpt lat="43.68168" lon="7.05254">
        <ele>193.7</ele>
        <time>2026-05-16T14:24:51Z</time>
      </trkpt>
      <trkpt lat="43.68181" lon="7.05269">
        <ele>193.4</ele>
        <time>2026-05-16T14:24:52Z</time>
      </trkpt>
      <trkpt lat="43.68194" lon="7.05287">
        <ele>191.5</ele>
        <time>2026-05-16T14:24:53Z</time>
      </trkpt>
      <trkpt lat="43.68205" lon="7.05306">
        <ele>192.2</ele>
        <time>2026-05-16T14:24:54Z</time>
      </trkpt>
      <trkpt lat="43.68216" lon="7.05324">
        <ele>191.7</ele>
        <time>2026-05-16T14:24:55Z</time>
      </trkpt>
      <trkpt lat="43.68227" lon="7.05342">
        <ele>190.9</ele>
        <time>2026-05-16T14:24:56Z</time>
      </trkpt>
      <trkpt lat="43.68235" lon="7.0536">
        <ele>191.2</ele>
        <time>2026-05-16T14:24:57Z</time>
      </trkpt>
      <trkpt lat="43.68243" lon="7.05378">
        <ele>189.5</ele>
        <time>2026-05-16T14:24:58Z</time>
      </trkpt>
      <trkpt lat="43.68248" lon="7.05398">
        <ele>188.1</ele>
        <time>2026-05-16T14:24:59Z</time>
      </trkpt>
      <trkpt lat="43.68248" lon="7.05419">
        <ele>188.9</ele>
        <time>2026-05-16T14:25:00Z</time>
      </trkpt>
      <trkpt lat="43.68248" lon="7.05441">
        <ele>189.7</ele>
        <time>2026-05-16T14:25:01Z</time>
      </trkpt>
      <trkpt lat="43.6825" lon="7.05464">
        <ele>189</ele>
        <time>2026-05-16T14:25:02Z</time>
      </trkpt>
      <trkpt lat="43.68255" lon="7.05488">
        <ele>188.8</ele>
        <time>2026-05-16T14:25:03Z</time>
      </trkpt>
      <trkpt lat="43.6826" lon="7.05511">
        <ele>188.6</ele>
        <time>2026-05-16T14:25:04Z</time>
      </trkpt>
      <trkpt lat="43.68266" lon="7.05536">
        <ele>187.9</ele>
        <time>2026-05-16T14:25:05Z</time>
      </trkpt>
      <trkpt lat="43.68271" lon="7.05559">
        <ele>187.7</ele>
        <time>2026-05-16T14:25:06Z</time>
      </trkpt>
      <trkpt lat="43.68277" lon="7.0558">
        <ele>187.1</ele>
        <time>2026-05-16T14:25:07Z</time>
      </trkpt>
      <trkpt lat="43.68283" lon="7.05598">
        <ele>187.8</ele>
        <time>2026-05-16T14:25:08Z</time>
      </trkpt>
      <trkpt lat="43.68292" lon="7.05612">
        <ele>186.6</ele>
        <time>2026-05-16T14:25:09Z</time>
      </trkpt>
      <trkpt lat="43.68307" lon="7.05626">
        <ele>184.3</ele>
        <time>2026-05-16T14:25:10Z</time>
      </trkpt>
      <trkpt lat="43.68321" lon="7.05638">
        <ele>181.9</ele>
        <time>2026-05-16T14:25:11Z</time>
      </trkpt>
      <trkpt lat="43.68335" lon="7.05651">
        <ele>179.8</ele>
        <time>2026-05-16T14:25:12Z</time>
      </trkpt>
      <trkpt lat="43.68346" lon="7.05662">
        <ele>178.7</ele>
        <time>2026-05-16T14:25:13Z</time>
      </trkpt>
      <trkpt lat="43.68355" lon="7.05676">
        <ele>177.7</ele>
        <time>2026-05-16T14:25:14Z</time>
      </trkpt>
      <trkpt lat="43.68361" lon="7.05691">
        <ele>176.8</ele>
        <time>2026-05-16T14:25:15Z</time>
      </trkpt>
      <trkpt lat="43.68365" lon="7.05707">
        <ele>175.4</ele>
        <time>2026-05-16T14:25:16Z</time>
      </trkpt>
      <trkpt lat="43.68365" lon="7.05725">
        <ele>174.6</ele>
        <time>2026-05-16T14:25:17Z</time>
      </trkpt>
      <trkpt lat="43.68354" lon="7.05741">
        <ele>176.6</ele>
        <time>2026-05-16T14:25:18Z</time>
      </trkpt>
      <trkpt lat="43.68348" lon="7.0576">
        <ele>175.9</ele>
        <time>2026-05-16T14:25:19Z</time>
      </trkpt>
      <trkpt lat="43.68341" lon="7.05778">
        <ele>174.8</ele>
        <time>2026-05-16T14:25:20Z</time>
      </trkpt>
      <trkpt lat="43.68332" lon="7.05792">
        <ele>174.8</ele>
        <time>2026-05-16T14:25:21Z</time>
      </trkpt>
      <trkpt lat="43.68324" lon="7.05806">
        <ele>174.7</ele>
        <time>2026-05-16T14:25:22Z</time>
      </trkpt>
      <trkpt lat="43.68319" lon="7.05818">
        <ele>175.4</ele>
        <time>2026-05-16T14:25:23Z</time>
      </trkpt>
      <trkpt lat="43.68315" lon="7.05832">
        <ele>175.7</ele>
        <time>2026-05-16T14:25:24Z</time>
      </trkpt>
      <trkpt lat="43.68314" lon="7.05844">
        <ele>177.2</ele>
        <time>2026-05-16T14:25:25Z</time>
      </trkpt>
      <trkpt lat="43.68317" lon="7.05856">
        <ele>177.7</ele>
        <time>2026-05-16T14:25:26Z</time>
      </trkpt>
      <trkpt lat="43.68336" lon="7.05879">
        <ele>175.1</ele>
        <time>2026-05-16T14:25:27Z</time>
      </trkpt>
      <trkpt lat="43.68348" lon="7.05897">
        <ele>172.7</ele>
        <time>2026-05-16T14:25:28Z</time>
      </trkpt>
      <trkpt lat="43.68359" lon="7.05916">
        <ele>170.1</ele>
        <time>2026-05-16T14:25:29Z</time>
      </trkpt>
      <trkpt lat="43.6837" lon="7.05937">
        <ele>170.1</ele>
        <time>2026-05-16T14:25:30Z</time>
      </trkpt>
      <trkpt lat="43.68381" lon="7.05957">
        <ele>169.9</ele>
        <time>2026-05-16T14:25:31Z</time>
      </trkpt>
      <trkpt lat="43.68393" lon="7.05973">
        <ele>168.2</ele>
        <time>2026-05-16T14:25:32Z</time>
      </trkpt>
      <trkpt lat="43.68407" lon="7.05988">
        <ele>166</ele>
        <time>2026-05-16T14:25:33Z</time>
      </trkpt>
      <trkpt lat="43.6842" lon="7.06002">
        <ele>163</ele>
        <time>2026-05-16T14:25:34Z</time>
      </trkpt>
      <trkpt lat="43.6843" lon="7.06016">
        <ele>162.2</ele>
        <time>2026-05-16T14:25:35Z</time>
      </trkpt>
      <trkpt lat="43.68438" lon="7.06031">
        <ele>161.7</ele>
        <time>2026-05-16T14:25:36Z</time>
      </trkpt>
      <trkpt lat="43.68443" lon="7.0605">
        <ele>162.2</ele>
        <time>2026-05-16T14:25:37Z</time>
      </trkpt>
      <trkpt lat="43.68446" lon="7.06071">
        <ele>162.7</ele>
        <time>2026-05-16T14:25:38Z</time>
      </trkpt>
      <trkpt lat="43.68449" lon="7.06095">
        <ele>163.9</ele>
        <time>2026-05-16T14:25:39Z</time>
      </trkpt>
      <trkpt lat="43.68453" lon="7.06119">
        <ele>163.6</ele>
        <time>2026-05-16T14:25:40Z</time>
      </trkpt>
      <trkpt lat="43.6846" lon="7.06143">
        <ele>159.5</ele>
        <time>2026-05-16T14:25:41Z</time>
      </trkpt>
      <trkpt lat="43.68464" lon="7.0617">
        <ele>158</ele>
        <time>2026-05-16T14:25:42Z</time>
      </trkpt>
      <trkpt lat="43.68469" lon="7.06197">
        <ele>155.9</ele>
        <time>2026-05-16T14:25:43Z</time>
      </trkpt>
      <trkpt lat="43.68474" lon="7.06224">
        <ele>153.7</ele>
        <time>2026-05-16T14:25:44Z</time>
      </trkpt>
      <trkpt lat="43.68479" lon="7.06251">
        <ele>151.3</ele>
        <time>2026-05-16T14:25:45Z</time>
      </trkpt>
      <trkpt lat="43.68485" lon="7.06278">
        <ele>149.9</ele>
        <time>2026-05-16T14:25:46Z</time>
      </trkpt>
      <trkpt lat="43.68493" lon="7.06303">
        <ele>147.9</ele>
        <time>2026-05-16T14:25:47Z</time>
      </trkpt>
      <trkpt lat="43.685" lon="7.06327">
        <ele>144.5</ele>
        <time>2026-05-16T14:25:48Z</time>
      </trkpt>
      <trkpt lat="43.68508" lon="7.06351">
        <ele>147.2</ele>
        <time>2026-05-16T14:25:49Z</time>
      </trkpt>
      <trkpt lat="43.68518" lon="7.06374">
        <ele>146.8</ele>
        <time>2026-05-16T14:25:50Z</time>
      </trkpt>
      <trkpt lat="43.68529" lon="7.06396">
        <ele>143.4</ele>
        <time>2026-05-16T14:25:51Z</time>
      </trkpt>
      <trkpt lat="43.68541" lon="7.06418">
        <ele>142.3</ele>
        <time>2026-05-16T14:25:52Z</time>
      </trkpt>
      <trkpt lat="43.68553" lon="7.06439">
        <ele>141.1</ele>
        <time>2026-05-16T14:25:53Z</time>
      </trkpt>
      <trkpt lat="43.68566" lon="7.06459">
        <ele>140.1</ele>
        <time>2026-05-16T14:25:54Z</time>
      </trkpt>
      <trkpt lat="43.6858" lon="7.06477">
        <ele>138.1</ele>
        <time>2026-05-16T14:25:55Z</time>
      </trkpt>
      <trkpt lat="43.68594" lon="7.06492">
        <ele>136.4</ele>
        <time>2026-05-16T14:25:56Z</time>
      </trkpt>
      <trkpt lat="43.68609" lon="7.06502">
        <ele>133.3</ele>
        <time>2026-05-16T14:25:57Z</time>
      </trkpt>
      <trkpt lat="43.68623" lon="7.06513">
        <ele>130.8</ele>
        <time>2026-05-16T14:25:58Z</time>
      </trkpt>
      <trkpt lat="43.68635" lon="7.06526">
        <ele>129.9</ele>
        <time>2026-05-16T14:25:59Z</time>
      </trkpt>
      <trkpt lat="43.68644" lon="7.06541">
        <ele>130.3</ele>
        <time>2026-05-16T14:26:00Z</time>
      </trkpt>
      <trkpt lat="43.68655" lon="7.06555">
        <ele>130</ele>
        <time>2026-05-16T14:26:01Z</time>
      </trkpt>
      <trkpt lat="43.68667" lon="7.06565">
        <ele>128.3</ele>
        <time>2026-05-16T14:26:02Z</time>
      </trkpt>
      <trkpt lat="43.6868" lon="7.06572">
        <ele>125.1</ele>
        <time>2026-05-16T14:26:03Z</time>
      </trkpt>
      <trkpt lat="43.68691" lon="7.06582">
        <ele>123.9</ele>
        <time>2026-05-16T14:26:04Z</time>
      </trkpt>
      <trkpt lat="43.68699" lon="7.06595">
        <ele>123.6</ele>
        <time>2026-05-16T14:26:05Z</time>
      </trkpt>
      <trkpt lat="43.68706" lon="7.06613">
        <ele>124.1</ele>
        <time>2026-05-16T14:26:06Z</time>
      </trkpt>
      <trkpt lat="43.68713" lon="7.06633">
        <ele>124.4</ele>
        <time>2026-05-16T14:26:07Z</time>
      </trkpt>
      <trkpt lat="43.68721" lon="7.06655">
        <ele>124.5</ele>
        <time>2026-05-16T14:26:08Z</time>
      </trkpt>
      <trkpt lat="43.68729" lon="7.06674">
        <ele>123.7</ele>
        <time>2026-05-16T14:26:09Z</time>
      </trkpt>
      <trkpt lat="43.68739" lon="7.06692">
        <ele>121.5</ele>
        <time>2026-05-16T14:26:10Z</time>
      </trkpt>
      <trkpt lat="43.68747" lon="7.06711">
        <ele>120.1</ele>
        <time>2026-05-16T14:26:11Z</time>
      </trkpt>
      <trkpt lat="43.68752" lon="7.06731">
        <ele>120.5</ele>
        <time>2026-05-16T14:26:12Z</time>
      </trkpt>
      <trkpt lat="43.68758" lon="7.06749">
        <ele>120.8</ele>
        <time>2026-05-16T14:26:13Z</time>
      </trkpt>
      <trkpt lat="43.68765" lon="7.06764">
        <ele>121.2</ele>
        <time>2026-05-16T14:26:14Z</time>
      </trkpt>
      <trkpt lat="43.68774" lon="7.06779">
        <ele>120.4</ele>
        <time>2026-05-16T14:26:15Z</time>
      </trkpt>
      <trkpt lat="43.68783" lon="7.06789">
        <ele>119.6</ele>
        <time>2026-05-16T14:26:16Z</time>
      </trkpt>
      <trkpt lat="43.68796" lon="7.0679">
        <ele>114.6</ele>
        <time>2026-05-16T14:26:17Z</time>
      </trkpt>
      <trkpt lat="43.68807" lon="7.06776">
        <ele>107.8</ele>
        <time>2026-05-16T14:26:18Z</time>
      </trkpt>
      <trkpt lat="43.68816" lon="7.06777">
        <ele>104.2</ele>
        <time>2026-05-16T14:26:19Z</time>
      </trkpt>
      <trkpt lat="43.68821" lon="7.06784">
        <ele>102.9</ele>
        <time>2026-05-16T14:26:20Z</time>
      </trkpt>
      <trkpt lat="43.68824" lon="7.06796">
        <ele>102.3</ele>
        <time>2026-05-16T14:26:21Z</time>
      </trkpt>
      <trkpt lat="43.68823" lon="7.06811">
        <ele>102.9</ele>
        <time>2026-05-16T14:26:22Z</time>
      </trkpt>
      <trkpt lat="43.6882" lon="7.0683">
        <ele>102.5</ele>
        <time>2026-05-16T14:26:23Z</time>
      </trkpt>
      <trkpt lat="43.68817" lon="7.06852">
        <ele>102.8</ele>
        <time>2026-05-16T14:26:24Z</time>
      </trkpt>
      <trkpt lat="43.68814" lon="7.06875">
        <ele>102.9</ele>
        <time>2026-05-16T14:26:25Z</time>
      </trkpt>
      <trkpt lat="43.68811" lon="7.06897">
        <ele>101.9</ele>
        <time>2026-05-16T14:26:26Z</time>
      </trkpt>
      <trkpt lat="43.68807" lon="7.06918">
        <ele>99.6</ele>
        <time>2026-05-16T14:26:27Z</time>
      </trkpt>
      <trkpt lat="43.688" lon="7.06937">
        <ele>100.3</ele>
        <time>2026-05-16T14:26:28Z</time>
      </trkpt>
      <trkpt lat="43.68795" lon="7.06954">
        <ele>100.6</ele>
        <time>2026-05-16T14:26:29Z</time>
      </trkpt>
      <trkpt lat="43.68794" lon="7.06971">
        <ele>98.1</ele>
        <time>2026-05-16T14:26:30Z</time>
      </trkpt>
      <trkpt lat="43.68794" lon="7.06988">
        <ele>94.5</ele>
        <time>2026-05-16T14:26:31Z</time>
      </trkpt>
      <trkpt lat="43.68793" lon="7.07002">
        <ele>91.8</ele>
        <time>2026-05-16T14:26:32Z</time>
      </trkpt>
      <trkpt lat="43.6879" lon="7.07017">
        <ele>88.7</ele>
        <time>2026-05-16T14:26:33Z</time>
      </trkpt>
      <trkpt lat="43.68783" lon="7.07027">
        <ele>87.8</ele>
        <time>2026-05-16T14:26:34Z</time>
      </trkpt>
      <trkpt lat="43.68768" lon="7.07032">
        <ele>88.6</ele>
        <time>2026-05-16T14:26:35Z</time>
      </trkpt>
      <trkpt lat="43.68753" lon="7.07038">
        <ele>87.5</ele>
        <time>2026-05-16T14:26:36Z</time>
      </trkpt>
      <trkpt lat="43.68735" lon="7.07042">
        <ele>87.2</ele>
        <time>2026-05-16T14:26:37Z</time>
      </trkpt>
      <trkpt lat="43.68719" lon="7.07047">
        <ele>85.7</ele>
        <time>2026-05-16T14:26:38Z</time>
      </trkpt>
      <trkpt lat="43.68702" lon="7.07053">
        <ele>83.9</ele>
        <time>2026-05-16T14:26:39Z</time>
      </trkpt>
      <trkpt lat="43.68684" lon="7.07061">
        <ele>82</ele>
        <time>2026-05-16T14:26:40Z</time>
      </trkpt>
      <trkpt lat="43.68666" lon="7.0707">
        <ele>80.3</ele>
        <time>2026-05-16T14:26:41Z</time>
      </trkpt>
      <trkpt lat="43.68648" lon="7.07081">
        <ele>79.3</ele>
        <time>2026-05-16T14:26:42Z</time>
      </trkpt>
      <trkpt lat="43.68631" lon="7.07093">
        <ele>76.7</ele>
        <time>2026-05-16T14:26:43Z</time>
      </trkpt>
      <trkpt lat="43.68613" lon="7.07103">
        <ele>75</ele>
        <time>2026-05-16T14:26:44Z</time>
      </trkpt>
      <trkpt lat="43.68595" lon="7.0711">
        <ele>74.8</ele>
        <time>2026-05-16T14:26:45Z</time>
      </trkpt>
      <trkpt lat="43.68577" lon="7.07116">
        <ele>75.7</ele>
        <time>2026-05-16T14:26:46Z</time>
      </trkpt>
      <trkpt lat="43.68559" lon="7.0712">
        <ele>76.9</ele>
        <time>2026-05-16T14:26:47Z</time>
      </trkpt>
      <trkpt lat="43.68543" lon="7.07126">
        <ele>77</ele>
        <time>2026-05-16T14:26:48Z</time>
      </trkpt>
      <trkpt lat="43.68526" lon="7.07134">
        <ele>76.2</ele>
        <time>2026-05-16T14:26:49Z</time>
      </trkpt>
      <trkpt lat="43.68512" lon="7.0715">
        <ele>72.1</ele>
        <time>2026-05-16T14:26:50Z</time>
      </trkpt>
      <trkpt lat="43.68496" lon="7.07166">
        <ele>68.1</ele>
        <time>2026-05-16T14:26:51Z</time>
      </trkpt>
      <trkpt lat="43.68479" lon="7.07181">
        <ele>64.6</ele>
        <time>2026-05-16T14:26:52Z</time>
      </trkpt>
      <trkpt lat="43.68463" lon="7.07197">
        <ele>60.6</ele>
        <time>2026-05-16T14:26:53Z</time>
      </trkpt>
      <trkpt lat="43.68449" lon="7.07214">
        <ele>58.2</ele>
        <time>2026-05-16T14:26:54Z</time>
      </trkpt>
      <trkpt lat="43.68437" lon="7.07234">
        <ele>56.6</ele>
        <time>2026-05-16T14:26:55Z</time>
      </trkpt>
      <trkpt lat="43.68425" lon="7.07253">
        <ele>55.1</ele>
        <time>2026-05-16T14:26:56Z</time>
      </trkpt>
      <trkpt lat="43.68415" lon="7.07274">
        <ele>51.4</ele>
        <time>2026-05-16T14:26:57Z</time>
      </trkpt>
      <trkpt lat="43.68404" lon="7.07293">
        <ele>48.7</ele>
        <time>2026-05-16T14:26:58Z</time>
      </trkpt>
      <trkpt lat="43.68393" lon="7.07307">
        <ele>47.2</ele>
        <time>2026-05-16T14:26:59Z</time>
      </trkpt>
      <trkpt lat="43.68382" lon="7.07318">
        <ele>46.7</ele>
        <time>2026-05-16T14:27:00Z</time>
      </trkpt>
      <trkpt lat="43.6837" lon="7.07327">
        <ele>47.2</ele>
        <time>2026-05-16T14:27:01Z</time>
      </trkpt>
      <trkpt lat="43.6836" lon="7.07336">
        <ele>48.1</ele>
        <time>2026-05-16T14:27:02Z</time>
      </trkpt>
      <trkpt lat="43.68351" lon="7.07347">
        <ele>50.3</ele>
        <time>2026-05-16T14:27:03Z</time>
      </trkpt>
      <trkpt lat="43.68344" lon="7.0736">
        <ele>51.9</ele>
        <time>2026-05-16T14:27:04Z</time>
      </trkpt>
      <trkpt lat="43.68337" lon="7.07375">
        <ele>52.5</ele>
        <time>2026-05-16T14:27:05Z</time>
      </trkpt>
      <trkpt lat="43.6833" lon="7.07393">
        <ele>53.3</ele>
        <time>2026-05-16T14:27:06Z</time>
      </trkpt>
      <trkpt lat="43.68323" lon="7.07411">
        <ele>53.6</ele>
        <time>2026-05-16T14:27:07Z</time>
      </trkpt>
      <trkpt lat="43.68316" lon="7.07429">
        <ele>52.9</ele>
        <time>2026-05-16T14:27:08Z</time>
      </trkpt>
      <trkpt lat="43.68308" lon="7.07446">
        <ele>51.9</ele>
        <time>2026-05-16T14:27:09Z</time>
      </trkpt>
      <trkpt lat="43.68298" lon="7.07462">
        <ele>49.7</ele>
        <time>2026-05-16T14:27:10Z</time>
      </trkpt>
      <trkpt lat="43.68287" lon="7.07478">
        <ele>50.2</ele>
        <time>2026-05-16T14:27:11Z</time>
      </trkpt>
      <trkpt lat="43.68276" lon="7.07497">
        <ele>50.5</ele>
        <time>2026-05-16T14:27:12Z</time>
      </trkpt>
      <trkpt lat="43.68266" lon="7.07517">
        <ele>50.2</ele>
        <time>2026-05-16T14:27:13Z</time>
      </trkpt>
      <trkpt lat="43.68255" lon="7.07538">
        <ele>51.3</ele>
        <time>2026-05-16T14:27:14Z</time>
      </trkpt>
      <trkpt lat="43.68245" lon="7.07559">
        <ele>48.4</ele>
        <time>2026-05-16T14:27:15Z</time>
      </trkpt>
      <trkpt lat="43.68235" lon="7.07579">
        <ele>47.3</ele>
        <time>2026-05-16T14:27:16Z</time>
      </trkpt>
      <trkpt lat="43.68225" lon="7.07599">
        <ele>44.8</ele>
        <time>2026-05-16T14:27:17Z</time>
      </trkpt>
      <trkpt lat="43.68214" lon="7.07617">
        <ele>43.8</ele>
        <time>2026-05-16T14:27:18Z</time>
      </trkpt>
      <trkpt lat="43.68202" lon="7.07635">
        <ele>46.2</ele>
        <time>2026-05-16T14:27:19Z</time>
      </trkpt>
      <trkpt lat="43.68189" lon="7.07652">
        <ele>46.7</ele>
        <time>2026-05-16T14:27:20Z</time>
      </trkpt>
      <trkpt lat="43.68175" lon="7.07668">
        <ele>46.3</ele>
        <time>2026-05-16T14:27:21Z</time>
      </trkpt>
      <trkpt lat="43.68159" lon="7.07683">
        <ele>47.6</ele>
        <time>2026-05-16T14:27:22Z</time>
      </trkpt>
      <trkpt lat="43.68142" lon="7.07698">
        <ele>47.9</ele>
        <time>2026-05-16T14:27:23Z</time>
      </trkpt>
      <trkpt lat="43.68125" lon="7.07713">
        <ele>50</ele>
        <time>2026-05-16T14:27:24Z</time>
      </trkpt>
      <trkpt lat="43.68112" lon="7.07729">
        <ele>49.2</ele>
        <time>2026-05-16T14:27:25Z</time>
      </trkpt>
      <trkpt lat="43.68097" lon="7.07744">
        <ele>52</ele>
        <time>2026-05-16T14:27:26Z</time>
      </trkpt>
      <trkpt lat="43.68087" lon="7.07763">
        <ele>48.3</ele>
        <time>2026-05-16T14:27:27Z</time>
      </trkpt>
      <trkpt lat="43.68076" lon="7.07784">
        <ele>45.3</ele>
        <time>2026-05-16T14:27:28Z</time>
      </trkpt>
      <trkpt lat="43.68067" lon="7.07807">
        <ele>45</ele>
        <time>2026-05-16T14:27:29Z</time>
      </trkpt>
      <trkpt lat="43.68058" lon="7.0783">
        <ele>43.2</ele>
        <time>2026-05-16T14:27:30Z</time>
      </trkpt>
      <trkpt lat="43.6805" lon="7.07854">
        <ele>40</ele>
        <time>2026-05-16T14:27:31Z</time>
      </trkpt>
      <trkpt lat="43.6804" lon="7.07875">
        <ele>40.3</ele>
        <time>2026-05-16T14:27:32Z</time>
      </trkpt>
      <trkpt lat="43.68031" lon="7.07894">
        <ele>39.5</ele>
        <time>2026-05-16T14:27:33Z</time>
      </trkpt>
      <trkpt lat="43.68023" lon="7.07913">
        <ele>39.1</ele>
        <time>2026-05-16T14:27:34Z</time>
      </trkpt>
      <trkpt lat="43.68016" lon="7.0793">
        <ele>37.7</ele>
        <time>2026-05-16T14:27:35Z</time>
      </trkpt>
      <trkpt lat="43.68012" lon="7.07948">
        <ele>36.8</ele>
        <time>2026-05-16T14:27:36Z</time>
      </trkpt>
      <trkpt lat="43.68012" lon="7.07966">
        <ele>38.9</ele>
        <time>2026-05-16T14:27:37Z</time>
      </trkpt>
      <trkpt lat="43.68013" lon="7.07985">
        <ele>39.8</ele>
        <time>2026-05-16T14:27:38Z</time>
      </trkpt>
      <trkpt lat="43.68015" lon="7.08005">
        <ele>39.4</ele>
        <time>2026-05-16T14:27:39Z</time>
      </trkpt>
      <trkpt lat="43.68019" lon="7.08027">
        <ele>37.5</ele>
        <time>2026-05-16T14:27:40Z</time>
      </trkpt>
      <trkpt lat="43.68021" lon="7.0805">
        <ele>37.5</ele>
        <time>2026-05-16T14:27:41Z</time>
      </trkpt>
      <trkpt lat="43.68022" lon="7.08075">
        <ele>36.4</ele>
        <time>2026-05-16T14:27:42Z</time>
      </trkpt>
      <trkpt lat="43.68022" lon="7.081">
        <ele>33.3</ele>
        <time>2026-05-16T14:27:43Z</time>
      </trkpt>
      <trkpt lat="43.68021" lon="7.08124">
        <ele>32.2</ele>
        <time>2026-05-16T14:27:44Z</time>
      </trkpt>
      <trkpt lat="43.6802" lon="7.08147">
        <ele>34.8</ele>
        <time>2026-05-16T14:27:45Z</time>
      </trkpt>
      <trkpt lat="43.68019" lon="7.08168">
        <ele>39.2</ele>
        <time>2026-05-16T14:27:46Z</time>
      </trkpt>
      <trkpt lat="43.68018" lon="7.08186">
        <ele>39.3</ele>
        <time>2026-05-16T14:27:47Z</time>
      </trkpt>
      <trkpt lat="43.68017" lon="7.08201">
        <ele>38.6</ele>
        <time>2026-05-16T14:27:48Z</time>
      </trkpt>
      <trkpt lat="43.68019" lon="7.08215">
        <ele>38.1</ele>
        <time>2026-05-16T14:27:49Z</time>
      </trkpt>
      <trkpt lat="43.68025" lon="7.0823">
        <ele>37.9</ele>
        <time>2026-05-16T14:27:50Z</time>
      </trkpt>
      <trkpt lat="43.68033" lon="7.08245">
        <ele>37.2</ele>
        <time>2026-05-16T14:27:51Z</time>
      </trkpt>
      <trkpt lat="43.6804" lon="7.08259">
        <ele>36.8</ele>
        <time>2026-05-16T14:27:52Z</time>
      </trkpt>
      <trkpt lat="43.68049" lon="7.08273">
        <ele>36.6</ele>
        <time>2026-05-16T14:27:53Z</time>
      </trkpt>
      <trkpt lat="43.68059" lon="7.08286">
        <ele>36.2</ele>
        <time>2026-05-16T14:27:54Z</time>
      </trkpt>
      <trkpt lat="43.6807" lon="7.08295">
        <ele>35.6</ele>
        <time>2026-05-16T14:27:55Z</time>
      </trkpt>
      <trkpt lat="43.68085" lon="7.08302">
        <ele>35</ele>
        <time>2026-05-16T14:27:56Z</time>
      </trkpt>
      <trkpt lat="43.681" lon="7.08309">
        <ele>34.2</ele>
        <time>2026-05-16T14:27:57Z</time>
      </trkpt>
      <trkpt lat="43.68115" lon="7.08315">
        <ele>34.1</ele>
        <time>2026-05-16T14:27:58Z</time>
      </trkpt>
      <trkpt lat="43.68131" lon="7.08322">
        <ele>34.2</ele>
        <time>2026-05-16T14:27:59Z</time>
      </trkpt>
      <trkpt lat="43.68145" lon="7.08328">
        <ele>33.7</ele>
        <time>2026-05-16T14:28:00Z</time>
      </trkpt>
      <trkpt lat="43.68158" lon="7.08334">
        <ele>33.3</ele>
        <time>2026-05-16T14:28:01Z</time>
      </trkpt>
      <trkpt lat="43.68167" lon="7.0834">
        <ele>33.3</ele>
        <time>2026-05-16T14:28:02Z</time>
      </trkpt>
      <trkpt lat="43.68175" lon="7.08349">
        <ele>32.8</ele>
        <time>2026-05-16T14:28:03Z</time>
      </trkpt>
      <trkpt lat="43.68183" lon="7.08359">
        <ele>32.9</ele>
        <time>2026-05-16T14:28:04Z</time>
      </trkpt>
      <trkpt lat="43.6819" lon="7.08371">
        <ele>32.9</ele>
        <time>2026-05-16T14:28:05Z</time>
      </trkpt>
      <trkpt lat="43.68197" lon="7.08385">
        <ele>32.9</ele>
        <time>2026-05-16T14:28:06Z</time>
      </trkpt>
      <trkpt lat="43.68203" lon="7.084">
        <ele>33.8</ele>
        <time>2026-05-16T14:28:07Z</time>
      </trkpt>
      <trkpt lat="43.6821" lon="7.08416">
        <ele>34.9</ele>
        <time>2026-05-16T14:28:08Z</time>
      </trkpt>
      <trkpt lat="43.68216" lon="7.08432">
        <ele>34.3</ele>
        <time>2026-05-16T14:28:09Z</time>
      </trkpt>
      <trkpt lat="43.68223" lon="7.08447">
        <ele>33.1</ele>
        <time>2026-05-16T14:28:10Z</time>
      </trkpt>
      <trkpt lat="43.68228" lon="7.08461">
        <ele>33.8</ele>
        <time>2026-05-16T14:28:11Z</time>
      </trkpt>
      <trkpt lat="43.68232" lon="7.08475">
        <ele>33.9</ele>
        <time>2026-05-16T14:28:12Z</time>
      </trkpt>
      <trkpt lat="43.68233" lon="7.08491">
        <ele>33.2</ele>
        <time>2026-05-16T14:28:13Z</time>
      </trkpt>
      <trkpt lat="43.68233" lon="7.08508">
        <ele>32.9</ele>
        <time>2026-05-16T14:28:14Z</time>
      </trkpt>
      <trkpt lat="43.68232" lon="7.08527">
        <ele>33.2</ele>
        <time>2026-05-16T14:28:15Z</time>
      </trkpt>
      <trkpt lat="43.68231" lon="7.08545">
        <ele>33.7</ele>
        <time>2026-05-16T14:28:16Z</time>
      </trkpt>
      <trkpt lat="43.6823" lon="7.08563">
        <ele>34.2</ele>
        <time>2026-05-16T14:28:17Z</time>
      </trkpt>
      <trkpt lat="43.6823" lon="7.0858">
        <ele>34.7</ele>
        <time>2026-05-16T14:28:18Z</time>
      </trkpt>
      <trkpt lat="43.68233" lon="7.08595">
        <ele>34.4</ele>
        <time>2026-05-16T14:28:19Z</time>
      </trkpt>
      <trkpt lat="43.6824" lon="7.08608">
        <ele>33.9</ele>
        <time>2026-05-16T14:28:20Z</time>
      </trkpt>
      <trkpt lat="43.68248" lon="7.08621">
        <ele>33.2</ele>
        <time>2026-05-16T14:28:21Z</time>
      </trkpt>
      <trkpt lat="43.68257" lon="7.08636">
        <ele>32.5</ele>
        <time>2026-05-16T14:28:22Z</time>
      </trkpt>
      <trkpt lat="43.68267" lon="7.0865">
        <ele>32.1</ele>
        <time>2026-05-16T14:28:23Z</time>
      </trkpt>
      <trkpt lat="43.68277" lon="7.08664">
        <ele>32</ele>
        <time>2026-05-16T14:28:24Z</time>
      </trkpt>
      <trkpt lat="43.68285" lon="7.08678">
        <ele>31.7</ele>
        <time>2026-05-16T14:28:25Z</time>
      </trkpt>
      <trkpt lat="43.68293" lon="7.08692">
        <ele>31.3</ele>
        <time>2026-05-16T14:28:26Z</time>
      </trkpt>
      <trkpt lat="43.683" lon="7.08705">
        <ele>31.3</ele>
        <time>2026-05-16T14:28:27Z</time>
      </trkpt>
      <trkpt lat="43.68306" lon="7.08718">
        <ele>31.3</ele>
        <time>2026-05-16T14:28:28Z</time>
      </trkpt>
      <trkpt lat="43.68312" lon="7.08732">
        <ele>32.6</ele>
        <time>2026-05-16T14:28:29Z</time>
      </trkpt>
      <trkpt lat="43.68317" lon="7.08746">
        <ele>33.9</ele>
        <time>2026-05-16T14:28:30Z</time>
      </trkpt>
      <trkpt lat="43.68321" lon="7.08762">
        <ele>34.5</ele>
        <time>2026-05-16T14:28:31Z</time>
      </trkpt>
      <trkpt lat="43.68324" lon="7.08778">
        <ele>34.7</ele>
        <time>2026-05-16T14:28:32Z</time>
      </trkpt>
      <trkpt lat="43.68325" lon="7.08794">
        <ele>35.3</ele>
        <time>2026-05-16T14:28:33Z</time>
      </trkpt>
      <trkpt lat="43.68325" lon="7.08811">
        <ele>36.4</ele>
        <time>2026-05-16T14:28:34Z</time>
      </trkpt>
      <trkpt lat="43.68323" lon="7.08829">
        <ele>38.2</ele>
        <time>2026-05-16T14:28:35Z</time>
      </trkpt>
      <trkpt lat="43.68322" lon="7.08847">
        <ele>39.5</ele>
        <time>2026-05-16T14:28:36Z</time>
      </trkpt>
      <trkpt lat="43.68317" lon="7.08865">
        <ele>37.7</ele>
        <time>2026-05-16T14:28:37Z</time>
      </trkpt>
      <trkpt lat="43.68312" lon="7.08883">
        <ele>35.8</ele>
        <time>2026-05-16T14:28:38Z</time>
      </trkpt>
      <trkpt lat="43.68305" lon="7.089">
        <ele>35.5</ele>
        <time>2026-05-16T14:28:39Z</time>
      </trkpt>
      <trkpt lat="43.68295" lon="7.08916">
        <ele>37.4</ele>
        <time>2026-05-16T14:28:40Z</time>
      </trkpt>
      <trkpt lat="43.68287" lon="7.08933">
        <ele>36.4</ele>
        <time>2026-05-16T14:28:41Z</time>
      </trkpt>
      <trkpt lat="43.6828" lon="7.08949">
        <ele>35.4</ele>
        <time>2026-05-16T14:28:42Z</time>
      </trkpt>
      <trkpt lat="43.68274" lon="7.08965">
        <ele>35.9</ele>
        <time>2026-05-16T14:28:43Z</time>
      </trkpt>
      <trkpt lat="43.6827" lon="7.08981">
        <ele>36.3</ele>
        <time>2026-05-16T14:28:44Z</time>
      </trkpt>
      <trkpt lat="43.68267" lon="7.08996">
        <ele>35.8</ele>
        <time>2026-05-16T14:28:45Z</time>
      </trkpt>
      <trkpt lat="43.68267" lon="7.09013">
        <ele>35.3</ele>
        <time>2026-05-16T14:28:46Z</time>
      </trkpt>
      <trkpt lat="43.68269" lon="7.0903">
        <ele>35</ele>
        <time>2026-05-16T14:28:47Z</time>
      </trkpt>
      <trkpt lat="43.68272" lon="7.09047">
        <ele>34.8</ele>
        <time>2026-05-16T14:28:48Z</time>
      </trkpt>
      <trkpt lat="43.68277" lon="7.09063">
        <ele>34.7</ele>
        <time>2026-05-16T14:28:49Z</time>
      </trkpt>
      <trkpt lat="43.68284" lon="7.09078">
        <ele>35.6</ele>
        <time>2026-05-16T14:28:50Z</time>
      </trkpt>
      <trkpt lat="43.6829" lon="7.09094">
        <ele>36</ele>
        <time>2026-05-16T14:28:51Z</time>
      </trkpt>
      <trkpt lat="43.68297" lon="7.09109">
        <ele>35.6</ele>
        <time>2026-05-16T14:28:52Z</time>
      </trkpt>
      <trkpt lat="43.68304" lon="7.09125">
        <ele>35.5</ele>
        <time>2026-05-16T14:28:53Z</time>
      </trkpt>
      <trkpt lat="43.68311" lon="7.09142">
        <ele>35.7</ele>
        <time>2026-05-16T14:28:54Z</time>
      </trkpt>
      <trkpt lat="43.68318" lon="7.09159">
        <ele>38</ele>
        <time>2026-05-16T14:28:55Z</time>
      </trkpt>
      <trkpt lat="43.68324" lon="7.09175">
        <ele>39</ele>
        <time>2026-05-16T14:28:56Z</time>
      </trkpt>
      <trkpt lat="43.68331" lon="7.09192">
        <ele>38.1</ele>
        <time>2026-05-16T14:28:57Z</time>
      </trkpt>
      <trkpt lat="43.68338" lon="7.09207">
        <ele>40.2</ele>
        <time>2026-05-16T14:28:58Z</time>
      </trkpt>
      <trkpt lat="43.68344" lon="7.09221">
        <ele>42.1</ele>
        <time>2026-05-16T14:28:59Z</time>
      </trkpt>
      <trkpt lat="43.68348" lon="7.09235">
        <ele>42.7</ele>
        <time>2026-05-16T14:29:00Z</time>
      </trkpt>
      <trkpt lat="43.68353" lon="7.09247">
        <ele>42.3</ele>
        <time>2026-05-16T14:29:01Z</time>
      </trkpt>
      <trkpt lat="43.68356" lon="7.09257">
        <ele>42.1</ele>
        <time>2026-05-16T14:29:02Z</time>
      </trkpt>
      <trkpt lat="43.68361" lon="7.09267">
        <ele>42</ele>
        <time>2026-05-16T14:29:03Z</time>
      </trkpt>
      <trkpt lat="43.68366" lon="7.09278">
        <ele>44.1</ele>
        <time>2026-05-16T14:29:04Z</time>
      </trkpt>
      <trkpt lat="43.6837" lon="7.09289">
        <ele>46</ele>
        <time>2026-05-16T14:29:05Z</time>
      </trkpt>
      <trkpt lat="43.68375" lon="7.09302">
        <ele>47.1</ele>
        <time>2026-05-16T14:29:06Z</time>
      </trkpt>
      <trkpt lat="43.68381" lon="7.09316">
        <ele>47.2</ele>
        <time>2026-05-16T14:29:07Z</time>
      </trkpt>
      <trkpt lat="43.68386" lon="7.0933">
        <ele>46.3</ele>
        <time>2026-05-16T14:29:08Z</time>
      </trkpt>
      <trkpt lat="43.68394" lon="7.09344">
        <ele>47.2</ele>
        <time>2026-05-16T14:29:09Z</time>
      </trkpt>
      <trkpt lat="43.68401" lon="7.09357">
        <ele>48</ele>
        <time>2026-05-16T14:29:10Z</time>
      </trkpt>
      <trkpt lat="43.68409" lon="7.0937">
        <ele>48.9</ele>
        <time>2026-05-16T14:29:11Z</time>
      </trkpt>
      <trkpt lat="43.68417" lon="7.09382">
        <ele>49.8</ele>
        <time>2026-05-16T14:29:12Z</time>
      </trkpt>
      <trkpt lat="43.68424" lon="7.09395">
        <ele>51</ele>
        <time>2026-05-16T14:29:13Z</time>
      </trkpt>
      <trkpt lat="43.6843" lon="7.09408">
        <ele>52.3</ele>
        <time>2026-05-16T14:29:14Z</time>
      </trkpt>
      <trkpt lat="43.68434" lon="7.09422">
        <ele>53.5</ele>
        <time>2026-05-16T14:29:15Z</time>
      </trkpt>
      <trkpt lat="43.68435" lon="7.09435">
        <ele>54.2</ele>
        <time>2026-05-16T14:29:16Z</time>
      </trkpt>
      <trkpt lat="43.68435" lon="7.0945">
        <ele>54.9</ele>
        <time>2026-05-16T14:29:17Z</time>
      </trkpt>
      <trkpt lat="43.68435" lon="7.09465">
        <ele>55.6</ele>
        <time>2026-05-16T14:29:18Z</time>
      </trkpt>
      <trkpt lat="43.68433" lon="7.09479">
        <ele>55.9</ele>
        <time>2026-05-16T14:29:19Z</time>
      </trkpt>
      <trkpt lat="43.68433" lon="7.09492">
        <ele>56.7</ele>
        <time>2026-05-16T14:29:20Z</time>
      </trkpt>
      <trkpt lat="43.68433" lon="7.09502">
        <ele>57.3</ele>
        <time>2026-05-16T14:29:21Z</time>
      </trkpt>
      <trkpt lat="43.68435" lon="7.09512">
        <ele>58.2</ele>
        <time>2026-05-16T14:29:22Z</time>
      </trkpt>
      <trkpt lat="43.68438" lon="7.0952">
        <ele>58.8</ele>
        <time>2026-05-16T14:29:23Z</time>
      </trkpt>
      <trkpt lat="43.68441" lon="7.09528">
        <ele>59</ele>
        <time>2026-05-16T14:29:24Z</time>
      </trkpt>
      <trkpt lat="43.68445" lon="7.09537">
        <ele>59.7</ele>
        <time>2026-05-16T14:29:25Z</time>
      </trkpt>
      <trkpt lat="43.68451" lon="7.09545">
        <ele>61</ele>
        <time>2026-05-16T14:29:26Z</time>
      </trkpt>
      <trkpt lat="43.68457" lon="7.09555">
        <ele>61.9</ele>
        <time>2026-05-16T14:29:27Z</time>
      </trkpt>
      <trkpt lat="43.68464" lon="7.09566">
        <ele>62.2</ele>
        <time>2026-05-16T14:29:28Z</time>
      </trkpt>
      <trkpt lat="43.68471" lon="7.09577">
        <ele>62.8</ele>
        <time>2026-05-16T14:29:29Z</time>
      </trkpt>
      <trkpt lat="43.68478" lon="7.09587">
        <ele>63.2</ele>
        <time>2026-05-16T14:29:30Z</time>
      </trkpt>
      <trkpt lat="43.68486" lon="7.09598">
        <ele>63.7</ele>
        <time>2026-05-16T14:29:31Z</time>
      </trkpt>
      <trkpt lat="43.68494" lon="7.0961">
        <ele>64.9</ele>
        <time>2026-05-16T14:29:32Z</time>
      </trkpt>
      <trkpt lat="43.68501" lon="7.09622">
        <ele>65.9</ele>
        <time>2026-05-16T14:29:33Z</time>
      </trkpt>
      <trkpt lat="43.68509" lon="7.09636">
        <ele>67.4</ele>
        <time>2026-05-16T14:29:34Z</time>
      </trkpt>
      <trkpt lat="43.68516" lon="7.09651">
        <ele>68.5</ele>
        <time>2026-05-16T14:29:35Z</time>
      </trkpt>
      <trkpt lat="43.68521" lon="7.09667">
        <ele>68.8</ele>
        <time>2026-05-16T14:29:36Z</time>
      </trkpt>
      <trkpt lat="43.68526" lon="7.09684">
        <ele>69.7</ele>
        <time>2026-05-16T14:29:37Z</time>
      </trkpt>
      <trkpt lat="43.6853" lon="7.097">
        <ele>70.9</ele>
        <time>2026-05-16T14:29:38Z</time>
      </trkpt>
      <trkpt lat="43.68533" lon="7.09716">
        <ele>72.4</ele>
        <time>2026-05-16T14:29:39Z</time>
      </trkpt>
      <trkpt lat="43.68535" lon="7.09731">
        <ele>73.1</ele>
        <time>2026-05-16T14:29:40Z</time>
      </trkpt>
      <trkpt lat="43.68538" lon="7.09746">
        <ele>73.8</ele>
        <time>2026-05-16T14:29:41Z</time>
      </trkpt>
      <trkpt lat="43.68539" lon="7.09762">
        <ele>74</ele>
        <time>2026-05-16T14:29:42Z</time>
      </trkpt>
      <trkpt lat="43.68542" lon="7.09778">
        <ele>74.6</ele>
        <time>2026-05-16T14:29:43Z</time>
      </trkpt>
      <trkpt lat="43.68544" lon="7.09794">
        <ele>74.5</ele>
        <time>2026-05-16T14:29:44Z</time>
      </trkpt>
      <trkpt lat="43.68547" lon="7.0981">
        <ele>74.4</ele>
        <time>2026-05-16T14:29:45Z</time>
      </trkpt>
      <trkpt lat="43.68549" lon="7.09824">
        <ele>74.5</ele>
        <time>2026-05-16T14:29:46Z</time>
      </trkpt>
      <trkpt lat="43.68551" lon="7.09838">
        <ele>74.7</ele>
        <time>2026-05-16T14:29:47Z</time>
      </trkpt>
      <trkpt lat="43.68553" lon="7.09851">
        <ele>74.8</ele>
        <time>2026-05-16T14:29:48Z</time>
      </trkpt>
      <trkpt lat="43.68554" lon="7.09862">
        <ele>74.9</ele>
        <time>2026-05-16T14:29:49Z</time>
      </trkpt>
      <trkpt lat="43.68556" lon="7.09873">
        <ele>75</ele>
        <time>2026-05-16T14:29:50Z</time>
      </trkpt>
      <trkpt lat="43.68557" lon="7.09883">
        <ele>75.1</ele>
        <time>2026-05-16T14:29:51Z</time>
      </trkpt>
      <trkpt lat="43.68558" lon="7.09891">
        <ele>75.2</ele>
        <time>2026-05-16T14:29:52Z</time>
      </trkpt>
      <trkpt lat="43.68556" lon="7.09899">
        <ele>75</ele>
        <time>2026-05-16T14:29:53Z</time>
      </trkpt>
      <trkpt lat="43.6855" lon="7.09904">
        <ele>75.1</ele>
        <time>2026-05-16T14:29:54Z</time>
      </trkpt>
      <trkpt lat="43.68543" lon="7.09907">
        <ele>75.3</ele>
        <time>2026-05-16T14:29:55Z</time>
      </trkpt>
      <trkpt lat="43.68534" lon="7.09908">
        <ele>75.5</ele>
        <time>2026-05-16T14:29:56Z</time>
      </trkpt>
      <trkpt lat="43.68525" lon="7.09908">
        <ele>75.9</ele>
        <time>2026-05-16T14:29:57Z</time>
      </trkpt>
      <trkpt lat="43.68516" lon="7.09909">
        <ele>76.6</ele>
        <time>2026-05-16T14:29:58Z</time>
      </trkpt>
      <trkpt lat="43.68509" lon="7.09908">
        <ele>77</ele>
        <time>2026-05-16T14:29:59Z</time>
      </trkpt>
      <trkpt lat="43.68501" lon="7.09906">
        <ele>77.5</ele>
        <time>2026-05-16T14:30:00Z</time>
      </trkpt>
      <trkpt lat="43.68493" lon="7.09901">
        <ele>79.4</ele>
        <time>2026-05-16T14:30:01Z</time>
      </trkpt>
      <trkpt lat="43.68484" lon="7.09894">
        <ele>81.1</ele>
        <time>2026-05-16T14:30:02Z</time>
      </trkpt>
      <trkpt lat="43.68475" lon="7.09887">
        <ele>82.1</ele>
        <time>2026-05-16T14:30:03Z</time>
      </trkpt>
      <trkpt lat="43.68466" lon="7.09881">
        <ele>83.3</ele>
        <time>2026-05-16T14:30:04Z</time>
      </trkpt>
      <trkpt lat="43.68456" lon="7.09876">
        <ele>85.1</ele>
        <time>2026-05-16T14:30:05Z</time>
      </trkpt>
      <trkpt lat="43.68445" lon="7.09873">
        <ele>87.4</ele>
        <time>2026-05-16T14:30:06Z</time>
      </trkpt>
      <trkpt lat="43.68434" lon="7.0987">
        <ele>89.3</ele>
        <time>2026-05-16T14:30:07Z</time>
      </trkpt>
      <trkpt lat="43.68425" lon="7.09867">
        <ele>90.9</ele>
        <time>2026-05-16T14:30:08Z</time>
      </trkpt>
      <trkpt lat="43.68418" lon="7.09856">
        <ele>90.9</ele>
        <time>2026-05-16T14:30:09Z</time>
      </trkpt>
      <trkpt lat="43.6841" lon="7.09847">
        <ele>91.4</ele>
        <time>2026-05-16T14:30:10Z</time>
      </trkpt>
      <trkpt lat="43.68403" lon="7.09837">
        <ele>91.8</ele>
        <time>2026-05-16T14:30:11Z</time>
      </trkpt>
      <trkpt lat="43.68398" lon="7.09825">
        <ele>92.5</ele>
        <time>2026-05-16T14:30:12Z</time>
      </trkpt>
      <trkpt lat="43.68392" lon="7.09813">
        <ele>94.1</ele>
        <time>2026-05-16T14:30:13Z</time>
      </trkpt>
      <trkpt lat="43.68384" lon="7.098">
        <ele>96</ele>
        <time>2026-05-16T14:30:14Z</time>
      </trkpt>
      <trkpt lat="43.68376" lon="7.09789">
        <ele>97.5</ele>
        <time>2026-05-16T14:30:15Z</time>
      </trkpt>
      <trkpt lat="43.68369" lon="7.09778">
        <ele>98.6</ele>
        <time>2026-05-16T14:30:16Z</time>
      </trkpt>
      <trkpt lat="43.68362" lon="7.09772">
        <ele>99.8</ele>
        <time>2026-05-16T14:30:17Z</time>
      </trkpt>
      <trkpt lat="43.68354" lon="7.09768">
        <ele>101</ele>
        <time>2026-05-16T14:30:18Z</time>
      </trkpt>
      <trkpt lat="43.68345" lon="7.09766">
        <ele>102.2</ele>
        <time>2026-05-16T14:30:19Z</time>
      </trkpt>
      <trkpt lat="43.68336" lon="7.09765">
        <ele>103.3</ele>
        <time>2026-05-16T14:30:20Z</time>
      </trkpt>
      <trkpt lat="43.68327" lon="7.09766">
        <ele>104</ele>
        <time>2026-05-16T14:30:21Z</time>
      </trkpt>
      <trkpt lat="43.68319" lon="7.09768">
        <ele>104.6</ele>
        <time>2026-05-16T14:30:22Z</time>
      </trkpt>
      <trkpt lat="43.68311" lon="7.09771">
        <ele>105.5</ele>
        <time>2026-05-16T14:30:23Z</time>
      </trkpt>
      <trkpt lat="43.68302" lon="7.09772">
        <ele>106.3</ele>
        <time>2026-05-16T14:30:24Z</time>
      </trkpt>
      <trkpt lat="43.68293" lon="7.09769">
        <ele>106.8</ele>
        <time>2026-05-16T14:30:25Z</time>
      </trkpt>
      <trkpt lat="43.68284" lon="7.09764">
        <ele>106.8</ele>
        <time>2026-05-16T14:30:26Z</time>
      </trkpt>
      <trkpt lat="43.68274" lon="7.09757">
        <ele>107.3</ele>
        <time>2026-05-16T14:30:27Z</time>
      </trkpt>
      <trkpt lat="43.68264" lon="7.09749">
        <ele>108.3</ele>
        <time>2026-05-16T14:30:28Z</time>
      </trkpt>
      <trkpt lat="43.68254" lon="7.09739">
        <ele>109.4</ele>
        <time>2026-05-16T14:30:29Z</time>
      </trkpt>
      <trkpt lat="43.68244" lon="7.09729">
        <ele>110.3</ele>
        <time>2026-05-16T14:30:30Z</time>
      </trkpt>
      <trkpt lat="43.68235" lon="7.0972">
        <ele>110.9</ele>
        <time>2026-05-16T14:30:31Z</time>
      </trkpt>
      <trkpt lat="43.68227" lon="7.09711">
        <ele>111.7</ele>
        <time>2026-05-16T14:30:32Z</time>
      </trkpt>
      <trkpt lat="43.68218" lon="7.09704">
        <ele>113.6</ele>
        <time>2026-05-16T14:30:33Z</time>
      </trkpt>
      <trkpt lat="43.68209" lon="7.09698">
        <ele>115.5</ele>
        <time>2026-05-16T14:30:34Z</time>
      </trkpt>
      <trkpt lat="43.68201" lon="7.09694">
        <ele>117.4</ele>
        <time>2026-05-16T14:30:35Z</time>
      </trkpt>
      <trkpt lat="43.68192" lon="7.09695">
        <ele>119.4</ele>
        <time>2026-05-16T14:30:36Z</time>
      </trkpt>
      <trkpt lat="43.68183" lon="7.09705">
        <ele>120.6</ele>
        <time>2026-05-16T14:30:37Z</time>
      </trkpt>
      <trkpt lat="43.68175" lon="7.09714">
        <ele>121.8</ele>
        <time>2026-05-16T14:30:38Z</time>
      </trkpt>
      <trkpt lat="43.68166" lon="7.09724">
        <ele>123.1</ele>
        <time>2026-05-16T14:30:39Z</time>
      </trkpt>
      <trkpt lat="43.68157" lon="7.09734">
        <ele>124.3</ele>
        <time>2026-05-16T14:30:40Z</time>
      </trkpt>
      <trkpt lat="43.68149" lon="7.09743">
        <ele>125.2</ele>
        <time>2026-05-16T14:30:41Z</time>
      </trkpt>
      <trkpt lat="43.68143" lon="7.0975">
        <ele>125.7</ele>
        <time>2026-05-16T14:30:42Z</time>
      </trkpt>
      <trkpt lat="43.68139" lon="7.09755">
        <ele>126.2</ele>
        <time>2026-05-16T14:30:43Z</time>
      </trkpt>
      <trkpt lat="43.68137" lon="7.09759">
        <ele>126.4</ele>
        <time>2026-05-16T14:30:44Z</time>
      </trkpt>
      <trkpt lat="43.68136" lon="7.09762">
        <ele>126.5</ele>
        <time>2026-05-16T14:30:45Z</time>
      </trkpt>
      <trkpt lat="43.68136" lon="7.09765">
        <ele>126.6</ele>
        <time>2026-05-16T14:30:46Z</time>
      </trkpt>
      <trkpt lat="43.68135" lon="7.09769">
        <ele>126.7</ele>
        <time>2026-05-16T14:30:47Z</time>
      </trkpt>
      <trkpt lat="43.68136" lon="7.09772">
        <ele>126.8</ele>
        <time>2026-05-16T14:30:48Z</time>
      </trkpt>
      <trkpt lat="43.68136" lon="7.09774">
        <ele>126.9</ele>
        <time>2026-05-16T14:30:49Z</time>
      </trkpt>
      <trkpt lat="43.68136" lon="7.09775">
        <ele>126.9</ele>
        <time>2026-05-16T14:30:50Z</time>
      </trkpt>
      <trkpt lat="43.68136" lon="7.09775">
        <ele>126.9</ele>
        <time>2026-05-16T14:30:51Z</time>
      </trkpt>
      <trkpt lat="43.68136" lon="7.09774">
        <ele>126.9</ele>
        <time>2026-05-16T14:30:52Z</time>
      </trkpt>
      <trkpt lat="43.68136" lon="7.09774">
        <ele>126.9</ele>
        <time>2026-05-16T14:30:53Z</time>
      </trkpt>
      <trkpt lat="43.68136" lon="7.09773">
        <ele>126.8</ele>
        <time>2026-05-16T14:30:54Z</time>
      </trkpt>
      <trkpt lat="43.68135" lon="7.09774">
        <ele>126.9</ele>
        <time>2026-05-16T14:30:55Z</time>
      </trkpt>
      <trkpt lat="43.68136" lon="7.09773">
        <ele>126.8</ele>
        <time>2026-05-16T14:30:56Z</time>
      </trkpt>
      <trkpt lat="43.68136" lon="7.09773">
        <ele>126.8</ele>
        <time>2026-05-16T14:30:57Z</time>
      </trkpt>
      <trkpt lat="43.68136" lon="7.09773">
        <ele>126.8</ele>
        <time>2026-05-16T14:30:58Z</time>
      </trkpt>
      <trkpt lat="43.68136" lon="7.09773">
        <ele>126.8</ele>
        <time>2026-05-16T14:30:59Z</time>
      </trkpt>
      <trkpt lat="43.68136" lon="7.09773">
        <ele>126.8</ele>
        <time>2026-05-16T14:31:00Z</time>
      </trkpt>
      <trkpt lat="43.68135" lon="7.09772">
        <ele>126.8</ele>
        <time>2026-05-16T14:31:01Z</time>
      </trkpt>
      <trkpt lat="43.68135" lon="7.09772">
        <ele>126.8</ele>
        <time>2026-05-16T14:31:02Z</time>
      </trkpt>
      <trkpt lat="43.68135" lon="7.09773">
        <ele>126.9</ele>
        <time>2026-05-16T14:31:03Z</time>
      </trkpt>
      <trkpt lat="43.68135" lon="7.09773">
        <ele>126.9</ele>
        <time>2026-05-16T14:31:04Z</time>
      </trkpt>
      <trkpt lat="43.68135" lon="7.09773">
        <ele>126.9</ele>
        <time>2026-05-16T14:31:05Z</time>
      </trkpt>
      <trkpt lat="43.68135" lon="7.09773">
        <ele>126.9</ele>
        <time>2026-05-16T14:31:06Z</time>
      </trkpt>
      <trkpt lat="43.68135" lon="7.09773">
        <ele>126.9</ele>
        <time>2026-05-16T14:31:07Z</time>
      </trkpt>
      <trkpt lat="43.68135" lon="7.09773">
        <ele>126.9</ele>
        <time>2026-05-16T14:31:08Z</time>
      </trkpt>
      <trkpt lat="43.68135" lon="7.09773">
        <ele>126.9</ele>
        <time>2026-05-16T14:31:09Z</time>
      </trkpt>
      <trkpt lat="43.68135" lon="7.09773">
        <ele>126.9</ele>
        <time>2026-05-16T14:31:10Z</time>
      </trkpt>
      <trkpt lat="43.68135" lon="7.09773">
        <ele>126.9</ele>
        <time>2026-05-16T14:31:11Z</time>
      </trkpt>
      <trkpt lat="43.68135" lon="7.09773">
        <ele>126.9</ele>
        <time>2026-05-16T14:31:12Z</time>
      </trkpt>
      <trkpt lat="43.68135" lon="7.09773">
        <ele>126.9</ele>
        <time>2026-05-16T14:31:13Z</time>
      </trkpt>
      <trkpt lat="43.68135" lon="7.09773">
        <ele>126.9</ele>
        <time>2026-05-16T14:31:14Z</time>
      </trkpt>
      <trkpt lat="43.68135" lon="7.09773">
        <ele>126.9</ele>
        <time>2026-05-16T14:31:15Z</time>
      </trkpt>
      <trkpt lat="43.68135" lon="7.09773">
        <ele>126.9</ele>
        <time>2026-05-16T14:31:16Z</time>
      </trkpt>
      <trkpt lat="43.68135" lon="7.09773">
        <ele>126.9</ele>
        <time>2026-05-16T14:31:17Z</time>
      </trkpt>
      <trkpt lat="43.68135" lon="7.09773">
        <ele>126.9</ele>
        <time>2026-05-16T14:31:18Z</time>
      </trkpt>
      <trkpt lat="43.68135" lon="7.09773">
        <ele>126.9</ele>
        <time>2026-05-16T14:31:19Z</time>
      </trkpt>
      <trkpt lat="43.68135" lon="7.09773">
        <ele>126.9</ele>
        <time>2026-05-16T14:31:20Z</time>
      </trkpt>
      <trkpt lat="43.68135" lon="7.09773">
        <ele>126.9</ele>
        <time>2026-05-16T14:31:21Z</time>
      </trkpt>
      <trkpt lat="43.68135" lon="7.09773">
        <ele>126.9</ele>
        <time>2026-05-16T14:31:22Z</time>
      </trkpt>
      <trkpt lat="43.68135" lon="7.09773">
        <ele>126.9</ele>
        <time>2026-05-16T14:31:23Z</time>
      </trkpt>
      <trkpt lat="43.68135" lon="7.09773">
        <ele>126.9</ele>
        <time>2026-05-16T14:31:24Z</time>
      </trkpt>
      <trkpt lat="43.68135" lon="7.09773">
        <ele>126.9</ele>
        <time>2026-05-16T14:31:25Z</time>
      </trkpt>
      <trkpt lat="43.68135" lon="7.09773">
        <ele>126.9</ele>
        <time>2026-05-16T14:31:26Z</time>
      </trkpt>
      <trkpt lat="43.68135" lon="7.09773">
        <ele>126.9</ele>
        <time>2026-05-16T14:31:27Z</time>
      </trkpt>
      <trkpt lat="43.68135" lon="7.09773">
        <ele>126.9</ele>
        <time>2026-05-16T14:31:28Z</time>
      </trkpt>
      <trkpt lat="43.68135" lon="7.09773">
        <ele>126.9</ele>
        <time>2026-05-16T14:31:29Z</time>
      </trkpt>
      <trkpt lat="43.68135" lon="7.09773">
        <ele>126.9</ele>
        <time>2026-05-16T14:31:30Z</time>
      </trkpt>
      <trkpt lat="43.68135" lon="7.09773">
        <ele>126.9</ele>
        <time>2026-05-16T14:31:31Z</time>
      </trkpt>
      <trkpt lat="43.68135" lon="7.09773">
        <ele>126.9</ele>
        <time>2026-05-16T14:31:32Z</time>
      </trkpt>
      <trkpt lat="43.68135" lon="7.09773">
        <ele>126.9</ele>
        <time>2026-05-16T14:31:33Z</time>
      </trkpt>
      <trkpt lat="43.68135" lon="7.09773">
        <ele>126.9</ele>
        <time>2026-05-16T14:31:34Z</time>
      </trkpt>
      <trkpt lat="43.68135" lon="7.09773">
        <ele>126.9</ele>
        <time>2026-05-16T14:31:35Z</time>
      </trkpt>
      <trkpt lat="43.68135" lon="7.09773">
        <ele>126.9</ele>
        <time>2026-05-16T14:31:36Z</time>
      </trkpt>
      <trkpt lat="43.68135" lon="7.09773">
        <ele>126.9</ele>
        <time>2026-05-16T14:31:37Z</time>
      </trkpt>
      <trkpt lat="43.68135" lon="7.09773">
        <ele>126.9</ele>
        <time>2026-05-16T14:31:38Z</time>
      </trkpt>
      <trkpt lat="43.68135" lon="7.09773">
        <ele>126.9</ele>
        <time>2026-05-16T14:31:39Z</time>
      </trkpt>
      <trkpt lat="43.68135" lon="7.09773">
        <ele>126.9</ele>
        <time>2026-05-16T14:31:40Z</time>
      </trkpt>
      <trkpt lat="43.68135" lon="7.09773">
        <ele>126.9</ele>
        <time>2026-05-16T14:31:41Z</time>
      </trkpt>
      <trkpt lat="43.68135" lon="7.09773">
        <ele>126.9</ele>
        <time>2026-05-16T14:31:42Z</time>
      </trkpt>
      <trkpt lat="43.68135" lon="7.09773">
        <ele>126.9</ele>
        <time>2026-05-16T14:31:43Z</time>
      </trkpt>
      <trkpt lat="43.68135" lon="7.09773">
        <ele>126.9</ele>
        <time>2026-05-16T14:31:44Z</time>
      </trkpt>
      <trkpt lat="43.68135" lon="7.09773">
        <ele>126.9</ele>
        <time>2026-05-16T14:31:45Z</time>
      </trkpt>
      <trkpt lat="43.68135" lon="7.09773">
        <ele>126.9</ele>
        <time>2026-05-16T14:31:46Z</time>
      </trkpt>
      <trkpt lat="43.68135" lon="7.09773">
        <ele>126.9</ele>
        <time>2026-05-16T14:31:47Z</time>
      </trkpt>
      <trkpt lat="43.68135" lon="7.09773">
        <ele>126.9</ele>
        <time>2026-05-16T14:31:48Z</time>
      </trkpt>
      <trkpt lat="43.68135" lon="7.09773">
        <ele>126.9</ele>
        <time>2026-05-16T14:31:49Z</time>
      </trkpt>
      <trkpt lat="43.68135" lon="7.09773">
        <ele>126.9</ele>
        <time>2026-05-16T14:31:50Z</time>
      </trkpt>
      <trkpt lat="43.68135" lon="7.09773">
        <ele>126.9</ele>
        <time>2026-05-16T14:31:51Z</time>
      </trkpt>
      <trkpt lat="43.68135" lon="7.09773">
        <ele>126.9</ele>
        <time>2026-05-16T14:31:52Z</time>
      </trkpt>
      <trkpt lat="43.68135" lon="7.09773">
        <ele>126.9</ele>
        <time>2026-05-16T14:31:53Z</time>
      </trkpt>
      <trkpt lat="43.68135" lon="7.09773">
        <ele>126.9</ele>
        <time>2026-05-16T14:31:54Z</time>
      </trkpt>
      <trkpt lat="43.68135" lon="7.09773">
        <ele>126.9</ele>
        <time>2026-05-16T14:31:55Z</time>
      </trkpt>
      <trkpt lat="43.68135" lon="7.09773">
        <ele>126.9</ele>
        <time>2026-05-16T14:31:56Z</time>
      </trkpt>
      <trkpt lat="43.68135" lon="7.09773">
        <ele>126.9</ele>
        <time>2026-05-16T14:31:57Z</time>
      </trkpt>
      <trkpt lat="43.68135" lon="7.09773">
        <ele>126.9</ele>
        <time>2026-05-16T14:31:58Z</time>
      </trkpt>
      <trkpt lat="43.68135" lon="7.09773">
        <ele>126.9</ele>
        <time>2026-05-16T14:31:59Z</time>
      </trkpt>
      <trkpt lat="43.68135" lon="7.09773">
        <ele>126.9</ele>
        <time>2026-05-16T14:32:00Z</time>
      </trkpt>
      <trkpt lat="43.68135" lon="7.09773">
        <ele>126.9</ele>
        <time>2026-05-16T14:32:01Z</time>
      </trkpt>
      <trkpt lat="43.68135" lon="7.09773">
        <ele>126.9</ele>
        <time>2026-05-16T14:32:02Z</time>
      </trkpt>
      <trkpt lat="43.68135" lon="7.09773">
        <ele>126.9</ele>
        <time>2026-05-16T14:32:03Z</time>
      </trkpt>
      <trkpt lat="43.68135" lon="7.09773">
        <ele>126.9</ele>
        <time>2026-05-16T14:32:04Z</time>
      </trkpt>
      <trkpt lat="43.68135" lon="7.09773">
        <ele>126.9</ele>
        <time>2026-05-16T14:32:05Z</time>
      </trkpt>
      <trkpt lat="43.68135" lon="7.09773">
        <ele>126.9</ele>
        <time>2026-05-16T14:32:06Z</time>
      </trkpt>
      <trkpt lat="43.68135" lon="7.09773">
        <ele>126.9</ele>
        <time>2026-05-16T14:32:07Z</time>
      </trkpt>
      <trkpt lat="43.68135" lon="7.09773">
        <ele>126.9</ele>
        <time>2026-05-16T14:32:08Z</time>
      </trkpt>
      <trkpt lat="43.68135" lon="7.09773">
        <ele>126.9</ele>
        <time>2026-05-16T14:32:09Z</time>
      </trkpt>
      <trkpt lat="43.68135" lon="7.09773">
        <ele>126.9</ele>
        <time>2026-05-16T14:32:10Z</time>
      </trkpt>
      <trkpt lat="43.68135" lon="7.09773">
        <ele>126.9</ele>
        <time>2026-05-16T14:32:11Z</time>
      </trkpt>
      <trkpt lat="43.68135" lon="7.09773">
        <ele>126.9</ele>
        <time>2026-05-16T14:32:12Z</time>
      </trkpt>
      <trkpt lat="43.68135" lon="7.09773">
        <ele>126.9</ele>
        <time>2026-05-16T14:32:13Z</time>
      </trkpt>
      <trkpt lat="43.68135" lon="7.09773">
        <ele>126.9</ele>
        <time>2026-05-16T14:32:14Z</time>
      </trkpt>
      <trkpt lat="43.68135" lon="7.09773">
        <ele>126.9</ele>
        <time>2026-05-16T14:32:15Z</time>
      </trkpt>
      <trkpt lat="43.68135" lon="7.09773">
        <ele>126.9</ele>
        <time>2026-05-16T14:32:16Z</time>
      </trkpt>
      <trkpt lat="43.68135" lon="7.09773">
        <ele>126.9</ele>
        <time>2026-05-16T14:32:17Z</time>
      </trkpt>
      <trkpt lat="43.68135" lon="7.09773">
        <ele>126.9</ele>
        <time>2026-05-16T14:32:18Z</time>
      </trkpt>
      <trkpt lat="43.68135" lon="7.09773">
        <ele>126.9</ele>
        <time>2026-05-16T14:32:19Z</time>
      </trkpt>
      <trkpt lat="43.68135" lon="7.09773">
        <ele>126.9</ele>
        <time>2026-05-16T14:32:20Z</time>
      </trkpt>
      <trkpt lat="43.68135" lon="7.09773">
        <ele>126.9</ele>
        <time>2026-05-16T14:32:21Z</time>
      </trkpt>
      <trkpt lat="43.68135" lon="7.09773">
        <ele>126.9</ele>
        <time>2026-05-16T14:32:22Z</time>
      </trkpt>
      <trkpt lat="43.68135" lon="7.09773">
        <ele>126.9</ele>
        <time>2026-05-16T14:32:23Z</time>
      </trkpt>
      <trkpt lat="43.68135" lon="7.09773">
        <ele>126.9</ele>
        <time>2026-05-16T14:32:24Z</time>
      </trkpt>
      <trkpt lat="43.68135" lon="7.09773">
        <ele>126.9</ele>
        <time>2026-05-16T14:32:25Z</time>
      </trkpt>
      <trkpt lat="43.68135" lon="7.09773">
        <ele>126.9</ele>
        <time>2026-05-16T14:32:26Z</time>
      </trkpt>
      <trkpt lat="43.68135" lon="7.09773">
        <ele>126.9</ele>
        <time>2026-05-16T14:32:27Z</time>
      </trkpt>
      <trkpt lat="43.68135" lon="7.09773">
        <ele>126.9</ele>
        <time>2026-05-16T14:32:28Z</time>
      </trkpt>
      <trkpt lat="43.68135" lon="7.09773">
        <ele>126.9</ele>
        <time>2026-05-16T14:32:29Z</time>
      </trkpt>
      <trkpt lat="43.68135" lon="7.09773">
        <ele>126.9</ele>
        <time>2026-05-16T14:32:30Z</time>
      </trkpt>
      <trkpt lat="43.68135" lon="7.09773">
        <ele>126.9</ele>
        <time>2026-05-16T14:32:31Z</time>
      </trkpt>
      <trkpt lat="43.68135" lon="7.09773">
        <ele>126.9</ele>
        <time>2026-05-16T14:32:32Z</time>
      </trkpt>
      <trkpt lat="43.68135" lon="7.09773">
        <ele>126.9</ele>
        <time>2026-05-16T14:32:33Z</time>
      </trkpt>
      <trkpt lat="43.68135" lon="7.09773">
        <ele>126.9</ele>
        <time>2026-05-16T14:32:34Z</time>
      </trkpt>
      <trkpt lat="43.68135" lon="7.09773">
        <ele>126.9</ele>
        <time>2026-05-16T14:32:35Z</time>
      </trkpt>
      <trkpt lat="43.68135" lon="7.09773">
        <ele>126.9</ele>
        <time>2026-05-16T14:32:36Z</time>
      </trkpt>
      <trkpt lat="43.68135" lon="7.09773">
        <ele>126.9</ele>
        <time>2026-05-16T14:32:37Z</time>
      </trkpt>
      <trkpt lat="43.68135" lon="7.09773">
        <ele>126.9</ele>
        <time>2026-05-16T14:32:38Z</time>
      </trkpt>
      <trkpt lat="43.68135" lon="7.09773">
        <ele>126.9</ele>
        <time>2026-05-16T14:32:39Z</time>
      </trkpt>
      <trkpt lat="43.68135" lon="7.09773">
        <ele>126.9</ele>
        <time>2026-05-16T14:32:40Z</time>
      </trkpt>
      <trkpt lat="43.68135" lon="7.09773">
        <ele>126.9</ele>
        <time>2026-05-16T14:32:41Z</time>
      </trkpt>
      <trkpt lat="43.68135" lon="7.09773">
        <ele>126.9</ele>
        <time>2026-05-16T14:32:42Z</time>
      </trkpt>
      <trkpt lat="43.68135" lon="7.09773">
        <ele>126.9</ele>
        <time>2026-05-16T14:32:43Z</time>
      </trkpt>
      <trkpt lat="43.68135" lon="7.09773">
        <ele>126.9</ele>
        <time>2026-05-16T14:32:44Z</time>
      </trkpt>
      <trkpt lat="43.68135" lon="7.09773">
        <ele>126.9</ele>
        <time>2026-05-16T14:32:45Z</time>
      </trkpt>
      <trkpt lat="43.68135" lon="7.09773">
        <ele>126.9</ele>
        <time>2026-05-16T14:32:46Z</time>
      </trkpt>
      <trkpt lat="43.68135" lon="7.09773">
        <ele>126.9</ele>
        <time>2026-05-16T14:32:47Z</time>
      </trkpt>
      <trkpt lat="43.68135" lon="7.09773">
        <ele>126.9</ele>
        <time>2026-05-16T14:32:48Z</time>
      </trkpt>
      <trkpt lat="43.68135" lon="7.09773">
        <ele>126.9</ele>
        <time>2026-05-16T14:32:49Z</time>
      </trkpt>
      <trkpt lat="43.68135" lon="7.09773">
        <ele>126.9</ele>
        <time>2026-05-16T14:32:50Z</time>
      </trkpt>
      <trkpt lat="43.68135" lon="7.09773">
        <ele>126.9</ele>
        <time>2026-05-16T14:32:51Z</time>
      </trkpt>
      <trkpt lat="43.68135" lon="7.09773">
        <ele>126.9</ele>
        <time>2026-05-16T14:32:52Z</time>
      </trkpt>
      <trkpt lat="43.68135" lon="7.09773">
        <ele>126.9</ele>
        <time>2026-05-16T14:32:53Z</time>
      </trkpt>
      <trkpt lat="43.68135" lon="7.09773">
        <ele>126.9</ele>
        <time>2026-05-16T14:32:54Z</time>
      </trkpt>
      <trkpt lat="43.68135" lon="7.09773">
        <ele>126.9</ele>
        <time>2026-05-16T14:32:55Z</time>
      </trkpt>
      <trkpt lat="43.68135" lon="7.09773">
        <ele>126.9</ele>
        <time>2026-05-16T14:32:56Z</time>
      </trkpt>
      <trkpt lat="43.68135" lon="7.09773">
        <ele>126.9</ele>
        <time>2026-05-16T14:32:57Z</time>
      </trkpt>
      <trkpt lat="43.68135" lon="7.09773">
        <ele>126.9</ele>
        <time>2026-05-16T14:32:58Z</time>
      </trkpt>
      <trkpt lat="43.68135" lon="7.09773">
        <ele>126.9</ele>
        <time>2026-05-16T14:32:59Z</time>
      </trkpt>
      <trkpt lat="43.68135" lon="7.09773">
        <ele>126.9</ele>
        <time>2026-05-16T14:33:00Z</time>
      </trkpt>
      <trkpt lat="43.68135" lon="7.09773">
        <ele>126.9</ele>
        <time>2026-05-16T14:33:01Z</time>
      </trkpt>
      <trkpt lat="43.68135" lon="7.09773">
        <ele>126.9</ele>
        <time>2026-05-16T14:33:02Z</time>
      </trkpt>
      <trkpt lat="43.68135" lon="7.09773">
        <ele>126.9</ele>
        <time>2026-05-16T14:33:03Z</time>
      </trkpt>
      <trkpt lat="43.68135" lon="7.09773">
        <ele>126.9</ele>
        <time>2026-05-16T14:33:04Z</time>
      </trkpt>
      <trkpt lat="43.68135" lon="7.09773">
        <ele>126.9</ele>
        <time>2026-05-16T14:33:05Z</time>
      </trkpt>
      <trkpt lat="43.68135" lon="7.09773">
        <ele>126.9</ele>
        <time>2026-05-16T14:33:06Z</time>
      </trkpt>
      <trkpt lat="43.68135" lon="7.09773">
        <ele>126.9</ele>
        <time>2026-05-16T14:33:07Z</time>
      </trkpt>
      <trkpt lat="43.68135" lon="7.09773">
        <ele>126.9</ele>
        <time>2026-05-16T14:33:08Z</time>
      </trkpt>
      <trkpt lat="43.68135" lon="7.09773">
        <ele>126.9</ele>
        <time>2026-05-16T14:33:09Z</time>
      </trkpt>
      <trkpt lat="43.68135" lon="7.09773">
        <ele>126.9</ele>
        <time>2026-05-16T14:33:10Z</time>
      </trkpt>
      <trkpt lat="43.68135" lon="7.09773">
        <ele>126.9</ele>
        <time>2026-05-16T14:33:11Z</time>
      </trkpt>
      <trkpt lat="43.68135" lon="7.09773">
        <ele>126.9</ele>
        <time>2026-05-16T14:33:12Z</time>
      </trkpt>
      <trkpt lat="43.68135" lon="7.09773">
        <ele>126.9</ele>
        <time>2026-05-16T14:33:13Z</time>
      </trkpt>
      <trkpt lat="43.68135" lon="7.09773">
        <ele>126.9</ele>
        <time>2026-05-16T14:33:14Z</time>
      </trkpt>
      <trkpt lat="43.68135" lon="7.09773">
        <ele>126.9</ele>
        <time>2026-05-16T14:33:15Z</time>
      </trkpt>
      <trkpt lat="43.68135" lon="7.09773">
        <ele>126.9</ele>
        <time>2026-05-16T14:33:16Z</time>
      </trkpt>
      <trkpt lat="43.68135" lon="7.09773">
        <ele>126.9</ele>
        <time>2026-05-16T14:33:17Z</time>
      </trkpt>
      <trkpt lat="43.68135" lon="7.09773">
        <ele>126.9</ele>
        <time>2026-05-16T14:33:18Z</time>
      </trkpt>
      <trkpt lat="43.68135" lon="7.09773">
        <ele>126.9</ele>
        <time>2026-05-16T14:33:19Z</time>
      </trkpt>
      <trkpt lat="43.68135" lon="7.09773">
        <ele>126.9</ele>
        <time>2026-05-16T14:33:20Z</time>
      </trkpt>
      <trkpt lat="43.68135" lon="7.09773">
        <ele>126.9</ele>
        <time>2026-05-16T14:33:21Z</time>
      </trkpt>
      <trkpt lat="43.68135" lon="7.09773">
        <ele>126.9</ele>
        <time>2026-05-16T14:33:22Z</time>
      </trkpt>
      <trkpt lat="43.68135" lon="7.09773">
        <ele>126.9</ele>
        <time>2026-05-16T14:33:23Z</time>
      </trkpt>
      <trkpt lat="43.68135" lon="7.09773">
        <ele>126.9</ele>
        <time>2026-05-16T14:33:24Z</time>
      </trkpt>
      <trkpt lat="43.68135" lon="7.09773">
        <ele>126.9</ele>
        <time>2026-05-16T14:33:25Z</time>
      </trkpt>
      <trkpt lat="43.68135" lon="7.09773">
        <ele>126.9</ele>
        <time>2026-05-16T14:33:26Z</time>
      </trkpt>
      <trkpt lat="43.68135" lon="7.09773">
        <ele>126.9</ele>
        <time>2026-05-16T14:33:27Z</time>
      </trkpt>
      <trkpt lat="43.68135" lon="7.09773">
        <ele>126.9</ele>
        <time>2026-05-16T14:33:28Z</time>
      </trkpt>
      <trkpt lat="43.68135" lon="7.09773">
        <ele>126.9</ele>
        <time>2026-05-16T14:33:29Z</time>
      </trkpt>
      <trkpt lat="43.68135" lon="7.09773">
        <ele>126.9</ele>
        <time>2026-05-16T14:33:30Z</time>
      </trkpt>
      <trkpt lat="43.68135" lon="7.09773">
        <ele>126.9</ele>
        <time>2026-05-16T14:33:31Z</time>
      </trkpt>
      <trkpt lat="43.68135" lon="7.09773">
        <ele>126.9</ele>
        <time>2026-05-16T14:33:32Z</time>
      </trkpt>
      <trkpt lat="43.68135" lon="7.09773">
        <ele>126.9</ele>
        <time>2026-05-16T14:33:33Z</time>
      </trkpt>
      <trkpt lat="43.68135" lon="7.09773">
        <ele>126.9</ele>
        <time>2026-05-16T14:33:34Z</time>
      </trkpt>
      <trkpt lat="43.68135" lon="7.09773">
        <ele>126.9</ele>
        <time>2026-05-16T14:33:35Z</time>
      </trkpt>
      <trkpt lat="43.68135" lon="7.09773">
        <ele>126.9</ele>
        <time>2026-05-16T14:33:36Z</time>
      </trkpt>
      <trkpt lat="43.68135" lon="7.09773">
        <ele>126.9</ele>
        <time>2026-05-16T14:33:37Z</time>
      </trkpt>
      <trkpt lat="43.68135" lon="7.09773">
        <ele>126.9</ele>
        <time>2026-05-16T14:33:38Z</time>
      </trkpt>
      <trkpt lat="43.68135" lon="7.09773">
        <ele>126.9</ele>
        <time>2026-05-16T14:33:39Z</time>
      </trkpt>
      <trkpt lat="43.68135" lon="7.09773">
        <ele>126.9</ele>
        <time>2026-05-16T14:33:40Z</time>
      </trkpt>
      <trkpt lat="43.68135" lon="7.09773">
        <ele>126.9</ele>
        <time>2026-05-16T14:33:41Z</time>
      </trkpt>
      <trkpt lat="43.68135" lon="7.09773">
        <ele>126.9</ele>
        <time>2026-05-16T14:33:42Z</time>
      </trkpt>
      <trkpt lat="43.68135" lon="7.09773">
        <ele>126.9</ele>
        <time>2026-05-16T14:33:43Z</time>
      </trkpt>
      <trkpt lat="43.68135" lon="7.09773">
        <ele>126.9</ele>
        <time>2026-05-16T14:33:44Z</time>
      </trkpt>
      <trkpt lat="43.68135" lon="7.09773">
        <ele>126.9</ele>
        <time>2026-05-16T14:33:45Z</time>
      </trkpt>
      <trkpt lat="43.68135" lon="7.09773">
        <ele>126.9</ele>
        <time>2026-05-16T14:33:46Z</time>
      </trkpt>
      <trkpt lat="43.68135" lon="7.09773">
        <ele>126.9</ele>
        <time>2026-05-16T14:33:47Z</time>
      </trkpt>
      <trkpt lat="43.68135" lon="7.09773">
        <ele>126.9</ele>
        <time>2026-05-16T14:33:48Z</time>
      </trkpt>
      <trkpt lat="43.68135" lon="7.09773">
        <ele>126.9</ele>
        <time>2026-05-16T14:33:49Z</time>
      </trkpt>
      <trkpt lat="43.68135" lon="7.09773">
        <ele>126.9</ele>
        <time>2026-05-16T14:33:50Z</time>
      </trkpt>
      <trkpt lat="43.68135" lon="7.09773">
        <ele>126.9</ele>
        <time>2026-05-16T14:33:51Z</time>
      </trkpt>
      <trkpt lat="43.68135" lon="7.09773">
        <ele>126.9</ele>
        <time>2026-05-16T14:33:52Z</time>
      </trkpt>
      <trkpt lat="43.68135" lon="7.09773">
        <ele>126.9</ele>
        <time>2026-05-16T14:33:53Z</time>
      </trkpt>
      <trkpt lat="43.68135" lon="7.09773">
        <ele>126.9</ele>
        <time>2026-05-16T14:33:54Z</time>
      </trkpt>
      <trkpt lat="43.68135" lon="7.09773">
        <ele>126.9</ele>
        <time>2026-05-16T14:33:55Z</time>
      </trkpt>
      <trkpt lat="43.68135" lon="7.09773">
        <ele>126.9</ele>
        <time>2026-05-16T14:33:56Z</time>
      </trkpt>
      <trkpt lat="43.68135" lon="7.09773">
        <ele>126.9</ele>
        <time>2026-05-16T14:33:57Z</time>
      </trkpt>
      <trkpt lat="43.68135" lon="7.09773">
        <ele>126.9</ele>
        <time>2026-05-16T14:33:58Z</time>
      </trkpt>
      <trkpt lat="43.68135" lon="7.09773">
        <ele>126.9</ele>
        <time>2026-05-16T14:33:59Z</time>
      </trkpt>
      <trkpt lat="43.68135" lon="7.09773">
        <ele>126.9</ele>
        <time>2026-05-16T14:34:00Z</time>
      </trkpt>
      <trkpt lat="43.68135" lon="7.09773">
        <ele>126.9</ele>
        <time>2026-05-16T14:34:01Z</time>
      </trkpt>
      <trkpt lat="43.68135" lon="7.09773">
        <ele>126.9</ele>
        <time>2026-05-16T14:34:02Z</time>
      </trkpt>
      <trkpt lat="43.68134" lon="7.09777">
        <ele>127</ele>
        <time>2026-05-16T14:34:03Z</time>
      </trkpt>
      <trkpt lat="43.68133" lon="7.09786">
        <ele>127.6</ele>
        <time>2026-05-16T14:34:04Z</time>
      </trkpt>
      <trkpt lat="43.68132" lon="7.09796">
        <ele>128.3</ele>
        <time>2026-05-16T14:34:05Z</time>
      </trkpt>
      <trkpt lat="43.68131" lon="7.09807">
        <ele>129.1</ele>
        <time>2026-05-16T14:34:06Z</time>
      </trkpt>
      <trkpt lat="43.68129" lon="7.09818">
        <ele>129.7</ele>
        <time>2026-05-16T14:34:07Z</time>
      </trkpt>
      <trkpt lat="43.68126" lon="7.09828">
        <ele>130.2</ele>
        <time>2026-05-16T14:34:08Z</time>
      </trkpt>
      <trkpt lat="43.68124" lon="7.09837">
        <ele>130.7</ele>
        <time>2026-05-16T14:34:09Z</time>
      </trkpt>
      <trkpt lat="43.68123" lon="7.09848">
        <ele>131.5</ele>
        <time>2026-05-16T14:34:10Z</time>
      </trkpt>
      <trkpt lat="43.68121" lon="7.09859">
        <ele>132.2</ele>
        <time>2026-05-16T14:34:11Z</time>
      </trkpt>
      <trkpt lat="43.6812" lon="7.0987">
        <ele>132.5</ele>
        <time>2026-05-16T14:34:12Z</time>
      </trkpt>
      <trkpt lat="43.68117" lon="7.09877">
        <ele>132.5</ele>
        <time>2026-05-16T14:34:13Z</time>
      </trkpt>
      <trkpt lat="43.68114" lon="7.09884">
        <ele>132.3</ele>
        <time>2026-05-16T14:34:14Z</time>
      </trkpt>
      <trkpt lat="43.68109" lon="7.09889">
        <ele>131.9</ele>
        <time>2026-05-16T14:34:15Z</time>
      </trkpt>
      <trkpt lat="43.68105" lon="7.09894">
        <ele>132</ele>
        <time>2026-05-16T14:34:16Z</time>
      </trkpt>
      <trkpt lat="43.68101" lon="7.09898">
        <ele>131.8</ele>
        <time>2026-05-16T14:34:17Z</time>
      </trkpt>
      <trkpt lat="43.68098" lon="7.09901">
        <ele>131.6</ele>
        <time>2026-05-16T14:34:18Z</time>
      </trkpt>
      <trkpt lat="43.68096" lon="7.09904">
        <ele>131.4</ele>
        <time>2026-05-16T14:34:19Z</time>
      </trkpt>
      <trkpt lat="43.68094" lon="7.09907">
        <ele>131.1</ele>
        <time>2026-05-16T14:34:20Z</time>
      </trkpt>
      <trkpt lat="43.68093" lon="7.09909">
        <ele>130.9</ele>
        <time>2026-05-16T14:34:21Z</time>
      </trkpt>
      <trkpt lat="43.68092" lon="7.0991">
        <ele>130.7</ele>
        <time>2026-05-16T14:34:22Z</time>
      </trkpt>
      <trkpt lat="43.68091" lon="7.09911">
        <ele>130.6</ele>
        <time>2026-05-16T14:34:23Z</time>
      </trkpt>
      <trkpt lat="43.6809" lon="7.09912">
        <ele>130.4</ele>
        <time>2026-05-16T14:34:24Z</time>
      </trkpt>
      <trkpt lat="43.68089" lon="7.09914">
        <ele>130.1</ele>
        <time>2026-05-16T14:34:25Z</time>
      </trkpt>
      <trkpt lat="43.68089" lon="7.09915">
        <ele>130.1</ele>
        <time>2026-05-16T14:34:26Z</time>
      </trkpt>
      <trkpt lat="43.68089" lon="7.09915">
        <ele>130.1</ele>
        <time>2026-05-16T14:34:27Z</time>
      </trkpt>
      <trkpt lat="43.68088" lon="7.09916">
        <ele>129.9</ele>
        <time>2026-05-16T14:34:28Z</time>
      </trkpt>
      <trkpt lat="43.68087" lon="7.09917">
        <ele>129.7</ele>
        <time>2026-05-16T14:34:29Z</time>
      </trkpt>
      <trkpt lat="43.68087" lon="7.09917">
        <ele>129.7</ele>
        <time>2026-05-16T14:34:30Z</time>
      </trkpt>
      <trkpt lat="43.68086" lon="7.09918">
        <ele>129.5</ele>
        <time>2026-05-16T14:34:31Z</time>
      </trkpt>
      <trkpt lat="43.68086" lon="7.09919">
        <ele>129.5</ele>
        <time>2026-05-16T14:34:32Z</time>
      </trkpt>
      <trkpt lat="43.68086" lon="7.0992">
        <ele>129.5</ele>
        <time>2026-05-16T14:34:33Z</time>
      </trkpt>
      <trkpt lat="43.68087" lon="7.09921">
        <ele>129.7</ele>
        <time>2026-05-16T14:34:34Z</time>
      </trkpt>
      <trkpt lat="43.68087" lon="7.09922">
        <ele>129.7</ele>
        <time>2026-05-16T14:34:35Z</time>
      </trkpt>
      <trkpt lat="43.68088" lon="7.09922">
        <ele>129.8</ele>
        <time>2026-05-16T14:34:36Z</time>
      </trkpt>
      <trkpt lat="43.68088" lon="7.09921">
        <ele>129.8</ele>
        <time>2026-05-16T14:34:37Z</time>
      </trkpt>
      <trkpt lat="43.68087" lon="7.09921">
        <ele>129.7</ele>
        <time>2026-05-16T14:34:38Z</time>
      </trkpt>
      <trkpt lat="43.68087" lon="7.0992">
        <ele>129.7</ele>
        <time>2026-05-16T14:34:39Z</time>
      </trkpt>
      <trkpt lat="43.68087" lon="7.09919">
        <ele>129.7</ele>
        <time>2026-05-16T14:34:40Z</time>
      </trkpt>
      <trkpt lat="43.68087" lon="7.09919">
        <ele>129.7</ele>
        <time>2026-05-16T14:34:41Z</time>
      </trkpt>
      <trkpt lat="43.68087" lon="7.09919">
        <ele>129.7</ele>
        <time>2026-05-16T14:34:42Z</time>
      </trkpt>
      <trkpt lat="43.68086" lon="7.09919">
        <ele>129.5</ele>
        <time>2026-05-16T14:34:43Z</time>
      </trkpt>
      <trkpt lat="43.68086" lon="7.09918">
        <ele>129.5</ele>
        <time>2026-05-16T14:34:44Z</time>
      </trkpt>
      <trkpt lat="43.68085" lon="7.09918">
        <ele>129.3</ele>
        <time>2026-05-16T14:34:45Z</time>
      </trkpt>
      <trkpt lat="43.68085" lon="7.09918">
        <ele>129.3</ele>
        <time>2026-05-16T14:34:46Z</time>
      </trkpt>
      <trkpt lat="43.68084" lon="7.09918">
        <ele>129.1</ele>
        <time>2026-05-16T14:34:47Z</time>
      </trkpt>
      <trkpt lat="43.68084" lon="7.09918">
        <ele>129.1</ele>
        <time>2026-05-16T14:34:48Z</time>
      </trkpt>
      <trkpt lat="43.68084" lon="7.09919">
        <ele>129.1</ele>
        <time>2026-05-16T14:34:49Z</time>
      </trkpt>
      <trkpt lat="43.68084" lon="7.09918">
        <ele>129.1</ele>
        <time>2026-05-16T14:34:50Z</time>
      </trkpt>
      <trkpt lat="43.68085" lon="7.09917">
        <ele>129.3</ele>
        <time>2026-05-16T14:34:51Z</time>
      </trkpt>
      <trkpt lat="43.68086" lon="7.09915">
        <ele>129.6</ele>
        <time>2026-05-16T14:34:52Z</time>
      </trkpt>
      <trkpt lat="43.68087" lon="7.09913">
        <ele>129.9</ele>
        <time>2026-05-16T14:34:53Z</time>
      </trkpt>
      <trkpt lat="43.68088" lon="7.0991">
        <ele>130.2</ele>
        <time>2026-05-16T14:34:54Z</time>
      </trkpt>
      <trkpt lat="43.68089" lon="7.09909">
        <ele>130.3</ele>
        <time>2026-05-16T14:34:55Z</time>
      </trkpt>
      <trkpt lat="43.6809" lon="7.09908">
        <ele>130.5</ele>
        <time>2026-05-16T14:34:56Z</time>
      </trkpt>
      <trkpt lat="43.6809" lon="7.09908">
        <ele>130.5</ele>
        <time>2026-05-16T14:34:57Z</time>
      </trkpt>
      <trkpt lat="43.6809" lon="7.09908">
        <ele>130.5</ele>
        <time>2026-05-16T14:34:58Z</time>
      </trkpt>
      <trkpt lat="43.68089" lon="7.09908">
        <ele>130.4</ele>
        <time>2026-05-16T14:34:59Z</time>
      </trkpt>
      <trkpt lat="43.68089" lon="7.09908">
        <ele>130.4</ele>
        <time>2026-05-16T14:35:00Z</time>
      </trkpt>
      <trkpt lat="43.68089" lon="7.09909">
        <ele>130.3</ele>
        <time>2026-05-16T14:35:01Z</time>
      </trkpt>
      <trkpt lat="43.68088" lon="7.09909">
        <ele>130.2</ele>
        <time>2026-05-16T14:35:02Z</time>
      </trkpt>
      <trkpt lat="43.68088" lon="7.09909">
        <ele>130.2</ele>
        <time>2026-05-16T14:35:03Z</time>
      </trkpt>
      <trkpt lat="43.68088" lon="7.09909">
        <ele>130.2</ele>
        <time>2026-05-16T14:35:04Z</time>
      </trkpt>
      <trkpt lat="43.68087" lon="7.09909">
        <ele>130.1</ele>
        <time>2026-05-16T14:35:05Z</time>
      </trkpt>
      <trkpt lat="43.68087" lon="7.09909">
        <ele>130.1</ele>
        <time>2026-05-16T14:35:06Z</time>
      </trkpt>
      <trkpt lat="43.68087" lon="7.09909">
        <ele>130.1</ele>
        <time>2026-05-16T14:35:07Z</time>
      </trkpt>
      <trkpt lat="43.68088" lon="7.0991">
        <ele>130.2</ele>
        <time>2026-05-16T14:35:08Z</time>
      </trkpt>
      <trkpt lat="43.68088" lon="7.0991">
        <ele>130.2</ele>
        <time>2026-05-16T14:35:09Z</time>
      </trkpt>
      <trkpt lat="43.68089" lon="7.09909">
        <ele>130.3</ele>
        <time>2026-05-16T14:35:10Z</time>
      </trkpt>
      <trkpt lat="43.68089" lon="7.09909">
        <ele>130.3</ele>
        <time>2026-05-16T14:35:11Z</time>
      </trkpt>
      <trkpt lat="43.68089" lon="7.0991">
        <ele>130.3</ele>
        <time>2026-05-16T14:35:12Z</time>
      </trkpt>
      <trkpt lat="43.68089" lon="7.0991">
        <ele>130.3</ele>
        <time>2026-05-16T14:35:13Z</time>
      </trkpt>
      <trkpt lat="43.68088" lon="7.0991">
        <ele>130.2</ele>
        <time>2026-05-16T14:35:14Z</time>
      </trkpt>
      <trkpt lat="43.68088" lon="7.09909">
        <ele>130.2</ele>
        <time>2026-05-16T14:35:15Z</time>
      </trkpt>
      <trkpt lat="43.68088" lon="7.09909">
        <ele>130.2</ele>
        <time>2026-05-16T14:35:16Z</time>
      </trkpt>
      <trkpt lat="43.68088" lon="7.09909">
        <ele>130.2</ele>
        <time>2026-05-16T14:35:17Z</time>
      </trkpt>
      <trkpt lat="43.68088" lon="7.09909">
        <ele>130.2</ele>
        <time>2026-05-16T14:35:18Z</time>
      </trkpt>
      <trkpt lat="43.68088" lon="7.09909">
        <ele>130.2</ele>
        <time>2026-05-16T14:35:19Z</time>
      </trkpt>
      <trkpt lat="43.68088" lon="7.09909">
        <ele>130.2</ele>
        <time>2026-05-16T14:35:20Z</time>
      </trkpt>
      <trkpt lat="43.68088" lon="7.09909">
        <ele>130.2</ele>
        <time>2026-05-16T14:35:21Z</time>
      </trkpt>
      <trkpt lat="43.68088" lon="7.09908">
        <ele>130.3</ele>
        <time>2026-05-16T14:35:22Z</time>
      </trkpt>
      <trkpt lat="43.68087" lon="7.09908">
        <ele>130.1</ele>
        <time>2026-05-16T14:35:23Z</time>
      </trkpt>
      <trkpt lat="43.68087" lon="7.09908">
        <ele>130.1</ele>
        <time>2026-05-16T14:35:24Z</time>
      </trkpt>
      <trkpt lat="43.68087" lon="7.09908">
        <ele>130.1</ele>
        <time>2026-05-16T14:35:25Z</time>
      </trkpt>
      <trkpt lat="43.68087" lon="7.09908">
        <ele>130.1</ele>
        <time>2026-05-16T14:35:26Z</time>
      </trkpt>
      <trkpt lat="43.68087" lon="7.09908">
        <ele>130.1</ele>
        <time>2026-05-16T14:35:27Z</time>
      </trkpt>
      <trkpt lat="43.68087" lon="7.09908">
        <ele>130.1</ele>
        <time>2026-05-16T14:35:28Z</time>
      </trkpt>
      <trkpt lat="43.68086" lon="7.09908">
        <ele>130</ele>
        <time>2026-05-16T14:35:29Z</time>
      </trkpt>
      <trkpt lat="43.68086" lon="7.09908">
        <ele>130</ele>
        <time>2026-05-16T14:35:30Z</time>
      </trkpt>
      <trkpt lat="43.68086" lon="7.09908">
        <ele>130</ele>
        <time>2026-05-16T14:35:31Z</time>
      </trkpt>
      <trkpt lat="43.68086" lon="7.09908">
        <ele>130</ele>
        <time>2026-05-16T14:35:32Z</time>
      </trkpt>
      <trkpt lat="43.68086" lon="7.09908">
        <ele>130</ele>
        <time>2026-05-16T14:35:33Z</time>
      </trkpt>
      <trkpt lat="43.68086" lon="7.09908">
        <ele>130</ele>
        <time>2026-05-16T14:35:34Z</time>
      </trkpt>
      <trkpt lat="43.68086" lon="7.09908">
        <ele>130</ele>
        <time>2026-05-16T14:35:35Z</time>
      </trkpt>
      <trkpt lat="43.68086" lon="7.09908">
        <ele>130</ele>
        <time>2026-05-16T14:35:36Z</time>
      </trkpt>
      <trkpt lat="43.68086" lon="7.09908">
        <ele>130</ele>
        <time>2026-05-16T14:35:37Z</time>
      </trkpt>
      <trkpt lat="43.68086" lon="7.09908">
        <ele>130</ele>
        <time>2026-05-16T14:35:38Z</time>
      </trkpt>
      <trkpt lat="43.68086" lon="7.09908">
        <ele>130</ele>
        <time>2026-05-16T14:35:39Z</time>
      </trkpt>
      <trkpt lat="43.68086" lon="7.09908">
        <ele>130</ele>
        <time>2026-05-16T14:35:40Z</time>
      </trkpt>
      <trkpt lat="43.68086" lon="7.09908">
        <ele>130</ele>
        <time>2026-05-16T14:35:41Z</time>
      </trkpt>
      <trkpt lat="43.68086" lon="7.09908">
        <ele>130</ele>
        <time>2026-05-16T14:35:42Z</time>
      </trkpt>
      <trkpt lat="43.68086" lon="7.09908">
        <ele>130</ele>
        <time>2026-05-16T14:35:43Z</time>
      </trkpt>
      <trkpt lat="43.68086" lon="7.09908">
        <ele>130</ele>
        <time>2026-05-16T14:35:44Z</time>
      </trkpt>
      <trkpt lat="43.68086" lon="7.09908">
        <ele>130</ele>
        <time>2026-05-16T14:35:45Z</time>
      </trkpt>
      <trkpt lat="43.68086" lon="7.09908">
        <ele>130</ele>
        <time>2026-05-16T14:35:46Z</time>
      </trkpt>
      <trkpt lat="43.68086" lon="7.09908">
        <ele>130</ele>
        <time>2026-05-16T14:35:47Z</time>
      </trkpt>
      <trkpt lat="43.68086" lon="7.09908">
        <ele>130</ele>
        <time>2026-05-16T14:35:48Z</time>
      </trkpt>
      <trkpt lat="43.68086" lon="7.09908">
        <ele>130</ele>
        <time>2026-05-16T14:35:49Z</time>
      </trkpt>
      <trkpt lat="43.68086" lon="7.09908">
        <ele>130</ele>
        <time>2026-05-16T14:35:50Z</time>
      </trkpt>
      <trkpt lat="43.68086" lon="7.09908">
        <ele>130</ele>
        <time>2026-05-16T14:35:51Z</time>
      </trkpt>
      <trkpt lat="43.68086" lon="7.09908">
        <ele>130</ele>
        <time>2026-05-16T14:35:52Z</time>
      </trkpt>
      <trkpt lat="43.68086" lon="7.09908">
        <ele>130</ele>
        <time>2026-05-16T14:35:53Z</time>
      </trkpt>
      <trkpt lat="43.68086" lon="7.09908">
        <ele>130</ele>
        <time>2026-05-16T14:35:54Z</time>
      </trkpt>
      <trkpt lat="43.68086" lon="7.09908">
        <ele>130</ele>
        <time>2026-05-16T14:35:55Z</time>
      </trkpt>
      <trkpt lat="43.68086" lon="7.09908">
        <ele>130</ele>
        <time>2026-05-16T14:35:56Z</time>
      </trkpt>
      <trkpt lat="43.68086" lon="7.09908">
        <ele>130</ele>
        <time>2026-05-16T14:35:57Z</time>
      </trkpt>
      <trkpt lat="43.68086" lon="7.09908">
        <ele>130</ele>
        <time>2026-05-16T14:35:58Z</time>
      </trkpt>
      <trkpt lat="43.68086" lon="7.09908">
        <ele>130</ele>
        <time>2026-05-16T14:35:59Z</time>
      </trkpt>
      <trkpt lat="43.68086" lon="7.09908">
        <ele>130</ele>
        <time>2026-05-16T14:36:00Z</time>
      </trkpt>
      <trkpt lat="43.68086" lon="7.09908">
        <ele>130</ele>
        <time>2026-05-16T14:36:01Z</time>
      </trkpt>
      <trkpt lat="43.68086" lon="7.09908">
        <ele>130</ele>
        <time>2026-05-16T14:36:02Z</time>
      </trkpt>
      <trkpt lat="43.68086" lon="7.09908">
        <ele>130</ele>
        <time>2026-05-16T14:36:03Z</time>
      </trkpt>
      <trkpt lat="43.68086" lon="7.09908">
        <ele>130</ele>
        <time>2026-05-16T14:36:04Z</time>
      </trkpt>
      <trkpt lat="43.68086" lon="7.09908">
        <ele>130</ele>
        <time>2026-05-16T14:36:05Z</time>
      </trkpt>
      <trkpt lat="43.68086" lon="7.09908">
        <ele>130</ele>
        <time>2026-05-16T14:36:06Z</time>
      </trkpt>
      <trkpt lat="43.68086" lon="7.09908">
        <ele>130</ele>
        <time>2026-05-16T14:36:07Z</time>
      </trkpt>
      <trkpt lat="43.68086" lon="7.09908">
        <ele>130</ele>
        <time>2026-05-16T14:36:08Z</time>
      </trkpt>
      <trkpt lat="43.68086" lon="7.09908">
        <ele>130</ele>
        <time>2026-05-16T14:36:09Z</time>
      </trkpt>
      <trkpt lat="43.68086" lon="7.09908">
        <ele>130</ele>
        <time>2026-05-16T14:36:10Z</time>
      </trkpt>
      <trkpt lat="43.68086" lon="7.09908">
        <ele>130</ele>
        <time>2026-05-16T14:36:11Z</time>
      </trkpt>
      <trkpt lat="43.68086" lon="7.09908">
        <ele>130</ele>
        <time>2026-05-16T14:36:12Z</time>
      </trkpt>
      <trkpt lat="43.68086" lon="7.09908">
        <ele>130</ele>
        <time>2026-05-16T14:36:13Z</time>
      </trkpt>
      <trkpt lat="43.68086" lon="7.09908">
        <ele>130</ele>
        <time>2026-05-16T14:36:14Z</time>
      </trkpt>
      <trkpt lat="43.68086" lon="7.09908">
        <ele>130</ele>
        <time>2026-05-16T14:36:15Z</time>
      </trkpt>
      <trkpt lat="43.68086" lon="7.09908">
        <ele>130</ele>
        <time>2026-05-16T14:36:16Z</time>
      </trkpt>
      <trkpt lat="43.68086" lon="7.09908">
        <ele>130</ele>
        <time>2026-05-16T14:36:17Z</time>
      </trkpt>
      <trkpt lat="43.68086" lon="7.09908">
        <ele>130</ele>
        <time>2026-05-16T14:36:18Z</time>
      </trkpt>
      <trkpt lat="43.68086" lon="7.09908">
        <ele>130</ele>
        <time>2026-05-16T14:36:19Z</time>
      </trkpt>
      <trkpt lat="43.68086" lon="7.09908">
        <ele>130</ele>
        <time>2026-05-16T14:36:20Z</time>
      </trkpt>
      <trkpt lat="43.68086" lon="7.09908">
        <ele>130</ele>
        <time>2026-05-16T14:36:21Z</time>
      </trkpt>
      <trkpt lat="43.68086" lon="7.09908">
        <ele>130</ele>
        <time>2026-05-16T14:36:22Z</time>
      </trkpt>
      <trkpt lat="43.68086" lon="7.09908">
        <ele>130</ele>
        <time>2026-05-16T14:36:23Z</time>
      </trkpt>
      <trkpt lat="43.68086" lon="7.09908">
        <ele>130</ele>
        <time>2026-05-16T14:36:24Z</time>
      </trkpt>
      <trkpt lat="43.68086" lon="7.09908">
        <ele>130</ele>
        <time>2026-05-16T14:36:25Z</time>
      </trkpt>
      <trkpt lat="43.68086" lon="7.09908">
        <ele>130</ele>
        <time>2026-05-16T14:36:26Z</time>
      </trkpt>
      <trkpt lat="43.68086" lon="7.09908">
        <ele>130</ele>
        <time>2026-05-16T14:36:27Z</time>
      </trkpt>
      <trkpt lat="43.68086" lon="7.09908">
        <ele>130</ele>
        <time>2026-05-16T14:36:28Z</time>
      </trkpt>
      <trkpt lat="43.68086" lon="7.09908">
        <ele>130</ele>
        <time>2026-05-16T14:36:29Z</time>
      </trkpt>
      <trkpt lat="43.68086" lon="7.09908">
        <ele>130</ele>
        <time>2026-05-16T14:36:30Z</time>
      </trkpt>
      <trkpt lat="43.68086" lon="7.09908">
        <ele>130</ele>
        <time>2026-05-16T14:36:31Z</time>
      </trkpt>
      <trkpt lat="43.68086" lon="7.09908">
        <ele>130</ele>
        <time>2026-05-16T14:36:32Z</time>
      </trkpt>
      <trkpt lat="43.68086" lon="7.09908">
        <ele>130</ele>
        <time>2026-05-16T14:36:33Z</time>
      </trkpt>
      <trkpt lat="43.68086" lon="7.09908">
        <ele>130</ele>
        <time>2026-05-16T14:36:34Z</time>
      </trkpt>
      <trkpt lat="43.68086" lon="7.09908">
        <ele>130</ele>
        <time>2026-05-16T14:36:35Z</time>
      </trkpt>
      <trkpt lat="43.68086" lon="7.09908">
        <ele>130</ele>
        <time>2026-05-16T14:36:36Z</time>
      </trkpt>
      <trkpt lat="43.68086" lon="7.09908">
        <ele>130</ele>
        <time>2026-05-16T14:36:37Z</time>
      </trkpt>
      <trkpt lat="43.68086" lon="7.09908">
        <ele>130</ele>
        <time>2026-05-16T14:36:38Z</time>
      </trkpt>
      <trkpt lat="43.68086" lon="7.09908">
        <ele>130</ele>
        <time>2026-05-16T14:36:39Z</time>
      </trkpt>
      <trkpt lat="43.68086" lon="7.09908">
        <ele>130</ele>
        <time>2026-05-16T14:36:40Z</time>
      </trkpt>
      <trkpt lat="43.68086" lon="7.09908">
        <ele>130</ele>
        <time>2026-05-16T14:36:41Z</time>
      </trkpt>
      <trkpt lat="43.68086" lon="7.09908">
        <ele>130</ele>
        <time>2026-05-16T14:36:42Z</time>
      </trkpt>
      <trkpt lat="43.68086" lon="7.09908">
        <ele>130</ele>
        <time>2026-05-16T14:36:43Z</time>
      </trkpt>
      <trkpt lat="43.68086" lon="7.09908">
        <ele>130</ele>
        <time>2026-05-16T14:36:44Z</time>
      </trkpt>
      <trkpt lat="43.68086" lon="7.09908">
        <ele>130</ele>
        <time>2026-05-16T14:36:45Z</time>
      </trkpt>
      <trkpt lat="43.68086" lon="7.09908">
        <ele>130</ele>
        <time>2026-05-16T14:36:46Z</time>
      </trkpt>
      <trkpt lat="43.68086" lon="7.09908">
        <ele>130</ele>
        <time>2026-05-16T14:36:47Z</time>
      </trkpt>
      <trkpt lat="43.68086" lon="7.09908">
        <ele>130</ele>
        <time>2026-05-16T14:36:48Z</time>
      </trkpt>
      <trkpt lat="43.68086" lon="7.09908">
        <ele>130</ele>
        <time>2026-05-16T14:36:49Z</time>
      </trkpt>
      <trkpt lat="43.68086" lon="7.09908">
        <ele>130</ele>
        <time>2026-05-16T14:36:50Z</time>
      </trkpt>
      <trkpt lat="43.68086" lon="7.09908">
        <ele>130</ele>
        <time>2026-05-16T14:36:51Z</time>
      </trkpt>
      <trkpt lat="43.68086" lon="7.09908">
        <ele>130</ele>
        <time>2026-05-16T14:36:52Z</time>
      </trkpt>
      <trkpt lat="43.68086" lon="7.09908">
        <ele>130</ele>
        <time>2026-05-16T14:36:53Z</time>
      </trkpt>
      <trkpt lat="43.68086" lon="7.09908">
        <ele>130</ele>
        <time>2026-05-16T14:36:54Z</time>
      </trkpt>
      <trkpt lat="43.68086" lon="7.09908">
        <ele>130</ele>
        <time>2026-05-16T14:36:55Z</time>
      </trkpt>
      <trkpt lat="43.68086" lon="7.09908">
        <ele>130</ele>
        <time>2026-05-16T14:36:56Z</time>
      </trkpt>
      <trkpt lat="43.68086" lon="7.09908">
        <ele>130</ele>
        <time>2026-05-16T14:36:57Z</time>
      </trkpt>
      <trkpt lat="43.68086" lon="7.09908">
        <ele>130</ele>
        <time>2026-05-16T14:36:58Z</time>
      </trkpt>
      <trkpt lat="43.68086" lon="7.09908">
        <ele>130</ele>
        <time>2026-05-16T14:36:59Z</time>
      </trkpt>
      <trkpt lat="43.68086" lon="7.09908">
        <ele>130</ele>
        <time>2026-05-16T14:37:00Z</time>
      </trkpt>
      <trkpt lat="43.68086" lon="7.09908">
        <ele>130</ele>
        <time>2026-05-16T14:37:01Z</time>
      </trkpt>
      <trkpt lat="43.68086" lon="7.09908">
        <ele>130</ele>
        <time>2026-05-16T14:37:02Z</time>
      </trkpt>
      <trkpt lat="43.68086" lon="7.09908">
        <ele>130</ele>
        <time>2026-05-16T14:37:03Z</time>
      </trkpt>
      <trkpt lat="43.68086" lon="7.09908">
        <ele>130</ele>
        <time>2026-05-16T14:37:04Z</time>
      </trkpt>
      <trkpt lat="43.68086" lon="7.09908">
        <ele>130</ele>
        <time>2026-05-16T14:37:05Z</time>
      </trkpt>
      <trkpt lat="43.68086" lon="7.09908">
        <ele>130</ele>
        <time>2026-05-16T14:37:06Z</time>
      </trkpt>
      <trkpt lat="43.68086" lon="7.09908">
        <ele>130</ele>
        <time>2026-05-16T14:37:07Z</time>
      </trkpt>
      <trkpt lat="43.68086" lon="7.09908">
        <ele>130</ele>
        <time>2026-05-16T14:37:08Z</time>
      </trkpt>
      <trkpt lat="43.68086" lon="7.09908">
        <ele>130</ele>
        <time>2026-05-16T14:37:09Z</time>
      </trkpt>
      <trkpt lat="43.68086" lon="7.09908">
        <ele>130</ele>
        <time>2026-05-16T14:37:10Z</time>
      </trkpt>
      <trkpt lat="43.68086" lon="7.09908">
        <ele>130</ele>
        <time>2026-05-16T14:37:11Z</time>
      </trkpt>
      <trkpt lat="43.68086" lon="7.09908">
        <ele>130</ele>
        <time>2026-05-16T14:37:12Z</time>
      </trkpt>
      <trkpt lat="43.68086" lon="7.09908">
        <ele>130</ele>
        <time>2026-05-16T14:37:13Z</time>
      </trkpt>
      <trkpt lat="43.68086" lon="7.09908">
        <ele>130</ele>
        <time>2026-05-16T14:37:14Z</time>
      </trkpt>
      <trkpt lat="43.68086" lon="7.09908">
        <ele>130</ele>
        <time>2026-05-16T14:37:15Z</time>
      </trkpt>
      <trkpt lat="43.68086" lon="7.09908">
        <ele>130</ele>
        <time>2026-05-16T14:37:16Z</time>
      </trkpt>
      <trkpt lat="43.68086" lon="7.09908">
        <ele>130</ele>
        <time>2026-05-16T14:37:17Z</time>
      </trkpt>
      <trkpt lat="43.68086" lon="7.09908">
        <ele>130</ele>
        <time>2026-05-16T14:37:18Z</time>
      </trkpt>
      <trkpt lat="43.68086" lon="7.09908">
        <ele>130</ele>
        <time>2026-05-16T14:37:19Z</time>
      </trkpt>
      <trkpt lat="43.68086" lon="7.09908">
        <ele>130</ele>
        <time>2026-05-16T14:37:20Z</time>
      </trkpt>
      <trkpt lat="43.68086" lon="7.09908">
        <ele>130</ele>
        <time>2026-05-16T14:37:21Z</time>
      </trkpt>
      <trkpt lat="43.68086" lon="7.09908">
        <ele>130</ele>
        <time>2026-05-16T14:37:22Z</time>
      </trkpt>
      <trkpt lat="43.68086" lon="7.09908">
        <ele>130</ele>
        <time>2026-05-16T14:37:23Z</time>
      </trkpt>
      <trkpt lat="43.68086" lon="7.09908">
        <ele>130</ele>
        <time>2026-05-16T14:37:24Z</time>
      </trkpt>
      <trkpt lat="43.68086" lon="7.09908">
        <ele>130</ele>
        <time>2026-05-16T14:37:25Z</time>
      </trkpt>
      <trkpt lat="43.68086" lon="7.09908">
        <ele>130</ele>
        <time>2026-05-16T14:37:26Z</time>
      </trkpt>
      <trkpt lat="43.68086" lon="7.09908">
        <ele>130</ele>
        <time>2026-05-16T14:37:27Z</time>
      </trkpt>
      <trkpt lat="43.68086" lon="7.09908">
        <ele>130</ele>
        <time>2026-05-16T14:37:28Z</time>
      </trkpt>
      <trkpt lat="43.68086" lon="7.09908">
        <ele>130</ele>
        <time>2026-05-16T14:37:29Z</time>
      </trkpt>
      <trkpt lat="43.68086" lon="7.09908">
        <ele>130</ele>
        <time>2026-05-16T14:37:30Z</time>
      </trkpt>
      <trkpt lat="43.68086" lon="7.09908">
        <ele>130</ele>
        <time>2026-05-16T14:37:31Z</time>
      </trkpt>
      <trkpt lat="43.68086" lon="7.09908">
        <ele>130</ele>
        <time>2026-05-16T14:37:32Z</time>
      </trkpt>
      <trkpt lat="43.68086" lon="7.09908">
        <ele>130</ele>
        <time>2026-05-16T14:37:33Z</time>
      </trkpt>
      <trkpt lat="43.68086" lon="7.09908">
        <ele>130</ele>
        <time>2026-05-16T14:37:34Z</time>
      </trkpt>
      <trkpt lat="43.68086" lon="7.09908">
        <ele>130</ele>
        <time>2026-05-16T14:37:35Z</time>
      </trkpt>
      <trkpt lat="43.68086" lon="7.09908">
        <ele>130</ele>
        <time>2026-05-16T14:37:36Z</time>
      </trkpt>
      <trkpt lat="43.68086" lon="7.09908">
        <ele>130</ele>
        <time>2026-05-16T14:37:37Z</time>
      </trkpt>
      <trkpt lat="43.68086" lon="7.09908">
        <ele>130</ele>
        <time>2026-05-16T14:37:38Z</time>
      </trkpt>
      <trkpt lat="43.68086" lon="7.09908">
        <ele>130</ele>
        <time>2026-05-16T14:37:39Z</time>
      </trkpt>
      <trkpt lat="43.68086" lon="7.09908">
        <ele>130</ele>
        <time>2026-05-16T14:37:40Z</time>
      </trkpt>
      <trkpt lat="43.68086" lon="7.09908">
        <ele>130</ele>
        <time>2026-05-16T14:37:41Z</time>
      </trkpt>
      <trkpt lat="43.68086" lon="7.09908">
        <ele>130</ele>
        <time>2026-05-16T14:37:42Z</time>
      </trkpt>
      <trkpt lat="43.68086" lon="7.09908">
        <ele>130</ele>
        <time>2026-05-16T14:37:43Z</time>
      </trkpt>
      <trkpt lat="43.68086" lon="7.09908">
        <ele>130</ele>
        <time>2026-05-16T14:37:44Z</time>
      </trkpt>
      <trkpt lat="43.68086" lon="7.09908">
        <ele>130</ele>
        <time>2026-05-16T14:37:45Z</time>
      </trkpt>
      <trkpt lat="43.68086" lon="7.09908">
        <ele>130</ele>
        <time>2026-05-16T14:37:46Z</time>
      </trkpt>
      <trkpt lat="43.68086" lon="7.09908">
        <ele>130</ele>
        <time>2026-05-16T14:37:47Z</time>
      </trkpt>
      <trkpt lat="43.68086" lon="7.09908">
        <ele>130</ele>
        <time>2026-05-16T14:37:48Z</time>
      </trkpt>
      <trkpt lat="43.68086" lon="7.09908">
        <ele>130</ele>
        <time>2026-05-16T14:37:49Z</time>
      </trkpt>
      <trkpt lat="43.68086" lon="7.09908">
        <ele>130</ele>
        <time>2026-05-16T14:37:50Z</time>
      </trkpt>
      <trkpt lat="43.68086" lon="7.09908">
        <ele>130</ele>
        <time>2026-05-16T14:37:51Z</time>
      </trkpt>
      <trkpt lat="43.68086" lon="7.09908">
        <ele>130</ele>
        <time>2026-05-16T14:37:52Z</time>
      </trkpt>
      <trkpt lat="43.68086" lon="7.09908">
        <ele>130</ele>
        <time>2026-05-16T14:37:53Z</time>
      </trkpt>
      <trkpt lat="43.68086" lon="7.09908">
        <ele>130</ele>
        <time>2026-05-16T14:37:54Z</time>
      </trkpt>
      <trkpt lat="43.68086" lon="7.09908">
        <ele>130</ele>
        <time>2026-05-16T14:37:55Z</time>
      </trkpt>
      <trkpt lat="43.68086" lon="7.09908">
        <ele>130</ele>
        <time>2026-05-16T14:37:56Z</time>
      </trkpt>
      <trkpt lat="43.68086" lon="7.09908">
        <ele>130</ele>
        <time>2026-05-16T14:37:57Z</time>
      </trkpt>
      <trkpt lat="43.68086" lon="7.09908">
        <ele>130</ele>
        <time>2026-05-16T14:37:58Z</time>
      </trkpt>
      <trkpt lat="43.68086" lon="7.09908">
        <ele>130</ele>
        <time>2026-05-16T14:37:59Z</time>
      </trkpt>
      <trkpt lat="43.68086" lon="7.09908">
        <ele>130</ele>
        <time>2026-05-16T14:38:00Z</time>
      </trkpt>
      <trkpt lat="43.68086" lon="7.09908">
        <ele>130</ele>
        <time>2026-05-16T14:38:01Z</time>
      </trkpt>
      <trkpt lat="43.68086" lon="7.09908">
        <ele>130</ele>
        <time>2026-05-16T14:38:02Z</time>
      </trkpt>
      <trkpt lat="43.68086" lon="7.09908">
        <ele>130</ele>
        <time>2026-05-16T14:38:03Z</time>
      </trkpt>
      <trkpt lat="43.68086" lon="7.09908">
        <ele>130</ele>
        <time>2026-05-16T14:38:04Z</time>
      </trkpt>
      <trkpt lat="43.68086" lon="7.09908">
        <ele>130</ele>
        <time>2026-05-16T14:38:05Z</time>
      </trkpt>
      <trkpt lat="43.68086" lon="7.09908">
        <ele>130</ele>
        <time>2026-05-16T14:38:06Z</time>
      </trkpt>
      <trkpt lat="43.68086" lon="7.09908">
        <ele>130</ele>
        <time>2026-05-16T14:38:07Z</time>
      </trkpt>
      <trkpt lat="43.68086" lon="7.09908">
        <ele>130</ele>
        <time>2026-05-16T14:38:08Z</time>
      </trkpt>
      <trkpt lat="43.68086" lon="7.09908">
        <ele>130</ele>
        <time>2026-05-16T14:38:09Z</time>
      </trkpt>
      <trkpt lat="43.68086" lon="7.09908">
        <ele>130</ele>
        <time>2026-05-16T14:38:10Z</time>
      </trkpt>
      <trkpt lat="43.68086" lon="7.09908">
        <ele>130</ele>
        <time>2026-05-16T14:38:11Z</time>
      </trkpt>
      <trkpt lat="43.68086" lon="7.09908">
        <ele>130</ele>
        <time>2026-05-16T14:38:12Z</time>
      </trkpt>
      <trkpt lat="43.68086" lon="7.09908">
        <ele>130</ele>
        <time>2026-05-16T14:38:13Z</time>
      </trkpt>
      <trkpt lat="43.68086" lon="7.09908">
        <ele>130</ele>
        <time>2026-05-16T14:38:14Z</time>
      </trkpt>
      <trkpt lat="43.68086" lon="7.09908">
        <ele>130</ele>
        <time>2026-05-16T14:38:15Z</time>
      </trkpt>
      <trkpt lat="43.68086" lon="7.09908">
        <ele>130</ele>
        <time>2026-05-16T14:38:16Z</time>
      </trkpt>
      <trkpt lat="43.68086" lon="7.09908">
        <ele>130</ele>
        <time>2026-05-16T14:38:17Z</time>
      </trkpt>
      <trkpt lat="43.68086" lon="7.09908">
        <ele>130</ele>
        <time>2026-05-16T14:38:18Z</time>
      </trkpt>
      <trkpt lat="43.68086" lon="7.09908">
        <ele>130</ele>
        <time>2026-05-16T14:38:19Z</time>
      </trkpt>
      <trkpt lat="43.68086" lon="7.09908">
        <ele>130</ele>
        <time>2026-05-16T14:38:20Z</time>
      </trkpt>
      <trkpt lat="43.68086" lon="7.09908">
        <ele>130</ele>
        <time>2026-05-16T14:38:21Z</time>
      </trkpt>
      <trkpt lat="43.68086" lon="7.09908">
        <ele>130</ele>
        <time>2026-05-16T14:38:22Z</time>
      </trkpt>
      <trkpt lat="43.68086" lon="7.09908">
        <ele>130</ele>
        <time>2026-05-16T14:38:23Z</time>
      </trkpt>
      <trkpt lat="43.68086" lon="7.09908">
        <ele>130</ele>
        <time>2026-05-16T14:38:24Z</time>
      </trkpt>
      <trkpt lat="43.68086" lon="7.09908">
        <ele>130</ele>
        <time>2026-05-16T14:38:25Z</time>
      </trkpt>
      <trkpt lat="43.68086" lon="7.09908">
        <ele>130</ele>
        <time>2026-05-16T14:38:26Z</time>
      </trkpt>
      <trkpt lat="43.68086" lon="7.09908">
        <ele>130</ele>
        <time>2026-05-16T14:38:27Z</time>
      </trkpt>
      <trkpt lat="43.68086" lon="7.09908">
        <ele>130</ele>
        <time>2026-05-16T14:38:28Z</time>
      </trkpt>
      <trkpt lat="43.68086" lon="7.09908">
        <ele>130</ele>
        <time>2026-05-16T14:38:29Z</time>
      </trkpt>
      <trkpt lat="43.68086" lon="7.09908">
        <ele>130</ele>
        <time>2026-05-16T14:38:30Z</time>
      </trkpt>
      <trkpt lat="43.68086" lon="7.09908">
        <ele>130</ele>
        <time>2026-05-16T14:38:31Z</time>
      </trkpt>
      <trkpt lat="43.68086" lon="7.09908">
        <ele>130</ele>
        <time>2026-05-16T14:38:32Z</time>
      </trkpt>
      <trkpt lat="43.68086" lon="7.09908">
        <ele>130</ele>
        <time>2026-05-16T14:38:33Z</time>
      </trkpt>
      <trkpt lat="43.68086" lon="7.09908">
        <ele>130</ele>
        <time>2026-05-16T14:38:34Z</time>
      </trkpt>
      <trkpt lat="43.68086" lon="7.09908">
        <ele>130</ele>
        <time>2026-05-16T14:38:35Z</time>
      </trkpt>
      <trkpt lat="43.68086" lon="7.09908">
        <ele>130</ele>
        <time>2026-05-16T14:38:36Z</time>
      </trkpt>
      <trkpt lat="43.68086" lon="7.09908">
        <ele>130</ele>
        <time>2026-05-16T14:38:37Z</time>
      </trkpt>
      <trkpt lat="43.68086" lon="7.09908">
        <ele>130</ele>
        <time>2026-05-16T14:38:38Z</time>
      </trkpt>
      <trkpt lat="43.68086" lon="7.09908">
        <ele>130</ele>
        <time>2026-05-16T14:38:39Z</time>
      </trkpt>
      <trkpt lat="43.68086" lon="7.09908">
        <ele>130</ele>
        <time>2026-05-16T14:38:40Z</time>
      </trkpt>
      <trkpt lat="43.68086" lon="7.09908">
        <ele>130</ele>
        <time>2026-05-16T14:38:41Z</time>
      </trkpt>
      <trkpt lat="43.68086" lon="7.09908">
        <ele>130</ele>
        <time>2026-05-16T14:38:42Z</time>
      </trkpt>
      <trkpt lat="43.68086" lon="7.09908">
        <ele>130</ele>
        <time>2026-05-16T14:38:43Z</time>
      </trkpt>
      <trkpt lat="43.68087" lon="7.09909">
        <ele>130.1</ele>
        <time>2026-05-16T14:38:44Z</time>
      </trkpt>
      <trkpt lat="43.68087" lon="7.09909">
        <ele>130.1</ele>
        <time>2026-05-16T14:38:45Z</time>
      </trkpt>
      <trkpt lat="43.68087" lon="7.0991">
        <ele>130</ele>
        <time>2026-05-16T14:38:46Z</time>
      </trkpt>
      <trkpt lat="43.68086" lon="7.0991">
        <ele>129.9</ele>
        <time>2026-05-16T14:38:47Z</time>
      </trkpt>
      <trkpt lat="43.68086" lon="7.0991">
        <ele>129.9</ele>
        <time>2026-05-16T14:38:48Z</time>
      </trkpt>
      <trkpt lat="43.68086" lon="7.0991">
        <ele>129.9</ele>
        <time>2026-05-16T14:38:49Z</time>
      </trkpt>
      <trkpt lat="43.68086" lon="7.0991">
        <ele>129.9</ele>
        <time>2026-05-16T14:38:50Z</time>
      </trkpt>
      <trkpt lat="43.68086" lon="7.0991">
        <ele>129.9</ele>
        <time>2026-05-16T14:38:51Z</time>
      </trkpt>
      <trkpt lat="43.68086" lon="7.0991">
        <ele>129.9</ele>
        <time>2026-05-16T14:38:52Z</time>
      </trkpt>
      <trkpt lat="43.68086" lon="7.0991">
        <ele>129.9</ele>
        <time>2026-05-16T14:38:53Z</time>
      </trkpt>
      <trkpt lat="43.68086" lon="7.0991">
        <ele>129.9</ele>
        <time>2026-05-16T14:38:54Z</time>
      </trkpt>
      <trkpt lat="43.68086" lon="7.0991">
        <ele>129.9</ele>
        <time>2026-05-16T14:38:55Z</time>
      </trkpt>
      <trkpt lat="43.68086" lon="7.0991">
        <ele>129.9</ele>
        <time>2026-05-16T14:38:56Z</time>
      </trkpt>
      <trkpt lat="43.68086" lon="7.0991">
        <ele>129.9</ele>
        <time>2026-05-16T14:38:57Z</time>
      </trkpt>
    </trkseg>
  </trk>
</gpx>